<?xml version="1.0" encoding="UTF-8" standalone="no" ?>
  <gpx version="1.0" creator="Loctome.com">
  <metadata>
  <link href="https://play.google.com/store/apps/details?id=com.loctome.app.loctome">
      <text>Loctome Live Track GPS</text>
  </link>
  <desc>File created by Loctome Android Client No Limits Edition</desc>
  <time>2016-06-29T10:04:44Z</time>
  </metadata>
  <trk>
    <name>2016-06-29T10:04:44Z</name>
    <trkseg>
      <trkpt lat="40.42184788" lon="-5.30074975"><ele>1908</ele><speed>0.00</speed><time>2016-06-29T10:04:46Z</time><pdop>9.0</pdop><geoidheight>54.00</geoidheight><course>0.0</course><type>1</type></trkpt>
      <trkpt lat="40.42184227" lon="-5.30075426"><ele>1909</ele><speed>0.00</speed><time>2016-06-29T10:05:46Z</time><pdop>9.0</pdop><geoidheight>54.00</geoidheight><course>0.0</course><type>1</type></trkpt>
      <trkpt lat="40.4218376" lon="-5.3007557"><ele>1911</ele><speed>0.00</speed><time>2016-06-29T10:06:46Z</time><pdop>9.0</pdop><geoidheight>54.00</geoidheight><course>0.0</course><type>1</type></trkpt>
      <trkpt lat="40.42182502" lon="-5.30076512"><ele>1915</ele><speed>0.00</speed><time>2016-06-29T10:07:46Z</time><pdop>9.0</pdop><geoidheight>54.00</geoidheight><course>0.0</course><type>1</type></trkpt>
      <trkpt lat="40.42181756" lon="-5.30077147"><ele>1914</ele><speed>0.00</speed><time>2016-06-29T10:08:46Z</time><pdop>11.0</pdop><geoidheight>54.00</geoidheight><course>0.0</course><type>1</type></trkpt>
      <trkpt lat="40.42180876" lon="-5.30078017"><ele>1919</ele><speed>0.00</speed><time>2016-06-29T10:09:46Z</time><pdop>9.0</pdop><geoidheight>54.00</geoidheight><course>0.0</course><type>1</type></trkpt>
      <trkpt lat="40.42180386" lon="-5.30078207"><ele>1919</ele><speed>0.00</speed><time>2016-06-29T10:10:46Z</time><pdop>14.0</pdop><geoidheight>54.00</geoidheight><course>0.0</course><type>1</type></trkpt>
      <trkpt lat="40.42180221" lon="-5.30078238"><ele>1920</ele><speed>0.00</speed><time>2016-06-29T10:11:52Z</time><pdop>11.0</pdop><geoidheight>54.00</geoidheight><course>0.0</course><type>1</type></trkpt>
      <trkpt lat="40.42179956" lon="-5.30078279"><ele>1920</ele><speed>0.00</speed><time>2016-06-29T10:12:52Z</time><pdop>3.0</pdop><geoidheight>54.00</geoidheight><course>0.0</course><type>1</type></trkpt>
      <trkpt lat="40.42179076" lon="-5.30078909"><ele>1921</ele><speed>0.00</speed><time>2016-06-29T10:13:52Z</time><pdop>3.0</pdop><geoidheight>54.00</geoidheight><course>0.0</course><type>1</type></trkpt>
      <trkpt lat="40.4217607" lon="-5.30079944"><ele>1924</ele><speed>0.00</speed><time>2016-06-29T10:14:52Z</time><pdop>3.0</pdop><geoidheight>54.00</geoidheight><course>0.0</course><type>1</type></trkpt>
      <trkpt lat="40.42174591" lon="-5.30078793"><ele>1923</ele><speed>0.00</speed><time>2016-06-29T10:15:52Z</time><pdop>3.0</pdop><geoidheight>54.00</geoidheight><course>0.0</course><type>1</type></trkpt>
      <trkpt lat="40.42174577" lon="-5.30078362"><ele>1921</ele><speed>0.00</speed><time>2016-06-29T10:16:52Z</time><pdop>4.0</pdop><geoidheight>54.00</geoidheight><course>0.0</course><type>1</type></trkpt>
      <trkpt lat="40.42173377" lon="-5.30080714"><ele>1920</ele><speed>0.00</speed><time>2016-06-29T10:17:52Z</time><pdop>3.0</pdop><geoidheight>54.00</geoidheight><course>0.0</course><type>1</type></trkpt>
      <trkpt lat="40.42173328" lon="-5.30080693"><ele>1920</ele><speed>0.00</speed><time>2016-06-29T10:18:52Z</time><pdop>3.0</pdop><geoidheight>54.00</geoidheight><course>0.0</course><type>1</type></trkpt>
      <trkpt lat="40.42174177" lon="-5.3008018"><ele>1918</ele><speed>0.00</speed><time>2016-06-29T10:19:52Z</time><pdop>3.0</pdop><geoidheight>54.00</geoidheight><course>0.0</course><type>1</type></trkpt>
      <trkpt lat="40.42174138" lon="-5.30080194"><ele>1918</ele><speed>0.00</speed><time>2016-06-29T10:20:52Z</time><pdop>4.0</pdop><geoidheight>54.00</geoidheight><course>0.0</course><type>1</type></trkpt>
      <trkpt lat="40.42173459" lon="-5.30080929"><ele>1918</ele><speed>0.42</speed><time>2016-06-29T10:21:52Z</time><pdop>3.0</pdop><geoidheight>54.00</geoidheight><course>24.6</course><type>1</type></trkpt>
      <trkpt lat="40.42174721" lon="-5.30082629"><ele>1922</ele><speed>0.54</speed><time>2016-06-29T10:22:52Z</time><pdop>3.0</pdop><geoidheight>54.00</geoidheight><course>84.5</course><type>1</type></trkpt>
      <trkpt lat="40.42181606" lon="-5.3010123"><ele>1923</ele><speed>5.57</speed><time>2016-06-29T10:23:08Z</time><pdop>9.0</pdop><geoidheight>54.00</geoidheight><course>287.1</course><type>1</type></trkpt>
      <trkpt lat="40.42186406" lon="-5.30126709"><ele>1922</ele><speed>6.92</speed><time>2016-06-29T10:23:11Z</time><pdop>9.0</pdop><geoidheight>54.00</geoidheight><course>285.9</course><type>1</type></trkpt>
      <trkpt lat="40.42193149" lon="-5.30143022"><ele>1917</ele><speed>8.72</speed><time>2016-06-29T10:23:13Z</time><pdop>3.0</pdop><geoidheight>54.00</geoidheight><course>314.5</course><type>1</type></trkpt>
      <trkpt lat="40.42200306" lon="-5.30147524"><ele>1916</ele><speed>8.46</speed><time>2016-06-29T10:23:14Z</time><pdop>3.0</pdop><geoidheight>54.00</geoidheight><course>332.2</course><type>1</type></trkpt>
      <trkpt lat="40.42207727" lon="-5.30151317"><ele>1915</ele><speed>8.34</speed><time>2016-06-29T10:23:15Z</time><pdop>3.0</pdop><geoidheight>54.00</geoidheight><course>336.7</course><type>1</type></trkpt>
      <trkpt lat="40.42216148" lon="-5.3014987"><ele>1914</ele><speed>8.15</speed><time>2016-06-29T10:23:16Z</time><pdop>3.0</pdop><geoidheight>54.00</geoidheight><course>352.3</course><type>1</type></trkpt>
      <trkpt lat="40.42227769" lon="-5.30142519"><ele>1914</ele><speed>9.82</speed><time>2016-06-29T10:23:17Z</time><pdop>3.0</pdop><geoidheight>54.00</geoidheight><course>14.0</course><type>1</type></trkpt>
      <trkpt lat="40.4223596" lon="-5.30135682"><ele>1916</ele><speed>9.58</speed><time>2016-06-29T10:23:18Z</time><pdop>3.0</pdop><geoidheight>54.00</geoidheight><course>26.5</course><type>1</type></trkpt>
      <trkpt lat="40.42242906" lon="-5.30129624"><ele>1916</ele><speed>9.25</speed><time>2016-06-29T10:23:19Z</time><pdop>3.0</pdop><geoidheight>54.00</geoidheight><course>31.9</course><type>1</type></trkpt>
      <trkpt lat="40.42249759" lon="-5.30121964"><ele>1915</ele><speed>9.43</speed><time>2016-06-29T10:23:20Z</time><pdop>3.0</pdop><geoidheight>54.00</geoidheight><course>39.2</course><type>1</type></trkpt>
      <trkpt lat="40.42256151" lon="-5.30115786"><ele>1915</ele><speed>9.20</speed><time>2016-06-29T10:23:21Z</time><pdop>3.0</pdop><geoidheight>54.00</geoidheight><course>37.7</course><type>1</type></trkpt>
      <trkpt lat="40.4226354" lon="-5.30110324"><ele>1916</ele><speed>8.91</speed><time>2016-06-29T10:23:22Z</time><pdop>3.0</pdop><geoidheight>54.00</geoidheight><course>30.9</course><type>1</type></trkpt>
      <trkpt lat="40.42270514" lon="-5.30104674"><ele>1916</ele><speed>8.87</speed><time>2016-06-29T10:23:23Z</time><pdop>4.0</pdop><geoidheight>54.00</geoidheight><course>28.9</course><type>1</type></trkpt>
      <trkpt lat="40.42278516" lon="-5.30100901"><ele>1916</ele><speed>8.79</speed><time>2016-06-29T10:23:24Z</time><pdop>5.0</pdop><geoidheight>54.00</geoidheight><course>24.2</course><type>1</type></trkpt>
      <trkpt lat="40.42288264" lon="-5.30093929"><ele>1916</ele><speed>7.42</speed><time>2016-06-29T10:23:26Z</time><pdop>6.0</pdop><geoidheight>54.00</geoidheight><course>28.4</course><type>1</type></trkpt>
      <trkpt lat="40.42303418" lon="-5.3008417"><ele>1915</ele><speed>7.01</speed><time>2016-06-29T10:23:29Z</time><pdop>8.0</pdop><geoidheight>54.00</geoidheight><course>22.4</course><type>1</type></trkpt>
      <trkpt lat="40.42327396" lon="-5.30076278"><ele>1914</ele><speed>7.53</speed><time>2016-06-29T10:23:32Z</time><pdop>9.0</pdop><geoidheight>54.00</geoidheight><course>17.5</course><type>1</type></trkpt>
      <trkpt lat="40.42343519" lon="-5.30074349"><ele>1915</ele><speed>6.10</speed><time>2016-06-29T10:23:35Z</time><pdop>7.0</pdop><geoidheight>54.00</geoidheight><course>24.0</course><type>1</type></trkpt>
      <trkpt lat="40.42359688" lon="-5.30065228"><ele>1917</ele><speed>6.20</speed><time>2016-06-29T10:23:38Z</time><pdop>6.0</pdop><geoidheight>54.00</geoidheight><course>28.4</course><type>1</type></trkpt>
      <trkpt lat="40.42368249" lon="-5.3005646"><ele>1918</ele><speed>6.74</speed><time>2016-06-29T10:23:40Z</time><pdop>6.0</pdop><geoidheight>54.00</geoidheight><course>37.0</course><type>1</type></trkpt>
      <trkpt lat="40.42380987" lon="-5.30048083"><ele>1924</ele><speed>7.60</speed><time>2016-06-29T10:23:42Z</time><pdop>6.0</pdop><geoidheight>54.00</geoidheight><course>24.4</course><type>1</type></trkpt>
      <trkpt lat="40.42369543" lon="-5.30064193"><ele>1926</ele><speed>6.97</speed><time>2016-06-29T10:23:48Z</time><pdop>8.0</pdop><geoidheight>54.00</geoidheight><course>201.5</course><type>1</type></trkpt>
      <trkpt lat="40.42351834" lon="-5.30067372"><ele>1927</ele><speed>11.70</speed><time>2016-06-29T10:23:49Z</time><pdop>5.0</pdop><geoidheight>54.00</geoidheight><course>186.9</course><type>1</type></trkpt>
      <trkpt lat="40.4234285" lon="-5.3006973"><ele>1929</ele><speed>11.95</speed><time>2016-06-29T10:23:50Z</time><pdop>5.0</pdop><geoidheight>54.00</geoidheight><course>187.6</course><type>1</type></trkpt>
      <trkpt lat="40.42333511" lon="-5.3007207"><ele>1931</ele><speed>11.83</speed><time>2016-06-29T10:23:51Z</time><pdop>4.0</pdop><geoidheight>54.00</geoidheight><course>190.1</course><type>1</type></trkpt>
      <trkpt lat="40.42322956" lon="-5.30076585"><ele>1932</ele><speed>11.48</speed><time>2016-06-29T10:23:52Z</time><pdop>4.0</pdop><geoidheight>54.00</geoidheight><course>193.0</course><type>1</type></trkpt>
      <trkpt lat="40.42313806" lon="-5.30079755"><ele>1932</ele><speed>11.12</speed><time>2016-06-29T10:23:53Z</time><pdop>4.0</pdop><geoidheight>54.00</geoidheight><course>195.3</course><type>1</type></trkpt>
      <trkpt lat="40.42304824" lon="-5.30083325"><ele>1932</ele><speed>11.03</speed><time>2016-06-29T10:23:54Z</time><pdop>4.0</pdop><geoidheight>54.00</geoidheight><course>197.6</course><type>1</type></trkpt>
      <trkpt lat="40.42295966" lon="-5.30087689"><ele>1931</ele><speed>10.87</speed><time>2016-06-29T10:23:55Z</time><pdop>4.0</pdop><geoidheight>54.00</geoidheight><course>202.4</course><type>1</type></trkpt>
      <trkpt lat="40.42287027" lon="-5.30092869"><ele>1931</ele><speed>10.78</speed><time>2016-06-29T10:23:56Z</time><pdop>6.0</pdop><geoidheight>54.00</geoidheight><course>205.1</course><type>1</type></trkpt>
      <trkpt lat="40.42269473" lon="-5.3010512"><ele>1932</ele><speed>11.01</speed><time>2016-06-29T10:23:58Z</time><pdop>7.0</pdop><geoidheight>54.00</geoidheight><course>209.7</course><type>1</type></trkpt>
      <trkpt lat="40.42252668" lon="-5.30118767"><ele>1932</ele><speed>10.80</speed><time>2016-06-29T10:24:00Z</time><pdop>7.0</pdop><geoidheight>54.00</geoidheight><course>212.9</course><type>1</type></trkpt>
      <trkpt lat="40.42242432" lon="-5.30131659"><ele>1935</ele><speed>9.27</speed><time>2016-06-29T10:24:02Z</time><pdop>7.0</pdop><geoidheight>54.00</geoidheight><course>224.1</course><type>1</type></trkpt>
      <trkpt lat="40.42230712" lon="-5.301444"><ele>1935</ele><speed>8.80</speed><time>2016-06-29T10:24:04Z</time><pdop>8.0</pdop><geoidheight>54.00</geoidheight><course>222.1</course><type>1</type></trkpt>
      <trkpt lat="40.42219753" lon="-5.30159441"><ele>1936</ele><speed>8.11</speed><time>2016-06-29T10:24:06Z</time><pdop>7.0</pdop><geoidheight>54.00</geoidheight><course>227.3</course><type>1</type></trkpt>
      <trkpt lat="40.42212651" lon="-5.3017652"><ele>1935</ele><speed>8.15</speed><time>2016-06-29T10:24:08Z</time><pdop>9.0</pdop><geoidheight>54.00</geoidheight><course>242.9</course><type>1</type></trkpt>
      <trkpt lat="40.42228629" lon="-5.30181565"><ele>1937</ele><speed>5.00</speed><time>2016-06-29T10:24:14Z</time><pdop>7.0</pdop><geoidheight>54.00</geoidheight><course>27.1</course><type>1</type></trkpt>
      <trkpt lat="40.42238838" lon="-5.30167532"><ele>1937</ele><speed>9.70</speed><time>2016-06-29T10:24:15Z</time><pdop>6.0</pdop><geoidheight>54.00</geoidheight><course>39.0</course><type>1</type></trkpt>
      <trkpt lat="40.42248297" lon="-5.30154038"><ele>1938</ele><speed>11.26</speed><time>2016-06-29T10:24:16Z</time><pdop>5.0</pdop><geoidheight>54.00</geoidheight><course>45.0</course><type>1</type></trkpt>
      <trkpt lat="40.42259465" lon="-5.30138286"><ele>1942</ele><speed>8.98</speed><time>2016-06-29T10:24:18Z</time><pdop>4.0</pdop><geoidheight>54.00</geoidheight><course>50.2</course><type>1</type></trkpt>
      <trkpt lat="40.42265291" lon="-5.30129985"><ele>1943</ele><speed>8.56</speed><time>2016-06-29T10:24:19Z</time><pdop>4.0</pdop><geoidheight>54.00</geoidheight><course>53.4</course><type>1</type></trkpt>
      <trkpt lat="40.42269982" lon="-5.30122178"><ele>1944</ele><speed>8.68</speed><time>2016-06-29T10:24:20Z</time><pdop>4.0</pdop><geoidheight>54.00</geoidheight><course>50.9</course><type>1</type></trkpt>
      <trkpt lat="40.42277058" lon="-5.30114338"><ele>1944</ele><speed>9.20</speed><time>2016-06-29T10:24:21Z</time><pdop>4.0</pdop><geoidheight>54.00</geoidheight><course>45.2</course><type>1</type></trkpt>
      <trkpt lat="40.42282916" lon="-5.30106608"><ele>1944</ele><speed>9.52</speed><time>2016-06-29T10:24:22Z</time><pdop>4.0</pdop><geoidheight>54.00</geoidheight><course>39.8</course><type>1</type></trkpt>
      <trkpt lat="40.4228918" lon="-5.30099405"><ele>1944</ele><speed>9.37</speed><time>2016-06-29T10:24:23Z</time><pdop>4.0</pdop><geoidheight>54.00</geoidheight><course>39.3</course><type>1</type></trkpt>
      <trkpt lat="40.4229535" lon="-5.30092619"><ele>1946</ele><speed>9.04</speed><time>2016-06-29T10:24:24Z</time><pdop>4.0</pdop><geoidheight>54.00</geoidheight><course>38.7</course><type>1</type></trkpt>
      <trkpt lat="40.42301288" lon="-5.30086669"><ele>1948</ele><speed>8.71</speed><time>2016-06-29T10:24:25Z</time><pdop>4.0</pdop><geoidheight>54.00</geoidheight><course>38.8</course><type>1</type></trkpt>
      <trkpt lat="40.42307467" lon="-5.30081094"><ele>1950</ele><speed>8.21</speed><time>2016-06-29T10:24:26Z</time><pdop>4.0</pdop><geoidheight>54.00</geoidheight><course>35.4</course><type>1</type></trkpt>
      <trkpt lat="40.42317928" lon="-5.30072554"><ele>1951</ele><speed>6.87</speed><time>2016-06-29T10:24:28Z</time><pdop>4.0</pdop><geoidheight>54.00</geoidheight><course>28.1</course><type>1</type></trkpt>
      <trkpt lat="40.42329869" lon="-5.300644"><ele>1952</ele><speed>7.10</speed><time>2016-06-29T10:24:30Z</time><pdop>7.0</pdop><geoidheight>54.00</geoidheight><course>28.7</course><type>1</type></trkpt>
      <trkpt lat="40.42343082" lon="-5.30050716"><ele>1953</ele><speed>8.64</speed><time>2016-06-29T10:24:32Z</time><pdop>4.0</pdop><geoidheight>54.00</geoidheight><course>35.1</course><type>1</type></trkpt>
      <trkpt lat="40.42354555" lon="-5.30041147"><ele>1954</ele><speed>7.88</speed><time>2016-06-29T10:24:34Z</time><pdop>4.0</pdop><geoidheight>54.00</geoidheight><course>29.2</course><type>1</type></trkpt>
      <trkpt lat="40.42361082" lon="-5.30036708"><ele>1955</ele><speed>8.04</speed><time>2016-06-29T10:24:35Z</time><pdop>4.0</pdop><geoidheight>54.00</geoidheight><course>27.9</course><type>1</type></trkpt>
      <trkpt lat="40.42367334" lon="-5.30031661"><ele>1955</ele><speed>8.13</speed><time>2016-06-29T10:24:36Z</time><pdop>4.0</pdop><geoidheight>54.00</geoidheight><course>32.4</course><type>1</type></trkpt>
      <trkpt lat="40.42374627" lon="-5.30027016"><ele>1956</ele><speed>8.63</speed><time>2016-06-29T10:24:37Z</time><pdop>4.0</pdop><geoidheight>54.00</geoidheight><course>30.0</course><type>1</type></trkpt>
      <trkpt lat="40.42381659" lon="-5.30022632"><ele>1957</ele><speed>8.35</speed><time>2016-06-29T10:24:38Z</time><pdop>4.0</pdop><geoidheight>54.00</geoidheight><course>27.8</course><type>1</type></trkpt>
      <trkpt lat="40.42388218" lon="-5.30017706"><ele>1958</ele><speed>7.58</speed><time>2016-06-29T10:24:39Z</time><pdop>4.0</pdop><geoidheight>54.00</geoidheight><course>26.7</course><type>1</type></trkpt>
      <trkpt lat="40.42395481" lon="-5.30013404"><ele>1959</ele><speed>7.95</speed><time>2016-06-29T10:24:40Z</time><pdop>4.0</pdop><geoidheight>54.00</geoidheight><course>23.2</course><type>1</type></trkpt>
      <trkpt lat="40.42402876" lon="-5.30009202"><ele>1959</ele><speed>7.91</speed><time>2016-06-29T10:24:41Z</time><pdop>3.0</pdop><geoidheight>54.00</geoidheight><course>25.0</course><type>1</type></trkpt>
      <trkpt lat="40.4240972" lon="-5.30005278"><ele>1960</ele><speed>7.97</speed><time>2016-06-29T10:24:42Z</time><pdop>4.0</pdop><geoidheight>54.00</geoidheight><course>24.6</course><type>1</type></trkpt>
      <trkpt lat="40.42417421" lon="-5.30002136"><ele>1961</ele><speed>8.26</speed><time>2016-06-29T10:24:43Z</time><pdop>4.0</pdop><geoidheight>54.00</geoidheight><course>21.4</course><type>1</type></trkpt>
      <trkpt lat="40.42428856" lon="-5.29996805"><ele>1961</ele><speed>7.38</speed><time>2016-06-29T10:24:45Z</time><pdop>5.0</pdop><geoidheight>54.00</geoidheight><course>17.6</course><type>1</type></trkpt>
      <trkpt lat="40.42438525" lon="-5.29999715"><ele>1966</ele><speed>5.18</speed><time>2016-06-29T10:24:47Z</time><pdop>4.0</pdop><geoidheight>54.00</geoidheight><course>354.0</course><type>1</type></trkpt>
      <trkpt lat="40.42449125" lon="-5.30003938"><ele>1971</ele><speed>4.52</speed><time>2016-06-29T10:24:49Z</time><pdop>3.0</pdop><geoidheight>54.00</geoidheight><course>326.7</course><type>1</type></trkpt>
      <trkpt lat="40.42450985" lon="-5.30013467"><ele>1972</ele><speed>4.24</speed><time>2016-06-29T10:24:51Z</time><pdop>3.0</pdop><geoidheight>54.00</geoidheight><course>269.6</course><type>1</type></trkpt>
      <trkpt lat="40.42446186" lon="-5.30020234"><ele>1972</ele><speed>6.64</speed><time>2016-06-29T10:24:52Z</time><pdop>3.0</pdop><geoidheight>54.00</geoidheight><course>229.2</course><type>1</type></trkpt>
      <trkpt lat="40.42431693" lon="-5.3003018"><ele>1973</ele><speed>8.40</speed><time>2016-06-29T10:24:54Z</time><pdop>4.0</pdop><geoidheight>54.00</geoidheight><course>206.6</course><type>1</type></trkpt>
      <trkpt lat="40.42421721" lon="-5.30030916"><ele>1973</ele><speed>9.31</speed><time>2016-06-29T10:24:55Z</time><pdop>5.0</pdop><geoidheight>54.00</geoidheight><course>188.1</course><type>1</type></trkpt>
      <trkpt lat="40.42409912" lon="-5.3002996"><ele>1973</ele><speed>10.96</speed><time>2016-06-29T10:24:56Z</time><pdop>4.0</pdop><geoidheight>54.00</geoidheight><course>179.2</course><type>1</type></trkpt>
      <trkpt lat="40.42399276" lon="-5.30031508"><ele>1973</ele><speed>11.13</speed><time>2016-06-29T10:24:57Z</time><pdop>5.0</pdop><geoidheight>54.00</geoidheight><course>182.5</course><type>1</type></trkpt>
      <trkpt lat="40.42386835" lon="-5.3003426"><ele>1973</ele><speed>12.03</speed><time>2016-06-29T10:24:58Z</time><pdop>5.0</pdop><geoidheight>54.00</geoidheight><course>189.0</course><type>1</type></trkpt>
      <trkpt lat="40.42372135" lon="-5.30039128"><ele>1973</ele><speed>14.72</speed><time>2016-06-29T10:24:59Z</time><pdop>4.0</pdop><geoidheight>54.00</geoidheight><course>195.4</course><type>1</type></trkpt>
      <trkpt lat="40.42361421" lon="-5.30044257"><ele>1974</ele><speed>13.71</speed><time>2016-06-29T10:25:00Z</time><pdop>4.0</pdop><geoidheight>54.00</geoidheight><course>200.8</course><type>1</type></trkpt>
      <trkpt lat="40.42352332" lon="-5.30049167"><ele>1975</ele><speed>10.99</speed><time>2016-06-29T10:25:01Z</time><pdop>4.0</pdop><geoidheight>54.00</geoidheight><course>203.4</course><type>1</type></trkpt>
      <trkpt lat="40.42344472" lon="-5.30054024"><ele>1976</ele><speed>9.33</speed><time>2016-06-29T10:25:02Z</time><pdop>3.0</pdop><geoidheight>54.00</geoidheight><course>205.3</course><type>1</type></trkpt>
      <trkpt lat="40.42337056" lon="-5.30058089"><ele>1975</ele><speed>8.95</speed><time>2016-06-29T10:25:03Z</time><pdop>3.0</pdop><geoidheight>54.00</geoidheight><course>207.1</course><type>1</type></trkpt>
      <trkpt lat="40.42328533" lon="-5.30064315"><ele>1974</ele><speed>9.98</speed><time>2016-06-29T10:25:04Z</time><pdop>3.0</pdop><geoidheight>54.00</geoidheight><course>211.8</course><type>1</type></trkpt>
      <trkpt lat="40.4232112" lon="-5.30073516"><ele>1974</ele><speed>11.08</speed><time>2016-06-29T10:25:05Z</time><pdop>3.0</pdop><geoidheight>54.00</geoidheight><course>221.6</course><type>1</type></trkpt>
      <trkpt lat="40.42315703" lon="-5.30083403"><ele>1974</ele><speed>10.67</speed><time>2016-06-29T10:25:06Z</time><pdop>3.0</pdop><geoidheight>54.00</geoidheight><course>236.1</course><type>1</type></trkpt>
      <trkpt lat="40.42313999" lon="-5.30093839"><ele>1974</ele><speed>9.37</speed><time>2016-06-29T10:25:07Z</time><pdop>3.0</pdop><geoidheight>54.00</geoidheight><course>254.4</course><type>1</type></trkpt>
      <trkpt lat="40.42314368" lon="-5.30103579"><ele>1974</ele><speed>8.56</speed><time>2016-06-29T10:25:08Z</time><pdop>3.0</pdop><geoidheight>54.00</geoidheight><course>268.0</course><type>1</type></trkpt>
      <trkpt lat="40.4231539" lon="-5.30112426"><ele>1973</ele><speed>7.53</speed><time>2016-06-29T10:25:09Z</time><pdop>3.0</pdop><geoidheight>54.00</geoidheight><course>279.4</course><type>1</type></trkpt>
      <trkpt lat="40.4231771" lon="-5.30120261"><ele>1972</ele><speed>7.14</speed><time>2016-06-29T10:25:10Z</time><pdop>3.0</pdop><geoidheight>54.00</geoidheight><course>287.0</course><type>1</type></trkpt>
      <trkpt lat="40.42321444" lon="-5.30127356"><ele>1970</ele><speed>7.30</speed><time>2016-06-29T10:25:11Z</time><pdop>3.0</pdop><geoidheight>54.00</geoidheight><course>301.1</course><type>1</type></trkpt>
      <trkpt lat="40.42326016" lon="-5.30132285"><ele>1970</ele><speed>6.63</speed><time>2016-06-29T10:25:12Z</time><pdop>3.0</pdop><geoidheight>54.00</geoidheight><course>320.5</course><type>1</type></trkpt>
      <trkpt lat="40.42331837" lon="-5.30133529"><ele>1970</ele><speed>6.60</speed><time>2016-06-29T10:25:13Z</time><pdop>3.0</pdop><geoidheight>54.00</geoidheight><course>348.4</course><type>1</type></trkpt>
      <trkpt lat="40.42338986" lon="-5.30130358"><ele>1969</ele><speed>7.65</speed><time>2016-06-29T10:25:14Z</time><pdop>3.0</pdop><geoidheight>54.00</geoidheight><course>13.9</course><type>1</type></trkpt>
      <trkpt lat="40.42345724" lon="-5.30124715"><ele>1969</ele><speed>8.52</speed><time>2016-06-29T10:25:15Z</time><pdop>3.0</pdop><geoidheight>54.00</geoidheight><course>28.9</course><type>1</type></trkpt>
      <trkpt lat="40.42352614" lon="-5.30119693"><ele>1967</ele><speed>9.16</speed><time>2016-06-29T10:25:16Z</time><pdop>3.0</pdop><geoidheight>54.00</geoidheight><course>30.9</course><type>1</type></trkpt>
      <trkpt lat="40.42360251" lon="-5.30115096"><ele>1966</ele><speed>9.60</speed><time>2016-06-29T10:25:17Z</time><pdop>3.0</pdop><geoidheight>54.00</geoidheight><course>25.0</course><type>1</type></trkpt>
      <trkpt lat="40.42368672" lon="-5.30112666"><ele>1964</ele><speed>9.61</speed><time>2016-06-29T10:25:18Z</time><pdop>3.0</pdop><geoidheight>54.00</geoidheight><course>17.5</course><type>1</type></trkpt>
      <trkpt lat="40.42377564" lon="-5.30108479"><ele>1962</ele><speed>10.60</speed><time>2016-06-29T10:25:19Z</time><pdop>3.0</pdop><geoidheight>54.00</geoidheight><course>19.1</course><type>1</type></trkpt>
      <trkpt lat="40.42387578" lon="-5.3010112"><ele>1960</ele><speed>12.31</speed><time>2016-06-29T10:25:20Z</time><pdop>3.0</pdop><geoidheight>54.00</geoidheight><course>25.9</course><type>1</type></trkpt>
      <trkpt lat="40.42397231" lon="-5.30092414"><ele>1960</ele><speed>13.31</speed><time>2016-06-29T10:25:21Z</time><pdop>3.0</pdop><geoidheight>54.00</geoidheight><course>33.9</course><type>1</type></trkpt>
      <trkpt lat="40.42405456" lon="-5.30083053"><ele>1960</ele><speed>12.70</speed><time>2016-06-29T10:25:22Z</time><pdop>3.0</pdop><geoidheight>54.00</geoidheight><course>37.7</course><type>1</type></trkpt>
      <trkpt lat="40.42413376" lon="-5.30076419"><ele>1961</ele><speed>11.15</speed><time>2016-06-29T10:25:23Z</time><pdop>3.0</pdop><geoidheight>54.00</geoidheight><course>35.9</course><type>1</type></trkpt>
      <trkpt lat="40.42420414" lon="-5.30069513"><ele>1961</ele><speed>10.77</speed><time>2016-06-29T10:25:24Z</time><pdop>3.0</pdop><geoidheight>54.00</geoidheight><course>34.7</course><type>1</type></trkpt>
      <trkpt lat="40.42427975" lon="-5.30061286"><ele>1961</ele><speed>11.18</speed><time>2016-06-29T10:25:25Z</time><pdop>3.0</pdop><geoidheight>54.00</geoidheight><course>39.6</course><type>1</type></trkpt>
      <trkpt lat="40.42435719" lon="-5.30052882"><ele>1961</ele><speed>11.17</speed><time>2016-06-29T10:25:26Z</time><pdop>4.0</pdop><geoidheight>54.00</geoidheight><course>39.7</course><type>1</type></trkpt>
      <trkpt lat="40.424419" lon="-5.30041742"><ele>1958</ele><speed>12.38</speed><time>2016-06-29T10:25:27Z</time><pdop>4.0</pdop><geoidheight>54.00</geoidheight><course>41.9</course><type>1</type></trkpt>
      <trkpt lat="40.42449894" lon="-5.30032342"><ele>1955</ele><speed>12.39</speed><time>2016-06-29T10:25:28Z</time><pdop>4.0</pdop><geoidheight>54.00</geoidheight><course>40.2</course><type>1</type></trkpt>
      <trkpt lat="40.42458529" lon="-5.30023534"><ele>1954</ele><speed>11.86</speed><time>2016-06-29T10:25:29Z</time><pdop>3.0</pdop><geoidheight>54.00</geoidheight><course>40.6</course><type>1</type></trkpt>
      <trkpt lat="40.42466623" lon="-5.30014441"><ele>1954</ele><speed>11.84</speed><time>2016-06-29T10:25:30Z</time><pdop>4.0</pdop><geoidheight>54.00</geoidheight><course>40.6</course><type>1</type></trkpt>
      <trkpt lat="40.42475496" lon="-5.30005048"><ele>1955</ele><speed>12.10</speed><time>2016-06-29T10:25:31Z</time><pdop>3.0</pdop><geoidheight>54.00</geoidheight><course>43.1</course><type>1</type></trkpt>
      <trkpt lat="40.42483896" lon="-5.29995838"><ele>1957</ele><speed>12.27</speed><time>2016-06-29T10:25:32Z</time><pdop>4.0</pdop><geoidheight>54.00</geoidheight><course>41.7</course><type>1</type></trkpt>
      <trkpt lat="40.42492011" lon="-5.29985835"><ele>1959</ele><speed>12.04</speed><time>2016-06-29T10:25:33Z</time><pdop>4.0</pdop><geoidheight>54.00</geoidheight><course>42.8</course><type>1</type></trkpt>
      <trkpt lat="40.42499813" lon="-5.29976386"><ele>1961</ele><speed>11.90</speed><time>2016-06-29T10:25:34Z</time><pdop>4.0</pdop><geoidheight>54.00</geoidheight><course>42.8</course><type>1</type></trkpt>
      <trkpt lat="40.42506949" lon="-5.29964838"><ele>1962</ele><speed>12.05</speed><time>2016-06-29T10:25:35Z</time><pdop>4.0</pdop><geoidheight>54.00</geoidheight><course>48.5</course><type>1</type></trkpt>
      <trkpt lat="40.4251475" lon="-5.29955209"><ele>1963</ele><speed>12.31</speed><time>2016-06-29T10:25:36Z</time><pdop>4.0</pdop><geoidheight>54.00</geoidheight><course>46.8</course><type>1</type></trkpt>
      <trkpt lat="40.42522042" lon="-5.29944222"><ele>1964</ele><speed>12.74</speed><time>2016-06-29T10:25:37Z</time><pdop>4.0</pdop><geoidheight>54.00</geoidheight><course>41.2</course><type>1</type></trkpt>
      <trkpt lat="40.42530352" lon="-5.29935722"><ele>1965</ele><speed>11.44</speed><time>2016-06-29T10:25:38Z</time><pdop>5.0</pdop><geoidheight>54.00</geoidheight><course>38.0</course><type>1</type></trkpt>
      <trkpt lat="40.42538314" lon="-5.29927528"><ele>1967</ele><speed>11.31</speed><time>2016-06-29T10:25:39Z</time><pdop>6.0</pdop><geoidheight>54.00</geoidheight><course>38.1</course><type>1</type></trkpt>
      <trkpt lat="40.42551293" lon="-5.29916339"><ele>1971</ele><speed>9.11</speed><time>2016-06-29T10:25:41Z</time><pdop>6.0</pdop><geoidheight>54.00</geoidheight><course>34.5</course><type>1</type></trkpt>
      <trkpt lat="40.42568534" lon="-5.29915337"><ele>1971</ele><speed>5.44</speed><time>2016-06-29T10:25:44Z</time><pdop>8.0</pdop><geoidheight>54.00</geoidheight><course>352.6</course><type>1</type></trkpt>
      <trkpt lat="40.42548212" lon="-5.29928084"><ele>1972</ele><speed>7.27</speed><time>2016-06-29T10:25:50Z</time><pdop>11.0</pdop><geoidheight>54.00</geoidheight><course>179.8</course><type>1</type></trkpt>
      <trkpt lat="40.42529007" lon="-5.2992442"><ele>1974</ele><speed>11.75</speed><time>2016-06-29T10:25:51Z</time><pdop>8.0</pdop><geoidheight>54.00</geoidheight><course>162.5</course><type>1</type></trkpt>
      <trkpt lat="40.42509829" lon="-5.29927277"><ele>1976</ele><speed>8.15</speed><time>2016-06-29T10:25:53Z</time><pdop>5.0</pdop><geoidheight>54.00</geoidheight><course>189.1</course><type>1</type></trkpt>
      <trkpt lat="40.42501005" lon="-5.29931693"><ele>1976</ele><speed>8.76</speed><time>2016-06-29T10:25:54Z</time><pdop>5.0</pdop><geoidheight>54.00</geoidheight><course>201.9</course><type>1</type></trkpt>
      <trkpt lat="40.42490051" lon="-5.29946296"><ele>1980</ele><speed>8.59</speed><time>2016-06-29T10:25:56Z</time><pdop>5.0</pdop><geoidheight>54.00</geoidheight><course>231.7</course><type>1</type></trkpt>
      <trkpt lat="40.42484111" lon="-5.29960387"><ele>1979</ele><speed>7.07</speed><time>2016-06-29T10:25:58Z</time><pdop>6.0</pdop><geoidheight>54.00</geoidheight><course>243.8</course><type>1</type></trkpt>
      <trkpt lat="40.42497356" lon="-5.29969853"><ele>1982</ele><speed>4.31</speed><time>2016-06-29T10:26:01Z</time><pdop>10.0</pdop><geoidheight>54.00</geoidheight><course>323.5</course><type>1</type></trkpt>
      <trkpt lat="40.42521074" lon="-5.2995764"><ele>1984</ele><speed>8.05</speed><time>2016-06-29T10:26:03Z</time><pdop>7.0</pdop><geoidheight>54.00</geoidheight><course>18.0</course><type>1</type></trkpt>
      <trkpt lat="40.42531166" lon="-5.29943044"><ele>1986</ele><speed>11.02</speed><time>2016-06-29T10:26:04Z</time><pdop>6.0</pdop><geoidheight>54.00</geoidheight><course>37.1</course><type>1</type></trkpt>
      <trkpt lat="40.42548054" lon="-5.2993163"><ele>1994</ele><speed>9.42</speed><time>2016-06-29T10:26:06Z</time><pdop>5.0</pdop><geoidheight>54.00</geoidheight><course>37.1</course><type>1</type></trkpt>
      <trkpt lat="40.42554339" lon="-5.29921656"><ele>1997</ele><speed>9.74</speed><time>2016-06-29T10:26:07Z</time><pdop>5.0</pdop><geoidheight>54.00</geoidheight><course>54.3</course><type>1</type></trkpt>
      <trkpt lat="40.42561147" lon="-5.29909475"><ele>2000</ele><speed>11.23</speed><time>2016-06-29T10:26:08Z</time><pdop>4.0</pdop><geoidheight>54.00</geoidheight><course>70.7</course><type>1</type></trkpt>
      <trkpt lat="40.42563617" lon="-5.29892942"><ele>2000</ele><speed>13.35</speed><time>2016-06-29T10:26:09Z</time><pdop>4.0</pdop><geoidheight>54.00</geoidheight><course>86.1</course><type>1</type></trkpt>
      <trkpt lat="40.42561606" lon="-5.29875567"><ele>2002</ele><speed>14.82</speed><time>2016-06-29T10:26:10Z</time><pdop>4.0</pdop><geoidheight>54.00</geoidheight><course>103.2</course><type>1</type></trkpt>
      <trkpt lat="40.42560688" lon="-5.29857587"><ele>2004</ele><speed>15.40</speed><time>2016-06-29T10:26:11Z</time><pdop>4.0</pdop><geoidheight>54.00</geoidheight><course>103.4</course><type>1</type></trkpt>
      <trkpt lat="40.42552298" lon="-5.298437"><ele>2004</ele><speed>14.53</speed><time>2016-06-29T10:26:12Z</time><pdop>5.0</pdop><geoidheight>54.00</geoidheight><course>117.2</course><type>1</type></trkpt>
      <trkpt lat="40.42544038" lon="-5.29832919"><ele>2005</ele><speed>13.61</speed><time>2016-06-29T10:26:13Z</time><pdop>5.0</pdop><geoidheight>54.00</geoidheight><course>127.3</course><type>1</type></trkpt>
      <trkpt lat="40.4253311" lon="-5.29821989"><ele>2004</ele><speed>13.59</speed><time>2016-06-29T10:26:14Z</time><pdop>7.0</pdop><geoidheight>54.00</geoidheight><course>133.5</course><type>1</type></trkpt>
      <trkpt lat="40.42519944" lon="-5.29815663"><ele>2004</ele><speed>13.92</speed><time>2016-06-29T10:26:15Z</time><pdop>8.0</pdop><geoidheight>54.00</geoidheight><course>143.4</course><type>1</type></trkpt>
      <trkpt lat="40.42502759" lon="-5.29821178"><ele>2004</ele><speed>14.59</speed><time>2016-06-29T10:26:16Z</time><pdop>7.0</pdop><geoidheight>54.00</geoidheight><course>169.1</course><type>1</type></trkpt>
      <trkpt lat="40.42490412" lon="-5.29835579"><ele>2005</ele><speed>9.94</speed><time>2016-06-29T10:26:18Z</time><pdop>8.0</pdop><geoidheight>54.00</geoidheight><course>199.3</course><type>1</type></trkpt>
      <trkpt lat="40.42487459" lon="-5.29854288"><ele>2005</ele><speed>5.71</speed><time>2016-06-29T10:26:21Z</time><pdop>7.0</pdop><geoidheight>54.00</geoidheight><course>257.2</course><type>1</type></trkpt>
      <trkpt lat="40.42514657" lon="-5.2986602"><ele>2005</ele><speed>9.93</speed><time>2016-06-29T10:26:24Z</time><pdop>6.0</pdop><geoidheight>54.00</geoidheight><course>342.8</course><type>1</type></trkpt>
      <trkpt lat="40.42531561" lon="-5.29869836"><ele>2010</ele><speed>7.74</speed><time>2016-06-29T10:26:26Z</time><pdop>6.0</pdop><geoidheight>54.00</geoidheight><course>343.1</course><type>1</type></trkpt>
      <trkpt lat="40.42545807" lon="-5.29878501"><ele>2014</ele><speed>7.23</speed><time>2016-06-29T10:26:28Z</time><pdop>5.0</pdop><geoidheight>54.00</geoidheight><course>339.1</course><type>1</type></trkpt>
      <trkpt lat="40.42557947" lon="-5.29882694"><ele>2009</ele><speed>6.96</speed><time>2016-06-29T10:26:30Z</time><pdop>5.0</pdop><geoidheight>54.00</geoidheight><course>344.9</course><type>1</type></trkpt>
      <trkpt lat="40.42574722" lon="-5.29878466"><ele>2012</ele><speed>9.47</speed><time>2016-06-29T10:26:32Z</time><pdop>5.0</pdop><geoidheight>54.00</geoidheight><course>23.9</course><type>1</type></trkpt>
      <trkpt lat="40.42583241" lon="-5.29870503"><ele>2013</ele><speed>11.06</speed><time>2016-06-29T10:26:33Z</time><pdop>5.0</pdop><geoidheight>54.00</geoidheight><course>37.7</course><type>1</type></trkpt>
      <trkpt lat="40.4259138" lon="-5.29860708"><ele>2014</ele><speed>12.02</speed><time>2016-06-29T10:26:34Z</time><pdop>4.0</pdop><geoidheight>54.00</geoidheight><course>45.7</course><type>1</type></trkpt>
      <trkpt lat="40.4259796" lon="-5.29849106"><ele>2015</ele><speed>12.36</speed><time>2016-06-29T10:26:35Z</time><pdop>4.0</pdop><geoidheight>54.00</geoidheight><course>54.1</course><type>1</type></trkpt>
      <trkpt lat="40.42604494" lon="-5.29835878"><ele>2015</ele><speed>13.41</speed><time>2016-06-29T10:26:36Z</time><pdop>4.0</pdop><geoidheight>54.00</geoidheight><course>60.4</course><type>1</type></trkpt>
      <trkpt lat="40.42611506" lon="-5.29820018"><ele>2015</ele><speed>15.06</speed><time>2016-06-29T10:26:37Z</time><pdop>4.0</pdop><geoidheight>54.00</geoidheight><course>65.3</course><type>1</type></trkpt>
      <trkpt lat="40.4261772" lon="-5.29802153"><ele>2015</ele><speed>16.63</speed><time>2016-06-29T10:26:38Z</time><pdop>4.0</pdop><geoidheight>54.00</geoidheight><course>66.3</course><type>1</type></trkpt>
      <trkpt lat="40.4262345" lon="-5.297829"><ele>2015</ele><speed>17.38</speed><time>2016-06-29T10:26:39Z</time><pdop>4.0</pdop><geoidheight>54.00</geoidheight><course>67.4</course><type>1</type></trkpt>
      <trkpt lat="40.426284" lon="-5.29763045"><ele>2017</ele><speed>17.61</speed><time>2016-06-29T10:26:40Z</time><pdop>3.0</pdop><geoidheight>54.00</geoidheight><course>71.7</course><type>1</type></trkpt>
      <trkpt lat="40.426323" lon="-5.29744022"><ele>2019</ele><speed>16.97</speed><time>2016-06-29T10:26:41Z</time><pdop>3.0</pdop><geoidheight>54.00</geoidheight><course>77.1</course><type>1</type></trkpt>
      <trkpt lat="40.42635249" lon="-5.29725384"><ele>2022</ele><speed>16.18</speed><time>2016-06-29T10:26:42Z</time><pdop>3.0</pdop><geoidheight>54.00</geoidheight><course>80.2</course><type>1</type></trkpt>
      <trkpt lat="40.42638445" lon="-5.29708114"><ele>2024</ele><speed>15.07</speed><time>2016-06-29T10:26:43Z</time><pdop>3.0</pdop><geoidheight>54.00</geoidheight><course>79.1</course><type>1</type></trkpt>
      <trkpt lat="40.42641419" lon="-5.29691854"><ele>2024</ele><speed>14.38</speed><time>2016-06-29T10:26:44Z</time><pdop>3.0</pdop><geoidheight>54.00</geoidheight><course>75.4</course><type>1</type></trkpt>
      <trkpt lat="40.42646907" lon="-5.29676948"><ele>2024</ele><speed>13.85</speed><time>2016-06-29T10:26:45Z</time><pdop>3.0</pdop><geoidheight>54.00</geoidheight><course>65.2</course><type>1</type></trkpt>
      <trkpt lat="40.42653865" lon="-5.29664207"><ele>2022</ele><speed>13.39</speed><time>2016-06-29T10:26:46Z</time><pdop>3.0</pdop><geoidheight>54.00</geoidheight><course>54.8</course><type>1</type></trkpt>
      <trkpt lat="40.42662761" lon="-5.29655147"><ele>2023</ele><speed>12.48</speed><time>2016-06-29T10:26:47Z</time><pdop>3.0</pdop><geoidheight>54.00</geoidheight><course>40.2</course><type>1</type></trkpt>
      <trkpt lat="40.42670657" lon="-5.29647541"><ele>2024</ele><speed>11.37</speed><time>2016-06-29T10:26:48Z</time><pdop>3.0</pdop><geoidheight>54.00</geoidheight><course>34.1</course><type>1</type></trkpt>
      <trkpt lat="40.4267961" lon="-5.29642668"><ele>2023</ele><speed>10.82</speed><time>2016-06-29T10:26:49Z</time><pdop>4.0</pdop><geoidheight>54.00</geoidheight><course>25.5</course><type>1</type></trkpt>
      <trkpt lat="40.42688565" lon="-5.29642958"><ele>2023</ele><speed>9.60</speed><time>2016-06-29T10:26:50Z</time><pdop>5.0</pdop><geoidheight>54.00</geoidheight><course>12.2</course><type>1</type></trkpt>
      <trkpt lat="40.42694167" lon="-5.29654408"><ele>2023</ele><speed>5.41</speed><time>2016-06-29T10:26:52Z</time><pdop>6.0</pdop><geoidheight>54.00</geoidheight><course>331.5</course><type>1</type></trkpt>
      <trkpt lat="40.42686877" lon="-5.29675546"><ele>2025</ele><speed>8.03</speed><time>2016-06-29T10:26:54Z</time><pdop>5.0</pdop><geoidheight>54.00</geoidheight><course>238.8</course><type>1</type></trkpt>
      <trkpt lat="40.42677882" lon="-5.29685371"><ele>2027</ele><speed>5.16</speed><time>2016-06-29T10:26:56Z</time><pdop>4.0</pdop><geoidheight>54.00</geoidheight><course>215.0</course><type>1</type></trkpt>
      <trkpt lat="40.42671425" lon="-5.2969189"><ele>2028</ele><speed>4.33</speed><time>2016-06-29T10:26:58Z</time><pdop>4.0</pdop><geoidheight>54.00</geoidheight><course>222.8</course><type>1</type></trkpt>
      <trkpt lat="40.42664988" lon="-5.2969807"><ele>2027</ele><speed>5.20</speed><time>2016-06-29T10:27:00Z</time><pdop>4.0</pdop><geoidheight>54.00</geoidheight><course>219.5</course><type>1</type></trkpt>
      <trkpt lat="40.42657731" lon="-5.29704929"><ele>2028</ele><speed>5.31</speed><time>2016-06-29T10:27:02Z</time><pdop>4.0</pdop><geoidheight>54.00</geoidheight><course>223.1</course><type>1</type></trkpt>
      <trkpt lat="40.42651106" lon="-5.29712774"><ele>2027</ele><speed>1.76</speed><time>2016-06-29T10:27:05Z</time><pdop>5.0</pdop><geoidheight>54.00</geoidheight><course>220.0</course><type>1</type></trkpt>
      <trkpt lat="40.42648161" lon="-5.29726314"><ele>2026</ele><speed>5.23</speed><time>2016-06-29T10:27:08Z</time><pdop>6.0</pdop><geoidheight>54.00</geoidheight><course>256.4</course><type>1</type></trkpt>
      <trkpt lat="40.42642762" lon="-5.29744124"><ele>2025</ele><speed>10.55</speed><time>2016-06-29T10:27:09Z</time><pdop>5.0</pdop><geoidheight>54.00</geoidheight><course>245.3</course><type>1</type></trkpt>
      <trkpt lat="40.42637258" lon="-5.2975623"><ele>2024</ele><speed>10.53</speed><time>2016-06-29T10:27:10Z</time><pdop>5.0</pdop><geoidheight>54.00</geoidheight><course>238.5</course><type>1</type></trkpt>
      <trkpt lat="40.42631404" lon="-5.29766949"><ele>2024</ele><speed>5.22</speed><time>2016-06-29T10:27:12Z</time><pdop>5.0</pdop><geoidheight>54.00</geoidheight><course>244.6</course><type>1</type></trkpt>
      <trkpt lat="40.42625758" lon="-5.29783513"><ele>2023</ele><speed>4.78</speed><time>2016-06-29T10:27:15Z</time><pdop>5.0</pdop><geoidheight>54.00</geoidheight><course>243.4</course><type>1</type></trkpt>
      <trkpt lat="40.42618519" lon="-5.29809469"><ele>2021</ele><speed>7.47</speed><time>2016-06-29T10:27:18Z</time><pdop>10.0</pdop><geoidheight>54.00</geoidheight><course>250.6</course><type>1</type></trkpt>
      <trkpt lat="40.42612093" lon="-5.2983258"><ele>2017</ele><speed>7.36</speed><time>2016-06-29T10:27:21Z</time><pdop>4.0</pdop><geoidheight>54.00</geoidheight><course>234.2</course><type>1</type></trkpt>
      <trkpt lat="40.42606234" lon="-5.29840059"><ele>2017</ele><speed>8.44</speed><time>2016-06-29T10:27:22Z</time><pdop>4.0</pdop><geoidheight>54.00</geoidheight><course>228.0</course><type>1</type></trkpt>
      <trkpt lat="40.42598999" lon="-5.29849112"><ele>2016</ele><speed>9.65</speed><time>2016-06-29T10:27:23Z</time><pdop>4.0</pdop><geoidheight>54.00</geoidheight><course>226.8</course><type>1</type></trkpt>
      <trkpt lat="40.42591417" lon="-5.29859849"><ele>2015</ele><speed>11.40</speed><time>2016-06-29T10:27:24Z</time><pdop>4.0</pdop><geoidheight>54.00</geoidheight><course>226.9</course><type>1</type></trkpt>
      <trkpt lat="40.42584032" lon="-5.29872037"><ele>2014</ele><speed>12.47</speed><time>2016-06-29T10:27:25Z</time><pdop>4.0</pdop><geoidheight>54.00</geoidheight><course>226.6</course><type>1</type></trkpt>
      <trkpt lat="40.42577308" lon="-5.29882615"><ele>2016</ele><speed>12.51</speed><time>2016-06-29T10:27:26Z</time><pdop>3.0</pdop><geoidheight>54.00</geoidheight><course>229.5</course><type>1</type></trkpt>
      <trkpt lat="40.42570676" lon="-5.29892908"><ele>2018</ele><speed>11.54</speed><time>2016-06-29T10:27:27Z</time><pdop>4.0</pdop><geoidheight>54.00</geoidheight><course>228.5</course><type>1</type></trkpt>
      <trkpt lat="40.4256354" lon="-5.29901543"><ele>2020</ele><speed>10.06</speed><time>2016-06-29T10:27:28Z</time><pdop>4.0</pdop><geoidheight>54.00</geoidheight><course>225.1</course><type>1</type></trkpt>
      <trkpt lat="40.42556839" lon="-5.29909189"><ele>2020</ele><speed>9.03</speed><time>2016-06-29T10:27:29Z</time><pdop>4.0</pdop><geoidheight>54.00</geoidheight><course>224.4</course><type>1</type></trkpt>
      <trkpt lat="40.42551423" lon="-5.29915777"><ele>2021</ele><speed>8.95</speed><time>2016-06-29T10:27:30Z</time><pdop>4.0</pdop><geoidheight>54.00</geoidheight><course>225.1</course><type>1</type></trkpt>
      <trkpt lat="40.42546206" lon="-5.29924142"><ele>2023</ele><speed>8.84</speed><time>2016-06-29T10:27:31Z</time><pdop>4.0</pdop><geoidheight>54.00</geoidheight><course>228.4</course><type>1</type></trkpt>
      <trkpt lat="40.42541249" lon="-5.2993185"><ele>2025</ele><speed>8.91</speed><time>2016-06-29T10:27:32Z</time><pdop>3.0</pdop><geoidheight>54.00</geoidheight><course>225.6</course><type>1</type></trkpt>
      <trkpt lat="40.42535336" lon="-5.29938443"><ele>2027</ele><speed>8.89</speed><time>2016-06-29T10:27:33Z</time><pdop>3.0</pdop><geoidheight>54.00</geoidheight><course>221.5</course><type>1</type></trkpt>
      <trkpt lat="40.42529024" lon="-5.29945541"><ele>2028</ele><speed>9.14</speed><time>2016-06-29T10:27:34Z</time><pdop>3.0</pdop><geoidheight>54.00</geoidheight><course>219.2</course><type>1</type></trkpt>
      <trkpt lat="40.42522853" lon="-5.29952758"><ele>2029</ele><speed>8.78</speed><time>2016-06-29T10:27:35Z</time><pdop>3.0</pdop><geoidheight>54.00</geoidheight><course>219.9</course><type>1</type></trkpt>
      <trkpt lat="40.42517799" lon="-5.29959203"><ele>2029</ele><speed>7.71</speed><time>2016-06-29T10:27:36Z</time><pdop>3.0</pdop><geoidheight>54.00</geoidheight><course>223.8</course><type>1</type></trkpt>
      <trkpt lat="40.42514683" lon="-5.29965595"><ele>2029</ele><speed>6.07</speed><time>2016-06-29T10:27:37Z</time><pdop>3.0</pdop><geoidheight>54.00</geoidheight><course>232.3</course><type>1</type></trkpt>
      <trkpt lat="40.42514343" lon="-5.29975833"><ele>2030</ele><speed>4.92</speed><time>2016-06-29T10:27:39Z</time><pdop>3.0</pdop><geoidheight>54.00</geoidheight><course>263.4</course><type>1</type></trkpt>
      <trkpt lat="40.42518831" lon="-5.29986451"><ele>2030</ele><speed>5.63</speed><time>2016-06-29T10:27:41Z</time><pdop>4.0</pdop><geoidheight>54.00</geoidheight><course>293.5</course><type>1</type></trkpt>
      <trkpt lat="40.42531585" lon="-5.3000288"><ele>2031</ele><speed>7.42</speed><time>2016-06-29T10:27:44Z</time><pdop>11.0</pdop><geoidheight>54.00</geoidheight><course>318.6</course><type>1</type></trkpt>
      <trkpt lat="40.42552145" lon="-5.30004697"><ele>2032</ele><speed>7.84</speed><time>2016-06-29T10:27:47Z</time><pdop>11.0</pdop><geoidheight>54.00</geoidheight><course>349.6</course><type>1</type></trkpt>
      <trkpt lat="40.42575314" lon="-5.3000973"><ele>2035</ele><speed>6.90</speed><time>2016-06-29T10:27:51Z</time><pdop>10.0</pdop><geoidheight>54.00</geoidheight><course>344.0</course><type>1</type></trkpt>
      <trkpt lat="40.42577969" lon="-5.3003535"><ele>2037</ele><speed>7.34</speed><time>2016-06-29T10:27:55Z</time><pdop>10.0</pdop><geoidheight>54.00</geoidheight><course>236.9</course><type>1</type></trkpt>
      <trkpt lat="40.42555435" lon="-5.30049324"><ele>2037</ele><speed>9.23</speed><time>2016-06-29T10:27:58Z</time><pdop>10.0</pdop><geoidheight>54.00</geoidheight><course>197.4</course><type>1</type></trkpt>
      <trkpt lat="40.42535954" lon="-5.30054352"><ele>2040</ele><speed>10.23</speed><time>2016-06-29T10:28:00Z</time><pdop>10.0</pdop><geoidheight>54.00</geoidheight><course>185.3</course><type>1</type></trkpt>
      <trkpt lat="40.42511344" lon="-5.30047182"><ele>2040</ele><speed>12.13</speed><time>2016-06-29T10:28:02Z</time><pdop>10.0</pdop><geoidheight>54.00</geoidheight><course>163.6</course><type>1</type></trkpt>
      <trkpt lat="40.42491957" lon="-5.30025206"><ele>2044</ele><speed>14.70</speed><time>2016-06-29T10:28:04Z</time><pdop>11.0</pdop><geoidheight>54.00</geoidheight><course>144.7</course><type>1</type></trkpt>
      <trkpt lat="40.42485548" lon="-5.29989789"><ele>2048</ele><speed>14.25</speed><time>2016-06-29T10:28:06Z</time><pdop>12.0</pdop><geoidheight>54.00</geoidheight><course>119.2</course><type>1</type></trkpt>
      <trkpt lat="40.42490832" lon="-5.2995556"><ele>2029</ele><speed>13.16</speed><time>2016-06-29T10:28:08Z</time><pdop>13.0</pdop><geoidheight>54.00</geoidheight><course>99.3</course><type>1</type></trkpt>
      <trkpt lat="40.42516783" lon="-5.29939266"><ele>2036</ele><speed>6.49</speed><time>2016-06-29T10:28:11Z</time><pdop>14.0</pdop><geoidheight>54.00</geoidheight><course>63.0</course><type>1</type></trkpt>
      <trkpt lat="40.42500795" lon="-5.29978741"><ele>2045</ele><speed>6.50</speed><time>2016-06-29T10:28:17Z</time><pdop>15.0</pdop><geoidheight>54.00</geoidheight><course>202.3</course><type>1</type></trkpt>
      <trkpt lat="40.42477185" lon="-5.29956459"><ele>2023</ele><speed>10.75</speed><time>2016-06-29T10:28:19Z</time><pdop>16.0</pdop><geoidheight>54.00</geoidheight><course>156.0</course><type>1</type></trkpt>
      <trkpt lat="40.42471906" lon="-5.29911174"><ele>2035</ele><speed>13.23</speed><time>2016-06-29T10:28:21Z</time><pdop>14.0</pdop><geoidheight>54.00</geoidheight><course>113.9</course><type>1</type></trkpt>
      <trkpt lat="40.42481351" lon="-5.29877303"><ele>2042</ele><speed>11.25</speed><time>2016-06-29T10:28:23Z</time><pdop>14.0</pdop><geoidheight>54.00</geoidheight><course>82.8</course><type>1</type></trkpt>
      <trkpt lat="40.42500861" lon="-5.29856808"><ele>2054</ele><speed>9.35</speed><time>2016-06-29T10:28:25Z</time><pdop>11.0</pdop><geoidheight>54.00</geoidheight><course>35.1</course><type>1</type></trkpt>
      <trkpt lat="40.42518395" lon="-5.29842924"><ele>2065</ele><speed>8.51</speed><time>2016-06-29T10:28:27Z</time><pdop>8.0</pdop><geoidheight>54.00</geoidheight><course>17.9</course><type>1</type></trkpt>
      <trkpt lat="40.42537965" lon="-5.2983863"><ele>2068</ele><speed>5.25</speed><time>2016-06-29T10:28:30Z</time><pdop>7.0</pdop><geoidheight>54.00</geoidheight><course>351.3</course><type>1</type></trkpt>
      <trkpt lat="40.42543798" lon="-5.2985454"><ele>2077</ele><speed>4.77</speed><time>2016-06-29T10:28:34Z</time><pdop>6.0</pdop><geoidheight>54.00</geoidheight><course>251.5</course><type>1</type></trkpt>
      <trkpt lat="40.4252917" lon="-5.29863178"><ele>2081</ele><speed>9.28</speed><time>2016-06-29T10:28:37Z</time><pdop>4.0</pdop><geoidheight>54.00</geoidheight><course>187.6</course><type>1</type></trkpt>
      <trkpt lat="40.42517455" lon="-5.29860378"><ele>2079</ele><speed>12.31</speed><time>2016-06-29T10:28:38Z</time><pdop>4.0</pdop><geoidheight>54.00</geoidheight><course>170.4</course><type>1</type></trkpt>
      <trkpt lat="40.42506115" lon="-5.29855988"><ele>2079</ele><speed>12.58</speed><time>2016-06-29T10:28:39Z</time><pdop>4.0</pdop><geoidheight>54.00</geoidheight><course>163.0</course><type>1</type></trkpt>
      <trkpt lat="40.42495473" lon="-5.29845983"><ele>2079</ele><speed>13.62</speed><time>2016-06-29T10:28:40Z</time><pdop>5.0</pdop><geoidheight>54.00</geoidheight><course>150.5</course><type>1</type></trkpt>
      <trkpt lat="40.42489271" lon="-5.29831659"><ele>2078</ele><speed>13.87</speed><time>2016-06-29T10:28:41Z</time><pdop>5.0</pdop><geoidheight>54.00</geoidheight><course>132.8</course><type>1</type></trkpt>
      <trkpt lat="40.42482888" lon="-5.29808691"><ele>2078</ele><speed>16.16</speed><time>2016-06-29T10:28:42Z</time><pdop>6.0</pdop><geoidheight>54.00</geoidheight><course>118.1</course><type>1</type></trkpt>
      <trkpt lat="40.42483263" lon="-5.29781341"><ele>2082</ele><speed>17.96</speed><time>2016-06-29T10:28:43Z</time><pdop>4.0</pdop><geoidheight>54.00</geoidheight><course>97.7</course><type>1</type></trkpt>
      <trkpt lat="40.42481913" lon="-5.2975983"><ele>2082</ele><speed>17.86</speed><time>2016-06-29T10:28:44Z</time><pdop>5.0</pdop><geoidheight>54.00</geoidheight><course>96.0</course><type>1</type></trkpt>
      <trkpt lat="40.42482252" lon="-5.29737717"><ele>2082</ele><speed>17.63</speed><time>2016-06-29T10:28:45Z</time><pdop>6.0</pdop><geoidheight>54.00</geoidheight><course>91.8</course><type>1</type></trkpt>
      <trkpt lat="40.42483517" lon="-5.29721172"><ele>2083</ele><speed>15.09</speed><time>2016-06-29T10:28:46Z</time><pdop>7.0</pdop><geoidheight>54.00</geoidheight><course>88.4</course><type>1</type></trkpt>
      <trkpt lat="40.42491766" lon="-5.29710428"><ele>2082</ele><speed>12.23</speed><time>2016-06-29T10:28:47Z</time><pdop>5.0</pdop><geoidheight>54.00</geoidheight><course>68.2</course><type>1</type></trkpt>
      <trkpt lat="40.42496299" lon="-5.29698318"><ele>2082</ele><speed>11.82</speed><time>2016-06-29T10:28:48Z</time><pdop>5.0</pdop><geoidheight>54.00</geoidheight><course>61.9</course><type>1</type></trkpt>
      <trkpt lat="40.4250392" lon="-5.29688287"><ele>2082</ele><speed>11.66</speed><time>2016-06-29T10:28:49Z</time><pdop>4.0</pdop><geoidheight>54.00</geoidheight><course>48.7</course><type>1</type></trkpt>
      <trkpt lat="40.42510037" lon="-5.29679928"><ele>2081</ele><speed>10.58</speed><time>2016-06-29T10:28:50Z</time><pdop>4.0</pdop><geoidheight>54.00</geoidheight><course>45.1</course><type>1</type></trkpt>
      <trkpt lat="40.42525527" lon="-5.29681507"><ele>2076</ele><speed>8.10</speed><time>2016-06-29T10:28:52Z</time><pdop>4.0</pdop><geoidheight>54.00</geoidheight><course>354.0</course><type>1</type></trkpt>
      <trkpt lat="40.42534749" lon="-5.2969004"><ele>2077</ele><speed>4.57</speed><time>2016-06-29T10:28:54Z</time><pdop>5.0</pdop><geoidheight>54.00</geoidheight><course>315.3</course><type>1</type></trkpt>
      <trkpt lat="40.42540034" lon="-5.29704012"><ele>2076</ele><speed>5.55</speed><time>2016-06-29T10:28:57Z</time><pdop>5.0</pdop><geoidheight>54.00</geoidheight><course>304.2</course><type>1</type></trkpt>
      <trkpt lat="40.42546298" lon="-5.29717398"><ele>2074</ele><speed>6.83</speed><time>2016-06-29T10:28:59Z</time><pdop>4.0</pdop><geoidheight>54.00</geoidheight><course>306.4</course><type>1</type></trkpt>
      <trkpt lat="40.42556016" lon="-5.29724688"><ele>2075</ele><speed>6.13</speed><time>2016-06-29T10:29:01Z</time><pdop>5.0</pdop><geoidheight>54.00</geoidheight><course>330.4</course><type>1</type></trkpt>
      <trkpt lat="40.42567555" lon="-5.29730183"><ele>2075</ele><speed>6.75</speed><time>2016-06-29T10:29:03Z</time><pdop>5.0</pdop><geoidheight>54.00</geoidheight><course>340.3</course><type>1</type></trkpt>
      <trkpt lat="40.42579264" lon="-5.29736948"><ele>2073</ele><speed>6.68</speed><time>2016-06-29T10:29:05Z</time><pdop>6.0</pdop><geoidheight>54.00</geoidheight><course>335.6</course><type>1</type></trkpt>
      <trkpt lat="40.42590796" lon="-5.29742696"><ele>2073</ele><speed>6.84</speed><time>2016-06-29T10:29:07Z</time><pdop>5.0</pdop><geoidheight>54.00</geoidheight><course>344.2</course><type>1</type></trkpt>
      <trkpt lat="40.42603684" lon="-5.29746966"><ele>2074</ele><speed>7.33</speed><time>2016-06-29T10:29:09Z</time><pdop>5.0</pdop><geoidheight>54.00</geoidheight><course>345.4</course><type>1</type></trkpt>
      <trkpt lat="40.42616702" lon="-5.29745383"><ele>2073</ele><speed>7.56</speed><time>2016-06-29T10:29:11Z</time><pdop>4.0</pdop><geoidheight>54.00</geoidheight><course>354.2</course><type>1</type></trkpt>
      <trkpt lat="40.4262906" lon="-5.29746874"><ele>2074</ele><speed>6.94</speed><time>2016-06-29T10:29:13Z</time><pdop>6.0</pdop><geoidheight>54.00</geoidheight><course>356.6</course><type>1</type></trkpt>
      <trkpt lat="40.42637767" lon="-5.29751053"><ele>2077</ele><speed>3.32</speed><time>2016-06-29T10:29:17Z</time><pdop>4.0</pdop><geoidheight>54.00</geoidheight><course>304.7</course><type>1</type></trkpt>
      <trkpt lat="40.42633938" lon="-5.29761698"><ele>2079</ele><speed>3.93</speed><time>2016-06-29T10:29:20Z</time><pdop>3.0</pdop><geoidheight>54.00</geoidheight><course>222.7</course><type>1</type></trkpt>
      <trkpt lat="40.42626726" lon="-5.29763964"><ele>2080</ele><speed>4.61</speed><time>2016-06-29T10:29:22Z</time><pdop>3.0</pdop><geoidheight>54.00</geoidheight><course>193.1</course><type>1</type></trkpt>
      <trkpt lat="40.42617656" lon="-5.29764755"><ele>2082</ele><speed>5.92</speed><time>2016-06-29T10:29:24Z</time><pdop>3.0</pdop><geoidheight>54.00</geoidheight><course>179.9</course><type>1</type></trkpt>
      <trkpt lat="40.42603293" lon="-5.29764355"><ele>2083</ele><speed>8.03</speed><time>2016-06-29T10:29:26Z</time><pdop>9.0</pdop><geoidheight>54.00</geoidheight><course>175.9</course><type>1</type></trkpt>
      <trkpt lat="40.42584251" lon="-5.29758001"><ele>2081</ele><speed>7.46</speed><time>2016-06-29T10:29:29Z</time><pdop>9.0</pdop><geoidheight>54.00</geoidheight><course>163.8</course><type>1</type></trkpt>
      <trkpt lat="40.42566504" lon="-5.2976225"><ele>2074</ele><speed>7.04</speed><time>2016-06-29T10:29:32Z</time><pdop>9.0</pdop><geoidheight>54.00</geoidheight><course>208.4</course><type>1</type></trkpt>
      <trkpt lat="40.42576458" lon="-5.29790949"><ele>2068</ele><speed>6.81</speed><time>2016-06-29T10:29:37Z</time><pdop>11.0</pdop><geoidheight>54.00</geoidheight><course>319.5</course><type>1</type></trkpt>
      <trkpt lat="40.42594042" lon="-5.29778455"><ele>2070</ele><speed>7.93</speed><time>2016-06-29T10:29:39Z</time><pdop>11.0</pdop><geoidheight>54.00</geoidheight><course>8.9</course><type>1</type></trkpt>
      <trkpt lat="40.42619076" lon="-5.29765823"><ele>2067</ele><speed>11.95</speed><time>2016-06-29T10:29:41Z</time><pdop>10.0</pdop><geoidheight>54.00</geoidheight><course>26.0</course><type>1</type></trkpt>
      <trkpt lat="40.42634082" lon="-5.29745191"><ele>2062</ele><speed>11.96</speed><time>2016-06-29T10:29:43Z</time><pdop>9.0</pdop><geoidheight>54.00</geoidheight><course>40.7</course><type>1</type></trkpt>
      <trkpt lat="40.42654067" lon="-5.29726789"><ele>2062</ele><speed>12.69</speed><time>2016-06-29T10:29:45Z</time><pdop>10.0</pdop><geoidheight>54.00</geoidheight><course>36.5</course><type>1</type></trkpt>
      <trkpt lat="40.42679351" lon="-5.29713603"><ele>2059</ele><speed>13.94</speed><time>2016-06-29T10:29:47Z</time><pdop>11.0</pdop><geoidheight>54.00</geoidheight><course>22.6</course><type>1</type></trkpt>
      <trkpt lat="40.42705948" lon="-5.2970917"><ele>2053</ele><speed>9.90</speed><time>2016-06-29T10:29:50Z</time><pdop>10.0</pdop><geoidheight>54.00</geoidheight><course>5.2</course><type>1</type></trkpt>
      <trkpt lat="40.427258" lon="-5.29704006"><ele>2053</ele><speed>9.74</speed><time>2016-06-29T10:29:52Z</time><pdop>10.0</pdop><geoidheight>54.00</geoidheight><course>14.0</course><type>1</type></trkpt>
      <trkpt lat="40.42747273" lon="-5.29697983"><ele>2053</ele><speed>8.43</speed><time>2016-06-29T10:29:55Z</time><pdop>10.0</pdop><geoidheight>54.00</geoidheight><course>11.7</course><type>1</type></trkpt>
      <trkpt lat="40.42760849" lon="-5.29698875"><ele>2053</ele><speed>7.46</speed><time>2016-06-29T10:29:57Z</time><pdop>4.0</pdop><geoidheight>54.00</geoidheight><course>7.5</course><type>1</type></trkpt>
      <trkpt lat="40.42771835" lon="-5.29696193"><ele>2052</ele><speed>6.36</speed><time>2016-06-29T10:29:59Z</time><pdop>4.0</pdop><geoidheight>54.00</geoidheight><course>11.7</course><type>1</type></trkpt>
      <trkpt lat="40.42784277" lon="-5.29693381"><ele>2051</ele><speed>7.17</speed><time>2016-06-29T10:30:01Z</time><pdop>4.0</pdop><geoidheight>54.00</geoidheight><course>4.3</course><type>1</type></trkpt>
      <trkpt lat="40.42793807" lon="-5.296928"><ele>2052</ele><speed>9.08</speed><time>2016-06-29T10:30:02Z</time><pdop>4.0</pdop><geoidheight>54.00</geoidheight><course>3.1</course><type>1</type></trkpt>
      <trkpt lat="40.42803226" lon="-5.2969203"><ele>2051</ele><speed>9.95</speed><time>2016-06-29T10:30:03Z</time><pdop>5.0</pdop><geoidheight>54.00</geoidheight><course>3.3</course><type>1</type></trkpt>
      <trkpt lat="40.42813063" lon="-5.29688032"><ele>2050</ele><speed>10.17</speed><time>2016-06-29T10:30:04Z</time><pdop>5.0</pdop><geoidheight>54.00</geoidheight><course>11.6</course><type>1</type></trkpt>
      <trkpt lat="40.42824674" lon="-5.29680399"><ele>2049</ele><speed>8.42</speed><time>2016-06-29T10:30:06Z</time><pdop>5.0</pdop><geoidheight>54.00</geoidheight><course>21.7</course><type>1</type></trkpt>
      <trkpt lat="40.42838086" lon="-5.2967324"><ele>2050</ele><speed>7.90</speed><time>2016-06-29T10:30:08Z</time><pdop>7.0</pdop><geoidheight>54.00</geoidheight><course>21.9</course><type>1</type></trkpt>
      <trkpt lat="40.42849547" lon="-5.29665534"><ele>2051</ele><speed>7.76</speed><time>2016-06-29T10:30:10Z</time><pdop>7.0</pdop><geoidheight>54.00</geoidheight><course>30.8</course><type>1</type></trkpt>
      <trkpt lat="40.42861647" lon="-5.29657221"><ele>2050</ele><speed>7.89</speed><time>2016-06-29T10:30:12Z</time><pdop>7.0</pdop><geoidheight>54.00</geoidheight><course>32.4</course><type>1</type></trkpt>
      <trkpt lat="40.42873862" lon="-5.29650633"><ele>2052</ele><speed>9.95</speed><time>2016-06-29T10:30:13Z</time><pdop>7.0</pdop><geoidheight>54.00</geoidheight><course>33.6</course><type>1</type></trkpt>
      <trkpt lat="40.42892538" lon="-5.29635717"><ele>2052</ele><speed>11.54</speed><time>2016-06-29T10:30:15Z</time><pdop>7.0</pdop><geoidheight>54.00</geoidheight><course>32.9</course><type>1</type></trkpt>
      <trkpt lat="40.42910295" lon="-5.29622195"><ele>2053</ele><speed>10.56</speed><time>2016-06-29T10:30:17Z</time><pdop>6.0</pdop><geoidheight>54.00</geoidheight><course>32.1</course><type>1</type></trkpt>
      <trkpt lat="40.42922357" lon="-5.29612367"><ele>2051</ele><speed>9.09</speed><time>2016-06-29T10:30:19Z</time><pdop>5.0</pdop><geoidheight>54.00</geoidheight><course>26.7</course><type>1</type></trkpt>
      <trkpt lat="40.42938556" lon="-5.29602782"><ele>2045</ele><speed>10.14</speed><time>2016-06-29T10:30:21Z</time><pdop>5.0</pdop><geoidheight>54.00</geoidheight><course>22.8</course><type>1</type></trkpt>
      <trkpt lat="40.42948491" lon="-5.29597796"><ele>2045</ele><speed>10.99</speed><time>2016-06-29T10:30:22Z</time><pdop>6.0</pdop><geoidheight>54.00</geoidheight><course>22.6</course><type>1</type></trkpt>
      <trkpt lat="40.42970879" lon="-5.29589032"><ele>2045</ele><speed>12.86</speed><time>2016-06-29T10:30:24Z</time><pdop>4.0</pdop><geoidheight>54.00</geoidheight><course>16.4</course><type>1</type></trkpt>
      <trkpt lat="40.42979629" lon="-5.29584718"><ele>2044</ele><speed>11.51</speed><time>2016-06-29T10:30:25Z</time><pdop>4.0</pdop><geoidheight>54.00</geoidheight><course>16.3</course><type>1</type></trkpt>
      <trkpt lat="40.42988683" lon="-5.29580692"><ele>2043</ele><speed>10.97</speed><time>2016-06-29T10:30:26Z</time><pdop>4.0</pdop><geoidheight>54.00</geoidheight><course>17.7</course><type>1</type></trkpt>
      <trkpt lat="40.42998391" lon="-5.29575709"><ele>2040</ele><speed>11.44</speed><time>2016-06-29T10:30:27Z</time><pdop>4.0</pdop><geoidheight>54.00</geoidheight><course>19.8</course><type>1</type></trkpt>
      <trkpt lat="40.4300921" lon="-5.29570878"><ele>2040</ele><speed>11.80</speed><time>2016-06-29T10:30:28Z</time><pdop>5.0</pdop><geoidheight>54.00</geoidheight><course>20.5</course><type>1</type></trkpt>
      <trkpt lat="40.43019367" lon="-5.2956566"><ele>2038</ele><speed>12.24</speed><time>2016-06-29T10:30:29Z</time><pdop>5.0</pdop><geoidheight>54.00</geoidheight><course>21.0</course><type>1</type></trkpt>
      <trkpt lat="40.43029539" lon="-5.2955991"><ele>2037</ele><speed>12.68</speed><time>2016-06-29T10:30:30Z</time><pdop>6.0</pdop><geoidheight>54.00</geoidheight><course>19.3</course><type>1</type></trkpt>
      <trkpt lat="40.4304302" lon="-5.29555308"><ele>2037</ele><speed>13.61</speed><time>2016-06-29T10:30:31Z</time><pdop>6.0</pdop><geoidheight>54.00</geoidheight><course>17.7</course><type>1</type></trkpt>
      <trkpt lat="40.43054334" lon="-5.29549129"><ele>2037</ele><speed>13.17</speed><time>2016-06-29T10:30:32Z</time><pdop>5.0</pdop><geoidheight>54.00</geoidheight><course>20.1</course><type>1</type></trkpt>
      <trkpt lat="40.43064598" lon="-5.29544239"><ele>2037</ele><speed>12.30</speed><time>2016-06-29T10:30:33Z</time><pdop>5.0</pdop><geoidheight>54.00</geoidheight><course>23.8</course><type>1</type></trkpt>
      <trkpt lat="40.43073805" lon="-5.29536912"><ele>2037</ele><speed>11.64</speed><time>2016-06-29T10:30:34Z</time><pdop>4.0</pdop><geoidheight>54.00</geoidheight><course>27.2</course><type>1</type></trkpt>
      <trkpt lat="40.43083071" lon="-5.29530733"><ele>2037</ele><speed>10.79</speed><time>2016-06-29T10:30:35Z</time><pdop>4.0</pdop><geoidheight>54.00</geoidheight><course>30.6</course><type>1</type></trkpt>
      <trkpt lat="40.43088689" lon="-5.29523187"><ele>2036</ele><speed>10.10</speed><time>2016-06-29T10:30:36Z</time><pdop>4.0</pdop><geoidheight>54.00</geoidheight><course>33.1</course><type>1</type></trkpt>
      <trkpt lat="40.43095093" lon="-5.29516088"><ele>2034</ele><speed>10.09</speed><time>2016-06-29T10:30:37Z</time><pdop>3.0</pdop><geoidheight>54.00</geoidheight><course>35.1</course><type>1</type></trkpt>
      <trkpt lat="40.43102734" lon="-5.29507816"><ele>2032</ele><speed>11.06</speed><time>2016-06-29T10:30:38Z</time><pdop>3.0</pdop><geoidheight>54.00</geoidheight><course>36.9</course><type>1</type></trkpt>
      <trkpt lat="40.43112302" lon="-5.29498654"><ele>2029</ele><speed>12.68</speed><time>2016-06-29T10:30:39Z</time><pdop>3.0</pdop><geoidheight>54.00</geoidheight><course>38.0</course><type>1</type></trkpt>
      <trkpt lat="40.43122901" lon="-5.29488395"><ele>2029</ele><speed>13.77</speed><time>2016-06-29T10:30:40Z</time><pdop>3.0</pdop><geoidheight>54.00</geoidheight><course>39.2</course><type>1</type></trkpt>
      <trkpt lat="40.43132174" lon="-5.29478315"><ele>2029</ele><speed>13.45</speed><time>2016-06-29T10:30:41Z</time><pdop>3.0</pdop><geoidheight>54.00</geoidheight><course>41.5</course><type>1</type></trkpt>
      <trkpt lat="40.43140471" lon="-5.29468371"><ele>2028</ele><speed>12.70</speed><time>2016-06-29T10:30:42Z</time><pdop>3.0</pdop><geoidheight>54.00</geoidheight><course>43.1</course><type>1</type></trkpt>
      <trkpt lat="40.4314923" lon="-5.29458222"><ele>2026</ele><speed>12.67</speed><time>2016-06-29T10:30:43Z</time><pdop>3.0</pdop><geoidheight>54.00</geoidheight><course>43.7</course><type>1</type></trkpt>
      <trkpt lat="40.43157796" lon="-5.29447262"><ele>2023</ele><speed>13.60</speed><time>2016-06-29T10:30:44Z</time><pdop>3.0</pdop><geoidheight>54.00</geoidheight><course>44.7</course><type>1</type></trkpt>
      <trkpt lat="40.43167619" lon="-5.29434917"><ele>2024</ele><speed>15.02</speed><time>2016-06-29T10:30:45Z</time><pdop>3.0</pdop><geoidheight>54.00</geoidheight><course>44.7</course><type>1</type></trkpt>
      <trkpt lat="40.43177621" lon="-5.2942147"><ele>2022</ele><speed>15.69</speed><time>2016-06-29T10:30:46Z</time><pdop>3.0</pdop><geoidheight>54.00</geoidheight><course>45.3</course><type>1</type></trkpt>
      <trkpt lat="40.43188095" lon="-5.29408657"><ele>2021</ele><speed>15.73</speed><time>2016-06-29T10:30:47Z</time><pdop>4.0</pdop><geoidheight>54.00</geoidheight><course>44.5</course><type>1</type></trkpt>
      <trkpt lat="40.43196371" lon="-5.29396112"><ele>2020</ele><speed>15.13</speed><time>2016-06-29T10:30:48Z</time><pdop>6.0</pdop><geoidheight>54.00</geoidheight><course>45.6</course><type>1</type></trkpt>
      <trkpt lat="40.43202819" lon="-5.29384241"><ele>2019</ele><speed>14.04</speed><time>2016-06-29T10:30:49Z</time><pdop>4.0</pdop><geoidheight>54.00</geoidheight><course>47.7</course><type>1</type></trkpt>
      <trkpt lat="40.43210356" lon="-5.29371514"><ele>2017</ele><speed>14.06</speed><time>2016-06-29T10:30:50Z</time><pdop>4.0</pdop><geoidheight>54.00</geoidheight><course>48.4</course><type>1</type></trkpt>
      <trkpt lat="40.43217914" lon="-5.29358627"><ele>2015</ele><speed>14.54</speed><time>2016-06-29T10:30:51Z</time><pdop>4.0</pdop><geoidheight>54.00</geoidheight><course>49.5</course><type>1</type></trkpt>
      <trkpt lat="40.4322663" lon="-5.29345148"><ele>2013</ele><speed>15.10</speed><time>2016-06-29T10:30:52Z</time><pdop>4.0</pdop><geoidheight>54.00</geoidheight><course>49.8</course><type>1</type></trkpt>
      <trkpt lat="40.43237294" lon="-5.2933153"><ele>2013</ele><speed>15.22</speed><time>2016-06-29T10:30:53Z</time><pdop>4.0</pdop><geoidheight>54.00</geoidheight><course>48.2</course><type>1</type></trkpt>
      <trkpt lat="40.43246433" lon="-5.29318159"><ele>2013</ele><speed>15.22</speed><time>2016-06-29T10:30:54Z</time><pdop>4.0</pdop><geoidheight>54.00</geoidheight><course>48.2</course><type>1</type></trkpt>
      <trkpt lat="40.43255653" lon="-5.2930526"><ele>2013</ele><speed>14.31</speed><time>2016-06-29T10:30:55Z</time><pdop>4.0</pdop><geoidheight>54.00</geoidheight><course>52.4</course><type>1</type></trkpt>
      <trkpt lat="40.43262809" lon="-5.29292104"><ele>2013</ele><speed>14.17</speed><time>2016-06-29T10:30:56Z</time><pdop>4.0</pdop><geoidheight>54.00</geoidheight><course>55.9</course><type>1</type></trkpt>
      <trkpt lat="40.43269754" lon="-5.29277854"><ele>2013</ele><speed>13.94</speed><time>2016-06-29T10:30:57Z</time><pdop>5.0</pdop><geoidheight>54.00</geoidheight><course>56.1</course><type>1</type></trkpt>
      <trkpt lat="40.43276331" lon="-5.2926564"><ele>2014</ele><speed>12.96</speed><time>2016-06-29T10:30:58Z</time><pdop>5.0</pdop><geoidheight>54.00</geoidheight><course>52.8</course><type>1</type></trkpt>
      <trkpt lat="40.43284312" lon="-5.29253879"><ele>2015</ele><speed>12.83</speed><time>2016-06-29T10:30:59Z</time><pdop>5.0</pdop><geoidheight>54.00</geoidheight><course>50.3</course><type>1</type></trkpt>
      <trkpt lat="40.43291256" lon="-5.29243061"><ele>2014</ele><speed>12.03</speed><time>2016-06-29T10:31:00Z</time><pdop>5.0</pdop><geoidheight>54.00</geoidheight><course>52.0</course><type>1</type></trkpt>
      <trkpt lat="40.43298164" lon="-5.29231472"><ele>2013</ele><speed>12.36</speed><time>2016-06-29T10:31:01Z</time><pdop>5.0</pdop><geoidheight>54.00</geoidheight><course>49.7</course><type>1</type></trkpt>
      <trkpt lat="40.43305373" lon="-5.29220373"><ele>2012</ele><speed>12.35</speed><time>2016-06-29T10:31:02Z</time><pdop>6.0</pdop><geoidheight>54.00</geoidheight><course>49.7</course><type>1</type></trkpt>
      <trkpt lat="40.43314282" lon="-5.29210196"><ele>2007</ele><speed>13.90</speed><time>2016-06-29T10:31:03Z</time><pdop>5.0</pdop><geoidheight>54.00</geoidheight><course>42.8</course><type>1</type></trkpt>
      <trkpt lat="40.43325062" lon="-5.29199446"><ele>2005</ele><speed>15.31</speed><time>2016-06-29T10:31:04Z</time><pdop>4.0</pdop><geoidheight>54.00</geoidheight><course>37.6</course><type>1</type></trkpt>
      <trkpt lat="40.43335413" lon="-5.291881"><ele>2005</ele><speed>14.77</speed><time>2016-06-29T10:31:05Z</time><pdop>4.0</pdop><geoidheight>54.00</geoidheight><course>39.7</course><type>1</type></trkpt>
      <trkpt lat="40.43343897" lon="-5.29176713"><ele>2006</ele><speed>13.57</speed><time>2016-06-29T10:31:06Z</time><pdop>4.0</pdop><geoidheight>54.00</geoidheight><course>43.9</course><type>1</type></trkpt>
      <trkpt lat="40.43351383" lon="-5.29165288"><ele>2007</ele><speed>12.53</speed><time>2016-06-29T10:31:07Z</time><pdop>4.0</pdop><geoidheight>54.00</geoidheight><course>47.1</course><type>1</type></trkpt>
      <trkpt lat="40.43357373" lon="-5.29154818"><ele>2007</ele><speed>11.53</speed><time>2016-06-29T10:31:08Z</time><pdop>4.0</pdop><geoidheight>54.00</geoidheight><course>47.8</course><type>1</type></trkpt>
      <trkpt lat="40.43364826" lon="-5.29144674"><ele>2007</ele><speed>11.76</speed><time>2016-06-29T10:31:09Z</time><pdop>4.0</pdop><geoidheight>54.00</geoidheight><course>46.2</course><type>1</type></trkpt>
      <trkpt lat="40.43372759" lon="-5.2913394"><ele>2007</ele><speed>12.14</speed><time>2016-06-29T10:31:10Z</time><pdop>4.0</pdop><geoidheight>54.00</geoidheight><course>45.6</course><type>1</type></trkpt>
      <trkpt lat="40.43380404" lon="-5.29123738"><ele>2007</ele><speed>12.12</speed><time>2016-06-29T10:31:11Z</time><pdop>4.0</pdop><geoidheight>54.00</geoidheight><course>45.6</course><type>1</type></trkpt>
      <trkpt lat="40.43388475" lon="-5.29113172"><ele>2006</ele><speed>12.93</speed><time>2016-06-29T10:31:12Z</time><pdop>4.0</pdop><geoidheight>54.00</geoidheight><course>45.5</course><type>1</type></trkpt>
      <trkpt lat="40.43397075" lon="-5.29102206"><ele>2005</ele><speed>13.19</speed><time>2016-06-29T10:31:13Z</time><pdop>4.0</pdop><geoidheight>54.00</geoidheight><course>46.1</course><type>1</type></trkpt>
      <trkpt lat="40.43404894" lon="-5.29091137"><ele>2004</ele><speed>13.31</speed><time>2016-06-29T10:31:14Z</time><pdop>4.0</pdop><geoidheight>54.00</geoidheight><course>45.5</course><type>1</type></trkpt>
      <trkpt lat="40.43413195" lon="-5.29080721"><ele>2002</ele><speed>12.90</speed><time>2016-06-29T10:31:15Z</time><pdop>4.0</pdop><geoidheight>54.00</geoidheight><course>40.9</course><type>1</type></trkpt>
      <trkpt lat="40.43421824" lon="-5.29071293"><ele>2001</ele><speed>12.81</speed><time>2016-06-29T10:31:16Z</time><pdop>4.0</pdop><geoidheight>54.00</geoidheight><course>37.4</course><type>1</type></trkpt>
      <trkpt lat="40.43431069" lon="-5.29062123"><ele>2000</ele><speed>12.84</speed><time>2016-06-29T10:31:17Z</time><pdop>4.0</pdop><geoidheight>54.00</geoidheight><course>36.5</course><type>1</type></trkpt>
      <trkpt lat="40.43440234" lon="-5.29053342"><ele>2001</ele><speed>13.06</speed><time>2016-06-29T10:31:18Z</time><pdop>4.0</pdop><geoidheight>54.00</geoidheight><course>37.8</course><type>1</type></trkpt>
      <trkpt lat="40.43449525" lon="-5.29043987"><ele>2001</ele><speed>12.89</speed><time>2016-06-29T10:31:19Z</time><pdop>4.0</pdop><geoidheight>54.00</geoidheight><course>38.5</course><type>1</type></trkpt>
      <trkpt lat="40.43458948" lon="-5.29034865"><ele>2001</ele><speed>12.59</speed><time>2016-06-29T10:31:20Z</time><pdop>4.0</pdop><geoidheight>54.00</geoidheight><course>37.4</course><type>1</type></trkpt>
      <trkpt lat="40.43468985" lon="-5.29027201"><ele>2000</ele><speed>12.30</speed><time>2016-06-29T10:31:21Z</time><pdop>3.0</pdop><geoidheight>54.00</geoidheight><course>33.5</course><type>1</type></trkpt>
      <trkpt lat="40.43478542" lon="-5.29018682"><ele>2001</ele><speed>12.28</speed><time>2016-06-29T10:31:22Z</time><pdop>4.0</pdop><geoidheight>54.00</geoidheight><course>34.3</course><type>1</type></trkpt>
      <trkpt lat="40.43488132" lon="-5.29009322"><ele>2000</ele><speed>12.56</speed><time>2016-06-29T10:31:23Z</time><pdop>4.0</pdop><geoidheight>54.00</geoidheight><course>38.1</course><type>1</type></trkpt>
      <trkpt lat="40.43496875" lon="-5.29000187"><ele>2000</ele><speed>12.51</speed><time>2016-06-29T10:31:24Z</time><pdop>4.0</pdop><geoidheight>54.00</geoidheight><course>39.5</course><type>1</type></trkpt>
      <trkpt lat="40.43505773" lon="-5.28992309"><ele>1999</ele><speed>12.19</speed><time>2016-06-29T10:31:25Z</time><pdop>4.0</pdop><geoidheight>54.00</geoidheight><course>37.4</course><type>1</type></trkpt>
      <trkpt lat="40.43514509" lon="-5.28983583"><ele>1999</ele><speed>12.20</speed><time>2016-06-29T10:31:26Z</time><pdop>5.0</pdop><geoidheight>54.00</geoidheight><course>37.4</course><type>1</type></trkpt>
      <trkpt lat="40.4352156" lon="-5.28976791"><ele>2001</ele><speed>10.87</speed><time>2016-06-29T10:31:27Z</time><pdop>4.0</pdop><geoidheight>54.00</geoidheight><course>35.6</course><type>1</type></trkpt>
      <trkpt lat="40.43529805" lon="-5.28969281"><ele>2002</ele><speed>10.38</speed><time>2016-06-29T10:31:28Z</time><pdop>4.0</pdop><geoidheight>54.00</geoidheight><course>36.2</course><type>1</type></trkpt>
      <trkpt lat="40.43537522" lon="-5.28961143"><ele>2002</ele><speed>10.71</speed><time>2016-06-29T10:31:29Z</time><pdop>4.0</pdop><geoidheight>54.00</geoidheight><course>38.3</course><type>1</type></trkpt>
      <trkpt lat="40.43544834" lon="-5.28952846"><ele>2001</ele><speed>11.29</speed><time>2016-06-29T10:31:30Z</time><pdop>5.0</pdop><geoidheight>54.00</geoidheight><course>39.0</course><type>1</type></trkpt>
      <trkpt lat="40.43552645" lon="-5.28944828"><ele>2000</ele><speed>11.41</speed><time>2016-06-29T10:31:31Z</time><pdop>4.0</pdop><geoidheight>54.00</geoidheight><course>38.0</course><type>1</type></trkpt>
      <trkpt lat="40.4356016" lon="-5.28937581"><ele>2000</ele><speed>11.24</speed><time>2016-06-29T10:31:32Z</time><pdop>4.0</pdop><geoidheight>54.00</geoidheight><course>37.2</course><type>1</type></trkpt>
      <trkpt lat="40.43567382" lon="-5.28929833"><ele>1999</ele><speed>11.08</speed><time>2016-06-29T10:31:33Z</time><pdop>4.0</pdop><geoidheight>54.00</geoidheight><course>36.9</course><type>1</type></trkpt>
      <trkpt lat="40.43576141" lon="-5.28921176"><ele>2000</ele><speed>11.42</speed><time>2016-06-29T10:31:34Z</time><pdop>4.0</pdop><geoidheight>54.00</geoidheight><course>39.0</course><type>1</type></trkpt>
      <trkpt lat="40.43584163" lon="-5.28912371"><ele>2001</ele><speed>12.12</speed><time>2016-06-29T10:31:35Z</time><pdop>5.0</pdop><geoidheight>54.00</geoidheight><course>40.9</course><type>1</type></trkpt>
      <trkpt lat="40.43592139" lon="-5.28902683"><ele>2001</ele><speed>11.69</speed><time>2016-06-29T10:31:36Z</time><pdop>6.0</pdop><geoidheight>54.00</geoidheight><course>42.3</course><type>1</type></trkpt>
      <trkpt lat="40.43600779" lon="-5.2889328"><ele>2001</ele><speed>11.45</speed><time>2016-06-29T10:31:37Z</time><pdop>6.0</pdop><geoidheight>54.00</geoidheight><course>42.8</course><type>1</type></trkpt>
      <trkpt lat="40.43608743" lon="-5.28883846"><ele>2001</ele><speed>11.65</speed><time>2016-06-29T10:31:38Z</time><pdop>5.0</pdop><geoidheight>54.00</geoidheight><course>42.9</course><type>1</type></trkpt>
      <trkpt lat="40.43616436" lon="-5.2887449"><ele>2001</ele><speed>11.66</speed><time>2016-06-29T10:31:39Z</time><pdop>5.0</pdop><geoidheight>54.00</geoidheight><course>42.9</course><type>1</type></trkpt>
      <trkpt lat="40.43622074" lon="-5.28863169"><ele>1999</ele><speed>12.62</speed><time>2016-06-29T10:31:40Z</time><pdop>4.0</pdop><geoidheight>54.00</geoidheight><course>46.2</course><type>1</type></trkpt>
      <trkpt lat="40.43630499" lon="-5.2885232"><ele>1998</ele><speed>12.91</speed><time>2016-06-29T10:31:41Z</time><pdop>4.0</pdop><geoidheight>54.00</geoidheight><course>44.3</course><type>1</type></trkpt>
      <trkpt lat="40.43639099" lon="-5.28842199"><ele>1999</ele><speed>12.66</speed><time>2016-06-29T10:31:42Z</time><pdop>4.0</pdop><geoidheight>54.00</geoidheight><course>44.4</course><type>1</type></trkpt>
      <trkpt lat="40.43647898" lon="-5.28831491"><ele>1999</ele><speed>12.60</speed><time>2016-06-29T10:31:43Z</time><pdop>4.0</pdop><geoidheight>54.00</geoidheight><course>45.0</course><type>1</type></trkpt>
      <trkpt lat="40.4365648" lon="-5.28820101"><ele>2000</ele><speed>12.99</speed><time>2016-06-29T10:31:44Z</time><pdop>4.0</pdop><geoidheight>54.00</geoidheight><course>44.3</course><type>1</type></trkpt>
      <trkpt lat="40.43665065" lon="-5.28809532"><ele>1999</ele><speed>12.48</speed><time>2016-06-29T10:31:45Z</time><pdop>4.0</pdop><geoidheight>54.00</geoidheight><course>41.4</course><type>1</type></trkpt>
      <trkpt lat="40.43673496" lon="-5.28799818"><ele>1999</ele><speed>12.47</speed><time>2016-06-29T10:31:46Z</time><pdop>4.0</pdop><geoidheight>54.00</geoidheight><course>41.4</course><type>1</type></trkpt>
      <trkpt lat="40.43681825" lon="-5.28791454"><ele>1999</ele><speed>12.16</speed><time>2016-06-29T10:31:47Z</time><pdop>5.0</pdop><geoidheight>54.00</geoidheight><course>39.5</course><type>1</type></trkpt>
      <trkpt lat="40.43693365" lon="-5.28782484"><ele>1997</ele><speed>13.68</speed><time>2016-06-29T10:31:48Z</time><pdop>4.0</pdop><geoidheight>54.00</geoidheight><course>33.8</course><type>1</type></trkpt>
      <trkpt lat="40.43703592" lon="-5.2877352"><ele>1997</ele><speed>13.67</speed><time>2016-06-29T10:31:49Z</time><pdop>4.0</pdop><geoidheight>54.00</geoidheight><course>33.8</course><type>1</type></trkpt>
      <trkpt lat="40.43713745" lon="-5.28761954"><ele>1997</ele><speed>13.76</speed><time>2016-06-29T10:31:50Z</time><pdop>4.0</pdop><geoidheight>54.00</geoidheight><course>40.1</course><type>1</type></trkpt>
      <trkpt lat="40.43723261" lon="-5.28752219"><ele>1997</ele><speed>13.39</speed><time>2016-06-29T10:31:51Z</time><pdop>4.0</pdop><geoidheight>54.00</geoidheight><course>39.1</course><type>1</type></trkpt>
      <trkpt lat="40.4373263" lon="-5.28743379"><ele>1996</ele><speed>13.19</speed><time>2016-06-29T10:31:52Z</time><pdop>4.0</pdop><geoidheight>54.00</geoidheight><course>35.5</course><type>1</type></trkpt>
      <trkpt lat="40.43742294" lon="-5.28734346"><ele>1996</ele><speed>13.19</speed><time>2016-06-29T10:31:53Z</time><pdop>5.0</pdop><geoidheight>54.00</geoidheight><course>35.5</course><type>1</type></trkpt>
      <trkpt lat="40.43749785" lon="-5.28724113"><ele>1995</ele><speed>13.66</speed><time>2016-06-29T10:31:54Z</time><pdop>4.0</pdop><geoidheight>54.00</geoidheight><course>40.5</course><type>1</type></trkpt>
      <trkpt lat="40.43759359" lon="-5.28714241"><ele>1997</ele><speed>13.11</speed><time>2016-06-29T10:31:55Z</time><pdop>5.0</pdop><geoidheight>54.00</geoidheight><course>41.4</course><type>1</type></trkpt>
      <trkpt lat="40.43768215" lon="-5.28704048"><ele>1998</ele><speed>13.10</speed><time>2016-06-29T10:31:56Z</time><pdop>6.0</pdop><geoidheight>54.00</geoidheight><course>41.4</course><type>1</type></trkpt>
      <trkpt lat="40.43782773" lon="-5.28689308"><ele>1998</ele><speed>12.13</speed><time>2016-06-29T10:31:58Z</time><pdop>5.0</pdop><geoidheight>54.00</geoidheight><course>35.9</course><type>1</type></trkpt>
      <trkpt lat="40.43791316" lon="-5.28681327"><ele>1997</ele><speed>12.07</speed><time>2016-06-29T10:31:59Z</time><pdop>5.0</pdop><geoidheight>54.00</geoidheight><course>34.9</course><type>1</type></trkpt>
      <trkpt lat="40.43811085" lon="-5.28665315"><ele>1999</ele><speed>12.40</speed><time>2016-06-29T10:32:01Z</time><pdop>10.0</pdop><geoidheight>54.00</geoidheight><course>33.4</course><type>1</type></trkpt>
      <trkpt lat="40.43828233" lon="-5.28651236"><ele>1999</ele><speed>11.31</speed><time>2016-06-29T10:32:03Z</time><pdop>10.0</pdop><geoidheight>54.00</geoidheight><course>31.6</course><type>1</type></trkpt>
      <trkpt lat="40.43846237" lon="-5.28637176"><ele>1998</ele><speed>11.42</speed><time>2016-06-29T10:32:05Z</time><pdop>8.0</pdop><geoidheight>54.00</geoidheight><course>31.3</course><type>1</type></trkpt>
      <trkpt lat="40.43866269" lon="-5.28623578"><ele>2017</ele><speed>12.01</speed><time>2016-06-29T10:32:07Z</time><pdop>8.0</pdop><geoidheight>54.00</geoidheight><course>26.6</course><type>1</type></trkpt>
      <trkpt lat="40.43887563" lon="-5.28609196"><ele>2006</ele><speed>12.42</speed><time>2016-06-29T10:32:09Z</time><pdop>6.0</pdop><geoidheight>54.00</geoidheight><course>28.1</course><type>1</type></trkpt>
      <trkpt lat="40.43897613" lon="-5.28601658"><ele>2003</ele><speed>12.31</speed><time>2016-06-29T10:32:10Z</time><pdop>5.0</pdop><geoidheight>54.00</geoidheight><course>30.9</course><type>1</type></trkpt>
      <trkpt lat="40.43906585" lon="-5.28594585"><ele>2002</ele><speed>11.75</speed><time>2016-06-29T10:32:11Z</time><pdop>5.0</pdop><geoidheight>54.00</geoidheight><course>30.2</course><type>1</type></trkpt>
      <trkpt lat="40.43916169" lon="-5.28587952"><ele>2001</ele><speed>11.69</speed><time>2016-06-29T10:32:12Z</time><pdop>4.0</pdop><geoidheight>54.00</geoidheight><course>29.8</course><type>1</type></trkpt>
      <trkpt lat="40.43924893" lon="-5.28581275"><ele>1999</ele><speed>11.44</speed><time>2016-06-29T10:32:13Z</time><pdop>4.0</pdop><geoidheight>54.00</geoidheight><course>31.0</course><type>1</type></trkpt>
      <trkpt lat="40.4393383" lon="-5.28574167"><ele>1998</ele><speed>11.52</speed><time>2016-06-29T10:32:14Z</time><pdop>4.0</pdop><geoidheight>54.00</geoidheight><course>31.3</course><type>1</type></trkpt>
      <trkpt lat="40.43943269" lon="-5.28566763"><ele>1996</ele><speed>11.87</speed><time>2016-06-29T10:32:15Z</time><pdop>4.0</pdop><geoidheight>54.00</geoidheight><course>29.9</course><type>1</type></trkpt>
      <trkpt lat="40.43953081" lon="-5.28559055"><ele>1995</ele><speed>12.35</speed><time>2016-06-29T10:32:16Z</time><pdop>4.0</pdop><geoidheight>54.00</geoidheight><course>29.6</course><type>1</type></trkpt>
      <trkpt lat="40.43963066" lon="-5.28551062"><ele>1995</ele><speed>12.70</speed><time>2016-06-29T10:32:17Z</time><pdop>4.0</pdop><geoidheight>54.00</geoidheight><course>31.4</course><type>1</type></trkpt>
      <trkpt lat="40.43971867" lon="-5.28542536"><ele>1995</ele><speed>12.88</speed><time>2016-06-29T10:32:18Z</time><pdop>4.0</pdop><geoidheight>54.00</geoidheight><course>35.3</course><type>1</type></trkpt>
      <trkpt lat="40.43981436" lon="-5.28533379"><ele>1995</ele><speed>12.60</speed><time>2016-06-29T10:32:19Z</time><pdop>4.0</pdop><geoidheight>54.00</geoidheight><course>37.9</course><type>1</type></trkpt>
      <trkpt lat="40.43991025" lon="-5.2852471"><ele>1996</ele><speed>12.76</speed><time>2016-06-29T10:32:20Z</time><pdop>4.0</pdop><geoidheight>54.00</geoidheight><course>38.3</course><type>1</type></trkpt>
      <trkpt lat="40.44000211" lon="-5.28515679"><ele>1998</ele><speed>12.64</speed><time>2016-06-29T10:32:21Z</time><pdop>4.0</pdop><geoidheight>54.00</geoidheight><course>38.1</course><type>1</type></trkpt>
      <trkpt lat="40.4400911" lon="-5.28506506"><ele>1998</ele><speed>12.60</speed><time>2016-06-29T10:32:22Z</time><pdop>5.0</pdop><geoidheight>54.00</geoidheight><course>38.2</course><type>1</type></trkpt>
      <trkpt lat="40.44018462" lon="-5.28497877"><ele>2000</ele><speed>13.00</speed><time>2016-06-29T10:32:23Z</time><pdop>4.0</pdop><geoidheight>54.00</geoidheight><course>37.8</course><type>1</type></trkpt>
      <trkpt lat="40.44026653" lon="-5.28487434"><ele>2002</ele><speed>13.17</speed><time>2016-06-29T10:32:24Z</time><pdop>4.0</pdop><geoidheight>54.00</geoidheight><course>45.0</course><type>1</type></trkpt>
      <trkpt lat="40.44033682" lon="-5.28475753"><ele>2003</ele><speed>13.16</speed><time>2016-06-29T10:32:25Z</time><pdop>5.0</pdop><geoidheight>54.00</geoidheight><course>47.3</course><type>1</type></trkpt>
      <trkpt lat="40.44041967" lon="-5.28464733"><ele>2004</ele><speed>12.20</speed><time>2016-06-29T10:32:26Z</time><pdop>5.0</pdop><geoidheight>54.00</geoidheight><course>47.3</course><type>1</type></trkpt>
      <trkpt lat="40.44049482" lon="-5.28454847"><ele>2005</ele><speed>11.22</speed><time>2016-06-29T10:32:27Z</time><pdop>5.0</pdop><geoidheight>54.00</geoidheight><course>44.6</course><type>1</type></trkpt>
      <trkpt lat="40.44056662" lon="-5.28445571"><ele>2006</ele><speed>11.21</speed><time>2016-06-29T10:32:28Z</time><pdop>6.0</pdop><geoidheight>54.00</geoidheight><course>44.6</course><type>1</type></trkpt>
      <trkpt lat="40.44072306" lon="-5.2843219"><ele>2005</ele><speed>10.96</speed><time>2016-06-29T10:32:30Z</time><pdop>8.0</pdop><geoidheight>54.00</geoidheight><course>31.4</course><type>1</type></trkpt>
      <trkpt lat="40.44095589" lon="-5.28423267"><ele>2007</ele><speed>12.32</speed><time>2016-06-29T10:32:32Z</time><pdop>12.0</pdop><geoidheight>54.00</geoidheight><course>17.2</course><type>1</type></trkpt>
      <trkpt lat="40.44116264" lon="-5.28416891"><ele>2008</ele><speed>11.45</speed><time>2016-06-29T10:32:34Z</time><pdop>10.0</pdop><geoidheight>54.00</geoidheight><course>14.2</course><type>1</type></trkpt>
      <trkpt lat="40.44137009" lon="-5.28410141"><ele>2011</ele><speed>10.77</speed><time>2016-06-29T10:32:36Z</time><pdop>8.0</pdop><geoidheight>54.00</geoidheight><course>17.9</course><type>1</type></trkpt>
      <trkpt lat="40.44156138" lon="-5.28402159"><ele>2010</ele><speed>11.27</speed><time>2016-06-29T10:32:38Z</time><pdop>7.0</pdop><geoidheight>54.00</geoidheight><course>19.8</course><type>1</type></trkpt>
      <trkpt lat="40.44174414" lon="-5.28394155"><ele>2010</ele><speed>10.26</speed><time>2016-06-29T10:32:40Z</time><pdop>7.0</pdop><geoidheight>54.00</geoidheight><course>17.2</course><type>1</type></trkpt>
      <trkpt lat="40.44192774" lon="-5.28386343"><ele>2010</ele><speed>11.03</speed><time>2016-06-29T10:32:42Z</time><pdop>5.0</pdop><geoidheight>54.00</geoidheight><course>19.8</course><type>1</type></trkpt>
      <trkpt lat="40.44202997" lon="-5.28381069"><ele>2011</ele><speed>11.22</speed><time>2016-06-29T10:32:43Z</time><pdop>5.0</pdop><geoidheight>54.00</geoidheight><course>23.0</course><type>1</type></trkpt>
      <trkpt lat="40.44213348" lon="-5.28376393"><ele>2012</ele><speed>10.95</speed><time>2016-06-29T10:32:44Z</time><pdop>5.0</pdop><geoidheight>54.00</geoidheight><course>21.2</course><type>1</type></trkpt>
      <trkpt lat="40.44222608" lon="-5.28371613"><ele>2012</ele><speed>11.05</speed><time>2016-06-29T10:32:45Z</time><pdop>5.0</pdop><geoidheight>54.00</geoidheight><course>20.3</course><type>1</type></trkpt>
      <trkpt lat="40.44233039" lon="-5.28366071"><ele>2012</ele><speed>12.05</speed><time>2016-06-29T10:32:46Z</time><pdop>4.0</pdop><geoidheight>54.00</geoidheight><course>22.4</course><type>1</type></trkpt>
      <trkpt lat="40.44242296" lon="-5.28358895"><ele>2011</ele><speed>12.98</speed><time>2016-06-29T10:32:47Z</time><pdop>4.0</pdop><geoidheight>54.00</geoidheight><course>28.8</course><type>1</type></trkpt>
      <trkpt lat="40.44251466" lon="-5.28350652"><ele>2013</ele><speed>13.11</speed><time>2016-06-29T10:32:48Z</time><pdop>4.0</pdop><geoidheight>54.00</geoidheight><course>33.8</course><type>1</type></trkpt>
      <trkpt lat="40.44261316" lon="-5.28342429"><ele>2014</ele><speed>12.20</speed><time>2016-06-29T10:32:49Z</time><pdop>4.0</pdop><geoidheight>54.00</geoidheight><course>34.6</course><type>1</type></trkpt>
      <trkpt lat="40.44269564" lon="-5.28336357"><ele>2014</ele><speed>11.06</speed><time>2016-06-29T10:32:50Z</time><pdop>4.0</pdop><geoidheight>54.00</geoidheight><course>30.6</course><type>1</type></trkpt>
      <trkpt lat="40.44278444" lon="-5.28330998"><ele>2014</ele><speed>10.61</speed><time>2016-06-29T10:32:51Z</time><pdop>4.0</pdop><geoidheight>54.00</geoidheight><course>25.4</course><type>1</type></trkpt>
      <trkpt lat="40.44288059" lon="-5.28325817"><ele>2012</ele><speed>11.25</speed><time>2016-06-29T10:32:52Z</time><pdop>3.0</pdop><geoidheight>54.00</geoidheight><course>21.5</course><type>1</type></trkpt>
      <trkpt lat="40.44298183" lon="-5.28321004"><ele>2010</ele><speed>12.15</speed><time>2016-06-29T10:32:53Z</time><pdop>3.0</pdop><geoidheight>54.00</geoidheight><course>19.6</course><type>1</type></trkpt>
      <trkpt lat="40.44309238" lon="-5.28316424"><ele>2010</ele><speed>12.54</speed><time>2016-06-29T10:32:54Z</time><pdop>3.0</pdop><geoidheight>54.00</geoidheight><course>18.6</course><type>1</type></trkpt>
      <trkpt lat="40.44319451" lon="-5.28312187"><ele>2009</ele><speed>12.19</speed><time>2016-06-29T10:32:55Z</time><pdop>3.0</pdop><geoidheight>54.00</geoidheight><course>18.1</course><type>1</type></trkpt>
      <trkpt lat="40.44329879" lon="-5.28308203"><ele>2009</ele><speed>11.44</speed><time>2016-06-29T10:32:56Z</time><pdop>3.0</pdop><geoidheight>54.00</geoidheight><course>18.3</course><type>1</type></trkpt>
      <trkpt lat="40.44338921" lon="-5.28304867"><ele>2009</ele><speed>10.78</speed><time>2016-06-29T10:32:57Z</time><pdop>3.0</pdop><geoidheight>54.00</geoidheight><course>18.7</course><type>1</type></trkpt>
      <trkpt lat="40.44348121" lon="-5.28300722"><ele>2009</ele><speed>10.63</speed><time>2016-06-29T10:32:58Z</time><pdop>3.0</pdop><geoidheight>54.00</geoidheight><course>19.2</course><type>1</type></trkpt>
      <trkpt lat="40.44357116" lon="-5.28296955"><ele>2008</ele><speed>10.70</speed><time>2016-06-29T10:32:59Z</time><pdop>3.0</pdop><geoidheight>54.00</geoidheight><course>18.5</course><type>1</type></trkpt>
      <trkpt lat="40.44366454" lon="-5.28293472"><ele>2007</ele><speed>10.89</speed><time>2016-06-29T10:33:00Z</time><pdop>3.0</pdop><geoidheight>54.00</geoidheight><course>16.0</course><type>1</type></trkpt>
      <trkpt lat="40.44376357" lon="-5.28288776"><ele>2007</ele><speed>11.08</speed><time>2016-06-29T10:33:01Z</time><pdop>3.0</pdop><geoidheight>54.00</geoidheight><course>16.1</course><type>1</type></trkpt>
      <trkpt lat="40.44385947" lon="-5.2828515"><ele>2007</ele><speed>11.08</speed><time>2016-06-29T10:33:02Z</time><pdop>3.0</pdop><geoidheight>54.00</geoidheight><course>16.1</course><type>1</type></trkpt>
      <trkpt lat="40.44395532" lon="-5.28279157"><ele>2006</ele><speed>12.03</speed><time>2016-06-29T10:33:03Z</time><pdop>3.0</pdop><geoidheight>54.00</geoidheight><course>21.6</course><type>1</type></trkpt>
      <trkpt lat="40.44406073" lon="-5.28272896"><ele>2006</ele><speed>12.56</speed><time>2016-06-29T10:33:04Z</time><pdop>3.0</pdop><geoidheight>54.00</geoidheight><course>24.9</course><type>1</type></trkpt>
      <trkpt lat="40.44416184" lon="-5.28264955"><ele>2007</ele><speed>12.64</speed><time>2016-06-29T10:33:05Z</time><pdop>3.0</pdop><geoidheight>54.00</geoidheight><course>32.4</course><type>1</type></trkpt>
      <trkpt lat="40.44425229" lon="-5.28255297"><ele>2007</ele><speed>12.71</speed><time>2016-06-29T10:33:06Z</time><pdop>4.0</pdop><geoidheight>54.00</geoidheight><course>41.6</course><type>1</type></trkpt>
      <trkpt lat="40.44433788" lon="-5.28245365"><ele>2008</ele><speed>12.70</speed><time>2016-06-29T10:33:07Z</time><pdop>4.0</pdop><geoidheight>54.00</geoidheight><course>41.6</course><type>1</type></trkpt>
      <trkpt lat="40.4444061" lon="-5.28232918"><ele>2008</ele><speed>13.02</speed><time>2016-06-29T10:33:08Z</time><pdop>3.0</pdop><geoidheight>54.00</geoidheight><course>50.9</course><type>1</type></trkpt>
      <trkpt lat="40.44446958" lon="-5.28220425"><ele>2007</ele><speed>13.11</speed><time>2016-06-29T10:33:09Z</time><pdop>4.0</pdop><geoidheight>54.00</geoidheight><course>52.4</course><type>1</type></trkpt>
      <trkpt lat="40.44453857" lon="-5.2820788"><ele>2007</ele><speed>12.71</speed><time>2016-06-29T10:33:10Z</time><pdop>4.0</pdop><geoidheight>54.00</geoidheight><course>53.4</course><type>1</type></trkpt>
      <trkpt lat="40.44460918" lon="-5.28196708"><ele>2006</ele><speed>13.02</speed><time>2016-06-29T10:33:11Z</time><pdop>4.0</pdop><geoidheight>54.00</geoidheight><course>55.0</course><type>1</type></trkpt>
      <trkpt lat="40.44467609" lon="-5.28184691"><ele>2005</ele><speed>13.30</speed><time>2016-06-29T10:33:12Z</time><pdop>5.0</pdop><geoidheight>54.00</geoidheight><course>50.4</course><type>1</type></trkpt>
      <trkpt lat="40.44475674" lon="-5.28174462"><ele>2003</ele><speed>13.06</speed><time>2016-06-29T10:33:13Z</time><pdop>5.0</pdop><geoidheight>54.00</geoidheight><course>44.6</course><type>1</type></trkpt>
      <trkpt lat="40.44484056" lon="-5.28163676"><ele>2003</ele><speed>13.05</speed><time>2016-06-29T10:33:14Z</time><pdop>7.0</pdop><geoidheight>54.00</geoidheight><course>44.6</course><type>1</type></trkpt>
      <trkpt lat="40.44493784" lon="-5.28152725"><ele>2003</ele><speed>13.10</speed><time>2016-06-29T10:33:15Z</time><pdop>5.0</pdop><geoidheight>54.00</geoidheight><course>41.7</course><type>1</type></trkpt>
      <trkpt lat="40.44501977" lon="-5.28141913"><ele>2003</ele><speed>12.59</speed><time>2016-06-29T10:33:16Z</time><pdop>5.0</pdop><geoidheight>54.00</geoidheight><course>43.9</course><type>1</type></trkpt>
      <trkpt lat="40.44511149" lon="-5.28131992"><ele>2004</ele><speed>12.84</speed><time>2016-06-29T10:33:17Z</time><pdop>6.0</pdop><geoidheight>54.00</geoidheight><course>46.4</course><type>1</type></trkpt>
      <trkpt lat="40.44518508" lon="-5.28121312"><ele>2003</ele><speed>12.70</speed><time>2016-06-29T10:33:18Z</time><pdop>6.0</pdop><geoidheight>54.00</geoidheight><course>48.6</course><type>1</type></trkpt>
      <trkpt lat="40.44525946" lon="-5.28110099"><ele>2002</ele><speed>12.95</speed><time>2016-06-29T10:33:19Z</time><pdop>5.0</pdop><geoidheight>54.00</geoidheight><course>47.6</course><type>1</type></trkpt>
      <trkpt lat="40.44534246" lon="-5.28098921"><ele>2002</ele><speed>12.75</speed><time>2016-06-29T10:33:20Z</time><pdop>6.0</pdop><geoidheight>54.00</geoidheight><course>46.1</course><type>1</type></trkpt>
      <trkpt lat="40.44542226" lon="-5.28087873"><ele>2003</ele><speed>12.32</speed><time>2016-06-29T10:33:21Z</time><pdop>5.0</pdop><geoidheight>54.00</geoidheight><course>46.6</course><type>1</type></trkpt>
      <trkpt lat="40.44549162" lon="-5.28077812"><ele>2003</ele><speed>12.13</speed><time>2016-06-29T10:33:22Z</time><pdop>5.0</pdop><geoidheight>54.00</geoidheight><course>47.2</course><type>1</type></trkpt>
      <trkpt lat="40.44556218" lon="-5.28066309"><ele>2003</ele><speed>12.09</speed><time>2016-06-29T10:33:23Z</time><pdop>6.0</pdop><geoidheight>54.00</geoidheight><course>50.1</course><type>1</type></trkpt>
      <trkpt lat="40.44567773" lon="-5.28045076"><ele>2001</ele><speed>11.91</speed><time>2016-06-29T10:33:25Z</time><pdop>5.0</pdop><geoidheight>54.00</geoidheight><course>50.0</course><type>1</type></trkpt>
      <trkpt lat="40.44575192" lon="-5.28034461"><ele>2001</ele><speed>12.17</speed><time>2016-06-29T10:33:26Z</time><pdop>6.0</pdop><geoidheight>54.00</geoidheight><course>49.0</course><type>1</type></trkpt>
      <trkpt lat="40.44589002" lon="-5.28013516"><ele>2003</ele><speed>12.06</speed><time>2016-06-29T10:33:28Z</time><pdop>6.0</pdop><geoidheight>54.00</geoidheight><course>51.2</course><type>1</type></trkpt>
      <trkpt lat="40.44600919" lon="-5.27990977"><ele>2004</ele><speed>11.69</speed><time>2016-06-29T10:33:30Z</time><pdop>5.0</pdop><geoidheight>54.00</geoidheight><course>52.3</course><type>1</type></trkpt>
      <trkpt lat="40.44607604" lon="-5.27979163"><ele>2005</ele><speed>11.76</speed><time>2016-06-29T10:33:31Z</time><pdop>5.0</pdop><geoidheight>54.00</geoidheight><course>52.9</course><type>1</type></trkpt>
      <trkpt lat="40.44613957" lon="-5.2796746"><ele>2005</ele><speed>12.17</speed><time>2016-06-29T10:33:32Z</time><pdop>5.0</pdop><geoidheight>54.00</geoidheight><course>55.5</course><type>1</type></trkpt>
      <trkpt lat="40.44620246" lon="-5.27955191"><ele>2004</ele><speed>13.06</speed><time>2016-06-29T10:33:33Z</time><pdop>5.0</pdop><geoidheight>54.00</geoidheight><course>54.2</course><type>1</type></trkpt>
      <trkpt lat="40.44626591" lon="-5.27942278"><ele>2003</ele><speed>13.44</speed><time>2016-06-29T10:33:34Z</time><pdop>5.0</pdop><geoidheight>54.00</geoidheight><course>56.4</course><type>1</type></trkpt>
      <trkpt lat="40.44632816" lon="-5.27927976"><ele>2002</ele><speed>13.99</speed><time>2016-06-29T10:33:35Z</time><pdop>5.0</pdop><geoidheight>54.00</geoidheight><course>60.2</course><type>1</type></trkpt>
      <trkpt lat="40.44639021" lon="-5.27913789"><ele>2001</ele><speed>14.53</speed><time>2016-06-29T10:33:36Z</time><pdop>5.0</pdop><geoidheight>54.00</geoidheight><course>60.9</course><type>1</type></trkpt>
      <trkpt lat="40.44644555" lon="-5.27899369"><ele>2000</ele><speed>14.26</speed><time>2016-06-29T10:33:37Z</time><pdop>4.0</pdop><geoidheight>54.00</geoidheight><course>61.2</course><type>1</type></trkpt>
      <trkpt lat="40.44650642" lon="-5.2788539"><ele>1999</ele><speed>12.95</speed><time>2016-06-29T10:33:38Z</time><pdop>4.0</pdop><geoidheight>54.00</geoidheight><course>55.8</course><type>1</type></trkpt>
      <trkpt lat="40.4465719" lon="-5.27872767"><ele>1998</ele><speed>12.94</speed><time>2016-06-29T10:33:39Z</time><pdop>5.0</pdop><geoidheight>54.00</geoidheight><course>55.8</course><type>1</type></trkpt>
      <trkpt lat="40.44666485" lon="-5.27866774"><ele>1997</ele><speed>11.12</speed><time>2016-06-29T10:33:40Z</time><pdop>4.0</pdop><geoidheight>54.00</geoidheight><course>32.6</course><type>1</type></trkpt>
      <trkpt lat="40.44675151" lon="-5.27860663"><ele>1996</ele><speed>10.84</speed><time>2016-06-29T10:33:41Z</time><pdop>5.0</pdop><geoidheight>54.00</geoidheight><course>28.5</course><type>1</type></trkpt>
      <trkpt lat="40.44692646" lon="-5.27851274"><ele>1995</ele><speed>10.61</speed><time>2016-06-29T10:33:43Z</time><pdop>10.0</pdop><geoidheight>54.00</geoidheight><course>23.6</course><type>1</type></trkpt>
      <trkpt lat="40.44709466" lon="-5.27839366"><ele>1995</ele><speed>11.22</speed><time>2016-06-29T10:33:45Z</time><pdop>10.0</pdop><geoidheight>54.00</geoidheight><course>29.3</course><type>1</type></trkpt>
      <trkpt lat="40.44729394" lon="-5.27824328"><ele>1995</ele><speed>11.22</speed><time>2016-06-29T10:33:47Z</time><pdop>8.0</pdop><geoidheight>54.00</geoidheight><course>31.5</course><type>1</type></trkpt>
      <trkpt lat="40.44745363" lon="-5.27812194"><ele>1995</ele><speed>11.27</speed><time>2016-06-29T10:33:49Z</time><pdop>6.0</pdop><geoidheight>54.00</geoidheight><course>29.1</course><type>1</type></trkpt>
      <trkpt lat="40.44763059" lon="-5.27797535"><ele>1996</ele><speed>12.34</speed><time>2016-06-29T10:33:51Z</time><pdop>6.0</pdop><geoidheight>54.00</geoidheight><course>32.4</course><type>1</type></trkpt>
      <trkpt lat="40.44774014" lon="-5.27788656"><ele>1997</ele><speed>13.38</speed><time>2016-06-29T10:33:52Z</time><pdop>5.0</pdop><geoidheight>54.00</geoidheight><course>34.1</course><type>1</type></trkpt>
      <trkpt lat="40.44784784" lon="-5.27779799"><ele>2000</ele><speed>13.76</speed><time>2016-06-29T10:33:53Z</time><pdop>5.0</pdop><geoidheight>54.00</geoidheight><course>34.1</course><type>1</type></trkpt>
      <trkpt lat="40.44794093" lon="-5.27773429"><ele>2001</ele><speed>11.92</speed><time>2016-06-29T10:33:54Z</time><pdop>4.0</pdop><geoidheight>54.00</geoidheight><course>27.5</course><type>1</type></trkpt>
      <trkpt lat="40.44801714" lon="-5.27767579"><ele>2001</ele><speed>11.66</speed><time>2016-06-29T10:33:55Z</time><pdop>5.0</pdop><geoidheight>54.00</geoidheight><course>25.6</course><type>1</type></trkpt>
      <trkpt lat="40.44821957" lon="-5.27769595"><ele>2002</ele><speed>10.54</speed><time>2016-06-29T10:33:57Z</time><pdop>6.0</pdop><geoidheight>54.00</geoidheight><course>357.6</course><type>1</type></trkpt>
      <trkpt lat="40.44832143" lon="-5.27770278"><ele>2003</ele><speed>10.09</speed><time>2016-06-29T10:33:58Z</time><pdop>5.0</pdop><geoidheight>54.00</geoidheight><course>355.0</course><type>1</type></trkpt>
      <trkpt lat="40.44847689" lon="-5.27772356"><ele>2004</ele><speed>8.36</speed><time>2016-06-29T10:34:00Z</time><pdop>5.0</pdop><geoidheight>54.00</geoidheight><course>354.1</course><type>1</type></trkpt>
      <trkpt lat="40.44861003" lon="-5.27775891"><ele>2005</ele><speed>7.68</speed><time>2016-06-29T10:34:02Z</time><pdop>9.0</pdop><geoidheight>54.00</geoidheight><course>353.3</course><type>1</type></trkpt>
      <trkpt lat="40.44876663" lon="-5.27773469"><ele>2007</ele><speed>8.51</speed><time>2016-06-29T10:34:04Z</time><pdop>6.0</pdop><geoidheight>54.00</geoidheight><course>3.5</course><type>1</type></trkpt>
      <trkpt lat="40.44891678" lon="-5.27778703"><ele>2008</ele><speed>6.27</speed><time>2016-06-29T10:34:06Z</time><pdop>6.0</pdop><geoidheight>54.00</geoidheight><course>338.9</course><type>1</type></trkpt>
      <trkpt lat="40.44880191" lon="-5.27807546"><ele>2010</ele><speed>6.20</speed><time>2016-06-29T10:34:11Z</time><pdop>5.0</pdop><geoidheight>54.00</geoidheight><course>203.3</course><type>1</type></trkpt>
      <trkpt lat="40.44863655" lon="-5.27807087"><ele>2011</ele><speed>9.79</speed><time>2016-06-29T10:34:13Z</time><pdop>5.0</pdop><geoidheight>54.00</geoidheight><course>169.9</course><type>1</type></trkpt>
      <trkpt lat="40.44844602" lon="-5.27806793"><ele>2010</ele><speed>10.06</speed><time>2016-06-29T10:34:15Z</time><pdop>8.0</pdop><geoidheight>54.00</geoidheight><course>173.2</course><type>1</type></trkpt>
      <trkpt lat="40.44835349" lon="-5.27768859"><ele>2014</ele><speed>12.83</speed><time>2016-06-29T10:34:17Z</time><pdop>6.0</pdop><geoidheight>54.00</geoidheight><course>109.8</course><type>1</type></trkpt>
      <trkpt lat="40.44834062" lon="-5.27750777"><ele>2016</ele><speed>13.18</speed><time>2016-06-29T10:34:18Z</time><pdop>5.0</pdop><geoidheight>54.00</geoidheight><course>92.4</course><type>1</type></trkpt>
      <trkpt lat="40.44834367" lon="-5.27733557"><ele>2016</ele><speed>13.70</speed><time>2016-06-29T10:34:19Z</time><pdop>5.0</pdop><geoidheight>54.00</geoidheight><course>88.9</course><type>1</type></trkpt>
      <trkpt lat="40.44835208" lon="-5.27715718"><ele>2016</ele><speed>14.04</speed><time>2016-06-29T10:34:20Z</time><pdop>6.0</pdop><geoidheight>54.00</geoidheight><course>84.0</course><type>1</type></trkpt>
      <trkpt lat="40.44851526" lon="-5.27707616"><ele>2019</ele><speed>14.57</speed><time>2016-06-29T10:34:21Z</time><pdop>5.0</pdop><geoidheight>54.00</geoidheight><course>46.8</course><type>1</type></trkpt>
      <trkpt lat="40.44860348" lon="-5.27696524"><ele>2024</ele><speed>13.20</speed><time>2016-06-29T10:34:22Z</time><pdop>4.0</pdop><geoidheight>54.00</geoidheight><course>41.5</course><type>1</type></trkpt>
      <trkpt lat="40.44868991" lon="-5.27688476"><ele>2028</ele><speed>11.81</speed><time>2016-06-29T10:34:23Z</time><pdop>4.0</pdop><geoidheight>54.00</geoidheight><course>37.1</course><type>1</type></trkpt>
      <trkpt lat="40.44876732" lon="-5.27681967"><ele>2030</ele><speed>9.90</speed><time>2016-06-29T10:34:24Z</time><pdop>4.0</pdop><geoidheight>54.00</geoidheight><course>30.9</course><type>1</type></trkpt>
      <trkpt lat="40.44885043" lon="-5.27677974"><ele>2033</ele><speed>8.55</speed><time>2016-06-29T10:34:25Z</time><pdop>3.0</pdop><geoidheight>54.00</geoidheight><course>20.5</course><type>1</type></trkpt>
      <trkpt lat="40.44892885" lon="-5.27676454"><ele>2034</ele><speed>8.25</speed><time>2016-06-29T10:34:26Z</time><pdop>3.0</pdop><geoidheight>54.00</geoidheight><course>8.6</course><type>1</type></trkpt>
      <trkpt lat="40.44900527" lon="-5.27677143"><ele>2034</ele><speed>8.23</speed><time>2016-06-29T10:34:27Z</time><pdop>3.0</pdop><geoidheight>54.00</geoidheight><course>356.2</course><type>1</type></trkpt>
      <trkpt lat="40.44907553" lon="-5.27678636"><ele>2034</ele><speed>7.62</speed><time>2016-06-29T10:34:28Z</time><pdop>3.0</pdop><geoidheight>54.00</geoidheight><course>349.9</course><type>1</type></trkpt>
      <trkpt lat="40.44913744" lon="-5.27690796"><ele>2034</ele><speed>5.86</speed><time>2016-06-29T10:34:30Z</time><pdop>4.0</pdop><geoidheight>54.00</geoidheight><course>307.1</course><type>1</type></trkpt>
      <trkpt lat="40.44909719" lon="-5.27706337"><ele>2034</ele><speed>5.20</speed><time>2016-06-29T10:34:32Z</time><pdop>4.0</pdop><geoidheight>54.00</geoidheight><course>247.0</course><type>1</type></trkpt>
      <trkpt lat="40.44902334" lon="-5.27716174"><ele>2033</ele><speed>6.00</speed><time>2016-06-29T10:34:34Z</time><pdop>4.0</pdop><geoidheight>54.00</geoidheight><course>225.3</course><type>1</type></trkpt>
      <trkpt lat="40.44896048" lon="-5.27721173"><ele>2032</ele><speed>6.74</speed><time>2016-06-29T10:34:35Z</time><pdop>4.0</pdop><geoidheight>54.00</geoidheight><course>214.8</course><type>1</type></trkpt>
      <trkpt lat="40.44889355" lon="-5.27725376"><ele>2033</ele><speed>7.54</speed><time>2016-06-29T10:34:36Z</time><pdop>4.0</pdop><geoidheight>54.00</geoidheight><course>208.3</course><type>1</type></trkpt>
      <trkpt lat="40.44875152" lon="-5.27732801"><ele>2030</ele><speed>8.19</speed><time>2016-06-29T10:34:38Z</time><pdop>4.0</pdop><geoidheight>54.00</geoidheight><course>200.9</course><type>1</type></trkpt>
      <trkpt lat="40.44858035" lon="-5.27734965"><ele>2028</ele><speed>9.95</speed><time>2016-06-29T10:34:40Z</time><pdop>4.0</pdop><geoidheight>54.00</geoidheight><course>179.0</course><type>1</type></trkpt>
      <trkpt lat="40.44849048" lon="-5.27732497"><ele>2028</ele><speed>10.82</speed><time>2016-06-29T10:34:41Z</time><pdop>4.0</pdop><geoidheight>54.00</geoidheight><course>169.1</course><type>1</type></trkpt>
      <trkpt lat="40.44839422" lon="-5.27732034"><ele>2028</ele><speed>10.95</speed><time>2016-06-29T10:34:42Z</time><pdop>6.0</pdop><geoidheight>54.00</geoidheight><course>169.5</course><type>1</type></trkpt>
      <trkpt lat="40.44826723" lon="-5.27725034"><ele>2029</ele><speed>12.66</speed><time>2016-06-29T10:34:43Z</time><pdop>4.0</pdop><geoidheight>54.00</geoidheight><course>157.4</course><type>1</type></trkpt>
      <trkpt lat="40.44816592" lon="-5.2771706"><ele>2030</ele><speed>13.39</speed><time>2016-06-29T10:34:44Z</time><pdop>4.0</pdop><geoidheight>54.00</geoidheight><course>152.4</course><type>1</type></trkpt>
      <trkpt lat="40.44807878" lon="-5.2770589"><ele>2030</ele><speed>13.46</speed><time>2016-06-29T10:34:45Z</time><pdop>4.0</pdop><geoidheight>54.00</geoidheight><course>139.8</course><type>1</type></trkpt>
      <trkpt lat="40.44800446" lon="-5.27690044"><ele>2034</ele><speed>14.15</speed><time>2016-06-29T10:34:46Z</time><pdop>4.0</pdop><geoidheight>54.00</geoidheight><course>126.7</course><type>1</type></trkpt>
      <trkpt lat="40.44793224" lon="-5.27676475"><ele>2034</ele><speed>13.97</speed><time>2016-06-29T10:34:47Z</time><pdop>5.0</pdop><geoidheight>54.00</geoidheight><course>123.2</course><type>1</type></trkpt>
      <trkpt lat="40.44788707" lon="-5.27659677"><ele>2034</ele><speed>13.58</speed><time>2016-06-29T10:34:48Z</time><pdop>7.0</pdop><geoidheight>54.00</geoidheight><course>113.8</course><type>1</type></trkpt>
      <trkpt lat="40.44791023" lon="-5.27644121"><ele>2035</ele><speed>12.89</speed><time>2016-06-29T10:34:49Z</time><pdop>6.0</pdop><geoidheight>54.00</geoidheight><course>94.5</course><type>1</type></trkpt>
      <trkpt lat="40.44794667" lon="-5.27611485"><ele>2037</ele><speed>12.87</speed><time>2016-06-29T10:34:51Z</time><pdop>7.0</pdop><geoidheight>54.00</geoidheight><course>81.8</course><type>1</type></trkpt>
      <trkpt lat="40.4481092" lon="-5.2760344"><ele>2037</ele><speed>12.90</speed><time>2016-06-29T10:34:52Z</time><pdop>5.0</pdop><geoidheight>54.00</geoidheight><course>38.3</course><type>1</type></trkpt>
      <trkpt lat="40.44822379" lon="-5.27598003"><ele>2037</ele><speed>12.33</speed><time>2016-06-29T10:34:53Z</time><pdop>4.0</pdop><geoidheight>54.00</geoidheight><course>22.4</course><type>1</type></trkpt>
      <trkpt lat="40.44832411" lon="-5.27595973"><ele>2039</ele><speed>10.74</speed><time>2016-06-29T10:34:54Z</time><pdop>4.0</pdop><geoidheight>54.00</geoidheight><course>8.2</course><type>1</type></trkpt>
      <trkpt lat="40.44840148" lon="-5.27597953"><ele>2041</ele><speed>8.74</speed><time>2016-06-29T10:34:55Z</time><pdop>4.0</pdop><geoidheight>54.00</geoidheight><course>350.8</course><type>1</type></trkpt>
      <trkpt lat="40.44846675" lon="-5.27602431"><ele>2042</ele><speed>7.45</speed><time>2016-06-29T10:34:56Z</time><pdop>4.0</pdop><geoidheight>54.00</geoidheight><course>331.1</course><type>1</type></trkpt>
      <trkpt lat="40.44852025" lon="-5.27614844"><ele>2045</ele><speed>5.51</speed><time>2016-06-29T10:34:58Z</time><pdop>4.0</pdop><geoidheight>54.00</geoidheight><course>292.7</course><type>1</type></trkpt>
      <trkpt lat="40.44852835" lon="-5.2762637"><ele>2047</ele><speed>5.31</speed><time>2016-06-29T10:35:00Z</time><pdop>4.0</pdop><geoidheight>54.00</geoidheight><course>273.5</course><type>1</type></trkpt>
      <trkpt lat="40.44850426" lon="-5.27641073"><ele>2048</ele><speed>6.59</speed><time>2016-06-29T10:35:02Z</time><pdop>5.0</pdop><geoidheight>54.00</geoidheight><course>253.6</course><type>1</type></trkpt>
      <trkpt lat="40.44844043" lon="-5.27656326"><ele>2048</ele><speed>7.21</speed><time>2016-06-29T10:35:04Z</time><pdop>4.0</pdop><geoidheight>54.00</geoidheight><course>241.4</course><type>1</type></trkpt>
      <trkpt lat="40.44835764" lon="-5.27669623"><ele>2048</ele><speed>7.46</speed><time>2016-06-29T10:35:06Z</time><pdop>4.0</pdop><geoidheight>54.00</geoidheight><course>223.9</course><type>1</type></trkpt>
      <trkpt lat="40.44829686" lon="-5.27674537"><ele>2049</ele><speed>7.87</speed><time>2016-06-29T10:35:07Z</time><pdop>3.0</pdop><geoidheight>54.00</geoidheight><course>212.8</course><type>1</type></trkpt>
      <trkpt lat="40.4482219" lon="-5.27677473"><ele>2049</ele><speed>8.57</speed><time>2016-06-29T10:35:08Z</time><pdop>3.0</pdop><geoidheight>54.00</geoidheight><course>203.4</course><type>1</type></trkpt>
      <trkpt lat="40.44813521" lon="-5.2768049"><ele>2050</ele><speed>9.39</speed><time>2016-06-29T10:35:09Z</time><pdop>3.0</pdop><geoidheight>54.00</geoidheight><course>196.9</course><type>1</type></trkpt>
      <trkpt lat="40.44804802" lon="-5.27682774"><ele>2051</ele><speed>10.05</speed><time>2016-06-29T10:35:10Z</time><pdop>3.0</pdop><geoidheight>54.00</geoidheight><course>193.9</course><type>1</type></trkpt>
      <trkpt lat="40.44795857" lon="-5.27684969"><ele>2052</ele><speed>10.33</speed><time>2016-06-29T10:35:11Z</time><pdop>3.0</pdop><geoidheight>54.00</geoidheight><course>192.9</course><type>1</type></trkpt>
      <trkpt lat="40.44786447" lon="-5.27687328"><ele>2053</ele><speed>10.76</speed><time>2016-06-29T10:35:12Z</time><pdop>3.0</pdop><geoidheight>54.00</geoidheight><course>192.0</course><type>1</type></trkpt>
      <trkpt lat="40.44777171" lon="-5.27689497"><ele>2054</ele><speed>10.72</speed><time>2016-06-29T10:35:13Z</time><pdop>3.0</pdop><geoidheight>54.00</geoidheight><course>190.1</course><type>1</type></trkpt>
      <trkpt lat="40.44768529" lon="-5.27691887"><ele>2056</ele><speed>9.70</speed><time>2016-06-29T10:35:14Z</time><pdop>3.0</pdop><geoidheight>54.00</geoidheight><course>189.7</course><type>1</type></trkpt>
      <trkpt lat="40.44760967" lon="-5.27694254"><ele>2057</ele><speed>8.18</speed><time>2016-06-29T10:35:15Z</time><pdop>3.0</pdop><geoidheight>54.00</geoidheight><course>194.6</course><type>1</type></trkpt>
      <trkpt lat="40.44754838" lon="-5.27696453"><ele>2059</ele><speed>6.75</speed><time>2016-06-29T10:35:16Z</time><pdop>3.0</pdop><geoidheight>54.00</geoidheight><course>195.0</course><type>1</type></trkpt>
      <trkpt lat="40.44745368" lon="-5.27698428"><ele>2061</ele><speed>5.42</speed><time>2016-06-29T10:35:18Z</time><pdop>3.0</pdop><geoidheight>54.00</geoidheight><course>183.8</course><type>1</type></trkpt>
      <trkpt lat="40.44735818" lon="-5.27702703"><ele>2062</ele><speed>5.85</speed><time>2016-06-29T10:35:20Z</time><pdop>3.0</pdop><geoidheight>54.00</geoidheight><course>203.5</course><type>1</type></trkpt>
      <trkpt lat="40.44730183" lon="-5.27707704"><ele>2061</ele><speed>7.59</speed><time>2016-06-29T10:35:21Z</time><pdop>3.0</pdop><geoidheight>54.00</geoidheight><course>216.2</course><type>1</type></trkpt>
      <trkpt lat="40.44724818" lon="-5.2771288"><ele>2062</ele><speed>8.56</speed><time>2016-06-29T10:35:22Z</time><pdop>3.0</pdop><geoidheight>54.00</geoidheight><course>215.8</course><type>1</type></trkpt>
      <trkpt lat="40.44717661" lon="-5.27718799"><ele>2063</ele><speed>9.46</speed><time>2016-06-29T10:35:23Z</time><pdop>3.0</pdop><geoidheight>54.00</geoidheight><course>210.9</course><type>1</type></trkpt>
      <trkpt lat="40.44710171" lon="-5.27724497"><ele>2064</ele><speed>9.71</speed><time>2016-06-29T10:35:24Z</time><pdop>3.0</pdop><geoidheight>54.00</geoidheight><course>207.5</course><type>1</type></trkpt>
      <trkpt lat="40.44702488" lon="-5.27729737"><ele>2065</ele><speed>9.63</speed><time>2016-06-29T10:35:25Z</time><pdop>4.0</pdop><geoidheight>54.00</geoidheight><course>207.5</course><type>1</type></trkpt>
      <trkpt lat="40.44695405" lon="-5.27733529"><ele>2068</ele><speed>8.51</speed><time>2016-06-29T10:35:26Z</time><pdop>3.0</pdop><geoidheight>54.00</geoidheight><course>202.8</course><type>1</type></trkpt>
      <trkpt lat="40.44688983" lon="-5.2773654"><ele>2068</ele><speed>7.86</speed><time>2016-06-29T10:35:27Z</time><pdop>4.0</pdop><geoidheight>54.00</geoidheight><course>193.6</course><type>1</type></trkpt>
      <trkpt lat="40.44681171" lon="-5.27737731"><ele>2068</ele><speed>7.86</speed><time>2016-06-29T10:35:28Z</time><pdop>3.0</pdop><geoidheight>54.00</geoidheight><course>188.2</course><type>1</type></trkpt>
      <trkpt lat="40.44673873" lon="-5.27737986"><ele>2069</ele><speed>8.20</speed><time>2016-06-29T10:35:29Z</time><pdop>3.0</pdop><geoidheight>54.00</geoidheight><course>183.4</course><type>1</type></trkpt>
      <trkpt lat="40.44666517" lon="-5.27738555"><ele>2069</ele><speed>8.18</speed><time>2016-06-29T10:35:30Z</time><pdop>4.0</pdop><geoidheight>54.00</geoidheight><course>183.4</course><type>1</type></trkpt>
      <trkpt lat="40.4465973" lon="-5.27737085"><ele>2069</ele><speed>7.77</speed><time>2016-06-29T10:35:31Z</time><pdop>3.0</pdop><geoidheight>54.00</geoidheight><course>178.9</course><type>1</type></trkpt>
      <trkpt lat="40.44647226" lon="-5.27739461"><ele>2071</ele><speed>7.76</speed><time>2016-06-29T10:35:33Z</time><pdop>4.0</pdop><geoidheight>54.00</geoidheight><course>190.8</course><type>1</type></trkpt>
      <trkpt lat="40.4463289" lon="-5.27747725"><ele>2073</ele><speed>9.43</speed><time>2016-06-29T10:35:35Z</time><pdop>4.0</pdop><geoidheight>54.00</geoidheight><course>210.2</course><type>1</type></trkpt>
      <trkpt lat="40.44627447" lon="-5.27755613"><ele>2073</ele><speed>9.18</speed><time>2016-06-29T10:35:36Z</time><pdop>4.0</pdop><geoidheight>54.00</geoidheight><course>223.4</course><type>1</type></trkpt>
      <trkpt lat="40.4462145" lon="-5.2776303"><ele>2074</ele><speed>9.16</speed><time>2016-06-29T10:35:37Z</time><pdop>5.0</pdop><geoidheight>54.00</geoidheight><course>223.4</course><type>1</type></trkpt>
      <trkpt lat="40.44628186" lon="-5.27772571"><ele>2078</ele><speed>5.67</speed><time>2016-06-29T10:35:39Z</time><pdop>4.0</pdop><geoidheight>54.00</geoidheight><course>315.5</course><type>1</type></trkpt>
      <trkpt lat="40.44640455" lon="-5.27775378"><ele>2081</ele><speed>6.51</speed><time>2016-06-29T10:35:41Z</time><pdop>3.0</pdop><geoidheight>54.00</geoidheight><course>357.0</course><type>1</type></trkpt>
      <trkpt lat="40.44653206" lon="-5.27772595"><ele>2085</ele><speed>8.99</speed><time>2016-06-29T10:35:43Z</time><pdop>4.0</pdop><geoidheight>54.00</geoidheight><course>24.5</course><type>1</type></trkpt>
      <trkpt lat="40.44660597" lon="-5.27767487"><ele>2087</ele><speed>10.45</speed><time>2016-06-29T10:35:44Z</time><pdop>4.0</pdop><geoidheight>54.00</geoidheight><course>37.3</course><type>1</type></trkpt>
      <trkpt lat="40.44667512" lon="-5.27756777"><ele>2088</ele><speed>12.35</speed><time>2016-06-29T10:35:45Z</time><pdop>5.0</pdop><geoidheight>54.00</geoidheight><course>57.2</course><type>1</type></trkpt>
      <trkpt lat="40.44672335" lon="-5.2774272"><ele>2090</ele><speed>13.31</speed><time>2016-06-29T10:35:46Z</time><pdop>4.0</pdop><geoidheight>54.00</geoidheight><course>70.0</course><type>1</type></trkpt>
      <trkpt lat="40.44674315" lon="-5.27726001"><ele>2090</ele><speed>13.84</speed><time>2016-06-29T10:35:47Z</time><pdop>5.0</pdop><geoidheight>54.00</geoidheight><course>84.0</course><type>1</type></trkpt>
      <trkpt lat="40.44675613" lon="-5.27709793"><ele>2091</ele><speed>13.82</speed><time>2016-06-29T10:35:48Z</time><pdop>5.0</pdop><geoidheight>54.00</geoidheight><course>84.0</course><type>1</type></trkpt>
      <trkpt lat="40.44671793" lon="-5.27693899"><ele>2092</ele><speed>13.45</speed><time>2016-06-29T10:35:49Z</time><pdop>5.0</pdop><geoidheight>54.00</geoidheight><course>100.8</course><type>1</type></trkpt>
      <trkpt lat="40.44667692" lon="-5.2767806"><ele>2092</ele><speed>13.60</speed><time>2016-06-29T10:35:50Z</time><pdop>6.0</pdop><geoidheight>54.00</geoidheight><course>103.3</course><type>1</type></trkpt>
      <trkpt lat="40.44663925" lon="-5.27662566"><ele>2091</ele><speed>13.55</speed><time>2016-06-29T10:35:51Z</time><pdop>7.0</pdop><geoidheight>54.00</geoidheight><course>105.6</course><type>1</type></trkpt>
      <trkpt lat="40.4465821" lon="-5.27648587"><ele>2091</ele><speed>13.04</speed><time>2016-06-29T10:35:52Z</time><pdop>6.0</pdop><geoidheight>54.00</geoidheight><course>113.6</course><type>1</type></trkpt>
      <trkpt lat="40.44653066" lon="-5.2763492"><ele>2092</ele><speed>13.29</speed><time>2016-06-29T10:35:53Z</time><pdop>6.0</pdop><geoidheight>54.00</geoidheight><course>119.9</course><type>1</type></trkpt>
      <trkpt lat="40.44647102" lon="-5.27621332"><ele>2093</ele><speed>13.29</speed><time>2016-06-29T10:35:54Z</time><pdop>7.0</pdop><geoidheight>54.00</geoidheight><course>119.9</course><type>1</type></trkpt>
      <trkpt lat="40.44629881" lon="-5.27605906"><ele>2093</ele><speed>12.79</speed><time>2016-06-29T10:35:56Z</time><pdop>8.0</pdop><geoidheight>54.00</geoidheight><course>143.0</course><type>1</type></trkpt>
      <trkpt lat="40.44609738" lon="-5.27590607"><ele>2097</ele><speed>11.83</speed><time>2016-06-29T10:35:58Z</time><pdop>6.0</pdop><geoidheight>54.00</geoidheight><course>156.8</course><type>1</type></trkpt>
      <trkpt lat="40.44591819" lon="-5.27588479"><ele>2100</ele><speed>8.49</speed><time>2016-06-29T10:36:00Z</time><pdop>5.0</pdop><geoidheight>54.00</geoidheight><course>185.8</course><type>1</type></trkpt>
      <trkpt lat="40.44578643" lon="-5.2759532"><ele>2100</ele><speed>7.88</speed><time>2016-06-29T10:36:02Z</time><pdop>5.0</pdop><geoidheight>54.00</geoidheight><course>210.4</course><type>1</type></trkpt>
      <trkpt lat="40.44568929" lon="-5.27606266"><ele>2103</ele><speed>8.31</speed><time>2016-06-29T10:36:04Z</time><pdop>4.0</pdop><geoidheight>54.00</geoidheight><course>228.0</course><type>1</type></trkpt>
      <trkpt lat="40.44561906" lon="-5.27621625"><ele>2105</ele><speed>8.02</speed><time>2016-06-29T10:36:06Z</time><pdop>6.0</pdop><geoidheight>54.00</geoidheight><course>251.1</course><type>1</type></trkpt>
      <trkpt lat="40.44559359" lon="-5.27638964"><ele>2106</ele><speed>7.57</speed><time>2016-06-29T10:36:08Z</time><pdop>5.0</pdop><geoidheight>54.00</geoidheight><course>261.8</course><type>1</type></trkpt>
      <trkpt lat="40.4456101" lon="-5.27654346"><ele>2108</ele><speed>7.15</speed><time>2016-06-29T10:36:10Z</time><pdop>5.0</pdop><geoidheight>54.00</geoidheight><course>282.7</course><type>1</type></trkpt>
      <trkpt lat="40.44567445" lon="-5.27665893"><ele>2106</ele><speed>6.68</speed><time>2016-06-29T10:36:12Z</time><pdop>6.0</pdop><geoidheight>54.00</geoidheight><course>310.4</course><type>1</type></trkpt>
      <trkpt lat="40.4458458" lon="-5.27660918"><ele>2107</ele><speed>10.26</speed><time>2016-06-29T10:36:14Z</time><pdop>5.0</pdop><geoidheight>54.00</geoidheight><course>20.7</course><type>1</type></trkpt>
      <trkpt lat="40.44592917" lon="-5.27653712"><ele>2105</ele><speed>11.53</speed><time>2016-06-29T10:36:15Z</time><pdop>5.0</pdop><geoidheight>54.00</geoidheight><course>38.1</course><type>1</type></trkpt>
      <trkpt lat="40.44600398" lon="-5.27642958"><ele>2102</ele><speed>12.31</speed><time>2016-06-29T10:36:16Z</time><pdop>6.0</pdop><geoidheight>54.00</geoidheight><course>48.7</course><type>1</type></trkpt>
      <trkpt lat="40.44606022" lon="-5.27630806"><ele>2100</ele><speed>12.90</speed><time>2016-06-29T10:36:17Z</time><pdop>5.0</pdop><geoidheight>54.00</geoidheight><course>59.4</course><type>1</type></trkpt>
      <trkpt lat="40.44611902" lon="-5.276178"><ele>2099</ele><speed>12.84</speed><time>2016-06-29T10:36:18Z</time><pdop>6.0</pdop><geoidheight>54.00</geoidheight><course>59.4</course><type>1</type></trkpt>
      <trkpt lat="40.44614848" lon="-5.2760213"><ele>2098</ele><speed>14.53</speed><time>2016-06-29T10:36:19Z</time><pdop>5.0</pdop><geoidheight>54.00</geoidheight><course>76.0</course><type>1</type></trkpt>
      <trkpt lat="40.4461711" lon="-5.2758482"><ele>2098</ele><speed>14.89</speed><time>2016-06-29T10:36:20Z</time><pdop>4.0</pdop><geoidheight>54.00</geoidheight><course>83.8</course><type>1</type></trkpt>
      <trkpt lat="40.44618563" lon="-5.27567382"><ele>2099</ele><speed>14.88</speed><time>2016-06-29T10:36:21Z</time><pdop>5.0</pdop><geoidheight>54.00</geoidheight><course>83.8</course><type>1</type></trkpt>
      <trkpt lat="40.44614555" lon="-5.2755231"><ele>2102</ele><speed>13.75</speed><time>2016-06-29T10:36:22Z</time><pdop>5.0</pdop><geoidheight>54.00</geoidheight><course>103.0</course><type>1</type></trkpt>
      <trkpt lat="40.44611745" lon="-5.27537357"><ele>2103</ele><speed>13.13</speed><time>2016-06-29T10:36:23Z</time><pdop>5.0</pdop><geoidheight>54.00</geoidheight><course>105.2</course><type>1</type></trkpt>
      <trkpt lat="40.44606306" lon="-5.27524433"><ele>2105</ele><speed>12.92</speed><time>2016-06-29T10:36:24Z</time><pdop>5.0</pdop><geoidheight>54.00</geoidheight><course>116.2</course><type>1</type></trkpt>
      <trkpt lat="40.44601184" lon="-5.27510771"><ele>2106</ele><speed>12.91</speed><time>2016-06-29T10:36:25Z</time><pdop>7.0</pdop><geoidheight>54.00</geoidheight><course>116.1</course><type>1</type></trkpt>
      <trkpt lat="40.44591322" lon="-5.27503552"><ele>2103</ele><speed>13.87</speed><time>2016-06-29T10:36:26Z</time><pdop>5.0</pdop><geoidheight>54.00</geoidheight><course>143.5</course><type>1</type></trkpt>
      <trkpt lat="40.44580218" lon="-5.27496244"><ele>2102</ele><speed>13.78</speed><time>2016-06-29T10:36:27Z</time><pdop>5.0</pdop><geoidheight>54.00</geoidheight><course>159.0</course><type>1</type></trkpt>
      <trkpt lat="40.44567" lon="-5.27493733"><ele>2101</ele><speed>13.86</speed><time>2016-06-29T10:36:28Z</time><pdop>5.0</pdop><geoidheight>54.00</geoidheight><course>173.8</course><type>1</type></trkpt>
      <trkpt lat="40.44554268" lon="-5.27494693"><ele>2101</ele><speed>14.22</speed><time>2016-06-29T10:36:29Z</time><pdop>4.0</pdop><geoidheight>54.00</geoidheight><course>187.2</course><type>1</type></trkpt>
      <trkpt lat="40.4454395" lon="-5.27497632"><ele>2104</ele><speed>12.95</speed><time>2016-06-29T10:36:30Z</time><pdop>4.0</pdop><geoidheight>54.00</geoidheight><course>198.7</course><type>1</type></trkpt>
      <trkpt lat="40.44533955" lon="-5.27503248"><ele>2106</ele><speed>11.56</speed><time>2016-06-29T10:36:31Z</time><pdop>4.0</pdop><geoidheight>54.00</geoidheight><course>204.5</course><type>1</type></trkpt>
      <trkpt lat="40.44522047" lon="-5.27510703"><ele>2112</ele><speed>8.27</speed><time>2016-06-29T10:36:33Z</time><pdop>5.0</pdop><geoidheight>54.00</geoidheight><course>206.1</course><type>1</type></trkpt>
      <trkpt lat="40.44509659" lon="-5.27516471"><ele>2115</ele><speed>8.44</speed><time>2016-06-29T10:36:35Z</time><pdop>4.0</pdop><geoidheight>54.00</geoidheight><course>196.9</course><type>1</type></trkpt>
      <trkpt lat="40.44501079" lon="-5.2751979"><ele>2117</ele><speed>9.34</speed><time>2016-06-29T10:36:36Z</time><pdop>4.0</pdop><geoidheight>54.00</geoidheight><course>193.9</course><type>1</type></trkpt>
      <trkpt lat="40.44492882" lon="-5.27522092"><ele>2118</ele><speed>9.89</speed><time>2016-06-29T10:36:37Z</time><pdop>5.0</pdop><geoidheight>54.00</geoidheight><course>191.6</course><type>1</type></trkpt>
      <trkpt lat="40.44476068" lon="-5.27525884"><ele>2123</ele><speed>10.09</speed><time>2016-06-29T10:36:39Z</time><pdop>5.0</pdop><geoidheight>54.00</geoidheight><course>195.1</course><type>1</type></trkpt>
      <trkpt lat="40.44462939" lon="-5.27534273"><ele>2126</ele><speed>8.25</speed><time>2016-06-29T10:36:41Z</time><pdop>5.0</pdop><geoidheight>54.00</geoidheight><course>215.9</course><type>1</type></trkpt>
      <trkpt lat="40.44458219" lon="-5.27546037"><ele>2120</ele><speed>5.22</speed><time>2016-06-29T10:36:43Z</time><pdop>4.0</pdop><geoidheight>54.00</geoidheight><course>266.0</course><type>1</type></trkpt>
      <trkpt lat="40.44465352" lon="-5.27552079"><ele>2124</ele><speed>7.47</speed><time>2016-06-29T10:36:45Z</time><pdop>4.0</pdop><geoidheight>54.00</geoidheight><course>0.4</course><type>1</type></trkpt>
      <trkpt lat="40.44472799" lon="-5.27549172"><ele>2125</ele><speed>10.60</speed><time>2016-06-29T10:36:46Z</time><pdop>4.0</pdop><geoidheight>54.00</geoidheight><course>27.2</course><type>1</type></trkpt>
      <trkpt lat="40.44480286" lon="-5.27538934"><ele>2125</ele><speed>12.66</speed><time>2016-06-29T10:36:47Z</time><pdop>4.0</pdop><geoidheight>54.00</geoidheight><course>50.2</course><type>1</type></trkpt>
      <trkpt lat="40.44487387" lon="-5.27525566"><ele>2126</ele><speed>13.60</speed><time>2016-06-29T10:36:48Z</time><pdop>4.0</pdop><geoidheight>54.00</geoidheight><course>58.9</course><type>1</type></trkpt>
      <trkpt lat="40.44490587" lon="-5.27509165"><ele>2127</ele><speed>14.34</speed><time>2016-06-29T10:36:49Z</time><pdop>3.0</pdop><geoidheight>54.00</geoidheight><course>74.8</course><type>1</type></trkpt>
      <trkpt lat="40.44490938" lon="-5.27491854"><ele>2126</ele><speed>15.85</speed><time>2016-06-29T10:36:50Z</time><pdop>3.0</pdop><geoidheight>54.00</geoidheight><course>89.7</course><type>1</type></trkpt>
      <trkpt lat="40.44485519" lon="-5.27474864"><ele>2124</ele><speed>16.11</speed><time>2016-06-29T10:36:51Z</time><pdop>3.0</pdop><geoidheight>54.00</geoidheight><course>110.0</course><type>1</type></trkpt>
      <trkpt lat="40.4448056" lon="-5.27457028"><ele>2124</ele><speed>16.10</speed><time>2016-06-29T10:36:52Z</time><pdop>4.0</pdop><geoidheight>54.00</geoidheight><course>110.0</course><type>1</type></trkpt>
      <trkpt lat="40.4447062" lon="-5.2744367"><ele>2124</ele><speed>15.71</speed><time>2016-06-29T10:36:53Z</time><pdop>4.0</pdop><geoidheight>54.00</geoidheight><course>126.7</course><type>1</type></trkpt>
      <trkpt lat="40.44460405" lon="-5.27440244"><ele>2123</ele><speed>12.80</speed><time>2016-06-29T10:36:54Z</time><pdop>4.0</pdop><geoidheight>54.00</geoidheight><course>158.1</course><type>1</type></trkpt>
      <trkpt lat="40.44449725" lon="-5.27434614"><ele>2124</ele><speed>12.78</speed><time>2016-06-29T10:36:55Z</time><pdop>5.0</pdop><geoidheight>54.00</geoidheight><course>158.1</course><type>1</type></trkpt>
      <trkpt lat="40.4444136" lon="-5.27440889"><ele>2126</ele><speed>10.79</speed><time>2016-06-29T10:36:56Z</time><pdop>3.0</pdop><geoidheight>54.00</geoidheight><course>197.6</course><type>1</type></trkpt>
      <trkpt lat="40.44432244" lon="-5.27445493"><ele>2127</ele><speed>10.39</speed><time>2016-06-29T10:36:57Z</time><pdop>4.0</pdop><geoidheight>54.00</geoidheight><course>206.2</course><type>1</type></trkpt>
      <trkpt lat="40.44425342" lon="-5.27449317"><ele>2127</ele><speed>8.25</speed><time>2016-06-29T10:36:58Z</time><pdop>4.0</pdop><geoidheight>54.00</geoidheight><course>202.7</course><type>1</type></trkpt>
      <trkpt lat="40.44410866" lon="-5.27453817"><ele>2129</ele><speed>7.74</speed><time>2016-06-29T10:37:00Z</time><pdop>4.0</pdop><geoidheight>54.00</geoidheight><course>193.0</course><type>1</type></trkpt>
      <trkpt lat="40.44397682" lon="-5.27459135"><ele>2045</ele><speed>7.46</speed><time>2016-06-29T10:37:02Z</time><pdop>5.0</pdop><geoidheight>54.00</geoidheight><course>199.6</course><type>1</type></trkpt>
      <trkpt lat="40.44389365" lon="-5.2747313"><ele>2096</ele><speed>6.97</speed><time>2016-06-29T10:37:04Z</time><pdop>3.0</pdop><geoidheight>54.00</geoidheight><course>230.6</course><type>1</type></trkpt>
      <trkpt lat="40.44385827" lon="-5.27479777"><ele>2106</ele><speed>6.32</speed><time>2016-06-29T10:37:05Z</time><pdop>3.0</pdop><geoidheight>54.00</geoidheight><course>235.6</course><type>1</type></trkpt>
      <trkpt lat="40.44381159" lon="-5.27492311"><ele>2116</ele><speed>5.30</speed><time>2016-06-29T10:37:07Z</time><pdop>3.0</pdop><geoidheight>54.00</geoidheight><course>247.4</course><type>1</type></trkpt>
      <trkpt lat="40.44384789" lon="-5.27502691"><ele>2119</ele><speed>3.80</speed><time>2016-06-29T10:37:10Z</time><pdop>4.0</pdop><geoidheight>54.00</geoidheight><course>290.9</course><type>1</type></trkpt>
      <trkpt lat="40.44384537" lon="-5.27514588"><ele>2122</ele><speed>4.59</speed><time>2016-06-29T10:37:12Z</time><pdop>5.0</pdop><geoidheight>54.00</geoidheight><course>243.3</course><type>1</type></trkpt>
      <trkpt lat="40.44380877" lon="-5.27524346"><ele>2131</ele><speed>1.36</speed><time>2016-06-29T10:37:16Z</time><pdop>4.0</pdop><geoidheight>54.00</geoidheight><course>241.3</course><type>1</type></trkpt>
      <trkpt lat="40.44385903" lon="-5.27543721"><ele>2130</ele><speed>7.70</speed><time>2016-06-29T10:37:19Z</time><pdop>6.0</pdop><geoidheight>54.00</geoidheight><course>287.8</course><type>1</type></trkpt>
      <trkpt lat="40.44392436" lon="-5.27560885"><ele>2130</ele><speed>9.34</speed><time>2016-06-29T10:37:21Z</time><pdop>7.0</pdop><geoidheight>54.00</geoidheight><course>298.2</course><type>1</type></trkpt>
      <trkpt lat="40.44396053" lon="-5.27579205"><ele>2133</ele><speed>6.73</speed><time>2016-06-29T10:37:23Z</time><pdop>5.0</pdop><geoidheight>54.00</geoidheight><course>275.9</course><type>1</type></trkpt>
      <trkpt lat="40.44395162" lon="-5.27591897"><ele>2135</ele><speed>5.48</speed><time>2016-06-29T10:37:25Z</time><pdop>5.0</pdop><geoidheight>54.00</geoidheight><course>275.3</course><type>1</type></trkpt>
      <trkpt lat="40.44395896" lon="-5.27604941"><ele>2136</ele><speed>5.44</speed><time>2016-06-29T10:37:27Z</time><pdop>6.0</pdop><geoidheight>54.00</geoidheight><course>277.9</course><type>1</type></trkpt>
      <trkpt lat="40.44394363" lon="-5.27619825"><ele>2137</ele><speed>5.57</speed><time>2016-06-29T10:37:29Z</time><pdop>6.0</pdop><geoidheight>54.00</geoidheight><course>268.7</course><type>1</type></trkpt>
      <trkpt lat="40.44388683" lon="-5.27635091"><ele>2136</ele><speed>4.53</speed><time>2016-06-29T10:37:32Z</time><pdop>5.0</pdop><geoidheight>54.00</geoidheight><course>251.6</course><type>1</type></trkpt>
      <trkpt lat="40.44389817" lon="-5.27648862"><ele>2135</ele><speed>6.13</speed><time>2016-06-29T10:37:34Z</time><pdop>5.0</pdop><geoidheight>54.00</geoidheight><course>272.0</course><type>1</type></trkpt>
      <trkpt lat="40.4438924" lon="-5.27661402"><ele>2132</ele><speed>6.32</speed><time>2016-06-29T10:37:36Z</time><pdop>5.0</pdop><geoidheight>54.00</geoidheight><course>270.8</course><type>1</type></trkpt>
      <trkpt lat="40.44385606" lon="-5.27682391"><ele>2128</ele><speed>8.54</speed><time>2016-06-29T10:37:38Z</time><pdop>4.0</pdop><geoidheight>54.00</geoidheight><course>253.5</course><type>1</type></trkpt>
      <trkpt lat="40.44378441" lon="-5.27698368"><ele>2129</ele><speed>8.01</speed><time>2016-06-29T10:37:40Z</time><pdop>4.0</pdop><geoidheight>54.00</geoidheight><course>237.0</course><type>1</type></trkpt>
      <trkpt lat="40.44370611" lon="-5.27713513"><ele>2128</ele><speed>7.34</speed><time>2016-06-29T10:37:42Z</time><pdop>7.0</pdop><geoidheight>54.00</geoidheight><course>233.9</course><type>1</type></trkpt>
      <trkpt lat="40.4436139" lon="-5.27729695"><ele>2126</ele><speed>6.26</speed><time>2016-06-29T10:37:45Z</time><pdop>9.0</pdop><geoidheight>54.00</geoidheight><course>240.2</course><type>1</type></trkpt>
      <trkpt lat="40.4435687" lon="-5.27749503"><ele>2125</ele><speed>8.25</speed><time>2016-06-29T10:37:47Z</time><pdop>8.0</pdop><geoidheight>54.00</geoidheight><course>255.2</course><type>1</type></trkpt>
      <trkpt lat="40.44350924" lon="-5.27771539"><ele>2126</ele><speed>4.95</speed><time>2016-06-29T10:37:50Z</time><pdop>6.0</pdop><geoidheight>54.00</geoidheight><course>249.2</course><type>1</type></trkpt>
      <trkpt lat="40.44346451" lon="-5.27785215"><ele>2127</ele><speed>4.08</speed><time>2016-06-29T10:37:53Z</time><pdop>4.0</pdop><geoidheight>54.00</geoidheight><course>236.6</course><type>1</type></trkpt>
      <trkpt lat="40.44339119" lon="-5.27799957"><ele>2126</ele><speed>7.17</speed><time>2016-06-29T10:37:55Z</time><pdop>4.0</pdop><geoidheight>54.00</geoidheight><course>237.1</course><type>1</type></trkpt>
      <trkpt lat="40.44332263" lon="-5.27816298"><ele>2128</ele><speed>8.76</speed><time>2016-06-29T10:37:57Z</time><pdop>4.0</pdop><geoidheight>54.00</geoidheight><course>235.0</course><type>1</type></trkpt>
      <trkpt lat="40.44327224" lon="-5.2783072"><ele>2130</ele><speed>6.13</speed><time>2016-06-29T10:37:59Z</time><pdop>3.0</pdop><geoidheight>54.00</geoidheight><course>250.6</course><type>1</type></trkpt>
      <trkpt lat="40.44326081" lon="-5.27841753"><ele>2130</ele><speed>5.50</speed><time>2016-06-29T10:38:01Z</time><pdop>4.0</pdop><geoidheight>54.00</geoidheight><course>258.2</course><type>1</type></trkpt>
      <trkpt lat="40.44321538" lon="-5.27859227"><ele>2128</ele><speed>7.63</speed><time>2016-06-29T10:38:03Z</time><pdop>4.0</pdop><geoidheight>54.00</geoidheight><course>248.8</course><type>1</type></trkpt>
      <trkpt lat="40.44318789" lon="-5.27876422"><ele>2128</ele><speed>7.55</speed><time>2016-06-29T10:38:05Z</time><pdop>4.0</pdop><geoidheight>54.00</geoidheight><course>260.9</course><type>1</type></trkpt>
      <trkpt lat="40.4431889" lon="-5.27890376"><ele>2127</ele><speed>5.61</speed><time>2016-06-29T10:38:07Z</time><pdop>4.0</pdop><geoidheight>54.00</geoidheight><course>274.3</course><type>1</type></trkpt>
      <trkpt lat="40.44317079" lon="-5.2790484"><ele>2125</ele><speed>5.05</speed><time>2016-06-29T10:38:09Z</time><pdop>3.0</pdop><geoidheight>54.00</geoidheight><course>262.7</course><type>1</type></trkpt>
      <trkpt lat="40.443178" lon="-5.27914211"><ele>2128</ele><speed>3.83</speed><time>2016-06-29T10:38:11Z</time><pdop>3.0</pdop><geoidheight>54.00</geoidheight><course>275.0</course><type>1</type></trkpt>
      <trkpt lat="40.44319026" lon="-5.27921137"><ele>2129</ele><speed>2.74</speed><time>2016-06-29T10:38:13Z</time><pdop>3.0</pdop><geoidheight>54.00</geoidheight><course>290.9</course><type>1</type></trkpt>
      <trkpt lat="40.4433086" lon="-5.2790784"><ele>2133</ele><speed>8.48</speed><time>2016-06-29T10:38:15Z</time><pdop>3.0</pdop><geoidheight>54.00</geoidheight><course>42.6</course><type>1</type></trkpt>
      <trkpt lat="40.44337563" lon="-5.27896607"><ele>2134</ele><speed>11.37</speed><time>2016-06-29T10:38:16Z</time><pdop>3.0</pdop><geoidheight>54.00</geoidheight><course>54.3</course><type>1</type></trkpt>
      <trkpt lat="40.44343462" lon="-5.27883713"><ele>2136</ele><speed>12.82</speed><time>2016-06-29T10:38:17Z</time><pdop>3.0</pdop><geoidheight>54.00</geoidheight><course>59.5</course><type>1</type></trkpt>
      <trkpt lat="40.44350077" lon="-5.2787172"><ele>2034</ele><speed>12.14</speed><time>2016-06-29T10:38:18Z</time><pdop>3.0</pdop><geoidheight>54.00</geoidheight><course>55.9</course><type>1</type></trkpt>
      <trkpt lat="40.44356811" lon="-5.27862289"><ele>2067</ele><speed>11.23</speed><time>2016-06-29T10:38:19Z</time><pdop>4.0</pdop><geoidheight>54.00</geoidheight><course>52.0</course><type>1</type></trkpt>
      <trkpt lat="40.44363936" lon="-5.27856079"><ele>2094</ele><speed>9.90</speed><time>2016-06-29T10:38:20Z</time><pdop>3.0</pdop><geoidheight>54.00</geoidheight><course>38.2</course><type>1</type></trkpt>
      <trkpt lat="40.44371023" lon="-5.27851437"><ele>2107</ele><speed>8.67</speed><time>2016-06-29T10:38:21Z</time><pdop>3.0</pdop><geoidheight>54.00</geoidheight><course>32.2</course><type>1</type></trkpt>
      <trkpt lat="40.44377779" lon="-5.27846903"><ele>2116</ele><speed>8.62</speed><time>2016-06-29T10:38:22Z</time><pdop>4.0</pdop><geoidheight>54.00</geoidheight><course>29.7</course><type>1</type></trkpt>
      <trkpt lat="40.4438627" lon="-5.27846614"><ele>2124</ele><speed>5.00</speed><time>2016-06-29T10:38:24Z</time><pdop>4.0</pdop><geoidheight>54.00</geoidheight><course>8.9</course><type>1</type></trkpt>
      <trkpt lat="40.44394585" lon="-5.27850496"><ele>2071</ele><speed>4.21</speed><time>2016-06-29T10:38:26Z</time><pdop>4.0</pdop><geoidheight>54.00</geoidheight><course>345.4</course><type>1</type></trkpt>
      <trkpt lat="40.44404825" lon="-5.27855526"><ele>2117</ele><speed>4.61</speed><time>2016-06-29T10:38:29Z</time><pdop>4.0</pdop><geoidheight>54.00</geoidheight><course>341.4</course><type>1</type></trkpt>
      <trkpt lat="40.44416319" lon="-5.27858087"><ele>2128</ele><speed>6.11</speed><time>2016-06-29T10:38:31Z</time><pdop>4.0</pdop><geoidheight>54.00</geoidheight><course>354.6</course><type>1</type></trkpt>
      <trkpt lat="40.44428312" lon="-5.27859911"><ele>2144</ele><speed>6.70</speed><time>2016-06-29T10:38:33Z</time><pdop>4.0</pdop><geoidheight>54.00</geoidheight><course>356.4</course><type>1</type></trkpt>
      <trkpt lat="40.44435668" lon="-5.27859601"><ele>2150</ele><speed>7.54</speed><time>2016-06-29T10:38:34Z</time><pdop>4.0</pdop><geoidheight>54.00</geoidheight><course>357.8</course><type>1</type></trkpt>
      <trkpt lat="40.44447637" lon="-5.2785828"><ele>2155</ele><speed>6.00</speed><time>2016-06-29T10:38:36Z</time><pdop>4.0</pdop><geoidheight>54.00</geoidheight><course>1.3</course><type>1</type></trkpt>
      <trkpt lat="40.44451152" lon="-5.27869781"><ele>2156</ele><speed>4.20</speed><time>2016-06-29T10:38:39Z</time><pdop>4.0</pdop><geoidheight>54.00</geoidheight><course>262.9</course><type>1</type></trkpt>
      <trkpt lat="40.44440993" lon="-5.2788137"><ele>2161</ele><speed>8.60</speed><time>2016-06-29T10:38:41Z</time><pdop>4.0</pdop><geoidheight>54.00</geoidheight><course>206.4</course><type>1</type></trkpt>
      <trkpt lat="40.4443358" lon="-5.27886325"><ele>2162</ele><speed>8.85</speed><time>2016-06-29T10:38:42Z</time><pdop>5.0</pdop><geoidheight>54.00</geoidheight><course>202.7</course><type>1</type></trkpt>
      <trkpt lat="40.44415603" lon="-5.2788744"><ele>2165</ele><speed>9.09</speed><time>2016-06-29T10:38:44Z</time><pdop>7.0</pdop><geoidheight>54.00</geoidheight><course>187.2</course><type>1</type></trkpt>
      <trkpt lat="40.44400696" lon="-5.278793"><ele>2165</ele><speed>11.44</speed><time>2016-06-29T10:38:45Z</time><pdop>8.0</pdop><geoidheight>54.00</geoidheight><course>167.9</course><type>1</type></trkpt>
      <trkpt lat="40.44390243" lon="-5.27853955"><ele>2149</ele><speed>9.41</speed><time>2016-06-29T10:38:47Z</time><pdop>10.0</pdop><geoidheight>54.00</geoidheight><course>130.8</course><type>1</type></trkpt>
      <trkpt lat="40.44388508" lon="-5.27828333"><ele>2157</ele><speed>12.24</speed><time>2016-06-29T10:38:48Z</time><pdop>9.0</pdop><geoidheight>54.00</geoidheight><course>110.4</course><type>1</type></trkpt>
      <trkpt lat="40.44389425" lon="-5.27803911"><ele>2160</ele><speed>13.63</speed><time>2016-06-29T10:38:49Z</time><pdop>9.0</pdop><geoidheight>54.00</geoidheight><course>96.9</course><type>1</type></trkpt>
      <trkpt lat="40.44394041" lon="-5.27778785"><ele>2164</ele><speed>15.16</speed><time>2016-06-29T10:38:50Z</time><pdop>9.0</pdop><geoidheight>54.00</geoidheight><course>85.1</course><type>1</type></trkpt>
      <trkpt lat="40.44403385" lon="-5.2775281"><ele>2171</ele><speed>12.03</speed><time>2016-06-29T10:38:52Z</time><pdop>8.0</pdop><geoidheight>54.00</geoidheight><course>77.0</course><type>1</type></trkpt>
      <trkpt lat="40.44418907" lon="-5.27747976"><ele>2176</ele><speed>6.24</speed><time>2016-06-29T10:38:54Z</time><pdop>9.0</pdop><geoidheight>54.00</geoidheight><course>41.3</course><type>1</type></trkpt>
      <trkpt lat="40.444329" lon="-5.27765847"><ele>2182</ele><speed>4.31</speed><time>2016-06-29T10:38:58Z</time><pdop>7.0</pdop><geoidheight>54.00</geoidheight><course>289.7</course><type>1</type></trkpt>
      <trkpt lat="40.44437775" lon="-5.27781313"><ele>2187</ele><speed>4.99</speed><time>2016-06-29T10:39:00Z</time><pdop>6.0</pdop><geoidheight>54.00</geoidheight><course>276.9</course><type>1</type></trkpt>
      <trkpt lat="40.44443532" lon="-5.27798479"><ele>2191</ele><speed>4.48</speed><time>2016-06-29T10:39:03Z</time><pdop>5.0</pdop><geoidheight>54.00</geoidheight><course>264.0</course><type>1</type></trkpt>
      <trkpt lat="40.44443409" lon="-5.27815516"><ele>2194</ele><speed>5.08</speed><time>2016-06-29T10:39:06Z</time><pdop>5.0</pdop><geoidheight>54.00</geoidheight><course>251.0</course><type>1</type></trkpt>
      <trkpt lat="40.44435869" lon="-5.27824898"><ele>2199</ele><speed>6.27</speed><time>2016-06-29T10:39:08Z</time><pdop>5.0</pdop><geoidheight>54.00</geoidheight><course>219.5</course><type>1</type></trkpt>
      <trkpt lat="40.44424062" lon="-5.27833067"><ele>2199</ele><speed>6.62</speed><time>2016-06-29T10:39:10Z</time><pdop>5.0</pdop><geoidheight>54.00</geoidheight><course>203.0</course><type>1</type></trkpt>
      <trkpt lat="40.44412683" lon="-5.27838361"><ele>2203</ele><speed>7.16</speed><time>2016-06-29T10:39:12Z</time><pdop>5.0</pdop><geoidheight>54.00</geoidheight><course>187.9</course><type>1</type></trkpt>
      <trkpt lat="40.44400604" lon="-5.2783662"><ele>2209</ele><speed>7.81</speed><time>2016-06-29T10:39:14Z</time><pdop>4.0</pdop><geoidheight>54.00</geoidheight><course>172.6</course><type>1</type></trkpt>
      <trkpt lat="40.44388264" lon="-5.27826058"><ele>2215</ele><speed>9.22</speed><time>2016-06-29T10:39:16Z</time><pdop>3.0</pdop><geoidheight>54.00</geoidheight><course>144.8</course><type>1</type></trkpt>
      <trkpt lat="40.44380556" lon="-5.27818019"><ele>2216</ele><speed>9.89</speed><time>2016-06-29T10:39:17Z</time><pdop>4.0</pdop><geoidheight>54.00</geoidheight><course>138.8</course><type>1</type></trkpt>
      <trkpt lat="40.44372561" lon="-5.27806874"><ele>2218</ele><speed>11.58</speed><time>2016-06-29T10:39:18Z</time><pdop>5.0</pdop><geoidheight>54.00</geoidheight><course>136.4</course><type>1</type></trkpt>
      <trkpt lat="40.44366068" lon="-5.27795661"><ele>2218</ele><speed>11.99</speed><time>2016-06-29T10:39:19Z</time><pdop>6.0</pdop><geoidheight>54.00</geoidheight><course>133.2</course><type>1</type></trkpt>
      <trkpt lat="40.44365306" lon="-5.27778834"><ele>2220</ele><speed>11.69</speed><time>2016-06-29T10:39:20Z</time><pdop>7.0</pdop><geoidheight>54.00</geoidheight><course>118.5</course><type>1</type></trkpt>
      <trkpt lat="40.44368308" lon="-5.27754825"><ele>2189</ele><speed>13.62</speed><time>2016-06-29T10:39:21Z</time><pdop>7.0</pdop><geoidheight>54.00</geoidheight><course>100.1</course><type>1</type></trkpt>
      <trkpt lat="40.44372584" lon="-5.27735394"><ele>2196</ele><speed>14.09</speed><time>2016-06-29T10:39:22Z</time><pdop>7.0</pdop><geoidheight>54.00</geoidheight><course>90.4</course><type>1</type></trkpt>
      <trkpt lat="40.44383549" lon="-5.2771562"><ele>2206</ele><speed>14.22</speed><time>2016-06-29T10:39:23Z</time><pdop>5.0</pdop><geoidheight>54.00</geoidheight><course>69.5</course><type>1</type></trkpt>
      <trkpt lat="40.44393193" lon="-5.27698381"><ele>2213</ele><speed>14.12</speed><time>2016-06-29T10:39:24Z</time><pdop>4.0</pdop><geoidheight>54.00</geoidheight><course>57.3</course><type>1</type></trkpt>
      <trkpt lat="40.44401705" lon="-5.27685929"><ele>2218</ele><speed>12.75</speed><time>2016-06-29T10:39:25Z</time><pdop>4.0</pdop><geoidheight>54.00</geoidheight><course>43.8</course><type>1</type></trkpt>
      <trkpt lat="40.44410579" lon="-5.27676932"><ele>2221</ele><speed>11.23</speed><time>2016-06-29T10:39:26Z</time><pdop>4.0</pdop><geoidheight>54.00</geoidheight><course>37.9</course><type>1</type></trkpt>
      <trkpt lat="40.44418386" lon="-5.27671854"><ele>2223</ele><speed>10.16</speed><time>2016-06-29T10:39:27Z</time><pdop>4.0</pdop><geoidheight>54.00</geoidheight><course>31.7</course><type>1</type></trkpt>
      <trkpt lat="40.4442913" lon="-5.27665884"><ele>2225</ele><speed>6.36</speed><time>2016-06-29T10:39:29Z</time><pdop>6.0</pdop><geoidheight>54.00</geoidheight><course>31.0</course><type>1</type></trkpt>
      <trkpt lat="40.44425522" lon="-5.27688115"><ele>2226</ele><speed>4.85</speed><time>2016-06-29T10:39:32Z</time><pdop>5.0</pdop><geoidheight>54.00</geoidheight><course>225.0</course><type>1</type></trkpt>
      <trkpt lat="40.44420557" lon="-5.27696728"><ele>2227</ele><speed>4.82</speed><time>2016-06-29T10:39:33Z</time><pdop>4.0</pdop><geoidheight>54.00</geoidheight><course>210.0</course><type>1</type></trkpt>
      <trkpt lat="40.44408459" lon="-5.27703665"><ele>2228</ele><speed>7.13</speed><time>2016-06-29T10:39:35Z</time><pdop>3.0</pdop><geoidheight>54.00</geoidheight><course>184.7</course><type>1</type></trkpt>
      <trkpt lat="40.44401351" lon="-5.27703994"><ele>2228</ele><speed>7.39</speed><time>2016-06-29T10:39:36Z</time><pdop>3.0</pdop><geoidheight>54.00</geoidheight><course>181.0</course><type>1</type></trkpt>
      <trkpt lat="40.44392907" lon="-5.27705632"><ele>2229</ele><speed>8.57</speed><time>2016-06-29T10:39:37Z</time><pdop>3.0</pdop><geoidheight>54.00</geoidheight><course>182.2</course><type>1</type></trkpt>
      <trkpt lat="40.44387102" lon="-5.27705275"><ele>2231</ele><speed>8.01</speed><time>2016-06-29T10:39:38Z</time><pdop>3.0</pdop><geoidheight>54.00</geoidheight><course>181.6</course><type>1</type></trkpt>
      <trkpt lat="40.44376837" lon="-5.27704017"><ele>2233</ele><speed>6.58</speed><time>2016-06-29T10:39:40Z</time><pdop>3.0</pdop><geoidheight>54.00</geoidheight><course>175.1</course><type>1</type></trkpt>
      <trkpt lat="40.443707" lon="-5.27702978"><ele>2233</ele><speed>6.86</speed><time>2016-06-29T10:39:41Z</time><pdop>3.0</pdop><geoidheight>54.00</geoidheight><course>168.4</course><type>1</type></trkpt>
      <trkpt lat="40.44364086" lon="-5.27699542"><ele>2235</ele><speed>8.17</speed><time>2016-06-29T10:39:42Z</time><pdop>3.0</pdop><geoidheight>54.00</geoidheight><course>159.1</course><type>1</type></trkpt>
      <trkpt lat="40.44354943" lon="-5.27692405"><ele>2233</ele><speed>10.73</speed><time>2016-06-29T10:39:43Z</time><pdop>3.0</pdop><geoidheight>54.00</geoidheight><course>148.3</course><type>1</type></trkpt>
      <trkpt lat="40.4434721" lon="-5.27685362"><ele>2234</ele><speed>10.40</speed><time>2016-06-29T10:39:44Z</time><pdop>3.0</pdop><geoidheight>54.00</geoidheight><course>145.1</course><type>1</type></trkpt>
      <trkpt lat="40.44340159" lon="-5.27675191"><ele>2233</ele><speed>10.65</speed><time>2016-06-29T10:39:45Z</time><pdop>5.0</pdop><geoidheight>54.00</geoidheight><course>136.8</course><type>1</type></trkpt>
      <trkpt lat="40.44331994" lon="-5.27659881"><ele>2232</ele><speed>12.61</speed><time>2016-06-29T10:39:46Z</time><pdop>6.0</pdop><geoidheight>54.00</geoidheight><course>126.6</course><type>1</type></trkpt>
      <trkpt lat="40.44331308" lon="-5.27634265"><ele>2239</ele><speed>14.60</speed><time>2016-06-29T10:39:47Z</time><pdop>4.0</pdop><geoidheight>54.00</geoidheight><course>102.7</course><type>1</type></trkpt>
      <trkpt lat="40.44330531" lon="-5.27618328"><ele>2240</ele><speed>12.85</speed><time>2016-06-29T10:39:48Z</time><pdop>4.0</pdop><geoidheight>54.00</geoidheight><course>93.4</course><type>1</type></trkpt>
      <trkpt lat="40.44331144" lon="-5.27602283"><ele>2240</ele><speed>12.68</speed><time>2016-06-29T10:39:49Z</time><pdop>4.0</pdop><geoidheight>54.00</geoidheight><course>85.8</course><type>1</type></trkpt>
      <trkpt lat="40.44333734" lon="-5.27584634"><ele>2238</ele><speed>14.02</speed><time>2016-06-29T10:39:50Z</time><pdop>4.0</pdop><geoidheight>54.00</geoidheight><course>80.1</course><type>1</type></trkpt>
      <trkpt lat="40.44336769" lon="-5.27565837"><ele>2236</ele><speed>15.69</speed><time>2016-06-29T10:39:51Z</time><pdop>4.0</pdop><geoidheight>54.00</geoidheight><course>78.2</course><type>1</type></trkpt>
      <trkpt lat="40.44338513" lon="-5.27548262"><ele>2235</ele><speed>16.07</speed><time>2016-06-29T10:39:52Z</time><pdop>4.0</pdop><geoidheight>54.00</geoidheight><course>79.7</course><type>1</type></trkpt>
      <trkpt lat="40.44340936" lon="-5.27528113"><ele>2236</ele><speed>17.08</speed><time>2016-06-29T10:39:53Z</time><pdop>4.0</pdop><geoidheight>54.00</geoidheight><course>82.6</course><type>1</type></trkpt>
      <trkpt lat="40.44343477" lon="-5.27507989"><ele>2237</ele><speed>16.61</speed><time>2016-06-29T10:39:54Z</time><pdop>4.0</pdop><geoidheight>54.00</geoidheight><course>81.9</course><type>1</type></trkpt>
      <trkpt lat="40.44347059" lon="-5.27489873"><ele>2237</ele><speed>15.76</speed><time>2016-06-29T10:39:55Z</time><pdop>3.0</pdop><geoidheight>54.00</geoidheight><course>77.8</course><type>1</type></trkpt>
      <trkpt lat="40.44350375" lon="-5.2747343"><ele>2237</ele><speed>15.20</speed><time>2016-06-29T10:39:56Z</time><pdop>3.0</pdop><geoidheight>54.00</geoidheight><course>75.2</course><type>1</type></trkpt>
      <trkpt lat="40.44353598" lon="-5.27456783"><ele>2239</ele><speed>14.45</speed><time>2016-06-29T10:39:57Z</time><pdop>3.0</pdop><geoidheight>54.00</geoidheight><course>74.1</course><type>1</type></trkpt>
      <trkpt lat="40.44356661" lon="-5.27441838"><ele>2241</ele><speed>12.97</speed><time>2016-06-29T10:39:58Z</time><pdop>3.0</pdop><geoidheight>54.00</geoidheight><course>73.7</course><type>1</type></trkpt>
      <trkpt lat="40.443608" lon="-5.27429035"><ele>2242</ele><speed>11.70</speed><time>2016-06-29T10:39:59Z</time><pdop>3.0</pdop><geoidheight>54.00</geoidheight><course>67.9</course><type>1</type></trkpt>
      <trkpt lat="40.44366676" lon="-5.2741946"><ele>2242</ele><speed>10.68</speed><time>2016-06-29T10:40:00Z</time><pdop>3.0</pdop><geoidheight>54.00</geoidheight><course>57.7</course><type>1</type></trkpt>
      <trkpt lat="40.44372692" lon="-5.27411446"><ele>2242</ele><speed>9.65</speed><time>2016-06-29T10:40:01Z</time><pdop>4.0</pdop><geoidheight>54.00</geoidheight><course>46.2</course><type>1</type></trkpt>
      <trkpt lat="40.44378193" lon="-5.27403662"><ele>2242</ele><speed>8.99</speed><time>2016-06-29T10:40:02Z</time><pdop>4.0</pdop><geoidheight>54.00</geoidheight><course>43.5</course><type>1</type></trkpt>
      <trkpt lat="40.44386188" lon="-5.27402432"><ele>2241</ele><speed>8.04</speed><time>2016-06-29T10:40:03Z</time><pdop>4.0</pdop><geoidheight>54.00</geoidheight><course>18.6</course><type>1</type></trkpt>
      <trkpt lat="40.44397974" lon="-5.27401985"><ele>2241</ele><speed>5.88</speed><time>2016-06-29T10:40:05Z</time><pdop>4.0</pdop><geoidheight>54.00</geoidheight><course>357.5</course><type>1</type></trkpt>
      <trkpt lat="40.44404307" lon="-5.27409751"><ele>2241</ele><speed>4.45</speed><time>2016-06-29T10:40:07Z</time><pdop>3.0</pdop><geoidheight>54.00</geoidheight><course>319.1</course><type>1</type></trkpt>
      <trkpt lat="40.44410755" lon="-5.27419683"><ele>2239</ele><speed>3.83</speed><time>2016-06-29T10:40:10Z</time><pdop>4.0</pdop><geoidheight>54.00</geoidheight><course>312.6</course><type>1</type></trkpt>
      <trkpt lat="40.4441318" lon="-5.27429325"><ele>2237</ele><speed>4.78</speed><time>2016-06-29T10:40:12Z</time><pdop>3.0</pdop><geoidheight>54.00</geoidheight><course>279.3</course><type>1</type></trkpt>
      <trkpt lat="40.4441099" lon="-5.27446832"><ele>2237</ele><speed>7.75</speed><time>2016-06-29T10:40:14Z</time><pdop>4.0</pdop><geoidheight>54.00</geoidheight><course>252.1</course><type>1</type></trkpt>
      <trkpt lat="40.44408207" lon="-5.274571"><ele>2236</ele><speed>8.71</speed><time>2016-06-29T10:40:15Z</time><pdop>5.0</pdop><geoidheight>54.00</geoidheight><course>248.9</course><type>1</type></trkpt>
      <trkpt lat="40.44405321" lon="-5.27470481"><ele>2237</ele><speed>5.94</speed><time>2016-06-29T10:40:17Z</time><pdop>5.0</pdop><geoidheight>54.00</geoidheight><course>252.4</course><type>1</type></trkpt>
      <trkpt lat="40.44402394" lon="-5.27484132"><ele>2239</ele><speed>4.98</speed><time>2016-06-29T10:40:19Z</time><pdop>4.0</pdop><geoidheight>54.00</geoidheight><course>252.7</course><type>1</type></trkpt>
      <trkpt lat="40.44398891" lon="-5.27494114"><ele>2237</ele><speed>4.61</speed><time>2016-06-29T10:40:21Z</time><pdop>4.0</pdop><geoidheight>54.00</geoidheight><course>247.7</course><type>1</type></trkpt>
      <trkpt lat="40.44398182" lon="-5.2750375"><ele>2235</ele><speed>4.53</speed><time>2016-06-29T10:40:23Z</time><pdop>4.0</pdop><geoidheight>54.00</geoidheight><course>268.5</course><type>1</type></trkpt>
      <trkpt lat="40.44396966" lon="-5.27513252"><ele>2237</ele><speed>4.55</speed><time>2016-06-29T10:40:25Z</time><pdop>3.0</pdop><geoidheight>54.00</geoidheight><course>249.3</course><type>1</type></trkpt>
      <trkpt lat="40.44393268" lon="-5.27523171"><ele>2235</ele><speed>4.11</speed><time>2016-06-29T10:40:27Z</time><pdop>3.0</pdop><geoidheight>54.00</geoidheight><course>248.3</course><type>1</type></trkpt>
      <trkpt lat="40.44391793" lon="-5.27531986"><ele>2234</ele><speed>4.27</speed><time>2016-06-29T10:40:29Z</time><pdop>3.0</pdop><geoidheight>54.00</geoidheight><course>258.0</course><type>1</type></trkpt>
      <trkpt lat="40.44391947" lon="-5.27542349"><ele>2232</ele><speed>4.38</speed><time>2016-06-29T10:40:31Z</time><pdop>3.0</pdop><geoidheight>54.00</geoidheight><course>276.1</course><type>1</type></trkpt>
      <trkpt lat="40.44393033" lon="-5.27556233"><ele>2231</ele><speed>5.63</speed><time>2016-06-29T10:40:33Z</time><pdop>4.0</pdop><geoidheight>54.00</geoidheight><course>273.0</course><type>1</type></trkpt>
      <trkpt lat="40.44392483" lon="-5.27570023"><ele>2231</ele><speed>4.79</speed><time>2016-06-29T10:40:35Z</time><pdop>4.0</pdop><geoidheight>54.00</geoidheight><course>271.4</course><type>1</type></trkpt>
      <trkpt lat="40.44394922" lon="-5.27579869"><ele>2230</ele><speed>4.33</speed><time>2016-06-29T10:40:37Z</time><pdop>3.0</pdop><geoidheight>54.00</geoidheight><course>289.9</course><type>1</type></trkpt>
      <trkpt lat="40.44396056" lon="-5.27589887"><ele>2229</ele><speed>4.57</speed><time>2016-06-29T10:40:39Z</time><pdop>3.0</pdop><geoidheight>54.00</geoidheight><course>280.8</course><type>1</type></trkpt>
      <trkpt lat="40.44397243" lon="-5.27600088"><ele>2229</ele><speed>4.30</speed><time>2016-06-29T10:40:41Z</time><pdop>3.0</pdop><geoidheight>54.00</geoidheight><course>282.1</course><type>1</type></trkpt>
      <trkpt lat="40.44395811" lon="-5.27611158"><ele>2224</ele><speed>4.91</speed><time>2016-06-29T10:40:43Z</time><pdop>3.0</pdop><geoidheight>54.00</geoidheight><course>266.6</course><type>1</type></trkpt>
      <trkpt lat="40.4439731" lon="-5.27623585"><ele>2221</ele><speed>5.51</speed><time>2016-06-29T10:40:45Z</time><pdop>3.0</pdop><geoidheight>54.00</geoidheight><course>279.5</course><type>1</type></trkpt>
      <trkpt lat="40.44398494" lon="-5.27640269"><ele>2218</ele><speed>7.03</speed><time>2016-06-29T10:40:47Z</time><pdop>4.0</pdop><geoidheight>54.00</geoidheight><course>274.4</course><type>1</type></trkpt>
      <trkpt lat="40.44399803" lon="-5.27658817"><ele>2216</ele><speed>8.36</speed><time>2016-06-29T10:40:49Z</time><pdop>4.0</pdop><geoidheight>54.00</geoidheight><course>275.3</course><type>1</type></trkpt>
      <trkpt lat="40.44399694" lon="-5.2766886"><ele>2216</ele><speed>8.37</speed><time>2016-06-29T10:40:50Z</time><pdop>4.0</pdop><geoidheight>54.00</geoidheight><course>272.7</course><type>1</type></trkpt>
      <trkpt lat="40.44399937" lon="-5.27678493"><ele>2217</ele><speed>7.84</speed><time>2016-06-29T10:40:51Z</time><pdop>4.0</pdop><geoidheight>54.00</geoidheight><course>268.8</course><type>1</type></trkpt>
      <trkpt lat="40.44399137" lon="-5.27694911"><ele>2217</ele><speed>6.76</speed><time>2016-06-29T10:40:53Z</time><pdop>3.0</pdop><geoidheight>54.00</geoidheight><course>273.7</course><type>1</type></trkpt>
      <trkpt lat="40.44400158" lon="-5.27702857"><ele>2217</ele><speed>6.39</speed><time>2016-06-29T10:40:54Z</time><pdop>3.0</pdop><geoidheight>54.00</geoidheight><course>283.9</course><type>1</type></trkpt>
      <trkpt lat="40.44403639" lon="-5.27714351"><ele>2218</ele><speed>5.08</speed><time>2016-06-29T10:40:56Z</time><pdop>3.0</pdop><geoidheight>54.00</geoidheight><course>295.3</course><type>1</type></trkpt>
      <trkpt lat="40.44408294" lon="-5.27723312"><ele>2217</ele><speed>5.46</speed><time>2016-06-29T10:40:58Z</time><pdop>3.0</pdop><geoidheight>54.00</geoidheight><course>302.9</course><type>1</type></trkpt>
      <trkpt lat="40.44411173" lon="-5.27730772"><ele>2217</ele><speed>6.22</speed><time>2016-06-29T10:40:59Z</time><pdop>4.0</pdop><geoidheight>54.00</geoidheight><course>298.0</course><type>1</type></trkpt>
      <trkpt lat="40.44410467" lon="-5.27746428"><ele>2217</ele><speed>6.37</speed><time>2016-06-29T10:41:01Z</time><pdop>3.0</pdop><geoidheight>54.00</geoidheight><course>275.1</course><type>1</type></trkpt>
      <trkpt lat="40.44412043" lon="-5.27759067"><ele>2216</ele><speed>5.23</speed><time>2016-06-29T10:41:03Z</time><pdop>4.0</pdop><geoidheight>54.00</geoidheight><course>279.6</course><type>1</type></trkpt>
      <trkpt lat="40.44418181" lon="-5.2776907"><ele>2218</ele><speed>4.67</speed><time>2016-06-29T10:41:05Z</time><pdop>3.0</pdop><geoidheight>54.00</geoidheight><course>317.8</course><type>1</type></trkpt>
      <trkpt lat="40.4442563" lon="-5.27774619"><ele>2218</ele><speed>4.53</speed><time>2016-06-29T10:41:07Z</time><pdop>3.0</pdop><geoidheight>54.00</geoidheight><course>324.3</course><type>1</type></trkpt>
      <trkpt lat="40.44431381" lon="-5.27787625"><ele>2217</ele><speed>6.71</speed><time>2016-06-29T10:41:09Z</time><pdop>3.0</pdop><geoidheight>54.00</geoidheight><course>297.8</course><type>1</type></trkpt>
      <trkpt lat="40.44433964" lon="-5.27796498"><ele>2217</ele><speed>7.47</speed><time>2016-06-29T10:41:10Z</time><pdop>4.0</pdop><geoidheight>54.00</geoidheight><course>291.6</course><type>1</type></trkpt>
      <trkpt lat="40.44435312" lon="-5.27806457"><ele>2216</ele><speed>7.98</speed><time>2016-06-29T10:41:11Z</time><pdop>4.0</pdop><geoidheight>54.00</geoidheight><course>282.3</course><type>1</type></trkpt>
      <trkpt lat="40.44436191" lon="-5.27821081"><ele>2218</ele><speed>5.28</speed><time>2016-06-29T10:41:13Z</time><pdop>4.0</pdop><geoidheight>54.00</geoidheight><course>266.9</course><type>1</type></trkpt>
      <trkpt lat="40.44435275" lon="-5.2783074"><ele>2215</ele><speed>4.31</speed><time>2016-06-29T10:41:15Z</time><pdop>4.0</pdop><geoidheight>54.00</geoidheight><course>268.2</course><type>1</type></trkpt>
      <trkpt lat="40.44433473" lon="-5.27850006"><ele>2216</ele><speed>6.34</speed><time>2016-06-29T10:41:18Z</time><pdop>6.0</pdop><geoidheight>54.00</geoidheight><course>256.5</course><type>1</type></trkpt>
      <trkpt lat="40.44427106" lon="-5.2787487"><ele>2215</ele><speed>8.51</speed><time>2016-06-29T10:41:20Z</time><pdop>5.0</pdop><geoidheight>54.00</geoidheight><course>249.4</course><type>1</type></trkpt>
      <trkpt lat="40.44421475" lon="-5.27890322"><ele>2216</ele><speed>6.28</speed><time>2016-06-29T10:41:22Z</time><pdop>4.0</pdop><geoidheight>54.00</geoidheight><course>240.1</course><type>1</type></trkpt>
      <trkpt lat="40.44416289" lon="-5.27899637"><ele>2215</ele><speed>5.76</speed><time>2016-06-29T10:41:24Z</time><pdop>4.0</pdop><geoidheight>54.00</geoidheight><course>236.5</course><type>1</type></trkpt>
      <trkpt lat="40.44407924" lon="-5.27912058"><ele>2213</ele><speed>7.29</speed><time>2016-06-29T10:41:26Z</time><pdop>4.0</pdop><geoidheight>54.00</geoidheight><course>226.3</course><type>1</type></trkpt>
      <trkpt lat="40.44402899" lon="-5.27918384"><ele>2213</ele><speed>8.17</speed><time>2016-06-29T10:41:27Z</time><pdop>3.0</pdop><geoidheight>54.00</geoidheight><course>222.8</course><type>1</type></trkpt>
      <trkpt lat="40.4439766" lon="-5.27925949"><ele>2212</ele><speed>7.74</speed><time>2016-06-29T10:41:28Z</time><pdop>3.0</pdop><geoidheight>54.00</geoidheight><course>225.3</course><type>1</type></trkpt>
      <trkpt lat="40.44394289" lon="-5.27932858"><ele>2213</ele><speed>6.56</speed><time>2016-06-29T10:41:29Z</time><pdop>3.0</pdop><geoidheight>54.00</geoidheight><course>235.1</course><type>1</type></trkpt>
      <trkpt lat="40.44388941" lon="-5.27943817"><ele>2213</ele><speed>5.56</speed><time>2016-06-29T10:41:31Z</time><pdop>3.0</pdop><geoidheight>54.00</geoidheight><course>235.3</course><type>1</type></trkpt>
      <trkpt lat="40.44384686" lon="-5.279494"><ele>2212</ele><speed>6.20</speed><time>2016-06-29T10:41:32Z</time><pdop>3.0</pdop><geoidheight>54.00</geoidheight><course>225.8</course><type>1</type></trkpt>
      <trkpt lat="40.44374491" lon="-5.27963221"><ele>2211</ele><speed>8.62</speed><time>2016-06-29T10:41:34Z</time><pdop>3.0</pdop><geoidheight>54.00</geoidheight><course>226.2</course><type>1</type></trkpt>
      <trkpt lat="40.44369504" lon="-5.27970404"><ele>2209</ele><speed>8.30</speed><time>2016-06-29T10:41:35Z</time><pdop>3.0</pdop><geoidheight>54.00</geoidheight><course>232.0</course><type>1</type></trkpt>
      <trkpt lat="40.44365839" lon="-5.27978002"><ele>2209</ele><speed>7.28</speed><time>2016-06-29T10:41:36Z</time><pdop>3.0</pdop><geoidheight>54.00</geoidheight><course>240.6</course><type>1</type></trkpt>
      <trkpt lat="40.44363025" lon="-5.27984596"><ele>2210</ele><speed>6.37</speed><time>2016-06-29T10:41:37Z</time><pdop>3.0</pdop><geoidheight>54.00</geoidheight><course>245.2</course><type>1</type></trkpt>
      <trkpt lat="40.44359412" lon="-5.27993978"><ele>2211</ele><speed>5.03</speed><time>2016-06-29T10:41:39Z</time><pdop>3.0</pdop><geoidheight>54.00</geoidheight><course>239.3</course><type>1</type></trkpt>
      <trkpt lat="40.44356019" lon="-5.28003619"><ele>2208</ele><speed>4.16</speed><time>2016-06-29T10:41:41Z</time><pdop>3.0</pdop><geoidheight>54.00</geoidheight><course>252.4</course><type>1</type></trkpt>
      <trkpt lat="40.44357299" lon="-5.28014051"><ele>2205</ele><speed>4.53</speed><time>2016-06-29T10:41:43Z</time><pdop>3.0</pdop><geoidheight>54.00</geoidheight><course>281.9</course><type>1</type></trkpt>
      <trkpt lat="40.44358464" lon="-5.2802165"><ele>2205</ele><speed>5.81</speed><time>2016-06-29T10:41:44Z</time><pdop>3.0</pdop><geoidheight>54.00</geoidheight><course>285.5</course><type>1</type></trkpt>
      <trkpt lat="40.4435938" lon="-5.28029549"><ele>2205</ele><speed>6.70</speed><time>2016-06-29T10:41:45Z</time><pdop>3.0</pdop><geoidheight>54.00</geoidheight><course>282.4</course><type>1</type></trkpt>
      <trkpt lat="40.44359569" lon="-5.28038427"><ele>2204</ele><speed>7.38</speed><time>2016-06-29T10:41:46Z</time><pdop>3.0</pdop><geoidheight>54.00</geoidheight><course>277.0</course><type>1</type></trkpt>
      <trkpt lat="40.44358269" lon="-5.28048831"><ele>2203</ele><speed>8.10</speed><time>2016-06-29T10:41:47Z</time><pdop>3.0</pdop><geoidheight>54.00</geoidheight><course>266.2</course><type>1</type></trkpt>
      <trkpt lat="40.44357014" lon="-5.2805796"><ele>2202</ele><speed>7.43</speed><time>2016-06-29T10:41:48Z</time><pdop>3.0</pdop><geoidheight>54.00</geoidheight><course>258.5</course><type>1</type></trkpt>
      <trkpt lat="40.44353575" lon="-5.28068737"><ele>2198</ele><speed>4.68</speed><time>2016-06-29T10:41:50Z</time><pdop>3.0</pdop><geoidheight>54.00</geoidheight><course>265.4</course><type>1</type></trkpt>
      <trkpt lat="40.44353341" lon="-5.28079205"><ele>2196</ele><speed>4.87</speed><time>2016-06-29T10:41:52Z</time><pdop>3.0</pdop><geoidheight>54.00</geoidheight><course>269.5</course><type>1</type></trkpt>
      <trkpt lat="40.44352379" lon="-5.28090415"><ele>2196</ele><speed>4.58</speed><time>2016-06-29T10:41:54Z</time><pdop>3.0</pdop><geoidheight>54.00</geoidheight><course>266.2</course><type>1</type></trkpt>
      <trkpt lat="40.44351195" lon="-5.28100324"><ele>2196</ele><speed>4.08</speed><time>2016-06-29T10:41:56Z</time><pdop>3.0</pdop><geoidheight>54.00</geoidheight><course>261.2</course><type>1</type></trkpt>
      <trkpt lat="40.44350572" lon="-5.2810944"><ele>2196</ele><speed>3.92</speed><time>2016-06-29T10:41:58Z</time><pdop>3.0</pdop><geoidheight>54.00</geoidheight><course>261.6</course><type>1</type></trkpt>
      <trkpt lat="40.44349872" lon="-5.28117101"><ele>2194</ele><speed>3.55</speed><time>2016-06-29T10:42:00Z</time><pdop>3.0</pdop><geoidheight>54.00</geoidheight><course>281.4</course><type>1</type></trkpt>
      <trkpt lat="40.44352334" lon="-5.28125733"><ele>2193</ele><speed>4.27</speed><time>2016-06-29T10:42:02Z</time><pdop>3.0</pdop><geoidheight>54.00</geoidheight><course>298.8</course><type>1</type></trkpt>
      <trkpt lat="40.4435698" lon="-5.28135483"><ele>2191</ele><speed>5.14</speed><time>2016-06-29T10:42:04Z</time><pdop>3.0</pdop><geoidheight>54.00</geoidheight><course>298.8</course><type>1</type></trkpt>
      <trkpt lat="40.4436024" lon="-5.28148893"><ele>2190</ele><speed>5.97</speed><time>2016-06-29T10:42:06Z</time><pdop>5.0</pdop><geoidheight>54.00</geoidheight><course>284.9</course><type>1</type></trkpt>
      <trkpt lat="40.44357892" lon="-5.28169504"><ele>2192</ele><speed>6.04</speed><time>2016-06-29T10:42:08Z</time><pdop>3.0</pdop><geoidheight>54.00</geoidheight><course>269.3</course><type>1</type></trkpt>
      <trkpt lat="40.44357184" lon="-5.28177787"><ele>2192</ele><speed>4.21</speed><time>2016-06-29T10:42:10Z</time><pdop>3.0</pdop><geoidheight>54.00</geoidheight><course>260.6</course><type>1</type></trkpt>
      <trkpt lat="40.44354544" lon="-5.28186777"><ele>2190</ele><speed>3.66</speed><time>2016-06-29T10:42:12Z</time><pdop>3.0</pdop><geoidheight>54.00</geoidheight><course>245.1</course><type>1</type></trkpt>
      <trkpt lat="40.44348372" lon="-5.28197091"><ele>2188</ele><speed>5.80</speed><time>2016-06-29T10:42:14Z</time><pdop>3.0</pdop><geoidheight>54.00</geoidheight><course>233.8</course><type>1</type></trkpt>
      <trkpt lat="40.44345699" lon="-5.28204864"><ele>2188</ele><speed>6.95</speed><time>2016-06-29T10:42:15Z</time><pdop>4.0</pdop><geoidheight>54.00</geoidheight><course>240.1</course><type>1</type></trkpt>
      <trkpt lat="40.44340581" lon="-5.28213699"><ele>2188</ele><speed>9.19</speed><time>2016-06-29T10:42:16Z</time><pdop>4.0</pdop><geoidheight>54.00</geoidheight><course>233.7</course><type>1</type></trkpt>
      <trkpt lat="40.44334413" lon="-5.28222011"><ele>2188</ele><speed>9.47</speed><time>2016-06-29T10:42:17Z</time><pdop>4.0</pdop><geoidheight>54.00</geoidheight><course>227.4</course><type>1</type></trkpt>
      <trkpt lat="40.4432839" lon="-5.28229376"><ele>2189</ele><speed>9.07</speed><time>2016-06-29T10:42:18Z</time><pdop>5.0</pdop><geoidheight>54.00</geoidheight><course>221.6</course><type>1</type></trkpt>
      <trkpt lat="40.44317563" lon="-5.28242466"><ele>2190</ele><speed>7.71</speed><time>2016-06-29T10:42:20Z</time><pdop>5.0</pdop><geoidheight>54.00</geoidheight><course>221.1</course><type>1</type></trkpt>
      <trkpt lat="40.44309636" lon="-5.28254986"><ele>2191</ele><speed>6.32</speed><time>2016-06-29T10:42:22Z</time><pdop>5.0</pdop><geoidheight>54.00</geoidheight><course>236.6</course><type>1</type></trkpt>
      <trkpt lat="40.44306375" lon="-5.28269172"><ele>2192</ele><speed>4.11</speed><time>2016-06-29T10:42:25Z</time><pdop>5.0</pdop><geoidheight>54.00</geoidheight><course>278.5</course><type>1</type></trkpt>
      <trkpt lat="40.44311179" lon="-5.28280896"><ele>2195</ele><speed>3.16</speed><time>2016-06-29T10:42:28Z</time><pdop>4.0</pdop><geoidheight>54.00</geoidheight><course>298.4</course><type>1</type></trkpt>
      <trkpt lat="40.44312996" lon="-5.282901"><ele>2196</ele><speed>4.36</speed><time>2016-06-29T10:42:30Z</time><pdop>4.0</pdop><geoidheight>54.00</geoidheight><course>277.2</course><type>1</type></trkpt>
      <trkpt lat="40.44308777" lon="-5.28305157"><ele>2197</ele><speed>6.95</speed><time>2016-06-29T10:42:32Z</time><pdop>4.0</pdop><geoidheight>54.00</geoidheight><course>237.0</course><type>1</type></trkpt>
      <trkpt lat="40.44302827" lon="-5.28311931"><ele>2199</ele><speed>8.47</speed><time>2016-06-29T10:42:33Z</time><pdop>4.0</pdop><geoidheight>54.00</geoidheight><course>220.6</course><type>1</type></trkpt>
      <trkpt lat="40.44295201" lon="-5.2831695"><ele>2200</ele><speed>8.94</speed><time>2016-06-29T10:42:34Z</time><pdop>4.0</pdop><geoidheight>54.00</geoidheight><course>204.8</course><type>1</type></trkpt>
      <trkpt lat="40.44287126" lon="-5.2832057"><ele>2202</ele><speed>9.35</speed><time>2016-06-29T10:42:35Z</time><pdop>3.0</pdop><geoidheight>54.00</geoidheight><course>197.6</course><type>1</type></trkpt>
      <trkpt lat="40.44278111" lon="-5.28324126"><ele>2203</ele><speed>9.59</speed><time>2016-06-29T10:42:36Z</time><pdop>4.0</pdop><geoidheight>54.00</geoidheight><course>192.8</course><type>1</type></trkpt>
      <trkpt lat="40.44269495" lon="-5.28325466"><ele>2206</ele><speed>10.25</speed><time>2016-06-29T10:42:37Z</time><pdop>3.0</pdop><geoidheight>54.00</geoidheight><course>187.6</course><type>1</type></trkpt>
      <trkpt lat="40.44258647" lon="-5.28324544"><ele>2208</ele><speed>11.23</speed><time>2016-06-29T10:42:38Z</time><pdop>3.0</pdop><geoidheight>54.00</geoidheight><course>176.5</course><type>1</type></trkpt>
      <trkpt lat="40.44246924" lon="-5.28319992"><ele>2209</ele><speed>12.62</speed><time>2016-06-29T10:42:39Z</time><pdop>3.0</pdop><geoidheight>54.00</geoidheight><course>163.2</course><type>1</type></trkpt>
      <trkpt lat="40.44236388" lon="-5.28314365"><ele>2208</ele><speed>12.62</speed><time>2016-06-29T10:42:40Z</time><pdop>3.0</pdop><geoidheight>54.00</geoidheight><course>156.2</course><type>1</type></trkpt>
      <trkpt lat="40.44227509" lon="-5.28301566"><ele>2209</ele><speed>13.45</speed><time>2016-06-29T10:42:41Z</time><pdop>3.0</pdop><geoidheight>54.00</geoidheight><course>139.5</course><type>1</type></trkpt>
      <trkpt lat="40.44218809" lon="-5.28287966"><ele>2209</ele><speed>13.24</speed><time>2016-06-29T10:42:42Z</time><pdop>4.0</pdop><geoidheight>54.00</geoidheight><course>131.4</course><type>1</type></trkpt>
      <trkpt lat="40.44213089" lon="-5.28271514"><ele>2209</ele><speed>13.56</speed><time>2016-06-29T10:42:43Z</time><pdop>5.0</pdop><geoidheight>54.00</geoidheight><course>119.3</course><type>1</type></trkpt>
      <trkpt lat="40.44207731" lon="-5.28252452"><ele>2209</ele><speed>14.38</speed><time>2016-06-29T10:42:44Z</time><pdop>6.0</pdop><geoidheight>54.00</geoidheight><course>115.1</course><type>1</type></trkpt>
      <trkpt lat="40.44204407" lon="-5.2823671"><ele>2208</ele><speed>13.71</speed><time>2016-06-29T10:42:45Z</time><pdop>6.0</pdop><geoidheight>54.00</geoidheight><course>112.4</course><type>1</type></trkpt>
      <trkpt lat="40.44207466" lon="-5.28217071"><ele>2209</ele><speed>13.91</speed><time>2016-06-29T10:42:46Z</time><pdop>8.0</pdop><geoidheight>54.00</geoidheight><course>99.7</course><type>1</type></trkpt>
      <trkpt lat="40.44223916" lon="-5.28208455"><ele>2208</ele><speed>7.50</speed><time>2016-06-29T10:42:48Z</time><pdop>11.0</pdop><geoidheight>54.00</geoidheight><course>67.8</course><type>1</type></trkpt>
      <trkpt lat="40.44247889" lon="-5.28217615"><ele>2208</ele><speed>5.87</speed><time>2016-06-29T10:42:50Z</time><pdop>12.0</pdop><geoidheight>54.00</geoidheight><course>12.8</course><type>1</type></trkpt>
      <trkpt lat="40.44241706" lon="-5.2824828"><ele>2207</ele><speed>5.43</speed><time>2016-06-29T10:42:53Z</time><pdop>10.0</pdop><geoidheight>54.00</geoidheight><course>222.3</course><type>1</type></trkpt>
      <trkpt lat="40.44236414" lon="-5.2827908"><ele>2206</ele><speed>7.21</speed><time>2016-06-29T10:42:56Z</time><pdop>7.0</pdop><geoidheight>54.00</geoidheight><course>261.1</course><type>1</type></trkpt>
      <trkpt lat="40.44229424" lon="-5.28302186"><ele>2204</ele><speed>9.20</speed><time>2016-06-29T10:42:58Z</time><pdop>5.0</pdop><geoidheight>54.00</geoidheight><course>239.6</course><type>1</type></trkpt>
      <trkpt lat="40.44218825" lon="-5.28321254"><ele>2204</ele><speed>9.09</speed><time>2016-06-29T10:43:00Z</time><pdop>4.0</pdop><geoidheight>54.00</geoidheight><course>225.1</course><type>1</type></trkpt>
      <trkpt lat="40.4421257" lon="-5.28329661"><ele>2202</ele><speed>8.42</speed><time>2016-06-29T10:43:01Z</time><pdop>4.0</pdop><geoidheight>54.00</geoidheight><course>224.7</course><type>1</type></trkpt>
      <trkpt lat="40.44206122" lon="-5.28339895"><ele>2200</ele><speed>8.95</speed><time>2016-06-29T10:43:02Z</time><pdop>4.0</pdop><geoidheight>54.00</geoidheight><course>222.4</course><type>1</type></trkpt>
      <trkpt lat="40.44198993" lon="-5.28347375"><ele>2197</ele><speed>9.92</speed><time>2016-06-29T10:43:03Z</time><pdop>3.0</pdop><geoidheight>54.00</geoidheight><course>220.0</course><type>1</type></trkpt>
      <trkpt lat="40.44190664" lon="-5.28354908"><ele>2196</ele><speed>10.82</speed><time>2016-06-29T10:43:04Z</time><pdop>3.0</pdop><geoidheight>54.00</geoidheight><course>216.9</course><type>1</type></trkpt>
      <trkpt lat="40.44183141" lon="-5.28361878"><ele>2196</ele><speed>10.96</speed><time>2016-06-29T10:43:05Z</time><pdop>3.0</pdop><geoidheight>54.00</geoidheight><course>216.8</course><type>1</type></trkpt>
      <trkpt lat="40.44176439" lon="-5.28369913"><ele>2197</ele><speed>10.30</speed><time>2016-06-29T10:43:06Z</time><pdop>3.0</pdop><geoidheight>54.00</geoidheight><course>217.6</course><type>1</type></trkpt>
      <trkpt lat="40.44169841" lon="-5.2837764"><ele>2197</ele><speed>9.53</speed><time>2016-06-29T10:43:07Z</time><pdop>3.0</pdop><geoidheight>54.00</geoidheight><course>222.4</course><type>1</type></trkpt>
      <trkpt lat="40.44164669" lon="-5.28386048"><ele>2196</ele><speed>8.89</speed><time>2016-06-29T10:43:08Z</time><pdop>3.0</pdop><geoidheight>54.00</geoidheight><course>229.2</course><type>1</type></trkpt>
      <trkpt lat="40.44160469" lon="-5.28394077"><ele>2196</ele><speed>8.48</speed><time>2016-06-29T10:43:09Z</time><pdop>3.0</pdop><geoidheight>54.00</geoidheight><course>234.4</course><type>1</type></trkpt>
      <trkpt lat="40.44157256" lon="-5.28401509"><ele>2196</ele><speed>7.42</speed><time>2016-06-29T10:43:10Z</time><pdop>3.0</pdop><geoidheight>54.00</geoidheight><course>235.2</course><type>1</type></trkpt>
      <trkpt lat="40.44153947" lon="-5.28407708"><ele>2196</ele><speed>6.30</speed><time>2016-06-29T10:43:11Z</time><pdop>3.0</pdop><geoidheight>54.00</geoidheight><course>235.0</course><type>1</type></trkpt>
      <trkpt lat="40.44146551" lon="-5.2841955"><ele>2193</ele><speed>6.55</speed><time>2016-06-29T10:43:13Z</time><pdop>3.0</pdop><geoidheight>54.00</geoidheight><course>232.0</course><type>1</type></trkpt>
      <trkpt lat="40.44141134" lon="-5.2842681"><ele>2191</ele><speed>7.69</speed><time>2016-06-29T10:43:14Z</time><pdop>3.0</pdop><geoidheight>54.00</geoidheight><course>229.5</course><type>1</type></trkpt>
      <trkpt lat="40.44135227" lon="-5.28435538"><ele>2191</ele><speed>8.96</speed><time>2016-06-29T10:43:15Z</time><pdop>3.0</pdop><geoidheight>54.00</geoidheight><course>228.7</course><type>1</type></trkpt>
      <trkpt lat="40.44130183" lon="-5.28443355"><ele>2190</ele><speed>8.66</speed><time>2016-06-29T10:43:16Z</time><pdop>3.0</pdop><geoidheight>54.00</geoidheight><course>231.2</course><type>1</type></trkpt>
      <trkpt lat="40.44126609" lon="-5.28451037"><ele>2191</ele><speed>7.92</speed><time>2016-06-29T10:43:17Z</time><pdop>3.0</pdop><geoidheight>54.00</geoidheight><course>233.8</course><type>1</type></trkpt>
      <trkpt lat="40.441228" lon="-5.28457679"><ele>2192</ele><speed>7.15</speed><time>2016-06-29T10:43:18Z</time><pdop>3.0</pdop><geoidheight>54.00</geoidheight><course>235.3</course><type>1</type></trkpt>
      <trkpt lat="40.44120074" lon="-5.28464194"><ele>2192</ele><speed>6.43</speed><time>2016-06-29T10:43:19Z</time><pdop>3.0</pdop><geoidheight>54.00</geoidheight><course>233.8</course><type>1</type></trkpt>
      <trkpt lat="40.4411666" lon="-5.28470309"><ele>2192</ele><speed>6.42</speed><time>2016-06-29T10:43:20Z</time><pdop>3.0</pdop><geoidheight>54.00</geoidheight><course>233.8</course><type>1</type></trkpt>
      <trkpt lat="40.44111042" lon="-5.28483022"><ele>2191</ele><speed>7.10</speed><time>2016-06-29T10:43:22Z</time><pdop>3.0</pdop><geoidheight>54.00</geoidheight><course>235.2</course><type>1</type></trkpt>
      <trkpt lat="40.44106488" lon="-5.28489769"><ele>2190</ele><speed>7.49</speed><time>2016-06-29T10:43:23Z</time><pdop>3.0</pdop><geoidheight>54.00</geoidheight><course>231.0</course><type>1</type></trkpt>
      <trkpt lat="40.44101718" lon="-5.28497026"><ele>2191</ele><speed>7.71</speed><time>2016-06-29T10:43:24Z</time><pdop>3.0</pdop><geoidheight>54.00</geoidheight><course>224.4</course><type>1</type></trkpt>
      <trkpt lat="40.44095805" lon="-5.28503223"><ele>2190</ele><speed>7.59</speed><time>2016-06-29T10:43:25Z</time><pdop>3.0</pdop><geoidheight>54.00</geoidheight><course>217.7</course><type>1</type></trkpt>
      <trkpt lat="40.44090361" lon="-5.2850845"><ele>2192</ele><speed>7.17</speed><time>2016-06-29T10:43:26Z</time><pdop>3.0</pdop><geoidheight>54.00</geoidheight><course>215.4</course><type>1</type></trkpt>
      <trkpt lat="40.44085" lon="-5.28513262"><ele>2192</ele><speed>6.92</speed><time>2016-06-29T10:43:27Z</time><pdop>3.0</pdop><geoidheight>54.00</geoidheight><course>215.1</course><type>1</type></trkpt>
      <trkpt lat="40.4408029" lon="-5.2851714"><ele>2191</ele><speed>6.83</speed><time>2016-06-29T10:43:28Z</time><pdop>3.0</pdop><geoidheight>54.00</geoidheight><course>216.2</course><type>1</type></trkpt>
      <trkpt lat="40.44075367" lon="-5.2852297"><ele>2189</ele><speed>7.27</speed><time>2016-06-29T10:43:29Z</time><pdop>3.0</pdop><geoidheight>54.00</geoidheight><course>214.8</course><type>1</type></trkpt>
      <trkpt lat="40.44069781" lon="-5.28528255"><ele>2188</ele><speed>7.68</speed><time>2016-06-29T10:43:30Z</time><pdop>3.0</pdop><geoidheight>54.00</geoidheight><course>213.2</course><type>1</type></trkpt>
      <trkpt lat="40.44064029" lon="-5.28533173"><ele>2188</ele><speed>7.64</speed><time>2016-06-29T10:43:31Z</time><pdop>4.0</pdop><geoidheight>54.00</geoidheight><course>213.2</course><type>1</type></trkpt>
      <trkpt lat="40.44056382" lon="-5.28540065"><ele>2204</ele><speed>8.97</speed><time>2016-06-29T10:43:32Z</time><pdop>5.0</pdop><geoidheight>54.00</geoidheight><course>215.0</course><type>1</type></trkpt>
      <trkpt lat="40.4404853" lon="-5.28546354"><ele>2200</ele><speed>10.35</speed><time>2016-06-29T10:43:33Z</time><pdop>5.0</pdop><geoidheight>54.00</geoidheight><course>219.6</course><type>1</type></trkpt>
      <trkpt lat="40.44039905" lon="-5.28554732"><ele>2198</ele><speed>9.91</speed><time>2016-06-29T10:43:34Z</time><pdop>5.0</pdop><geoidheight>54.00</geoidheight><course>212.7</course><type>1</type></trkpt>
      <trkpt lat="40.44027125" lon="-5.28563461"><ele>2194</ele><speed>6.94</speed><time>2016-06-29T10:43:36Z</time><pdop>5.0</pdop><geoidheight>54.00</geoidheight><course>203.8</course><type>1</type></trkpt>
      <trkpt lat="40.44014488" lon="-5.28568588"><ele>2191</ele><speed>6.09</speed><time>2016-06-29T10:43:38Z</time><pdop>5.0</pdop><geoidheight>54.00</geoidheight><course>202.1</course><type>1</type></trkpt>
      <trkpt lat="40.44000489" lon="-5.28573964"><ele>2185</ele><speed>9.20</speed><time>2016-06-29T10:43:40Z</time><pdop>5.0</pdop><geoidheight>54.00</geoidheight><course>194.1</course><type>1</type></trkpt>
      <trkpt lat="40.43983601" lon="-5.28581838"><ele>2178</ele><speed>11.51</speed><time>2016-06-29T10:43:42Z</time><pdop>5.0</pdop><geoidheight>54.00</geoidheight><course>200.7</course><type>1</type></trkpt>
      <trkpt lat="40.43965507" lon="-5.28593212"><ele>2174</ele><speed>11.38</speed><time>2016-06-29T10:43:44Z</time><pdop>6.0</pdop><geoidheight>54.00</geoidheight><course>205.6</course><type>1</type></trkpt>
      <trkpt lat="40.43952524" lon="-5.28604721"><ele>2174</ele><speed>10.25</speed><time>2016-06-29T10:43:46Z</time><pdop>7.0</pdop><geoidheight>54.00</geoidheight><course>207.5</course><type>1</type></trkpt>
      <trkpt lat="40.43942574" lon="-5.28618936"><ele>2172</ele><speed>9.19</speed><time>2016-06-29T10:43:48Z</time><pdop>6.0</pdop><geoidheight>54.00</geoidheight><course>222.1</course><type>1</type></trkpt>
      <trkpt lat="40.43928026" lon="-5.2863381"><ele>2171</ele><speed>10.09</speed><time>2016-06-29T10:43:50Z</time><pdop>9.0</pdop><geoidheight>54.00</geoidheight><course>222.1</course><type>1</type></trkpt>
      <trkpt lat="40.43909477" lon="-5.28648052"><ele>2170</ele><speed>11.25</speed><time>2016-06-29T10:43:52Z</time><pdop>7.0</pdop><geoidheight>54.00</geoidheight><course>213.0</course><type>1</type></trkpt>
      <trkpt lat="40.43894432" lon="-5.28662354"><ele>2170</ele><speed>10.81</speed><time>2016-06-29T10:43:54Z</time><pdop>8.0</pdop><geoidheight>54.00</geoidheight><course>214.8</course><type>1</type></trkpt>
      <trkpt lat="40.43877956" lon="-5.28675814"><ele>2168</ele><speed>11.30</speed><time>2016-06-29T10:43:56Z</time><pdop>5.0</pdop><geoidheight>54.00</geoidheight><course>205.5</course><type>1</type></trkpt>
      <trkpt lat="40.43867619" lon="-5.28680748"><ele>2167</ele><speed>11.47</speed><time>2016-06-29T10:43:57Z</time><pdop>4.0</pdop><geoidheight>54.00</geoidheight><course>199.9</course><type>1</type></trkpt>
      <trkpt lat="40.43858957" lon="-5.28684623"><ele>2166</ele><speed>10.18</speed><time>2016-06-29T10:43:58Z</time><pdop>4.0</pdop><geoidheight>54.00</geoidheight><course>198.9</course><type>1</type></trkpt>
      <trkpt lat="40.43851048" lon="-5.28687521"><ele>2168</ele><speed>9.09</speed><time>2016-06-29T10:43:59Z</time><pdop>3.0</pdop><geoidheight>54.00</geoidheight><course>198.7</course><type>1</type></trkpt>
      <trkpt lat="40.43844029" lon="-5.28689775"><ele>2166</ele><speed>7.09</speed><time>2016-06-29T10:44:00Z</time><pdop>4.0</pdop><geoidheight>54.00</geoidheight><course>201.8</course><type>1</type></trkpt>
      <trkpt lat="40.43834429" lon="-5.2869709"><ele>2162</ele><speed>7.18</speed><time>2016-06-29T10:44:02Z</time><pdop>4.0</pdop><geoidheight>54.00</geoidheight><course>211.4</course><type>1</type></trkpt>
      <trkpt lat="40.43826375" lon="-5.28709634"><ele>2157</ele><speed>7.88</speed><time>2016-06-29T10:44:04Z</time><pdop>4.0</pdop><geoidheight>54.00</geoidheight><course>233.3</course><type>1</type></trkpt>
      <trkpt lat="40.43821788" lon="-5.28718259"><ele>2156</ele><speed>8.95</speed><time>2016-06-29T10:44:05Z</time><pdop>4.0</pdop><geoidheight>54.00</geoidheight><course>242.6</course><type>1</type></trkpt>
      <trkpt lat="40.43817964" lon="-5.28726627"><ele>2155</ele><speed>8.51</speed><time>2016-06-29T10:44:06Z</time><pdop>4.0</pdop><geoidheight>54.00</geoidheight><course>239.6</course><type>1</type></trkpt>
      <trkpt lat="40.43811482" lon="-5.28741227"><ele>2154</ele><speed>7.04</speed><time>2016-06-29T10:44:08Z</time><pdop>4.0</pdop><geoidheight>54.00</geoidheight><course>235.5</course><type>1</type></trkpt>
      <trkpt lat="40.43807229" lon="-5.2875323"><ele>2149</ele><speed>6.22</speed><time>2016-06-29T10:44:10Z</time><pdop>4.0</pdop><geoidheight>54.00</geoidheight><course>247.8</course><type>1</type></trkpt>
      <trkpt lat="40.43805619" lon="-5.28761789"><ele>2147</ele><speed>7.47</speed><time>2016-06-29T10:44:11Z</time><pdop>3.0</pdop><geoidheight>54.00</geoidheight><course>256.9</course><type>1</type></trkpt>
      <trkpt lat="40.43800482" lon="-5.2878364"><ele>2145</ele><speed>9.55</speed><time>2016-06-29T10:44:13Z</time><pdop>4.0</pdop><geoidheight>54.00</geoidheight><course>249.3</course><type>1</type></trkpt>
      <trkpt lat="40.43796992" lon="-5.28793761"><ele>2145</ele><speed>9.23</speed><time>2016-06-29T10:44:14Z</time><pdop>4.0</pdop><geoidheight>54.00</geoidheight><course>245.0</course><type>1</type></trkpt>
      <trkpt lat="40.43794919" lon="-5.28803101"><ele>2145</ele><speed>8.16</speed><time>2016-06-29T10:44:15Z</time><pdop>3.0</pdop><geoidheight>54.00</geoidheight><course>248.7</course><type>1</type></trkpt>
      <trkpt lat="40.43792604" lon="-5.28812503"><ele>2145</ele><speed>7.81</speed><time>2016-06-29T10:44:16Z</time><pdop>4.0</pdop><geoidheight>54.00</geoidheight><course>251.0</course><type>1</type></trkpt>
      <trkpt lat="40.4379057" lon="-5.28821855"><ele>2145</ele><speed>8.37</speed><time>2016-06-29T10:44:17Z</time><pdop>4.0</pdop><geoidheight>54.00</geoidheight><course>251.8</course><type>1</type></trkpt>
      <trkpt lat="40.43786206" lon="-5.2883214"><ele>2144</ele><speed>9.23</speed><time>2016-06-29T10:44:18Z</time><pdop>5.0</pdop><geoidheight>54.00</geoidheight><course>245.0</course><type>1</type></trkpt>
      <trkpt lat="40.43781254" lon="-5.2884267"><ele>2144</ele><speed>9.97</speed><time>2016-06-29T10:44:19Z</time><pdop>4.0</pdop><geoidheight>54.00</geoidheight><course>241.1</course><type>1</type></trkpt>
      <trkpt lat="40.4377606" lon="-5.28853171"><ele>2145</ele><speed>10.00</speed><time>2016-06-29T10:44:20Z</time><pdop>4.0</pdop><geoidheight>54.00</geoidheight><course>240.2</course><type>1</type></trkpt>
      <trkpt lat="40.43772309" lon="-5.28862693"><ele>2145</ele><speed>9.48</speed><time>2016-06-29T10:44:21Z</time><pdop>4.0</pdop><geoidheight>54.00</geoidheight><course>240.6</course><type>1</type></trkpt>
      <trkpt lat="40.43769035" lon="-5.28872322"><ele>2146</ele><speed>8.76</speed><time>2016-06-29T10:44:22Z</time><pdop>4.0</pdop><geoidheight>54.00</geoidheight><course>241.4</course><type>1</type></trkpt>
      <trkpt lat="40.43764666" lon="-5.28880737"><ele>2146</ele><speed>8.38</speed><time>2016-06-29T10:44:23Z</time><pdop>4.0</pdop><geoidheight>54.00</geoidheight><course>239.0</course><type>1</type></trkpt>
      <trkpt lat="40.43755896" lon="-5.28896917"><ele>2145</ele><speed>8.64</speed><time>2016-06-29T10:44:25Z</time><pdop>4.0</pdop><geoidheight>54.00</geoidheight><course>236.2</course><type>1</type></trkpt>
      <trkpt lat="40.43752255" lon="-5.28905572"><ele>2145</ele><speed>8.65</speed><time>2016-06-29T10:44:26Z</time><pdop>4.0</pdop><geoidheight>54.00</geoidheight><course>237.6</course><type>1</type></trkpt>
      <trkpt lat="40.43747679" lon="-5.28914459"><ele>2144</ele><speed>8.33</speed><time>2016-06-29T10:44:27Z</time><pdop>4.0</pdop><geoidheight>54.00</geoidheight><course>238.8</course><type>1</type></trkpt>
      <trkpt lat="40.43743385" lon="-5.28922359"><ele>2144</ele><speed>7.97</speed><time>2016-06-29T10:44:28Z</time><pdop>4.0</pdop><geoidheight>54.00</geoidheight><course>238.0</course><type>1</type></trkpt>
      <trkpt lat="40.43735949" lon="-5.28936419"><ele>2144</ele><speed>7.63</speed><time>2016-06-29T10:44:30Z</time><pdop>4.0</pdop><geoidheight>54.00</geoidheight><course>234.2</course><type>1</type></trkpt>
      <trkpt lat="40.43729127" lon="-5.28952352"><ele>2141</ele><speed>7.78</speed><time>2016-06-29T10:44:32Z</time><pdop>4.0</pdop><geoidheight>54.00</geoidheight><course>244.1</course><type>1</type></trkpt>
      <trkpt lat="40.43728135" lon="-5.28961301"><ele>2140</ele><speed>7.83</speed><time>2016-06-29T10:44:33Z</time><pdop>3.0</pdop><geoidheight>54.00</geoidheight><course>255.8</course><type>1</type></trkpt>
      <trkpt lat="40.43725076" lon="-5.2897022"><ele>2140</ele><speed>7.98</speed><time>2016-06-29T10:44:34Z</time><pdop>3.0</pdop><geoidheight>54.00</geoidheight><course>248.4</course><type>1</type></trkpt>
      <trkpt lat="40.43721014" lon="-5.28978518"><ele>2140</ele><speed>8.19</speed><time>2016-06-29T10:44:35Z</time><pdop>3.0</pdop><geoidheight>54.00</geoidheight><course>239.1</course><type>1</type></trkpt>
      <trkpt lat="40.43715895" lon="-5.28985503"><ele>2140</ele><speed>7.99</speed><time>2016-06-29T10:44:36Z</time><pdop>3.0</pdop><geoidheight>54.00</geoidheight><course>230.9</course><type>1</type></trkpt>
      <trkpt lat="40.43710806" lon="-5.28991404"><ele>2140</ele><speed>7.90</speed><time>2016-06-29T10:44:37Z</time><pdop>3.0</pdop><geoidheight>54.00</geoidheight><course>226.2</course><type>1</type></trkpt>
      <trkpt lat="40.43705482" lon="-5.28998125"><ele>2139</ele><speed>7.86</speed><time>2016-06-29T10:44:38Z</time><pdop>3.0</pdop><geoidheight>54.00</geoidheight><course>224.9</course><type>1</type></trkpt>
      <trkpt lat="40.43700627" lon="-5.29004876"><ele>2139</ele><speed>8.21</speed><time>2016-06-29T10:44:39Z</time><pdop>4.0</pdop><geoidheight>54.00</geoidheight><course>222.5</course><type>1</type></trkpt>
      <trkpt lat="40.43694836" lon="-5.29012113"><ele>2138</ele><speed>8.45</speed><time>2016-06-29T10:44:40Z</time><pdop>4.0</pdop><geoidheight>54.00</geoidheight><course>224.5</course><type>1</type></trkpt>
      <trkpt lat="40.43689025" lon="-5.29020328"><ele>2137</ele><speed>8.69</speed><time>2016-06-29T10:44:41Z</time><pdop>3.0</pdop><geoidheight>54.00</geoidheight><course>226.4</course><type>1</type></trkpt>
      <trkpt lat="40.43683932" lon="-5.2902831"><ele>2137</ele><speed>8.86</speed><time>2016-06-29T10:44:42Z</time><pdop>3.0</pdop><geoidheight>54.00</geoidheight><course>229.8</course><type>1</type></trkpt>
      <trkpt lat="40.4367964" lon="-5.29037421"><ele>2136</ele><speed>8.78</speed><time>2016-06-29T10:44:43Z</time><pdop>3.0</pdop><geoidheight>54.00</geoidheight><course>232.7</course><type>1</type></trkpt>
      <trkpt lat="40.43674483" lon="-5.29045054"><ele>2135</ele><speed>8.93</speed><time>2016-06-29T10:44:44Z</time><pdop>3.0</pdop><geoidheight>54.00</geoidheight><course>230.9</course><type>1</type></trkpt>
      <trkpt lat="40.4366851" lon="-5.29052423"><ele>2135</ele><speed>9.20</speed><time>2016-06-29T10:44:45Z</time><pdop>3.0</pdop><geoidheight>54.00</geoidheight><course>226.3</course><type>1</type></trkpt>
      <trkpt lat="40.43661164" lon="-5.29059614"><ele>2132</ele><speed>9.75</speed><time>2016-06-29T10:44:46Z</time><pdop>3.0</pdop><geoidheight>54.00</geoidheight><course>217.1</course><type>1</type></trkpt>
      <trkpt lat="40.43652826" lon="-5.29065298"><ele>2130</ele><speed>9.89</speed><time>2016-06-29T10:44:47Z</time><pdop>3.0</pdop><geoidheight>54.00</geoidheight><course>213.7</course><type>1</type></trkpt>
      <trkpt lat="40.43645323" lon="-5.29071897"><ele>2130</ele><speed>10.01</speed><time>2016-06-29T10:44:48Z</time><pdop>3.0</pdop><geoidheight>54.00</geoidheight><course>212.7</course><type>1</type></trkpt>
      <trkpt lat="40.43638436" lon="-5.29079085"><ele>2129</ele><speed>9.88</speed><time>2016-06-29T10:44:49Z</time><pdop>3.0</pdop><geoidheight>54.00</geoidheight><course>214.6</course><type>1</type></trkpt>
      <trkpt lat="40.43631455" lon="-5.29085729"><ele>2130</ele><speed>10.17</speed><time>2016-06-29T10:44:50Z</time><pdop>3.0</pdop><geoidheight>54.00</geoidheight><course>213.4</course><type>1</type></trkpt>
      <trkpt lat="40.4362433" lon="-5.29092065"><ele>2129</ele><speed>9.94</speed><time>2016-06-29T10:44:51Z</time><pdop>3.0</pdop><geoidheight>54.00</geoidheight><course>212.0</course><type>1</type></trkpt>
      <trkpt lat="40.43614799" lon="-5.29095919"><ele>2127</ele><speed>10.81</speed><time>2016-06-29T10:44:52Z</time><pdop>3.0</pdop><geoidheight>54.00</geoidheight><course>203.8</course><type>1</type></trkpt>
      <trkpt lat="40.43604568" lon="-5.29100596"><ele>2126</ele><speed>11.54</speed><time>2016-06-29T10:44:53Z</time><pdop>3.0</pdop><geoidheight>54.00</geoidheight><course>200.0</course><type>1</type></trkpt>
      <trkpt lat="40.43595671" lon="-5.29105409"><ele>2128</ele><speed>11.48</speed><time>2016-06-29T10:44:54Z</time><pdop>3.0</pdop><geoidheight>54.00</geoidheight><course>200.8</course><type>1</type></trkpt>
      <trkpt lat="40.43585515" lon="-5.29110495"><ele>2125</ele><speed>11.15</speed><time>2016-06-29T10:44:55Z</time><pdop>4.0</pdop><geoidheight>54.00</geoidheight><course>202.6</course><type>1</type></trkpt>
      <trkpt lat="40.43576791" lon="-5.29114199"><ele>2124</ele><speed>9.90</speed><time>2016-06-29T10:44:56Z</time><pdop>4.0</pdop><geoidheight>54.00</geoidheight><course>199.0</course><type>1</type></trkpt>
      <trkpt lat="40.43567271" lon="-5.29116996"><ele>2122</ele><speed>9.66</speed><time>2016-06-29T10:44:57Z</time><pdop>4.0</pdop><geoidheight>54.00</geoidheight><course>195.0</course><type>1</type></trkpt>
      <trkpt lat="40.43560111" lon="-5.29120006"><ele>2120</ele><speed>9.26</speed><time>2016-06-29T10:44:58Z</time><pdop>4.0</pdop><geoidheight>54.00</geoidheight><course>196.0</course><type>1</type></trkpt>
      <trkpt lat="40.43548593" lon="-5.29124611"><ele>2119</ele><speed>12.03</speed><time>2016-06-29T10:44:59Z</time><pdop>3.0</pdop><geoidheight>54.00</geoidheight><course>197.8</course><type>1</type></trkpt>
      <trkpt lat="40.43538097" lon="-5.2912874"><ele>2117</ele><speed>12.49</speed><time>2016-06-29T10:45:00Z</time><pdop>3.0</pdop><geoidheight>54.00</geoidheight><course>196.6</course><type>1</type></trkpt>
      <trkpt lat="40.43527704" lon="-5.29132458"><ele>2115</ele><speed>12.06</speed><time>2016-06-29T10:45:01Z</time><pdop>3.0</pdop><geoidheight>54.00</geoidheight><course>196.1</course><type>1</type></trkpt>
      <trkpt lat="40.43518942" lon="-5.29136875"><ele>2115</ele><speed>11.36</speed><time>2016-06-29T10:45:02Z</time><pdop>3.0</pdop><geoidheight>54.00</geoidheight><course>199.9</course><type>1</type></trkpt>
      <trkpt lat="40.43510092" lon="-5.2914255"><ele>2114</ele><speed>11.32</speed><time>2016-06-29T10:45:03Z</time><pdop>3.0</pdop><geoidheight>54.00</geoidheight><course>205.9</course><type>1</type></trkpt>
      <trkpt lat="40.43501973" lon="-5.29148394"><ele>2112</ele><speed>10.96</speed><time>2016-06-29T10:45:04Z</time><pdop>3.0</pdop><geoidheight>54.00</geoidheight><course>208.2</course><type>1</type></trkpt>
      <trkpt lat="40.43492573" lon="-5.29153828"><ele>2111</ele><speed>10.98</speed><time>2016-06-29T10:45:05Z</time><pdop>3.0</pdop><geoidheight>54.00</geoidheight><course>204.3</course><type>1</type></trkpt>
      <trkpt lat="40.43483456" lon="-5.29159829"><ele>2110</ele><speed>10.99</speed><time>2016-06-29T10:45:06Z</time><pdop>3.0</pdop><geoidheight>54.00</geoidheight><course>202.7</course><type>1</type></trkpt>
      <trkpt lat="40.43474784" lon="-5.29165228"><ele>2109</ele><speed>10.71</speed><time>2016-06-29T10:45:07Z</time><pdop>3.0</pdop><geoidheight>54.00</geoidheight><course>206.6</course><type>1</type></trkpt>
      <trkpt lat="40.43466886" lon="-5.29173199"><ele>2107</ele><speed>10.81</speed><time>2016-06-29T10:45:08Z</time><pdop>3.0</pdop><geoidheight>54.00</geoidheight><course>213.5</course><type>1</type></trkpt>
      <trkpt lat="40.43459899" lon="-5.2918134"><ele>2105</ele><speed>10.56</speed><time>2016-06-29T10:45:09Z</time><pdop>3.0</pdop><geoidheight>54.00</geoidheight><course>217.4</course><type>1</type></trkpt>
      <trkpt lat="40.43452454" lon="-5.29188306"><ele>2105</ele><speed>10.50</speed><time>2016-06-29T10:45:10Z</time><pdop>3.0</pdop><geoidheight>54.00</geoidheight><course>214.0</course><type>1</type></trkpt>
      <trkpt lat="40.43443983" lon="-5.29194836"><ele>2104</ele><speed>10.46</speed><time>2016-06-29T10:45:11Z</time><pdop>3.0</pdop><geoidheight>54.00</geoidheight><course>211.4</course><type>1</type></trkpt>
      <trkpt lat="40.43436331" lon="-5.29201016"><ele>2103</ele><speed>10.12</speed><time>2016-06-29T10:45:12Z</time><pdop>3.0</pdop><geoidheight>54.00</geoidheight><course>212.0</course><type>1</type></trkpt>
      <trkpt lat="40.43428827" lon="-5.29207501"><ele>2102</ele><speed>9.94</speed><time>2016-06-29T10:45:13Z</time><pdop>3.0</pdop><geoidheight>54.00</geoidheight><course>214.7</course><type>1</type></trkpt>
      <trkpt lat="40.4342177" lon="-5.29215175"><ele>2102</ele><speed>9.67</speed><time>2016-06-29T10:45:14Z</time><pdop>3.0</pdop><geoidheight>54.00</geoidheight><course>215.2</course><type>1</type></trkpt>
      <trkpt lat="40.43412584" lon="-5.29220314"><ele>2101</ele><speed>10.32</speed><time>2016-06-29T10:45:15Z</time><pdop>3.0</pdop><geoidheight>54.00</geoidheight><course>209.0</course><type>1</type></trkpt>
      <trkpt lat="40.43404346" lon="-5.29226475"><ele>2100</ele><speed>10.43</speed><time>2016-06-29T10:45:16Z</time><pdop>3.0</pdop><geoidheight>54.00</geoidheight><course>211.7</course><type>1</type></trkpt>
      <trkpt lat="40.43395971" lon="-5.29232643"><ele>2098</ele><speed>10.19</speed><time>2016-06-29T10:45:17Z</time><pdop>3.0</pdop><geoidheight>54.00</geoidheight><course>215.2</course><type>1</type></trkpt>
      <trkpt lat="40.43389658" lon="-5.29240019"><ele>2098</ele><speed>10.09</speed><time>2016-06-29T10:45:18Z</time><pdop>3.0</pdop><geoidheight>54.00</geoidheight><course>217.7</course><type>1</type></trkpt>
      <trkpt lat="40.4338296" lon="-5.29246449"><ele>2097</ele><speed>9.88</speed><time>2016-06-29T10:45:19Z</time><pdop>3.0</pdop><geoidheight>54.00</geoidheight><course>218.1</course><type>1</type></trkpt>
      <trkpt lat="40.4337535" lon="-5.29252703"><ele>2096</ele><speed>9.71</speed><time>2016-06-29T10:45:20Z</time><pdop>3.0</pdop><geoidheight>54.00</geoidheight><course>216.8</course><type>1</type></trkpt>
      <trkpt lat="40.43369858" lon="-5.29260065"><ele>2096</ele><speed>9.40</speed><time>2016-06-29T10:45:21Z</time><pdop>4.0</pdop><geoidheight>54.00</geoidheight><course>219.6</course><type>1</type></trkpt>
      <trkpt lat="40.43359612" lon="-5.29275033"><ele>2094</ele><speed>8.91</speed><time>2016-06-29T10:45:23Z</time><pdop>4.0</pdop><geoidheight>54.00</geoidheight><course>225.6</course><type>1</type></trkpt>
      <trkpt lat="40.43353159" lon="-5.29281789"><ele>2092</ele><speed>9.35</speed><time>2016-06-29T10:45:24Z</time><pdop>5.0</pdop><geoidheight>54.00</geoidheight><course>221.2</course><type>1</type></trkpt>
      <trkpt lat="40.43343879" lon="-5.29289078"><ele>2090</ele><speed>10.48</speed><time>2016-06-29T10:45:25Z</time><pdop>5.0</pdop><geoidheight>54.00</geoidheight><course>216.0</course><type>1</type></trkpt>
      <trkpt lat="40.43335651" lon="-5.29297155"><ele>2088</ele><speed>10.95</speed><time>2016-06-29T10:45:26Z</time><pdop>4.0</pdop><geoidheight>54.00</geoidheight><course>215.2</course><type>1</type></trkpt>
      <trkpt lat="40.43328277" lon="-5.29304322"><ele>2088</ele><speed>10.50</speed><time>2016-06-29T10:45:27Z</time><pdop>4.0</pdop><geoidheight>54.00</geoidheight><course>215.4</course><type>1</type></trkpt>
      <trkpt lat="40.43320867" lon="-5.29311271"><ele>2087</ele><speed>9.79</speed><time>2016-06-29T10:45:28Z</time><pdop>3.0</pdop><geoidheight>54.00</geoidheight><course>216.6</course><type>1</type></trkpt>
      <trkpt lat="40.43313701" lon="-5.2931842"><ele>2086</ele><speed>9.35</speed><time>2016-06-29T10:45:29Z</time><pdop>3.0</pdop><geoidheight>54.00</geoidheight><course>216.4</course><type>1</type></trkpt>
      <trkpt lat="40.43307849" lon="-5.29325111"><ele>2085</ele><speed>9.26</speed><time>2016-06-29T10:45:30Z</time><pdop>3.0</pdop><geoidheight>54.00</geoidheight><course>216.3</course><type>1</type></trkpt>
      <trkpt lat="40.43300901" lon="-5.29331472"><ele>2085</ele><speed>9.24</speed><time>2016-06-29T10:45:31Z</time><pdop>3.0</pdop><geoidheight>54.00</geoidheight><course>216.1</course><type>1</type></trkpt>
      <trkpt lat="40.43293526" lon="-5.29337683"><ele>2084</ele><speed>9.53</speed><time>2016-06-29T10:45:32Z</time><pdop>3.0</pdop><geoidheight>54.00</geoidheight><course>213.5</course><type>1</type></trkpt>
      <trkpt lat="40.43285036" lon="-5.29342421"><ele>2084</ele><speed>10.32</speed><time>2016-06-29T10:45:33Z</time><pdop>3.0</pdop><geoidheight>54.00</geoidheight><course>206.0</course><type>1</type></trkpt>
      <trkpt lat="40.43275807" lon="-5.29346394"><ele>2082</ele><speed>10.44</speed><time>2016-06-29T10:45:34Z</time><pdop>3.0</pdop><geoidheight>54.00</geoidheight><course>200.9</course><type>1</type></trkpt>
      <trkpt lat="40.43266921" lon="-5.29350726"><ele>2080</ele><speed>10.31</speed><time>2016-06-29T10:45:35Z</time><pdop>3.0</pdop><geoidheight>54.00</geoidheight><course>200.5</course><type>1</type></trkpt>
      <trkpt lat="40.43258257" lon="-5.29355304"><ele>2079</ele><speed>10.18</speed><time>2016-06-29T10:45:36Z</time><pdop>3.0</pdop><geoidheight>54.00</geoidheight><course>201.4</course><type>1</type></trkpt>
      <trkpt lat="40.43249221" lon="-5.29359506"><ele>2077</ele><speed>10.29</speed><time>2016-06-29T10:45:37Z</time><pdop>3.0</pdop><geoidheight>54.00</geoidheight><course>199.9</course><type>1</type></trkpt>
      <trkpt lat="40.43241445" lon="-5.2936344"><ele>2075</ele><speed>10.04</speed><time>2016-06-29T10:45:38Z</time><pdop>3.0</pdop><geoidheight>54.00</geoidheight><course>199.3</course><type>1</type></trkpt>
      <trkpt lat="40.43231916" lon="-5.29368008"><ele>2074</ele><speed>10.79</speed><time>2016-06-29T10:45:39Z</time><pdop>3.0</pdop><geoidheight>54.00</geoidheight><course>198.2</course><type>1</type></trkpt>
      <trkpt lat="40.43222118" lon="-5.29371944"><ele>2073</ele><speed>11.10</speed><time>2016-06-29T10:45:40Z</time><pdop>3.0</pdop><geoidheight>54.00</geoidheight><course>194.9</course><type>1</type></trkpt>
      <trkpt lat="40.43211653" lon="-5.29375162"><ele>2072</ele><speed>11.39</speed><time>2016-06-29T10:45:41Z</time><pdop>3.0</pdop><geoidheight>54.00</geoidheight><course>192.1</course><type>1</type></trkpt>
      <trkpt lat="40.43202343" lon="-5.29378976"><ele>2071</ele><speed>11.00</speed><time>2016-06-29T10:45:42Z</time><pdop>3.0</pdop><geoidheight>54.00</geoidheight><course>194.5</course><type>1</type></trkpt>
      <trkpt lat="40.43193393" lon="-5.29384135"><ele>2071</ele><speed>10.68</speed><time>2016-06-29T10:45:43Z</time><pdop>3.0</pdop><geoidheight>54.00</geoidheight><course>201.5</course><type>1</type></trkpt>
      <trkpt lat="40.43185403" lon="-5.29389155"><ele>2071</ele><speed>10.25</speed><time>2016-06-29T10:45:44Z</time><pdop>3.0</pdop><geoidheight>54.00</geoidheight><course>204.6</course><type>1</type></trkpt>
      <trkpt lat="40.4317713" lon="-5.29392708"><ele>2070</ele><speed>10.06</speed><time>2016-06-29T10:45:45Z</time><pdop>3.0</pdop><geoidheight>54.00</geoidheight><course>198.3</course><type>1</type></trkpt>
      <trkpt lat="40.43167696" lon="-5.29394987"><ele>2069</ele><speed>10.35</speed><time>2016-06-29T10:45:46Z</time><pdop>3.0</pdop><geoidheight>54.00</geoidheight><course>189.0</course><type>1</type></trkpt>
      <trkpt lat="40.43157849" lon="-5.29395544"><ele>2068</ele><speed>10.92</speed><time>2016-06-29T10:45:47Z</time><pdop>3.0</pdop><geoidheight>54.00</geoidheight><course>183.7</course><type>1</type></trkpt>
      <trkpt lat="40.43147243" lon="-5.29396296"><ele>2067</ele><speed>11.51</speed><time>2016-06-29T10:45:48Z</time><pdop>3.0</pdop><geoidheight>54.00</geoidheight><course>182.5</course><type>1</type></trkpt>
      <trkpt lat="40.43136404" lon="-5.29397937"><ele>2066</ele><speed>12.24</speed><time>2016-06-29T10:45:49Z</time><pdop>3.0</pdop><geoidheight>54.00</geoidheight><course>185.8</course><type>1</type></trkpt>
      <trkpt lat="40.43125827" lon="-5.29400574"><ele>2065</ele><speed>12.50</speed><time>2016-06-29T10:45:50Z</time><pdop>3.0</pdop><geoidheight>54.00</geoidheight><course>189.9</course><type>1</type></trkpt>
      <trkpt lat="40.43116134" lon="-5.29409175"><ele>2063</ele><speed>12.71</speed><time>2016-06-29T10:45:51Z</time><pdop>3.0</pdop><geoidheight>54.00</geoidheight><course>204.0</course><type>1</type></trkpt>
      <trkpt lat="40.43106888" lon="-5.29415527"><ele>2062</ele><speed>12.26</speed><time>2016-06-29T10:45:52Z</time><pdop>3.0</pdop><geoidheight>54.00</geoidheight><course>207.9</course><type>1</type></trkpt>
      <trkpt lat="40.43098096" lon="-5.29421435"><ele>2062</ele><speed>11.42</speed><time>2016-06-29T10:45:53Z</time><pdop>3.0</pdop><geoidheight>54.00</geoidheight><course>207.0</course><type>1</type></trkpt>
      <trkpt lat="40.43089551" lon="-5.29427755"><ele>2062</ele><speed>10.92</speed><time>2016-06-29T10:45:54Z</time><pdop>3.0</pdop><geoidheight>54.00</geoidheight><course>204.7</course><type>1</type></trkpt>
      <trkpt lat="40.43080082" lon="-5.29432543"><ele>2062</ele><speed>10.88</speed><time>2016-06-29T10:45:55Z</time><pdop>3.0</pdop><geoidheight>54.00</geoidheight><course>204.3</course><type>1</type></trkpt>
      <trkpt lat="40.43070773" lon="-5.29437508"><ele>2062</ele><speed>10.99</speed><time>2016-06-29T10:45:56Z</time><pdop>3.0</pdop><geoidheight>54.00</geoidheight><course>203.3</course><type>1</type></trkpt>
      <trkpt lat="40.43060514" lon="-5.29442126"><ele>2062</ele><speed>11.43</speed><time>2016-06-29T10:45:57Z</time><pdop>3.0</pdop><geoidheight>54.00</geoidheight><course>198.8</course><type>1</type></trkpt>
      <trkpt lat="40.43050189" lon="-5.29444442"><ele>2062</ele><speed>11.71</speed><time>2016-06-29T10:45:58Z</time><pdop>3.0</pdop><geoidheight>54.00</geoidheight><course>192.8</course><type>1</type></trkpt>
      <trkpt lat="40.43040281" lon="-5.29446414"><ele>2063</ele><speed>11.36</speed><time>2016-06-29T10:45:59Z</time><pdop>3.0</pdop><geoidheight>54.00</geoidheight><course>187.7</course><type>1</type></trkpt>
      <trkpt lat="40.4303068" lon="-5.29446963"><ele>2064</ele><speed>10.49</speed><time>2016-06-29T10:46:00Z</time><pdop>3.0</pdop><geoidheight>54.00</geoidheight><course>182.9</course><type>1</type></trkpt>
      <trkpt lat="40.43021952" lon="-5.29446455"><ele>2065</ele><speed>9.58</speed><time>2016-06-29T10:46:01Z</time><pdop>3.0</pdop><geoidheight>54.00</geoidheight><course>178.1</course><type>1</type></trkpt>
      <trkpt lat="40.43014265" lon="-5.29444574"><ele>2066</ele><speed>8.97</speed><time>2016-06-29T10:46:02Z</time><pdop>3.0</pdop><geoidheight>54.00</geoidheight><course>171.0</course><type>1</type></trkpt>
      <trkpt lat="40.43005963" lon="-5.29442364"><ele>2066</ele><speed>8.65</speed><time>2016-06-29T10:46:03Z</time><pdop>3.0</pdop><geoidheight>54.00</geoidheight><course>166.9</course><type>1</type></trkpt>
      <trkpt lat="40.42998644" lon="-5.29440608"><ele>2065</ele><speed>8.41</speed><time>2016-06-29T10:46:04Z</time><pdop>3.0</pdop><geoidheight>54.00</geoidheight><course>168.7</course><type>1</type></trkpt>
      <trkpt lat="40.42990814" lon="-5.29440133"><ele>2064</ele><speed>8.33</speed><time>2016-06-29T10:46:05Z</time><pdop>3.0</pdop><geoidheight>54.00</geoidheight><course>177.6</course><type>1</type></trkpt>
      <trkpt lat="40.42985065" lon="-5.29441676"><ele>2064</ele><speed>7.73</speed><time>2016-06-29T10:46:06Z</time><pdop>3.0</pdop><geoidheight>54.00</geoidheight><course>191.9</course><type>1</type></trkpt>
      <trkpt lat="40.42979436" lon="-5.29445359"><ele>2063</ele><speed>7.38</speed><time>2016-06-29T10:46:07Z</time><pdop>3.0</pdop><geoidheight>54.00</geoidheight><course>204.7</course><type>1</type></trkpt>
      <trkpt lat="40.4297379" lon="-5.29450078"><ele>2062</ele><speed>6.65</speed><time>2016-06-29T10:46:08Z</time><pdop>3.0</pdop><geoidheight>54.00</geoidheight><course>218.1</course><type>1</type></trkpt>
      <trkpt lat="40.42966777" lon="-5.29460519"><ele>2062</ele><speed>6.11</speed><time>2016-06-29T10:46:10Z</time><pdop>3.0</pdop><geoidheight>54.00</geoidheight><course>227.7</course><type>1</type></trkpt>
      <trkpt lat="40.42962743" lon="-5.29466038"><ele>2062</ele><speed>6.06</speed><time>2016-06-29T10:46:11Z</time><pdop>3.0</pdop><geoidheight>54.00</geoidheight><course>225.7</course><type>1</type></trkpt>
      <trkpt lat="40.42957744" lon="-5.29470999"><ele>2061</ele><speed>6.48</speed><time>2016-06-29T10:46:12Z</time><pdop>3.0</pdop><geoidheight>54.00</geoidheight><course>222.5</course><type>1</type></trkpt>
      <trkpt lat="40.42953087" lon="-5.29477188"><ele>2060</ele><speed>7.11</speed><time>2016-06-29T10:46:13Z</time><pdop>4.0</pdop><geoidheight>54.00</geoidheight><course>222.4</course><type>1</type></trkpt>
      <trkpt lat="40.42947046" lon="-5.29483073"><ele>2059</ele><speed>7.61</speed><time>2016-06-29T10:46:14Z</time><pdop>4.0</pdop><geoidheight>54.00</geoidheight><course>220.2</course><type>1</type></trkpt>
      <trkpt lat="40.42941132" lon="-5.29488718"><ele>2059</ele><speed>7.95</speed><time>2016-06-29T10:46:15Z</time><pdop>4.0</pdop><geoidheight>54.00</geoidheight><course>218.1</course><type>1</type></trkpt>
      <trkpt lat="40.42934822" lon="-5.29494302"><ele>2059</ele><speed>8.19</speed><time>2016-06-29T10:46:16Z</time><pdop>4.0</pdop><geoidheight>54.00</geoidheight><course>216.2</course><type>1</type></trkpt>
      <trkpt lat="40.42924004" lon="-5.2950445"><ele>2058</ele><speed>7.92</speed><time>2016-06-29T10:46:18Z</time><pdop>4.0</pdop><geoidheight>54.00</geoidheight><course>216.9</course><type>1</type></trkpt>
      <trkpt lat="40.42917878" lon="-5.29510151"><ele>2058</ele><speed>7.69</speed><time>2016-06-29T10:46:19Z</time><pdop>4.0</pdop><geoidheight>54.00</geoidheight><course>217.1</course><type>1</type></trkpt>
      <trkpt lat="40.42907986" lon="-5.29520091"><ele>2056</ele><speed>7.45</speed><time>2016-06-29T10:46:21Z</time><pdop>4.0</pdop><geoidheight>54.00</geoidheight><course>216.7</course><type>1</type></trkpt>
      <trkpt lat="40.42901388" lon="-5.29526745"><ele>2054</ele><speed>8.72</speed><time>2016-06-29T10:46:22Z</time><pdop>3.0</pdop><geoidheight>54.00</geoidheight><course>217.5</course><type>1</type></trkpt>
      <trkpt lat="40.4289526" lon="-5.29534395"><ele>2054</ele><speed>9.23</speed><time>2016-06-29T10:46:23Z</time><pdop>4.0</pdop><geoidheight>54.00</geoidheight><course>221.3</course><type>1</type></trkpt>
      <trkpt lat="40.42888015" lon="-5.29542411"><ele>2053</ele><speed>10.11</speed><time>2016-06-29T10:46:24Z</time><pdop>4.0</pdop><geoidheight>54.00</geoidheight><course>219.6</course><type>1</type></trkpt>
      <trkpt lat="40.42879644" lon="-5.29549552"><ele>2055</ele><speed>10.19</speed><time>2016-06-29T10:46:25Z</time><pdop>3.0</pdop><geoidheight>54.00</geoidheight><course>214.3</course><type>1</type></trkpt>
      <trkpt lat="40.42872663" lon="-5.29554856"><ele>2055</ele><speed>9.59</speed><time>2016-06-29T10:46:26Z</time><pdop>3.0</pdop><geoidheight>54.00</geoidheight><course>209.1</course><type>1</type></trkpt>
      <trkpt lat="40.42866072" lon="-5.29559503"><ele>2056</ele><speed>8.81</speed><time>2016-06-29T10:46:27Z</time><pdop>3.0</pdop><geoidheight>54.00</geoidheight><course>208.2</course><type>1</type></trkpt>
      <trkpt lat="40.42859743" lon="-5.2956494"><ele>2057</ele><speed>8.67</speed><time>2016-06-29T10:46:28Z</time><pdop>3.0</pdop><geoidheight>54.00</geoidheight><course>212.9</course><type>1</type></trkpt>
      <trkpt lat="40.42853258" lon="-5.29571691"><ele>2057</ele><speed>9.58</speed><time>2016-06-29T10:46:29Z</time><pdop>3.0</pdop><geoidheight>54.00</geoidheight><course>216.7</course><type>1</type></trkpt>
      <trkpt lat="40.42845681" lon="-5.29578262"><ele>2057</ele><speed>10.11</speed><time>2016-06-29T10:46:30Z</time><pdop>3.0</pdop><geoidheight>54.00</geoidheight><course>214.7</course><type>1</type></trkpt>
      <trkpt lat="40.42836098" lon="-5.29584269"><ele>2055</ele><speed>11.43</speed><time>2016-06-29T10:46:31Z</time><pdop>3.0</pdop><geoidheight>54.00</geoidheight><course>207.1</course><type>1</type></trkpt>
      <trkpt lat="40.42826211" lon="-5.29588435"><ele>2053</ele><speed>10.97</speed><time>2016-06-29T10:46:32Z</time><pdop>3.0</pdop><geoidheight>54.00</geoidheight><course>203.5</course><type>1</type></trkpt>
      <trkpt lat="40.42818512" lon="-5.2959311"><ele>2053</ele><speed>9.76</speed><time>2016-06-29T10:46:33Z</time><pdop>3.0</pdop><geoidheight>54.00</geoidheight><course>203.6</course><type>1</type></trkpt>
      <trkpt lat="40.42811128" lon="-5.29598078"><ele>2053</ele><speed>8.88</speed><time>2016-06-29T10:46:34Z</time><pdop>3.0</pdop><geoidheight>54.00</geoidheight><course>208.0</course><type>1</type></trkpt>
      <trkpt lat="40.42803352" lon="-5.29603703"><ele>2052</ele><speed>9.22</speed><time>2016-06-29T10:46:35Z</time><pdop>3.0</pdop><geoidheight>54.00</geoidheight><course>210.1</course><type>1</type></trkpt>
      <trkpt lat="40.42794859" lon="-5.29609893"><ele>2051</ele><speed>9.90</speed><time>2016-06-29T10:46:36Z</time><pdop>3.0</pdop><geoidheight>54.00</geoidheight><course>208.8</course><type>1</type></trkpt>
      <trkpt lat="40.42785034" lon="-5.2961485"><ele>2049</ele><speed>11.02</speed><time>2016-06-29T10:46:37Z</time><pdop>3.0</pdop><geoidheight>54.00</geoidheight><course>204.8</course><type>1</type></trkpt>
      <trkpt lat="40.42776454" lon="-5.29620487"><ele>2048</ele><speed>10.80</speed><time>2016-06-29T10:46:38Z</time><pdop>3.0</pdop><geoidheight>54.00</geoidheight><course>204.5</course><type>1</type></trkpt>
      <trkpt lat="40.42768121" lon="-5.29625246"><ele>2047</ele><speed>9.89</speed><time>2016-06-29T10:46:39Z</time><pdop>3.0</pdop><geoidheight>54.00</geoidheight><course>206.4</course><type>1</type></trkpt>
      <trkpt lat="40.42760404" lon="-5.29629596"><ele>2046</ele><speed>9.24</speed><time>2016-06-29T10:46:40Z</time><pdop>3.0</pdop><geoidheight>54.00</geoidheight><course>206.2</course><type>1</type></trkpt>
      <trkpt lat="40.42752882" lon="-5.29633589"><ele>2045</ele><speed>8.98</speed><time>2016-06-29T10:46:41Z</time><pdop>3.0</pdop><geoidheight>54.00</geoidheight><course>202.8</course><type>1</type></trkpt>
      <trkpt lat="40.42744145" lon="-5.29637402"><ele>2044</ele><speed>9.51</speed><time>2016-06-29T10:46:42Z</time><pdop>3.0</pdop><geoidheight>54.00</geoidheight><course>199.2</course><type>1</type></trkpt>
      <trkpt lat="40.42736917" lon="-5.29642386"><ele>2045</ele><speed>9.30</speed><time>2016-06-29T10:46:43Z</time><pdop>3.0</pdop><geoidheight>54.00</geoidheight><course>206.5</course><type>1</type></trkpt>
      <trkpt lat="40.4273031" lon="-5.29648536"><ele>2043</ele><speed>9.12</speed><time>2016-06-29T10:46:44Z</time><pdop>3.0</pdop><geoidheight>54.00</geoidheight><course>215.7</course><type>1</type></trkpt>
      <trkpt lat="40.42724006" lon="-5.29655741"><ele>2042</ele><speed>9.05</speed><time>2016-06-29T10:46:45Z</time><pdop>3.0</pdop><geoidheight>54.00</geoidheight><course>220.6</course><type>1</type></trkpt>
      <trkpt lat="40.42716907" lon="-5.29662013"><ele>2041</ele><speed>9.32</speed><time>2016-06-29T10:46:46Z</time><pdop>3.0</pdop><geoidheight>54.00</geoidheight><course>217.3</course><type>1</type></trkpt>
      <trkpt lat="40.42708566" lon="-5.29668162"><ele>2040</ele><speed>9.85</speed><time>2016-06-29T10:46:47Z</time><pdop>3.0</pdop><geoidheight>54.00</geoidheight><course>209.6</course><type>1</type></trkpt>
      <trkpt lat="40.42700074" lon="-5.29672946"><ele>2040</ele><speed>10.09</speed><time>2016-06-29T10:46:48Z</time><pdop>3.0</pdop><geoidheight>54.00</geoidheight><course>203.1</course><type>1</type></trkpt>
      <trkpt lat="40.42691033" lon="-5.29676694"><ele>2040</ele><speed>10.25</speed><time>2016-06-29T10:46:49Z</time><pdop>3.0</pdop><geoidheight>54.00</geoidheight><course>197.9</course><type>1</type></trkpt>
      <trkpt lat="40.42682446" lon="-5.29679805"><ele>2040</ele><speed>9.86</speed><time>2016-06-29T10:46:50Z</time><pdop>3.0</pdop><geoidheight>54.00</geoidheight><course>195.0</course><type>1</type></trkpt>
      <trkpt lat="40.42674327" lon="-5.29681435"><ele>2040</ele><speed>9.48</speed><time>2016-06-29T10:46:51Z</time><pdop>3.0</pdop><geoidheight>54.00</geoidheight><course>192.3</course><type>1</type></trkpt>
      <trkpt lat="40.42665745" lon="-5.29683607"><ele>2039</ele><speed>9.48</speed><time>2016-06-29T10:46:52Z</time><pdop>3.0</pdop><geoidheight>54.00</geoidheight><course>190.6</course><type>1</type></trkpt>
      <trkpt lat="40.42657433" lon="-5.29686055"><ele>2039</ele><speed>9.03</speed><time>2016-06-29T10:46:53Z</time><pdop>3.0</pdop><geoidheight>54.00</geoidheight><course>190.7</course><type>1</type></trkpt>
      <trkpt lat="40.42649586" lon="-5.29688321"><ele>2039</ele><speed>8.92</speed><time>2016-06-29T10:46:54Z</time><pdop>3.0</pdop><geoidheight>54.00</geoidheight><course>192.8</course><type>1</type></trkpt>
      <trkpt lat="40.42643224" lon="-5.29691729"><ele>2038</ele><speed>8.61</speed><time>2016-06-29T10:46:55Z</time><pdop>3.0</pdop><geoidheight>54.00</geoidheight><course>195.4</course><type>1</type></trkpt>
      <trkpt lat="40.42635154" lon="-5.29696483"><ele>2036</ele><speed>10.23</speed><time>2016-06-29T10:46:56Z</time><pdop>3.0</pdop><geoidheight>54.00</geoidheight><course>201.4</course><type>1</type></trkpt>
      <trkpt lat="40.42627092" lon="-5.29701921"><ele>2034</ele><speed>10.70</speed><time>2016-06-29T10:46:57Z</time><pdop>3.0</pdop><geoidheight>54.00</geoidheight><course>209.3</course><type>1</type></trkpt>
      <trkpt lat="40.42619331" lon="-5.29708589"><ele>2033</ele><speed>10.17</speed><time>2016-06-29T10:46:58Z</time><pdop>3.0</pdop><geoidheight>54.00</geoidheight><course>217.7</course><type>1</type></trkpt>
      <trkpt lat="40.42613465" lon="-5.29715237"><ele>2032</ele><speed>7.59</speed><time>2016-06-29T10:46:59Z</time><pdop>3.0</pdop><geoidheight>54.00</geoidheight><course>223.3</course><type>1</type></trkpt>
      <trkpt lat="40.42609434" lon="-5.29724961"><ele>2032</ele><speed>4.07</speed><time>2016-06-29T10:47:01Z</time><pdop>4.0</pdop><geoidheight>54.00</geoidheight><course>249.7</course><type>1</type></trkpt>
      <trkpt lat="40.4262052" lon="-5.29731141"><ele>2030</ele><speed>5.46</speed><time>2016-06-29T10:47:04Z</time><pdop>4.0</pdop><geoidheight>54.00</geoidheight><course>329.1</course><type>1</type></trkpt>
      <trkpt lat="40.42628403" lon="-5.29732351"><ele>2028</ele><speed>8.63</speed><time>2016-06-29T10:47:05Z</time><pdop>4.0</pdop><geoidheight>54.00</geoidheight><course>342.9</course><type>1</type></trkpt>
      <trkpt lat="40.42636925" lon="-5.29733376"><ele>2026</ele><speed>9.72</speed><time>2016-06-29T10:47:06Z</time><pdop>4.0</pdop><geoidheight>54.00</geoidheight><course>355.7</course><type>1</type></trkpt>
      <trkpt lat="40.42645617" lon="-5.29732572"><ele>2026</ele><speed>9.64</speed><time>2016-06-29T10:47:07Z</time><pdop>3.0</pdop><geoidheight>54.00</geoidheight><course>7.7</course><type>1</type></trkpt>
      <trkpt lat="40.42654151" lon="-5.29728033"><ele>2023</ele><speed>9.42</speed><time>2016-06-29T10:47:08Z</time><pdop>4.0</pdop><geoidheight>54.00</geoidheight><course>18.9</course><type>1</type></trkpt>
      <trkpt lat="40.42661577" lon="-5.29723061"><ele>2022</ele><speed>10.37</speed><time>2016-06-29T10:47:09Z</time><pdop>4.0</pdop><geoidheight>54.00</geoidheight><course>28.2</course><type>1</type></trkpt>
      <trkpt lat="40.42669669" lon="-5.29715157"><ele>2021</ele><speed>11.36</speed><time>2016-06-29T10:47:10Z</time><pdop>4.0</pdop><geoidheight>54.00</geoidheight><course>38.0</course><type>1</type></trkpt>
      <trkpt lat="40.42675507" lon="-5.29707008"><ele>2021</ele><speed>12.05</speed><time>2016-06-29T10:47:11Z</time><pdop>5.0</pdop><geoidheight>54.00</geoidheight><course>47.5</course><type>1</type></trkpt>
      <trkpt lat="40.42682838" lon="-5.29696543"><ele>2021</ele><speed>12.04</speed><time>2016-06-29T10:47:12Z</time><pdop>6.0</pdop><geoidheight>54.00</geoidheight><course>47.5</course><type>1</type></trkpt>
      <trkpt lat="40.42694624" lon="-5.29674021"><ele>2018</ele><speed>12.51</speed><time>2016-06-29T10:47:14Z</time><pdop>8.0</pdop><geoidheight>54.00</geoidheight><course>54.5</course><type>1</type></trkpt>
      <trkpt lat="40.42703876" lon="-5.2964753"><ele>2014</ele><speed>12.63</speed><time>2016-06-29T10:47:16Z</time><pdop>6.0</pdop><geoidheight>54.00</geoidheight><course>64.4</course><type>1</type></trkpt>
      <trkpt lat="40.42707205" lon="-5.29632355"><ele>2012</ele><speed>13.30</speed><time>2016-06-29T10:47:17Z</time><pdop>7.0</pdop><geoidheight>54.00</geoidheight><course>69.4</course><type>1</type></trkpt>
      <trkpt lat="40.42713646" lon="-5.29617166"><ele>2009</ele><speed>14.47</speed><time>2016-06-29T10:47:18Z</time><pdop>7.0</pdop><geoidheight>54.00</geoidheight><course>66.5</course><type>1</type></trkpt>
      <trkpt lat="40.42718354" lon="-5.29602144"><ele>2008</ele><speed>14.02</speed><time>2016-06-29T10:47:19Z</time><pdop>6.0</pdop><geoidheight>54.00</geoidheight><course>62.0</course><type>1</type></trkpt>
      <trkpt lat="40.42727988" lon="-5.29592011"><ele>2006</ele><speed>13.13</speed><time>2016-06-29T10:47:20Z</time><pdop>5.0</pdop><geoidheight>54.00</geoidheight><course>42.4</course><type>1</type></trkpt>
      <trkpt lat="40.42736852" lon="-5.29585129"><ele>2004</ele><speed>11.69</speed><time>2016-06-29T10:47:21Z</time><pdop>6.0</pdop><geoidheight>54.00</geoidheight><course>33.9</course><type>1</type></trkpt>
      <trkpt lat="40.42754433" lon="-5.29584419"><ele>2001</ele><speed>8.68</speed><time>2016-06-29T10:47:23Z</time><pdop>6.0</pdop><geoidheight>54.00</geoidheight><course>6.2</course><type>1</type></trkpt>
      <trkpt lat="40.42768185" lon="-5.29589054"><ele>2001</ele><speed>7.60</speed><time>2016-06-29T10:47:25Z</time><pdop>6.0</pdop><geoidheight>54.00</geoidheight><course>349.7</course><type>1</type></trkpt>
      <trkpt lat="40.42781374" lon="-5.2959328"><ele>2001</ele><speed>7.61</speed><time>2016-06-29T10:47:27Z</time><pdop>9.0</pdop><geoidheight>54.00</geoidheight><course>347.6</course><type>1</type></trkpt>
      <trkpt lat="40.42801825" lon="-5.29603219"><ele>2001</ele><speed>10.34</speed><time>2016-06-29T10:47:29Z</time><pdop>13.0</pdop><geoidheight>54.00</geoidheight><course>340.4</course><type>1</type></trkpt>
      <trkpt lat="40.42822719" lon="-5.29607382"><ele>1998</ele><speed>7.72</speed><time>2016-06-29T10:47:32Z</time><pdop>6.0</pdop><geoidheight>54.00</geoidheight><course>354.3</course><type>1</type></trkpt>
      <trkpt lat="40.42838068" lon="-5.29608217"><ele>1997</ele><speed>8.48</speed><time>2016-06-29T10:47:34Z</time><pdop>8.0</pdop><geoidheight>54.00</geoidheight><course>353.0</course><type>1</type></trkpt>
      <trkpt lat="40.42860809" lon="-5.29616635"><ele>1996</ele><speed>10.78</speed><time>2016-06-29T10:47:36Z</time><pdop>7.0</pdop><geoidheight>54.00</geoidheight><course>344.8</course><type>1</type></trkpt>
      <trkpt lat="40.42876777" lon="-5.29623045"><ele>1994</ele><speed>8.97</speed><time>2016-06-29T10:47:38Z</time><pdop>6.0</pdop><geoidheight>54.00</geoidheight><course>353.5</course><type>1</type></trkpt>
      <trkpt lat="40.42892799" lon="-5.2962232"><ele>1990</ele><speed>8.79</speed><time>2016-06-29T10:47:40Z</time><pdop>5.0</pdop><geoidheight>54.00</geoidheight><course>4.0</course><type>1</type></trkpt>
      <trkpt lat="40.42908421" lon="-5.29624323"><ele>1987</ele><speed>9.15</speed><time>2016-06-29T10:47:42Z</time><pdop>5.0</pdop><geoidheight>54.00</geoidheight><course>355.2</course><type>1</type></trkpt>
      <trkpt lat="40.42928462" lon="-5.29626671"><ele>1986</ele><speed>10.26</speed><time>2016-06-29T10:47:44Z</time><pdop>7.0</pdop><geoidheight>54.00</geoidheight><course>353.2</course><type>1</type></trkpt>
      <trkpt lat="40.42945139" lon="-5.29631163"><ele>1984</ele><speed>9.32</speed><time>2016-06-29T10:47:46Z</time><pdop>5.0</pdop><geoidheight>54.00</geoidheight><course>356.8</course><type>1</type></trkpt>
      <trkpt lat="40.42954094" lon="-5.29632656"><ele>1983</ele><speed>9.68</speed><time>2016-06-29T10:47:47Z</time><pdop>4.0</pdop><geoidheight>54.00</geoidheight><course>357.3</course><type>1</type></trkpt>
      <trkpt lat="40.42963326" lon="-5.29631953"><ele>1980</ele><speed>10.04</speed><time>2016-06-29T10:47:48Z</time><pdop>4.0</pdop><geoidheight>54.00</geoidheight><course>357.9</course><type>1</type></trkpt>
      <trkpt lat="40.42971801" lon="-5.29631403"><ele>1978</ele><speed>10.27</speed><time>2016-06-29T10:47:49Z</time><pdop>4.0</pdop><geoidheight>54.00</geoidheight><course>358.2</course><type>1</type></trkpt>
      <trkpt lat="40.42981771" lon="-5.29632205"><ele>1978</ele><speed>9.92</speed><time>2016-06-29T10:47:50Z</time><pdop>4.0</pdop><geoidheight>54.00</geoidheight><course>359.2</course><type>1</type></trkpt>
      <trkpt lat="40.42989195" lon="-5.29633584"><ele>1978</ele><speed>9.38</speed><time>2016-06-29T10:47:51Z</time><pdop>4.0</pdop><geoidheight>54.00</geoidheight><course>357.5</course><type>1</type></trkpt>
      <trkpt lat="40.42997572" lon="-5.2963463"><ele>1978</ele><speed>9.38</speed><time>2016-06-29T10:47:52Z</time><pdop>4.0</pdop><geoidheight>54.00</geoidheight><course>356.2</course><type>1</type></trkpt>
      <trkpt lat="40.43012884" lon="-5.29631068"><ele>1974</ele><speed>9.54</speed><time>2016-06-29T10:47:54Z</time><pdop>5.0</pdop><geoidheight>54.00</geoidheight><course>10.3</course><type>1</type></trkpt>
      <trkpt lat="40.43032797" lon="-5.29626336"><ele>1973</ele><speed>10.76</speed><time>2016-06-29T10:47:56Z</time><pdop>7.0</pdop><geoidheight>54.00</geoidheight><course>12.5</course><type>1</type></trkpt>
      <trkpt lat="40.43048677" lon="-5.29620858"><ele>1973</ele><speed>9.61</speed><time>2016-06-29T10:47:58Z</time><pdop>10.0</pdop><geoidheight>54.00</geoidheight><course>12.5</course><type>1</type></trkpt>
      <trkpt lat="40.43065652" lon="-5.29615013"><ele>1973</ele><speed>9.34</speed><time>2016-06-29T10:48:00Z</time><pdop>8.0</pdop><geoidheight>54.00</geoidheight><course>15.9</course><type>1</type></trkpt>
      <trkpt lat="40.43087573" lon="-5.29609203"><ele>1971</ele><speed>10.83</speed><time>2016-06-29T10:48:02Z</time><pdop>7.0</pdop><geoidheight>54.00</geoidheight><course>7.8</course><type>1</type></trkpt>
      <trkpt lat="40.43103199" lon="-5.29607149"><ele>1972</ele><speed>9.88</speed><time>2016-06-29T10:48:04Z</time><pdop>6.0</pdop><geoidheight>54.00</geoidheight><course>4.7</course><type>1</type></trkpt>
      <trkpt lat="40.43120446" lon="-5.29602776"><ele>1974</ele><speed>8.99</speed><time>2016-06-29T10:48:06Z</time><pdop>5.0</pdop><geoidheight>54.00</geoidheight><course>9.5</course><type>1</type></trkpt>
      <trkpt lat="40.43134273" lon="-5.29600483"><ele>1975</ele><speed>8.03</speed><time>2016-06-29T10:48:08Z</time><pdop>6.0</pdop><geoidheight>54.00</geoidheight><course>9.5</course><type>1</type></trkpt>
      <trkpt lat="40.43146528" lon="-5.29598312"><ele>1975</ele><speed>7.02</speed><time>2016-06-29T10:48:10Z</time><pdop>5.0</pdop><geoidheight>54.00</geoidheight><course>7.7</course><type>1</type></trkpt>
      <trkpt lat="40.43158589" lon="-5.29598703"><ele>1977</ele><speed>6.16</speed><time>2016-06-29T10:48:12Z</time><pdop>4.0</pdop><geoidheight>54.00</geoidheight><course>1.8</course><type>1</type></trkpt>
      <trkpt lat="40.4316823" lon="-5.29598614"><ele>1979</ele><speed>6.18</speed><time>2016-06-29T10:48:14Z</time><pdop>4.0</pdop><geoidheight>54.00</geoidheight><course>3.1</course><type>1</type></trkpt>
      <trkpt lat="40.43180757" lon="-5.29596775"><ele>1978</ele><speed>7.44</speed><time>2016-06-29T10:48:16Z</time><pdop>4.0</pdop><geoidheight>54.00</geoidheight><course>8.5</course><type>1</type></trkpt>
      <trkpt lat="40.43193743" lon="-5.29593976"><ele>1977</ele><speed>7.51</speed><time>2016-06-29T10:48:18Z</time><pdop>4.0</pdop><geoidheight>54.00</geoidheight><course>9.2</course><type>1</type></trkpt>
      <trkpt lat="40.43206194" lon="-5.29590121"><ele>1977</ele><speed>7.16</speed><time>2016-06-29T10:48:20Z</time><pdop>7.0</pdop><geoidheight>54.00</geoidheight><course>12.4</course><type>1</type></trkpt>
      <trkpt lat="40.43226705" lon="-5.29581638"><ele>1977</ele><speed>7.45</speed><time>2016-06-29T10:48:23Z</time><pdop>13.0</pdop><geoidheight>54.00</geoidheight><course>15.3</course><type>1</type></trkpt>
      <trkpt lat="40.43228301" lon="-5.29607771"><ele>1982</ele><speed>3.60</speed><time>2016-06-29T10:48:26Z</time><pdop>6.0</pdop><geoidheight>54.00</geoidheight><course>311.2</course><type>1</type></trkpt>
      <trkpt lat="40.43228889" lon="-5.29620381"><ele>1983</ele><speed>4.47</speed><time>2016-06-29T10:48:28Z</time><pdop>4.0</pdop><geoidheight>54.00</geoidheight><course>274.1</course><type>1</type></trkpt>
      <trkpt lat="40.43231266" lon="-5.29630848"><ele>1984</ele><speed>5.48</speed><time>2016-06-29T10:48:30Z</time><pdop>3.0</pdop><geoidheight>54.00</geoidheight><course>279.9</course><type>1</type></trkpt>
      <trkpt lat="40.43233367" lon="-5.29642032"><ele>1984</ele><speed>5.61</speed><time>2016-06-29T10:48:32Z</time><pdop>3.0</pdop><geoidheight>54.00</geoidheight><course>293.4</course><type>1</type></trkpt>
      <trkpt lat="40.43240033" lon="-5.29650844"><ele>1985</ele><speed>5.71</speed><time>2016-06-29T10:48:34Z</time><pdop>3.0</pdop><geoidheight>54.00</geoidheight><course>320.0</course><type>1</type></trkpt>
      <trkpt lat="40.43251338" lon="-5.29657586"><ele>1983</ele><speed>7.41</speed><time>2016-06-29T10:48:36Z</time><pdop>3.0</pdop><geoidheight>54.00</geoidheight><course>336.3</course><type>1</type></trkpt>
      <trkpt lat="40.43259673" lon="-5.29658167"><ele>1984</ele><speed>8.60</speed><time>2016-06-29T10:48:37Z</time><pdop>3.0</pdop><geoidheight>54.00</geoidheight><course>351.0</course><type>1</type></trkpt>
      <trkpt lat="40.43268951" lon="-5.29655838"><ele>1985</ele><speed>10.44</speed><time>2016-06-29T10:48:38Z</time><pdop>3.0</pdop><geoidheight>54.00</geoidheight><course>7.4</course><type>1</type></trkpt>
      <trkpt lat="40.43278593" lon="-5.29651034"><ele>1985</ele><speed>11.23</speed><time>2016-06-29T10:48:39Z</time><pdop>3.0</pdop><geoidheight>54.00</geoidheight><course>17.5</course><type>1</type></trkpt>
      <trkpt lat="40.43286965" lon="-5.29646641"><ele>1987</ele><speed>10.42</speed><time>2016-06-29T10:48:40Z</time><pdop>3.0</pdop><geoidheight>54.00</geoidheight><course>22.6</course><type>1</type></trkpt>
      <trkpt lat="40.43294439" lon="-5.29641941"><ele>1989</ele><speed>9.26</speed><time>2016-06-29T10:48:41Z</time><pdop>3.0</pdop><geoidheight>54.00</geoidheight><course>25.3</course><type>1</type></trkpt>
      <trkpt lat="40.43300117" lon="-5.29635748"><ele>1989</ele><speed>8.76</speed><time>2016-06-29T10:48:42Z</time><pdop>3.0</pdop><geoidheight>54.00</geoidheight><course>34.1</course><type>1</type></trkpt>
      <trkpt lat="40.43305884" lon="-5.29628488"><ele>1987</ele><speed>9.48</speed><time>2016-06-29T10:48:43Z</time><pdop>3.0</pdop><geoidheight>54.00</geoidheight><course>46.0</course><type>1</type></trkpt>
      <trkpt lat="40.43311737" lon="-5.29617642"><ele>1986</ele><speed>11.52</speed><time>2016-06-29T10:48:44Z</time><pdop>3.0</pdop><geoidheight>54.00</geoidheight><course>54.8</course><type>1</type></trkpt>
      <trkpt lat="40.43316926" lon="-5.2960279"><ele>1985</ele><speed>13.70</speed><time>2016-06-29T10:48:45Z</time><pdop>3.0</pdop><geoidheight>54.00</geoidheight><course>63.3</course><type>1</type></trkpt>
      <trkpt lat="40.4332152" lon="-5.2958605"><ele>1985</ele><speed>14.98</speed><time>2016-06-29T10:48:46Z</time><pdop>3.0</pdop><geoidheight>54.00</geoidheight><course>67.8</course><type>1</type></trkpt>
      <trkpt lat="40.43320317" lon="-5.29567265"><ele>1985</ele><speed>15.09</speed><time>2016-06-29T10:48:47Z</time><pdop>4.0</pdop><geoidheight>54.00</geoidheight><course>83.5</course><type>1</type></trkpt>
      <trkpt lat="40.43319579" lon="-5.29550562"><ele>1984</ele><speed>14.53</speed><time>2016-06-29T10:48:48Z</time><pdop>4.0</pdop><geoidheight>54.00</geoidheight><course>87.3</course><type>1</type></trkpt>
      <trkpt lat="40.43314528" lon="-5.29534597"><ele>1983</ele><speed>14.11</speed><time>2016-06-29T10:48:49Z</time><pdop>5.0</pdop><geoidheight>54.00</geoidheight><course>97.3</course><type>1</type></trkpt>
      <trkpt lat="40.43300917" lon="-5.29524404"><ele>1984</ele><speed>13.70</speed><time>2016-06-29T10:48:50Z</time><pdop>5.0</pdop><geoidheight>54.00</geoidheight><course>121.4</course><type>1</type></trkpt>
      <trkpt lat="40.43288928" lon="-5.29521422"><ele>1987</ele><speed>12.36</speed><time>2016-06-29T10:48:51Z</time><pdop>4.0</pdop><geoidheight>54.00</geoidheight><course>146.8</course><type>1</type></trkpt>
      <trkpt lat="40.43277971" lon="-5.29516714"><ele>1988</ele><speed>11.69</speed><time>2016-06-29T10:48:52Z</time><pdop>4.0</pdop><geoidheight>54.00</geoidheight><course>152.0</course><type>1</type></trkpt>
      <trkpt lat="40.43267722" lon="-5.29512276"><ele>1988</ele><speed>11.09</speed><time>2016-06-29T10:48:53Z</time><pdop>4.0</pdop><geoidheight>54.00</geoidheight><course>159.8</course><type>1</type></trkpt>
      <trkpt lat="40.43258307" lon="-5.29510656"><ele>1988</ele><speed>10.96</speed><time>2016-06-29T10:48:54Z</time><pdop>3.0</pdop><geoidheight>54.00</geoidheight><course>171.1</course><type>1</type></trkpt>
      <trkpt lat="40.4324786" lon="-5.29510811"><ele>1989</ele><speed>10.62</speed><time>2016-06-29T10:48:55Z</time><pdop>3.0</pdop><geoidheight>54.00</geoidheight><course>182.7</course><type>1</type></trkpt>
      <trkpt lat="40.43239805" lon="-5.29514145"><ele>1990</ele><speed>9.65</speed><time>2016-06-29T10:48:56Z</time><pdop>3.0</pdop><geoidheight>54.00</geoidheight><course>195.9</course><type>1</type></trkpt>
      <trkpt lat="40.43231678" lon="-5.29517351"><ele>1990</ele><speed>8.96</speed><time>2016-06-29T10:48:57Z</time><pdop>3.0</pdop><geoidheight>54.00</geoidheight><course>202.2</course><type>1</type></trkpt>
      <trkpt lat="40.43227847" lon="-5.29523438"><ele>1991</ele><speed>6.92</speed><time>2016-06-29T10:48:58Z</time><pdop>3.0</pdop><geoidheight>54.00</geoidheight><course>222.3</course><type>1</type></trkpt>
      <trkpt lat="40.43224042" lon="-5.29530074"><ele>1990</ele><speed>6.79</speed><time>2016-06-29T10:48:59Z</time><pdop>4.0</pdop><geoidheight>54.00</geoidheight><course>231.7</course><type>1</type></trkpt>
      <trkpt lat="40.43224287" lon="-5.29547233"><ele>1991</ele><speed>5.67</speed><time>2016-06-29T10:49:02Z</time><pdop>6.0</pdop><geoidheight>54.00</geoidheight><course>271.8</course><type>1</type></trkpt>
      <trkpt lat="40.43230607" lon="-5.29555707"><ele>1991</ele><speed>7.15</speed><time>2016-06-29T10:49:03Z</time><pdop>4.0</pdop><geoidheight>54.00</geoidheight><course>299.1</course><type>1</type></trkpt>
      <trkpt lat="40.43236723" lon="-5.2956952"><ele>1991</ele><speed>6.56</speed><time>2016-06-29T10:49:05Z</time><pdop>5.0</pdop><geoidheight>54.00</geoidheight><course>300.9</course><type>1</type></trkpt>
      <trkpt lat="40.43246101" lon="-5.29579307"><ele>1990</ele><speed>6.86</speed><time>2016-06-29T10:49:07Z</time><pdop>5.0</pdop><geoidheight>54.00</geoidheight><course>323.2</course><type>1</type></trkpt>
      <trkpt lat="40.43262593" lon="-5.29577655"><ele>1986</ele><speed>10.16</speed><time>2016-06-29T10:49:09Z</time><pdop>3.0</pdop><geoidheight>54.00</geoidheight><course>19.7</course><type>1</type></trkpt>
      <trkpt lat="40.43270371" lon="-5.29568669"><ele>1985</ele><speed>12.51</speed><time>2016-06-29T10:49:10Z</time><pdop>3.0</pdop><geoidheight>54.00</geoidheight><course>41.8</course><type>1</type></trkpt>
      <trkpt lat="40.43276824" lon="-5.29554057"><ele>1984</ele><speed>14.24</speed><time>2016-06-29T10:49:11Z</time><pdop>3.0</pdop><geoidheight>54.00</geoidheight><course>61.1</course><type>1</type></trkpt>
      <trkpt lat="40.43282093" lon="-5.29537637"><ele>1984</ele><speed>15.13</speed><time>2016-06-29T10:49:12Z</time><pdop>3.0</pdop><geoidheight>54.00</geoidheight><course>65.9</course><type>1</type></trkpt>
      <trkpt lat="40.43283454" lon="-5.29521397"><ele>1984</ele><speed>13.96</speed><time>2016-06-29T10:49:13Z</time><pdop>4.0</pdop><geoidheight>54.00</geoidheight><course>76.4</course><type>1</type></trkpt>
      <trkpt lat="40.43281858" lon="-5.29504694"><ele>1983</ele><speed>13.97</speed><time>2016-06-29T10:49:14Z</time><pdop>4.0</pdop><geoidheight>54.00</geoidheight><course>88.4</course><type>1</type></trkpt>
      <trkpt lat="40.43277424" lon="-5.29485388"><ele>1983</ele><speed>15.21</speed><time>2016-06-29T10:49:15Z</time><pdop>4.0</pdop><geoidheight>54.00</geoidheight><course>98.4</course><type>1</type></trkpt>
      <trkpt lat="40.43268432" lon="-5.29469045"><ele>1985</ele><speed>15.85</speed><time>2016-06-29T10:49:16Z</time><pdop>3.0</pdop><geoidheight>54.00</geoidheight><course>114.0</course><type>1</type></trkpt>
      <trkpt lat="40.4326078" lon="-5.29453995"><ele>1986</ele><speed>15.39</speed><time>2016-06-29T10:49:17Z</time><pdop>3.0</pdop><geoidheight>54.00</geoidheight><course>121.4</course><type>1</type></trkpt>
      <trkpt lat="40.43251596" lon="-5.29440571"><ele>1987</ele><speed>15.02</speed><time>2016-06-29T10:49:18Z</time><pdop>3.0</pdop><geoidheight>54.00</geoidheight><course>128.0</course><type>1</type></trkpt>
      <trkpt lat="40.43242186" lon="-5.29428352"><ele>1988</ele><speed>14.49</speed><time>2016-06-29T10:49:19Z</time><pdop>3.0</pdop><geoidheight>54.00</geoidheight><course>134.4</course><type>1</type></trkpt>
      <trkpt lat="40.43232919" lon="-5.29418921"><ele>1990</ele><speed>13.40</speed><time>2016-06-29T10:49:20Z</time><pdop>3.0</pdop><geoidheight>54.00</geoidheight><course>141.2</course><type>1</type></trkpt>
      <trkpt lat="40.43223298" lon="-5.29410812"><ele>1992</ele><speed>12.41</speed><time>2016-06-29T10:49:21Z</time><pdop>3.0</pdop><geoidheight>54.00</geoidheight><course>148.5</course><type>1</type></trkpt>
      <trkpt lat="40.43213464" lon="-5.29404662"><ele>1992</ele><speed>11.95</speed><time>2016-06-29T10:49:22Z</time><pdop>3.0</pdop><geoidheight>54.00</geoidheight><course>154.9</course><type>1</type></trkpt>
      <trkpt lat="40.43203564" lon="-5.29401216"><ele>1992</ele><speed>11.32</speed><time>2016-06-29T10:49:23Z</time><pdop>3.0</pdop><geoidheight>54.00</geoidheight><course>162.6</course><type>1</type></trkpt>
      <trkpt lat="40.43193982" lon="-5.29400917"><ele>1991</ele><speed>10.79</speed><time>2016-06-29T10:49:24Z</time><pdop>3.0</pdop><geoidheight>54.00</geoidheight><course>173.3</course><type>1</type></trkpt>
      <trkpt lat="40.43184241" lon="-5.29402234"><ele>1991</ele><speed>10.55</speed><time>2016-06-29T10:49:25Z</time><pdop>3.0</pdop><geoidheight>54.00</geoidheight><course>187.3</course><type>1</type></trkpt>
      <trkpt lat="40.43175883" lon="-5.2940821"><ele>1990</ele><speed>10.44</speed><time>2016-06-29T10:49:26Z</time><pdop>3.0</pdop><geoidheight>54.00</geoidheight><course>202.7</course><type>1</type></trkpt>
      <trkpt lat="40.43168048" lon="-5.29414597"><ele>1992</ele><speed>10.29</speed><time>2016-06-29T10:49:27Z</time><pdop>3.0</pdop><geoidheight>54.00</geoidheight><course>212.0</course><type>1</type></trkpt>
      <trkpt lat="40.43159065" lon="-5.29422437"><ele>1992</ele><speed>11.53</speed><time>2016-06-29T10:49:28Z</time><pdop>3.0</pdop><geoidheight>54.00</geoidheight><course>211.1</course><type>1</type></trkpt>
      <trkpt lat="40.43151002" lon="-5.29428499"><ele>1992</ele><speed>10.98</speed><time>2016-06-29T10:49:29Z</time><pdop>3.0</pdop><geoidheight>54.00</geoidheight><course>208.7</course><type>1</type></trkpt>
      <trkpt lat="40.43143696" lon="-5.29434692"><ele>1994</ele><speed>9.72</speed><time>2016-06-29T10:49:30Z</time><pdop>3.0</pdop><geoidheight>54.00</geoidheight><course>210.2</course><type>1</type></trkpt>
      <trkpt lat="40.43138221" lon="-5.29439687"><ele>1994</ele><speed>7.90</speed><time>2016-06-29T10:49:31Z</time><pdop>3.0</pdop><geoidheight>54.00</geoidheight><course>213.5</course><type>1</type></trkpt>
      <trkpt lat="40.43132102" lon="-5.2944911"><ele>1995</ele><speed>5.82</speed><time>2016-06-29T10:49:33Z</time><pdop>3.0</pdop><geoidheight>54.00</geoidheight><course>232.6</course><type>1</type></trkpt>
      <trkpt lat="40.43131981" lon="-5.29462353"><ele>1995</ele><speed>5.50</speed><time>2016-06-29T10:49:35Z</time><pdop>5.0</pdop><geoidheight>54.00</geoidheight><course>267.4</course><type>1</type></trkpt>
      <trkpt lat="40.43142424" lon="-5.29476119"><ele>1994</ele><speed>7.26</speed><time>2016-06-29T10:49:37Z</time><pdop>6.0</pdop><geoidheight>54.00</geoidheight><course>311.5</course><type>1</type></trkpt>
      <trkpt lat="40.43159726" lon="-5.29486016"><ele>1994</ele><speed>7.62</speed><time>2016-06-29T10:49:40Z</time><pdop>6.0</pdop><geoidheight>54.00</geoidheight><course>341.0</course><type>1</type></trkpt>
      <trkpt lat="40.43173001" lon="-5.29492055"><ele>1992</ele><speed>8.27</speed><time>2016-06-29T10:49:42Z</time><pdop>9.0</pdop><geoidheight>54.00</geoidheight><course>337.5</course><type>1</type></trkpt>
      <trkpt lat="40.4318602" lon="-5.29516529"><ele>1991</ele><speed>7.10</speed><time>2016-06-29T10:49:45Z</time><pdop>7.0</pdop><geoidheight>54.00</geoidheight><course>303.9</course><type>1</type></trkpt>
      <trkpt lat="40.43193942" lon="-5.29535838"><ele>1984</ele><speed>7.42</speed><time>2016-06-29T10:49:48Z</time><pdop>6.0</pdop><geoidheight>54.00</geoidheight><course>295.8</course><type>1</type></trkpt>
      <trkpt lat="40.43195726" lon="-5.29550484"><ele>1985</ele><speed>6.95</speed><time>2016-06-29T10:49:50Z</time><pdop>6.0</pdop><geoidheight>54.00</geoidheight><course>273.2</course><type>1</type></trkpt>
      <trkpt lat="40.43197867" lon="-5.29568998"><ele>1985</ele><speed>7.44</speed><time>2016-06-29T10:49:52Z</time><pdop>9.0</pdop><geoidheight>54.00</geoidheight><course>275.0</course><type>1</type></trkpt>
      <trkpt lat="40.4318276" lon="-5.29585145"><ele>1984</ele><speed>7.96</speed><time>2016-06-29T10:49:54Z</time><pdop>6.0</pdop><geoidheight>54.00</geoidheight><course>226.8</course><type>1</type></trkpt>
      <trkpt lat="40.43173512" lon="-5.29599944"><ele>1981</ele><speed>8.90</speed><time>2016-06-29T10:49:56Z</time><pdop>5.0</pdop><geoidheight>54.00</geoidheight><course>235.6</course><type>1</type></trkpt>
      <trkpt lat="40.43171149" lon="-5.29611951"><ele>1979</ele><speed>9.94</speed><time>2016-06-29T10:49:57Z</time><pdop>4.0</pdop><geoidheight>54.00</geoidheight><course>247.8</course><type>1</type></trkpt>
      <trkpt lat="40.43168001" lon="-5.29622567"><ele>1979</ele><speed>8.93</speed><time>2016-06-29T10:49:58Z</time><pdop>4.0</pdop><geoidheight>54.00</geoidheight><course>249.3</course><type>1</type></trkpt>
      <trkpt lat="40.43166034" lon="-5.29631762"><ele>1979</ele><speed>8.22</speed><time>2016-06-29T10:49:59Z</time><pdop>4.0</pdop><geoidheight>54.00</geoidheight><course>250.4</course><type>1</type></trkpt>
      <trkpt lat="40.43162074" lon="-5.29650803"><ele>1977</ele><speed>8.17</speed><time>2016-06-29T10:50:01Z</time><pdop>4.0</pdop><geoidheight>54.00</geoidheight><course>249.8</course><type>1</type></trkpt>
      <trkpt lat="40.43158576" lon="-5.29659277"><ele>1975</ele><speed>8.09</speed><time>2016-06-29T10:50:02Z</time><pdop>4.0</pdop><geoidheight>54.00</geoidheight><course>245.0</course><type>1</type></trkpt>
      <trkpt lat="40.43151072" lon="-5.29670066"><ele>1973</ele><speed>6.74</speed><time>2016-06-29T10:50:04Z</time><pdop>5.0</pdop><geoidheight>54.00</geoidheight><course>229.1</course><type>1</type></trkpt>
      <trkpt lat="40.43137105" lon="-5.29679714"><ele>1973</ele><speed>7.83</speed><time>2016-06-29T10:50:06Z</time><pdop>5.0</pdop><geoidheight>54.00</geoidheight><course>210.3</course><type>1</type></trkpt>
      <trkpt lat="40.43119042" lon="-5.29683963"><ele>1972</ele><speed>9.98</speed><time>2016-06-29T10:50:08Z</time><pdop>4.0</pdop><geoidheight>54.00</geoidheight><course>187.9</course><type>1</type></trkpt>
      <trkpt lat="40.43110122" lon="-5.29684271"><ele>1972</ele><speed>10.24</speed><time>2016-06-29T10:50:09Z</time><pdop>4.0</pdop><geoidheight>54.00</geoidheight><course>181.7</course><type>1</type></trkpt>
      <trkpt lat="40.43100251" lon="-5.2968371"><ele>1970</ele><speed>9.54</speed><time>2016-06-29T10:50:10Z</time><pdop>4.0</pdop><geoidheight>54.00</geoidheight><course>180.3</course><type>1</type></trkpt>
      <trkpt lat="40.43084993" lon="-5.29685259"><ele>1966</ele><speed>8.20</speed><time>2016-06-29T10:50:12Z</time><pdop>4.0</pdop><geoidheight>54.00</geoidheight><course>187.7</course><type>1</type></trkpt>
      <trkpt lat="40.4307707" lon="-5.29687306"><ele>1966</ele><speed>8.77</speed><time>2016-06-29T10:50:13Z</time><pdop>3.0</pdop><geoidheight>54.00</geoidheight><course>191.0</course><type>1</type></trkpt>
      <trkpt lat="40.43068268" lon="-5.29689597"><ele>1964</ele><speed>9.37</speed><time>2016-06-29T10:50:14Z</time><pdop>3.0</pdop><geoidheight>54.00</geoidheight><course>193.9</course><type>1</type></trkpt>
      <trkpt lat="40.43060354" lon="-5.29694443"><ele>1964</ele><speed>9.75</speed><time>2016-06-29T10:50:15Z</time><pdop>3.0</pdop><geoidheight>54.00</geoidheight><course>200.5</course><type>1</type></trkpt>
      <trkpt lat="40.43052903" lon="-5.29699479"><ele>1964</ele><speed>9.37</speed><time>2016-06-29T10:50:16Z</time><pdop>3.0</pdop><geoidheight>54.00</geoidheight><course>206.2</course><type>1</type></trkpt>
      <trkpt lat="40.43045214" lon="-5.2970401"><ele>1963</ele><speed>9.12</speed><time>2016-06-29T10:50:17Z</time><pdop>3.0</pdop><geoidheight>54.00</geoidheight><course>203.7</course><type>1</type></trkpt>
      <trkpt lat="40.43037709" lon="-5.29706655"><ele>1962</ele><speed>9.07</speed><time>2016-06-29T10:50:18Z</time><pdop>3.0</pdop><geoidheight>54.00</geoidheight><course>198.3</course><type>1</type></trkpt>
      <trkpt lat="40.43029847" lon="-5.29710636"><ele>1962</ele><speed>9.28</speed><time>2016-06-29T10:50:19Z</time><pdop>3.0</pdop><geoidheight>54.00</geoidheight><course>198.6</course><type>1</type></trkpt>
      <trkpt lat="40.43022237" lon="-5.29715355"><ele>1962</ele><speed>9.44</speed><time>2016-06-29T10:50:20Z</time><pdop>3.0</pdop><geoidheight>54.00</geoidheight><course>202.5</course><type>1</type></trkpt>
      <trkpt lat="40.4301434" lon="-5.29720124"><ele>1963</ele><speed>9.58</speed><time>2016-06-29T10:50:21Z</time><pdop>3.0</pdop><geoidheight>54.00</geoidheight><course>205.9</course><type>1</type></trkpt>
      <trkpt lat="40.43005729" lon="-5.29726224"><ele>1962</ele><speed>10.13</speed><time>2016-06-29T10:50:22Z</time><pdop>3.0</pdop><geoidheight>54.00</geoidheight><course>207.6</course><type>1</type></trkpt>
      <trkpt lat="40.42998033" lon="-5.29732438"><ele>1962</ele><speed>10.26</speed><time>2016-06-29T10:50:23Z</time><pdop>3.0</pdop><geoidheight>54.00</geoidheight><course>207.9</course><type>1</type></trkpt>
      <trkpt lat="40.42990292" lon="-5.29737541"><ele>1964</ele><speed>9.99</speed><time>2016-06-29T10:50:24Z</time><pdop>3.0</pdop><geoidheight>54.00</geoidheight><course>208.4</course><type>1</type></trkpt>
      <trkpt lat="40.42982902" lon="-5.29742125"><ele>1965</ele><speed>9.47</speed><time>2016-06-29T10:50:25Z</time><pdop>3.0</pdop><geoidheight>54.00</geoidheight><course>205.9</course><type>1</type></trkpt>
      <trkpt lat="40.42974472" lon="-5.29745484"><ele>1966</ele><speed>9.61</speed><time>2016-06-29T10:50:26Z</time><pdop>3.0</pdop><geoidheight>54.00</geoidheight><course>198.6</course><type>1</type></trkpt>
      <trkpt lat="40.42964915" lon="-5.29748435"><ele>1965</ele><speed>10.61</speed><time>2016-06-29T10:50:27Z</time><pdop>3.0</pdop><geoidheight>54.00</geoidheight><course>192.1</course><type>1</type></trkpt>
      <trkpt lat="40.42954186" lon="-5.29750428"><ele>1964</ele><speed>11.62</speed><time>2016-06-29T10:50:28Z</time><pdop>3.0</pdop><geoidheight>54.00</geoidheight><course>189.9</course><type>1</type></trkpt>
      <trkpt lat="40.42943349" lon="-5.2975359"><ele>1964</ele><speed>12.00</speed><time>2016-06-29T10:50:29Z</time><pdop>3.0</pdop><geoidheight>54.00</geoidheight><course>190.3</course><type>1</type></trkpt>
      <trkpt lat="40.4293308" lon="-5.29756529"><ele>1965</ele><speed>11.85</speed><time>2016-06-29T10:50:30Z</time><pdop>3.0</pdop><geoidheight>54.00</geoidheight><course>191.7</course><type>1</type></trkpt>
      <trkpt lat="40.42922831" lon="-5.29758678"><ele>1964</ele><speed>11.40</speed><time>2016-06-29T10:50:31Z</time><pdop>3.0</pdop><geoidheight>54.00</geoidheight><course>190.6</course><type>1</type></trkpt>
      <trkpt lat="40.42913264" lon="-5.29760231"><ele>1965</ele><speed>11.01</speed><time>2016-06-29T10:50:32Z</time><pdop>3.0</pdop><geoidheight>54.00</geoidheight><course>187.1</course><type>1</type></trkpt>
      <trkpt lat="40.42903856" lon="-5.29762056"><ele>1965</ele><speed>10.95</speed><time>2016-06-29T10:50:33Z</time><pdop>3.0</pdop><geoidheight>54.00</geoidheight><course>186.8</course><type>1</type></trkpt>
      <trkpt lat="40.42893834" lon="-5.2976471"><ele>1965</ele><speed>11.26</speed><time>2016-06-29T10:50:34Z</time><pdop>3.0</pdop><geoidheight>54.00</geoidheight><course>190.0</course><type>1</type></trkpt>
      <trkpt lat="40.42883661" lon="-5.29767689"><ele>1966</ele><speed>11.37</speed><time>2016-06-29T10:50:35Z</time><pdop>3.0</pdop><geoidheight>54.00</geoidheight><course>192.5</course><type>1</type></trkpt>
      <trkpt lat="40.42874036" lon="-5.29770356"><ele>1966</ele><speed>10.98</speed><time>2016-06-29T10:50:36Z</time><pdop>3.0</pdop><geoidheight>54.00</geoidheight><course>192.5</course><type>1</type></trkpt>
      <trkpt lat="40.42865088" lon="-5.29773374"><ele>1965</ele><speed>10.35</speed><time>2016-06-29T10:50:37Z</time><pdop>3.0</pdop><geoidheight>54.00</geoidheight><course>194.0</course><type>1</type></trkpt>
      <trkpt lat="40.42856223" lon="-5.29776719"><ele>1965</ele><speed>10.07</speed><time>2016-06-29T10:50:38Z</time><pdop>3.0</pdop><geoidheight>54.00</geoidheight><course>196.5</course><type>1</type></trkpt>
      <trkpt lat="40.42847343" lon="-5.2978025"><ele>1965</ele><speed>10.19</speed><time>2016-06-29T10:50:39Z</time><pdop>3.0</pdop><geoidheight>54.00</geoidheight><course>196.3</course><type>1</type></trkpt>
      <trkpt lat="40.42837256" lon="-5.29783068"><ele>1964</ele><speed>10.80</speed><time>2016-06-29T10:50:40Z</time><pdop>3.0</pdop><geoidheight>54.00</geoidheight><course>193.2</course><type>1</type></trkpt>
      <trkpt lat="40.42827008" lon="-5.29785895"><ele>1963</ele><speed>11.71</speed><time>2016-06-29T10:50:41Z</time><pdop>3.0</pdop><geoidheight>54.00</geoidheight><course>191.2</course><type>1</type></trkpt>
      <trkpt lat="40.42816418" lon="-5.29788628"><ele>1963</ele><speed>12.31</speed><time>2016-06-29T10:50:42Z</time><pdop>3.0</pdop><geoidheight>54.00</geoidheight><course>191.2</course><type>1</type></trkpt>
      <trkpt lat="40.42805599" lon="-5.29791601"><ele>1963</ele><speed>12.40</speed><time>2016-06-29T10:50:43Z</time><pdop>3.0</pdop><geoidheight>54.00</geoidheight><course>190.8</course><type>1</type></trkpt>
      <trkpt lat="40.42794633" lon="-5.29793966"><ele>1964</ele><speed>12.12</speed><time>2016-06-29T10:50:44Z</time><pdop>3.0</pdop><geoidheight>54.00</geoidheight><course>189.3</course><type>1</type></trkpt>
      <trkpt lat="40.42784669" lon="-5.2979677"><ele>1963</ele><speed>11.05</speed><time>2016-06-29T10:50:45Z</time><pdop>3.0</pdop><geoidheight>54.00</geoidheight><course>189.8</course><type>1</type></trkpt>
      <trkpt lat="40.4277539" lon="-5.29798831"><ele>1962</ele><speed>10.44</speed><time>2016-06-29T10:50:46Z</time><pdop>3.0</pdop><geoidheight>54.00</geoidheight><course>192.1</course><type>1</type></trkpt>
      <trkpt lat="40.4276598" lon="-5.29801678"><ele>1962</ele><speed>10.69</speed><time>2016-06-29T10:50:47Z</time><pdop>3.0</pdop><geoidheight>54.00</geoidheight><course>195.0</course><type>1</type></trkpt>
      <trkpt lat="40.42755203" lon="-5.29805116"><ele>1961</ele><speed>11.63</speed><time>2016-06-29T10:50:48Z</time><pdop>3.0</pdop><geoidheight>54.00</geoidheight><course>195.7</course><type>1</type></trkpt>
      <trkpt lat="40.42745209" lon="-5.29809622"><ele>1960</ele><speed>11.76</speed><time>2016-06-29T10:50:49Z</time><pdop>4.0</pdop><geoidheight>54.00</geoidheight><course>199.6</course><type>1</type></trkpt>
      <trkpt lat="40.42736374" lon="-5.2981452"><ele>1960</ele><speed>11.62</speed><time>2016-06-29T10:50:50Z</time><pdop>4.0</pdop><geoidheight>54.00</geoidheight><course>203.5</course><type>1</type></trkpt>
      <trkpt lat="40.42726881" lon="-5.29819978"><ele>1959</ele><speed>11.24</speed><time>2016-06-29T10:50:51Z</time><pdop>4.0</pdop><geoidheight>54.00</geoidheight><course>204.7</course><type>1</type></trkpt>
      <trkpt lat="40.42718035" lon="-5.29825101"><ele>1960</ele><speed>10.87</speed><time>2016-06-29T10:50:52Z</time><pdop>4.0</pdop><geoidheight>54.00</geoidheight><course>202.9</course><type>1</type></trkpt>
      <trkpt lat="40.42709795" lon="-5.29828617"><ele>1960</ele><speed>10.60</speed><time>2016-06-29T10:50:53Z</time><pdop>4.0</pdop><geoidheight>54.00</geoidheight><course>199.6</course><type>1</type></trkpt>
      <trkpt lat="40.42699322" lon="-5.29833509"><ele>1962</ele><speed>10.94</speed><time>2016-06-29T10:50:54Z</time><pdop>5.0</pdop><geoidheight>54.00</geoidheight><course>196.1</course><type>1</type></trkpt>
      <trkpt lat="40.42689418" lon="-5.2983548"><ele>1961</ele><speed>10.75</speed><time>2016-06-29T10:50:55Z</time><pdop>4.0</pdop><geoidheight>54.00</geoidheight><course>188.5</course><type>1</type></trkpt>
      <trkpt lat="40.42679026" lon="-5.29835542"><ele>1963</ele><speed>10.91</speed><time>2016-06-29T10:50:56Z</time><pdop>4.0</pdop><geoidheight>54.00</geoidheight><course>180.4</course><type>1</type></trkpt>
      <trkpt lat="40.42668456" lon="-5.29834303"><ele>1963</ele><speed>11.28</speed><time>2016-06-29T10:50:57Z</time><pdop>4.0</pdop><geoidheight>54.00</geoidheight><course>174.5</course><type>1</type></trkpt>
      <trkpt lat="40.42658809" lon="-5.29832435"><ele>1963</ele><speed>11.77</speed><time>2016-06-29T10:50:58Z</time><pdop>4.0</pdop><geoidheight>54.00</geoidheight><course>170.7</course><type>1</type></trkpt>
      <trkpt lat="40.42647708" lon="-5.29829777"><ele>1964</ele><speed>11.98</speed><time>2016-06-29T10:50:59Z</time><pdop>4.0</pdop><geoidheight>54.00</geoidheight><course>171.1</course><type>1</type></trkpt>
      <trkpt lat="40.42637235" lon="-5.29828884"><ele>1964</ele><speed>11.70</speed><time>2016-06-29T10:51:00Z</time><pdop>4.0</pdop><geoidheight>54.00</geoidheight><course>173.8</course><type>1</type></trkpt>
      <trkpt lat="40.4262637" lon="-5.2982827"><ele>1963</ele><speed>11.66</speed><time>2016-06-29T10:51:01Z</time><pdop>4.0</pdop><geoidheight>54.00</geoidheight><course>175.9</course><type>1</type></trkpt>
      <trkpt lat="40.42617305" lon="-5.29828353"><ele>1963</ele><speed>11.04</speed><time>2016-06-29T10:51:02Z</time><pdop>4.0</pdop><geoidheight>54.00</geoidheight><course>180.1</course><type>1</type></trkpt>
      <trkpt lat="40.42607751" lon="-5.29828894"><ele>1965</ele><speed>11.15</speed><time>2016-06-29T10:51:03Z</time><pdop>4.0</pdop><geoidheight>54.00</geoidheight><course>182.5</course><type>1</type></trkpt>
      <trkpt lat="40.42598236" lon="-5.29829989"><ele>1965</ele><speed>11.03</speed><time>2016-06-29T10:51:04Z</time><pdop>4.0</pdop><geoidheight>54.00</geoidheight><course>183.8</course><type>1</type></trkpt>
      <trkpt lat="40.42589304" lon="-5.29830952"><ele>1967</ele><speed>10.67</speed><time>2016-06-29T10:51:05Z</time><pdop>4.0</pdop><geoidheight>54.00</geoidheight><course>183.7</course><type>1</type></trkpt>
      <trkpt lat="40.42579137" lon="-5.29830664"><ele>1968</ele><speed>10.16</speed><time>2016-06-29T10:51:06Z</time><pdop>3.0</pdop><geoidheight>54.00</geoidheight><course>183.3</course><type>1</type></trkpt>
      <trkpt lat="40.42571657" lon="-5.2983317"><ele>1969</ele><speed>9.37</speed><time>2016-06-29T10:51:07Z</time><pdop>4.0</pdop><geoidheight>54.00</geoidheight><course>191.4</course><type>1</type></trkpt>
      <trkpt lat="40.42564886" lon="-5.29837726"><ele>1969</ele><speed>8.53</speed><time>2016-06-29T10:51:08Z</time><pdop>4.0</pdop><geoidheight>54.00</geoidheight><course>204.9</course><type>1</type></trkpt>
      <trkpt lat="40.42557396" lon="-5.29851437"><ele>1969</ele><speed>7.06</speed><time>2016-06-29T10:51:10Z</time><pdop>5.0</pdop><geoidheight>54.00</geoidheight><course>233.0</course><type>1</type></trkpt>
      <trkpt lat="40.42566241" lon="-5.29863109"><ele>1968</ele><speed>5.57</speed><time>2016-06-29T10:51:12Z</time><pdop>4.0</pdop><geoidheight>54.00</geoidheight><course>310.7</course><type>1</type></trkpt>
      <trkpt lat="40.42573187" lon="-5.29859401"><ele>1968</ele><speed>6.77</speed><time>2016-06-29T10:51:13Z</time><pdop>3.0</pdop><geoidheight>54.00</geoidheight><course>13.0</course><type>1</type></trkpt>
      <trkpt lat="40.42579574" lon="-5.29853637"><ele>1969</ele><speed>7.54</speed><time>2016-06-29T10:51:14Z</time><pdop>3.0</pdop><geoidheight>54.00</geoidheight><course>34.3</course><type>1</type></trkpt>
      <trkpt lat="40.42585241" lon="-5.29846962"><ele>1969</ele><speed>8.12</speed><time>2016-06-29T10:51:15Z</time><pdop>4.0</pdop><geoidheight>54.00</geoidheight><course>44.2</course><type>1</type></trkpt>
      <trkpt lat="40.42590855" lon="-5.29840109"><ele>1969</ele><speed>8.18</speed><time>2016-06-29T10:51:16Z</time><pdop>4.0</pdop><geoidheight>54.00</geoidheight><course>43.6</course><type>1</type></trkpt>
      <trkpt lat="40.42600622" lon="-5.29832908"><ele>1968</ele><speed>7.25</speed><time>2016-06-29T10:51:18Z</time><pdop>4.0</pdop><geoidheight>54.00</geoidheight><course>19.2</course><type>1</type></trkpt>
      <trkpt lat="40.42615913" lon="-5.29828325"><ele>1968</ele><speed>8.02</speed><time>2016-06-29T10:51:20Z</time><pdop>7.0</pdop><geoidheight>54.00</geoidheight><course>12.9</course><type>1</type></trkpt>
      <trkpt lat="40.42623035" lon="-5.29842196"><ele>1969</ele><speed>4.71</speed><time>2016-06-29T10:51:23Z</time><pdop>7.0</pdop><geoidheight>54.00</geoidheight><course>319.9</course><type>1</type></trkpt>
      <trkpt lat="40.42633234" lon="-5.29856509"><ele>1970</ele><speed>3.63</speed><time>2016-06-29T10:51:27Z</time><pdop>6.0</pdop><geoidheight>54.00</geoidheight><course>329.1</course><type>1</type></trkpt>
      <trkpt lat="40.42636552" lon="-5.2986883"><ele>1969</ele><speed>4.88</speed><time>2016-06-29T10:51:29Z</time><pdop>5.0</pdop><geoidheight>54.00</geoidheight><course>292.8</course><type>1</type></trkpt>
      <trkpt lat="40.42631622" lon="-5.29887968"><ele>1972</ele><speed>5.45</speed><time>2016-06-29T10:51:32Z</time><pdop>10.0</pdop><geoidheight>54.00</geoidheight><course>254.8</course><type>1</type></trkpt>
      <trkpt lat="40.42608668" lon="-5.29900593"><ele>1973</ele><speed>8.59</speed><time>2016-06-29T10:51:34Z</time><pdop>7.0</pdop><geoidheight>54.00</geoidheight><course>192.5</course><type>1</type></trkpt>
      <trkpt lat="40.42597473" lon="-5.29905649"><ele>1975</ele><speed>9.38</speed><time>2016-06-29T10:51:35Z</time><pdop>6.0</pdop><geoidheight>54.00</geoidheight><course>192.8</course><type>1</type></trkpt>
      <trkpt lat="40.42582706" lon="-5.29913163"><ele>1975</ele><speed>8.36</speed><time>2016-06-29T10:51:37Z</time><pdop>5.0</pdop><geoidheight>54.00</geoidheight><course>207.8</course><type>1</type></trkpt>
      <trkpt lat="40.42577363" lon="-5.29925037"><ele>1975</ele><speed>5.36</speed><time>2016-06-29T10:51:39Z</time><pdop>5.0</pdop><geoidheight>54.00</geoidheight><course>247.1</course><type>1</type></trkpt>
      <trkpt lat="40.42577619" lon="-5.29940434"><ele>1975</ele><speed>5.37</speed><time>2016-06-29T10:51:41Z</time><pdop>3.0</pdop><geoidheight>54.00</geoidheight><course>276.4</course><type>1</type></trkpt>
      <trkpt lat="40.42579256" lon="-5.29950451"><ele>1976</ele><speed>4.42</speed><time>2016-06-29T10:51:43Z</time><pdop>3.0</pdop><geoidheight>54.00</geoidheight><course>281.3</course><type>1</type></trkpt>
      <trkpt lat="40.42580751" lon="-5.29961726"><ele>1975</ele><speed>4.79</speed><time>2016-06-29T10:51:45Z</time><pdop>3.0</pdop><geoidheight>54.00</geoidheight><course>285.2</course><type>1</type></trkpt>
      <trkpt lat="40.42584384" lon="-5.29973932"><ele>1972</ele><speed>6.14</speed><time>2016-06-29T10:51:47Z</time><pdop>3.0</pdop><geoidheight>54.00</geoidheight><course>292.9</course><type>1</type></trkpt>
      <trkpt lat="40.42586462" lon="-5.29981278"><ele>1970</ele><speed>6.97</speed><time>2016-06-29T10:51:48Z</time><pdop>3.0</pdop><geoidheight>54.00</geoidheight><course>292.3</course><type>1</type></trkpt>
      <trkpt lat="40.42588354" lon="-5.29988444"><ele>1969</ele><speed>7.14</speed><time>2016-06-29T10:51:49Z</time><pdop>3.0</pdop><geoidheight>54.00</geoidheight><course>290.9</course><type>1</type></trkpt>
      <trkpt lat="40.42590736" lon="-5.29995403"><ele>1970</ele><speed>6.86</speed><time>2016-06-29T10:51:50Z</time><pdop>3.0</pdop><geoidheight>54.00</geoidheight><course>291.1</course><type>1</type></trkpt>
      <trkpt lat="40.42592741" lon="-5.30002333"><ele>1970</ele><speed>6.26</speed><time>2016-06-29T10:51:51Z</time><pdop>3.0</pdop><geoidheight>54.00</geoidheight><course>291.3</course><type>1</type></trkpt>
      <trkpt lat="40.42594386" lon="-5.30009402"><ele>1970</ele><speed>6.13</speed><time>2016-06-29T10:51:52Z</time><pdop>3.0</pdop><geoidheight>54.00</geoidheight><course>293.6</course><type>1</type></trkpt>
      <trkpt lat="40.42600925" lon="-5.3002114"><ele>1969</ele><speed>6.39</speed><time>2016-06-29T10:51:54Z</time><pdop>4.0</pdop><geoidheight>54.00</geoidheight><course>305.3</course><type>1</type></trkpt>
      <trkpt lat="40.42607931" lon="-5.30034909"><ele>1968</ele><speed>7.08</speed><time>2016-06-29T10:51:56Z</time><pdop>5.0</pdop><geoidheight>54.00</geoidheight><course>305.9</course><type>1</type></trkpt>
      <trkpt lat="40.42613489" lon="-5.30047243"><ele>1969</ele><speed>6.29</speed><time>2016-06-29T10:51:58Z</time><pdop>5.0</pdop><geoidheight>54.00</geoidheight><course>301.3</course><type>1</type></trkpt>
      <trkpt lat="40.42621306" lon="-5.30057374"><ele>1968</ele><speed>6.64</speed><time>2016-06-29T10:52:00Z</time><pdop>5.0</pdop><geoidheight>54.00</geoidheight><course>317.0</course><type>1</type></trkpt>
      <trkpt lat="40.42630752" lon="-5.30068392"><ele>1969</ele><speed>7.09</speed><time>2016-06-29T10:52:02Z</time><pdop>5.0</pdop><geoidheight>54.00</geoidheight><course>319.1</course><type>1</type></trkpt>
      <trkpt lat="40.42639904" lon="-5.3007579"><ele>1970</ele><speed>6.20</speed><time>2016-06-29T10:52:04Z</time><pdop>5.0</pdop><geoidheight>54.00</geoidheight><course>322.0</course><type>1</type></trkpt>
      <trkpt lat="40.42651406" lon="-5.30076073"><ele>1973</ele><speed>6.41</speed><time>2016-06-29T10:52:06Z</time><pdop>6.0</pdop><geoidheight>54.00</geoidheight><course>3.1</course><type>1</type></trkpt>
      <trkpt lat="40.42664391" lon="-5.30075556"><ele>1977</ele><speed>7.44</speed><time>2016-06-29T10:52:08Z</time><pdop>4.0</pdop><geoidheight>54.00</geoidheight><course>18.0</course><type>1</type></trkpt>
      <trkpt lat="40.42676916" lon="-5.30074342"><ele>1979</ele><speed>6.75</speed><time>2016-06-29T10:52:10Z</time><pdop>5.0</pdop><geoidheight>54.00</geoidheight><course>6.4</course><type>1</type></trkpt>
      <trkpt lat="40.42688947" lon="-5.30075832"><ele>1978</ele><speed>6.66</speed><time>2016-06-29T10:52:12Z</time><pdop>8.0</pdop><geoidheight>54.00</geoidheight><course>355.6</course><type>1</type></trkpt>
      <trkpt lat="40.4269674" lon="-5.30104159"><ele>1979</ele><speed>4.93</speed><time>2016-06-29T10:52:16Z</time><pdop>13.0</pdop><geoidheight>54.00</geoidheight><course>293.3</course><type>1</type></trkpt>
      <trkpt lat="40.42709336" lon="-5.30128933"><ele>1980</ele><speed>6.20</speed><time>2016-06-29T10:52:20Z</time><pdop>7.0</pdop><geoidheight>54.00</geoidheight><course>308.2</course><type>1</type></trkpt>
      <trkpt lat="40.42718222" lon="-5.30141149"><ele>1984</ele><speed>7.16</speed><time>2016-06-29T10:52:22Z</time><pdop>6.0</pdop><geoidheight>54.00</geoidheight><course>311.0</course><type>1</type></trkpt>
      <trkpt lat="40.42728469" lon="-5.30149814"><ele>1983</ele><speed>7.15</speed><time>2016-06-29T10:52:24Z</time><pdop>5.0</pdop><geoidheight>54.00</geoidheight><course>324.2</course><type>1</type></trkpt>
      <trkpt lat="40.42735796" lon="-5.30156976"><ele>1983</ele><speed>5.38</speed><time>2016-06-29T10:52:26Z</time><pdop>5.0</pdop><geoidheight>54.00</geoidheight><course>319.3</course><type>1</type></trkpt>
      <trkpt lat="40.42742296" lon="-5.30164695"><ele>1984</ele><speed>4.88</speed><time>2016-06-29T10:52:28Z</time><pdop>4.0</pdop><geoidheight>54.00</geoidheight><course>329.6</course><type>1</type></trkpt>
      <trkpt lat="40.42752415" lon="-5.30171294"><ele>1984</ele><speed>5.94</speed><time>2016-06-29T10:52:30Z</time><pdop>3.0</pdop><geoidheight>54.00</geoidheight><course>338.2</course><type>1</type></trkpt>
      <trkpt lat="40.42761015" lon="-5.30179021"><ele>1983</ele><speed>6.18</speed><time>2016-06-29T10:52:32Z</time><pdop>3.0</pdop><geoidheight>54.00</geoidheight><course>324.1</course><type>1</type></trkpt>
      <trkpt lat="40.42765645" lon="-5.30190858"><ele>1983</ele><speed>5.76</speed><time>2016-06-29T10:52:34Z</time><pdop>3.0</pdop><geoidheight>54.00</geoidheight><course>298.0</course><type>1</type></trkpt>
      <trkpt lat="40.42768198" lon="-5.30204749"><ele>1983</ele><speed>5.41</speed><time>2016-06-29T10:52:36Z</time><pdop>4.0</pdop><geoidheight>54.00</geoidheight><course>277.2</course><type>1</type></trkpt>
      <trkpt lat="40.42766224" lon="-5.30215775"><ele>1983</ele><speed>5.39</speed><time>2016-06-29T10:52:38Z</time><pdop>3.0</pdop><geoidheight>54.00</geoidheight><course>251.9</course><type>1</type></trkpt>
      <trkpt lat="40.42758362" lon="-5.30229495"><ele>1984</ele><speed>8.23</speed><time>2016-06-29T10:52:40Z</time><pdop>3.0</pdop><geoidheight>54.00</geoidheight><course>221.7</course><type>1</type></trkpt>
      <trkpt lat="40.42749558" lon="-5.30235334"><ele>1982</ele><speed>10.43</speed><time>2016-06-29T10:52:41Z</time><pdop>3.0</pdop><geoidheight>54.00</geoidheight><course>203.6</course><type>1</type></trkpt>
      <trkpt lat="40.42740841" lon="-5.30239048"><ele>1982</ele><speed>10.25</speed><time>2016-06-29T10:52:42Z</time><pdop>3.0</pdop><geoidheight>54.00</geoidheight><course>200.8</course><type>1</type></trkpt>
      <trkpt lat="40.42730111" lon="-5.30239795"><ele>1982</ele><speed>11.00</speed><time>2016-06-29T10:52:43Z</time><pdop>4.0</pdop><geoidheight>54.00</geoidheight><course>190.0</course><type>1</type></trkpt>
      <trkpt lat="40.42716774" lon="-5.30233657"><ele>1983</ele><speed>12.76</speed><time>2016-06-29T10:52:44Z</time><pdop>5.0</pdop><geoidheight>54.00</geoidheight><course>171.6</course><type>1</type></trkpt>
      <trkpt lat="40.42705558" lon="-5.30227485"><ele>1983</ele><speed>13.14</speed><time>2016-06-29T10:52:45Z</time><pdop>5.0</pdop><geoidheight>54.00</geoidheight><course>162.3</course><type>1</type></trkpt>
      <trkpt lat="40.42693412" lon="-5.30218614"><ele>1983</ele><speed>13.41</speed><time>2016-06-29T10:52:46Z</time><pdop>4.0</pdop><geoidheight>54.00</geoidheight><course>151.7</course><type>1</type></trkpt>
      <trkpt lat="40.42683169" lon="-5.30207265"><ele>1984</ele><speed>13.47</speed><time>2016-06-29T10:52:47Z</time><pdop>3.0</pdop><geoidheight>54.00</geoidheight><course>144.7</course><type>1</type></trkpt>
      <trkpt lat="40.42673726" lon="-5.30197056"><ele>1984</ele><speed>12.86</speed><time>2016-06-29T10:52:48Z</time><pdop>3.0</pdop><geoidheight>54.00</geoidheight><course>139.7</course><type>1</type></trkpt>
      <trkpt lat="40.42664947" lon="-5.3018795"><ele>1983</ele><speed>12.53</speed><time>2016-06-29T10:52:49Z</time><pdop>4.0</pdop><geoidheight>54.00</geoidheight><course>138.8</course><type>1</type></trkpt>
      <trkpt lat="40.42657825" lon="-5.30179404"><ele>1984</ele><speed>11.76</speed><time>2016-06-29T10:52:50Z</time><pdop>5.0</pdop><geoidheight>54.00</geoidheight><course>136.9</course><type>1</type></trkpt>
      <trkpt lat="40.4264878" lon="-5.30165852"><ele>1985</ele><speed>12.64</speed><time>2016-06-29T10:52:51Z</time><pdop>5.0</pdop><geoidheight>54.00</geoidheight><course>133.2</course><type>1</type></trkpt>
      <trkpt lat="40.42641517" lon="-5.3015065"><ele>1984</ele><speed>14.02</speed><time>2016-06-29T10:52:52Z</time><pdop>4.0</pdop><geoidheight>54.00</geoidheight><course>128.6</course><type>1</type></trkpt>
      <trkpt lat="40.42634368" lon="-5.30136094"><ele>1984</ele><speed>14.54</speed><time>2016-06-29T10:52:53Z</time><pdop>4.0</pdop><geoidheight>54.00</geoidheight><course>128.5</course><type>1</type></trkpt>
      <trkpt lat="40.4262577" lon="-5.3012122"><ele>1984</ele><speed>14.65</speed><time>2016-06-29T10:52:54Z</time><pdop>4.0</pdop><geoidheight>54.00</geoidheight><course>125.7</course><type>1</type></trkpt>
      <trkpt lat="40.42619279" lon="-5.30104616"><ele>1984</ele><speed>14.60</speed><time>2016-06-29T10:52:55Z</time><pdop>3.0</pdop><geoidheight>54.00</geoidheight><course>118.8</course><type>1</type></trkpt>
      <trkpt lat="40.42613476" lon="-5.30089718"><ele>1983</ele><speed>14.39</speed><time>2016-06-29T10:52:56Z</time><pdop>4.0</pdop><geoidheight>54.00</geoidheight><course>115.4</course><type>1</type></trkpt>
      <trkpt lat="40.42613714" lon="-5.30072108"><ele>1984</ele><speed>13.99</speed><time>2016-06-29T10:52:57Z</time><pdop>3.0</pdop><geoidheight>54.00</geoidheight><course>98.2</course><type>1</type></trkpt>
      <trkpt lat="40.42612662" lon="-5.30056058"><ele>1985</ele><speed>13.42</speed><time>2016-06-29T10:52:58Z</time><pdop>4.0</pdop><geoidheight>54.00</geoidheight><course>94.3</course><type>1</type></trkpt>
      <trkpt lat="40.4261475" lon="-5.30044635"><ele>1984</ele><speed>11.34</speed><time>2016-06-29T10:52:59Z</time><pdop>4.0</pdop><geoidheight>54.00</geoidheight><course>87.3</course><type>1</type></trkpt>
      <trkpt lat="40.42617225" lon="-5.30032687"><ele>1984</ele><speed>10.41</speed><time>2016-06-29T10:53:00Z</time><pdop>4.0</pdop><geoidheight>54.00</geoidheight><course>78.2</course><type>1</type></trkpt>
      <trkpt lat="40.42620095" lon="-5.30021403"><ele>1984</ele><speed>9.87</speed><time>2016-06-29T10:53:01Z</time><pdop>4.0</pdop><geoidheight>54.00</geoidheight><course>75.3</course><type>1</type></trkpt>
      <trkpt lat="40.42623495" lon="-5.30010693"><ele>1983</ele><speed>9.79</speed><time>2016-06-29T10:53:02Z</time><pdop>4.0</pdop><geoidheight>54.00</geoidheight><course>73.2</course><type>1</type></trkpt>
      <trkpt lat="40.42625736" lon="-5.30000447"><ele>1956</ele><speed>9.69</speed><time>2016-06-29T10:53:03Z</time><pdop>4.0</pdop><geoidheight>54.00</geoidheight><course>70.6</course><type>1</type></trkpt>
      <trkpt lat="40.42630727" lon="-5.29989604"><ele>1965</ele><speed>10.11</speed><time>2016-06-29T10:53:04Z</time><pdop>3.0</pdop><geoidheight>54.00</geoidheight><course>62.8</course><type>1</type></trkpt>
      <trkpt lat="40.42636381" lon="-5.29977841"><ele>1970</ele><speed>10.94</speed><time>2016-06-29T10:53:05Z</time><pdop>3.0</pdop><geoidheight>54.00</geoidheight><course>58.9</course><type>1</type></trkpt>
      <trkpt lat="40.42641095" lon="-5.29966276"><ele>1971</ele><speed>11.54</speed><time>2016-06-29T10:53:06Z</time><pdop>3.0</pdop><geoidheight>54.00</geoidheight><course>61.5</course><type>1</type></trkpt>
      <trkpt lat="40.4264602" lon="-5.2995428"><ele>1973</ele><speed>11.95</speed><time>2016-06-29T10:53:07Z</time><pdop>4.0</pdop><geoidheight>54.00</geoidheight><course>61.0</course><type>1</type></trkpt>
      <trkpt lat="40.42650283" lon="-5.29941192"><ele>2070</ele><speed>12.11</speed><time>2016-06-29T10:53:08Z</time><pdop>4.0</pdop><geoidheight>54.00</geoidheight><course>67.2</course><type>1</type></trkpt>
      <trkpt lat="40.42652468" lon="-5.2992752"><ele>2039</ele><speed>11.90</speed><time>2016-06-29T10:53:09Z</time><pdop>3.0</pdop><geoidheight>54.00</geoidheight><course>72.9</course><type>1</type></trkpt>
      <trkpt lat="40.42655695" lon="-5.29913317"><ele>2025</ele><speed>11.50</speed><time>2016-06-29T10:53:10Z</time><pdop>3.0</pdop><geoidheight>54.00</geoidheight><course>75.4</course><type>1</type></trkpt>
      <trkpt lat="40.42657466" lon="-5.29900339"><ele>2023</ele><speed>11.52</speed><time>2016-06-29T10:53:11Z</time><pdop>4.0</pdop><geoidheight>54.00</geoidheight><course>73.4</course><type>1</type></trkpt>
      <trkpt lat="40.42661346" lon="-5.29887313"><ele>1958</ele><speed>11.56</speed><time>2016-06-29T10:53:12Z</time><pdop>4.0</pdop><geoidheight>54.00</geoidheight><course>68.6</course><type>1</type></trkpt>
      <trkpt lat="40.42665804" lon="-5.29874418"><ele>1966</ele><speed>11.81</speed><time>2016-06-29T10:53:13Z</time><pdop>4.0</pdop><geoidheight>54.00</geoidheight><course>67.1</course><type>1</type></trkpt>
      <trkpt lat="40.42668576" lon="-5.29860339"><ele>1973</ele><speed>12.12</speed><time>2016-06-29T10:53:14Z</time><pdop>4.0</pdop><geoidheight>54.00</geoidheight><course>71.8</course><type>1</type></trkpt>
      <trkpt lat="40.4267234" lon="-5.29846306"><ele>1977</ele><speed>12.44</speed><time>2016-06-29T10:53:15Z</time><pdop>4.0</pdop><geoidheight>54.00</geoidheight><course>73.1</course><type>1</type></trkpt>
      <trkpt lat="40.42672125" lon="-5.29831555"><ele>1980</ele><speed>12.13</speed><time>2016-06-29T10:53:16Z</time><pdop>3.0</pdop><geoidheight>54.00</geoidheight><course>84.9</course><type>1</type></trkpt>
      <trkpt lat="40.42672768" lon="-5.29818268"><ele>1981</ele><speed>11.71</speed><time>2016-06-29T10:53:17Z</time><pdop>4.0</pdop><geoidheight>54.00</geoidheight><course>83.2</course><type>1</type></trkpt>
      <trkpt lat="40.42675466" lon="-5.29805492"><ele>1982</ele><speed>11.30</speed><time>2016-06-29T10:53:18Z</time><pdop>4.0</pdop><geoidheight>54.00</geoidheight><course>79.6</course><type>1</type></trkpt>
      <trkpt lat="40.42676177" lon="-5.29791776"><ele>1983</ele><speed>11.54</speed><time>2016-06-29T10:53:19Z</time><pdop>4.0</pdop><geoidheight>54.00</geoidheight><course>81.0</course><type>1</type></trkpt>
      <trkpt lat="40.42677413" lon="-5.29777298"><ele>1982</ele><speed>12.20</speed><time>2016-06-29T10:53:20Z</time><pdop>3.0</pdop><geoidheight>54.00</geoidheight><course>82.9</course><type>1</type></trkpt>
      <trkpt lat="40.42678786" lon="-5.29762457"><ele>1982</ele><speed>12.67</speed><time>2016-06-29T10:53:21Z</time><pdop>3.0</pdop><geoidheight>54.00</geoidheight><course>81.8</course><type>1</type></trkpt>
      <trkpt lat="40.42681002" lon="-5.2974846"><ele>1983</ele><speed>12.01</speed><time>2016-06-29T10:53:22Z</time><pdop>3.0</pdop><geoidheight>54.00</geoidheight><course>77.9</course><type>1</type></trkpt>
      <trkpt lat="40.42682895" lon="-5.29735091"><ele>1982</ele><speed>11.67</speed><time>2016-06-29T10:53:23Z</time><pdop>3.0</pdop><geoidheight>54.00</geoidheight><course>75.6</course><type>1</type></trkpt>
      <trkpt lat="40.42686875" lon="-5.29726483"><ele>1983</ele><speed>9.54</speed><time>2016-06-29T10:53:24Z</time><pdop>3.0</pdop><geoidheight>54.00</geoidheight><course>68.3</course><type>1</type></trkpt>
      <trkpt lat="40.42689563" lon="-5.29717233"><ele>1982</ele><speed>8.54</speed><time>2016-06-29T10:53:25Z</time><pdop>4.0</pdop><geoidheight>54.00</geoidheight><course>67.0</course><type>1</type></trkpt>
      <trkpt lat="40.42695969" lon="-5.29704861"><ele>1982</ele><speed>6.24</speed><time>2016-06-29T10:53:27Z</time><pdop>7.0</pdop><geoidheight>54.00</geoidheight><course>50.7</course><type>1</type></trkpt>
      <trkpt lat="40.42718829" lon="-5.29699198"><ele>1981</ele><speed>7.44</speed><time>2016-06-29T10:53:30Z</time><pdop>12.0</pdop><geoidheight>54.00</geoidheight><course>14.6</course><type>1</type></trkpt>
      <trkpt lat="40.42730342" lon="-5.29729088"><ele>1981</ele><speed>5.71</speed><time>2016-06-29T10:53:35Z</time><pdop>9.0</pdop><geoidheight>54.00</geoidheight><course>296.9</course><type>1</type></trkpt>
      <trkpt lat="40.42735396" lon="-5.29746636"><ele>1982</ele><speed>6.01</speed><time>2016-06-29T10:53:37Z</time><pdop>6.0</pdop><geoidheight>54.00</geoidheight><course>299.6</course><type>1</type></trkpt>
      <trkpt lat="40.42740503" lon="-5.29764704"><ele>1979</ele><speed>4.50</speed><time>2016-06-29T10:53:41Z</time><pdop>5.0</pdop><geoidheight>54.00</geoidheight><course>292.4</course><type>1</type></trkpt>
      <trkpt lat="40.42745625" lon="-5.29779767"><ele>1978</ele><speed>6.61</speed><time>2016-06-29T10:53:43Z</time><pdop>6.0</pdop><geoidheight>54.00</geoidheight><course>296.4</course><type>1</type></trkpt>
      <trkpt lat="40.42757349" lon="-5.29799375"><ele>1979</ele><speed>7.14</speed><time>2016-06-29T10:53:46Z</time><pdop>8.0</pdop><geoidheight>54.00</geoidheight><course>307.0</course><type>1</type></trkpt>
      <trkpt lat="40.4276657" lon="-5.29816073"><ele>1976</ele><speed>5.96</speed><time>2016-06-29T10:53:49Z</time><pdop>7.0</pdop><geoidheight>54.00</geoidheight><course>307.5</course><type>1</type></trkpt>
      <trkpt lat="40.42771971" lon="-5.29831245"><ele>1975</ele><speed>6.29</speed><time>2016-06-29T10:53:51Z</time><pdop>6.0</pdop><geoidheight>54.00</geoidheight><course>301.0</course><type>1</type></trkpt>
      <trkpt lat="40.42777176" lon="-5.29845"><ele>1974</ele><speed>6.93</speed><time>2016-06-29T10:53:53Z</time><pdop>5.0</pdop><geoidheight>54.00</geoidheight><course>291.3</course><type>1</type></trkpt>
      <trkpt lat="40.42779504" lon="-5.29859905"><ele>1970</ele><speed>7.68</speed><time>2016-06-29T10:53:55Z</time><pdop>5.0</pdop><geoidheight>54.00</geoidheight><course>283.3</course><type>1</type></trkpt>
      <trkpt lat="40.42781449" lon="-5.29880133"><ele>1973</ele><speed>7.67</speed><time>2016-06-29T10:53:57Z</time><pdop>6.0</pdop><geoidheight>54.00</geoidheight><course>274.6</course><type>1</type></trkpt>
      <trkpt lat="40.42774305" lon="-5.29899033"><ele>1973</ele><speed>7.71</speed><time>2016-06-29T10:53:59Z</time><pdop>6.0</pdop><geoidheight>54.00</geoidheight><course>245.4</course><type>1</type></trkpt>
      <trkpt lat="40.42769354" lon="-5.299144"><ele>1975</ele><speed>7.04</speed><time>2016-06-29T10:54:01Z</time><pdop>5.0</pdop><geoidheight>54.00</geoidheight><course>251.4</course><type>1</type></trkpt>
      <trkpt lat="40.42772156" lon="-5.29928796"><ele>1974</ele><speed>5.76</speed><time>2016-06-29T10:54:03Z</time><pdop>5.0</pdop><geoidheight>54.00</geoidheight><course>296.9</course><type>1</type></trkpt>
      <trkpt lat="40.42783019" lon="-5.29923702"><ele>1975</ele><speed>7.29</speed><time>2016-06-29T10:54:05Z</time><pdop>4.0</pdop><geoidheight>54.00</geoidheight><course>24.2</course><type>1</type></trkpt>
      <trkpt lat="40.42788376" lon="-5.29914321"><ele>1977</ele><speed>9.79</speed><time>2016-06-29T10:54:06Z</time><pdop>3.0</pdop><geoidheight>54.00</geoidheight><course>50.1</course><type>1</type></trkpt>
      <trkpt lat="40.42792658" lon="-5.29901161"><ele>1978</ele><speed>12.04</speed><time>2016-06-29T10:54:07Z</time><pdop>3.0</pdop><geoidheight>54.00</geoidheight><course>67.8</course><type>1</type></trkpt>
      <trkpt lat="40.42797032" lon="-5.29886104"><ele>1979</ele><speed>13.09</speed><time>2016-06-29T10:54:08Z</time><pdop>4.0</pdop><geoidheight>54.00</geoidheight><course>69.6</course><type>1</type></trkpt>
      <trkpt lat="40.42797663" lon="-5.29872647"><ele>1982</ele><speed>12.65</speed><time>2016-06-29T10:54:09Z</time><pdop>4.0</pdop><geoidheight>54.00</geoidheight><course>81.9</course><type>1</type></trkpt>
      <trkpt lat="40.42799908" lon="-5.2986072"><ele>1984</ele><speed>10.73</speed><time>2016-06-29T10:54:10Z</time><pdop>4.0</pdop><geoidheight>54.00</geoidheight><course>77.0</course><type>1</type></trkpt>
      <trkpt lat="40.42803046" lon="-5.29850607"><ele>1986</ele><speed>9.44</speed><time>2016-06-29T10:54:11Z</time><pdop>4.0</pdop><geoidheight>54.00</geoidheight><course>67.1</course><type>1</type></trkpt>
      <trkpt lat="40.42808843" lon="-5.29843784"><ele>1986</ele><speed>8.16</speed><time>2016-06-29T10:54:12Z</time><pdop>4.0</pdop><geoidheight>54.00</geoidheight><course>50.5</course><type>1</type></trkpt>
      <trkpt lat="40.42826559" lon="-5.29839266"><ele>1985</ele><speed>7.05</speed><time>2016-06-29T10:54:15Z</time><pdop>8.0</pdop><geoidheight>54.00</geoidheight><course>7.4</course><type>1</type></trkpt>
      <trkpt lat="40.42832591" lon="-5.29861169"><ele>1984</ele><speed>4.94</speed><time>2016-06-29T10:54:18Z</time><pdop>7.0</pdop><geoidheight>54.00</geoidheight><course>309.0</course><type>1</type></trkpt>
      <trkpt lat="40.4284392" lon="-5.29879153"><ele>1986</ele><speed>6.03</speed><time>2016-06-29T10:54:21Z</time><pdop>7.0</pdop><geoidheight>54.00</geoidheight><course>324.1</course><type>1</type></trkpt>
      <trkpt lat="40.42859057" lon="-5.29885617"><ele>1988</ele><speed>7.26</speed><time>2016-06-29T10:54:23Z</time><pdop>7.0</pdop><geoidheight>54.00</geoidheight><course>341.1</course><type>1</type></trkpt>
      <trkpt lat="40.42870433" lon="-5.29898889"><ele>1988</ele><speed>4.74</speed><time>2016-06-29T10:54:26Z</time><pdop>7.0</pdop><geoidheight>54.00</geoidheight><course>306.3</course><type>1</type></trkpt>
      <trkpt lat="40.42874205" lon="-5.29923908"><ele>1993</ele><speed>5.02</speed><time>2016-06-29T10:54:29Z</time><pdop>12.0</pdop><geoidheight>54.00</geoidheight><course>287.9</course><type>1</type></trkpt>
      <trkpt lat="40.42841563" lon="-5.29905471"><ele>1992</ele><speed>7.63</speed><time>2016-06-29T10:54:32Z</time><pdop>15.0</pdop><geoidheight>54.00</geoidheight><course>148.8</course><type>1</type></trkpt>
      <trkpt lat="40.42824748" lon="-5.2987378"><ele>1993</ele><speed>11.32</speed><time>2016-06-29T10:54:34Z</time><pdop>15.0</pdop><geoidheight>54.00</geoidheight><course>116.9</course><type>1</type></trkpt>
      <trkpt lat="40.42812407" lon="-5.29823093"><ele>2000</ele><speed>10.00</speed><time>2016-06-29T10:54:38Z</time><pdop>25.0</pdop><geoidheight>54.00</geoidheight><course>108.6</course><type>1</type></trkpt>
      <trkpt lat="40.42855335" lon="-5.29812015"><ele>2007</ele><speed>6.02</speed><time>2016-06-29T10:54:43Z</time><pdop>21.0</pdop><geoidheight>54.00</geoidheight><course>14.5</course><type>1</type></trkpt>
      <trkpt lat="40.42823286" lon="-5.2983292"><ele>2017</ele><speed>8.39</speed><time>2016-06-29T10:54:48Z</time><pdop>18.0</pdop><geoidheight>54.00</geoidheight><course>175.7</course><type>1</type></trkpt>
      <trkpt lat="40.42783901" lon="-5.29823507"><ele>2025</ele><speed>11.98</speed><time>2016-06-29T10:54:51Z</time><pdop>16.0</pdop><geoidheight>54.00</geoidheight><course>156.1</course><type>1</type></trkpt>
      <trkpt lat="40.42780398" lon="-5.29777499"><ele>2029</ele><speed>11.68</speed><time>2016-06-29T10:54:54Z</time><pdop>12.0</pdop><geoidheight>54.00</geoidheight><course>89.3</course><type>1</type></trkpt>
      <trkpt lat="40.42792124" lon="-5.29749746"><ele>2034</ele><speed>10.81</speed><time>2016-06-29T10:54:56Z</time><pdop>10.0</pdop><geoidheight>54.00</geoidheight><course>55.9</course><type>1</type></trkpt>
      <trkpt lat="40.42807354" lon="-5.29726775"><ele>2045</ele><speed>7.30</speed><time>2016-06-29T10:54:59Z</time><pdop>10.0</pdop><geoidheight>54.00</geoidheight><course>27.6</course><type>1</type></trkpt>
      <trkpt lat="40.42773389" lon="-5.29752523"><ele>2053</ele><speed>7.79</speed><time>2016-06-29T10:55:08Z</time><pdop>20.0</pdop><geoidheight>54.00</geoidheight><course>169.0</course><type>1</type></trkpt>
      <trkpt lat="40.42738788" lon="-5.29738369"><ele>2054</ele><speed>11.26</speed><time>2016-06-29T10:55:10Z</time><pdop>16.0</pdop><geoidheight>54.00</geoidheight><course>154.0</course><type>1</type></trkpt>
      <trkpt lat="40.42722239" lon="-5.29678916"><ele>2059</ele><speed>11.01</speed><time>2016-06-29T10:55:14Z</time><pdop>26.0</pdop><geoidheight>54.00</geoidheight><course>117.2</course><type>1</type></trkpt>
      <trkpt lat="40.42688394" lon="-5.29645164"><ele>2068</ele><speed>8.99</speed><time>2016-06-29T10:55:26Z</time><pdop>21.0</pdop><geoidheight>54.00</geoidheight><course>130.1</course><type>1</type></trkpt>
      <trkpt lat="40.42695348" lon="-5.29595833"><ele>2076</ele><speed>11.27</speed><time>2016-06-29T10:55:28Z</time><pdop>14.0</pdop><geoidheight>54.00</geoidheight><course>77.0</course><type>1</type></trkpt>
      <trkpt lat="40.4270754" lon="-5.29565645"><ele>2085</ele><speed>8.31</speed><time>2016-06-29T10:55:31Z</time><pdop>14.0</pdop><geoidheight>54.00</geoidheight><course>50.6</course><type>1</type></trkpt>
      <trkpt lat="40.42730473" lon="-5.29568534"><ele>2091</ele><speed>5.11</speed><time>2016-06-29T10:55:36Z</time><pdop>11.0</pdop><geoidheight>54.00</geoidheight><course>350.0</course><type>1</type></trkpt>
      <trkpt lat="40.42718252" lon="-5.29597061"><ele>2097</ele><speed>5.23</speed><time>2016-06-29T10:55:41Z</time><pdop>14.0</pdop><geoidheight>54.00</geoidheight><course>224.3</course><type>1</type></trkpt>
      <trkpt lat="40.42677792" lon="-5.29595236"><ele>2098</ele><speed>10.54</speed><time>2016-06-29T10:55:44Z</time><pdop>15.0</pdop><geoidheight>54.00</geoidheight><course>182.5</course><type>1</type></trkpt>
      <trkpt lat="40.42655251" lon="-5.29567469"><ele>2099</ele><speed>11.79</speed><time>2016-06-29T10:55:46Z</time><pdop>16.0</pdop><geoidheight>54.00</geoidheight><course>154.3</course><type>1</type></trkpt>
      <trkpt lat="40.42650286" lon="-5.29519322"><ele>2099</ele><speed>13.09</speed><time>2016-06-29T10:55:48Z</time><pdop>13.0</pdop><geoidheight>54.00</geoidheight><course>112.2</course><type>1</type></trkpt>
      <trkpt lat="40.42664204" lon="-5.29483115"><ele>2109</ele><speed>7.25</speed><time>2016-06-29T10:55:51Z</time><pdop>9.0</pdop><geoidheight>54.00</geoidheight><course>61.6</course><type>1</type></trkpt>
      <trkpt lat="40.42677289" lon="-5.29465924"><ele>2113</ele><speed>5.73</speed><time>2016-06-29T10:55:54Z</time><pdop>11.0</pdop><geoidheight>54.00</geoidheight><course>41.0</course><type>1</type></trkpt>
      <trkpt lat="40.42703016" lon="-5.29465379"><ele>2114</ele><speed>7.87</speed><time>2016-06-29T10:55:57Z</time><pdop>13.0</pdop><geoidheight>54.00</geoidheight><course>1.0</course><type>1</type></trkpt>
      <trkpt lat="40.4272427" lon="-5.294508"><ele>2118</ele><speed>7.14</speed><time>2016-06-29T10:56:00Z</time><pdop>7.0</pdop><geoidheight>54.00</geoidheight><course>25.5</course><type>1</type></trkpt>
      <trkpt lat="40.42740068" lon="-5.29451952"><ele>2120</ele><speed>6.11</speed><time>2016-06-29T10:56:03Z</time><pdop>5.0</pdop><geoidheight>54.00</geoidheight><course>355.8</course><type>1</type></trkpt>
      <trkpt lat="40.42748529" lon="-5.29455945"><ele>2121</ele><speed>4.70</speed><time>2016-06-29T10:56:05Z</time><pdop>5.0</pdop><geoidheight>54.00</geoidheight><course>338.8</course><type>1</type></trkpt>
      <trkpt lat="40.42758808" lon="-5.29459819"><ele>2124</ele><speed>4.38</speed><time>2016-06-29T10:56:08Z</time><pdop>4.0</pdop><geoidheight>54.00</geoidheight><course>350.6</course><type>1</type></trkpt>
      <trkpt lat="40.42765663" lon="-5.29464296"><ele>2122</ele><speed>4.54</speed><time>2016-06-29T10:56:10Z</time><pdop>4.0</pdop><geoidheight>54.00</geoidheight><course>338.2</course><type>1</type></trkpt>
      <trkpt lat="40.42775927" lon="-5.29472316"><ele>2123</ele><speed>6.68</speed><time>2016-06-29T10:56:12Z</time><pdop>3.0</pdop><geoidheight>54.00</geoidheight><course>329.7</course><type>1</type></trkpt>
      <trkpt lat="40.42781471" lon="-5.29475305"><ele>2124</ele><speed>6.26</speed><time>2016-06-29T10:56:13Z</time><pdop>3.0</pdop><geoidheight>54.00</geoidheight><course>337.2</course><type>1</type></trkpt>
      <trkpt lat="40.42786513" lon="-5.29477942"><ele>2125</ele><speed>6.00</speed><time>2016-06-29T10:56:14Z</time><pdop>3.0</pdop><geoidheight>54.00</geoidheight><course>342.6</course><type>1</type></trkpt>
      <trkpt lat="40.42791939" lon="-5.29480325"><ele>2128</ele><speed>5.85</speed><time>2016-06-29T10:56:15Z</time><pdop>3.0</pdop><geoidheight>54.00</geoidheight><course>340.8</course><type>1</type></trkpt>
      <trkpt lat="40.42796545" lon="-5.29484474"><ele>2129</ele><speed>5.65</speed><time>2016-06-29T10:56:16Z</time><pdop>3.0</pdop><geoidheight>54.00</geoidheight><course>331.5</course><type>1</type></trkpt>
      <trkpt lat="40.42803441" lon="-5.29491296"><ele>2129</ele><speed>4.59</speed><time>2016-06-29T10:56:18Z</time><pdop>3.0</pdop><geoidheight>54.00</geoidheight><course>324.5</course><type>1</type></trkpt>
      <trkpt lat="40.42810899" lon="-5.29497925"><ele>2131</ele><speed>5.04</speed><time>2016-06-29T10:56:20Z</time><pdop>4.0</pdop><geoidheight>54.00</geoidheight><course>329.0</course><type>1</type></trkpt>
      <trkpt lat="40.42819475" lon="-5.29505339"><ele>2130</ele><speed>6.31</speed><time>2016-06-29T10:56:22Z</time><pdop>3.0</pdop><geoidheight>54.00</geoidheight><course>325.8</course><type>1</type></trkpt>
      <trkpt lat="40.4282887" lon="-5.29516227"><ele>2129</ele><speed>7.96</speed><time>2016-06-29T10:56:24Z</time><pdop>4.0</pdop><geoidheight>54.00</geoidheight><course>317.8</course><type>1</type></trkpt>
      <trkpt lat="40.42833583" lon="-5.29521986"><ele>2128</ele><speed>7.14</speed><time>2016-06-29T10:56:25Z</time><pdop>3.0</pdop><geoidheight>54.00</geoidheight><course>317.7</course><type>1</type></trkpt>
      <trkpt lat="40.42838488" lon="-5.29528364"><ele>2129</ele><speed>6.86</speed><time>2016-06-29T10:56:26Z</time><pdop>3.0</pdop><geoidheight>54.00</geoidheight><course>315.7</course><type>1</type></trkpt>
      <trkpt lat="40.42842971" lon="-5.29532612"><ele>2130</ele><speed>6.04</speed><time>2016-06-29T10:56:27Z</time><pdop>3.0</pdop><geoidheight>54.00</geoidheight><course>323.2</course><type>1</type></trkpt>
      <trkpt lat="40.42852011" lon="-5.29534898"><ele>2129</ele><speed>5.16</speed><time>2016-06-29T10:56:29Z</time><pdop>3.0</pdop><geoidheight>54.00</geoidheight><course>351.5</course><type>1</type></trkpt>
      <trkpt lat="40.42862762" lon="-5.29535415"><ele>2128</ele><speed>6.29</speed><time>2016-06-29T10:56:31Z</time><pdop>3.0</pdop><geoidheight>54.00</geoidheight><course>354.3</course><type>1</type></trkpt>
      <trkpt lat="40.42868812" lon="-5.29536277"><ele>2127</ele><speed>6.59</speed><time>2016-06-29T10:56:32Z</time><pdop>3.0</pdop><geoidheight>54.00</geoidheight><course>354.1</course><type>1</type></trkpt>
      <trkpt lat="40.42875943" lon="-5.29539087"><ele>2127</ele><speed>7.44</speed><time>2016-06-29T10:56:33Z</time><pdop>3.0</pdop><geoidheight>54.00</geoidheight><course>346.2</course><type>1</type></trkpt>
      <trkpt lat="40.42883549" lon="-5.29540955"><ele>2127</ele><speed>8.23</speed><time>2016-06-29T10:56:34Z</time><pdop>4.0</pdop><geoidheight>54.00</geoidheight><course>347.2</course><type>1</type></trkpt>
      <trkpt lat="40.42891538" lon="-5.29547497"><ele>2127</ele><speed>9.05</speed><time>2016-06-29T10:56:35Z</time><pdop>4.0</pdop><geoidheight>54.00</geoidheight><course>337.5</course><type>1</type></trkpt>
      <trkpt lat="40.42900558" lon="-5.2955531"><ele>2127</ele><speed>9.66</speed><time>2016-06-29T10:56:36Z</time><pdop>3.0</pdop><geoidheight>54.00</geoidheight><course>333.1</course><type>1</type></trkpt>
      <trkpt lat="40.42908004" lon="-5.29561262"><ele>2128</ele><speed>8.76</speed><time>2016-06-29T10:56:37Z</time><pdop>3.0</pdop><geoidheight>54.00</geoidheight><course>333.0</course><type>1</type></trkpt>
      <trkpt lat="40.42914557" lon="-5.29564961"><ele>2127</ele><speed>8.34</speed><time>2016-06-29T10:56:38Z</time><pdop>3.0</pdop><geoidheight>54.00</geoidheight><course>332.1</course><type>1</type></trkpt>
      <trkpt lat="40.42921467" lon="-5.2956965"><ele>2126</ele><speed>8.83</speed><time>2016-06-29T10:56:39Z</time><pdop>3.0</pdop><geoidheight>54.00</geoidheight><course>333.4</course><type>1</type></trkpt>
      <trkpt lat="40.42928572" lon="-5.29575151"><ele>2125</ele><speed>9.39</speed><time>2016-06-29T10:56:40Z</time><pdop>3.0</pdop><geoidheight>54.00</geoidheight><course>331.2</course><type>1</type></trkpt>
      <trkpt lat="40.42937037" lon="-5.29581329"><ele>2124</ele><speed>10.08</speed><time>2016-06-29T10:56:41Z</time><pdop>3.0</pdop><geoidheight>54.00</geoidheight><course>330.7</course><type>1</type></trkpt>
      <trkpt lat="40.42943145" lon="-5.29588118"><ele>2125</ele><speed>9.57</speed><time>2016-06-29T10:56:42Z</time><pdop>5.0</pdop><geoidheight>54.00</geoidheight><course>327.9</course><type>1</type></trkpt>
      <trkpt lat="40.42960385" lon="-5.29598917"><ele>2125</ele><speed>9.75</speed><time>2016-06-29T10:56:44Z</time><pdop>6.0</pdop><geoidheight>54.00</geoidheight><course>334.1</course><type>1</type></trkpt>
      <trkpt lat="40.42973744" lon="-5.2959332"><ele>2122</ele><speed>7.93</speed><time>2016-06-29T10:56:46Z</time><pdop>4.0</pdop><geoidheight>54.00</geoidheight><course>345.7</course><type>1</type></trkpt>
      <trkpt lat="40.42981004" lon="-5.2959637"><ele>2124</ele><speed>7.27</speed><time>2016-06-29T10:56:47Z</time><pdop>4.0</pdop><geoidheight>54.00</geoidheight><course>341.9</course><type>1</type></trkpt>
      <trkpt lat="40.42987214" lon="-5.29599141"><ele>2123</ele><speed>6.93</speed><time>2016-06-29T10:56:48Z</time><pdop>3.0</pdop><geoidheight>54.00</geoidheight><course>340.3</course><type>1</type></trkpt>
      <trkpt lat="40.42994266" lon="-5.29602235"><ele>2122</ele><speed>7.06</speed><time>2016-06-29T10:56:49Z</time><pdop>3.0</pdop><geoidheight>54.00</geoidheight><course>339.5</course><type>1</type></trkpt>
      <trkpt lat="40.43000201" lon="-5.29605003"><ele>2121</ele><speed>7.34</speed><time>2016-06-29T10:56:50Z</time><pdop>3.0</pdop><geoidheight>54.00</geoidheight><course>339.5</course><type>1</type></trkpt>
      <trkpt lat="40.43006799" lon="-5.29607445"><ele>2120</ele><speed>7.38</speed><time>2016-06-29T10:56:51Z</time><pdop>3.0</pdop><geoidheight>54.00</geoidheight><course>336.5</course><type>1</type></trkpt>
      <trkpt lat="40.43011693" lon="-5.29611595"><ele>2119</ele><speed>7.08</speed><time>2016-06-29T10:56:52Z</time><pdop>3.0</pdop><geoidheight>54.00</geoidheight><course>333.2</course><type>1</type></trkpt>
      <trkpt lat="40.43017365" lon="-5.29616223"><ele>2118</ele><speed>7.29</speed><time>2016-06-29T10:56:53Z</time><pdop>4.0</pdop><geoidheight>54.00</geoidheight><course>327.8</course><type>1</type></trkpt>
      <trkpt lat="40.43029828" lon="-5.29634328"><ele>2117</ele><speed>9.46</speed><time>2016-06-29T10:56:55Z</time><pdop>5.0</pdop><geoidheight>54.00</geoidheight><course>315.3</course><type>1</type></trkpt>
      <trkpt lat="40.43035893" lon="-5.29644534"><ele>2118</ele><speed>9.67</speed><time>2016-06-29T10:56:56Z</time><pdop>5.0</pdop><geoidheight>54.00</geoidheight><course>311.3</course><type>1</type></trkpt>
      <trkpt lat="40.43046885" lon="-5.29658322"><ele>2117</ele><speed>8.29</speed><time>2016-06-29T10:56:58Z</time><pdop>4.0</pdop><geoidheight>54.00</geoidheight><course>317.2</course><type>1</type></trkpt>
      <trkpt lat="40.43052387" lon="-5.29665259"><ele>2116</ele><speed>8.19</speed><time>2016-06-29T10:56:59Z</time><pdop>4.0</pdop><geoidheight>54.00</geoidheight><course>320.1</course><type>1</type></trkpt>
      <trkpt lat="40.43058759" lon="-5.29670742"><ele>2115</ele><speed>8.65</speed><time>2016-06-29T10:57:00Z</time><pdop>4.0</pdop><geoidheight>54.00</geoidheight><course>323.7</course><type>1</type></trkpt>
      <trkpt lat="40.43066005" lon="-5.29678315"><ele>2115</ele><speed>9.66</speed><time>2016-06-29T10:57:01Z</time><pdop>5.0</pdop><geoidheight>54.00</geoidheight><course>323.9</course><type>1</type></trkpt>
      <trkpt lat="40.43080154" lon="-5.29687765"><ele>2114</ele><speed>9.06</speed><time>2016-06-29T10:57:03Z</time><pdop>4.0</pdop><geoidheight>54.00</geoidheight><course>324.7</course><type>1</type></trkpt>
      <trkpt lat="40.43087211" lon="-5.29694009"><ele>2115</ele><speed>8.70</speed><time>2016-06-29T10:57:04Z</time><pdop>5.0</pdop><geoidheight>54.00</geoidheight><course>325.1</course><type>1</type></trkpt>
      <trkpt lat="40.430983" lon="-5.29704688"><ele>2112</ele><speed>8.38</speed><time>2016-06-29T10:57:06Z</time><pdop>4.0</pdop><geoidheight>54.00</geoidheight><course>325.2</course><type>1</type></trkpt>
      <trkpt lat="40.43104617" lon="-5.29711503"><ele>2109</ele><speed>8.65</speed><time>2016-06-29T10:57:07Z</time><pdop>3.0</pdop><geoidheight>54.00</geoidheight><course>326.0</course><type>1</type></trkpt>
      <trkpt lat="40.43111336" lon="-5.29717453"><ele>2109</ele><speed>9.11</speed><time>2016-06-29T10:57:08Z</time><pdop>3.0</pdop><geoidheight>54.00</geoidheight><course>326.2</course><type>1</type></trkpt>
      <trkpt lat="40.43118644" lon="-5.29723889"><ele>2107</ele><speed>9.25</speed><time>2016-06-29T10:57:09Z</time><pdop>3.0</pdop><geoidheight>54.00</geoidheight><course>328.0</course><type>1</type></trkpt>
      <trkpt lat="40.43125468" lon="-5.29730731"><ele>2105</ele><speed>9.29</speed><time>2016-06-29T10:57:10Z</time><pdop>3.0</pdop><geoidheight>54.00</geoidheight><course>327.1</course><type>1</type></trkpt>
      <trkpt lat="40.43132293" lon="-5.29736986"><ele>2105</ele><speed>9.22</speed><time>2016-06-29T10:57:11Z</time><pdop>3.0</pdop><geoidheight>54.00</geoidheight><course>326.4</course><type>1</type></trkpt>
      <trkpt lat="40.43138932" lon="-5.29741659"><ele>2105</ele><speed>8.99</speed><time>2016-06-29T10:57:12Z</time><pdop>3.0</pdop><geoidheight>54.00</geoidheight><course>327.7</course><type>1</type></trkpt>
      <trkpt lat="40.43145966" lon="-5.29747002"><ele>2103</ele><speed>9.19</speed><time>2016-06-29T10:57:13Z</time><pdop>3.0</pdop><geoidheight>54.00</geoidheight><course>329.5</course><type>1</type></trkpt>
      <trkpt lat="40.43153634" lon="-5.29752144"><ele>2103</ele><speed>9.59</speed><time>2016-06-29T10:57:14Z</time><pdop>3.0</pdop><geoidheight>54.00</geoidheight><course>332.1</course><type>1</type></trkpt>
      <trkpt lat="40.43161785" lon="-5.29756597"><ele>2102</ele><speed>9.65</speed><time>2016-06-29T10:57:15Z</time><pdop>3.0</pdop><geoidheight>54.00</geoidheight><course>334.0</course><type>1</type></trkpt>
      <trkpt lat="40.43169411" lon="-5.29760997"><ele>2102</ele><speed>9.31</speed><time>2016-06-29T10:57:16Z</time><pdop>3.0</pdop><geoidheight>54.00</geoidheight><course>334.0</course><type>1</type></trkpt>
      <trkpt lat="40.43176044" lon="-5.29766412"><ele>2101</ele><speed>9.08</speed><time>2016-06-29T10:57:17Z</time><pdop>3.0</pdop><geoidheight>54.00</geoidheight><course>329.3</course><type>1</type></trkpt>
      <trkpt lat="40.43181946" lon="-5.29771146"><ele>2100</ele><speed>8.28</speed><time>2016-06-29T10:57:18Z</time><pdop>3.0</pdop><geoidheight>54.00</geoidheight><course>326.8</course><type>1</type></trkpt>
      <trkpt lat="40.43186553" lon="-5.29775501"><ele>2098</ele><speed>7.53</speed><time>2016-06-29T10:57:19Z</time><pdop>3.0</pdop><geoidheight>54.00</geoidheight><course>326.4</course><type>1</type></trkpt>
      <trkpt lat="40.43193649" lon="-5.29789544"><ele>2094</ele><speed>7.28</speed><time>2016-06-29T10:57:21Z</time><pdop>3.0</pdop><geoidheight>54.00</geoidheight><course>307.8</course><type>1</type></trkpt>
      <trkpt lat="40.43197585" lon="-5.29796271"><ele>2094</ele><speed>7.38</speed><time>2016-06-29T10:57:22Z</time><pdop>3.0</pdop><geoidheight>54.00</geoidheight><course>306.6</course><type>1</type></trkpt>
      <trkpt lat="40.43202388" lon="-5.29803914"><ele>2094</ele><speed>7.67</speed><time>2016-06-29T10:57:23Z</time><pdop>3.0</pdop><geoidheight>54.00</geoidheight><course>306.3</course><type>1</type></trkpt>
      <trkpt lat="40.43206952" lon="-5.29812593"><ele>2093</ele><speed>7.95</speed><time>2016-06-29T10:57:24Z</time><pdop>4.0</pdop><geoidheight>54.00</geoidheight><course>305.1</course><type>1</type></trkpt>
      <trkpt lat="40.43209923" lon="-5.29821652"><ele>2093</ele><speed>7.61</speed><time>2016-06-29T10:57:25Z</time><pdop>3.0</pdop><geoidheight>54.00</geoidheight><course>301.8</course><type>1</type></trkpt>
      <trkpt lat="40.43213253" lon="-5.2982761"><ele>2092</ele><speed>7.42</speed><time>2016-06-29T10:57:26Z</time><pdop>3.0</pdop><geoidheight>54.00</geoidheight><course>300.1</course><type>1</type></trkpt>
      <trkpt lat="40.43216902" lon="-5.29834114"><ele>2092</ele><speed>7.15</speed><time>2016-06-29T10:57:27Z</time><pdop>3.0</pdop><geoidheight>54.00</geoidheight><course>301.7</course><type>1</type></trkpt>
      <trkpt lat="40.43220285" lon="-5.2984187"><ele>2091</ele><speed>7.49</speed><time>2016-06-29T10:57:28Z</time><pdop>3.0</pdop><geoidheight>54.00</geoidheight><course>303.7</course><type>1</type></trkpt>
      <trkpt lat="40.43223837" lon="-5.29848555"><ele>2090</ele><speed>7.57</speed><time>2016-06-29T10:57:29Z</time><pdop>3.0</pdop><geoidheight>54.00</geoidheight><course>304.9</course><type>1</type></trkpt>
      <trkpt lat="40.43227088" lon="-5.29855052"><ele>2091</ele><speed>7.46</speed><time>2016-06-29T10:57:30Z</time><pdop>3.0</pdop><geoidheight>54.00</geoidheight><course>299.6</course><type>1</type></trkpt>
      <trkpt lat="40.43229434" lon="-5.29864723"><ele>2090</ele><speed>7.95</speed><time>2016-06-29T10:57:31Z</time><pdop>3.0</pdop><geoidheight>54.00</geoidheight><course>296.5</course><type>1</type></trkpt>
      <trkpt lat="40.43233338" lon="-5.29873937"><ele>2090</ele><speed>7.79</speed><time>2016-06-29T10:57:32Z</time><pdop>3.0</pdop><geoidheight>54.00</geoidheight><course>301.1</course><type>1</type></trkpt>
      <trkpt lat="40.43238465" lon="-5.29878843"><ele>2092</ele><speed>7.24</speed><time>2016-06-29T10:57:33Z</time><pdop>3.0</pdop><geoidheight>54.00</geoidheight><course>313.7</course><type>1</type></trkpt>
      <trkpt lat="40.43242627" lon="-5.29883913"><ele>2092</ele><speed>6.44</speed><time>2016-06-29T10:57:34Z</time><pdop>3.0</pdop><geoidheight>54.00</geoidheight><course>319.3</course><type>1</type></trkpt>
      <trkpt lat="40.43248102" lon="-5.29894171"><ele>2092</ele><speed>5.32</speed><time>2016-06-29T10:57:36Z</time><pdop>4.0</pdop><geoidheight>54.00</geoidheight><course>298.3</course><type>1</type></trkpt>
      <trkpt lat="40.43251062" lon="-5.29910514"><ele>2090</ele><speed>7.39</speed><time>2016-06-29T10:57:38Z</time><pdop>4.0</pdop><geoidheight>54.00</geoidheight><course>284.3</course><type>1</type></trkpt>
      <trkpt lat="40.43257809" lon="-5.29927195"><ele>2089</ele><speed>8.95</speed><time>2016-06-29T10:57:40Z</time><pdop>4.0</pdop><geoidheight>54.00</geoidheight><course>297.0</course><type>1</type></trkpt>
      <trkpt lat="40.43262305" lon="-5.29937405"><ele>2088</ele><speed>9.27</speed><time>2016-06-29T10:57:41Z</time><pdop>4.0</pdop><geoidheight>54.00</geoidheight><course>302.8</course><type>1</type></trkpt>
      <trkpt lat="40.43266162" lon="-5.29946562"><ele>2088</ele><speed>8.46</speed><time>2016-06-29T10:57:42Z</time><pdop>4.0</pdop><geoidheight>54.00</geoidheight><course>304.7</course><type>1</type></trkpt>
      <trkpt lat="40.43274608" lon="-5.29963739"><ele>2089</ele><speed>8.03</speed><time>2016-06-29T10:57:44Z</time><pdop>5.0</pdop><geoidheight>54.00</geoidheight><course>305.5</course><type>1</type></trkpt>
      <trkpt lat="40.43282281" lon="-5.29985293"><ele>2088</ele><speed>8.87</speed><time>2016-06-29T10:57:46Z</time><pdop>5.0</pdop><geoidheight>54.00</geoidheight><course>295.4</course><type>1</type></trkpt>
      <trkpt lat="40.4328888" lon="-5.30003757"><ele>2086</ele><speed>9.22</speed><time>2016-06-29T10:57:48Z</time><pdop>5.0</pdop><geoidheight>54.00</geoidheight><course>295.1</course><type>1</type></trkpt>
      <trkpt lat="40.43292293" lon="-5.30016445"><ele>2084</ele><speed>9.26</speed><time>2016-06-29T10:57:49Z</time><pdop>4.0</pdop><geoidheight>54.00</geoidheight><course>293.4</course><type>1</type></trkpt>
      <trkpt lat="40.43298269" lon="-5.30033665"><ele>2078</ele><speed>9.39</speed><time>2016-06-29T10:57:51Z</time><pdop>4.0</pdop><geoidheight>54.00</geoidheight><course>296.5</course><type>1</type></trkpt>
      <trkpt lat="40.43302954" lon="-5.30044575"><ele>2077</ele><speed>9.99</speed><time>2016-06-29T10:57:52Z</time><pdop>4.0</pdop><geoidheight>54.00</geoidheight><course>299.3</course><type>1</type></trkpt>
      <trkpt lat="40.43307537" lon="-5.30053867"><ele>2074</ele><speed>10.79</speed><time>2016-06-29T10:57:53Z</time><pdop>3.0</pdop><geoidheight>54.00</geoidheight><course>299.3</course><type>1</type></trkpt>
      <trkpt lat="40.4331264" lon="-5.30066131"><ele>2073</ele><speed>11.37</speed><time>2016-06-29T10:57:54Z</time><pdop>3.0</pdop><geoidheight>54.00</geoidheight><course>300.9</course><type>1</type></trkpt>
      <trkpt lat="40.43318569" lon="-5.30076662"><ele>2075</ele><speed>11.30</speed><time>2016-06-29T10:57:55Z</time><pdop>4.0</pdop><geoidheight>54.00</geoidheight><course>302.6</course><type>1</type></trkpt>
      <trkpt lat="40.43323722" lon="-5.30086173"><ele>2075</ele><speed>10.38</speed><time>2016-06-29T10:57:56Z</time><pdop>5.0</pdop><geoidheight>54.00</geoidheight><course>302.2</course><type>1</type></trkpt>
      <trkpt lat="40.43331998" lon="-5.30098875"><ele>2076</ele><speed>7.62</speed><time>2016-06-29T10:57:58Z</time><pdop>4.0</pdop><geoidheight>54.00</geoidheight><course>309.2</course><type>1</type></trkpt>
      <trkpt lat="40.43339939" lon="-5.30110855"><ele>2074</ele><speed>6.54</speed><time>2016-06-29T10:58:00Z</time><pdop>4.0</pdop><geoidheight>54.00</geoidheight><course>314.3</course><type>1</type></trkpt>
      <trkpt lat="40.43346884" lon="-5.30123871"><ele>2076</ele><speed>6.00</speed><time>2016-06-29T10:58:02Z</time><pdop>5.0</pdop><geoidheight>54.00</geoidheight><course>306.2</course><type>1</type></trkpt>
      <trkpt lat="40.43350402" lon="-5.30134295"><ele>2076</ele><speed>5.42</speed><time>2016-06-29T10:58:04Z</time><pdop>4.0</pdop><geoidheight>54.00</geoidheight><course>302.2</course><type>1</type></trkpt>
      <trkpt lat="40.43355658" lon="-5.30143648"><ele>2074</ele><speed>5.25</speed><time>2016-06-29T10:58:06Z</time><pdop>3.0</pdop><geoidheight>54.00</geoidheight><course>306.8</course><type>1</type></trkpt>
      <trkpt lat="40.43361165" lon="-5.30155395"><ele>2074</ele><speed>5.73</speed><time>2016-06-29T10:58:08Z</time><pdop>3.0</pdop><geoidheight>54.00</geoidheight><course>298.0</course><type>1</type></trkpt>
      <trkpt lat="40.43363675" lon="-5.301625"><ele>2073</ele><speed>6.65</speed><time>2016-06-29T10:58:09Z</time><pdop>3.0</pdop><geoidheight>54.00</geoidheight><course>294.6</course><type>1</type></trkpt>
      <trkpt lat="40.43366616" lon="-5.30170501"><ele>2073</ele><speed>7.53</speed><time>2016-06-29T10:58:10Z</time><pdop>3.0</pdop><geoidheight>54.00</geoidheight><course>296.3</course><type>1</type></trkpt>
      <trkpt lat="40.43370217" lon="-5.30178259"><ele>2074</ele><speed>7.60</speed><time>2016-06-29T10:58:11Z</time><pdop>4.0</pdop><geoidheight>54.00</geoidheight><course>298.6</course><type>1</type></trkpt>
      <trkpt lat="40.43376725" lon="-5.30189748"><ele>2073</ele><speed>6.60</speed><time>2016-06-29T10:58:13Z</time><pdop>3.0</pdop><geoidheight>54.00</geoidheight><course>307.2</course><type>1</type></trkpt>
      <trkpt lat="40.43379857" lon="-5.30196708"><ele>2073</ele><speed>6.75</speed><time>2016-06-29T10:58:14Z</time><pdop>3.0</pdop><geoidheight>54.00</geoidheight><course>303.9</course><type>1</type></trkpt>
      <trkpt lat="40.43383225" lon="-5.302035"><ele>2073</ele><speed>6.61</speed><time>2016-06-29T10:58:15Z</time><pdop>3.0</pdop><geoidheight>54.00</geoidheight><course>303.3</course><type>1</type></trkpt>
      <trkpt lat="40.43388928" lon="-5.30214227"><ele>2072</ele><speed>5.99</speed><time>2016-06-29T10:58:17Z</time><pdop>4.0</pdop><geoidheight>54.00</geoidheight><course>303.5</course><type>1</type></trkpt>
      <trkpt lat="40.4339299" lon="-5.3022601"><ele>2073</ele><speed>4.68</speed><time>2016-06-29T10:58:19Z</time><pdop>3.0</pdop><geoidheight>54.00</geoidheight><course>290.8</course><type>1</type></trkpt>
      <trkpt lat="40.43393072" lon="-5.30240104"><ele>2071</ele><speed>6.37</speed><time>2016-06-29T10:58:21Z</time><pdop>3.0</pdop><geoidheight>54.00</geoidheight><course>270.2</course><type>1</type></trkpt>
      <trkpt lat="40.4339353" lon="-5.30255508"><ele>2071</ele><speed>6.75</speed><time>2016-06-29T10:58:23Z</time><pdop>4.0</pdop><geoidheight>54.00</geoidheight><course>270.0</course><type>1</type></trkpt>
      <trkpt lat="40.43391291" lon="-5.30271531"><ele>2072</ele><speed>6.79</speed><time>2016-06-29T10:58:25Z</time><pdop>4.0</pdop><geoidheight>54.00</geoidheight><course>253.4</course><type>1</type></trkpt>
      <trkpt lat="40.43385173" lon="-5.3028784"><ele>2073</ele><speed>7.56</speed><time>2016-06-29T10:58:27Z</time><pdop>4.0</pdop><geoidheight>54.00</geoidheight><course>243.3</course><type>1</type></trkpt>
      <trkpt lat="40.43379062" lon="-5.303043"><ele>2074</ele><speed>7.44</speed><time>2016-06-29T10:58:29Z</time><pdop>5.0</pdop><geoidheight>54.00</geoidheight><course>242.4</course><type>1</type></trkpt>
      <trkpt lat="40.43369754" lon="-5.30316121"><ele>2074</ele><speed>7.42</speed><time>2016-06-29T10:58:31Z</time><pdop>4.0</pdop><geoidheight>54.00</geoidheight><course>222.3</course><type>1</type></trkpt>
      <trkpt lat="40.4335687" lon="-5.30323579"><ele>2075</ele><speed>8.41</speed><time>2016-06-29T10:58:33Z</time><pdop>4.0</pdop><geoidheight>54.00</geoidheight><course>207.9</course><type>1</type></trkpt>
      <trkpt lat="40.43346384" lon="-5.303298"><ele>2077</ele><speed>7.09</speed><time>2016-06-29T10:58:35Z</time><pdop>7.0</pdop><geoidheight>54.00</geoidheight><course>203.7</course><type>1</type></trkpt>
      <trkpt lat="40.43328079" lon="-5.30329644"><ele>2078</ele><speed>8.51</speed><time>2016-06-29T10:58:37Z</time><pdop>8.0</pdop><geoidheight>54.00</geoidheight><course>180.3</course><type>1</type></trkpt>
      <trkpt lat="40.43313021" lon="-5.30325194"><ele>2078</ele><speed>8.87</speed><time>2016-06-29T10:58:39Z</time><pdop>8.0</pdop><geoidheight>54.00</geoidheight><course>163.0</course><type>1</type></trkpt>
      <trkpt lat="40.43297757" lon="-5.30305381"><ele>2076</ele><speed>10.09</speed><time>2016-06-29T10:58:41Z</time><pdop>9.0</pdop><geoidheight>54.00</geoidheight><course>139.2</course><type>1</type></trkpt>
      <trkpt lat="40.43293967" lon="-5.30278942"><ele>2080</ele><speed>14.13</speed><time>2016-06-29T10:58:42Z</time><pdop>7.0</pdop><geoidheight>54.00</geoidheight><course>114.4</course><type>1</type></trkpt>
      <trkpt lat="40.43289748" lon="-5.30262429"><ele>2080</ele><speed>13.79</speed><time>2016-06-29T10:58:43Z</time><pdop>5.0</pdop><geoidheight>54.00</geoidheight><course>106.2</course><type>1</type></trkpt>
      <trkpt lat="40.43288301" lon="-5.30246856"><ele>2080</ele><speed>13.20</speed><time>2016-06-29T10:58:44Z</time><pdop>6.0</pdop><geoidheight>54.00</geoidheight><course>100.0</course><type>1</type></trkpt>
      <trkpt lat="40.43291358" lon="-5.30220092"><ele>2082</ele><speed>11.18</speed><time>2016-06-29T10:58:46Z</time><pdop>5.0</pdop><geoidheight>54.00</geoidheight><course>75.1</course><type>1</type></trkpt>
      <trkpt lat="40.43296266" lon="-5.30206063"><ele>2085</ele><speed>10.96</speed><time>2016-06-29T10:58:47Z</time><pdop>5.0</pdop><geoidheight>54.00</geoidheight><course>66.4</course><type>1</type></trkpt>
      <trkpt lat="40.43302162" lon="-5.30195638"><ele>2085</ele><speed>10.77</speed><time>2016-06-29T10:58:48Z</time><pdop>4.0</pdop><geoidheight>54.00</geoidheight><course>57.2</course><type>1</type></trkpt>
      <trkpt lat="40.43307889" lon="-5.30185724"><ele>2087</ele><speed>10.01</speed><time>2016-06-29T10:58:49Z</time><pdop>4.0</pdop><geoidheight>54.00</geoidheight><course>50.2</course><type>1</type></trkpt>
      <trkpt lat="40.43314614" lon="-5.30177277"><ele>2088</ele><speed>9.34</speed><time>2016-06-29T10:58:50Z</time><pdop>5.0</pdop><geoidheight>54.00</geoidheight><course>40.5</course><type>1</type></trkpt>
      <trkpt lat="40.43323378" lon="-5.30170771"><ele>2088</ele><speed>9.22</speed><time>2016-06-29T10:58:51Z</time><pdop>6.0</pdop><geoidheight>54.00</geoidheight><course>28.0</course><type>1</type></trkpt>
      <trkpt lat="40.43333973" lon="-5.30167222"><ele>2090</ele><speed>9.80</speed><time>2016-06-29T10:58:52Z</time><pdop>5.0</pdop><geoidheight>54.00</geoidheight><course>15.4</course><type>1</type></trkpt>
      <trkpt lat="40.43348354" lon="-5.30164996"><ele>2092</ele><speed>8.16</speed><time>2016-06-29T10:58:54Z</time><pdop>5.0</pdop><geoidheight>54.00</geoidheight><course>2.1</course><type>1</type></trkpt>
      <trkpt lat="40.4336355" lon="-5.30166699"><ele>2092</ele><speed>8.30</speed><time>2016-06-29T10:58:56Z</time><pdop>6.0</pdop><geoidheight>54.00</geoidheight><course>356.9</course><type>1</type></trkpt>
      <trkpt lat="40.43374696" lon="-5.3018003"><ele>2092</ele><speed>5.78</speed><time>2016-06-29T10:58:59Z</time><pdop>5.0</pdop><geoidheight>54.00</geoidheight><course>313.2</course><type>1</type></trkpt>
      <trkpt lat="40.43375892" lon="-5.30195313"><ele>2093</ele><speed>4.55</speed><time>2016-06-29T10:59:02Z</time><pdop>4.0</pdop><geoidheight>54.00</geoidheight><course>243.3</course><type>1</type></trkpt>
      <trkpt lat="40.43370808" lon="-5.30205307"><ele>2093</ele><speed>4.66</speed><time>2016-06-29T10:59:04Z</time><pdop>5.0</pdop><geoidheight>54.00</geoidheight><course>227.6</course><type>1</type></trkpt>
      <trkpt lat="40.43358764" lon="-5.30212489"><ele>2094</ele><speed>6.37</speed><time>2016-06-29T10:59:06Z</time><pdop>3.0</pdop><geoidheight>54.00</geoidheight><course>199.6</course><type>1</type></trkpt>
      <trkpt lat="40.43352838" lon="-5.30214958"><ele>2095</ele><speed>6.57</speed><time>2016-06-29T10:59:07Z</time><pdop>3.0</pdop><geoidheight>54.00</geoidheight><course>193.0</course><type>1</type></trkpt>
      <trkpt lat="40.43347171" lon="-5.30216018"><ele>2095</ele><speed>6.41</speed><time>2016-06-29T10:59:08Z</time><pdop>3.0</pdop><geoidheight>54.00</geoidheight><course>191.1</course><type>1</type></trkpt>
      <trkpt lat="40.43337902" lon="-5.30218462"><ele>2092</ele><speed>5.71</speed><time>2016-06-29T10:59:10Z</time><pdop>5.0</pdop><geoidheight>54.00</geoidheight><course>189.0</course><type>1</type></trkpt>
      <trkpt lat="40.43317057" lon="-5.30218795"><ele>2091</ele><speed>7.74</speed><time>2016-06-29T10:59:13Z</time><pdop>6.0</pdop><geoidheight>54.00</geoidheight><course>178.8</course><type>1</type></trkpt>
      <trkpt lat="40.43302113" lon="-5.30217079"><ele>2091</ele><speed>8.53</speed><time>2016-06-29T10:59:15Z</time><pdop>6.0</pdop><geoidheight>54.00</geoidheight><course>176.1</course><type>1</type></trkpt>
      <trkpt lat="40.43285307" lon="-5.30216938"><ele>2090</ele><speed>9.13</speed><time>2016-06-29T10:59:17Z</time><pdop>10.0</pdop><geoidheight>54.00</geoidheight><course>176.2</course><type>1</type></trkpt>
      <trkpt lat="40.43258462" lon="-5.30213381"><ele>2089</ele><speed>9.75</speed><time>2016-06-29T10:59:20Z</time><pdop>10.0</pdop><geoidheight>54.00</geoidheight><course>173.6</course><type>1</type></trkpt>
      <trkpt lat="40.43239798" lon="-5.30207424"><ele>2088</ele><speed>10.04</speed><time>2016-06-29T10:59:22Z</time><pdop>10.0</pdop><geoidheight>54.00</geoidheight><course>167.9</course><type>1</type></trkpt>
      <trkpt lat="40.43219848" lon="-5.3019383"><ele>2088</ele><speed>10.71</speed><time>2016-06-29T10:59:24Z</time><pdop>11.0</pdop><geoidheight>54.00</geoidheight><course>159.9</course><type>1</type></trkpt>
      <trkpt lat="40.43193885" lon="-5.30191155"><ele>2088</ele><speed>12.81</speed><time>2016-06-29T10:59:26Z</time><pdop>11.0</pdop><geoidheight>54.00</geoidheight><course>168.4</course><type>1</type></trkpt>
      <trkpt lat="40.43175024" lon="-5.30179861"><ele>2087</ele><speed>12.20</speed><time>2016-06-29T10:59:28Z</time><pdop>10.0</pdop><geoidheight>54.00</geoidheight><course>163.4</course><type>1</type></trkpt>
      <trkpt lat="40.43154913" lon="-5.3017267"><ele>2086</ele><speed>11.84</speed><time>2016-06-29T10:59:30Z</time><pdop>10.0</pdop><geoidheight>54.00</geoidheight><course>169.9</course><type>1</type></trkpt>
      <trkpt lat="40.43135327" lon="-5.30173629"><ele>2084</ele><speed>11.68</speed><time>2016-06-29T10:59:32Z</time><pdop>10.0</pdop><geoidheight>54.00</geoidheight><course>179.6</course><type>1</type></trkpt>
      <trkpt lat="40.43116002" lon="-5.30174921"><ele>2084</ele><speed>11.50</speed><time>2016-06-29T10:59:34Z</time><pdop>10.0</pdop><geoidheight>54.00</geoidheight><course>181.4</course><type>1</type></trkpt>
      <trkpt lat="40.43091558" lon="-5.3018189"><ele>2084</ele><speed>9.05</speed><time>2016-06-29T10:59:37Z</time><pdop>10.0</pdop><geoidheight>54.00</geoidheight><course>193.2</course><type>1</type></trkpt>
      <trkpt lat="40.43086243" lon="-5.30216838"><ele>2082</ele><speed>7.14</speed><time>2016-06-29T10:59:41Z</time><pdop>11.0</pdop><geoidheight>54.00</geoidheight><course>275.6</course><type>1</type></trkpt>
      <trkpt lat="40.4309277" lon="-5.30245721"><ele>2078</ele><speed>8.70</speed><time>2016-06-29T10:59:44Z</time><pdop>10.0</pdop><geoidheight>54.00</geoidheight><course>287.5</course><type>1</type></trkpt>
      <trkpt lat="40.43108554" lon="-5.30270252"><ele>2078</ele><speed>8.81</speed><time>2016-06-29T10:59:47Z</time><pdop>9.0</pdop><geoidheight>54.00</geoidheight><course>314.6</course><type>1</type></trkpt>
      <trkpt lat="40.43126322" lon="-5.30287779"><ele>2074</ele><speed>9.54</speed><time>2016-06-29T10:59:50Z</time><pdop>10.0</pdop><geoidheight>54.00</geoidheight><course>314.5</course><type>1</type></trkpt>
      <trkpt lat="40.43136961" lon="-5.30309114"><ele>2073</ele><speed>9.93</speed><time>2016-06-29T10:59:52Z</time><pdop>10.0</pdop><geoidheight>54.00</geoidheight><course>306.0</course><type>1</type></trkpt>
      <trkpt lat="40.43149556" lon="-5.30328057"><ele>2072</ele><speed>10.06</speed><time>2016-06-29T10:59:54Z</time><pdop>10.0</pdop><geoidheight>54.00</geoidheight><course>312.9</course><type>1</type></trkpt>
      <trkpt lat="40.4316296" lon="-5.30345712"><ele>2075</ele><speed>10.63</speed><time>2016-06-29T10:59:56Z</time><pdop>10.0</pdop><geoidheight>54.00</geoidheight><course>315.3</course><type>1</type></trkpt>
      <trkpt lat="40.43178765" lon="-5.30360108"><ele>2072</ele><speed>10.86</speed><time>2016-06-29T10:59:58Z</time><pdop>4.0</pdop><geoidheight>54.00</geoidheight><course>330.9</course><type>1</type></trkpt>
      <trkpt lat="40.43187972" lon="-5.30364759"><ele>2071</ele><speed>10.88</speed><time>2016-06-29T10:59:59Z</time><pdop>4.0</pdop><geoidheight>54.00</geoidheight><course>337.1</course><type>1</type></trkpt>
      <trkpt lat="40.43197151" lon="-5.30369389"><ele>2070</ele><speed>10.47</speed><time>2016-06-29T11:00:00Z</time><pdop>4.0</pdop><geoidheight>54.00</geoidheight><course>342.4</course><type>1</type></trkpt>
      <trkpt lat="40.43206925" lon="-5.30372214"><ele>2069</ele><speed>10.62</speed><time>2016-06-29T11:00:01Z</time><pdop>4.0</pdop><geoidheight>54.00</geoidheight><course>347.1</course><type>1</type></trkpt>
      <trkpt lat="40.43217262" lon="-5.30370167"><ele>2069</ele><speed>10.93</speed><time>2016-06-29T11:00:02Z</time><pdop>3.0</pdop><geoidheight>54.00</geoidheight><course>1.5</course><type>1</type></trkpt>
      <trkpt lat="40.43226675" lon="-5.30367767"><ele>2067</ele><speed>11.10</speed><time>2016-06-29T11:00:03Z</time><pdop>3.0</pdop><geoidheight>54.00</geoidheight><course>6.9</course><type>1</type></trkpt>
      <trkpt lat="40.43236446" lon="-5.30366121"><ele>2067</ele><speed>10.74</speed><time>2016-06-29T11:00:04Z</time><pdop>3.0</pdop><geoidheight>54.00</geoidheight><course>7.8</course><type>1</type></trkpt>
      <trkpt lat="40.43244919" lon="-5.30365604"><ele>2067</ele><speed>9.73</speed><time>2016-06-29T11:00:05Z</time><pdop>3.0</pdop><geoidheight>54.00</geoidheight><course>4.6</course><type>1</type></trkpt>
      <trkpt lat="40.43252425" lon="-5.30366083"><ele>2067</ele><speed>8.53</speed><time>2016-06-29T11:00:06Z</time><pdop>3.0</pdop><geoidheight>54.00</geoidheight><course>359.2</course><type>1</type></trkpt>
      <trkpt lat="40.43260508" lon="-5.30365938"><ele>2068</ele><speed>8.58</speed><time>2016-06-29T11:00:07Z</time><pdop>5.0</pdop><geoidheight>54.00</geoidheight><course>0.2</course><type>1</type></trkpt>
      <trkpt lat="40.43271478" lon="-5.30373223"><ele>2067</ele><speed>7.47</speed><time>2016-06-29T11:00:09Z</time><pdop>7.0</pdop><geoidheight>54.00</geoidheight><course>342.8</course><type>1</type></trkpt>
      <trkpt lat="40.43280587" lon="-5.30381653"><ele>2067</ele><speed>6.59</speed><time>2016-06-29T11:00:11Z</time><pdop>4.0</pdop><geoidheight>54.00</geoidheight><course>322.5</course><type>1</type></trkpt>
      <trkpt lat="40.43288326" lon="-5.30393563"><ele>2065</ele><speed>6.87</speed><time>2016-06-29T11:00:13Z</time><pdop>5.0</pdop><geoidheight>54.00</geoidheight><course>310.9</course><type>1</type></trkpt>
      <trkpt lat="40.43296473" lon="-5.30412352"><ele>2064</ele><speed>8.11</speed><time>2016-06-29T11:00:15Z</time><pdop>5.0</pdop><geoidheight>54.00</geoidheight><course>302.1</course><type>1</type></trkpt>
      <trkpt lat="40.43300386" lon="-5.3042802"><ele>2061</ele><speed>7.45</speed><time>2016-06-29T11:00:17Z</time><pdop>5.0</pdop><geoidheight>54.00</geoidheight><course>285.5</course><type>1</type></trkpt>
      <trkpt lat="40.43303058" lon="-5.30445509"><ele>2063</ele><speed>7.43</speed><time>2016-06-29T11:00:19Z</time><pdop>4.0</pdop><geoidheight>54.00</geoidheight><course>279.4</course><type>1</type></trkpt>
      <trkpt lat="40.43303615" lon="-5.3045396"><ele>2061</ele><speed>6.94</speed><time>2016-06-29T11:00:20Z</time><pdop>3.0</pdop><geoidheight>54.00</geoidheight><course>278.2</course><type>1</type></trkpt>
      <trkpt lat="40.43304232" lon="-5.3046247"><ele>2061</ele><speed>7.02</speed><time>2016-06-29T11:00:21Z</time><pdop>3.0</pdop><geoidheight>54.00</geoidheight><course>274.8</course><type>1</type></trkpt>
      <trkpt lat="40.43304207" lon="-5.30472235"><ele>2060</ele><speed>7.70</speed><time>2016-06-29T11:00:22Z</time><pdop>3.0</pdop><geoidheight>54.00</geoidheight><course>268.5</course><type>1</type></trkpt>
      <trkpt lat="40.43302996" lon="-5.30482221"><ele>2058</ele><speed>8.03</speed><time>2016-06-29T11:00:23Z</time><pdop>3.0</pdop><geoidheight>54.00</geoidheight><course>262.4</course><type>1</type></trkpt>
      <trkpt lat="40.43301329" lon="-5.30491312"><ele>2059</ele><speed>7.42</speed><time>2016-06-29T11:00:24Z</time><pdop>3.0</pdop><geoidheight>54.00</geoidheight><course>258.0</course><type>1</type></trkpt>
      <trkpt lat="40.43299711" lon="-5.30499244"><ele>2058</ele><speed>6.46</speed><time>2016-06-29T11:00:25Z</time><pdop>3.0</pdop><geoidheight>54.00</geoidheight><course>253.2</course><type>1</type></trkpt>
      <trkpt lat="40.43294779" lon="-5.30509927"><ele>2056</ele><speed>5.42</speed><time>2016-06-29T11:00:27Z</time><pdop>3.0</pdop><geoidheight>54.00</geoidheight><course>239.1</course><type>1</type></trkpt>
      <trkpt lat="40.43289693" lon="-5.30522435"><ele>2053</ele><speed>6.35</speed><time>2016-06-29T11:00:29Z</time><pdop>3.0</pdop><geoidheight>54.00</geoidheight><course>241.8</course><type>1</type></trkpt>
      <trkpt lat="40.43287533" lon="-5.30530021"><ele>2053</ele><speed>6.77</speed><time>2016-06-29T11:00:30Z</time><pdop>3.0</pdop><geoidheight>54.00</geoidheight><course>248.0</course><type>1</type></trkpt>
      <trkpt lat="40.43284021" lon="-5.30541381"><ele>2051</ele><speed>8.97</speed><time>2016-06-29T11:00:31Z</time><pdop>3.0</pdop><geoidheight>54.00</geoidheight><course>247.8</course><type>1</type></trkpt>
      <trkpt lat="40.43282139" lon="-5.30551053"><ele>2054</ele><speed>8.80</speed><time>2016-06-29T11:00:32Z</time><pdop>3.0</pdop><geoidheight>54.00</geoidheight><course>249.8</course><type>1</type></trkpt>
      <trkpt lat="40.43281168" lon="-5.30561163"><ele>2053</ele><speed>8.97</speed><time>2016-06-29T11:00:33Z</time><pdop>3.0</pdop><geoidheight>54.00</geoidheight><course>255.7</course><type>1</type></trkpt>
      <trkpt lat="40.43280388" lon="-5.30571074"><ele>2052</ele><speed>8.62</speed><time>2016-06-29T11:00:34Z</time><pdop>4.0</pdop><geoidheight>54.00</geoidheight><course>260.6</course><type>1</type></trkpt>
      <trkpt lat="40.43278563" lon="-5.30584358"><ele>2050</ele><speed>6.26</speed><time>2016-06-29T11:00:36Z</time><pdop>4.0</pdop><geoidheight>54.00</geoidheight><course>262.2</course><type>1</type></trkpt>
      <trkpt lat="40.4327531" lon="-5.30599315"><ele>2047</ele><speed>6.57</speed><time>2016-06-29T11:00:38Z</time><pdop>4.0</pdop><geoidheight>54.00</geoidheight><course>250.4</course><type>1</type></trkpt>
      <trkpt lat="40.43270411" lon="-5.30612257"><ele>2044</ele><speed>6.35</speed><time>2016-06-29T11:00:40Z</time><pdop>4.0</pdop><geoidheight>54.00</geoidheight><course>246.9</course><type>1</type></trkpt>
      <trkpt lat="40.43267024" lon="-5.30629263"><ele>2041</ele><speed>6.98</speed><time>2016-06-29T11:00:42Z</time><pdop>4.0</pdop><geoidheight>54.00</geoidheight><course>253.1</course><type>1</type></trkpt>
      <trkpt lat="40.43265223" lon="-5.3064636"><ele>2040</ele><speed>7.52</speed><time>2016-06-29T11:00:44Z</time><pdop>5.0</pdop><geoidheight>54.00</geoidheight><course>262.6</course><type>1</type></trkpt>
      <trkpt lat="40.43263071" lon="-5.30658278"><ele>2040</ele><speed>8.58</speed><time>2016-06-29T11:00:45Z</time><pdop>5.0</pdop><geoidheight>54.00</geoidheight><course>257.6</course><type>1</type></trkpt>
      <trkpt lat="40.4325808" lon="-5.30674317"><ele>2040</ele><speed>7.34</speed><time>2016-06-29T11:00:47Z</time><pdop>4.0</pdop><geoidheight>54.00</geoidheight><course>247.5</course><type>1</type></trkpt>
      <trkpt lat="40.43253317" lon="-5.30687776"><ele>2040</ele><speed>6.77</speed><time>2016-06-29T11:00:49Z</time><pdop>3.0</pdop><geoidheight>54.00</geoidheight><course>248.4</course><type>1</type></trkpt>
      <trkpt lat="40.43250765" lon="-5.30694933"><ele>2040</ele><speed>6.06</speed><time>2016-06-29T11:00:50Z</time><pdop>3.0</pdop><geoidheight>54.00</geoidheight><course>244.0</course><type>1</type></trkpt>
      <trkpt lat="40.43245348" lon="-5.30707062"><ele>2042</ele><speed>6.09</speed><time>2016-06-29T11:00:52Z</time><pdop>3.0</pdop><geoidheight>54.00</geoidheight><course>237.5</course><type>1</type></trkpt>
      <trkpt lat="40.43238511" lon="-5.30715964"><ele>2043</ele><speed>5.44</speed><time>2016-06-29T11:00:54Z</time><pdop>3.0</pdop><geoidheight>54.00</geoidheight><course>216.4</course><type>1</type></trkpt>
      <trkpt lat="40.43233686" lon="-5.30724741"><ele>2043</ele><speed>5.06</speed><time>2016-06-29T11:00:56Z</time><pdop>3.0</pdop><geoidheight>54.00</geoidheight><course>234.6</course><type>1</type></trkpt>
      <trkpt lat="40.43231117" lon="-5.30738919"><ele>2042</ele><speed>6.23</speed><time>2016-06-29T11:00:58Z</time><pdop>3.0</pdop><geoidheight>54.00</geoidheight><course>256.8</course><type>1</type></trkpt>
      <trkpt lat="40.43230656" lon="-5.30747621"><ele>2043</ele><speed>7.03</speed><time>2016-06-29T11:00:59Z</time><pdop>3.0</pdop><geoidheight>54.00</geoidheight><course>265.8</course><type>1</type></trkpt>
      <trkpt lat="40.43230861" lon="-5.30756587"><ele>2042</ele><speed>6.97</speed><time>2016-06-29T11:01:00Z</time><pdop>3.0</pdop><geoidheight>54.00</geoidheight><course>269.7</course><type>1</type></trkpt>
      <trkpt lat="40.43231972" lon="-5.3077145"><ele>2041</ele><speed>6.04</speed><time>2016-06-29T11:01:02Z</time><pdop>4.0</pdop><geoidheight>54.00</geoidheight><course>274.4</course><type>1</type></trkpt>
      <trkpt lat="40.43234362" lon="-5.30785593"><ele>2040</ele><speed>6.06</speed><time>2016-06-29T11:01:04Z</time><pdop>3.0</pdop><geoidheight>54.00</geoidheight><course>281.3</course><type>1</type></trkpt>
      <trkpt lat="40.43238196" lon="-5.30799078"><ele>2040</ele><speed>6.13</speed><time>2016-06-29T11:01:06Z</time><pdop>3.0</pdop><geoidheight>54.00</geoidheight><course>294.9</course><type>1</type></trkpt>
      <trkpt lat="40.43241298" lon="-5.30805478"><ele>2039</ele><speed>6.14</speed><time>2016-06-29T11:01:07Z</time><pdop>3.0</pdop><geoidheight>54.00</geoidheight><course>302.9</course><type>1</type></trkpt>
      <trkpt lat="40.43244876" lon="-5.30812285"><ele>2041</ele><speed>5.80</speed><time>2016-06-29T11:01:08Z</time><pdop>3.0</pdop><geoidheight>54.00</geoidheight><course>302.4</course><type>1</type></trkpt>
      <trkpt lat="40.43247643" lon="-5.30821221"><ele>2038</ele><speed>5.27</speed><time>2016-06-29T11:01:10Z</time><pdop>3.0</pdop><geoidheight>54.00</geoidheight><course>296.7</course><type>1</type></trkpt>
      <trkpt lat="40.43251788" lon="-5.30834741"><ele>2037</ele><speed>6.35</speed><time>2016-06-29T11:01:12Z</time><pdop>4.0</pdop><geoidheight>54.00</geoidheight><course>293.7</course><type>1</type></trkpt>
      <trkpt lat="40.43253492" lon="-5.30844396"><ele>2035</ele><speed>7.18</speed><time>2016-06-29T11:01:13Z</time><pdop>4.0</pdop><geoidheight>54.00</geoidheight><course>291.6</course><type>1</type></trkpt>
      <trkpt lat="40.43257086" lon="-5.30856676"><ele>2035</ele><speed>5.46</speed><time>2016-06-29T11:01:15Z</time><pdop>4.0</pdop><geoidheight>54.00</geoidheight><course>290.6</course><type>1</type></trkpt>
      <trkpt lat="40.43260341" lon="-5.30868649"><ele>2035</ele><speed>4.91</speed><time>2016-06-29T11:01:17Z</time><pdop>3.0</pdop><geoidheight>54.00</geoidheight><course>287.6</course><type>1</type></trkpt>
      <trkpt lat="40.43260802" lon="-5.3088085"><ele>2035</ele><speed>4.68</speed><time>2016-06-29T11:01:19Z</time><pdop>4.0</pdop><geoidheight>54.00</geoidheight><course>270.9</course><type>1</type></trkpt>
      <trkpt lat="40.43261236" lon="-5.30894327"><ele>2034</ele><speed>4.79</speed><time>2016-06-29T11:01:21Z</time><pdop>4.0</pdop><geoidheight>54.00</geoidheight><course>275.7</course><type>1</type></trkpt>
      <trkpt lat="40.43267143" lon="-5.30903895"><ele>2033</ele><speed>5.30</speed><time>2016-06-29T11:01:23Z</time><pdop>5.0</pdop><geoidheight>54.00</geoidheight><course>311.0</course><type>1</type></trkpt>
      <trkpt lat="40.43280239" lon="-5.30908466"><ele>2034</ele><speed>7.47</speed><time>2016-06-29T11:01:25Z</time><pdop>7.0</pdop><geoidheight>54.00</geoidheight><course>336.9</course><type>1</type></trkpt>
      <trkpt lat="40.43298736" lon="-5.30914758"><ele>2034</ele><speed>9.33</speed><time>2016-06-29T11:01:27Z</time><pdop>4.0</pdop><geoidheight>54.00</geoidheight><course>356.1</course><type>1</type></trkpt>
      <trkpt lat="40.43306877" lon="-5.30910548"><ele>2033</ele><speed>9.28</speed><time>2016-06-29T11:01:28Z</time><pdop>4.0</pdop><geoidheight>54.00</geoidheight><course>7.2</course><type>1</type></trkpt>
      <trkpt lat="40.43314736" lon="-5.30907005"><ele>2032</ele><speed>9.48</speed><time>2016-06-29T11:01:29Z</time><pdop>4.0</pdop><geoidheight>54.00</geoidheight><course>17.1</course><type>1</type></trkpt>
      <trkpt lat="40.43323808" lon="-5.30903057"><ele>2032</ele><speed>9.81</speed><time>2016-06-29T11:01:30Z</time><pdop>4.0</pdop><geoidheight>54.00</geoidheight><course>19.7</course><type>1</type></trkpt>
      <trkpt lat="40.43332131" lon="-5.30899519"><ele>2033</ele><speed>9.63</speed><time>2016-06-29T11:01:31Z</time><pdop>4.0</pdop><geoidheight>54.00</geoidheight><course>17.6</course><type>1</type></trkpt>
      <trkpt lat="40.43340128" lon="-5.30897572"><ele>2033</ele><speed>9.14</speed><time>2016-06-29T11:01:32Z</time><pdop>4.0</pdop><geoidheight>54.00</geoidheight><course>15.5</course><type>1</type></trkpt>
      <trkpt lat="40.4335335" lon="-5.30890773"><ele>2033</ele><speed>8.71</speed><time>2016-06-29T11:01:34Z</time><pdop>4.0</pdop><geoidheight>54.00</geoidheight><course>18.5</course><type>1</type></trkpt>
      <trkpt lat="40.43360613" lon="-5.30887186"><ele>2033</ele><speed>9.52</speed><time>2016-06-29T11:01:35Z</time><pdop>3.0</pdop><geoidheight>54.00</geoidheight><course>20.0</course><type>1</type></trkpt>
      <trkpt lat="40.43369055" lon="-5.30883026"><ele>2034</ele><speed>9.57</speed><time>2016-06-29T11:01:36Z</time><pdop>4.0</pdop><geoidheight>54.00</geoidheight><course>19.9</course><type>1</type></trkpt>
      <trkpt lat="40.43376996" lon="-5.30879439"><ele>2033</ele><speed>9.03</speed><time>2016-06-29T11:01:37Z</time><pdop>4.0</pdop><geoidheight>54.00</geoidheight><course>20.2</course><type>1</type></trkpt>
      <trkpt lat="40.43383895" lon="-5.30876706"><ele>2033</ele><speed>7.84</speed><time>2016-06-29T11:01:38Z</time><pdop>4.0</pdop><geoidheight>54.00</geoidheight><course>18.6</course><type>1</type></trkpt>
      <trkpt lat="40.43395652" lon="-5.30874974"><ele>2032</ele><speed>7.22</speed><time>2016-06-29T11:01:40Z</time><pdop>4.0</pdop><geoidheight>54.00</geoidheight><course>2.1</course><type>1</type></trkpt>
      <trkpt lat="40.43402092" lon="-5.30879747"><ele>2032</ele><speed>7.73</speed><time>2016-06-29T11:01:41Z</time><pdop>4.0</pdop><geoidheight>54.00</geoidheight><course>345.9</course><type>1</type></trkpt>
      <trkpt lat="40.43409441" lon="-5.30884136"><ele>2032</ele><speed>8.19</speed><time>2016-06-29T11:01:42Z</time><pdop>4.0</pdop><geoidheight>54.00</geoidheight><course>337.8</course><type>1</type></trkpt>
      <trkpt lat="40.4341583" lon="-5.3088832"><ele>2031</ele><speed>8.25</speed><time>2016-06-29T11:01:43Z</time><pdop>3.0</pdop><geoidheight>54.00</geoidheight><course>331.9</course><type>1</type></trkpt>
      <trkpt lat="40.43421823" lon="-5.30892672"><ele>2032</ele><speed>7.82</speed><time>2016-06-29T11:01:44Z</time><pdop>3.0</pdop><geoidheight>54.00</geoidheight><course>332.1</course><type>1</type></trkpt>
      <trkpt lat="40.43428324" lon="-5.30896424"><ele>2032</ele><speed>7.46</speed><time>2016-06-29T11:01:45Z</time><pdop>3.0</pdop><geoidheight>54.00</geoidheight><course>336.3</course><type>1</type></trkpt>
      <trkpt lat="40.43434478" lon="-5.30899396"><ele>2032</ele><speed>7.30</speed><time>2016-06-29T11:01:46Z</time><pdop>3.0</pdop><geoidheight>54.00</geoidheight><course>338.7</course><type>1</type></trkpt>
      <trkpt lat="40.43440874" lon="-5.30903008"><ele>2031</ele><speed>7.34</speed><time>2016-06-29T11:01:47Z</time><pdop>3.0</pdop><geoidheight>54.00</geoidheight><course>335.9</course><type>1</type></trkpt>
      <trkpt lat="40.434465" lon="-5.30907614"><ele>2031</ele><speed>7.60</speed><time>2016-06-29T11:01:48Z</time><pdop>3.0</pdop><geoidheight>54.00</geoidheight><course>330.7</course><type>1</type></trkpt>
      <trkpt lat="40.43453432" lon="-5.30912439"><ele>2031</ele><speed>7.97</speed><time>2016-06-29T11:01:49Z</time><pdop>3.0</pdop><geoidheight>54.00</geoidheight><course>330.3</course><type>1</type></trkpt>
      <trkpt lat="40.43459998" lon="-5.30918914"><ele>2032</ele><speed>8.43</speed><time>2016-06-29T11:01:50Z</time><pdop>3.0</pdop><geoidheight>54.00</geoidheight><course>326.6</course><type>1</type></trkpt>
      <trkpt lat="40.43465789" lon="-5.30922433"><ele>2030</ele><speed>7.81</speed><time>2016-06-29T11:01:51Z</time><pdop>3.0</pdop><geoidheight>54.00</geoidheight><course>321.4</course><type>1</type></trkpt>
      <trkpt lat="40.43469118" lon="-5.30928404"><ele>2029</ele><speed>7.21</speed><time>2016-06-29T11:01:52Z</time><pdop>3.0</pdop><geoidheight>54.00</geoidheight><course>306.1</course><type>1</type></trkpt>
      <trkpt lat="40.43472112" lon="-5.30938633"><ele>2029</ele><speed>7.77</speed><time>2016-06-29T11:01:53Z</time><pdop>5.0</pdop><geoidheight>54.00</geoidheight><course>295.1</course><type>1</type></trkpt>
      <trkpt lat="40.43467862" lon="-5.30951666"><ele>2025</ele><speed>9.75</speed><time>2016-06-29T11:01:54Z</time><pdop>4.0</pdop><geoidheight>54.00</geoidheight><course>259.9</course><type>1</type></trkpt>
      <trkpt lat="40.43463362" lon="-5.30962377"><ele>2022</ele><speed>9.60</speed><time>2016-06-29T11:01:55Z</time><pdop>4.0</pdop><geoidheight>54.00</geoidheight><course>246.9</course><type>1</type></trkpt>
      <trkpt lat="40.43456295" lon="-5.30972155"><ele>2022</ele><speed>9.33</speed><time>2016-06-29T11:01:56Z</time><pdop>4.0</pdop><geoidheight>54.00</geoidheight><course>231.7</course><type>1</type></trkpt>
      <trkpt lat="40.43452086" lon="-5.30979409"><ele>2022</ele><speed>7.42</speed><time>2016-06-29T11:01:57Z</time><pdop>3.0</pdop><geoidheight>54.00</geoidheight><course>229.7</course><type>1</type></trkpt>
      <trkpt lat="40.43444803" lon="-5.30989691"><ele>2022</ele><speed>6.17</speed><time>2016-06-29T11:01:59Z</time><pdop>4.0</pdop><geoidheight>54.00</geoidheight><course>224.7</course><type>1</type></trkpt>
      <trkpt lat="40.43439944" lon="-5.3100449"><ele>2017</ele><speed>7.63</speed><time>2016-06-29T11:02:01Z</time><pdop>4.0</pdop><geoidheight>54.00</geoidheight><course>239.9</course><type>1</type></trkpt>
      <trkpt lat="40.43436815" lon="-5.31013421"><ele>2016</ele><speed>8.77</speed><time>2016-06-29T11:02:02Z</time><pdop>4.0</pdop><geoidheight>54.00</geoidheight><course>243.3</course><type>1</type></trkpt>
      <trkpt lat="40.43432962" lon="-5.310235"><ele>2015</ele><speed>9.08</speed><time>2016-06-29T11:02:03Z</time><pdop>3.0</pdop><geoidheight>54.00</geoidheight><course>242.1</course><type>1</type></trkpt>
      <trkpt lat="40.43429897" lon="-5.3103232"><ele>2014</ele><speed>8.74</speed><time>2016-06-29T11:02:04Z</time><pdop>4.0</pdop><geoidheight>54.00</geoidheight><course>240.9</course><type>1</type></trkpt>
      <trkpt lat="40.43426101" lon="-5.31039108"><ele>2011</ele><speed>8.01</speed><time>2016-06-29T11:02:05Z</time><pdop>3.0</pdop><geoidheight>54.00</geoidheight><course>235.5</course><type>1</type></trkpt>
      <trkpt lat="40.43421875" lon="-5.31046936"><ele>2010</ele><speed>7.65</speed><time>2016-06-29T11:02:06Z</time><pdop>3.0</pdop><geoidheight>54.00</geoidheight><course>234.5</course><type>1</type></trkpt>
      <trkpt lat="40.43418278" lon="-5.31054562"><ele>2009</ele><speed>7.84</speed><time>2016-06-29T11:02:07Z</time><pdop>3.0</pdop><geoidheight>54.00</geoidheight><course>236.6</course><type>1</type></trkpt>
      <trkpt lat="40.4341405" lon="-5.31062651"><ele>2008</ele><speed>7.97</speed><time>2016-06-29T11:02:08Z</time><pdop>4.0</pdop><geoidheight>54.00</geoidheight><course>237.5</course><type>1</type></trkpt>
      <trkpt lat="40.43411423" lon="-5.31071958"><ele>2005</ele><speed>8.27</speed><time>2016-06-29T11:02:09Z</time><pdop>3.0</pdop><geoidheight>54.00</geoidheight><course>245.7</course><type>1</type></trkpt>
      <trkpt lat="40.43408245" lon="-5.31081694"><ele>2002</ele><speed>8.76</speed><time>2016-06-29T11:02:10Z</time><pdop>3.0</pdop><geoidheight>54.00</geoidheight><course>248.4</course><type>1</type></trkpt>
      <trkpt lat="40.43405041" lon="-5.3109229"><ele>2000</ele><speed>9.20</speed><time>2016-06-29T11:02:11Z</time><pdop>3.0</pdop><geoidheight>54.00</geoidheight><course>247.9</course><type>1</type></trkpt>
      <trkpt lat="40.43402147" lon="-5.31102954"><ele>1998</ele><speed>9.39</speed><time>2016-06-29T11:02:12Z</time><pdop>3.0</pdop><geoidheight>54.00</geoidheight><course>248.9</course><type>1</type></trkpt>
      <trkpt lat="40.43400385" lon="-5.31113066"><ele>1998</ele><speed>8.92</speed><time>2016-06-29T11:02:13Z</time><pdop>3.0</pdop><geoidheight>54.00</geoidheight><course>253.7</course><type>1</type></trkpt>
      <trkpt lat="40.43399227" lon="-5.3112346"><ele>1998</ele><speed>8.58</speed><time>2016-06-29T11:02:14Z</time><pdop>3.0</pdop><geoidheight>54.00</geoidheight><course>259.4</course><type>1</type></trkpt>
      <trkpt lat="40.43398465" lon="-5.31133505"><ele>1998</ele><speed>8.60</speed><time>2016-06-29T11:02:15Z</time><pdop>3.0</pdop><geoidheight>54.00</geoidheight><course>265.3</course><type>1</type></trkpt>
      <trkpt lat="40.43399113" lon="-5.31144381"><ele>1997</ele><speed>8.75</speed><time>2016-06-29T11:02:16Z</time><pdop>3.0</pdop><geoidheight>54.00</geoidheight><course>271.6</course><type>1</type></trkpt>
      <trkpt lat="40.43399835" lon="-5.31157651"><ele>1997</ele><speed>9.97</speed><time>2016-06-29T11:02:17Z</time><pdop>3.0</pdop><geoidheight>54.00</geoidheight><course>274.5</course><type>1</type></trkpt>
      <trkpt lat="40.43400804" lon="-5.31168987"><ele>1995</ele><speed>9.87</speed><time>2016-06-29T11:02:18Z</time><pdop>3.0</pdop><geoidheight>54.00</geoidheight><course>276.8</course><type>1</type></trkpt>
      <trkpt lat="40.43403564" lon="-5.3117842"><ele>1996</ele><speed>8.76</speed><time>2016-06-29T11:02:19Z</time><pdop>3.0</pdop><geoidheight>54.00</geoidheight><course>286.4</course><type>1</type></trkpt>
      <trkpt lat="40.43408317" lon="-5.31186922"><ele>1996</ele><speed>8.45</speed><time>2016-06-29T11:02:20Z</time><pdop>3.0</pdop><geoidheight>54.00</geoidheight><course>303.1</course><type>1</type></trkpt>
      <trkpt lat="40.43413495" lon="-5.31189419"><ele>1997</ele><speed>6.72</speed><time>2016-06-29T11:02:21Z</time><pdop>3.0</pdop><geoidheight>54.00</geoidheight><course>329.9</course><type>1</type></trkpt>
      <trkpt lat="40.43421756" lon="-5.31190549"><ele>1999</ele><speed>4.60</speed><time>2016-06-29T11:02:23Z</time><pdop>3.0</pdop><geoidheight>54.00</geoidheight><course>351.6</course><type>1</type></trkpt>
      <trkpt lat="40.43428778" lon="-5.31191616"><ele>1999</ele><speed>4.36</speed><time>2016-06-29T11:02:25Z</time><pdop>3.0</pdop><geoidheight>54.00</geoidheight><course>357.1</course><type>1</type></trkpt>
      <trkpt lat="40.43438194" lon="-5.31190242"><ele>1998</ele><speed>5.57</speed><time>2016-06-29T11:02:27Z</time><pdop>5.0</pdop><geoidheight>54.00</geoidheight><course>358.7</course><type>1</type></trkpt>
      <trkpt lat="40.43451351" lon="-5.31196805"><ele>1997</ele><speed>7.44</speed><time>2016-06-29T11:02:29Z</time><pdop>5.0</pdop><geoidheight>54.00</geoidheight><course>336.7</course><type>1</type></trkpt>
      <trkpt lat="40.43464661" lon="-5.31209732"><ele>1995</ele><speed>8.02</speed><time>2016-06-29T11:02:31Z</time><pdop>5.0</pdop><geoidheight>54.00</geoidheight><course>337.0</course><type>1</type></trkpt>
      <trkpt lat="40.43478446" lon="-5.312096"><ele>1994</ele><speed>7.84</speed><time>2016-06-29T11:02:33Z</time><pdop>4.0</pdop><geoidheight>54.00</geoidheight><course>359.8</course><type>1</type></trkpt>
      <trkpt lat="40.43492434" lon="-5.31205775"><ele>1990</ele><speed>8.61</speed><time>2016-06-29T11:02:35Z</time><pdop>4.0</pdop><geoidheight>54.00</geoidheight><course>10.8</course><type>1</type></trkpt>
      <trkpt lat="40.43499916" lon="-5.31204321"><ele>1989</ele><speed>8.98</speed><time>2016-06-29T11:02:36Z</time><pdop>3.0</pdop><geoidheight>54.00</geoidheight><course>15.1</course><type>1</type></trkpt>
      <trkpt lat="40.43508072" lon="-5.31200749"><ele>1987</ele><speed>9.35</speed><time>2016-06-29T11:02:37Z</time><pdop>4.0</pdop><geoidheight>54.00</geoidheight><course>17.8</course><type>1</type></trkpt>
      <trkpt lat="40.43516031" lon="-5.31197322"><ele>1986</ele><speed>9.48</speed><time>2016-06-29T11:02:38Z</time><pdop>4.0</pdop><geoidheight>54.00</geoidheight><course>16.9</course><type>1</type></trkpt>
      <trkpt lat="40.43524489" lon="-5.31194679"><ele>1983</ele><speed>9.58</speed><time>2016-06-29T11:02:39Z</time><pdop>4.0</pdop><geoidheight>54.00</geoidheight><course>14.0</course><type>1</type></trkpt>
      <trkpt lat="40.43532867" lon="-5.31194177"><ele>1981</ele><speed>9.65</speed><time>2016-06-29T11:02:40Z</time><pdop>4.0</pdop><geoidheight>54.00</geoidheight><course>9.9</course><type>1</type></trkpt>
      <trkpt lat="40.43540972" lon="-5.31193254"><ele>1980</ele><speed>9.45</speed><time>2016-06-29T11:02:41Z</time><pdop>4.0</pdop><geoidheight>54.00</geoidheight><course>7.3</course><type>1</type></trkpt>
      <trkpt lat="40.43548987" lon="-5.31193363"><ele>1980</ele><speed>8.85</speed><time>2016-06-29T11:02:42Z</time><pdop>4.0</pdop><geoidheight>54.00</geoidheight><course>359.4</course><type>1</type></trkpt>
      <trkpt lat="40.43557528" lon="-5.31194929"><ele>1979</ele><speed>8.73</speed><time>2016-06-29T11:02:43Z</time><pdop>4.0</pdop><geoidheight>54.00</geoidheight><course>354.3</course><type>1</type></trkpt>
      <trkpt lat="40.43565593" lon="-5.31196739"><ele>1978</ele><speed>8.95</speed><time>2016-06-29T11:02:44Z</time><pdop>5.0</pdop><geoidheight>54.00</geoidheight><course>354.0</course><type>1</type></trkpt>
      <trkpt lat="40.43584268" lon="-5.31194958"><ele>1974</ele><speed>10.88</speed><time>2016-06-29T11:02:46Z</time><pdop>4.0</pdop><geoidheight>54.00</geoidheight><course>3.5</course><type>1</type></trkpt>
      <trkpt lat="40.43593549" lon="-5.31194672"><ele>1971</ele><speed>11.02</speed><time>2016-06-29T11:02:47Z</time><pdop>4.0</pdop><geoidheight>54.00</geoidheight><course>3.9</course><type>1</type></trkpt>
      <trkpt lat="40.43604294" lon="-5.31194969"><ele>1971</ele><speed>11.49</speed><time>2016-06-29T11:02:48Z</time><pdop>5.0</pdop><geoidheight>54.00</geoidheight><course>1.9</course><type>1</type></trkpt>
      <trkpt lat="40.43614677" lon="-5.31196661"><ele>1970</ele><speed>11.41</speed><time>2016-06-29T11:02:49Z</time><pdop>6.0</pdop><geoidheight>54.00</geoidheight><course>358.5</course><type>1</type></trkpt>
      <trkpt lat="40.43626001" lon="-5.31194474"><ele>1969</ele><speed>11.44</speed><time>2016-06-29T11:02:50Z</time><pdop>6.0</pdop><geoidheight>54.00</geoidheight><course>3.1</course><type>1</type></trkpt>
      <trkpt lat="40.43641877" lon="-5.31181418"><ele>1968</ele><speed>11.12</speed><time>2016-06-29T11:02:52Z</time><pdop>4.0</pdop><geoidheight>54.00</geoidheight><course>32.7</course><type>1</type></trkpt>
      <trkpt lat="40.43647312" lon="-5.31170704"><ele>1968</ele><speed>11.46</speed><time>2016-06-29T11:02:53Z</time><pdop>4.0</pdop><geoidheight>54.00</geoidheight><course>44.9</course><type>1</type></trkpt>
      <trkpt lat="40.43653442" lon="-5.31161729"><ele>1969</ele><speed>10.56</speed><time>2016-06-29T11:02:54Z</time><pdop>4.0</pdop><geoidheight>54.00</geoidheight><course>50.0</course><type>1</type></trkpt>
      <trkpt lat="40.43661359" lon="-5.31153591"><ele>1969</ele><speed>10.07</speed><time>2016-06-29T11:02:55Z</time><pdop>4.0</pdop><geoidheight>54.00</geoidheight><course>41.6</course><type>1</type></trkpt>
      <trkpt lat="40.4366867" lon="-5.31148161"><ele>1968</ele><speed>9.37</speed><time>2016-06-29T11:02:56Z</time><pdop>3.0</pdop><geoidheight>54.00</geoidheight><course>30.7</course><type>1</type></trkpt>
      <trkpt lat="40.43677155" lon="-5.31144888"><ele>1967</ele><speed>9.45</speed><time>2016-06-29T11:02:57Z</time><pdop>3.0</pdop><geoidheight>54.00</geoidheight><course>18.7</course><type>1</type></trkpt>
      <trkpt lat="40.4368646" lon="-5.31142967"><ele>1966</ele><speed>10.19</speed><time>2016-06-29T11:02:58Z</time><pdop>3.0</pdop><geoidheight>54.00</geoidheight><course>12.9</course><type>1</type></trkpt>
      <trkpt lat="40.43696462" lon="-5.31140483"><ele>1965</ele><speed>10.81</speed><time>2016-06-29T11:02:59Z</time><pdop>3.0</pdop><geoidheight>54.00</geoidheight><course>14.0</course><type>1</type></trkpt>
      <trkpt lat="40.43707328" lon="-5.31137471"><ele>1965</ele><speed>11.52</speed><time>2016-06-29T11:03:00Z</time><pdop>4.0</pdop><geoidheight>54.00</geoidheight><course>10.9</course><type>1</type></trkpt>
      <trkpt lat="40.43716847" lon="-5.31133037"><ele>1964</ele><speed>11.39</speed><time>2016-06-29T11:03:01Z</time><pdop>4.0</pdop><geoidheight>54.00</geoidheight><course>17.4</course><type>1</type></trkpt>
      <trkpt lat="40.43724249" lon="-5.31128039"><ele>1963</ele><speed>9.92</speed><time>2016-06-29T11:03:02Z</time><pdop>3.0</pdop><geoidheight>54.00</geoidheight><course>21.8</course><type>1</type></trkpt>
      <trkpt lat="40.43732246" lon="-5.31124951"><ele>1964</ele><speed>9.79</speed><time>2016-06-29T11:03:03Z</time><pdop>3.0</pdop><geoidheight>54.00</geoidheight><course>19.8</course><type>1</type></trkpt>
      <trkpt lat="40.43740528" lon="-5.31120583"><ele>1963</ele><speed>9.81</speed><time>2016-06-29T11:03:04Z</time><pdop>3.0</pdop><geoidheight>54.00</geoidheight><course>20.1</course><type>1</type></trkpt>
      <trkpt lat="40.4374864" lon="-5.31116394"><ele>1964</ele><speed>9.61</speed><time>2016-06-29T11:03:05Z</time><pdop>3.0</pdop><geoidheight>54.00</geoidheight><course>22.1</course><type>1</type></trkpt>
      <trkpt lat="40.43755344" lon="-5.31111003"><ele>1965</ele><speed>9.13</speed><time>2016-06-29T11:03:06Z</time><pdop>3.0</pdop><geoidheight>54.00</geoidheight><course>27.3</course><type>1</type></trkpt>
      <trkpt lat="40.43761092" lon="-5.31104267"><ele>1963</ele><speed>9.03</speed><time>2016-06-29T11:03:07Z</time><pdop>3.0</pdop><geoidheight>54.00</geoidheight><course>34.2</course><type>1</type></trkpt>
      <trkpt lat="40.43767456" lon="-5.31096891"><ele>1962</ele><speed>9.27</speed><time>2016-06-29T11:03:08Z</time><pdop>3.0</pdop><geoidheight>54.00</geoidheight><course>37.3</course><type>1</type></trkpt>
      <trkpt lat="40.43774512" lon="-5.31090633"><ele>1962</ele><speed>9.61</speed><time>2016-06-29T11:03:09Z</time><pdop>4.0</pdop><geoidheight>54.00</geoidheight><course>35.6</course><type>1</type></trkpt>
      <trkpt lat="40.43782543" lon="-5.31086647"><ele>1962</ele><speed>9.36</speed><time>2016-06-29T11:03:10Z</time><pdop>4.0</pdop><geoidheight>54.00</geoidheight><course>28.7</course><type>1</type></trkpt>
      <trkpt lat="40.43798697" lon="-5.31082695"><ele>1961</ele><speed>8.93</speed><time>2016-06-29T11:03:12Z</time><pdop>5.0</pdop><geoidheight>54.00</geoidheight><course>12.3</course><type>1</type></trkpt>
      <trkpt lat="40.43809431" lon="-5.3109264"><ele>1961</ele><speed>4.72</speed><time>2016-06-29T11:03:15Z</time><pdop>5.0</pdop><geoidheight>54.00</geoidheight><course>304.7</course><type>1</type></trkpt>
      <trkpt lat="40.43808953" lon="-5.31107593"><ele>1961</ele><speed>5.79</speed><time>2016-06-29T11:03:17Z</time><pdop>6.0</pdop><geoidheight>54.00</geoidheight><course>267.6</course><type>1</type></trkpt>
      <trkpt lat="40.4380022" lon="-5.31117241"><ele>1960</ele><speed>8.45</speed><time>2016-06-29T11:03:18Z</time><pdop>4.0</pdop><geoidheight>54.00</geoidheight><course>228.8</course><type>1</type></trkpt>
      <trkpt lat="40.43790213" lon="-5.31128846"><ele>1963</ele><speed>7.49</speed><time>2016-06-29T11:03:20Z</time><pdop>6.0</pdop><geoidheight>54.00</geoidheight><course>219.7</course><type>1</type></trkpt>
      <trkpt lat="40.43770094" lon="-5.31127762"><ele>1963</ele><speed>8.83</speed><time>2016-06-29T11:03:22Z</time><pdop>8.0</pdop><geoidheight>54.00</geoidheight><course>186.8</course><type>1</type></trkpt>
      <trkpt lat="40.43755107" lon="-5.31114532"><ele>1961</ele><speed>12.17</speed><time>2016-06-29T11:03:23Z</time><pdop>8.0</pdop><geoidheight>54.00</geoidheight><course>163.2</course><type>1</type></trkpt>
      <trkpt lat="40.43747175" lon="-5.31082255"><ele>1959</ele><speed>10.47</speed><time>2016-06-29T11:03:25Z</time><pdop>6.0</pdop><geoidheight>54.00</geoidheight><course>119.8</course><type>1</type></trkpt>
      <trkpt lat="40.43748973" lon="-5.31065284"><ele>1960</ele><speed>11.27</speed><time>2016-06-29T11:03:26Z</time><pdop>6.0</pdop><geoidheight>54.00</geoidheight><course>95.9</course><type>1</type></trkpt>
      <trkpt lat="40.43747273" lon="-5.31049585"><ele>1960</ele><speed>11.53</speed><time>2016-06-29T11:03:27Z</time><pdop>5.0</pdop><geoidheight>54.00</geoidheight><course>93.0</course><type>1</type></trkpt>
      <trkpt lat="40.43748303" lon="-5.3103559"><ele>1961</ele><speed>11.35</speed><time>2016-06-29T11:03:28Z</time><pdop>5.0</pdop><geoidheight>54.00</geoidheight><course>85.9</course><type>1</type></trkpt>
      <trkpt lat="40.43752598" lon="-5.3102015"><ele>1960</ele><speed>12.21</speed><time>2016-06-29T11:03:29Z</time><pdop>4.0</pdop><geoidheight>54.00</geoidheight><course>75.1</course><type>1</type></trkpt>
      <trkpt lat="40.43756586" lon="-5.3100487"><ele>1961</ele><speed>12.28</speed><time>2016-06-29T11:03:30Z</time><pdop>4.0</pdop><geoidheight>54.00</geoidheight><course>73.3</course><type>1</type></trkpt>
      <trkpt lat="40.43759535" lon="-5.30990846"><ele>1961</ele><speed>11.74</speed><time>2016-06-29T11:03:31Z</time><pdop>4.0</pdop><geoidheight>54.00</geoidheight><course>73.1</course><type>1</type></trkpt>
      <trkpt lat="40.43762335" lon="-5.30978852"><ele>1962</ele><speed>11.14</speed><time>2016-06-29T11:03:32Z</time><pdop>3.0</pdop><geoidheight>54.00</geoidheight><course>72.2</course><type>1</type></trkpt>
      <trkpt lat="40.43764975" lon="-5.30967202"><ele>1963</ele><speed>10.78</speed><time>2016-06-29T11:03:33Z</time><pdop>3.0</pdop><geoidheight>54.00</geoidheight><course>71.2</course><type>1</type></trkpt>
      <trkpt lat="40.43768794" lon="-5.30955547"><ele>1961</ele><speed>10.78</speed><time>2016-06-29T11:03:34Z</time><pdop>3.0</pdop><geoidheight>54.00</geoidheight><course>67.6</course><type>1</type></trkpt>
      <trkpt lat="40.43772653" lon="-5.30943926"><ele>1960</ele><speed>10.92</speed><time>2016-06-29T11:03:35Z</time><pdop>3.0</pdop><geoidheight>54.00</geoidheight><course>65.1</course><type>1</type></trkpt>
      <trkpt lat="40.43777392" lon="-5.30931854"><ele>1960</ele><speed>11.57</speed><time>2016-06-29T11:03:36Z</time><pdop>3.0</pdop><geoidheight>54.00</geoidheight><course>62.1</course><type>1</type></trkpt>
      <trkpt lat="40.43785856" lon="-5.30923065"><ele>1958</ele><speed>11.24</speed><time>2016-06-29T11:03:37Z</time><pdop>3.0</pdop><geoidheight>54.00</geoidheight><course>47.6</course><type>1</type></trkpt>
      <trkpt lat="40.43793569" lon="-5.30914484"><ele>1957</ele><speed>11.02</speed><time>2016-06-29T11:03:38Z</time><pdop>3.0</pdop><geoidheight>54.00</geoidheight><course>40.3</course><type>1</type></trkpt>
      <trkpt lat="40.43801596" lon="-5.30906082"><ele>1957</ele><speed>10.87</speed><time>2016-06-29T11:03:39Z</time><pdop>3.0</pdop><geoidheight>54.00</geoidheight><course>37.4</course><type>1</type></trkpt>
      <trkpt lat="40.4380885" lon="-5.30898338"><ele>1957</ele><speed>10.69</speed><time>2016-06-29T11:03:40Z</time><pdop>3.0</pdop><geoidheight>54.00</geoidheight><course>37.6</course><type>1</type></trkpt>
      <trkpt lat="40.43816448" lon="-5.30890917"><ele>1956</ele><speed>10.65</speed><time>2016-06-29T11:03:41Z</time><pdop>4.0</pdop><geoidheight>54.00</geoidheight><course>38.6</course><type>1</type></trkpt>
      <trkpt lat="40.43823269" lon="-5.30883103"><ele>1955</ele><speed>10.52</speed><time>2016-06-29T11:03:42Z</time><pdop>4.0</pdop><geoidheight>54.00</geoidheight><course>37.7</course><type>1</type></trkpt>
      <trkpt lat="40.43831283" lon="-5.30876148"><ele>1953</ele><speed>10.52</speed><time>2016-06-29T11:03:43Z</time><pdop>4.0</pdop><geoidheight>54.00</geoidheight><course>34.0</course><type>1</type></trkpt>
      <trkpt lat="40.43841743" lon="-5.30870295"><ele>1953</ele><speed>10.90</speed><time>2016-06-29T11:03:44Z</time><pdop>5.0</pdop><geoidheight>54.00</geoidheight><course>26.4</course><type>1</type></trkpt>
      <trkpt lat="40.43857914" lon="-5.30860677"><ele>1954</ele><speed>11.28</speed><time>2016-06-29T11:03:46Z</time><pdop>6.0</pdop><geoidheight>54.00</geoidheight><course>25.1</course><type>1</type></trkpt>
      <trkpt lat="40.43877656" lon="-5.30843274"><ele>1954</ele><speed>12.36</speed><time>2016-06-29T11:03:48Z</time><pdop>6.0</pdop><geoidheight>54.00</geoidheight><course>37.9</course><type>1</type></trkpt>
      <trkpt lat="40.43886183" lon="-5.30833354"><ele>1953</ele><speed>11.51</speed><time>2016-06-29T11:03:49Z</time><pdop>5.0</pdop><geoidheight>54.00</geoidheight><course>43.6</course><type>1</type></trkpt>
      <trkpt lat="40.43892997" lon="-5.30825073"><ele>1952</ele><speed>11.13</speed><time>2016-06-29T11:03:50Z</time><pdop>5.0</pdop><geoidheight>54.00</geoidheight><course>43.5</course><type>1</type></trkpt>
      <trkpt lat="40.43900626" lon="-5.30817023"><ele>1952</ele><speed>10.55</speed><time>2016-06-29T11:03:51Z</time><pdop>5.0</pdop><geoidheight>54.00</geoidheight><course>41.8</course><type>1</type></trkpt>
      <trkpt lat="40.43912293" lon="-5.30802612"><ele>1948</ele><speed>9.59</speed><time>2016-06-29T11:03:53Z</time><pdop>6.0</pdop><geoidheight>54.00</geoidheight><course>35.9</course><type>1</type></trkpt>
      <trkpt lat="40.43926878" lon="-5.30791538"><ele>1946</ele><speed>9.42</speed><time>2016-06-29T11:03:55Z</time><pdop>5.0</pdop><geoidheight>54.00</geoidheight><course>26.2</course><type>1</type></trkpt>
      <trkpt lat="40.43942964" lon="-5.30783535"><ele>1944</ele><speed>9.58</speed><time>2016-06-29T11:03:57Z</time><pdop>4.0</pdop><geoidheight>54.00</geoidheight><course>21.1</course><type>1</type></trkpt>
      <trkpt lat="40.43950806" lon="-5.30780353"><ele>1944</ele><speed>9.64</speed><time>2016-06-29T11:03:58Z</time><pdop>5.0</pdop><geoidheight>54.00</geoidheight><course>17.9</course><type>1</type></trkpt>
      <trkpt lat="40.43964999" lon="-5.30777021"><ele>1940</ele><speed>9.19</speed><time>2016-06-29T11:04:00Z</time><pdop>4.0</pdop><geoidheight>54.00</geoidheight><course>9.2</course><type>1</type></trkpt>
      <trkpt lat="40.43974386" lon="-5.30775428"><ele>1938</ele><speed>9.43</speed><time>2016-06-29T11:04:01Z</time><pdop>4.0</pdop><geoidheight>54.00</geoidheight><course>5.7</course><type>1</type></trkpt>
      <trkpt lat="40.43983422" lon="-5.30775045"><ele>1937</ele><speed>9.81</speed><time>2016-06-29T11:04:02Z</time><pdop>4.0</pdop><geoidheight>54.00</geoidheight><course>2.9</course><type>1</type></trkpt>
      <trkpt lat="40.43994279" lon="-5.30775174"><ele>1937</ele><speed>10.40</speed><time>2016-06-29T11:04:03Z</time><pdop>4.0</pdop><geoidheight>54.00</geoidheight><course>359.1</course><type>1</type></trkpt>
      <trkpt lat="40.44002652" lon="-5.3077543"><ele>1937</ele><speed>10.27</speed><time>2016-06-29T11:04:04Z</time><pdop>5.0</pdop><geoidheight>54.00</geoidheight><course>358.8</course><type>1</type></trkpt>
      <trkpt lat="40.44014069" lon="-5.30776201"><ele>1937</ele><speed>11.70</speed><time>2016-06-29T11:04:05Z</time><pdop>5.0</pdop><geoidheight>54.00</geoidheight><course>358.2</course><type>1</type></trkpt>
      <trkpt lat="40.4402501" lon="-5.30775668"><ele>1937</ele><speed>11.58</speed><time>2016-06-29T11:04:06Z</time><pdop>6.0</pdop><geoidheight>54.00</geoidheight><course>358.1</course><type>1</type></trkpt>
      <trkpt lat="40.44035862" lon="-5.3077918"><ele>1936</ele><speed>11.57</speed><time>2016-06-29T11:04:07Z</time><pdop>4.0</pdop><geoidheight>54.00</geoidheight><course>354.4</course><type>1</type></trkpt>
      <trkpt lat="40.44046376" lon="-5.30779551"><ele>1936</ele><speed>11.31</speed><time>2016-06-29T11:04:08Z</time><pdop>4.0</pdop><geoidheight>54.00</geoidheight><course>359.2</course><type>1</type></trkpt>
      <trkpt lat="40.4405655" lon="-5.30777272"><ele>1935</ele><speed>11.48</speed><time>2016-06-29T11:04:09Z</time><pdop>5.0</pdop><geoidheight>54.00</geoidheight><course>7.6</course><type>1</type></trkpt>
      <trkpt lat="40.44066848" lon="-5.30775197"><ele>1935</ele><speed>11.56</speed><time>2016-06-29T11:04:10Z</time><pdop>4.0</pdop><geoidheight>54.00</geoidheight><course>11.4</course><type>1</type></trkpt>
      <trkpt lat="40.44076516" lon="-5.30770793"><ele>1934</ele><speed>11.16</speed><time>2016-06-29T11:04:11Z</time><pdop>4.0</pdop><geoidheight>54.00</geoidheight><course>13.9</course><type>1</type></trkpt>
      <trkpt lat="40.44085915" lon="-5.30767346"><ele>1934</ele><speed>11.04</speed><time>2016-06-29T11:04:12Z</time><pdop>4.0</pdop><geoidheight>54.00</geoidheight><course>17.2</course><type>1</type></trkpt>
      <trkpt lat="40.44095675" lon="-5.30762174"><ele>1932</ele><speed>11.10</speed><time>2016-06-29T11:04:13Z</time><pdop>4.0</pdop><geoidheight>54.00</geoidheight><course>21.1</course><type>1</type></trkpt>
      <trkpt lat="40.44105309" lon="-5.30757729"><ele>1932</ele><speed>11.19</speed><time>2016-06-29T11:04:14Z</time><pdop>5.0</pdop><geoidheight>54.00</geoidheight><course>23.0</course><type>1</type></trkpt>
      <trkpt lat="40.4412088" lon="-5.3074852"><ele>1927</ele><speed>10.64</speed><time>2016-06-29T11:04:16Z</time><pdop>4.0</pdop><geoidheight>54.00</geoidheight><course>20.3</course><type>1</type></trkpt>
      <trkpt lat="40.44138144" lon="-5.30741776"><ele>1927</ele><speed>10.22</speed><time>2016-06-29T11:04:18Z</time><pdop>7.0</pdop><geoidheight>54.00</geoidheight><course>13.8</course><type>1</type></trkpt>
      <trkpt lat="40.44155245" lon="-5.30741006"><ele>1926</ele><speed>10.03</speed><time>2016-06-29T11:04:20Z</time><pdop>10.0</pdop><geoidheight>54.00</geoidheight><course>1.9</course><type>1</type></trkpt>
      <trkpt lat="40.44175694" lon="-5.30742222"><ele>1926</ele><speed>10.60</speed><time>2016-06-29T11:04:22Z</time><pdop>8.0</pdop><geoidheight>54.00</geoidheight><course>357.5</course><type>1</type></trkpt>
      <trkpt lat="40.44196236" lon="-5.30743957"><ele>1926</ele><speed>10.26</speed><time>2016-06-29T11:04:24Z</time><pdop>5.0</pdop><geoidheight>54.00</geoidheight><course>356.3</course><type>1</type></trkpt>
      <trkpt lat="40.44204503" lon="-5.3074441"><ele>1926</ele><speed>9.69</speed><time>2016-06-29T11:04:25Z</time><pdop>4.0</pdop><geoidheight>54.00</geoidheight><course>355.1</course><type>1</type></trkpt>
      <trkpt lat="40.44214261" lon="-5.30747506"><ele>1924</ele><speed>9.04</speed><time>2016-06-29T11:04:26Z</time><pdop>4.0</pdop><geoidheight>54.00</geoidheight><course>357.0</course><type>1</type></trkpt>
      <trkpt lat="40.44221901" lon="-5.30746232"><ele>1922</ele><speed>8.47</speed><time>2016-06-29T11:04:27Z</time><pdop>4.0</pdop><geoidheight>54.00</geoidheight><course>3.1</course><type>1</type></trkpt>
      <trkpt lat="40.44236002" lon="-5.30743464"><ele>1922</ele><speed>7.82</speed><time>2016-06-29T11:04:29Z</time><pdop>4.0</pdop><geoidheight>54.00</geoidheight><course>3.0</course><type>1</type></trkpt>
      <trkpt lat="40.44252773" lon="-5.30746283"><ele>1915</ele><speed>10.51</speed><time>2016-06-29T11:04:31Z</time><pdop>4.0</pdop><geoidheight>54.00</geoidheight><course>349.5</course><type>1</type></trkpt>
      <trkpt lat="40.4426195" lon="-5.30748455"><ele>1911</ele><speed>10.47</speed><time>2016-06-29T11:04:32Z</time><pdop>4.0</pdop><geoidheight>54.00</geoidheight><course>348.9</course><type>1</type></trkpt>
      <trkpt lat="40.44273394" lon="-5.30753065"><ele>1910</ele><speed>12.24</speed><time>2016-06-29T11:04:33Z</time><pdop>4.0</pdop><geoidheight>54.00</geoidheight><course>347.2</course><type>1</type></trkpt>
      <trkpt lat="40.44283337" lon="-5.3075637"><ele>1910</ele><speed>11.27</speed><time>2016-06-29T11:04:34Z</time><pdop>3.0</pdop><geoidheight>54.00</geoidheight><course>347.9</course><type>1</type></trkpt>
      <trkpt lat="40.44292146" lon="-5.30759166"><ele>1911</ele><speed>9.46</speed><time>2016-06-29T11:04:35Z</time><pdop>3.0</pdop><geoidheight>54.00</geoidheight><course>347.7</course><type>1</type></trkpt>
      <trkpt lat="40.44300044" lon="-5.30761484"><ele>1910</ele><speed>8.40</speed><time>2016-06-29T11:04:36Z</time><pdop>3.0</pdop><geoidheight>54.00</geoidheight><course>348.3</course><type>1</type></trkpt>
      <trkpt lat="40.44306745" lon="-5.30762831"><ele>1909</ele><speed>8.05</speed><time>2016-06-29T11:04:37Z</time><pdop>3.0</pdop><geoidheight>54.00</geoidheight><course>349.6</course><type>1</type></trkpt>
      <trkpt lat="40.44313496" lon="-5.30763829"><ele>1910</ele><speed>7.62</speed><time>2016-06-29T11:04:38Z</time><pdop>3.0</pdop><geoidheight>54.00</geoidheight><course>351.8</course><type>1</type></trkpt>
      <trkpt lat="40.4432006" lon="-5.30763403"><ele>1907</ele><speed>7.13</speed><time>2016-06-29T11:04:39Z</time><pdop>3.0</pdop><geoidheight>54.00</geoidheight><course>357.7</course><type>1</type></trkpt>
      <trkpt lat="40.44326792" lon="-5.30762868"><ele>1905</ele><speed>7.31</speed><time>2016-06-29T11:04:40Z</time><pdop>3.0</pdop><geoidheight>54.00</geoidheight><course>1.8</course><type>1</type></trkpt>
      <trkpt lat="40.44334631" lon="-5.3076249"><ele>1901</ele><speed>8.72</speed><time>2016-06-29T11:04:41Z</time><pdop>3.0</pdop><geoidheight>54.00</geoidheight><course>4.8</course><type>1</type></trkpt>
      <trkpt lat="40.44343886" lon="-5.30761731"><ele>1899</ele><speed>10.06</speed><time>2016-06-29T11:04:42Z</time><pdop>3.0</pdop><geoidheight>54.00</geoidheight><course>5.5</course><type>1</type></trkpt>
      <trkpt lat="40.44353895" lon="-5.30760339"><ele>1897</ele><speed>11.42</speed><time>2016-06-29T11:04:43Z</time><pdop>3.0</pdop><geoidheight>54.00</geoidheight><course>5.4</course><type>1</type></trkpt>
      <trkpt lat="40.44365374" lon="-5.30759527"><ele>1897</ele><speed>12.27</speed><time>2016-06-29T11:04:44Z</time><pdop>3.0</pdop><geoidheight>54.00</geoidheight><course>5.2</course><type>1</type></trkpt>
      <trkpt lat="40.44376955" lon="-5.30758668"><ele>1896</ele><speed>12.21</speed><time>2016-06-29T11:04:45Z</time><pdop>4.0</pdop><geoidheight>54.00</geoidheight><course>4.3</course><type>1</type></trkpt>
      <trkpt lat="40.44387341" lon="-5.30757671"><ele>1896</ele><speed>11.48</speed><time>2016-06-29T11:04:46Z</time><pdop>4.0</pdop><geoidheight>54.00</geoidheight><course>2.1</course><type>1</type></trkpt>
      <trkpt lat="40.4439732" lon="-5.30757694"><ele>1894</ele><speed>11.05</speed><time>2016-06-29T11:04:47Z</time><pdop>4.0</pdop><geoidheight>54.00</geoidheight><course>0.3</course><type>1</type></trkpt>
      <trkpt lat="40.44407449" lon="-5.30756024"><ele>1894</ele><speed>11.07</speed><time>2016-06-29T11:04:48Z</time><pdop>3.0</pdop><geoidheight>54.00</geoidheight><course>7.8</course><type>1</type></trkpt>
      <trkpt lat="40.44417047" lon="-5.30751202"><ele>1892</ele><speed>11.32</speed><time>2016-06-29T11:04:49Z</time><pdop>3.0</pdop><geoidheight>54.00</geoidheight><course>19.3</course><type>1</type></trkpt>
      <trkpt lat="40.44426893" lon="-5.30744428"><ele>1891</ele><speed>11.79</speed><time>2016-06-29T11:04:50Z</time><pdop>3.0</pdop><geoidheight>54.00</geoidheight><course>25.9</course><type>1</type></trkpt>
      <trkpt lat="40.44435403" lon="-5.30738336"><ele>1889</ele><speed>11.58</speed><time>2016-06-29T11:04:51Z</time><pdop>4.0</pdop><geoidheight>54.00</geoidheight><course>27.1</course><type>1</type></trkpt>
      <trkpt lat="40.44444351" lon="-5.30732752"><ele>1980</ele><speed>11.31</speed><time>2016-06-29T11:04:52Z</time><pdop>5.0</pdop><geoidheight>54.00</geoidheight><course>25.0</course><type>1</type></trkpt>
      <trkpt lat="40.44464131" lon="-5.30729796"><ele>1936</ele><speed>11.16</speed><time>2016-06-29T11:04:54Z</time><pdop>5.0</pdop><geoidheight>54.00</geoidheight><course>9.3</course><type>1</type></trkpt>
      <trkpt lat="40.44477042" lon="-5.30725523"><ele>1930</ele><speed>12.31</speed><time>2016-06-29T11:04:55Z</time><pdop>7.0</pdop><geoidheight>54.00</geoidheight><course>10.1</course><type>1</type></trkpt>
      <trkpt lat="40.44496238" lon="-5.30731585"><ele>1921</ele><speed>11.41</speed><time>2016-06-29T11:04:57Z</time><pdop>12.0</pdop><geoidheight>54.00</geoidheight><course>357.9</course><type>1</type></trkpt>
      <trkpt lat="40.44519987" lon="-5.30748015"><ele>1907</ele><speed>9.55</speed><time>2016-06-29T11:05:00Z</time><pdop>11.0</pdop><geoidheight>54.00</geoidheight><course>341.9</course><type>1</type></trkpt>
      <trkpt lat="40.44539302" lon="-5.30761661"><ele>1893</ele><speed>10.94</speed><time>2016-06-29T11:05:02Z</time><pdop>5.0</pdop><geoidheight>54.00</geoidheight><course>337.7</course><type>1</type></trkpt>
      <trkpt lat="40.44557217" lon="-5.30764849"><ele>1882</ele><speed>10.59</speed><time>2016-06-29T11:05:04Z</time><pdop>4.0</pdop><geoidheight>54.00</geoidheight><course>347.1</course><type>1</type></trkpt>
      <trkpt lat="40.44566539" lon="-5.30765492"><ele>1879</ele><speed>10.45</speed><time>2016-06-29T11:05:05Z</time><pdop>4.0</pdop><geoidheight>54.00</geoidheight><course>351.5</course><type>1</type></trkpt>
      <trkpt lat="40.44575321" lon="-5.3076733"><ele>1876</ele><speed>10.25</speed><time>2016-06-29T11:05:06Z</time><pdop>4.0</pdop><geoidheight>54.00</geoidheight><course>353.2</course><type>1</type></trkpt>
      <trkpt lat="40.44584039" lon="-5.30766519"><ele>1872</ele><speed>10.04</speed><time>2016-06-29T11:05:07Z</time><pdop>4.0</pdop><geoidheight>54.00</geoidheight><course>357.5</course><type>1</type></trkpt>
      <trkpt lat="40.44592165" lon="-5.30767262"><ele>1868</ele><speed>10.30</speed><time>2016-06-29T11:05:08Z</time><pdop>4.0</pdop><geoidheight>54.00</geoidheight><course>358.9</course><type>1</type></trkpt>
      <trkpt lat="40.44600448" lon="-5.30768374"><ele>1866</ele><speed>10.33</speed><time>2016-06-29T11:05:09Z</time><pdop>4.0</pdop><geoidheight>54.00</geoidheight><course>356.3</course><type>1</type></trkpt>
      <trkpt lat="40.4461046" lon="-5.3076976"><ele>1865</ele><speed>11.23</speed><time>2016-06-29T11:05:10Z</time><pdop>4.0</pdop><geoidheight>54.00</geoidheight><course>353.2</course><type>1</type></trkpt>
      <trkpt lat="40.44620682" lon="-5.30769855"><ele>1864</ele><speed>11.23</speed><time>2016-06-29T11:05:11Z</time><pdop>4.0</pdop><geoidheight>54.00</geoidheight><course>355.9</course><type>1</type></trkpt>
      <trkpt lat="40.44630831" lon="-5.30769565"><ele>1863</ele><speed>10.88</speed><time>2016-06-29T11:05:12Z</time><pdop>3.0</pdop><geoidheight>54.00</geoidheight><course>359.2</course><type>1</type></trkpt>
      <trkpt lat="40.44639649" lon="-5.30769377"><ele>1863</ele><speed>10.10</speed><time>2016-06-29T11:05:13Z</time><pdop>3.0</pdop><geoidheight>54.00</geoidheight><course>4.9</course><type>1</type></trkpt>
      <trkpt lat="40.44648064" lon="-5.30767482"><ele>1863</ele><speed>9.28</speed><time>2016-06-29T11:05:14Z</time><pdop>3.0</pdop><geoidheight>54.00</geoidheight><course>7.8</course><type>1</type></trkpt>
      <trkpt lat="40.4465574" lon="-5.30764754"><ele>1863</ele><speed>8.80</speed><time>2016-06-29T11:05:15Z</time><pdop>3.0</pdop><geoidheight>54.00</geoidheight><course>11.0</course><type>1</type></trkpt>
      <trkpt lat="40.44663552" lon="-5.30761896"><ele>1863</ele><speed>8.60</speed><time>2016-06-29T11:05:16Z</time><pdop>3.0</pdop><geoidheight>54.00</geoidheight><course>15.8</course><type>1</type></trkpt>
      <trkpt lat="40.44670844" lon="-5.3075892"><ele>1863</ele><speed>8.15</speed><time>2016-06-29T11:05:17Z</time><pdop>3.0</pdop><geoidheight>54.00</geoidheight><course>15.0</course><type>1</type></trkpt>
      <trkpt lat="40.44677659" lon="-5.30757522"><ele>1863</ele><speed>7.78</speed><time>2016-06-29T11:05:18Z</time><pdop>3.0</pdop><geoidheight>54.00</geoidheight><course>8.0</course><type>1</type></trkpt>
      <trkpt lat="40.44683884" lon="-5.30758486"><ele>1861</ele><speed>7.36</speed><time>2016-06-29T11:05:19Z</time><pdop>3.0</pdop><geoidheight>54.00</geoidheight><course>355.7</course><type>1</type></trkpt>
      <trkpt lat="40.44689124" lon="-5.30762985"><ele>1860</ele><speed>6.76</speed><time>2016-06-29T11:05:20Z</time><pdop>3.0</pdop><geoidheight>54.00</geoidheight><course>334.0</course><type>1</type></trkpt>
      <trkpt lat="40.44692544" lon="-5.30770495"><ele>1860</ele><speed>6.53</speed><time>2016-06-29T11:05:21Z</time><pdop>3.0</pdop><geoidheight>54.00</geoidheight><course>304.3</course><type>1</type></trkpt>
      <trkpt lat="40.44694188" lon="-5.3078537"><ele>1861</ele><speed>6.32</speed><time>2016-06-29T11:05:23Z</time><pdop>4.0</pdop><geoidheight>54.00</geoidheight><course>273.1</course><type>1</type></trkpt>
      <trkpt lat="40.44684141" lon="-5.30792981"><ele>1859</ele><speed>7.96</speed><time>2016-06-29T11:05:24Z</time><pdop>3.0</pdop><geoidheight>54.00</geoidheight><course>218.7</course><type>1</type></trkpt>
      <trkpt lat="40.44677625" lon="-5.30797789"><ele>1861</ele><speed>8.07</speed><time>2016-06-29T11:05:25Z</time><pdop>3.0</pdop><geoidheight>54.00</geoidheight><course>201.8</course><type>1</type></trkpt>
      <trkpt lat="40.44669856" lon="-5.30798782"><ele>1861</ele><speed>8.02</speed><time>2016-06-29T11:05:26Z</time><pdop>4.0</pdop><geoidheight>54.00</geoidheight><course>192.9</course><type>1</type></trkpt>
      <trkpt lat="40.44662799" lon="-5.30794038"><ele>1861</ele><speed>7.61</speed><time>2016-06-29T11:05:27Z</time><pdop>4.0</pdop><geoidheight>54.00</geoidheight><course>161.3</course><type>1</type></trkpt>
      <trkpt lat="40.44652507" lon="-5.30787287"><ele>1859</ele><speed>10.17</speed><time>2016-06-29T11:05:28Z</time><pdop>4.0</pdop><geoidheight>54.00</geoidheight><course>153.7</course><type>1</type></trkpt>
      <trkpt lat="40.44642784" lon="-5.30779155"><ele>1858</ele><speed>11.08</speed><time>2016-06-29T11:05:29Z</time><pdop>5.0</pdop><geoidheight>54.00</geoidheight><course>148.8</course><type>1</type></trkpt>
      <trkpt lat="40.44633794" lon="-5.30766575"><ele>1857</ele><speed>11.83</speed><time>2016-06-29T11:05:30Z</time><pdop>6.0</pdop><geoidheight>54.00</geoidheight><course>138.2</course><type>1</type></trkpt>
      <trkpt lat="40.44629808" lon="-5.30742829"><ele>1857</ele><speed>14.62</speed><time>2016-06-29T11:05:31Z</time><pdop>5.0</pdop><geoidheight>54.00</geoidheight><course>113.9</course><type>1</type></trkpt>
      <trkpt lat="40.44624764" lon="-5.30725066"><ele>1856</ele><speed>14.47</speed><time>2016-06-29T11:05:32Z</time><pdop>5.0</pdop><geoidheight>54.00</geoidheight><course>109.4</course><type>1</type></trkpt>
      <trkpt lat="40.44626131" lon="-5.30708988"><ele>1854</ele><speed>14.13</speed><time>2016-06-29T11:05:33Z</time><pdop>4.0</pdop><geoidheight>54.00</geoidheight><course>90.6</course><type>1</type></trkpt>
      <trkpt lat="40.44625901" lon="-5.30691012"><ele>1853</ele><speed>14.01</speed><time>2016-06-29T11:05:34Z</time><pdop>4.0</pdop><geoidheight>54.00</geoidheight><course>88.5</course><type>1</type></trkpt>
      <trkpt lat="40.44626026" lon="-5.30674981"><ele>1854</ele><speed>13.30</speed><time>2016-06-29T11:05:35Z</time><pdop>5.0</pdop><geoidheight>54.00</geoidheight><course>88.9</course><type>1</type></trkpt>
      <trkpt lat="40.44633682" lon="-5.30665954"><ele>1854</ele><speed>10.55</speed><time>2016-06-29T11:05:36Z</time><pdop>5.0</pdop><geoidheight>54.00</geoidheight><course>67.9</course><type>1</type></trkpt>
      <trkpt lat="40.44641753" lon="-5.30656768"><ele>1854</ele><speed>9.85</speed><time>2016-06-29T11:05:37Z</time><pdop>6.0</pdop><geoidheight>54.00</geoidheight><course>56.9</course><type>1</type></trkpt>
      <trkpt lat="40.44661495" lon="-5.30654977"><ele>1851</ele><speed>9.35</speed><time>2016-06-29T11:05:39Z</time><pdop>5.0</pdop><geoidheight>54.00</geoidheight><course>15.6</course><type>1</type></trkpt>
      <trkpt lat="40.44671312" lon="-5.30655169"><ele>1850</ele><speed>9.62</speed><time>2016-06-29T11:05:40Z</time><pdop>4.0</pdop><geoidheight>54.00</geoidheight><course>5.8</course><type>1</type></trkpt>
      <trkpt lat="40.44681107" lon="-5.30654945"><ele>1850</ele><speed>9.86</speed><time>2016-06-29T11:05:41Z</time><pdop>4.0</pdop><geoidheight>54.00</geoidheight><course>4.1</course><type>1</type></trkpt>
      <trkpt lat="40.44690776" lon="-5.30653167"><ele>1849</ele><speed>10.34</speed><time>2016-06-29T11:05:42Z</time><pdop>4.0</pdop><geoidheight>54.00</geoidheight><course>4.2</course><type>1</type></trkpt>
      <trkpt lat="40.44700804" lon="-5.30652236"><ele>1849</ele><speed>10.59</speed><time>2016-06-29T11:05:43Z</time><pdop>5.0</pdop><geoidheight>54.00</geoidheight><course>4.0</course><type>1</type></trkpt>
      <trkpt lat="40.44710582" lon="-5.30652208"><ele>1848</ele><speed>10.48</speed><time>2016-06-29T11:05:44Z</time><pdop>4.0</pdop><geoidheight>54.00</geoidheight><course>2.7</course><type>1</type></trkpt>
      <trkpt lat="40.44719365" lon="-5.30653193"><ele>1847</ele><speed>10.35</speed><time>2016-06-29T11:05:45Z</time><pdop>4.0</pdop><geoidheight>54.00</geoidheight><course>0.4</course><type>1</type></trkpt>
      <trkpt lat="40.44728269" lon="-5.30653567"><ele>1847</ele><speed>9.54</speed><time>2016-06-29T11:05:46Z</time><pdop>4.0</pdop><geoidheight>54.00</geoidheight><course>357.1</course><type>1</type></trkpt>
      <trkpt lat="40.4473531" lon="-5.30654369"><ele>1847</ele><speed>8.66</speed><time>2016-06-29T11:05:47Z</time><pdop>3.0</pdop><geoidheight>54.00</geoidheight><course>356.7</course><type>1</type></trkpt>
      <trkpt lat="40.44741861" lon="-5.30653227"><ele>1848</ele><speed>7.66</speed><time>2016-06-29T11:05:48Z</time><pdop>3.0</pdop><geoidheight>54.00</geoidheight><course>0.8</course><type>1</type></trkpt>
      <trkpt lat="40.44747864" lon="-5.30652905"><ele>1846</ele><speed>6.95</speed><time>2016-06-29T11:05:49Z</time><pdop>3.0</pdop><geoidheight>54.00</geoidheight><course>8.8</course><type>1</type></trkpt>
      <trkpt lat="40.44757987" lon="-5.30644399"><ele>1843</ele><speed>7.17</speed><time>2016-06-29T11:05:51Z</time><pdop>3.0</pdop><geoidheight>54.00</geoidheight><course>26.0</course><type>1</type></trkpt>
      <trkpt lat="40.44765093" lon="-5.30640826"><ele>1840</ele><speed>8.53</speed><time>2016-06-29T11:05:52Z</time><pdop>3.0</pdop><geoidheight>54.00</geoidheight><course>22.8</course><type>1</type></trkpt>
      <trkpt lat="40.44772345" lon="-5.30638231"><ele>1838</ele><speed>8.47</speed><time>2016-06-29T11:05:53Z</time><pdop>4.0</pdop><geoidheight>54.00</geoidheight><course>14.7</course><type>1</type></trkpt>
      <trkpt lat="40.44780607" lon="-5.30635312"><ele>1836</ele><speed>8.90</speed><time>2016-06-29T11:05:54Z</time><pdop>5.0</pdop><geoidheight>54.00</geoidheight><course>15.0</course><type>1</type></trkpt>
      <trkpt lat="40.44791851" lon="-5.30633202"><ele>1835</ele><speed>10.60</speed><time>2016-06-29T11:05:55Z</time><pdop>5.0</pdop><geoidheight>54.00</geoidheight><course>10.9</course><type>1</type></trkpt>
      <trkpt lat="40.4480343" lon="-5.30631134"><ele>1834</ele><speed>11.55</speed><time>2016-06-29T11:05:56Z</time><pdop>5.0</pdop><geoidheight>54.00</geoidheight><course>7.1</course><type>1</type></trkpt>
      <trkpt lat="40.44812572" lon="-5.30630212"><ele>1834</ele><speed>10.68</speed><time>2016-06-29T11:05:57Z</time><pdop>4.0</pdop><geoidheight>54.00</geoidheight><course>4.9</course><type>1</type></trkpt>
      <trkpt lat="40.44821901" lon="-5.30628346"><ele>1833</ele><speed>9.96</speed><time>2016-06-29T11:05:58Z</time><pdop>4.0</pdop><geoidheight>54.00</geoidheight><course>5.3</course><type>1</type></trkpt>
      <trkpt lat="40.4483072" lon="-5.30628013"><ele>1834</ele><speed>9.71</speed><time>2016-06-29T11:05:59Z</time><pdop>4.0</pdop><geoidheight>54.00</geoidheight><course>5.2</course><type>1</type></trkpt>
      <trkpt lat="40.44839959" lon="-5.30627176"><ele>1833</ele><speed>9.80</speed><time>2016-06-29T11:06:00Z</time><pdop>4.0</pdop><geoidheight>54.00</geoidheight><course>5.3</course><type>1</type></trkpt>
      <trkpt lat="40.44848762" lon="-5.30625381"><ele>1833</ele><speed>9.68</speed><time>2016-06-29T11:06:01Z</time><pdop>4.0</pdop><geoidheight>54.00</geoidheight><course>9.0</course><type>1</type></trkpt>
      <trkpt lat="40.44866757" lon="-5.30618791"><ele>1831</ele><speed>9.96</speed><time>2016-06-29T11:06:03Z</time><pdop>6.0</pdop><geoidheight>54.00</geoidheight><course>15.2</course><type>1</type></trkpt>
      <trkpt lat="40.44881186" lon="-5.30612971"><ele>1830</ele><speed>9.07</speed><time>2016-06-29T11:06:05Z</time><pdop>7.0</pdop><geoidheight>54.00</geoidheight><course>15.2</course><type>1</type></trkpt>
      <trkpt lat="40.44898564" lon="-5.30619618"><ele>1828</ele><speed>9.88</speed><time>2016-06-29T11:06:07Z</time><pdop>6.0</pdop><geoidheight>54.00</geoidheight><course>346.2</course><type>1</type></trkpt>
      <trkpt lat="40.44909263" lon="-5.30623301"><ele>1827</ele><speed>10.76</speed><time>2016-06-29T11:06:08Z</time><pdop>6.0</pdop><geoidheight>54.00</geoidheight><course>346.9</course><type>1</type></trkpt>
      <trkpt lat="40.44927515" lon="-5.3062528"><ele>1827</ele><speed>8.71</speed><time>2016-06-29T11:06:10Z</time><pdop>5.0</pdop><geoidheight>54.00</geoidheight><course>0.4</course><type>1</type></trkpt>
      <trkpt lat="40.44935602" lon="-5.30623875"><ele>1826</ele><speed>8.04</speed><time>2016-06-29T11:06:11Z</time><pdop>4.0</pdop><geoidheight>54.00</geoidheight><course>358.3</course><type>1</type></trkpt>
      <trkpt lat="40.44944921" lon="-5.30624672"><ele>1824</ele><speed>9.24</speed><time>2016-06-29T11:06:12Z</time><pdop>4.0</pdop><geoidheight>54.00</geoidheight><course>353.9</course><type>1</type></trkpt>
      <trkpt lat="40.44955386" lon="-5.30626896"><ele>1820</ele><speed>11.16</speed><time>2016-06-29T11:06:13Z</time><pdop>4.0</pdop><geoidheight>54.00</geoidheight><course>351.1</course><type>1</type></trkpt>
      <trkpt lat="40.44965582" lon="-5.30629075"><ele>1819</ele><speed>12.30</speed><time>2016-06-29T11:06:14Z</time><pdop>4.0</pdop><geoidheight>54.00</geoidheight><course>350.5</course><type>1</type></trkpt>
      <trkpt lat="40.44976261" lon="-5.30627778"><ele>1820</ele><speed>12.57</speed><time>2016-06-29T11:06:15Z</time><pdop>4.0</pdop><geoidheight>54.00</geoidheight><course>359.9</course><type>1</type></trkpt>
      <trkpt lat="40.44986888" lon="-5.30624261"><ele>1821</ele><speed>12.05</speed><time>2016-06-29T11:06:16Z</time><pdop>3.0</pdop><geoidheight>54.00</geoidheight><course>14.6</course><type>1</type></trkpt>
      <trkpt lat="40.44996743" lon="-5.30619606"><ele>1821</ele><speed>11.21</speed><time>2016-06-29T11:06:17Z</time><pdop>3.0</pdop><geoidheight>54.00</geoidheight><course>19.3</course><type>1</type></trkpt>
      <trkpt lat="40.45006011" lon="-5.30616188"><ele>1821</ele><speed>10.84</speed><time>2016-06-29T11:06:18Z</time><pdop>3.0</pdop><geoidheight>54.00</geoidheight><course>14.7</course><type>1</type></trkpt>
      <trkpt lat="40.45015961" lon="-5.30615505"><ele>1817</ele><speed>11.02</speed><time>2016-06-29T11:06:19Z</time><pdop>3.0</pdop><geoidheight>54.00</geoidheight><course>6.9</course><type>1</type></trkpt>
      <trkpt lat="40.45027322" lon="-5.30615697"><ele>1816</ele><speed>12.46</speed><time>2016-06-29T11:06:20Z</time><pdop>3.0</pdop><geoidheight>54.00</geoidheight><course>1.7</course><type>1</type></trkpt>
      <trkpt lat="40.45039197" lon="-5.3061558"><ele>1814</ele><speed>13.34</speed><time>2016-06-29T11:06:21Z</time><pdop>3.0</pdop><geoidheight>54.00</geoidheight><course>2.5</course><type>1</type></trkpt>
      <trkpt lat="40.45051018" lon="-5.30614086"><ele>1815</ele><speed>13.23</speed><time>2016-06-29T11:06:22Z</time><pdop>3.0</pdop><geoidheight>54.00</geoidheight><course>2.6</course><type>1</type></trkpt>
      <trkpt lat="40.45060899" lon="-5.3061323"><ele>1816</ele><speed>11.97</speed><time>2016-06-29T11:06:23Z</time><pdop>3.0</pdop><geoidheight>54.00</geoidheight><course>2.8</course><type>1</type></trkpt>
      <trkpt lat="40.45071492" lon="-5.30614147"><ele>1817</ele><speed>11.29</speed><time>2016-06-29T11:06:24Z</time><pdop>3.0</pdop><geoidheight>54.00</geoidheight><course>0.7</course><type>1</type></trkpt>
      <trkpt lat="40.45081318" lon="-5.30614601"><ele>1818</ele><speed>10.99</speed><time>2016-06-29T11:06:25Z</time><pdop>4.0</pdop><geoidheight>54.00</geoidheight><course>0.3</course><type>1</type></trkpt>
      <trkpt lat="40.45090564" lon="-5.30613632"><ele>1819</ele><speed>10.46</speed><time>2016-06-29T11:06:26Z</time><pdop>3.0</pdop><geoidheight>54.00</geoidheight><course>1.5</course><type>1</type></trkpt>
      <trkpt lat="40.45099363" lon="-5.30613188"><ele>1819</ele><speed>10.00</speed><time>2016-06-29T11:06:27Z</time><pdop>3.0</pdop><geoidheight>54.00</geoidheight><course>359.9</course><type>1</type></trkpt>
      <trkpt lat="40.45114406" lon="-5.30621065"><ele>1817</ele><speed>8.30</speed><time>2016-06-29T11:06:29Z</time><pdop>9.0</pdop><geoidheight>54.00</geoidheight><course>329.6</course><type>1</type></trkpt>
      <trkpt lat="40.45112688" lon="-5.30647411"><ele>1820</ele><speed>8.14</speed><time>2016-06-29T11:06:32Z</time><pdop>9.0</pdop><geoidheight>54.00</geoidheight><course>232.3</course><type>1</type></trkpt>
      <trkpt lat="40.45089698" lon="-5.30653684"><ele>1820</ele><speed>8.56</speed><time>2016-06-29T11:06:35Z</time><pdop>10.0</pdop><geoidheight>54.00</geoidheight><course>189.4</course><type>1</type></trkpt>
      <trkpt lat="40.45073604" lon="-5.30634417"><ele>1820</ele><speed>10.40</speed><time>2016-06-29T11:06:37Z</time><pdop>10.0</pdop><geoidheight>54.00</geoidheight><course>150.4</course><type>1</type></trkpt>
      <trkpt lat="40.45070544" lon="-5.30594216"><ele>1820</ele><speed>12.69</speed><time>2016-06-29T11:06:39Z</time><pdop>10.0</pdop><geoidheight>54.00</geoidheight><course>101.9</course><type>1</type></trkpt>
      <trkpt lat="40.45076094" lon="-5.30565983"><ele>1819</ele><speed>11.25</speed><time>2016-06-29T11:06:41Z</time><pdop>11.0</pdop><geoidheight>54.00</geoidheight><course>84.4</course><type>1</type></trkpt>
      <trkpt lat="40.45094386" lon="-5.30549099"><ele>1818</ele><speed>9.54</speed><time>2016-06-29T11:06:43Z</time><pdop>13.0</pdop><geoidheight>54.00</geoidheight><course>54.3</course><type>1</type></trkpt>
      <trkpt lat="40.45121494" lon="-5.30538808"><ele>1818</ele><speed>10.84</speed><time>2016-06-29T11:06:45Z</time><pdop>13.0</pdop><geoidheight>54.00</geoidheight><course>25.1</course><type>1</type></trkpt>
      <trkpt lat="40.45146528" lon="-5.30538132"><ele>1819</ele><speed>11.57</speed><time>2016-06-29T11:06:47Z</time><pdop>11.0</pdop><geoidheight>54.00</geoidheight><course>7.5</course><type>1</type></trkpt>
      <trkpt lat="40.45175928" lon="-5.30539"><ele>1822</ele><speed>10.07</speed><time>2016-06-29T11:06:50Z</time><pdop>11.0</pdop><geoidheight>54.00</geoidheight><course>354.4</course><type>1</type></trkpt>
      <trkpt lat="40.45189746" lon="-5.30560538"><ele>1822</ele><speed>6.97</speed><time>2016-06-29T11:06:53Z</time><pdop>10.0</pdop><geoidheight>54.00</geoidheight><course>311.6</course><type>1</type></trkpt>
      <trkpt lat="40.45202045" lon="-5.30569296"><ele>1825</ele><speed>6.90</speed><time>2016-06-29T11:06:55Z</time><pdop>4.0</pdop><geoidheight>54.00</geoidheight><course>333.1</course><type>1</type></trkpt>
      <trkpt lat="40.45208427" lon="-5.30574161"><ele>1826</ele><speed>7.03</speed><time>2016-06-29T11:06:56Z</time><pdop>4.0</pdop><geoidheight>54.00</geoidheight><course>339.7</course><type>1</type></trkpt>
      <trkpt lat="40.45218661" lon="-5.30578483"><ele>1824</ele><speed>6.00</speed><time>2016-06-29T11:06:58Z</time><pdop>3.0</pdop><geoidheight>54.00</geoidheight><course>347.4</course><type>1</type></trkpt>
      <trkpt lat="40.45224207" lon="-5.30580276"><ele>1824</ele><speed>6.68</speed><time>2016-06-29T11:06:59Z</time><pdop>3.0</pdop><geoidheight>54.00</geoidheight><course>348.0</course><type>1</type></trkpt>
      <trkpt lat="40.45231616" lon="-5.30582796"><ele>1822</ele><speed>7.85</speed><time>2016-06-29T11:07:00Z</time><pdop>3.0</pdop><geoidheight>54.00</geoidheight><course>345.0</course><type>1</type></trkpt>
      <trkpt lat="40.45239528" lon="-5.30586334"><ele>1821</ele><speed>9.11</speed><time>2016-06-29T11:07:01Z</time><pdop>3.0</pdop><geoidheight>54.00</geoidheight><course>343.4</course><type>1</type></trkpt>
      <trkpt lat="40.45247148" lon="-5.3059097"><ele>1819</ele><speed>9.34</speed><time>2016-06-29T11:07:02Z</time><pdop>3.0</pdop><geoidheight>54.00</geoidheight><course>338.4</course><type>1</type></trkpt>
      <trkpt lat="40.45253602" lon="-5.30596261"><ele>1818</ele><speed>8.65</speed><time>2016-06-29T11:07:03Z</time><pdop>3.0</pdop><geoidheight>54.00</geoidheight><course>327.7</course><type>1</type></trkpt>
      <trkpt lat="40.45259759" lon="-5.30603652"><ele>1818</ele><speed>8.73</speed><time>2016-06-29T11:07:04Z</time><pdop>3.0</pdop><geoidheight>54.00</geoidheight><course>319.6</course><type>1</type></trkpt>
      <trkpt lat="40.45263574" lon="-5.30610278"><ele>1817</ele><speed>8.05</speed><time>2016-06-29T11:07:05Z</time><pdop>4.0</pdop><geoidheight>54.00</geoidheight><course>309.8</course><type>1</type></trkpt>
      <trkpt lat="40.45270134" lon="-5.30628356"><ele>1819</ele><speed>8.23</speed><time>2016-06-29T11:07:07Z</time><pdop>4.0</pdop><geoidheight>54.00</geoidheight><course>309.0</course><type>1</type></trkpt>
      <trkpt lat="40.45275864" lon="-5.30634354"><ele>1819</ele><speed>7.88</speed><time>2016-06-29T11:07:08Z</time><pdop>4.0</pdop><geoidheight>54.00</geoidheight><course>322.4</course><type>1</type></trkpt>
      <trkpt lat="40.45287427" lon="-5.30649033"><ele>1818</ele><speed>8.26</speed><time>2016-06-29T11:07:10Z</time><pdop>3.0</pdop><geoidheight>54.00</geoidheight><course>317.2</course><type>1</type></trkpt>
      <trkpt lat="40.45291638" lon="-5.30658678"><ele>1818</ele><speed>8.39</speed><time>2016-06-29T11:07:11Z</time><pdop>3.0</pdop><geoidheight>54.00</geoidheight><course>304.3</course><type>1</type></trkpt>
      <trkpt lat="40.45292838" lon="-5.30667761"><ele>1819</ele><speed>7.78</speed><time>2016-06-29T11:07:12Z</time><pdop>3.0</pdop><geoidheight>54.00</geoidheight><course>282.6</course><type>1</type></trkpt>
      <trkpt lat="40.45290892" lon="-5.30676952"><ele>1818</ele><speed>8.15</speed><time>2016-06-29T11:07:13Z</time><pdop>3.0</pdop><geoidheight>54.00</geoidheight><course>255.5</course><type>1</type></trkpt>
      <trkpt lat="40.45285406" lon="-5.30685054"><ele>1816</ele><speed>8.89</speed><time>2016-06-29T11:07:14Z</time><pdop>3.0</pdop><geoidheight>54.00</geoidheight><course>228.5</course><type>1</type></trkpt>
      <trkpt lat="40.45279661" lon="-5.30692186"><ele>1815</ele><speed>8.65</speed><time>2016-06-29T11:07:15Z</time><pdop>3.0</pdop><geoidheight>54.00</geoidheight><course>220.1</course><type>1</type></trkpt>
      <trkpt lat="40.45272505" lon="-5.30696185"><ele>1814</ele><speed>8.31</speed><time>2016-06-29T11:07:16Z</time><pdop>5.0</pdop><geoidheight>54.00</geoidheight><course>212.7</course><type>1</type></trkpt>
      <trkpt lat="40.45251796" lon="-5.30685783"><ele>1816</ele><speed>10.67</speed><time>2016-06-29T11:07:18Z</time><pdop>5.0</pdop><geoidheight>54.00</geoidheight><course>157.1</course><type>1</type></trkpt>
      <trkpt lat="40.45243075" lon="-5.30677129"><ele>1817</ele><speed>10.85</speed><time>2016-06-29T11:07:19Z</time><pdop>5.0</pdop><geoidheight>54.00</geoidheight><course>147.7</course><type>1</type></trkpt>
      <trkpt lat="40.45236738" lon="-5.30666622"><ele>1817</ele><speed>9.78</speed><time>2016-06-29T11:07:20Z</time><pdop>6.0</pdop><geoidheight>54.00</geoidheight><course>132.9</course><type>1</type></trkpt>
      <trkpt lat="40.45234163" lon="-5.30651583"><ele>1817</ele><speed>10.83</speed><time>2016-06-29T11:07:21Z</time><pdop>6.0</pdop><geoidheight>54.00</geoidheight><course>111.2</course><type>1</type></trkpt>
      <trkpt lat="40.45236048" lon="-5.30635492"><ele>1813</ele><speed>12.02</speed><time>2016-06-29T11:07:22Z</time><pdop>6.0</pdop><geoidheight>54.00</geoidheight><course>95.0</course><type>1</type></trkpt>
      <trkpt lat="40.45238036" lon="-5.3061958"><ele>1810</ele><speed>12.05</speed><time>2016-06-29T11:07:23Z</time><pdop>6.0</pdop><geoidheight>54.00</geoidheight><course>83.6</course><type>1</type></trkpt>
      <trkpt lat="40.45248301" lon="-5.30594139"><ele>1808</ele><speed>11.86</speed><time>2016-06-29T11:07:25Z</time><pdop>9.0</pdop><geoidheight>54.00</geoidheight><course>71.6</course><type>1</type></trkpt>
      <trkpt lat="40.45274759" lon="-5.30583697"><ele>1806</ele><speed>12.31</speed><time>2016-06-29T11:07:27Z</time><pdop>6.0</pdop><geoidheight>54.00</geoidheight><course>26.1</course><type>1</type></trkpt>
      <trkpt lat="40.4528725" lon="-5.30579174"><ele>1804</ele><speed>12.68</speed><time>2016-06-29T11:07:28Z</time><pdop>6.0</pdop><geoidheight>54.00</geoidheight><course>23.8</course><type>1</type></trkpt>
      <trkpt lat="40.45299356" lon="-5.30574473"><ele>1805</ele><speed>12.14</speed><time>2016-06-29T11:07:29Z</time><pdop>5.0</pdop><geoidheight>54.00</geoidheight><course>23.2</course><type>1</type></trkpt>
      <trkpt lat="40.45314657" lon="-5.30565803"><ele>1807</ele><speed>9.68</speed><time>2016-06-29T11:07:31Z</time><pdop>4.0</pdop><geoidheight>54.00</geoidheight><course>23.7</course><type>1</type></trkpt>
      <trkpt lat="40.45322101" lon="-5.30561525"><ele>1806</ele><speed>9.74</speed><time>2016-06-29T11:07:32Z</time><pdop>4.0</pdop><geoidheight>54.00</geoidheight><course>25.5</course><type>1</type></trkpt>
      <trkpt lat="40.45330636" lon="-5.30556216"><ele>1806</ele><speed>9.98</speed><time>2016-06-29T11:07:33Z</time><pdop>4.0</pdop><geoidheight>54.00</geoidheight><course>26.6</course><type>1</type></trkpt>
      <trkpt lat="40.45339089" lon="-5.30551448"><ele>1805</ele><speed>10.23</speed><time>2016-06-29T11:07:34Z</time><pdop>4.0</pdop><geoidheight>54.00</geoidheight><course>24.0</course><type>1</type></trkpt>
      <trkpt lat="40.45347579" lon="-5.30548992"><ele>1805</ele><speed>9.66</speed><time>2016-06-29T11:07:35Z</time><pdop>4.0</pdop><geoidheight>54.00</geoidheight><course>15.2</course><type>1</type></trkpt>
      <trkpt lat="40.45357001" lon="-5.30547212"><ele>1804</ele><speed>9.22</speed><time>2016-06-29T11:07:36Z</time><pdop>4.0</pdop><geoidheight>54.00</geoidheight><course>5.5</course><type>1</type></trkpt>
      <trkpt lat="40.4536445" lon="-5.30549467"><ele>1804</ele><speed>8.44</speed><time>2016-06-29T11:07:37Z</time><pdop>4.0</pdop><geoidheight>54.00</geoidheight><course>353.5</course><type>1</type></trkpt>
      <trkpt lat="40.45371029" lon="-5.30554735"><ele>1804</ele><speed>7.47</speed><time>2016-06-29T11:07:38Z</time><pdop>4.0</pdop><geoidheight>54.00</geoidheight><course>336.6</course><type>1</type></trkpt>
      <trkpt lat="40.45381159" lon="-5.30563924"><ele>1803</ele><speed>6.11</speed><time>2016-06-29T11:07:40Z</time><pdop>5.0</pdop><geoidheight>54.00</geoidheight><course>319.8</course><type>1</type></trkpt>
      <trkpt lat="40.45375558" lon="-5.30580893"><ele>1802</ele><speed>6.62</speed><time>2016-06-29T11:07:42Z</time><pdop>4.0</pdop><geoidheight>54.00</geoidheight><course>245.5</course><type>1</type></trkpt>
      <trkpt lat="40.4536809" lon="-5.30585588"><ele>1803</ele><speed>7.45</speed><time>2016-06-29T11:07:43Z</time><pdop>4.0</pdop><geoidheight>54.00</geoidheight><course>218.0</course><type>1</type></trkpt>
      <trkpt lat="40.45361137" lon="-5.30588485"><ele>1803</ele><speed>7.86</speed><time>2016-06-29T11:07:44Z</time><pdop>4.0</pdop><geoidheight>54.00</geoidheight><course>200.8</course><type>1</type></trkpt>
      <trkpt lat="40.45353373" lon="-5.30588166"><ele>1803</ele><speed>8.31</speed><time>2016-06-29T11:07:45Z</time><pdop>4.0</pdop><geoidheight>54.00</geoidheight><course>185.2</course><type>1</type></trkpt>
      <trkpt lat="40.45339394" lon="-5.30580578"><ele>1801</ele><speed>9.11</speed><time>2016-06-29T11:07:47Z</time><pdop>5.0</pdop><geoidheight>54.00</geoidheight><course>156.8</course><type>1</type></trkpt>
      <trkpt lat="40.45325073" lon="-5.30565624"><ele>1800</ele><speed>9.70</speed><time>2016-06-29T11:07:49Z</time><pdop>6.0</pdop><geoidheight>54.00</geoidheight><course>141.8</course><type>1</type></trkpt>
      <trkpt lat="40.45319481" lon="-5.3055278"><ele>1800</ele><speed>10.29</speed><time>2016-06-29T11:07:50Z</time><pdop>6.0</pdop><geoidheight>54.00</geoidheight><course>127.5</course><type>1</type></trkpt>
      <trkpt lat="40.45320031" lon="-5.30532296"><ele>1799</ele><speed>12.84</speed><time>2016-06-29T11:07:51Z</time><pdop>5.0</pdop><geoidheight>54.00</geoidheight><course>103.5</course><type>1</type></trkpt>
      <trkpt lat="40.45317552" lon="-5.30516656"><ele>1798</ele><speed>13.05</speed><time>2016-06-29T11:07:52Z</time><pdop>4.0</pdop><geoidheight>54.00</geoidheight><course>96.9</course><type>1</type></trkpt>
      <trkpt lat="40.45318092" lon="-5.30501022"><ele>1797</ele><speed>13.73</speed><time>2016-06-29T11:07:53Z</time><pdop>4.0</pdop><geoidheight>54.00</geoidheight><course>88.7</course><type>1</type></trkpt>
      <trkpt lat="40.45320882" lon="-5.30484459"><ele>1795</ele><speed>14.26</speed><time>2016-06-29T11:07:54Z</time><pdop>3.0</pdop><geoidheight>54.00</geoidheight><course>78.6</course><type>1</type></trkpt>
      <trkpt lat="40.45324772" lon="-5.30467168"><ele>1796</ele><speed>14.28</speed><time>2016-06-29T11:07:55Z</time><pdop>3.0</pdop><geoidheight>54.00</geoidheight><course>70.7</course><type>1</type></trkpt>
      <trkpt lat="40.45329986" lon="-5.30450956"><ele>1797</ele><speed>13.70</speed><time>2016-06-29T11:07:56Z</time><pdop>3.0</pdop><geoidheight>54.00</geoidheight><course>64.3</course><type>1</type></trkpt>
      <trkpt lat="40.45335971" lon="-5.30436759"><ele>1798</ele><speed>12.69</speed><time>2016-06-29T11:07:57Z</time><pdop>3.0</pdop><geoidheight>54.00</geoidheight><course>61.5</course><type>1</type></trkpt>
      <trkpt lat="40.45342378" lon="-5.30425395"><ele>1799</ele><speed>11.77</speed><time>2016-06-29T11:07:58Z</time><pdop>4.0</pdop><geoidheight>54.00</geoidheight><course>56.0</course><type>1</type></trkpt>
      <trkpt lat="40.45350715" lon="-5.30416562"><ele>1798</ele><speed>11.56</speed><time>2016-06-29T11:07:59Z</time><pdop>4.0</pdop><geoidheight>54.00</geoidheight><course>48.1</course><type>1</type></trkpt>
      <trkpt lat="40.45361048" lon="-5.30408331"><ele>1798</ele><speed>11.88</speed><time>2016-06-29T11:08:00Z</time><pdop>4.0</pdop><geoidheight>54.00</geoidheight><course>40.2</course><type>1</type></trkpt>
      <trkpt lat="40.45370997" lon="-5.3040028"><ele>1798</ele><speed>11.85</speed><time>2016-06-29T11:08:01Z</time><pdop>4.0</pdop><geoidheight>54.00</geoidheight><course>36.6</course><type>1</type></trkpt>
      <trkpt lat="40.45379514" lon="-5.30393815"><ele>1797</ele><speed>11.28</speed><time>2016-06-29T11:08:02Z</time><pdop>4.0</pdop><geoidheight>54.00</geoidheight><course>31.8</course><type>1</type></trkpt>
      <trkpt lat="40.45388452" lon="-5.30387702"><ele>1797</ele><speed>10.52</speed><time>2016-06-29T11:08:03Z</time><pdop>3.0</pdop><geoidheight>54.00</geoidheight><course>27.2</course><type>1</type></trkpt>
      <trkpt lat="40.45395854" lon="-5.30383798"><ele>1797</ele><speed>10.08</speed><time>2016-06-29T11:08:04Z</time><pdop>3.0</pdop><geoidheight>54.00</geoidheight><course>21.5</course><type>1</type></trkpt>
      <trkpt lat="40.4540567" lon="-5.30380447"><ele>1796</ele><speed>10.20</speed><time>2016-06-29T11:08:05Z</time><pdop>3.0</pdop><geoidheight>54.00</geoidheight><course>15.6</course><type>1</type></trkpt>
      <trkpt lat="40.45415712" lon="-5.30378475"><ele>1796</ele><speed>10.63</speed><time>2016-06-29T11:08:06Z</time><pdop>3.0</pdop><geoidheight>54.00</geoidheight><course>9.0</course><type>1</type></trkpt>
      <trkpt lat="40.45424782" lon="-5.30378133"><ele>1795</ele><speed>10.81</speed><time>2016-06-29T11:08:07Z</time><pdop>3.0</pdop><geoidheight>54.00</geoidheight><course>4.7</course><type>1</type></trkpt>
      <trkpt lat="40.45434742" lon="-5.30378513"><ele>1795</ele><speed>10.68</speed><time>2016-06-29T11:08:08Z</time><pdop>3.0</pdop><geoidheight>54.00</geoidheight><course>1.4</course><type>1</type></trkpt>
      <trkpt lat="40.45443913" lon="-5.30380348"><ele>1795</ele><speed>10.30</speed><time>2016-06-29T11:08:09Z</time><pdop>3.0</pdop><geoidheight>54.00</geoidheight><course>354.2</course><type>1</type></trkpt>
      <trkpt lat="40.45451456" lon="-5.30384604"><ele>1795</ele><speed>9.69</speed><time>2016-06-29T11:08:10Z</time><pdop>3.0</pdop><geoidheight>54.00</geoidheight><course>341.7</course><type>1</type></trkpt>
      <trkpt lat="40.45458147" lon="-5.30388099"><ele>1795</ele><speed>8.54</speed><time>2016-06-29T11:08:11Z</time><pdop>3.0</pdop><geoidheight>54.00</geoidheight><course>337.6</course><type>1</type></trkpt>
      <trkpt lat="40.45464399" lon="-5.30391966"><ele>1796</ele><speed>8.13</speed><time>2016-06-29T11:08:12Z</time><pdop>3.0</pdop><geoidheight>54.00</geoidheight><course>332.6</course><type>1</type></trkpt>
      <trkpt lat="40.45471919" lon="-5.30396982"><ele>1796</ele><speed>8.80</speed><time>2016-06-29T11:08:13Z</time><pdop>3.0</pdop><geoidheight>54.00</geoidheight><course>335.4</course><type>1</type></trkpt>
      <trkpt lat="40.45480294" lon="-5.30399413"><ele>1796</ele><speed>9.60</speed><time>2016-06-29T11:08:14Z</time><pdop>3.0</pdop><geoidheight>54.00</geoidheight><course>342.3</course><type>1</type></trkpt>
      <trkpt lat="40.45488262" lon="-5.30401239"><ele>1797</ele><speed>9.19</speed><time>2016-06-29T11:08:15Z</time><pdop>3.0</pdop><geoidheight>54.00</geoidheight><course>349.8</course><type>1</type></trkpt>
      <trkpt lat="40.45495391" lon="-5.30402637"><ele>1798</ele><speed>8.16</speed><time>2016-06-29T11:08:16Z</time><pdop>3.0</pdop><geoidheight>54.00</geoidheight><course>350.7</course><type>1</type></trkpt>
      <trkpt lat="40.45504832" lon="-5.30408153"><ele>1798</ele><speed>6.08</speed><time>2016-06-29T11:08:18Z</time><pdop>3.0</pdop><geoidheight>54.00</geoidheight><course>334.6</course><type>1</type></trkpt>
      <trkpt lat="40.45509638" lon="-5.30422805"><ele>1798</ele><speed>6.58</speed><time>2016-06-29T11:08:20Z</time><pdop>4.0</pdop><geoidheight>54.00</geoidheight><course>297.6</course><type>1</type></trkpt>
      <trkpt lat="40.45503708" lon="-5.30438742"><ele>1797</ele><speed>6.20</speed><time>2016-06-29T11:08:22Z</time><pdop>6.0</pdop><geoidheight>54.00</geoidheight><course>257.7</course><type>1</type></trkpt>
      <trkpt lat="40.45492279" lon="-5.30445761"><ele>1798</ele><speed>8.78</speed><time>2016-06-29T11:08:24Z</time><pdop>8.0</pdop><geoidheight>54.00</geoidheight><course>208.8</course><type>1</type></trkpt>
      <trkpt lat="40.45466429" lon="-5.30444869"><ele>1797</ele><speed>11.81</speed><time>2016-06-29T11:08:26Z</time><pdop>9.0</pdop><geoidheight>54.00</geoidheight><course>179.7</course><type>1</type></trkpt>
      <trkpt lat="40.45449215" lon="-5.30440679"><ele>1797</ele><speed>14.26</speed><time>2016-06-29T11:08:27Z</time><pdop>8.0</pdop><geoidheight>54.00</geoidheight><course>172.7</course><type>1</type></trkpt>
      <trkpt lat="40.45435955" lon="-5.30431263"><ele>1798</ele><speed>15.01</speed><time>2016-06-29T11:08:28Z</time><pdop>7.0</pdop><geoidheight>54.00</geoidheight><course>164.9</course><type>1</type></trkpt>
      <trkpt lat="40.45433306" lon="-5.30395301"><ele>1798</ele><speed>12.00</speed><time>2016-06-29T11:08:30Z</time><pdop>9.0</pdop><geoidheight>54.00</geoidheight><course>122.1</course><type>1</type></trkpt>
      <trkpt lat="40.45439386" lon="-5.30374713"><ele>1799</ele><speed>12.11</speed><time>2016-06-29T11:08:31Z</time><pdop>8.0</pdop><geoidheight>54.00</geoidheight><course>93.6</course><type>1</type></trkpt>
      <trkpt lat="40.45443256" lon="-5.3034085"><ele>1800</ele><speed>12.47</speed><time>2016-06-29T11:08:33Z</time><pdop>11.0</pdop><geoidheight>54.00</geoidheight><course>87.3</course><type>1</type></trkpt>
      <trkpt lat="40.45471298" lon="-5.30327139"><ele>1802</ele><speed>9.79</speed><time>2016-06-29T11:08:35Z</time><pdop>7.0</pdop><geoidheight>54.00</geoidheight><course>35.3</course><type>1</type></trkpt>
      <trkpt lat="40.4549112" lon="-5.30320646"><ele>1804</ele><speed>7.72</speed><time>2016-06-29T11:08:38Z</time><pdop>7.0</pdop><geoidheight>54.00</geoidheight><course>1.4</course><type>1</type></trkpt>
      <trkpt lat="40.45501836" lon="-5.30334122"><ele>1805</ele><speed>6.88</speed><time>2016-06-29T11:08:40Z</time><pdop>5.0</pdop><geoidheight>54.00</geoidheight><course>317.3</course><type>1</type></trkpt>
      <trkpt lat="40.45505281" lon="-5.30353664"><ele>1804</ele><speed>7.58</speed><time>2016-06-29T11:08:42Z</time><pdop>5.0</pdop><geoidheight>54.00</geoidheight><course>273.6</course><type>1</type></trkpt>
      <trkpt lat="40.45504032" lon="-5.30372383"><ele>1806</ele><speed>7.66</speed><time>2016-06-29T11:08:44Z</time><pdop>10.0</pdop><geoidheight>54.00</geoidheight><course>250.7</course><type>1</type></trkpt>
      <trkpt lat="40.45486838" lon="-5.30388777"><ele>1809</ele><speed>7.86</speed><time>2016-06-29T11:08:47Z</time><pdop>9.0</pdop><geoidheight>54.00</geoidheight><course>200.6</course><type>1</type></trkpt>
      <trkpt lat="40.45466831" lon="-5.30386901"><ele>1809</ele><speed>10.46</speed><time>2016-06-29T11:08:49Z</time><pdop>11.0</pdop><geoidheight>54.00</geoidheight><course>176.6</course><type>1</type></trkpt>
      <trkpt lat="40.45447674" lon="-5.30372096"><ele>1807</ele><speed>11.64</speed><time>2016-06-29T11:08:51Z</time><pdop>10.0</pdop><geoidheight>54.00</geoidheight><course>156.1</course><type>1</type></trkpt>
      <trkpt lat="40.45430045" lon="-5.30355138"><ele>1806</ele><speed>11.09</speed><time>2016-06-29T11:08:53Z</time><pdop>10.0</pdop><geoidheight>54.00</geoidheight><course>139.9</course><type>1</type></trkpt>
      <trkpt lat="40.45422177" lon="-5.30323273"><ele>1806</ele><speed>13.64</speed><time>2016-06-29T11:08:55Z</time><pdop>9.0</pdop><geoidheight>54.00</geoidheight><course>110.7</course><type>1</type></trkpt>
      <trkpt lat="40.45415401" lon="-5.30292936"><ele>1807</ele><speed>13.31</speed><time>2016-06-29T11:08:57Z</time><pdop>9.0</pdop><geoidheight>54.00</geoidheight><course>102.3</course><type>1</type></trkpt>
      <trkpt lat="40.45408882" lon="-5.30264213"><ele>1808</ele><speed>12.60</speed><time>2016-06-29T11:08:59Z</time><pdop>9.0</pdop><geoidheight>54.00</geoidheight><course>111.8</course><type>1</type></trkpt>
      <trkpt lat="40.4539433" lon="-5.30240266"><ele>1809</ele><speed>12.29</speed><time>2016-06-29T11:09:01Z</time><pdop>9.0</pdop><geoidheight>54.00</geoidheight><course>135.7</course><type>1</type></trkpt>
      <trkpt lat="40.45377059" lon="-5.3022906"><ele>1809</ele><speed>10.40</speed><time>2016-06-29T11:09:03Z</time><pdop>9.0</pdop><geoidheight>54.00</geoidheight><course>158.9</course><type>1</type></trkpt>
      <trkpt lat="40.45357767" lon="-5.30232131"><ele>1810</ele><speed>6.93</speed><time>2016-06-29T11:09:06Z</time><pdop>10.0</pdop><geoidheight>54.00</geoidheight><course>197.0</course><type>1</type></trkpt>
      <trkpt lat="40.45365996" lon="-5.30256054"><ele>1809</ele><speed>7.02</speed><time>2016-06-29T11:09:09Z</time><pdop>5.0</pdop><geoidheight>54.00</geoidheight><course>303.5</course><type>1</type></trkpt>
      <trkpt lat="40.45378065" lon="-5.30265752"><ele>1808</ele><speed>8.58</speed><time>2016-06-29T11:09:11Z</time><pdop>4.0</pdop><geoidheight>54.00</geoidheight><course>337.6</course><type>1</type></trkpt>
      <trkpt lat="40.45386468" lon="-5.30268009"><ele>1808</ele><speed>9.02</speed><time>2016-06-29T11:09:12Z</time><pdop>4.0</pdop><geoidheight>54.00</geoidheight><course>348.9</course><type>1</type></trkpt>
      <trkpt lat="40.45395216" lon="-5.30267775"><ele>1810</ele><speed>9.43</speed><time>2016-06-29T11:09:13Z</time><pdop>4.0</pdop><geoidheight>54.00</geoidheight><course>1.9</course><type>1</type></trkpt>
      <trkpt lat="40.45403328" lon="-5.30264809"><ele>1810</ele><speed>9.98</speed><time>2016-06-29T11:09:14Z</time><pdop>3.0</pdop><geoidheight>54.00</geoidheight><course>14.1</course><type>1</type></trkpt>
      <trkpt lat="40.45411277" lon="-5.30258416"><ele>1810</ele><speed>10.60</speed><time>2016-06-29T11:09:15Z</time><pdop>3.0</pdop><geoidheight>54.00</geoidheight><course>30.2</course><type>1</type></trkpt>
      <trkpt lat="40.45418458" lon="-5.30250161"><ele>1810</ele><speed>11.36</speed><time>2016-06-29T11:09:16Z</time><pdop>3.0</pdop><geoidheight>54.00</geoidheight><course>41.9</course><type>1</type></trkpt>
      <trkpt lat="40.45423289" lon="-5.30239148"><ele>1811</ele><speed>11.54</speed><time>2016-06-29T11:09:17Z</time><pdop>3.0</pdop><geoidheight>54.00</geoidheight><course>53.6</course><type>1</type></trkpt>
      <trkpt lat="40.45428327" lon="-5.30226869"><ele>1809</ele><speed>12.05</speed><time>2016-06-29T11:09:18Z</time><pdop>3.0</pdop><geoidheight>54.00</geoidheight><course>64.0</course><type>1</type></trkpt>
      <trkpt lat="40.45431602" lon="-5.3021186"><ele>1808</ele><speed>13.48</speed><time>2016-06-29T11:09:19Z</time><pdop>3.0</pdop><geoidheight>54.00</geoidheight><course>70.6</course><type>1</type></trkpt>
      <trkpt lat="40.45435167" lon="-5.30195596"><ele>1807</ele><speed>14.21</speed><time>2016-06-29T11:09:20Z</time><pdop>4.0</pdop><geoidheight>54.00</geoidheight><course>72.5</course><type>1</type></trkpt>
      <trkpt lat="40.45432459" lon="-5.30178796"><ele>1806</ele><speed>14.28</speed><time>2016-06-29T11:09:21Z</time><pdop>4.0</pdop><geoidheight>54.00</geoidheight><course>89.0</course><type>1</type></trkpt>
      <trkpt lat="40.45428985" lon="-5.30161431"><ele>1808</ele><speed>14.58</speed><time>2016-06-29T11:09:22Z</time><pdop>3.0</pdop><geoidheight>54.00</geoidheight><course>100.6</course><type>1</type></trkpt>
      <trkpt lat="40.45424876" lon="-5.30146358"><ele>1810</ele><speed>13.52</speed><time>2016-06-29T11:09:23Z</time><pdop>3.0</pdop><geoidheight>54.00</geoidheight><course>108.2</course><type>1</type></trkpt>
      <trkpt lat="40.45421244" lon="-5.30133043"><ele>1811</ele><speed>12.74</speed><time>2016-06-29T11:09:24Z</time><pdop>4.0</pdop><geoidheight>54.00</geoidheight><course>110.6</course><type>1</type></trkpt>
      <trkpt lat="40.45415985" lon="-5.30121066"><ele>1811</ele><speed>11.86</speed><time>2016-06-29T11:09:25Z</time><pdop>5.0</pdop><geoidheight>54.00</geoidheight><course>115.8</course><type>1</type></trkpt>
      <trkpt lat="40.45411189" lon="-5.3010928"><ele>1811</ele><speed>11.69</speed><time>2016-06-29T11:09:26Z</time><pdop>6.0</pdop><geoidheight>54.00</geoidheight><course>120.6</course><type>1</type></trkpt>
      <trkpt lat="40.45393263" lon="-5.3009746"><ele>1810</ele><speed>11.60</speed><time>2016-06-29T11:09:28Z</time><pdop>4.0</pdop><geoidheight>54.00</geoidheight><course>149.1</course><type>1</type></trkpt>
      <trkpt lat="40.45383284" lon="-5.30093475"><ele>1809</ele><speed>11.27</speed><time>2016-06-29T11:09:29Z</time><pdop>4.0</pdop><geoidheight>54.00</geoidheight><course>161.3</course><type>1</type></trkpt>
      <trkpt lat="40.45374403" lon="-5.3009328"><ele>1809</ele><speed>9.99</speed><time>2016-06-29T11:09:30Z</time><pdop>4.0</pdop><geoidheight>54.00</geoidheight><course>173.7</course><type>1</type></trkpt>
      <trkpt lat="40.45366985" lon="-5.3009524"><ele>1808</ele><speed>9.03</speed><time>2016-06-29T11:09:31Z</time><pdop>4.0</pdop><geoidheight>54.00</geoidheight><course>183.6</course><type>1</type></trkpt>
      <trkpt lat="40.45359086" lon="-5.30099375"><ele>1809</ele><speed>5.20</speed><time>2016-06-29T11:09:33Z</time><pdop>5.0</pdop><geoidheight>54.00</geoidheight><course>204.0</course><type>1</type></trkpt>
      <trkpt lat="40.45367028" lon="-5.30115643"><ele>1809</ele><speed>6.94</speed><time>2016-06-29T11:09:35Z</time><pdop>5.0</pdop><geoidheight>54.00</geoidheight><course>303.2</course><type>1</type></trkpt>
      <trkpt lat="40.45375378" lon="-5.30128285"><ele>1838</ele><speed>6.94</speed><time>2016-06-29T11:09:37Z</time><pdop>4.0</pdop><geoidheight>54.00</geoidheight><course>312.2</course><type>1</type></trkpt>
      <trkpt lat="40.4538361" lon="-5.30137164"><ele>1830</ele><speed>5.99</speed><time>2016-06-29T11:09:39Z</time><pdop>4.0</pdop><geoidheight>54.00</geoidheight><course>318.5</course><type>1</type></trkpt>
      <trkpt lat="40.45391169" lon="-5.30150226"><ele>1827</ele><speed>6.22</speed><time>2016-06-29T11:09:41Z</time><pdop>5.0</pdop><geoidheight>54.00</geoidheight><course>313.0</course><type>1</type></trkpt>
      <trkpt lat="40.45399034" lon="-5.30163629"><ele>1824</ele><speed>7.77</speed><time>2016-06-29T11:09:43Z</time><pdop>5.0</pdop><geoidheight>54.00</geoidheight><course>313.9</course><type>1</type></trkpt>
      <trkpt lat="40.45410686" lon="-5.30176452"><ele>1819</ele><speed>7.78</speed><time>2016-06-29T11:09:45Z</time><pdop>5.0</pdop><geoidheight>54.00</geoidheight><course>322.2</course><type>1</type></trkpt>
      <trkpt lat="40.45421786" lon="-5.30186988"><ele>1814</ele><speed>6.98</speed><time>2016-06-29T11:09:47Z</time><pdop>4.0</pdop><geoidheight>54.00</geoidheight><course>322.9</course><type>1</type></trkpt>
      <trkpt lat="40.45430521" lon="-5.30197748"><ele>1807</ele><speed>7.11</speed><time>2016-06-29T11:09:49Z</time><pdop>4.0</pdop><geoidheight>54.00</geoidheight><course>310.2</course><type>1</type></trkpt>
      <trkpt lat="40.45439185" lon="-5.30211389"><ele>1805</ele><speed>7.41</speed><time>2016-06-29T11:09:51Z</time><pdop>4.0</pdop><geoidheight>54.00</geoidheight><course>308.5</course><type>1</type></trkpt>
      <trkpt lat="40.45446498" lon="-5.30220572"><ele>1803</ele><speed>9.58</speed><time>2016-06-29T11:09:52Z</time><pdop>5.0</pdop><geoidheight>54.00</geoidheight><course>316.2</course><type>1</type></trkpt>
      <trkpt lat="40.45462928" lon="-5.30235847"><ele>1803</ele><speed>11.30</speed><time>2016-06-29T11:09:54Z</time><pdop>6.0</pdop><geoidheight>54.00</geoidheight><course>324.2</course><type>1</type></trkpt>
      <trkpt lat="40.45479531" lon="-5.30247209"><ele>1802</ele><speed>10.46</speed><time>2016-06-29T11:09:56Z</time><pdop>5.0</pdop><geoidheight>54.00</geoidheight><course>333.6</course><type>1</type></trkpt>
      <trkpt lat="40.45493838" lon="-5.30256837"><ele>1799</ele><speed>8.73</speed><time>2016-06-29T11:09:58Z</time><pdop>4.0</pdop><geoidheight>54.00</geoidheight><course>329.1</course><type>1</type></trkpt>
      <trkpt lat="40.45501286" lon="-5.30262487"><ele>1797</ele><speed>9.10</speed><time>2016-06-29T11:09:59Z</time><pdop>5.0</pdop><geoidheight>54.00</geoidheight><course>325.6</course><type>1</type></trkpt>
      <trkpt lat="40.45509021" lon="-5.30272351"><ele>1795</ele><speed>10.38</speed><time>2016-06-29T11:10:00Z</time><pdop>4.0</pdop><geoidheight>54.00</geoidheight><course>317.8</course><type>1</type></trkpt>
      <trkpt lat="40.45515678" lon="-5.30280601"><ele>1795</ele><speed>10.62</speed><time>2016-06-29T11:10:01Z</time><pdop>5.0</pdop><geoidheight>54.00</geoidheight><course>319.6</course><type>1</type></trkpt>
      <trkpt lat="40.45523374" lon="-5.3029068"><ele>1796</ele><speed>11.14</speed><time>2016-06-29T11:10:02Z</time><pdop>6.0</pdop><geoidheight>54.00</geoidheight><course>319.2</course><type>1</type></trkpt>
      <trkpt lat="40.45538133" lon="-5.30302905"><ele>1796</ele><speed>10.01</speed><time>2016-06-29T11:10:04Z</time><pdop>4.0</pdop><geoidheight>54.00</geoidheight><course>320.7</course><type>1</type></trkpt>
      <trkpt lat="40.45544837" lon="-5.30309776"><ele>1796</ele><speed>9.74</speed><time>2016-06-29T11:10:05Z</time><pdop>4.0</pdop><geoidheight>54.00</geoidheight><course>319.6</course><type>1</type></trkpt>
      <trkpt lat="40.45552015" lon="-5.30318546"><ele>1793</ele><speed>9.65</speed><time>2016-06-29T11:10:06Z</time><pdop>4.0</pdop><geoidheight>54.00</geoidheight><course>321.7</course><type>1</type></trkpt>
      <trkpt lat="40.45559386" lon="-5.30326283"><ele>1790</ele><speed>10.07</speed><time>2016-06-29T11:10:07Z</time><pdop>4.0</pdop><geoidheight>54.00</geoidheight><course>320.4</course><type>1</type></trkpt>
      <trkpt lat="40.45566573" lon="-5.3033361"><ele>1788</ele><speed>10.15</speed><time>2016-06-29T11:10:08Z</time><pdop>3.0</pdop><geoidheight>54.00</geoidheight><course>317.5</course><type>1</type></trkpt>
      <trkpt lat="40.4557341" lon="-5.30340319"><ele>1785</ele><speed>10.25</speed><time>2016-06-29T11:10:09Z</time><pdop>4.0</pdop><geoidheight>54.00</geoidheight><course>317.2</course><type>1</type></trkpt>
      <trkpt lat="40.45580807" lon="-5.30349055"><ele>1785</ele><speed>10.74</speed><time>2016-06-29T11:10:10Z</time><pdop>6.0</pdop><geoidheight>54.00</geoidheight><course>318.1</course><type>1</type></trkpt>
      <trkpt lat="40.45590981" lon="-5.30352483"><ele>1783</ele><speed>11.56</speed><time>2016-06-29T11:10:11Z</time><pdop>5.0</pdop><geoidheight>54.00</geoidheight><course>328.1</course><type>1</type></trkpt>
      <trkpt lat="40.45600759" lon="-5.30357712"><ele>1782</ele><speed>11.64</speed><time>2016-06-29T11:10:12Z</time><pdop>4.0</pdop><geoidheight>54.00</geoidheight><course>332.5</course><type>1</type></trkpt>
      <trkpt lat="40.45610146" lon="-5.30364406"><ele>1782</ele><speed>11.29</speed><time>2016-06-29T11:10:13Z</time><pdop>4.0</pdop><geoidheight>54.00</geoidheight><course>334.7</course><type>1</type></trkpt>
      <trkpt lat="40.45618139" lon="-5.30369432"><ele>1783</ele><speed>10.46</speed><time>2016-06-29T11:10:14Z</time><pdop>4.0</pdop><geoidheight>54.00</geoidheight><course>336.0</course><type>1</type></trkpt>
      <trkpt lat="40.45626701" lon="-5.30375278"><ele>1783</ele><speed>10.08</speed><time>2016-06-29T11:10:15Z</time><pdop>5.0</pdop><geoidheight>54.00</geoidheight><course>334.7</course><type>1</type></trkpt>
      <trkpt lat="40.45634991" lon="-5.30383034"><ele>1783</ele><speed>10.65</speed><time>2016-06-29T11:10:16Z</time><pdop>5.0</pdop><geoidheight>54.00</geoidheight><course>330.9</course><type>1</type></trkpt>
      <trkpt lat="40.45644301" lon="-5.30387468"><ele>1783</ele><speed>11.16</speed><time>2016-06-29T11:10:17Z</time><pdop>5.0</pdop><geoidheight>54.00</geoidheight><course>334.4</course><type>1</type></trkpt>
      <trkpt lat="40.45654373" lon="-5.30394378"><ele>1782</ele><speed>11.91</speed><time>2016-06-29T11:10:18Z</time><pdop>5.0</pdop><geoidheight>54.00</geoidheight><course>333.6</course><type>1</type></trkpt>
      <trkpt lat="40.45663456" lon="-5.3040205"><ele>1780</ele><speed>11.82</speed><time>2016-06-29T11:10:19Z</time><pdop>4.0</pdop><geoidheight>54.00</geoidheight><course>330.6</course><type>1</type></trkpt>
      <trkpt lat="40.45672347" lon="-5.30409353"><ele>1781</ele><speed>11.36</speed><time>2016-06-29T11:10:20Z</time><pdop>5.0</pdop><geoidheight>54.00</geoidheight><course>327.7</course><type>1</type></trkpt>
      <trkpt lat="40.45680788" lon="-5.30416082"><ele>1781</ele><speed>10.96</speed><time>2016-06-29T11:10:21Z</time><pdop>5.0</pdop><geoidheight>54.00</geoidheight><course>329.1</course><type>1</type></trkpt>
      <trkpt lat="40.45689176" lon="-5.30421188"><ele>1780</ele><speed>10.50</speed><time>2016-06-29T11:10:22Z</time><pdop>5.0</pdop><geoidheight>54.00</geoidheight><course>334.8</course><type>1</type></trkpt>
      <trkpt lat="40.45697785" lon="-5.30425796"><ele>1778</ele><speed>10.56</speed><time>2016-06-29T11:10:23Z</time><pdop>5.0</pdop><geoidheight>54.00</geoidheight><course>335.0</course><type>1</type></trkpt>
      <trkpt lat="40.45705973" lon="-5.30433215"><ele>1777</ele><speed>10.31</speed><time>2016-06-29T11:10:24Z</time><pdop>4.0</pdop><geoidheight>54.00</geoidheight><course>330.6</course><type>1</type></trkpt>
      <trkpt lat="40.45713469" lon="-5.30441287"><ele>1776</ele><speed>10.21</speed><time>2016-06-29T11:10:25Z</time><pdop>5.0</pdop><geoidheight>54.00</geoidheight><course>324.3</course><type>1</type></trkpt>
      <trkpt lat="40.45729982" lon="-5.30450929"><ele>1768</ele><speed>11.14</speed><time>2016-06-29T11:10:27Z</time><pdop>4.0</pdop><geoidheight>54.00</geoidheight><course>332.3</course><type>1</type></trkpt>
      <trkpt lat="40.45740502" lon="-5.30455788"><ele>1764</ele><speed>11.91</speed><time>2016-06-29T11:10:28Z</time><pdop>4.0</pdop><geoidheight>54.00</geoidheight><course>339.7</course><type>1</type></trkpt>
      <trkpt lat="40.45751259" lon="-5.30459473"><ele>1761</ele><speed>11.87</speed><time>2016-06-29T11:10:29Z</time><pdop>4.0</pdop><geoidheight>54.00</geoidheight><course>345.3</course><type>1</type></trkpt>
      <trkpt lat="40.45760412" lon="-5.30461281"><ele>1760</ele><speed>10.88</speed><time>2016-06-29T11:10:30Z</time><pdop>4.0</pdop><geoidheight>54.00</geoidheight><course>347.2</course><type>1</type></trkpt>
      <trkpt lat="40.45768677" lon="-5.30462658"><ele>1757</ele><speed>9.68</speed><time>2016-06-29T11:10:31Z</time><pdop>3.0</pdop><geoidheight>54.00</geoidheight><course>347.8</course><type>1</type></trkpt>
      <trkpt lat="40.45776565" lon="-5.30466379"><ele>1754</ele><speed>9.51</speed><time>2016-06-29T11:10:32Z</time><pdop>4.0</pdop><geoidheight>54.00</geoidheight><course>344.4</course><type>1</type></trkpt>
      <trkpt lat="40.45784389" lon="-5.30469835"><ele>1753</ele><speed>9.42</speed><time>2016-06-29T11:10:33Z</time><pdop>4.0</pdop><geoidheight>54.00</geoidheight><course>342.4</course><type>1</type></trkpt>
      <trkpt lat="40.45798772" lon="-5.30475303"><ele>1749</ele><speed>9.21</speed><time>2016-06-29T11:10:35Z</time><pdop>8.0</pdop><geoidheight>54.00</geoidheight><course>336.0</course><type>1</type></trkpt>
      <trkpt lat="40.4581546" lon="-5.30495594"><ele>1747</ele><speed>9.49</speed><time>2016-06-29T11:10:37Z</time><pdop>5.0</pdop><geoidheight>54.00</geoidheight><course>322.3</course><type>1</type></trkpt>
      <trkpt lat="40.45824756" lon="-5.30503071"><ele>1743</ele><speed>6.85</speed><time>2016-06-29T11:10:39Z</time><pdop>5.0</pdop><geoidheight>54.00</geoidheight><course>317.5</course><type>1</type></trkpt>
      <trkpt lat="40.4583614" lon="-5.30515474"><ele>1742</ele><speed>8.17</speed><time>2016-06-29T11:10:41Z</time><pdop>5.0</pdop><geoidheight>54.00</geoidheight><course>324.0</course><type>1</type></trkpt>
      <trkpt lat="40.45849599" lon="-5.30533403"><ele>1739</ele><speed>10.12</speed><time>2016-06-29T11:10:43Z</time><pdop>6.0</pdop><geoidheight>54.00</geoidheight><course>317.3</course><type>1</type></trkpt>
      <trkpt lat="40.45857773" lon="-5.30546541"><ele>1735</ele><speed>11.72</speed><time>2016-06-29T11:10:44Z</time><pdop>5.0</pdop><geoidheight>54.00</geoidheight><course>312.9</course><type>1</type></trkpt>
      <trkpt lat="40.45864715" lon="-5.30552724"><ele>1732</ele><speed>11.35</speed><time>2016-06-29T11:10:45Z</time><pdop>4.0</pdop><geoidheight>54.00</geoidheight><course>312.6</course><type>1</type></trkpt>
      <trkpt lat="40.45871381" lon="-5.30561702"><ele>1729</ele><speed>11.16</speed><time>2016-06-29T11:10:46Z</time><pdop>5.0</pdop><geoidheight>54.00</geoidheight><course>312.3</course><type>1</type></trkpt>
      <trkpt lat="40.45878429" lon="-5.30571289"><ele>1726</ele><speed>11.95</speed><time>2016-06-29T11:10:47Z</time><pdop>5.0</pdop><geoidheight>54.00</geoidheight><course>311.9</course><type>1</type></trkpt>
      <trkpt lat="40.45885386" lon="-5.30582086"><ele>1724</ele><speed>12.56</speed><time>2016-06-29T11:10:48Z</time><pdop>5.0</pdop><geoidheight>54.00</geoidheight><course>309.7</course><type>1</type></trkpt>
      <trkpt lat="40.45894046" lon="-5.30591976"><ele>1725</ele><speed>13.03</speed><time>2016-06-29T11:10:49Z</time><pdop>6.0</pdop><geoidheight>54.00</geoidheight><course>313.6</course><type>1</type></trkpt>
      <trkpt lat="40.45903297" lon="-5.30601438"><ele>1724</ele><speed>13.25</speed><time>2016-06-29T11:10:50Z</time><pdop>7.0</pdop><geoidheight>54.00</geoidheight><course>317.8</course><type>1</type></trkpt>
      <trkpt lat="40.45921688" lon="-5.30621931"><ele>1724</ele><speed>12.79</speed><time>2016-06-29T11:10:52Z</time><pdop>7.0</pdop><geoidheight>54.00</geoidheight><course>319.8</course><type>1</type></trkpt>
      <trkpt lat="40.45936768" lon="-5.30636301"><ele>1724</ele><speed>11.12</speed><time>2016-06-29T11:10:54Z</time><pdop>6.0</pdop><geoidheight>54.00</geoidheight><course>325.1</course><type>1</type></trkpt>
      <trkpt lat="40.45952721" lon="-5.30650191"><ele>1721</ele><speed>10.97</speed><time>2016-06-29T11:10:56Z</time><pdop>5.0</pdop><geoidheight>54.00</geoidheight><course>325.9</course><type>1</type></trkpt>
      <trkpt lat="40.45960659" lon="-5.30657141"><ele>1719</ele><speed>11.15</speed><time>2016-06-29T11:10:57Z</time><pdop>5.0</pdop><geoidheight>54.00</geoidheight><course>325.2</course><type>1</type></trkpt>
      <trkpt lat="40.4597664" lon="-5.30668365"><ele>1716</ele><speed>11.60</speed><time>2016-06-29T11:10:59Z</time><pdop>6.0</pdop><geoidheight>54.00</geoidheight><course>324.3</course><type>1</type></trkpt>
      <trkpt lat="40.45994132" lon="-5.30684322"><ele>1717</ele><speed>12.28</speed><time>2016-06-29T11:11:01Z</time><pdop>9.0</pdop><geoidheight>54.00</geoidheight><course>324.2</course><type>1</type></trkpt>
      <trkpt lat="40.46013663" lon="-5.30696891"><ele>1715</ele><speed>12.28</speed><time>2016-06-29T11:11:03Z</time><pdop>9.0</pdop><geoidheight>54.00</geoidheight><course>330.7</course><type>1</type></trkpt>
      <trkpt lat="40.46032914" lon="-5.30711897"><ele>1714</ele><speed>11.65</speed><time>2016-06-29T11:11:05Z</time><pdop>7.0</pdop><geoidheight>54.00</geoidheight><course>330.5</course><type>1</type></trkpt>
      <trkpt lat="40.46050872" lon="-5.30722945"><ele>1712</ele><speed>11.73</speed><time>2016-06-29T11:11:07Z</time><pdop>7.0</pdop><geoidheight>54.00</geoidheight><course>331.4</course><type>1</type></trkpt>
      <trkpt lat="40.46071098" lon="-5.3073313"><ele>1709</ele><speed>11.85</speed><time>2016-06-29T11:11:09Z</time><pdop>5.0</pdop><geoidheight>54.00</geoidheight><course>340.0</course><type>1</type></trkpt>
      <trkpt lat="40.46081076" lon="-5.3073752"><ele>1709</ele><speed>11.44</speed><time>2016-06-29T11:11:10Z</time><pdop>5.0</pdop><geoidheight>54.00</geoidheight><course>342.9</course><type>1</type></trkpt>
      <trkpt lat="40.46090615" lon="-5.30741398"><ele>1709</ele><speed>11.17</speed><time>2016-06-29T11:11:11Z</time><pdop>5.0</pdop><geoidheight>54.00</geoidheight><course>342.4</course><type>1</type></trkpt>
      <trkpt lat="40.46100304" lon="-5.30743389"><ele>1707</ele><speed>11.12</speed><time>2016-06-29T11:11:12Z</time><pdop>4.0</pdop><geoidheight>54.00</geoidheight><course>342.1</course><type>1</type></trkpt>
      <trkpt lat="40.461086" lon="-5.30745377"><ele>1704</ele><speed>10.90</speed><time>2016-06-29T11:11:13Z</time><pdop>5.0</pdop><geoidheight>54.00</geoidheight><course>343.1</course><type>1</type></trkpt>
      <trkpt lat="40.46120979" lon="-5.30747267"><ele>1706</ele><speed>6.28</speed><time>2016-06-29T11:11:15Z</time><pdop>4.0</pdop><geoidheight>54.00</geoidheight><course>355.1</course><type>1</type></trkpt>
      <trkpt lat="40.46131185" lon="-5.30746853"><ele>1704</ele><speed>5.45</speed><time>2016-06-29T11:11:17Z</time><pdop>4.0</pdop><geoidheight>54.00</geoidheight><course>0.9</course><type>1</type></trkpt>
      <trkpt lat="40.46142473" lon="-5.30742016"><ele>1699</ele><speed>6.63</speed><time>2016-06-29T11:11:19Z</time><pdop>4.0</pdop><geoidheight>54.00</geoidheight><course>3.0</course><type>1</type></trkpt>
      <trkpt lat="40.46155869" lon="-5.30743419"><ele>1698</ele><speed>7.58</speed><time>2016-06-29T11:11:21Z</time><pdop>4.0</pdop><geoidheight>54.00</geoidheight><course>351.8</course><type>1</type></trkpt>
      <trkpt lat="40.46164769" lon="-5.30752203"><ele>1696</ele><speed>9.35</speed><time>2016-06-29T11:11:22Z</time><pdop>5.0</pdop><geoidheight>54.00</geoidheight><course>337.7</course><type>1</type></trkpt>
      <trkpt lat="40.46176234" lon="-5.30757516"><ele>1696</ele><speed>11.48</speed><time>2016-06-29T11:11:23Z</time><pdop>4.0</pdop><geoidheight>54.00</geoidheight><course>338.8</course><type>1</type></trkpt>
      <trkpt lat="40.46184889" lon="-5.30758197"><ele>1696</ele><speed>10.38</speed><time>2016-06-29T11:11:24Z</time><pdop>4.0</pdop><geoidheight>54.00</geoidheight><course>346.9</course><type>1</type></trkpt>
      <trkpt lat="40.46193153" lon="-5.30759289"><ele>1696</ele><speed>9.79</speed><time>2016-06-29T11:11:25Z</time><pdop>4.0</pdop><geoidheight>54.00</geoidheight><course>348.1</course><type>1</type></trkpt>
      <trkpt lat="40.46204237" lon="-5.30763374"><ele>1694</ele><speed>6.83</speed><time>2016-06-29T11:11:27Z</time><pdop>3.0</pdop><geoidheight>54.00</geoidheight><course>344.0</course><type>1</type></trkpt>
      <trkpt lat="40.46209812" lon="-5.30765075"><ele>1694</ele><speed>6.35</speed><time>2016-06-29T11:11:28Z</time><pdop>3.0</pdop><geoidheight>54.00</geoidheight><course>345.7</course><type>1</type></trkpt>
      <trkpt lat="40.4622012" lon="-5.30765329"><ele>1693</ele><speed>6.06</speed><time>2016-06-29T11:11:30Z</time><pdop>3.0</pdop><geoidheight>54.00</geoidheight><course>1.4</course><type>1</type></trkpt>
      <trkpt lat="40.46226309" lon="-5.30765865"><ele>1693</ele><speed>6.42</speed><time>2016-06-29T11:11:31Z</time><pdop>3.0</pdop><geoidheight>54.00</geoidheight><course>1.3</course><type>1</type></trkpt>
      <trkpt lat="40.46232257" lon="-5.3076586"><ele>1691</ele><speed>7.07</speed><time>2016-06-29T11:11:32Z</time><pdop>3.0</pdop><geoidheight>54.00</geoidheight><course>354.5</course><type>1</type></trkpt>
      <trkpt lat="40.46239142" lon="-5.30767581"><ele>1691</ele><speed>7.38</speed><time>2016-06-29T11:11:33Z</time><pdop>4.0</pdop><geoidheight>54.00</geoidheight><course>351.7</course><type>1</type></trkpt>
      <trkpt lat="40.46245696" lon="-5.30772666"><ele>1690</ele><speed>7.50</speed><time>2016-06-29T11:11:34Z</time><pdop>4.0</pdop><geoidheight>54.00</geoidheight><course>338.8</course><type>1</type></trkpt>
      <trkpt lat="40.46257181" lon="-5.30776733"><ele>1689</ele><speed>7.27</speed><time>2016-06-29T11:11:36Z</time><pdop>7.0</pdop><geoidheight>54.00</geoidheight><course>341.1</course><type>1</type></trkpt>
      <trkpt lat="40.46270619" lon="-5.3078682"><ele>1689</ele><speed>6.90</speed><time>2016-06-29T11:11:38Z</time><pdop>5.0</pdop><geoidheight>54.00</geoidheight><course>333.5</course><type>1</type></trkpt>
      <trkpt lat="40.46283345" lon="-5.30795693"><ele>1685</ele><speed>6.80</speed><time>2016-06-29T11:11:40Z</time><pdop>5.0</pdop><geoidheight>54.00</geoidheight><course>333.4</course><type>1</type></trkpt>
      <trkpt lat="40.46294339" lon="-5.30814558"><ele>1685</ele><speed>8.79</speed><time>2016-06-29T11:11:42Z</time><pdop>5.0</pdop><geoidheight>54.00</geoidheight><course>310.8</course><type>1</type></trkpt>
      <trkpt lat="40.46305949" lon="-5.30826932"><ele>1686</ele><speed>8.06</speed><time>2016-06-29T11:11:44Z</time><pdop>5.0</pdop><geoidheight>54.00</geoidheight><course>319.3</course><type>1</type></trkpt>
      <trkpt lat="40.46317778" lon="-5.30834975"><ele>1688</ele><speed>7.73</speed><time>2016-06-29T11:11:46Z</time><pdop>5.0</pdop><geoidheight>54.00</geoidheight><course>329.8</course><type>1</type></trkpt>
      <trkpt lat="40.46329579" lon="-5.30837543"><ele>1693</ele><speed>7.45</speed><time>2016-06-29T11:11:48Z</time><pdop>4.0</pdop><geoidheight>54.00</geoidheight><course>357.7</course><type>1</type></trkpt>
      <trkpt lat="40.46335841" lon="-5.30833076"><ele>1694</ele><speed>7.29</speed><time>2016-06-29T11:11:49Z</time><pdop>3.0</pdop><geoidheight>54.00</geoidheight><course>13.5</course><type>1</type></trkpt>
      <trkpt lat="40.46341062" lon="-5.30825179"><ele>1694</ele><speed>7.48</speed><time>2016-06-29T11:11:50Z</time><pdop>3.0</pdop><geoidheight>54.00</geoidheight><course>40.6</course><type>1</type></trkpt>
      <trkpt lat="40.46346337" lon="-5.30818455"><ele>1695</ele><speed>8.09</speed><time>2016-06-29T11:11:51Z</time><pdop>3.0</pdop><geoidheight>54.00</geoidheight><course>47.1</course><type>1</type></trkpt>
      <trkpt lat="40.46352133" lon="-5.30810063"><ele>1695</ele><speed>8.76</speed><time>2016-06-29T11:11:52Z</time><pdop>3.0</pdop><geoidheight>54.00</geoidheight><course>48.0</course><type>1</type></trkpt>
      <trkpt lat="40.4635839" lon="-5.30802574"><ele>1694</ele><speed>9.33</speed><time>2016-06-29T11:11:53Z</time><pdop>4.0</pdop><geoidheight>54.00</geoidheight><course>44.1</course><type>1</type></trkpt>
      <trkpt lat="40.46365836" lon="-5.30797629"><ele>1693</ele><speed>8.68</speed><time>2016-06-29T11:11:54Z</time><pdop>4.0</pdop><geoidheight>54.00</geoidheight><course>33.5</course><type>1</type></trkpt>
      <trkpt lat="40.46377245" lon="-5.30794194"><ele>1693</ele><speed>6.40</speed><time>2016-06-29T11:11:56Z</time><pdop>5.0</pdop><geoidheight>54.00</geoidheight><course>13.4</course><type>1</type></trkpt>
      <trkpt lat="40.46369957" lon="-5.30817741"><ele>1694</ele><speed>8.22</speed><time>2016-06-29T11:12:00Z</time><pdop>6.0</pdop><geoidheight>54.00</geoidheight><course>229.9</course><type>1</type></trkpt>
      <trkpt lat="40.46361636" lon="-5.3082826"><ele>1697</ele><speed>10.07</speed><time>2016-06-29T11:12:01Z</time><pdop>5.0</pdop><geoidheight>54.00</geoidheight><course>215.8</course><type>1</type></trkpt>
      <trkpt lat="40.4635351" lon="-5.30836483"><ele>1699</ele><speed>9.75</speed><time>2016-06-29T11:12:02Z</time><pdop>5.0</pdop><geoidheight>54.00</geoidheight><course>209.5</course><type>1</type></trkpt>
      <trkpt lat="40.46334925" lon="-5.3084337"><ele>1700</ele><speed>10.69</speed><time>2016-06-29T11:12:04Z</time><pdop>7.0</pdop><geoidheight>54.00</geoidheight><course>194.0</course><type>1</type></trkpt>
      <trkpt lat="40.46314851" lon="-5.30831754"><ele>1699</ele><speed>11.67</speed><time>2016-06-29T11:12:06Z</time><pdop>8.0</pdop><geoidheight>54.00</geoidheight><course>166.8</course><type>1</type></trkpt>
      <trkpt lat="40.46307056" lon="-5.30790959"><ele>1697</ele><speed>15.08</speed><time>2016-06-29T11:12:08Z</time><pdop>7.0</pdop><geoidheight>54.00</geoidheight><course>113.9</course><type>1</type></trkpt>
      <trkpt lat="40.46302003" lon="-5.30770782"><ele>1697</ele><speed>15.11</speed><time>2016-06-29T11:12:09Z</time><pdop>7.0</pdop><geoidheight>54.00</geoidheight><course>108.9</course><type>1</type></trkpt>
      <trkpt lat="40.46299419" lon="-5.30754325"><ele>1694</ele><speed>14.64</speed><time>2016-06-29T11:12:10Z</time><pdop>7.0</pdop><geoidheight>54.00</geoidheight><course>101.8</course><type>1</type></trkpt>
      <trkpt lat="40.46299325" lon="-5.30732449"><ele>1694</ele><speed>15.22</speed><time>2016-06-29T11:12:11Z</time><pdop>7.0</pdop><geoidheight>54.00</geoidheight><course>93.2</course><type>1</type></trkpt>
      <trkpt lat="40.46302087" lon="-5.30712942"><ele>1694</ele><speed>15.06</speed><time>2016-06-29T11:12:12Z</time><pdop>5.0</pdop><geoidheight>54.00</geoidheight><course>84.5</course><type>1</type></trkpt>
      <trkpt lat="40.46302735" lon="-5.3069467"><ele>1696</ele><speed>14.61</speed><time>2016-06-29T11:12:13Z</time><pdop>4.0</pdop><geoidheight>54.00</geoidheight><course>82.4</course><type>1</type></trkpt>
      <trkpt lat="40.46305469" lon="-5.30676532"><ele>1698</ele><speed>14.19</speed><time>2016-06-29T11:12:14Z</time><pdop>4.0</pdop><geoidheight>54.00</geoidheight><course>79.3</course><type>1</type></trkpt>
      <trkpt lat="40.4630837" lon="-5.30658931"><ele>1700</ele><speed>13.95</speed><time>2016-06-29T11:12:15Z</time><pdop>4.0</pdop><geoidheight>54.00</geoidheight><course>76.3</course><type>1</type></trkpt>
      <trkpt lat="40.46312789" lon="-5.30643904"><ele>1701</ele><speed>12.90</speed><time>2016-06-29T11:12:16Z</time><pdop>4.0</pdop><geoidheight>54.00</geoidheight><course>71.8</course><type>1</type></trkpt>
      <trkpt lat="40.46317509" lon="-5.30631672"><ele>1703</ele><speed>11.89</speed><time>2016-06-29T11:12:17Z</time><pdop>3.0</pdop><geoidheight>54.00</geoidheight><course>67.2</course><type>1</type></trkpt>
      <trkpt lat="40.4632211" lon="-5.30618891"><ele>1704</ele><speed>11.36</speed><time>2016-06-29T11:12:18Z</time><pdop>4.0</pdop><geoidheight>54.00</geoidheight><course>63.3</course><type>1</type></trkpt>
      <trkpt lat="40.46328863" lon="-5.3060788"><ele>1706</ele><speed>11.13</speed><time>2016-06-29T11:12:19Z</time><pdop>4.0</pdop><geoidheight>54.00</geoidheight><course>51.3</course><type>1</type></trkpt>
      <trkpt lat="40.46336888" lon="-5.3059913"><ele>1708</ele><speed>11.21</speed><time>2016-06-29T11:12:20Z</time><pdop>4.0</pdop><geoidheight>54.00</geoidheight><course>41.3</course><type>1</type></trkpt>
      <trkpt lat="40.46343965" lon="-5.30591764"><ele>1709</ele><speed>10.89</speed><time>2016-06-29T11:12:21Z</time><pdop>4.0</pdop><geoidheight>54.00</geoidheight><course>37.6</course><type>1</type></trkpt>
      <trkpt lat="40.46350271" lon="-5.3058662"><ele>1711</ele><speed>9.39</speed><time>2016-06-29T11:12:22Z</time><pdop>4.0</pdop><geoidheight>54.00</geoidheight><course>35.5</course><type>1</type></trkpt>
      <trkpt lat="40.46361822" lon="-5.30577422"><ele>1711</ele><speed>7.77</speed><time>2016-06-29T11:12:24Z</time><pdop>4.0</pdop><geoidheight>54.00</geoidheight><course>26.8</course><type>1</type></trkpt>
      <trkpt lat="40.46370108" lon="-5.30578826"><ele>1708</ele><speed>8.07</speed><time>2016-06-29T11:12:25Z</time><pdop>4.0</pdop><geoidheight>54.00</geoidheight><course>4.3</course><type>1</type></trkpt>
      <trkpt lat="40.46378237" lon="-5.30579199"><ele>1709</ele><speed>8.35</speed><time>2016-06-29T11:12:26Z</time><pdop>3.0</pdop><geoidheight>54.00</geoidheight><course>356.5</course><type>1</type></trkpt>
      <trkpt lat="40.46385252" lon="-5.30580105"><ele>1710</ele><speed>8.48</speed><time>2016-06-29T11:12:27Z</time><pdop>3.0</pdop><geoidheight>54.00</geoidheight><course>354.7</course><type>1</type></trkpt>
      <trkpt lat="40.46392515" lon="-5.30579439"><ele>1711</ele><speed>8.95</speed><time>2016-06-29T11:12:28Z</time><pdop>3.0</pdop><geoidheight>54.00</geoidheight><course>358.8</course><type>1</type></trkpt>
      <trkpt lat="40.46401097" lon="-5.30578754"><ele>1711</ele><speed>9.63</speed><time>2016-06-29T11:12:29Z</time><pdop>3.0</pdop><geoidheight>54.00</geoidheight><course>9.7</course><type>1</type></trkpt>
      <trkpt lat="40.46410128" lon="-5.30573629"><ele>1712</ele><speed>10.29</speed><time>2016-06-29T11:12:30Z</time><pdop>3.0</pdop><geoidheight>54.00</geoidheight><course>22.2</course><type>1</type></trkpt>
      <trkpt lat="40.4641708" lon="-5.30565997"><ele>1712</ele><speed>10.19</speed><time>2016-06-29T11:12:31Z</time><pdop>4.0</pdop><geoidheight>54.00</geoidheight><course>33.5</course><type>1</type></trkpt>
      <trkpt lat="40.46424322" lon="-5.30558534"><ele>1712</ele><speed>10.07</speed><time>2016-06-29T11:12:32Z</time><pdop>4.0</pdop><geoidheight>54.00</geoidheight><course>38.3</course><type>1</type></trkpt>
      <trkpt lat="40.46430013" lon="-5.30551177"><ele>1714</ele><speed>9.45</speed><time>2016-06-29T11:12:33Z</time><pdop>4.0</pdop><geoidheight>54.00</geoidheight><course>39.9</course><type>1</type></trkpt>
      <trkpt lat="40.46437227" lon="-5.30545002"><ele>1714</ele><speed>8.92</speed><time>2016-06-29T11:12:34Z</time><pdop>4.0</pdop><geoidheight>54.00</geoidheight><course>35.6</course><type>1</type></trkpt>
      <trkpt lat="40.46444383" lon="-5.30540907"><ele>1713</ele><speed>8.27</speed><time>2016-06-29T11:12:35Z</time><pdop>4.0</pdop><geoidheight>54.00</geoidheight><course>25.2</course><type>1</type></trkpt>
      <trkpt lat="40.46457202" lon="-5.30537155"><ele>1713</ele><speed>6.93</speed><time>2016-06-29T11:12:37Z</time><pdop>5.0</pdop><geoidheight>54.00</geoidheight><course>11.0</course><type>1</type></trkpt>
      <trkpt lat="40.46463936" lon="-5.30547885"><ele>1712</ele><speed>4.53</speed><time>2016-06-29T11:12:39Z</time><pdop>6.0</pdop><geoidheight>54.00</geoidheight><course>321.8</course><type>1</type></trkpt>
      <trkpt lat="40.46453317" lon="-5.30560815"><ele>1711</ele><speed>4.13</speed><time>2016-06-29T11:12:41Z</time><pdop>7.0</pdop><geoidheight>54.00</geoidheight><course>225.1</course><type>1</type></trkpt>
      <trkpt lat="40.46436448" lon="-5.30564478"><ele>1712</ele><speed>7.18</speed><time>2016-06-29T11:12:43Z</time><pdop>6.0</pdop><geoidheight>54.00</geoidheight><course>174.0</course><type>1</type></trkpt>
      <trkpt lat="40.46424571" lon="-5.30557002"><ele>1711</ele><speed>10.65</speed><time>2016-06-29T11:12:44Z</time><pdop>5.0</pdop><geoidheight>54.00</geoidheight><course>148.3</course><type>1</type></trkpt>
      <trkpt lat="40.46416291" lon="-5.30549546"><ele>1711</ele><speed>10.60</speed><time>2016-06-29T11:12:45Z</time><pdop>5.0</pdop><geoidheight>54.00</geoidheight><course>143.0</course><type>1</type></trkpt>
      <trkpt lat="40.4641183" lon="-5.30539279"><ele>1711</ele><speed>9.97</speed><time>2016-06-29T11:12:46Z</time><pdop>5.0</pdop><geoidheight>54.00</geoidheight><course>126.5</course><type>1</type></trkpt>
      <trkpt lat="40.4640658" lon="-5.3050487"><ele>1709</ele><speed>13.74</speed><time>2016-06-29T11:12:48Z</time><pdop>10.0</pdop><geoidheight>54.00</geoidheight><course>100.1</course><type>1</type></trkpt>
      <trkpt lat="40.46407941" lon="-5.30469027"><ele>1709</ele><speed>15.16</speed><time>2016-06-29T11:12:50Z</time><pdop>9.0</pdop><geoidheight>54.00</geoidheight><course>85.1</course><type>1</type></trkpt>
      <trkpt lat="40.46414041" lon="-5.30434685"><ele>1712</ele><speed>13.38</speed><time>2016-06-29T11:12:52Z</time><pdop>9.0</pdop><geoidheight>54.00</geoidheight><course>74.4</course><type>1</type></trkpt>
      <trkpt lat="40.46426198" lon="-5.30415495"><ele>1714</ele><speed>9.45</speed><time>2016-06-29T11:12:54Z</time><pdop>9.0</pdop><geoidheight>54.00</geoidheight><course>47.1</course><type>1</type></trkpt>
      <trkpt lat="40.46448571" lon="-5.30409324"><ele>1712</ele><speed>8.11</speed><time>2016-06-29T11:12:57Z</time><pdop>9.0</pdop><geoidheight>54.00</geoidheight><course>355.6</course><type>1</type></trkpt>
      <trkpt lat="40.46464052" lon="-5.30421749"><ele>1709</ele><speed>5.33</speed><time>2016-06-29T11:13:00Z</time><pdop>10.0</pdop><geoidheight>54.00</geoidheight><course>319.0</course><type>1</type></trkpt>
      <trkpt lat="40.46447516" lon="-5.30441084"><ele>1705</ele><speed>7.96</speed><time>2016-06-29T11:13:03Z</time><pdop>9.0</pdop><geoidheight>54.00</geoidheight><course>210.3</course><type>1</type></trkpt>
      <trkpt lat="40.46423695" lon="-5.30440601"><ele>1705</ele><speed>9.97</speed><time>2016-06-29T11:13:06Z</time><pdop>9.0</pdop><geoidheight>54.00</geoidheight><course>175.6</course><type>1</type></trkpt>
      <trkpt lat="40.463982" lon="-5.30421899"><ele>1704</ele><speed>14.96</speed><time>2016-06-29T11:13:08Z</time><pdop>9.0</pdop><geoidheight>54.00</geoidheight><course>148.7</course><type>1</type></trkpt>
      <trkpt lat="40.46379441" lon="-5.30395247"><ele>1706</ele><speed>15.48</speed><time>2016-06-29T11:13:10Z</time><pdop>9.0</pdop><geoidheight>54.00</geoidheight><course>128.0</course><type>1</type></trkpt>
      <trkpt lat="40.46366232" lon="-5.30361793"><ele>1708</ele><speed>15.71</speed><time>2016-06-29T11:13:12Z</time><pdop>9.0</pdop><geoidheight>54.00</geoidheight><course>115.7</course><type>1</type></trkpt>
      <trkpt lat="40.46353646" lon="-5.30326885"><ele>1745</ele><speed>15.94</speed><time>2016-06-29T11:13:14Z</time><pdop>9.0</pdop><geoidheight>54.00</geoidheight><course>117.0</course><type>1</type></trkpt>
      <trkpt lat="40.46336395" lon="-5.30308938"><ele>1732</ele><speed>11.63</speed><time>2016-06-29T11:13:16Z</time><pdop>9.0</pdop><geoidheight>54.00</geoidheight><course>149.4</course><type>1</type></trkpt>
      <trkpt lat="40.46318589" lon="-5.30309347"><ele>1727</ele><speed>9.35</speed><time>2016-06-29T11:13:18Z</time><pdop>9.0</pdop><geoidheight>54.00</geoidheight><course>193.8</course><type>1</type></trkpt>
      <trkpt lat="40.46319675" lon="-5.30325796"><ele>1725</ele><speed>6.18</speed><time>2016-06-29T11:13:21Z</time><pdop>3.0</pdop><geoidheight>54.00</geoidheight><course>327.1</course><type>1</type></trkpt>
      <trkpt lat="40.4632787" lon="-5.3032405"><ele>1725</ele><speed>9.04</speed><time>2016-06-29T11:13:22Z</time><pdop>3.0</pdop><geoidheight>54.00</geoidheight><course>6.1</course><type>1</type></trkpt>
      <trkpt lat="40.46336449" lon="-5.30320685"><ele>1725</ele><speed>9.58</speed><time>2016-06-29T11:13:23Z</time><pdop>3.0</pdop><geoidheight>54.00</geoidheight><course>14.6</course><type>1</type></trkpt>
      <trkpt lat="40.46345677" lon="-5.30303787"><ele>1725</ele><speed>13.96</speed><time>2016-06-29T11:13:24Z</time><pdop>3.0</pdop><geoidheight>54.00</geoidheight><course>45.8</course><type>1</type></trkpt>
      <trkpt lat="40.46348421" lon="-5.30286877"><ele>1728</ele><speed>14.54</speed><time>2016-06-29T11:13:25Z</time><pdop>3.0</pdop><geoidheight>54.00</geoidheight><course>67.7</course><type>1</type></trkpt>
      <trkpt lat="40.46350583" lon="-5.30270029"><ele>1729</ele><speed>14.73</speed><time>2016-06-29T11:13:26Z</time><pdop>3.0</pdop><geoidheight>54.00</geoidheight><course>78.7</course><type>1</type></trkpt>
      <trkpt lat="40.46350345" lon="-5.30252407"><ele>1731</ele><speed>14.86</speed><time>2016-06-29T11:13:27Z</time><pdop>3.0</pdop><geoidheight>54.00</geoidheight><course>90.1</course><type>1</type></trkpt>
      <trkpt lat="40.46346461" lon="-5.30234755"><ele>1731</ele><speed>15.05</speed><time>2016-06-29T11:13:28Z</time><pdop>3.0</pdop><geoidheight>54.00</geoidheight><course>103.4</course><type>1</type></trkpt>
      <trkpt lat="40.46338622" lon="-5.30220228"><ele>1734</ele><speed>14.39</speed><time>2016-06-29T11:13:29Z</time><pdop>3.0</pdop><geoidheight>54.00</geoidheight><course>125.6</course><type>1</type></trkpt>
      <trkpt lat="40.46331082" lon="-5.30206435"><ele>1734</ele><speed>14.38</speed><time>2016-06-29T11:13:30Z</time><pdop>3.0</pdop><geoidheight>54.00</geoidheight><course>125.6</course><type>1</type></trkpt>
      <trkpt lat="40.46320354" lon="-5.30197961"><ele>1734</ele><speed>13.60</speed><time>2016-06-29T11:13:31Z</time><pdop>3.0</pdop><geoidheight>54.00</geoidheight><course>141.4</course><type>1</type></trkpt>
      <trkpt lat="40.46310001" lon="-5.301962"><ele>1737</ele><speed>11.82</speed><time>2016-06-29T11:13:32Z</time><pdop>3.0</pdop><geoidheight>54.00</geoidheight><course>163.9</course><type>1</type></trkpt>
      <trkpt lat="40.46300591" lon="-5.30195229"><ele>1739</ele><speed>10.77</speed><time>2016-06-29T11:13:33Z</time><pdop>3.0</pdop><geoidheight>54.00</geoidheight><course>175.1</course><type>1</type></trkpt>
      <trkpt lat="40.46293045" lon="-5.30196897"><ele>1740</ele><speed>9.07</speed><time>2016-06-29T11:13:34Z</time><pdop>3.0</pdop><geoidheight>54.00</geoidheight><course>186.0</course><type>1</type></trkpt>
      <trkpt lat="40.46286896" lon="-5.30200417"><ele>1741</ele><speed>7.86</speed><time>2016-06-29T11:13:35Z</time><pdop>3.0</pdop><geoidheight>54.00</geoidheight><course>199.4</course><type>1</type></trkpt>
      <trkpt lat="40.46282913" lon="-5.30205654"><ele>1742</ele><speed>6.62</speed><time>2016-06-29T11:13:36Z</time><pdop>3.0</pdop><geoidheight>54.00</geoidheight><course>223.4</course><type>1</type></trkpt>
      <trkpt lat="40.46281449" lon="-5.30212921"><ele>1743</ele><speed>6.22</speed><time>2016-06-29T11:13:37Z</time><pdop>3.0</pdop><geoidheight>54.00</geoidheight><course>253.9</course><type>1</type></trkpt>
      <trkpt lat="40.46281892" lon="-5.30220373"><ele>1743</ele><speed>6.51</speed><time>2016-06-29T11:13:38Z</time><pdop>3.0</pdop><geoidheight>54.00</geoidheight><course>272.7</course><type>1</type></trkpt>
      <trkpt lat="40.46291355" lon="-5.30220834"><ele>1745</ele><speed>4.98</speed><time>2016-06-29T11:13:40Z</time><pdop>5.0</pdop><geoidheight>54.00</geoidheight><course>351.2</course><type>1</type></trkpt>
      <trkpt lat="40.46303076" lon="-5.30207878"><ele>1746</ele><speed>7.62</speed><time>2016-06-29T11:13:42Z</time><pdop>5.0</pdop><geoidheight>54.00</geoidheight><course>36.1</course><type>1</type></trkpt>
      <trkpt lat="40.463135" lon="-5.30188049"><ele>1747</ele><speed>13.95</speed><time>2016-06-29T11:13:43Z</time><pdop>4.0</pdop><geoidheight>54.00</geoidheight><course>54.7</course><type>1</type></trkpt>
      <trkpt lat="40.46319223" lon="-5.30172168"><ele>1750</ele><speed>15.23</speed><time>2016-06-29T11:13:44Z</time><pdop>4.0</pdop><geoidheight>54.00</geoidheight><course>65.5</course><type>1</type></trkpt>
      <trkpt lat="40.46323664" lon="-5.30155909"><ele>1753</ele><speed>15.24</speed><time>2016-06-29T11:13:45Z</time><pdop>3.0</pdop><geoidheight>54.00</geoidheight><course>78.4</course><type>1</type></trkpt>
      <trkpt lat="40.46323373" lon="-5.30138946"><ele>1755</ele><speed>14.38</speed><time>2016-06-29T11:13:46Z</time><pdop>3.0</pdop><geoidheight>54.00</geoidheight><course>91.9</course><type>1</type></trkpt>
      <trkpt lat="40.46319837" lon="-5.3012362"><ele>1755</ele><speed>13.68</speed><time>2016-06-29T11:13:47Z</time><pdop>3.0</pdop><geoidheight>54.00</geoidheight><course>106.7</course><type>1</type></trkpt>
      <trkpt lat="40.46313984" lon="-5.30110456"><ele>1757</ele><speed>13.42</speed><time>2016-06-29T11:13:48Z</time><pdop>3.0</pdop><geoidheight>54.00</geoidheight><course>120.7</course><type>1</type></trkpt>
      <trkpt lat="40.46305654" lon="-5.30099589"><ele>1756</ele><speed>13.32</speed><time>2016-06-29T11:13:49Z</time><pdop>3.0</pdop><geoidheight>54.00</geoidheight><course>135.3</course><type>1</type></trkpt>
      <trkpt lat="40.46296032" lon="-5.300916"><ele>1754</ele><speed>12.71</speed><time>2016-06-29T11:13:50Z</time><pdop>3.0</pdop><geoidheight>54.00</geoidheight><course>150.7</course><type>1</type></trkpt>
      <trkpt lat="40.46286383" lon="-5.30087264"><ele>1754</ele><speed>12.00</speed><time>2016-06-29T11:13:51Z</time><pdop>3.0</pdop><geoidheight>54.00</geoidheight><course>161.7</course><type>1</type></trkpt>
      <trkpt lat="40.46276559" lon="-5.30085512"><ele>1756</ele><speed>11.15</speed><time>2016-06-29T11:13:52Z</time><pdop>3.0</pdop><geoidheight>54.00</geoidheight><course>168.7</course><type>1</type></trkpt>
      <trkpt lat="40.46266819" lon="-5.30084401"><ele>1757</ele><speed>10.99</speed><time>2016-06-29T11:13:53Z</time><pdop>3.0</pdop><geoidheight>54.00</geoidheight><course>172.9</course><type>1</type></trkpt>
      <trkpt lat="40.46257694" lon="-5.30082771"><ele>1758</ele><speed>10.62</speed><time>2016-06-29T11:13:54Z</time><pdop>3.0</pdop><geoidheight>54.00</geoidheight><course>173.9</course><type>1</type></trkpt>
      <trkpt lat="40.46248677" lon="-5.3008109"><ele>1759</ele><speed>10.43</speed><time>2016-06-29T11:13:55Z</time><pdop>3.0</pdop><geoidheight>54.00</geoidheight><course>172.6</course><type>1</type></trkpt>
      <trkpt lat="40.46239762" lon="-5.30079823"><ele>1760</ele><speed>10.25</speed><time>2016-06-29T11:13:56Z</time><pdop>3.0</pdop><geoidheight>54.00</geoidheight><course>171.4</course><type>1</type></trkpt>
      <trkpt lat="40.46228812" lon="-5.30074258"><ele>1762</ele><speed>11.74</speed><time>2016-06-29T11:13:57Z</time><pdop>3.0</pdop><geoidheight>54.00</geoidheight><course>162.7</course><type>1</type></trkpt>
      <trkpt lat="40.46218813" lon="-5.30068335"><ele>1764</ele><speed>12.09</speed><time>2016-06-29T11:13:58Z</time><pdop>3.0</pdop><geoidheight>54.00</geoidheight><course>157.7</course><type>1</type></trkpt>
      <trkpt lat="40.46209249" lon="-5.30061955"><ele>1766</ele><speed>12.35</speed><time>2016-06-29T11:13:59Z</time><pdop>3.0</pdop><geoidheight>54.00</geoidheight><course>155.1</course><type>1</type></trkpt>
      <trkpt lat="40.46200065" lon="-5.30057515"><ele>1768</ele><speed>11.12</speed><time>2016-06-29T11:14:00Z</time><pdop>3.0</pdop><geoidheight>54.00</geoidheight><course>158.4</course><type>1</type></trkpt>
      <trkpt lat="40.46191682" lon="-5.30056125"><ele>1770</ele><speed>8.97</speed><time>2016-06-29T11:14:01Z</time><pdop>3.0</pdop><geoidheight>54.00</geoidheight><course>171.8</course><type>1</type></trkpt>
      <trkpt lat="40.46185367" lon="-5.30058648"><ele>1770</ele><speed>7.58</speed><time>2016-06-29T11:14:02Z</time><pdop>3.0</pdop><geoidheight>54.00</geoidheight><course>192.3</course><type>1</type></trkpt>
      <trkpt lat="40.46180334" lon="-5.30063893"><ele>1770</ele><speed>6.74</speed><time>2016-06-29T11:14:03Z</time><pdop>3.0</pdop><geoidheight>54.00</geoidheight><course>214.5</course><type>1</type></trkpt>
      <trkpt lat="40.46179535" lon="-5.30074888"><ele>1770</ele><speed>5.08</speed><time>2016-06-29T11:14:05Z</time><pdop>3.0</pdop><geoidheight>54.00</geoidheight><course>284.5</course><type>1</type></trkpt>
      <trkpt lat="40.46185106" lon="-5.30079576"><ele>1768</ele><speed>7.12</speed><time>2016-06-29T11:14:06Z</time><pdop>3.0</pdop><geoidheight>54.00</geoidheight><course>324.0</course><type>1</type></trkpt>
      <trkpt lat="40.46193701" lon="-5.30083296"><ele>1768</ele><speed>9.75</speed><time>2016-06-29T11:14:07Z</time><pdop>3.0</pdop><geoidheight>54.00</geoidheight><course>341.5</course><type>1</type></trkpt>
      <trkpt lat="40.46204043" lon="-5.30084078"><ele>1769</ele><speed>11.13</speed><time>2016-06-29T11:14:08Z</time><pdop>3.0</pdop><geoidheight>54.00</geoidheight><course>353.5</course><type>1</type></trkpt>
      <trkpt lat="40.46214073" lon="-5.30081589"><ele>1772</ele><speed>11.45</speed><time>2016-06-29T11:14:09Z</time><pdop>3.0</pdop><geoidheight>54.00</geoidheight><course>8.8</course><type>1</type></trkpt>
      <trkpt lat="40.46223154" lon="-5.30074623"><ele>1774</ele><speed>11.55</speed><time>2016-06-29T11:14:10Z</time><pdop>3.0</pdop><geoidheight>54.00</geoidheight><course>27.8</course><type>1</type></trkpt>
      <trkpt lat="40.46230351" lon="-5.30064104"><ele>1776</ele><speed>11.79</speed><time>2016-06-29T11:14:11Z</time><pdop>3.0</pdop><geoidheight>54.00</geoidheight><course>45.3</course><type>1</type></trkpt>
      <trkpt lat="40.46236729" lon="-5.30052498"><ele>1778</ele><speed>12.30</speed><time>2016-06-29T11:14:12Z</time><pdop>3.0</pdop><geoidheight>54.00</geoidheight><course>52.9</course><type>1</type></trkpt>
      <trkpt lat="40.46240466" lon="-5.30037587"><ele>1778</ele><speed>13.15</speed><time>2016-06-29T11:14:13Z</time><pdop>3.0</pdop><geoidheight>54.00</geoidheight><course>68.1</course><type>1</type></trkpt>
      <trkpt lat="40.46242947" lon="-5.30021693"><ele>1779</ele><speed>13.45</speed><time>2016-06-29T11:14:14Z</time><pdop>3.0</pdop><geoidheight>54.00</geoidheight><course>77.1</course><type>1</type></trkpt>
      <trkpt lat="40.46243373" lon="-5.30004998"><ele>1781</ele><speed>13.95</speed><time>2016-06-29T11:14:15Z</time><pdop>3.0</pdop><geoidheight>54.00</geoidheight><course>87.1</course><type>1</type></trkpt>
      <trkpt lat="40.46241827" lon="-5.29988548"><ele>1782</ele><speed>14.16</speed><time>2016-06-29T11:14:16Z</time><pdop>3.0</pdop><geoidheight>54.00</geoidheight><course>95.0</course><type>1</type></trkpt>
      <trkpt lat="40.46240347" lon="-5.29972073"><ele>1783</ele><speed>13.75</speed><time>2016-06-29T11:14:17Z</time><pdop>3.0</pdop><geoidheight>54.00</geoidheight><course>98.3</course><type>1</type></trkpt>
      <trkpt lat="40.46233715" lon="-5.29960612"><ele>1786</ele><speed>12.34</speed><time>2016-06-29T11:14:18Z</time><pdop>3.0</pdop><geoidheight>54.00</geoidheight><course>116.5</course><type>1</type></trkpt>
      <trkpt lat="40.46226459" lon="-5.29950769"><ele>1787</ele><speed>11.67</speed><time>2016-06-29T11:14:19Z</time><pdop>3.0</pdop><geoidheight>54.00</geoidheight><course>132.2</course><type>1</type></trkpt>
      <trkpt lat="40.46217695" lon="-5.29944118"><ele>1788</ele><speed>11.33</speed><time>2016-06-29T11:14:20Z</time><pdop>3.0</pdop><geoidheight>54.00</geoidheight><course>149.6</course><type>1</type></trkpt>
      <trkpt lat="40.46208617" lon="-5.29942474"><ele>1789</ele><speed>10.06</speed><time>2016-06-29T11:14:21Z</time><pdop>3.0</pdop><geoidheight>54.00</geoidheight><course>168.6</course><type>1</type></trkpt>
      <trkpt lat="40.46201283" lon="-5.29944622"><ele>1789</ele><speed>8.52</speed><time>2016-06-29T11:14:22Z</time><pdop>3.0</pdop><geoidheight>54.00</geoidheight><course>189.1</course><type>1</type></trkpt>
      <trkpt lat="40.46195907" lon="-5.29949715"><ele>1790</ele><speed>7.19</speed><time>2016-06-29T11:14:23Z</time><pdop>3.0</pdop><geoidheight>54.00</geoidheight><course>212.2</course><type>1</type></trkpt>
      <trkpt lat="40.46192605" lon="-5.29962114"><ele>1793</ele><speed>5.57</speed><time>2016-06-29T11:14:25Z</time><pdop>3.0</pdop><geoidheight>54.00</geoidheight><course>259.6</course><type>1</type></trkpt>
      <trkpt lat="40.46200531" lon="-5.29973842"><ele>1793</ele><speed>7.30</speed><time>2016-06-29T11:14:27Z</time><pdop>3.0</pdop><geoidheight>54.00</geoidheight><course>322.5</course><type>1</type></trkpt>
      <trkpt lat="40.46209379" lon="-5.29973992"><ele>1793</ele><speed>9.01</speed><time>2016-06-29T11:14:28Z</time><pdop>3.0</pdop><geoidheight>54.00</geoidheight><course>352.9</course><type>1</type></trkpt>
      <trkpt lat="40.46219224" lon="-5.29969096"><ele>1793</ele><speed>11.13</speed><time>2016-06-29T11:14:29Z</time><pdop>3.0</pdop><geoidheight>54.00</geoidheight><course>17.5</course><type>1</type></trkpt>
      <trkpt lat="40.4622797" lon="-5.29958257"><ele>1794</ele><speed>12.83</speed><time>2016-06-29T11:14:30Z</time><pdop>3.0</pdop><geoidheight>54.00</geoidheight><course>38.8</course><type>1</type></trkpt>
      <trkpt lat="40.46235123" lon="-5.29944019"><ele>1796</ele><speed>13.96</speed><time>2016-06-29T11:14:31Z</time><pdop>3.0</pdop><geoidheight>54.00</geoidheight><course>55.8</course><type>1</type></trkpt>
      <trkpt lat="40.46239013" lon="-5.29927804"><ele>1797</ele><speed>14.48</speed><time>2016-06-29T11:14:32Z</time><pdop>3.0</pdop><geoidheight>54.00</geoidheight><course>70.2</course><type>1</type></trkpt>
      <trkpt lat="40.46239888" lon="-5.29910591"><ele>1798</ele><speed>14.53</speed><time>2016-06-29T11:14:33Z</time><pdop>3.0</pdop><geoidheight>54.00</geoidheight><course>85.0</course><type>1</type></trkpt>
      <trkpt lat="40.4623765" lon="-5.29894132"><ele>1799</ele><speed>14.59</speed><time>2016-06-29T11:14:34Z</time><pdop>3.0</pdop><geoidheight>54.00</geoidheight><course>100.4</course><type>1</type></trkpt>
      <trkpt lat="40.46231652" lon="-5.29878927"><ele>1799</ele><speed>14.52</speed><time>2016-06-29T11:14:35Z</time><pdop>3.0</pdop><geoidheight>54.00</geoidheight><course>114.7</course><type>1</type></trkpt>
      <trkpt lat="40.46223285" lon="-5.2986708"><ele>1800</ele><speed>13.52</speed><time>2016-06-29T11:14:36Z</time><pdop>3.0</pdop><geoidheight>54.00</geoidheight><course>131.4</course><type>1</type></trkpt>
      <trkpt lat="40.4621408" lon="-5.29860165"><ele>1802</ele><speed>12.13</speed><time>2016-06-29T11:14:37Z</time><pdop>3.0</pdop><geoidheight>54.00</geoidheight><course>146.8</course><type>1</type></trkpt>
      <trkpt lat="40.46205441" lon="-5.29856094"><ele>1803</ele><speed>10.45</speed><time>2016-06-29T11:14:38Z</time><pdop>3.0</pdop><geoidheight>54.00</geoidheight><course>161.1</course><type>1</type></trkpt>
      <trkpt lat="40.46197188" lon="-5.29855618"><ele>1805</ele><speed>9.01</speed><time>2016-06-29T11:14:39Z</time><pdop>3.0</pdop><geoidheight>54.00</geoidheight><course>174.2</course><type>1</type></trkpt>
      <trkpt lat="40.46190464" lon="-5.29856729"><ele>1807</ele><speed>7.76</speed><time>2016-06-29T11:14:40Z</time><pdop>3.0</pdop><geoidheight>54.00</geoidheight><course>188.0</course><type>1</type></trkpt>
      <trkpt lat="40.46185049" lon="-5.29860303"><ele>1808</ele><speed>6.73</speed><time>2016-06-29T11:14:41Z</time><pdop>3.0</pdop><geoidheight>54.00</geoidheight><course>205.4</course><type>1</type></trkpt>
      <trkpt lat="40.461822" lon="-5.29872277"><ele>1809</ele><speed>5.17</speed><time>2016-06-29T11:14:43Z</time><pdop>3.0</pdop><geoidheight>54.00</geoidheight><course>268.6</course><type>1</type></trkpt>
      <trkpt lat="40.46185658" lon="-5.29879193"><ele>1809</ele><speed>6.65</speed><time>2016-06-29T11:14:44Z</time><pdop>3.0</pdop><geoidheight>54.00</geoidheight><course>303.0</course><type>1</type></trkpt>
      <trkpt lat="40.46192245" lon="-5.29885362"><ele>1808</ele><speed>8.84</speed><time>2016-06-29T11:14:45Z</time><pdop>3.0</pdop><geoidheight>54.00</geoidheight><course>325.4</course><type>1</type></trkpt>
      <trkpt lat="40.46201559" lon="-5.298882"><ele>1810</ele><speed>10.44</speed><time>2016-06-29T11:14:46Z</time><pdop>3.0</pdop><geoidheight>54.00</geoidheight><course>345.0</course><type>1</type></trkpt>
      <trkpt lat="40.46212351" lon="-5.2988682"><ele>1811</ele><speed>11.44</speed><time>2016-06-29T11:14:47Z</time><pdop>3.0</pdop><geoidheight>54.00</geoidheight><course>2.9</course><type>1</type></trkpt>
      <trkpt lat="40.46222098" lon="-5.29881127"><ele>1814</ele><speed>11.81</speed><time>2016-06-29T11:14:48Z</time><pdop>3.0</pdop><geoidheight>54.00</geoidheight><course>22.3</course><type>1</type></trkpt>
      <trkpt lat="40.46230324" lon="-5.29872092"><ele>1815</ele><speed>12.06</speed><time>2016-06-29T11:14:49Z</time><pdop>3.0</pdop><geoidheight>54.00</geoidheight><course>38.7</course><type>1</type></trkpt>
      <trkpt lat="40.46237202" lon="-5.29860942"><ele>1816</ele><speed>12.48</speed><time>2016-06-29T11:14:50Z</time><pdop>3.0</pdop><geoidheight>54.00</geoidheight><course>51.7</course><type>1</type></trkpt>
      <trkpt lat="40.46243214" lon="-5.29846897"><ele>1816</ele><speed>13.42</speed><time>2016-06-29T11:14:51Z</time><pdop>3.0</pdop><geoidheight>54.00</geoidheight><course>60.5</course><type>1</type></trkpt>
      <trkpt lat="40.46247319" lon="-5.29831121"><ele>1816</ele><speed>14.30</speed><time>2016-06-29T11:14:52Z</time><pdop>3.0</pdop><geoidheight>54.00</geoidheight><course>69.1</course><type>1</type></trkpt>
      <trkpt lat="40.46247646" lon="-5.29812994"><ele>1815</ele><speed>14.92</speed><time>2016-06-29T11:14:53Z</time><pdop>3.0</pdop><geoidheight>54.00</geoidheight><course>88.0</course><type>1</type></trkpt>
      <trkpt lat="40.46248125" lon="-5.29795416"><ele>1815</ele><speed>14.92</speed><time>2016-06-29T11:14:54Z</time><pdop>3.0</pdop><geoidheight>54.00</geoidheight><course>88.0</course><type>1</type></trkpt>
      <trkpt lat="40.46240122" lon="-5.29781278"><ele>1814</ele><speed>14.50</speed><time>2016-06-29T11:14:55Z</time><pdop>3.0</pdop><geoidheight>54.00</geoidheight><course>112.2</course><type>1</type></trkpt>
      <trkpt lat="40.46232714" lon="-5.29767448"><ele>1814</ele><speed>14.70</speed><time>2016-06-29T11:14:56Z</time><pdop>3.0</pdop><geoidheight>54.00</geoidheight><course>127.2</course><type>1</type></trkpt>
      <trkpt lat="40.4622392" lon="-5.29756031"><ele>1816</ele><speed>14.48</speed><time>2016-06-29T11:14:57Z</time><pdop>3.0</pdop><geoidheight>54.00</geoidheight><course>138.9</course><type>1</type></trkpt>
      <trkpt lat="40.46214114" lon="-5.29744823"><ele>1816</ele><speed>14.46</speed><time>2016-06-29T11:14:58Z</time><pdop>4.0</pdop><geoidheight>54.00</geoidheight><course>138.9</course><type>1</type></trkpt>
      <trkpt lat="40.46203663" lon="-5.29738077"><ele>1818</ele><speed>12.75</speed><time>2016-06-29T11:14:59Z</time><pdop>3.0</pdop><geoidheight>54.00</geoidheight><course>146.3</course><type>1</type></trkpt>
      <trkpt lat="40.46193995" lon="-5.29730412"><ele>1820</ele><speed>12.44</speed><time>2016-06-29T11:15:00Z</time><pdop>3.0</pdop><geoidheight>54.00</geoidheight><course>146.7</course><type>1</type></trkpt>
      <trkpt lat="40.46184694" lon="-5.29722415"><ele>1820</ele><speed>12.38</speed><time>2016-06-29T11:15:01Z</time><pdop>4.0</pdop><geoidheight>54.00</geoidheight><course>146.7</course><type>1</type></trkpt>
      <trkpt lat="40.4617679" lon="-5.29716687"><ele>1820</ele><speed>10.89</speed><time>2016-06-29T11:15:02Z</time><pdop>3.0</pdop><geoidheight>54.00</geoidheight><course>154.3</course><type>1</type></trkpt>
      <trkpt lat="40.46167954" lon="-5.29711127"><ele>1820</ele><speed>10.88</speed><time>2016-06-29T11:15:03Z</time><pdop>4.0</pdop><geoidheight>54.00</geoidheight><course>154.3</course><type>1</type></trkpt>
      <trkpt lat="40.46159698" lon="-5.29713072"><ele>1821</ele><speed>8.05</speed><time>2016-06-29T11:15:04Z</time><pdop>4.0</pdop><geoidheight>54.00</geoidheight><course>186.2</course><type>1</type></trkpt>
      <trkpt lat="40.46151399" lon="-5.29719081"><ele>1821</ele><speed>4.78</speed><time>2016-06-29T11:15:06Z</time><pdop>4.0</pdop><geoidheight>54.00</geoidheight><course>224.9</course><type>1</type></trkpt>
      <trkpt lat="40.46149265" lon="-5.29729701"><ele>1820</ele><speed>5.05</speed><time>2016-06-29T11:15:08Z</time><pdop>4.0</pdop><geoidheight>54.00</geoidheight><course>262.1</course><type>1</type></trkpt>
      <trkpt lat="40.46152813" lon="-5.2974365"><ele>1818</ele><speed>6.42</speed><time>2016-06-29T11:15:10Z</time><pdop>5.0</pdop><geoidheight>54.00</geoidheight><course>287.0</course><type>1</type></trkpt>
      <trkpt lat="40.46163362" lon="-5.29743614"><ele>1818</ele><speed>9.23</speed><time>2016-06-29T11:15:11Z</time><pdop>4.0</pdop><geoidheight>54.00</geoidheight><course>343.6</course><type>1</type></trkpt>
      <trkpt lat="40.4617384" lon="-5.29745554"><ele>1817</ele><speed>10.99</speed><time>2016-06-29T11:15:12Z</time><pdop>4.0</pdop><geoidheight>54.00</geoidheight><course>354.7</course><type>1</type></trkpt>
      <trkpt lat="40.46183303" lon="-5.29743523"><ele>1818</ele><speed>10.98</speed><time>2016-06-29T11:15:13Z</time><pdop>4.0</pdop><geoidheight>54.00</geoidheight><course>10.9</course><type>1</type></trkpt>
      <trkpt lat="40.46192738" lon="-5.29737406"><ele>1819</ele><speed>10.99</speed><time>2016-06-29T11:15:14Z</time><pdop>5.0</pdop><geoidheight>54.00</geoidheight><course>23.0</course><type>1</type></trkpt>
      <trkpt lat="40.46201146" lon="-5.29731205"><ele>1821</ele><speed>10.75</speed><time>2016-06-29T11:15:15Z</time><pdop>5.0</pdop><geoidheight>54.00</geoidheight><course>31.6</course><type>1</type></trkpt>
      <trkpt lat="40.46217197" lon="-5.2971417"><ele>1821</ele><speed>11.49</speed><time>2016-06-29T11:15:17Z</time><pdop>5.0</pdop><geoidheight>54.00</geoidheight><course>42.2</course><type>1</type></trkpt>
      <trkpt lat="40.46221687" lon="-5.29703214"><ele>1820</ele><speed>12.02</speed><time>2016-06-29T11:15:18Z</time><pdop>5.0</pdop><geoidheight>54.00</geoidheight><course>56.6</course><type>1</type></trkpt>
      <trkpt lat="40.46225562" lon="-5.29689973"><ele>1820</ele><speed>12.82</speed><time>2016-06-29T11:15:19Z</time><pdop>4.0</pdop><geoidheight>54.00</geoidheight><course>73.5</course><type>1</type></trkpt>
      <trkpt lat="40.4622897" lon="-5.29675672"><ele>1819</ele><speed>13.05</speed><time>2016-06-29T11:15:20Z</time><pdop>5.0</pdop><geoidheight>54.00</geoidheight><course>75.3</course><type>1</type></trkpt>
      <trkpt lat="40.46224981" lon="-5.29658951"><ele>1823</ele><speed>15.13</speed><time>2016-06-29T11:15:21Z</time><pdop>4.0</pdop><geoidheight>54.00</geoidheight><course>108.8</course><type>1</type></trkpt>
      <trkpt lat="40.46217668" lon="-5.29643173"><ele>1822</ele><speed>15.47</speed><time>2016-06-29T11:15:22Z</time><pdop>4.0</pdop><geoidheight>54.00</geoidheight><course>121.5</course><type>1</type></trkpt>
      <trkpt lat="40.46211002" lon="-5.29628571"><ele>1822</ele><speed>14.88</speed><time>2016-06-29T11:15:23Z</time><pdop>4.0</pdop><geoidheight>54.00</geoidheight><course>124.6</course><type>1</type></trkpt>
      <trkpt lat="40.46203258" lon="-5.29615749"><ele>1823</ele><speed>14.10</speed><time>2016-06-29T11:15:24Z</time><pdop>4.0</pdop><geoidheight>54.00</geoidheight><course>130.6</course><type>1</type></trkpt>
      <trkpt lat="40.46194644" lon="-5.29606253"><ele>1824</ele><speed>12.78</speed><time>2016-06-29T11:15:25Z</time><pdop>3.0</pdop><geoidheight>54.00</geoidheight><course>137.5</course><type>1</type></trkpt>
      <trkpt lat="40.46185539" lon="-5.29599373"><ele>1825</ele><speed>12.22</speed><time>2016-06-29T11:15:26Z</time><pdop>4.0</pdop><geoidheight>54.00</geoidheight><course>144.2</course><type>1</type></trkpt>
      <trkpt lat="40.4617632" lon="-5.29593636"><ele>1825</ele><speed>11.62</speed><time>2016-06-29T11:15:27Z</time><pdop>3.0</pdop><geoidheight>54.00</geoidheight><course>150.8</course><type>1</type></trkpt>
      <trkpt lat="40.4616707" lon="-5.29588262"><ele>1826</ele><speed>11.26</speed><time>2016-06-29T11:15:28Z</time><pdop>3.0</pdop><geoidheight>54.00</geoidheight><course>155.3</course><type>1</type></trkpt>
      <trkpt lat="40.46158336" lon="-5.29583456"><ele>1826</ele><speed>10.18</speed><time>2016-06-29T11:15:29Z</time><pdop>3.0</pdop><geoidheight>54.00</geoidheight><course>157.4</course><type>1</type></trkpt>
      <trkpt lat="40.46150322" lon="-5.29581487"><ele>1825</ele><speed>10.02</speed><time>2016-06-29T11:15:30Z</time><pdop>3.0</pdop><geoidheight>54.00</geoidheight><course>159.0</course><type>1</type></trkpt>
      <trkpt lat="40.46142639" lon="-5.29578365"><ele>1824</ele><speed>9.17</speed><time>2016-06-29T11:15:31Z</time><pdop>3.0</pdop><geoidheight>54.00</geoidheight><course>161.3</course><type>1</type></trkpt>
      <trkpt lat="40.46133806" lon="-5.29576055"><ele>1823</ele><speed>8.89</speed><time>2016-06-29T11:15:32Z</time><pdop>3.0</pdop><geoidheight>54.00</geoidheight><course>170.1</course><type>1</type></trkpt>
      <trkpt lat="40.46125934" lon="-5.29574252"><ele>1823</ele><speed>8.88</speed><time>2016-06-29T11:15:33Z</time><pdop>4.0</pdop><geoidheight>54.00</geoidheight><course>170.1</course><type>1</type></trkpt>
      <trkpt lat="40.4611807" lon="-5.29575307"><ele>1822</ele><speed>8.75</speed><time>2016-06-29T11:15:34Z</time><pdop>4.0</pdop><geoidheight>54.00</geoidheight><course>178.5</course><type>1</type></trkpt>
      <trkpt lat="40.46109323" lon="-5.29579869"><ele>1821</ele><speed>9.28</speed><time>2016-06-29T11:15:35Z</time><pdop>3.0</pdop><geoidheight>54.00</geoidheight><course>196.1</course><type>1</type></trkpt>
      <trkpt lat="40.46101819" lon="-5.2958308"><ele>1821</ele><speed>9.57</speed><time>2016-06-29T11:15:36Z</time><pdop>3.0</pdop><geoidheight>54.00</geoidheight><course>198.6</course><type>1</type></trkpt>
      <trkpt lat="40.46093744" lon="-5.29585935"><ele>1820</ele><speed>8.93</speed><time>2016-06-29T11:15:37Z</time><pdop>3.0</pdop><geoidheight>54.00</geoidheight><course>196.7</course><type>1</type></trkpt>
      <trkpt lat="40.46085889" lon="-5.29587489"><ele>1821</ele><speed>8.84</speed><time>2016-06-29T11:15:38Z</time><pdop>3.0</pdop><geoidheight>54.00</geoidheight><course>191.2</course><type>1</type></trkpt>
      <trkpt lat="40.46077823" lon="-5.29590132"><ele>1820</ele><speed>8.93</speed><time>2016-06-29T11:15:39Z</time><pdop>3.0</pdop><geoidheight>54.00</geoidheight><course>195.1</course><type>1</type></trkpt>
      <trkpt lat="40.46070411" lon="-5.29595071"><ele>1819</ele><speed>9.45</speed><time>2016-06-29T11:15:40Z</time><pdop>3.0</pdop><geoidheight>54.00</geoidheight><course>203.4</course><type>1</type></trkpt>
      <trkpt lat="40.46063821" lon="-5.2960072"><ele>1819</ele><speed>9.22</speed><time>2016-06-29T11:15:41Z</time><pdop>3.0</pdop><geoidheight>54.00</geoidheight><course>212.3</course><type>1</type></trkpt>
      <trkpt lat="40.46058319" lon="-5.29606528"><ele>1819</ele><speed>8.72</speed><time>2016-06-29T11:15:42Z</time><pdop>3.0</pdop><geoidheight>54.00</geoidheight><course>220.0</course><type>1</type></trkpt>
      <trkpt lat="40.46053577" lon="-5.29612685"><ele>1819</ele><speed>7.87</speed><time>2016-06-29T11:15:43Z</time><pdop>3.0</pdop><geoidheight>54.00</geoidheight><course>227.1</course><type>1</type></trkpt>
      <trkpt lat="40.46049491" lon="-5.2962062"><ele>1819</ele><speed>7.51</speed><time>2016-06-29T11:15:44Z</time><pdop>3.0</pdop><geoidheight>54.00</geoidheight><course>234.9</course><type>1</type></trkpt>
      <trkpt lat="40.46046163" lon="-5.29628603"><ele>1819</ele><speed>7.70</speed><time>2016-06-29T11:15:45Z</time><pdop>3.0</pdop><geoidheight>54.00</geoidheight><course>241.7</course><type>1</type></trkpt>
      <trkpt lat="40.46043421" lon="-5.29636759"><ele>1819</ele><speed>7.87</speed><time>2016-06-29T11:15:46Z</time><pdop>3.0</pdop><geoidheight>54.00</geoidheight><course>245.6</course><type>1</type></trkpt>
      <trkpt lat="40.46040448" lon="-5.29645982"><ele>1819</ele><speed>7.87</speed><time>2016-06-29T11:15:47Z</time><pdop>3.0</pdop><geoidheight>54.00</geoidheight><course>248.3</course><type>1</type></trkpt>
      <trkpt lat="40.46038203" lon="-5.29654578"><ele>1819</ele><speed>7.66</speed><time>2016-06-29T11:15:48Z</time><pdop>3.0</pdop><geoidheight>54.00</geoidheight><course>249.8</course><type>1</type></trkpt>
      <trkpt lat="40.46035764" lon="-5.2966257"><ele>1819</ele><speed>7.50</speed><time>2016-06-29T11:15:49Z</time><pdop>3.0</pdop><geoidheight>54.00</geoidheight><course>250.5</course><type>1</type></trkpt>
      <trkpt lat="40.46034227" lon="-5.29670607"><ele>1820</ele><speed>7.26</speed><time>2016-06-29T11:15:50Z</time><pdop>3.0</pdop><geoidheight>54.00</geoidheight><course>256.6</course><type>1</type></trkpt>
      <trkpt lat="40.46036949" lon="-5.29684231"><ele>1818</ele><speed>6.20</speed><time>2016-06-29T11:15:52Z</time><pdop>3.0</pdop><geoidheight>54.00</geoidheight><course>282.5</course><type>1</type></trkpt>
      <trkpt lat="40.46039288" lon="-5.29691576"><ele>1817</ele><speed>6.83</speed><time>2016-06-29T11:15:53Z</time><pdop>3.0</pdop><geoidheight>54.00</geoidheight><course>291.5</course><type>1</type></trkpt>
      <trkpt lat="40.46042752" lon="-5.29699475"><ele>1817</ele><speed>7.28</speed><time>2016-06-29T11:15:54Z</time><pdop>3.0</pdop><geoidheight>54.00</geoidheight><course>299.1</course><type>1</type></trkpt>
      <trkpt lat="40.46046961" lon="-5.29706649"><ele>1816</ele><speed>7.71</speed><time>2016-06-29T11:15:55Z</time><pdop>3.0</pdop><geoidheight>54.00</geoidheight><course>306.6</course><type>1</type></trkpt>
      <trkpt lat="40.46051785" lon="-5.29714108"><ele>1817</ele><speed>8.34</speed><time>2016-06-29T11:15:56Z</time><pdop>3.0</pdop><geoidheight>54.00</geoidheight><course>310.2</course><type>1</type></trkpt>
      <trkpt lat="40.46057201" lon="-5.29720903"><ele>1817</ele><speed>8.53</speed><time>2016-06-29T11:15:57Z</time><pdop>3.0</pdop><geoidheight>54.00</geoidheight><course>314.3</course><type>1</type></trkpt>
      <trkpt lat="40.46063091" lon="-5.29726084"><ele>1818</ele><speed>7.93</speed><time>2016-06-29T11:15:58Z</time><pdop>3.0</pdop><geoidheight>54.00</geoidheight><course>324.1</course><type>1</type></trkpt>
      <trkpt lat="40.46070044" lon="-5.29728725"><ele>1818</ele><speed>7.56</speed><time>2016-06-29T11:15:59Z</time><pdop>3.0</pdop><geoidheight>54.00</geoidheight><course>340.1</course><type>1</type></trkpt>
      <trkpt lat="40.46076946" lon="-5.29729149"><ele>1818</ele><speed>7.76</speed><time>2016-06-29T11:16:00Z</time><pdop>3.0</pdop><geoidheight>54.00</geoidheight><course>354.9</course><type>1</type></trkpt>
      <trkpt lat="40.46084425" lon="-5.29728304"><ele>1819</ele><speed>8.06</speed><time>2016-06-29T11:16:01Z</time><pdop>3.0</pdop><geoidheight>54.00</geoidheight><course>3.3</course><type>1</type></trkpt>
      <trkpt lat="40.46091922" lon="-5.29727121"><ele>1819</ele><speed>8.60</speed><time>2016-06-29T11:16:02Z</time><pdop>3.0</pdop><geoidheight>54.00</geoidheight><course>7.9</course><type>1</type></trkpt>
      <trkpt lat="40.46100609" lon="-5.29724925"><ele>1818</ele><speed>9.45</speed><time>2016-06-29T11:16:03Z</time><pdop>3.0</pdop><geoidheight>54.00</geoidheight><course>10.1</course><type>1</type></trkpt>
      <trkpt lat="40.46110459" lon="-5.29721479"><ele>1817</ele><speed>10.73</speed><time>2016-06-29T11:16:04Z</time><pdop>3.0</pdop><geoidheight>54.00</geoidheight><course>13.8</course><type>1</type></trkpt>
      <trkpt lat="40.46120601" lon="-5.2971751"><ele>1818</ele><speed>11.58</speed><time>2016-06-29T11:16:05Z</time><pdop>3.0</pdop><geoidheight>54.00</geoidheight><course>15.8</course><type>1</type></trkpt>
      <trkpt lat="40.46130768" lon="-5.29712284"><ele>1819</ele><speed>12.01</speed><time>2016-06-29T11:16:06Z</time><pdop>3.0</pdop><geoidheight>54.00</geoidheight><course>18.3</course><type>1</type></trkpt>
      <trkpt lat="40.4614053" lon="-5.29706658"><ele>1820</ele><speed>12.04</speed><time>2016-06-29T11:16:07Z</time><pdop>3.0</pdop><geoidheight>54.00</geoidheight><course>21.6</course><type>1</type></trkpt>
      <trkpt lat="40.46149624" lon="-5.29701052"><ele>1821</ele><speed>11.82</speed><time>2016-06-29T11:16:08Z</time><pdop>3.0</pdop><geoidheight>54.00</geoidheight><course>25.8</course><type>1</type></trkpt>
      <trkpt lat="40.46159019" lon="-5.29694463"><ele>1822</ele><speed>11.51</speed><time>2016-06-29T11:16:09Z</time><pdop>3.0</pdop><geoidheight>54.00</geoidheight><course>25.3</course><type>1</type></trkpt>
      <trkpt lat="40.461676" lon="-5.29689637"><ele>1823</ele><speed>11.08</speed><time>2016-06-29T11:16:10Z</time><pdop>4.0</pdop><geoidheight>54.00</geoidheight><course>23.5</course><type>1</type></trkpt>
      <trkpt lat="40.46176631" lon="-5.2968768"><ele>1822</ele><speed>10.59</speed><time>2016-06-29T11:16:11Z</time><pdop>4.0</pdop><geoidheight>54.00</geoidheight><course>16.6</course><type>1</type></trkpt>
      <trkpt lat="40.46184933" lon="-5.29686883"><ele>1823</ele><speed>10.06</speed><time>2016-06-29T11:16:12Z</time><pdop>5.0</pdop><geoidheight>54.00</geoidheight><course>9.7</course><type>1</type></trkpt>
      <trkpt lat="40.46195867" lon="-5.29686388"><ele>1822</ele><speed>10.22</speed><time>2016-06-29T11:16:13Z</time><pdop>4.0</pdop><geoidheight>54.00</geoidheight><course>4.8</course><type>1</type></trkpt>
      <trkpt lat="40.46211606" lon="-5.29689368"><ele>1823</ele><speed>9.38</speed><time>2016-06-29T11:16:15Z</time><pdop>6.0</pdop><geoidheight>54.00</geoidheight><course>354.1</course><type>1</type></trkpt>
      <trkpt lat="40.46210353" lon="-5.2970877"><ele>1823</ele><speed>5.61</speed><time>2016-06-29T11:16:17Z</time><pdop>4.0</pdop><geoidheight>54.00</geoidheight><course>283.5</course><type>1</type></trkpt>
      <trkpt lat="40.46204354" lon="-5.29723493"><ele>1821</ele><speed>5.76</speed><time>2016-06-29T11:16:19Z</time><pdop>3.0</pdop><geoidheight>54.00</geoidheight><course>232.4</course><type>1</type></trkpt>
      <trkpt lat="40.46198552" lon="-5.29728557"><ele>1820</ele><speed>6.80</speed><time>2016-06-29T11:16:20Z</time><pdop>3.0</pdop><geoidheight>54.00</geoidheight><course>210.2</course><type>1</type></trkpt>
      <trkpt lat="40.46191896" lon="-5.29730648"><ele>1821</ele><speed>7.35</speed><time>2016-06-29T11:16:21Z</time><pdop>3.0</pdop><geoidheight>54.00</geoidheight><course>196.5</course><type>1</type></trkpt>
      <trkpt lat="40.46184091" lon="-5.29731104"><ele>1820</ele><speed>7.50</speed><time>2016-06-29T11:16:22Z</time><pdop>3.0</pdop><geoidheight>54.00</geoidheight><course>183.7</course><type>1</type></trkpt>
      <trkpt lat="40.46176779" lon="-5.29730202"><ele>1819</ele><speed>7.56</speed><time>2016-06-29T11:16:23Z</time><pdop>3.0</pdop><geoidheight>54.00</geoidheight><course>176.4</course><type>1</type></trkpt>
      <trkpt lat="40.46169441" lon="-5.29729538"><ele>1817</ele><speed>7.76</speed><time>2016-06-29T11:16:24Z</time><pdop>3.0</pdop><geoidheight>54.00</geoidheight><course>176.0</course><type>1</type></trkpt>
      <trkpt lat="40.46162665" lon="-5.29727917"><ele>1817</ele><speed>8.17</speed><time>2016-06-29T11:16:25Z</time><pdop>3.0</pdop><geoidheight>54.00</geoidheight><course>175.2</course><type>1</type></trkpt>
      <trkpt lat="40.46153622" lon="-5.29726218"><ele>1816</ele><speed>9.73</speed><time>2016-06-29T11:16:26Z</time><pdop>3.0</pdop><geoidheight>54.00</geoidheight><course>173.0</course><type>1</type></trkpt>
      <trkpt lat="40.46143119" lon="-5.2972501"><ele>1813</ele><speed>11.47</speed><time>2016-06-29T11:16:27Z</time><pdop>3.0</pdop><geoidheight>54.00</geoidheight><course>175.2</course><type>1</type></trkpt>
      <trkpt lat="40.46132698" lon="-5.29725283"><ele>1811</ele><speed>12.30</speed><time>2016-06-29T11:16:28Z</time><pdop>3.0</pdop><geoidheight>54.00</geoidheight><course>179.4</course><type>1</type></trkpt>
      <trkpt lat="40.46122269" lon="-5.29727888"><ele>1809</ele><speed>12.66</speed><time>2016-06-29T11:16:29Z</time><pdop>3.0</pdop><geoidheight>54.00</geoidheight><course>186.3</course><type>1</type></trkpt>
      <trkpt lat="40.46111215" lon="-5.29729016"><ele>1808</ele><speed>12.57</speed><time>2016-06-29T11:16:30Z</time><pdop>4.0</pdop><geoidheight>54.00</geoidheight><course>185.8</course><type>1</type></trkpt>
      <trkpt lat="40.4609967" lon="-5.29733077"><ele>1809</ele><speed>12.71</speed><time>2016-06-29T11:16:31Z</time><pdop>4.0</pdop><geoidheight>54.00</geoidheight><course>191.0</course><type>1</type></trkpt>
      <trkpt lat="40.46088768" lon="-5.29738785"><ele>1809</ele><speed>12.48</speed><time>2016-06-29T11:16:32Z</time><pdop>3.0</pdop><geoidheight>54.00</geoidheight><course>192.0</course><type>1</type></trkpt>
      <trkpt lat="40.46077189" lon="-5.29741324"><ele>1809</ele><speed>12.29</speed><time>2016-06-29T11:16:33Z</time><pdop>3.0</pdop><geoidheight>54.00</geoidheight><course>191.3</course><type>1</type></trkpt>
      <trkpt lat="40.46067054" lon="-5.29743275"><ele>1809</ele><speed>12.26</speed><time>2016-06-29T11:16:34Z</time><pdop>3.0</pdop><geoidheight>54.00</geoidheight><course>190.1</course><type>1</type></trkpt>
      <trkpt lat="40.46056003" lon="-5.29746156"><ele>1808</ele><speed>12.23</speed><time>2016-06-29T11:16:35Z</time><pdop>3.0</pdop><geoidheight>54.00</geoidheight><course>191.9</course><type>1</type></trkpt>
      <trkpt lat="40.46044623" lon="-5.2974919"><ele>1807</ele><speed>12.85</speed><time>2016-06-29T11:16:36Z</time><pdop>3.0</pdop><geoidheight>54.00</geoidheight><course>191.6</course><type>1</type></trkpt>
      <trkpt lat="40.46032514" lon="-5.29751224"><ele>1807</ele><speed>13.45</speed><time>2016-06-29T11:16:37Z</time><pdop>3.0</pdop><geoidheight>54.00</geoidheight><course>187.9</course><type>1</type></trkpt>
      <trkpt lat="40.46019886" lon="-5.29751551"><ele>1808</ele><speed>13.65</speed><time>2016-06-29T11:16:38Z</time><pdop>3.0</pdop><geoidheight>54.00</geoidheight><course>182.2</course><type>1</type></trkpt>
      <trkpt lat="40.46007552" lon="-5.29750217"><ele>1811</ele><speed>13.18</speed><time>2016-06-29T11:16:39Z</time><pdop>3.0</pdop><geoidheight>54.00</geoidheight><course>178.3</course><type>1</type></trkpt>
      <trkpt lat="40.45996398" lon="-5.29750206"><ele>1811</ele><speed>12.44</speed><time>2016-06-29T11:16:40Z</time><pdop>3.0</pdop><geoidheight>54.00</geoidheight><course>178.8</course><type>1</type></trkpt>
      <trkpt lat="40.45986194" lon="-5.29749298"><ele>1813</ele><speed>11.37</speed><time>2016-06-29T11:16:41Z</time><pdop>3.0</pdop><geoidheight>54.00</geoidheight><course>177.6</course><type>1</type></trkpt>
      <trkpt lat="40.45976793" lon="-5.29748406"><ele>1814</ele><speed>11.09</speed><time>2016-06-29T11:16:42Z</time><pdop>3.0</pdop><geoidheight>54.00</geoidheight><course>174.8</course><type>1</type></trkpt>
      <trkpt lat="40.4596874" lon="-5.29745561"><ele>1815</ele><speed>10.59</speed><time>2016-06-29T11:16:43Z</time><pdop>3.0</pdop><geoidheight>54.00</geoidheight><course>170.2</course><type>1</type></trkpt>
      <trkpt lat="40.45960049" lon="-5.29742619"><ele>1817</ele><speed>9.13</speed><time>2016-06-29T11:16:44Z</time><pdop>3.0</pdop><geoidheight>54.00</geoidheight><course>163.6</course><type>1</type></trkpt>
      <trkpt lat="40.45952699" lon="-5.29740177"><ele>1819</ele><speed>8.82</speed><time>2016-06-29T11:16:45Z</time><pdop>3.0</pdop><geoidheight>54.00</geoidheight><course>166.1</course><type>1</type></trkpt>
      <trkpt lat="40.45945435" lon="-5.29739132"><ele>1820</ele><speed>8.48</speed><time>2016-06-29T11:16:46Z</time><pdop>3.0</pdop><geoidheight>54.00</geoidheight><course>169.6</course><type>1</type></trkpt>
      <trkpt lat="40.45937982" lon="-5.29737351"><ele>1820</ele><speed>8.43</speed><time>2016-06-29T11:16:47Z</time><pdop>4.0</pdop><geoidheight>54.00</geoidheight><course>169.6</course><type>1</type></trkpt>
      <trkpt lat="40.45931177" lon="-5.29740543"><ele>1820</ele><speed>8.58</speed><time>2016-06-29T11:16:48Z</time><pdop>4.0</pdop><geoidheight>54.00</geoidheight><course>184.0</course><type>1</type></trkpt>
      <trkpt lat="40.45923211" lon="-5.29742274"><ele>1821</ele><speed>9.25</speed><time>2016-06-29T11:16:49Z</time><pdop>4.0</pdop><geoidheight>54.00</geoidheight><course>191.6</course><type>1</type></trkpt>
      <trkpt lat="40.4591506" lon="-5.29744474"><ele>1821</ele><speed>9.24</speed><time>2016-06-29T11:16:50Z</time><pdop>5.0</pdop><geoidheight>54.00</geoidheight><course>191.6</course><type>1</type></trkpt>
      <trkpt lat="40.45903682" lon="-5.29747511"><ele>1824</ele><speed>11.32</speed><time>2016-06-29T11:16:51Z</time><pdop>4.0</pdop><geoidheight>54.00</geoidheight><course>190.2</course><type>1</type></trkpt>
      <trkpt lat="40.45893271" lon="-5.29747177"><ele>1825</ele><speed>11.48</speed><time>2016-06-29T11:16:52Z</time><pdop>4.0</pdop><geoidheight>54.00</geoidheight><course>179.3</course><type>1</type></trkpt>
      <trkpt lat="40.45883056" lon="-5.29744987"><ele>1827</ele><speed>11.32</speed><time>2016-06-29T11:16:53Z</time><pdop>4.0</pdop><geoidheight>54.00</geoidheight><course>164.5</course><type>1</type></trkpt>
      <trkpt lat="40.45873874" lon="-5.29741552"><ele>1828</ele><speed>10.96</speed><time>2016-06-29T11:16:54Z</time><pdop>5.0</pdop><geoidheight>54.00</geoidheight><course>162.1</course><type>1</type></trkpt>
      <trkpt lat="40.45865303" lon="-5.29729516"><ele>1828</ele><speed>12.84</speed><time>2016-06-29T11:16:55Z</time><pdop>5.0</pdop><geoidheight>54.00</geoidheight><course>134.5</course><type>1</type></trkpt>
      <trkpt lat="40.45859206" lon="-5.29717566"><ele>1829</ele><speed>14.03</speed><time>2016-06-29T11:16:56Z</time><pdop>5.0</pdop><geoidheight>54.00</geoidheight><course>123.0</course><type>1</type></trkpt>
      <trkpt lat="40.45852329" lon="-5.297037"><ele>1829</ele><speed>14.02</speed><time>2016-06-29T11:16:57Z</time><pdop>6.0</pdop><geoidheight>54.00</geoidheight><course>123.0</course><type>1</type></trkpt>
      <trkpt lat="40.4585102" lon="-5.29685367"><ele>1831</ele><speed>13.56</speed><time>2016-06-29T11:16:58Z</time><pdop>6.0</pdop><geoidheight>54.00</geoidheight><course>101.4</course><type>1</type></trkpt>
      <trkpt lat="40.45855796" lon="-5.29669873"><ele>1832</ele><speed>12.44</speed><time>2016-06-29T11:16:59Z</time><pdop>5.0</pdop><geoidheight>54.00</geoidheight><course>72.4</course><type>1</type></trkpt>
      <trkpt lat="40.45865272" lon="-5.29649662"><ele>1832</ele><speed>10.18</speed><time>2016-06-29T11:17:01Z</time><pdop>6.0</pdop><geoidheight>54.00</geoidheight><course>53.3</course><type>1</type></trkpt>
      <trkpt lat="40.45880525" lon="-5.29647401"><ele>1833</ele><speed>7.81</speed><time>2016-06-29T11:17:03Z</time><pdop>8.0</pdop><geoidheight>54.00</geoidheight><course>1.7</course><type>1</type></trkpt>
      <trkpt lat="40.4589557" lon="-5.29651892"><ele>1832</ele><speed>7.04</speed><time>2016-06-29T11:17:05Z</time><pdop>6.0</pdop><geoidheight>54.00</geoidheight><course>344.8</course><type>1</type></trkpt>
      <trkpt lat="40.45902133" lon="-5.29661629"><ele>1833</ele><speed>5.11</speed><time>2016-06-29T11:17:07Z</time><pdop>5.0</pdop><geoidheight>54.00</geoidheight><course>299.9</course><type>1</type></trkpt>
      <trkpt lat="40.45902456" lon="-5.29677918"><ele>1833</ele><speed>4.08</speed><time>2016-06-29T11:17:10Z</time><pdop>6.0</pdop><geoidheight>54.00</geoidheight><course>257.5</course><type>1</type></trkpt>
      <trkpt lat="40.4589349" lon="-5.29685907"><ele>1832</ele><speed>7.38</speed><time>2016-06-29T11:17:11Z</time><pdop>4.0</pdop><geoidheight>54.00</geoidheight><course>210.7</course><type>1</type></trkpt>
      <trkpt lat="40.45884914" lon="-5.29689425"><ele>1832</ele><speed>9.09</speed><time>2016-06-29T11:17:12Z</time><pdop>4.0</pdop><geoidheight>54.00</geoidheight><course>193.4</course><type>1</type></trkpt>
      <trkpt lat="40.45874324" lon="-5.2969046"><ele>1830</ele><speed>11.03</speed><time>2016-06-29T11:17:13Z</time><pdop>3.0</pdop><geoidheight>54.00</geoidheight><course>181.6</course><type>1</type></trkpt>
      <trkpt lat="40.45862509" lon="-5.29689338"><ele>1830</ele><speed>12.61</speed><time>2016-06-29T11:17:14Z</time><pdop>3.0</pdop><geoidheight>54.00</geoidheight><course>172.8</course><type>1</type></trkpt>
      <trkpt lat="40.45851104" lon="-5.29685664"><ele>1830</ele><speed>12.76</speed><time>2016-06-29T11:17:15Z</time><pdop>3.0</pdop><geoidheight>54.00</geoidheight><course>166.6</course><type>1</type></trkpt>
      <trkpt lat="40.45840106" lon="-5.29680667"><ele>1830</ele><speed>12.99</speed><time>2016-06-29T11:17:16Z</time><pdop>4.0</pdop><geoidheight>54.00</geoidheight><course>164.3</course><type>1</type></trkpt>
      <trkpt lat="40.45829987" lon="-5.29674361"><ele>1830</ele><speed>12.45</speed><time>2016-06-29T11:17:17Z</time><pdop>4.0</pdop><geoidheight>54.00</geoidheight><course>158.1</course><type>1</type></trkpt>
      <trkpt lat="40.45821531" lon="-5.29666463"><ele>1831</ele><speed>11.53</speed><time>2016-06-29T11:17:18Z</time><pdop>3.0</pdop><geoidheight>54.00</geoidheight><course>149.3</course><type>1</type></trkpt>
      <trkpt lat="40.4581381" lon="-5.29657101"><ele>1832</ele><speed>11.76</speed><time>2016-06-29T11:17:19Z</time><pdop>3.0</pdop><geoidheight>54.00</geoidheight><course>139.7</course><type>1</type></trkpt>
      <trkpt lat="40.45806608" lon="-5.29646873"><ele>1832</ele><speed>12.70</speed><time>2016-06-29T11:17:20Z</time><pdop>3.0</pdop><geoidheight>54.00</geoidheight><course>129.3</course><type>1</type></trkpt>
      <trkpt lat="40.45799675" lon="-5.29632495"><ele>1833</ele><speed>13.96</speed><time>2016-06-29T11:17:21Z</time><pdop>3.0</pdop><geoidheight>54.00</geoidheight><course>120.7</course><type>1</type></trkpt>
      <trkpt lat="40.4579029" lon="-5.29602327"><ele>1837</ele><speed>13.53</speed><time>2016-06-29T11:17:23Z</time><pdop>3.0</pdop><geoidheight>54.00</geoidheight><course>108.2</course><type>1</type></trkpt>
      <trkpt lat="40.45788791" lon="-5.29587755"><ele>1838</ele><speed>12.74</speed><time>2016-06-29T11:17:24Z</time><pdop>3.0</pdop><geoidheight>54.00</geoidheight><course>99.1</course><type>1</type></trkpt>
      <trkpt lat="40.45789642" lon="-5.2957174"><ele>1838</ele><speed>12.34</speed><time>2016-06-29T11:17:25Z</time><pdop>3.0</pdop><geoidheight>54.00</geoidheight><course>85.6</course><type>1</type></trkpt>
      <trkpt lat="40.4579222" lon="-5.29557346"><ele>1838</ele><speed>12.09</speed><time>2016-06-29T11:17:26Z</time><pdop>3.0</pdop><geoidheight>54.00</geoidheight><course>76.8</course><type>1</type></trkpt>
      <trkpt lat="40.4579492" lon="-5.2954387"><ele>1838</ele><speed>11.54</speed><time>2016-06-29T11:17:27Z</time><pdop>4.0</pdop><geoidheight>54.00</geoidheight><course>75.2</course><type>1</type></trkpt>
      <trkpt lat="40.45808046" lon="-5.29536759"><ele>1838</ele><speed>12.01</speed><time>2016-06-29T11:17:28Z</time><pdop>3.0</pdop><geoidheight>54.00</geoidheight><course>40.8</course><type>1</type></trkpt>
      <trkpt lat="40.45816424" lon="-5.29529539"><ele>1839</ele><speed>11.34</speed><time>2016-06-29T11:17:29Z</time><pdop>3.0</pdop><geoidheight>54.00</geoidheight><course>31.8</course><type>1</type></trkpt>
      <trkpt lat="40.45825892" lon="-5.29525079"><ele>1839</ele><speed>10.72</speed><time>2016-06-29T11:17:30Z</time><pdop>3.0</pdop><geoidheight>54.00</geoidheight><course>25.4</course><type>1</type></trkpt>
      <trkpt lat="40.45833273" lon="-5.29522652"><ele>1840</ele><speed>9.36</speed><time>2016-06-29T11:17:31Z</time><pdop>3.0</pdop><geoidheight>54.00</geoidheight><course>16.3</course><type>1</type></trkpt>
      <trkpt lat="40.45840367" lon="-5.29521272"><ele>1840</ele><speed>9.00</speed><time>2016-06-29T11:17:32Z</time><pdop>3.0</pdop><geoidheight>54.00</geoidheight><course>7.4</course><type>1</type></trkpt>
      <trkpt lat="40.45847717" lon="-5.29521465"><ele>1840</ele><speed>8.82</speed><time>2016-06-29T11:17:33Z</time><pdop>3.0</pdop><geoidheight>54.00</geoidheight><course>0.5</course><type>1</type></trkpt>
      <trkpt lat="40.45856117" lon="-5.29521578"><ele>1841</ele><speed>8.43</speed><time>2016-06-29T11:17:34Z</time><pdop>4.0</pdop><geoidheight>54.00</geoidheight><course>358.0</course><type>1</type></trkpt>
      <trkpt lat="40.45863225" lon="-5.29521349"><ele>1843</ele><speed>7.81</speed><time>2016-06-29T11:17:35Z</time><pdop>3.0</pdop><geoidheight>54.00</geoidheight><course>357.6</course><type>1</type></trkpt>
      <trkpt lat="40.45869968" lon="-5.29523119"><ele>1843</ele><speed>7.35</speed><time>2016-06-29T11:17:36Z</time><pdop>4.0</pdop><geoidheight>54.00</geoidheight><course>352.2</course><type>1</type></trkpt>
      <trkpt lat="40.45879684" lon="-5.29533752"><ele>1846</ele><speed>6.71</speed><time>2016-06-29T11:17:38Z</time><pdop>3.0</pdop><geoidheight>54.00</geoidheight><course>318.7</course><type>1</type></trkpt>
      <trkpt lat="40.45881704" lon="-5.29541903"><ele>1847</ele><speed>6.54</speed><time>2016-06-29T11:17:39Z</time><pdop>3.0</pdop><geoidheight>54.00</geoidheight><course>292.7</course><type>1</type></trkpt>
      <trkpt lat="40.4588168" lon="-5.29551622"><ele>1848</ele><speed>6.98</speed><time>2016-06-29T11:17:40Z</time><pdop>3.0</pdop><geoidheight>54.00</geoidheight><course>265.6</course><type>1</type></trkpt>
      <trkpt lat="40.45880201" lon="-5.29559088"><ele>1848</ele><speed>7.09</speed><time>2016-06-29T11:17:41Z</time><pdop>3.0</pdop><geoidheight>54.00</geoidheight><course>255.8</course><type>1</type></trkpt>
      <trkpt lat="40.45874121" lon="-5.29564987"><ele>1848</ele><speed>8.06</speed><time>2016-06-29T11:17:42Z</time><pdop>3.0</pdop><geoidheight>54.00</geoidheight><course>231.3</course><type>1</type></trkpt>
      <trkpt lat="40.45868419" lon="-5.29571861"><ele>1850</ele><speed>7.79</speed><time>2016-06-29T11:17:43Z</time><pdop>3.0</pdop><geoidheight>54.00</geoidheight><course>221.2</course><type>1</type></trkpt>
      <trkpt lat="40.45861872" lon="-5.29576862"><ele>1850</ele><speed>7.58</speed><time>2016-06-29T11:17:44Z</time><pdop>3.0</pdop><geoidheight>54.00</geoidheight><course>209.9</course><type>1</type></trkpt>
      <trkpt lat="40.45855666" lon="-5.29579687"><ele>1851</ele><speed>7.75</speed><time>2016-06-29T11:17:45Z</time><pdop>3.0</pdop><geoidheight>54.00</geoidheight><course>198.4</course><type>1</type></trkpt>
      <trkpt lat="40.45848019" lon="-5.29581338"><ele>1850</ele><speed>8.79</speed><time>2016-06-29T11:17:46Z</time><pdop>3.0</pdop><geoidheight>54.00</geoidheight><course>188.4</course><type>1</type></trkpt>
      <trkpt lat="40.45839222" lon="-5.2958119"><ele>1850</ele><speed>9.88</speed><time>2016-06-29T11:17:47Z</time><pdop>3.0</pdop><geoidheight>54.00</geoidheight><course>180.5</course><type>1</type></trkpt>
      <trkpt lat="40.45830284" lon="-5.29578903"><ele>1849</ele><speed>10.58</speed><time>2016-06-29T11:17:48Z</time><pdop>3.0</pdop><geoidheight>54.00</geoidheight><course>172.5</course><type>1</type></trkpt>
      <trkpt lat="40.45820849" lon="-5.29574904"><ele>1849</ele><speed>11.13</speed><time>2016-06-29T11:17:49Z</time><pdop>3.0</pdop><geoidheight>54.00</geoidheight><course>163.3</course><type>1</type></trkpt>
      <trkpt lat="40.4581116" lon="-5.29568602"><ele>1849</ele><speed>11.62</speed><time>2016-06-29T11:17:50Z</time><pdop>3.0</pdop><geoidheight>54.00</geoidheight><course>151.9</course><type>1</type></trkpt>
      <trkpt lat="40.45802162" lon="-5.29559211"><ele>1848</ele><speed>11.95</speed><time>2016-06-29T11:17:51Z</time><pdop>9.0</pdop><geoidheight>54.00</geoidheight><course>141.6</course><type>1</type></trkpt>
      <trkpt lat="40.45789316" lon="-5.29534188"><ele>1847</ele><speed>13.31</speed><time>2016-06-29T11:17:53Z</time><pdop>9.0</pdop><geoidheight>54.00</geoidheight><course>118.3</course><type>1</type></trkpt>
      <trkpt lat="40.45784099" lon="-5.29501686"><ele>1845</ele><speed>13.86</speed><time>2016-06-29T11:17:55Z</time><pdop>9.0</pdop><geoidheight>54.00</geoidheight><course>96.7</course><type>1</type></trkpt>
      <trkpt lat="40.45788877" lon="-5.29471103"><ele>1844</ele><speed>13.02</speed><time>2016-06-29T11:17:57Z</time><pdop>9.0</pdop><geoidheight>54.00</geoidheight><course>75.8</course><type>1</type></trkpt>
      <trkpt lat="40.45803469" lon="-5.29448211"><ele>1845</ele><speed>12.06</speed><time>2016-06-29T11:17:59Z</time><pdop>9.0</pdop><geoidheight>54.00</geoidheight><course>46.2</course><type>1</type></trkpt>
      <trkpt lat="40.45818749" lon="-5.29431813"><ele>1846</ele><speed>10.90</speed><time>2016-06-29T11:18:01Z</time><pdop>9.0</pdop><geoidheight>54.00</geoidheight><course>41.6</course><type>1</type></trkpt>
      <trkpt lat="40.45832508" lon="-5.29414339"><ele>1847</ele><speed>10.48</speed><time>2016-06-29T11:18:03Z</time><pdop>9.0</pdop><geoidheight>54.00</geoidheight><course>44.3</course><type>1</type></trkpt>
      <trkpt lat="40.45845502" lon="-5.2939634"><ele>1847</ele><speed>10.62</speed><time>2016-06-29T11:18:05Z</time><pdop>9.0</pdop><geoidheight>54.00</geoidheight><course>45.9</course><type>1</type></trkpt>
      <trkpt lat="40.45858026" lon="-5.29373573"><ele>1848</ele><speed>12.09</speed><time>2016-06-29T11:18:07Z</time><pdop>9.0</pdop><geoidheight>54.00</geoidheight><course>51.0</course><type>1</type></trkpt>
      <trkpt lat="40.4587092" lon="-5.29349587"><ele>1851</ele><speed>12.44</speed><time>2016-06-29T11:18:09Z</time><pdop>9.0</pdop><geoidheight>54.00</geoidheight><course>57.5</course><type>1</type></trkpt>
      <trkpt lat="40.45883175" lon="-5.29327353"><ele>1852</ele><speed>11.23</speed><time>2016-06-29T11:18:11Z</time><pdop>9.0</pdop><geoidheight>54.00</geoidheight><course>50.0</course><type>1</type></trkpt>
      <trkpt lat="40.4589729" lon="-5.29311439"><ele>1852</ele><speed>10.33</speed><time>2016-06-29T11:18:13Z</time><pdop>9.0</pdop><geoidheight>54.00</geoidheight><course>40.0</course><type>1</type></trkpt>
      <trkpt lat="40.4591355" lon="-5.29296506"><ele>1852</ele><speed>11.13</speed><time>2016-06-29T11:18:15Z</time><pdop>9.0</pdop><geoidheight>54.00</geoidheight><course>36.2</course><type>1</type></trkpt>
      <trkpt lat="40.45928234" lon="-5.29280894"><ele>1854</ele><speed>10.44</speed><time>2016-06-29T11:18:17Z</time><pdop>9.0</pdop><geoidheight>54.00</geoidheight><course>38.0</course><type>1</type></trkpt>
      <trkpt lat="40.45942374" lon="-5.29267807"><ele>1855</ele><speed>9.46</speed><time>2016-06-29T11:18:19Z</time><pdop>4.0</pdop><geoidheight>54.00</geoidheight><course>36.3</course><type>1</type></trkpt>
      <trkpt lat="40.45950237" lon="-5.29266396"><ele>1855</ele><speed>8.68</speed><time>2016-06-29T11:18:20Z</time><pdop>3.0</pdop><geoidheight>54.00</geoidheight><course>17.2</course><type>1</type></trkpt>
      <trkpt lat="40.45957668" lon="-5.29264177"><ele>1854</ele><speed>8.60</speed><time>2016-06-29T11:18:21Z</time><pdop>3.0</pdop><geoidheight>54.00</geoidheight><course>15.8</course><type>1</type></trkpt>
      <trkpt lat="40.4596303" lon="-5.29260774"><ele>1854</ele><speed>8.37</speed><time>2016-06-29T11:18:22Z</time><pdop>3.0</pdop><geoidheight>54.00</geoidheight><course>12.0</course><type>1</type></trkpt>
      <trkpt lat="40.45970409" lon="-5.29258724"><ele>1854</ele><speed>8.37</speed><time>2016-06-29T11:18:23Z</time><pdop>4.0</pdop><geoidheight>54.00</geoidheight><course>12.0</course><type>1</type></trkpt>
      <trkpt lat="40.45981341" lon="-5.29268903"><ele>1854</ele><speed>7.60</speed><time>2016-06-29T11:18:25Z</time><pdop>5.0</pdop><geoidheight>54.00</geoidheight><course>317.7</course><type>1</type></trkpt>
      <trkpt lat="40.4598591" lon="-5.2928316"><ele>1855</ele><speed>5.59</speed><time>2016-06-29T11:18:27Z</time><pdop>6.0</pdop><geoidheight>54.00</geoidheight><course>286.2</course><type>1</type></trkpt>
      <trkpt lat="40.45973698" lon="-5.29294104"><ele>1857</ele><speed>7.76</speed><time>2016-06-29T11:18:29Z</time><pdop>4.0</pdop><geoidheight>54.00</geoidheight><course>205.8</course><type>1</type></trkpt>
      <trkpt lat="40.45965425" lon="-5.29295347"><ele>1858</ele><speed>8.75</speed><time>2016-06-29T11:18:30Z</time><pdop>3.0</pdop><geoidheight>54.00</geoidheight><course>187.4</course><type>1</type></trkpt>
      <trkpt lat="40.45957107" lon="-5.29293342"><ele>1857</ele><speed>9.53</speed><time>2016-06-29T11:18:31Z</time><pdop>3.0</pdop><geoidheight>54.00</geoidheight><course>174.6</course><type>1</type></trkpt>
      <trkpt lat="40.45949399" lon="-5.29288808"><ele>1856</ele><speed>10.46</speed><time>2016-06-29T11:18:32Z</time><pdop>3.0</pdop><geoidheight>54.00</geoidheight><course>163.0</course><type>1</type></trkpt>
      <trkpt lat="40.45940282" lon="-5.29282636"><ele>1857</ele><speed>11.57</speed><time>2016-06-29T11:18:33Z</time><pdop>4.0</pdop><geoidheight>54.00</geoidheight><course>154.3</course><type>1</type></trkpt>
      <trkpt lat="40.45930025" lon="-5.29274231"><ele>1858</ele><speed>12.79</speed><time>2016-06-29T11:18:34Z</time><pdop>3.0</pdop><geoidheight>54.00</geoidheight><course>148.6</course><type>1</type></trkpt>
      <trkpt lat="40.45920632" lon="-5.29266103"><ele>1859</ele><speed>13.16</speed><time>2016-06-29T11:18:35Z</time><pdop>3.0</pdop><geoidheight>54.00</geoidheight><course>144.8</course><type>1</type></trkpt>
      <trkpt lat="40.45911243" lon="-5.29255685"><ele>1861</ele><speed>13.38</speed><time>2016-06-29T11:18:36Z</time><pdop>3.0</pdop><geoidheight>54.00</geoidheight><course>139.7</course><type>1</type></trkpt>
      <trkpt lat="40.45902393" lon="-5.2924416"><ele>1861</ele><speed>13.56</speed><time>2016-06-29T11:18:37Z</time><pdop>3.0</pdop><geoidheight>54.00</geoidheight><course>133.3</course><type>1</type></trkpt>
      <trkpt lat="40.45894931" lon="-5.29230183"><ele>1860</ele><speed>14.35</speed><time>2016-06-29T11:18:38Z</time><pdop>3.0</pdop><geoidheight>54.00</geoidheight><course>126.2</course><type>1</type></trkpt>
      <trkpt lat="40.45888759" lon="-5.29213626"><ele>1860</ele><speed>15.21</speed><time>2016-06-29T11:18:39Z</time><pdop>3.0</pdop><geoidheight>54.00</geoidheight><course>116.6</course><type>1</type></trkpt>
      <trkpt lat="40.4588551" lon="-5.29195045"><ele>1859</ele><speed>15.96</speed><time>2016-06-29T11:18:40Z</time><pdop>3.0</pdop><geoidheight>54.00</geoidheight><course>103.8</course><type>1</type></trkpt>
      <trkpt lat="40.45883897" lon="-5.2917725"><ele>1859</ele><speed>15.42</speed><time>2016-06-29T11:18:41Z</time><pdop>3.0</pdop><geoidheight>54.00</geoidheight><course>97.6</course><type>1</type></trkpt>
      <trkpt lat="40.45884861" lon="-5.29162498"><ele>1860</ele><speed>13.54</speed><time>2016-06-29T11:18:42Z</time><pdop>3.0</pdop><geoidheight>54.00</geoidheight><course>88.8</course><type>1</type></trkpt>
      <trkpt lat="40.45891566" lon="-5.29149285"><ele>1862</ele><speed>11.92</speed><time>2016-06-29T11:18:43Z</time><pdop>3.0</pdop><geoidheight>54.00</geoidheight><course>64.5</course><type>1</type></trkpt>
      <trkpt lat="40.45897104" lon="-5.29137361"><ele>1862</ele><speed>11.19</speed><time>2016-06-29T11:18:44Z</time><pdop>4.0</pdop><geoidheight>54.00</geoidheight><course>58.8</course><type>1</type></trkpt>
      <trkpt lat="40.45905747" lon="-5.29129288"><ele>1863</ele><speed>10.31</speed><time>2016-06-29T11:18:45Z</time><pdop>4.0</pdop><geoidheight>54.00</geoidheight><course>36.6</course><type>1</type></trkpt>
      <trkpt lat="40.45913206" lon="-5.29122041"><ele>1863</ele><speed>10.31</speed><time>2016-06-29T11:18:46Z</time><pdop>5.0</pdop><geoidheight>54.00</geoidheight><course>36.6</course><type>1</type></trkpt>
      <trkpt lat="40.45923378" lon="-5.29121272"><ele>1863</ele><speed>8.95</speed><time>2016-06-29T11:18:47Z</time><pdop>4.0</pdop><geoidheight>54.00</geoidheight><course>12.7</course><type>1</type></trkpt>
      <trkpt lat="40.45931047" lon="-5.2912104"><ele>1864</ele><speed>8.09</speed><time>2016-06-29T11:18:48Z</time><pdop>4.0</pdop><geoidheight>54.00</geoidheight><course>1.9</course><type>1</type></trkpt>
      <trkpt lat="40.45944025" lon="-5.29124945"><ele>1866</ele><speed>7.34</speed><time>2016-06-29T11:18:50Z</time><pdop>5.0</pdop><geoidheight>54.00</geoidheight><course>343.0</course><type>1</type></trkpt>
      <trkpt lat="40.45952729" lon="-5.29136282"><ele>1867</ele><speed>6.94</speed><time>2016-06-29T11:18:52Z</time><pdop>6.0</pdop><geoidheight>54.00</geoidheight><course>319.1</course><type>1</type></trkpt>
      <trkpt lat="40.4594972" lon="-5.29147868"><ele>1869</ele><speed>5.15</speed><time>2016-06-29T11:18:54Z</time><pdop>4.0</pdop><geoidheight>54.00</geoidheight><course>241.2</course><type>1</type></trkpt>
      <trkpt lat="40.45943355" lon="-5.29159433"><ele>1867</ele><speed>6.05</speed><time>2016-06-29T11:18:56Z</time><pdop>5.0</pdop><geoidheight>54.00</geoidheight><course>225.7</course><type>1</type></trkpt>
      <trkpt lat="40.45931193" lon="-5.29164738"><ele>1867</ele><speed>7.25</speed><time>2016-06-29T11:18:58Z</time><pdop>4.0</pdop><geoidheight>54.00</geoidheight><course>186.8</course><type>1</type></trkpt>
      <trkpt lat="40.45916957" lon="-5.29163916"><ele>1869</ele><speed>8.80</speed><time>2016-06-29T11:19:00Z</time><pdop>4.0</pdop><geoidheight>54.00</geoidheight><course>175.8</course><type>1</type></trkpt>
      <trkpt lat="40.45898723" lon="-5.29166082"><ele>1866</ele><speed>9.87</speed><time>2016-06-29T11:19:02Z</time><pdop>5.0</pdop><geoidheight>54.00</geoidheight><course>187.7</course><type>1</type></trkpt>
      <trkpt lat="40.45885729" lon="-5.29177884"><ele>1867</ele><speed>8.36</speed><time>2016-06-29T11:19:04Z</time><pdop>6.0</pdop><geoidheight>54.00</geoidheight><course>210.0</course><type>1</type></trkpt>
      <trkpt lat="40.45874566" lon="-5.29187894"><ele>1869</ele><speed>7.36</speed><time>2016-06-29T11:19:06Z</time><pdop>7.0</pdop><geoidheight>54.00</geoidheight><course>213.8</course><type>1</type></trkpt>
      <trkpt lat="40.45864028" lon="-5.29196689"><ele>1872</ele><speed>6.63</speed><time>2016-06-29T11:19:09Z</time><pdop>5.0</pdop><geoidheight>54.00</geoidheight><course>199.4</course><type>1</type></trkpt>
      <trkpt lat="40.45850221" lon="-5.29200127"><ele>1870</ele><speed>8.46</speed><time>2016-06-29T11:19:11Z</time><pdop>5.0</pdop><geoidheight>54.00</geoidheight><course>187.7</course><type>1</type></trkpt>
      <trkpt lat="40.45839081" lon="-5.29194152"><ele>1871</ele><speed>10.95</speed><time>2016-06-29T11:19:12Z</time><pdop>4.0</pdop><geoidheight>54.00</geoidheight><course>164.4</course><type>1</type></trkpt>
      <trkpt lat="40.45828275" lon="-5.29187901"><ele>1870</ele><speed>12.06</speed><time>2016-06-29T11:19:13Z</time><pdop>5.0</pdop><geoidheight>54.00</geoidheight><course>155.9</course><type>1</type></trkpt>
      <trkpt lat="40.45822357" lon="-5.29175633"><ele>1870</ele><speed>11.20</speed><time>2016-06-29T11:19:14Z</time><pdop>6.0</pdop><geoidheight>54.00</geoidheight><course>131.1</course><type>1</type></trkpt>
      <trkpt lat="40.45818528" lon="-5.29154001"><ele>1870</ele><speed>14.71</speed><time>2016-06-29T11:19:15Z</time><pdop>6.0</pdop><geoidheight>54.00</geoidheight><course>108.0</course><type>1</type></trkpt>
      <trkpt lat="40.45817903" lon="-5.29137054"><ele>1870</ele><speed>14.62</speed><time>2016-06-29T11:19:16Z</time><pdop>6.0</pdop><geoidheight>54.00</geoidheight><course>92.8</course><type>1</type></trkpt>
      <trkpt lat="40.45817273" lon="-5.29119907"><ele>1871</ele><speed>14.59</speed><time>2016-06-29T11:19:17Z</time><pdop>7.0</pdop><geoidheight>54.00</geoidheight><course>92.8</course><type>1</type></trkpt>
      <trkpt lat="40.45821976" lon="-5.29101171"><ele>1873</ele><speed>13.75</speed><time>2016-06-29T11:19:18Z</time><pdop>5.0</pdop><geoidheight>54.00</geoidheight><course>75.0</course><type>1</type></trkpt>
      <trkpt lat="40.4582518" lon="-5.29085542"><ele>1873</ele><speed>13.72</speed><time>2016-06-29T11:19:19Z</time><pdop>7.0</pdop><geoidheight>54.00</geoidheight><course>75.0</course><type>1</type></trkpt>
      <trkpt lat="40.45839039" lon="-5.29065505"><ele>1877</ele><speed>10.31</speed><time>2016-06-29T11:19:21Z</time><pdop>6.0</pdop><geoidheight>54.00</geoidheight><course>37.2</course><type>1</type></trkpt>
      <trkpt lat="40.45852723" lon="-5.29056194"><ele>1880</ele><speed>8.25</speed><time>2016-06-29T11:19:23Z</time><pdop>7.0</pdop><geoidheight>54.00</geoidheight><course>24.1</course><type>1</type></trkpt>
      <trkpt lat="40.45866866" lon="-5.29061173"><ele>1877</ele><speed>7.44</speed><time>2016-06-29T11:19:25Z</time><pdop>5.0</pdop><geoidheight>54.00</geoidheight><course>339.5</course><type>1</type></trkpt>
      <trkpt lat="40.45878511" lon="-5.29071076"><ele>1880</ele><speed>6.65</speed><time>2016-06-29T11:19:27Z</time><pdop>5.0</pdop><geoidheight>54.00</geoidheight><course>321.5</course><type>1</type></trkpt>
      <trkpt lat="40.45883451" lon="-5.29081933"><ele>1881</ele><speed>4.53</speed><time>2016-06-29T11:19:29Z</time><pdop>5.0</pdop><geoidheight>54.00</geoidheight><course>296.1</course><type>1</type></trkpt>
      <trkpt lat="40.45884056" lon="-5.29096279"><ele>1879</ele><speed>5.76</speed><time>2016-06-29T11:19:31Z</time><pdop>4.0</pdop><geoidheight>54.00</geoidheight><course>265.2</course><type>1</type></trkpt>
      <trkpt lat="40.45876621" lon="-5.29109334"><ele>1879</ele><speed>6.48</speed><time>2016-06-29T11:19:33Z</time><pdop>4.0</pdop><geoidheight>54.00</geoidheight><course>233.9</course><type>1</type></trkpt>
      <trkpt lat="40.45869471" lon="-5.29113448"><ele>1880</ele><speed>7.23</speed><time>2016-06-29T11:19:34Z</time><pdop>4.0</pdop><geoidheight>54.00</geoidheight><course>212.0</course><type>1</type></trkpt>
      <trkpt lat="40.45857399" lon="-5.2911846"><ele>1882</ele><speed>7.28</speed><time>2016-06-29T11:19:36Z</time><pdop>3.0</pdop><geoidheight>54.00</geoidheight><course>195.5</course><type>1</type></trkpt>
      <trkpt lat="40.45851141" lon="-5.29119489"><ele>1882</ele><speed>7.10</speed><time>2016-06-29T11:19:37Z</time><pdop>3.0</pdop><geoidheight>54.00</geoidheight><course>188.0</course><type>1</type></trkpt>
      <trkpt lat="40.45843842" lon="-5.29120265"><ele>1883</ele><speed>7.67</speed><time>2016-06-29T11:19:38Z</time><pdop>3.0</pdop><geoidheight>54.00</geoidheight><course>180.8</course><type>1</type></trkpt>
      <trkpt lat="40.45835639" lon="-5.29118704"><ele>1882</ele><speed>8.85</speed><time>2016-06-29T11:19:39Z</time><pdop>3.0</pdop><geoidheight>54.00</geoidheight><course>173.8</course><type>1</type></trkpt>
      <trkpt lat="40.45826659" lon="-5.29115777"><ele>1884</ele><speed>9.69</speed><time>2016-06-29T11:19:40Z</time><pdop>3.0</pdop><geoidheight>54.00</geoidheight><course>167.4</course><type>1</type></trkpt>
      <trkpt lat="40.45817791" lon="-5.29111316"><ele>1884</ele><speed>10.60</speed><time>2016-06-29T11:19:41Z</time><pdop>3.0</pdop><geoidheight>54.00</geoidheight><course>157.6</course><type>1</type></trkpt>
      <trkpt lat="40.45808874" lon="-5.29103752"><ele>1884</ele><speed>11.67</speed><time>2016-06-29T11:19:42Z</time><pdop>3.0</pdop><geoidheight>54.00</geoidheight><course>147.5</course><type>1</type></trkpt>
      <trkpt lat="40.45800692" lon="-5.29093314"><ele>1883</ele><speed>12.49</speed><time>2016-06-29T11:19:43Z</time><pdop>3.0</pdop><geoidheight>54.00</geoidheight><course>139.1</course><type>1</type></trkpt>
      <trkpt lat="40.45792491" lon="-5.29081689"><ele>1884</ele><speed>13.22</speed><time>2016-06-29T11:19:44Z</time><pdop>3.0</pdop><geoidheight>54.00</geoidheight><course>127.9</course><type>1</type></trkpt>
      <trkpt lat="40.45785591" lon="-5.29070185"><ele>1883</ele><speed>12.72</speed><time>2016-06-29T11:19:45Z</time><pdop>3.0</pdop><geoidheight>54.00</geoidheight><course>125.9</course><type>1</type></trkpt>
      <trkpt lat="40.45780863" lon="-5.29054374"><ele>1883</ele><speed>14.15</speed><time>2016-06-29T11:19:46Z</time><pdop>3.0</pdop><geoidheight>54.00</geoidheight><course>111.3</course><type>1</type></trkpt>
      <trkpt lat="40.45777163" lon="-5.29038329"><ele>1884</ele><speed>14.40</speed><time>2016-06-29T11:19:47Z</time><pdop>3.0</pdop><geoidheight>54.00</geoidheight><course>105.6</course><type>1</type></trkpt>
      <trkpt lat="40.45774335" lon="-5.29022106"><ele>1885</ele><speed>14.21</speed><time>2016-06-29T11:19:48Z</time><pdop>3.0</pdop><geoidheight>54.00</geoidheight><course>102.1</course><type>1</type></trkpt>
      <trkpt lat="40.457722" lon="-5.29007308"><ele>1884</ele><speed>13.69</speed><time>2016-06-29T11:19:49Z</time><pdop>3.0</pdop><geoidheight>54.00</geoidheight><course>99.9</course><type>1</type></trkpt>
      <trkpt lat="40.45769998" lon="-5.28990184"><ele>1885</ele><speed>14.00</speed><time>2016-06-29T11:19:50Z</time><pdop>3.0</pdop><geoidheight>54.00</geoidheight><course>99.2</course><type>1</type></trkpt>
      <trkpt lat="40.45771072" lon="-5.28973161"><ele>1884</ele><speed>14.50</speed><time>2016-06-29T11:19:51Z</time><pdop>3.0</pdop><geoidheight>54.00</geoidheight><course>88.4</course><type>1</type></trkpt>
      <trkpt lat="40.45772718" lon="-5.28954936"><ele>1885</ele><speed>15.33</speed><time>2016-06-29T11:19:52Z</time><pdop>4.0</pdop><geoidheight>54.00</geoidheight><course>83.6</course><type>1</type></trkpt>
      <trkpt lat="40.45776362" lon="-5.28937946"><ele>1883</ele><speed>15.15</speed><time>2016-06-29T11:19:53Z</time><pdop>5.0</pdop><geoidheight>54.00</geoidheight><course>76.5</course><type>1</type></trkpt>
      <trkpt lat="40.45787546" lon="-5.28926364"><ele>1883</ele><speed>14.40</speed><time>2016-06-29T11:19:54Z</time><pdop>5.0</pdop><geoidheight>54.00</geoidheight><course>53.1</course><type>1</type></trkpt>
      <trkpt lat="40.45800884" lon="-5.28916822"><ele>1885</ele><speed>14.55</speed><time>2016-06-29T11:19:55Z</time><pdop>9.0</pdop><geoidheight>54.00</geoidheight><course>36.4</course><type>1</type></trkpt>
      <trkpt lat="40.45821291" lon="-5.28902924"><ele>1885</ele><speed>11.82</speed><time>2016-06-29T11:19:57Z</time><pdop>10.0</pdop><geoidheight>54.00</geoidheight><course>23.4</course><type>1</type></trkpt>
      <trkpt lat="40.45841444" lon="-5.28897696"><ele>1888</ele><speed>7.66</speed><time>2016-06-29T11:20:00Z</time><pdop>9.0</pdop><geoidheight>54.00</geoidheight><course>4.5</course><type>1</type></trkpt>
      <trkpt lat="40.45861418" lon="-5.28899163"><ele>1889</ele><speed>7.44</speed><time>2016-06-29T11:20:03Z</time><pdop>9.0</pdop><geoidheight>54.00</geoidheight><course>352.2</course><type>1</type></trkpt>
      <trkpt lat="40.45878099" lon="-5.28911382"><ele>1889</ele><speed>6.48</speed><time>2016-06-29T11:20:06Z</time><pdop>9.0</pdop><geoidheight>54.00</geoidheight><course>325.7</course><type>1</type></trkpt>
      <trkpt lat="40.45882715" lon="-5.28935548"><ele>1887</ele><speed>6.95</speed><time>2016-06-29T11:20:09Z</time><pdop>9.0</pdop><geoidheight>54.00</geoidheight><course>282.1</course><type>1</type></trkpt>
      <trkpt lat="40.45891988" lon="-5.28953784"><ele>1890</ele><speed>6.62</speed><time>2016-06-29T11:20:12Z</time><pdop>9.0</pdop><geoidheight>54.00</geoidheight><course>311.6</course><type>1</type></trkpt>
      <trkpt lat="40.45904255" lon="-5.28975482"><ele>1890</ele><speed>6.13</speed><time>2016-06-29T11:20:15Z</time><pdop>9.0</pdop><geoidheight>54.00</geoidheight><course>289.8</course><type>1</type></trkpt>
      <trkpt lat="40.45891405" lon="-5.28993159"><ele>1889</ele><speed>7.70</speed><time>2016-06-29T11:20:18Z</time><pdop>9.0</pdop><geoidheight>54.00</geoidheight><course>203.0</course><type>1</type></trkpt>
      <trkpt lat="40.45868428" lon="-5.28988018"><ele>1888</ele><speed>8.12</speed><time>2016-06-29T11:20:21Z</time><pdop>9.0</pdop><geoidheight>54.00</geoidheight><course>160.2</course><type>1</type></trkpt>
      <trkpt lat="40.45848909" lon="-5.2896915"><ele>1886</ele><speed>9.91</speed><time>2016-06-29T11:20:24Z</time><pdop>9.0</pdop><geoidheight>54.00</geoidheight><course>137.6</course><type>1</type></trkpt>
      <trkpt lat="40.45833952" lon="-5.28944771"><ele>1883</ele><speed>13.97</speed><time>2016-06-29T11:20:26Z</time><pdop>9.0</pdop><geoidheight>54.00</geoidheight><course>125.4</course><type>1</type></trkpt>
      <trkpt lat="40.45827693" lon="-5.28927674"><ele>1884</ele><speed>15.58</speed><time>2016-06-29T11:20:27Z</time><pdop>3.0</pdop><geoidheight>54.00</geoidheight><course>116.0</course><type>1</type></trkpt>
      <trkpt lat="40.45822554" lon="-5.28910961"><ele>1885</ele><speed>15.45</speed><time>2016-06-29T11:20:28Z</time><pdop>3.0</pdop><geoidheight>54.00</geoidheight><course>111.4</course><type>1</type></trkpt>
      <trkpt lat="40.45821833" lon="-5.28893862"><ele>1886</ele><speed>14.72</speed><time>2016-06-29T11:20:29Z</time><pdop>3.0</pdop><geoidheight>54.00</geoidheight><course>98.6</course><type>1</type></trkpt>
      <trkpt lat="40.45821361" lon="-5.28877035"><ele>1887</ele><speed>14.24</speed><time>2016-06-29T11:20:30Z</time><pdop>3.0</pdop><geoidheight>54.00</geoidheight><course>94.7</course><type>1</type></trkpt>
      <trkpt lat="40.45821271" lon="-5.28861428"><ele>1888</ele><speed>13.18</speed><time>2016-06-29T11:20:31Z</time><pdop>3.0</pdop><geoidheight>54.00</geoidheight><course>92.7</course><type>1</type></trkpt>
      <trkpt lat="40.45819002" lon="-5.28846691"><ele>1887</ele><speed>12.43</speed><time>2016-06-29T11:20:32Z</time><pdop>3.0</pdop><geoidheight>54.00</geoidheight><course>97.6</course><type>1</type></trkpt>
      <trkpt lat="40.4581526" lon="-5.28833461"><ele>1887</ele><speed>12.15</speed><time>2016-06-29T11:20:33Z</time><pdop>3.0</pdop><geoidheight>54.00</geoidheight><course>108.4</course><type>1</type></trkpt>
      <trkpt lat="40.45809544" lon="-5.28823811"><ele>1885</ele><speed>11.48</speed><time>2016-06-29T11:20:34Z</time><pdop>3.0</pdop><geoidheight>54.00</geoidheight><course>123.1</course><type>1</type></trkpt>
      <trkpt lat="40.45802578" lon="-5.28814877"><ele>1885</ele><speed>11.28</speed><time>2016-06-29T11:20:35Z</time><pdop>3.0</pdop><geoidheight>54.00</geoidheight><course>135.5</course><type>1</type></trkpt>
      <trkpt lat="40.45795346" lon="-5.28805555"><ele>1885</ele><speed>11.28</speed><time>2016-06-29T11:20:36Z</time><pdop>3.0</pdop><geoidheight>54.00</geoidheight><course>135.5</course><type>1</type></trkpt>
      <trkpt lat="40.45787109" lon="-5.28808359"><ele>1886</ele><speed>8.09</speed><time>2016-06-29T11:20:37Z</time><pdop>3.0</pdop><geoidheight>54.00</geoidheight><course>174.3</course><type>1</type></trkpt>
      <trkpt lat="40.45780261" lon="-5.28809017"><ele>1889</ele><speed>8.46</speed><time>2016-06-29T11:20:38Z</time><pdop>3.0</pdop><geoidheight>54.00</geoidheight><course>185.3</course><type>1</type></trkpt>
      <trkpt lat="40.45770978" lon="-5.28810213"><ele>1889</ele><speed>9.42</speed><time>2016-06-29T11:20:39Z</time><pdop>3.0</pdop><geoidheight>54.00</geoidheight><course>187.9</course><type>1</type></trkpt>
      <trkpt lat="40.45762442" lon="-5.2881093"><ele>1889</ele><speed>9.03</speed><time>2016-06-29T11:20:40Z</time><pdop>3.0</pdop><geoidheight>54.00</geoidheight><course>185.3</course><type>1</type></trkpt>
      <trkpt lat="40.45755302" lon="-5.28810523"><ele>1890</ele><speed>7.77</speed><time>2016-06-29T11:20:41Z</time><pdop>3.0</pdop><geoidheight>54.00</geoidheight><course>181.1</course><type>1</type></trkpt>
      <trkpt lat="40.45749519" lon="-5.28810262"><ele>1892</ele><speed>5.18</speed><time>2016-06-29T11:20:42Z</time><pdop>3.0</pdop><geoidheight>54.00</geoidheight><course>196.6</course><type>1</type></trkpt>
      <trkpt lat="40.45744128" lon="-5.28816459"><ele>1894</ele><speed>4.11</speed><time>2016-06-29T11:20:44Z</time><pdop>3.0</pdop><geoidheight>54.00</geoidheight><course>259.6</course><type>1</type></trkpt>
      <trkpt lat="40.45746539" lon="-5.28822802"><ele>1892</ele><speed>5.81</speed><time>2016-06-29T11:20:45Z</time><pdop>3.0</pdop><geoidheight>54.00</geoidheight><course>293.9</course><type>1</type></trkpt>
      <trkpt lat="40.45750681" lon="-5.28828807"><ele>1892</ele><speed>6.55</speed><time>2016-06-29T11:20:46Z</time><pdop>3.0</pdop><geoidheight>54.00</geoidheight><course>316.2</course><type>1</type></trkpt>
      <trkpt lat="40.45756545" lon="-5.28832056"><ele>1888</ele><speed>7.99</speed><time>2016-06-29T11:20:47Z</time><pdop>3.0</pdop><geoidheight>54.00</geoidheight><course>342.8</course><type>1</type></trkpt>
      <trkpt lat="40.45764176" lon="-5.28834118"><ele>1889</ele><speed>9.47</speed><time>2016-06-29T11:20:48Z</time><pdop>4.0</pdop><geoidheight>54.00</geoidheight><course>353.8</course><type>1</type></trkpt>
      <trkpt lat="40.45772655" lon="-5.28835319"><ele>1889</ele><speed>9.47</speed><time>2016-06-29T11:20:49Z</time><pdop>5.0</pdop><geoidheight>54.00</geoidheight><course>353.8</course><type>1</type></trkpt>
      <trkpt lat="40.45783816" lon="-5.28826635"><ele>1889</ele><speed>12.71</speed><time>2016-06-29T11:20:50Z</time><pdop>4.0</pdop><geoidheight>54.00</geoidheight><course>23.2</course><type>1</type></trkpt>
      <trkpt lat="40.45792502" lon="-5.28817092"><ele>1890</ele><speed>13.63</speed><time>2016-06-29T11:20:51Z</time><pdop>4.0</pdop><geoidheight>54.00</geoidheight><course>39.5</course><type>1</type></trkpt>
      <trkpt lat="40.45801002" lon="-5.28804505"><ele>1892</ele><speed>13.73</speed><time>2016-06-29T11:20:52Z</time><pdop>5.0</pdop><geoidheight>54.00</geoidheight><course>51.0</course><type>1</type></trkpt>
      <trkpt lat="40.4580758" lon="-5.28789977"><ele>1894</ele><speed>13.74</speed><time>2016-06-29T11:20:53Z</time><pdop>4.0</pdop><geoidheight>54.00</geoidheight><course>61.5</course><type>1</type></trkpt>
      <trkpt lat="40.45812472" lon="-5.28774511"><ele>1894</ele><speed>14.11</speed><time>2016-06-29T11:20:54Z</time><pdop>4.0</pdop><geoidheight>54.00</geoidheight><course>73.0</course><type>1</type></trkpt>
      <trkpt lat="40.45816187" lon="-5.28758616"><ele>1894</ele><speed>14.10</speed><time>2016-06-29T11:20:55Z</time><pdop>5.0</pdop><geoidheight>54.00</geoidheight><course>73.0</course><type>1</type></trkpt>
      <trkpt lat="40.45813355" lon="-5.28742115"><ele>1892</ele><speed>14.38</speed><time>2016-06-29T11:20:56Z</time><pdop>5.0</pdop><geoidheight>54.00</geoidheight><course>94.9</course><type>1</type></trkpt>
      <trkpt lat="40.45812255" lon="-5.28725227"><ele>1892</ele><speed>14.38</speed><time>2016-06-29T11:20:57Z</time><pdop>6.0</pdop><geoidheight>54.00</geoidheight><course>94.9</course><type>1</type></trkpt>
      <trkpt lat="40.45807667" lon="-5.28711149"><ele>1891</ele><speed>13.46</speed><time>2016-06-29T11:20:58Z</time><pdop>4.0</pdop><geoidheight>54.00</geoidheight><course>112.5</course><type>1</type></trkpt>
      <trkpt lat="40.4580302" lon="-5.28696491"><ele>1891</ele><speed>13.46</speed><time>2016-06-29T11:20:59Z</time><pdop>5.0</pdop><geoidheight>54.00</geoidheight><course>112.5</course><type>1</type></trkpt>
      <trkpt lat="40.45796256" lon="-5.28684687"><ele>1892</ele><speed>12.80</speed><time>2016-06-29T11:21:00Z</time><pdop>3.0</pdop><geoidheight>54.00</geoidheight><course>122.6</course><type>1</type></trkpt>
      <trkpt lat="40.45789959" lon="-5.28673589"><ele>1894</ele><speed>11.36</speed><time>2016-06-29T11:21:01Z</time><pdop>4.0</pdop><geoidheight>54.00</geoidheight><course>126.2</course><type>1</type></trkpt>
      <trkpt lat="40.457833" lon="-5.28664747"><ele>1894</ele><speed>9.97</speed><time>2016-06-29T11:21:02Z</time><pdop>4.0</pdop><geoidheight>54.00</geoidheight><course>133.0</course><type>1</type></trkpt>
      <trkpt lat="40.45776534" lon="-5.28658569"><ele>1894</ele><speed>9.55</speed><time>2016-06-29T11:21:03Z</time><pdop>4.0</pdop><geoidheight>54.00</geoidheight><course>142.8</course><type>1</type></trkpt>
      <trkpt lat="40.45769855" lon="-5.28651971"><ele>1893</ele><speed>9.52</speed><time>2016-06-29T11:21:04Z</time><pdop>4.0</pdop><geoidheight>54.00</geoidheight><course>151.3</course><type>1</type></trkpt>
      <trkpt lat="40.45762416" lon="-5.28646391"><ele>1892</ele><speed>9.11</speed><time>2016-06-29T11:21:05Z</time><pdop>4.0</pdop><geoidheight>54.00</geoidheight><course>157.0</course><type>1</type></trkpt>
      <trkpt lat="40.45754872" lon="-5.28642405"><ele>1892</ele><speed>9.06</speed><time>2016-06-29T11:21:06Z</time><pdop>4.0</pdop><geoidheight>54.00</geoidheight><course>163.2</course><type>1</type></trkpt>
      <trkpt lat="40.45747164" lon="-5.28640429"><ele>1891</ele><speed>8.38</speed><time>2016-06-29T11:21:07Z</time><pdop>4.0</pdop><geoidheight>54.00</geoidheight><course>171.3</course><type>1</type></trkpt>
      <trkpt lat="40.45732052" lon="-5.28641591"><ele>1889</ele><speed>9.76</speed><time>2016-06-29T11:21:09Z</time><pdop>4.0</pdop><geoidheight>54.00</geoidheight><course>189.4</course><type>1</type></trkpt>
      <trkpt lat="40.45722668" lon="-5.28644465"><ele>1889</ele><speed>9.82</speed><time>2016-06-29T11:21:10Z</time><pdop>4.0</pdop><geoidheight>54.00</geoidheight><course>196.7</course><type>1</type></trkpt>
      <trkpt lat="40.45714206" lon="-5.28647783"><ele>1889</ele><speed>9.81</speed><time>2016-06-29T11:21:11Z</time><pdop>5.0</pdop><geoidheight>54.00</geoidheight><course>196.7</course><type>1</type></trkpt>
      <trkpt lat="40.45702348" lon="-5.28650753"><ele>1892</ele><speed>7.26</speed><time>2016-06-29T11:21:13Z</time><pdop>4.0</pdop><geoidheight>54.00</geoidheight><course>186.9</course><type>1</type></trkpt>
      <trkpt lat="40.45689372" lon="-5.28651304"><ele>1892</ele><speed>7.45</speed><time>2016-06-29T11:21:15Z</time><pdop>4.0</pdop><geoidheight>54.00</geoidheight><course>175.9</course><type>1</type></trkpt>
      <trkpt lat="40.45676353" lon="-5.28649717"><ele>1892</ele><speed>7.88</speed><time>2016-06-29T11:21:17Z</time><pdop>4.0</pdop><geoidheight>54.00</geoidheight><course>176.0</course><type>1</type></trkpt>
      <trkpt lat="40.45661627" lon="-5.28645852"><ele>1892</ele><speed>9.09</speed><time>2016-06-29T11:21:19Z</time><pdop>4.0</pdop><geoidheight>54.00</geoidheight><course>170.0</course><type>1</type></trkpt>
      <trkpt lat="40.45653898" lon="-5.2864479"><ele>1893</ele><speed>9.07</speed><time>2016-06-29T11:21:20Z</time><pdop>4.0</pdop><geoidheight>54.00</geoidheight><course>169.4</course><type>1</type></trkpt>
      <trkpt lat="40.45646262" lon="-5.2864232"><ele>1892</ele><speed>8.80</speed><time>2016-06-29T11:21:21Z</time><pdop>4.0</pdop><geoidheight>54.00</geoidheight><course>169.1</course><type>1</type></trkpt>
      <trkpt lat="40.45638491" lon="-5.28641497"><ele>1892</ele><speed>8.83</speed><time>2016-06-29T11:21:22Z</time><pdop>4.0</pdop><geoidheight>54.00</geoidheight><course>171.1</course><type>1</type></trkpt>
      <trkpt lat="40.45621483" lon="-5.28638064"><ele>1889</ele><speed>9.18</speed><time>2016-06-29T11:21:24Z</time><pdop>4.0</pdop><geoidheight>54.00</geoidheight><course>174.7</course><type>1</type></trkpt>
      <trkpt lat="40.45612979" lon="-5.28638381"><ele>1888</ele><speed>9.57</speed><time>2016-06-29T11:21:25Z</time><pdop>5.0</pdop><geoidheight>54.00</geoidheight><course>175.4</course><type>1</type></trkpt>
      <trkpt lat="40.45603866" lon="-5.28636843"><ele>1888</ele><speed>10.30</speed><time>2016-06-29T11:21:26Z</time><pdop>5.0</pdop><geoidheight>54.00</geoidheight><course>173.9</course><type>1</type></trkpt>
      <trkpt lat="40.45594991" lon="-5.28634476"><ele>1888</ele><speed>10.37</speed><time>2016-06-29T11:21:27Z</time><pdop>5.0</pdop><geoidheight>54.00</geoidheight><course>169.8</course><type>1</type></trkpt>
      <trkpt lat="40.45585255" lon="-5.28632206"><ele>1888</ele><speed>10.26</speed><time>2016-06-29T11:21:28Z</time><pdop>5.0</pdop><geoidheight>54.00</geoidheight><course>167.6</course><type>1</type></trkpt>
      <trkpt lat="40.45575884" lon="-5.28630769"><ele>1889</ele><speed>9.98</speed><time>2016-06-29T11:21:29Z</time><pdop>5.0</pdop><geoidheight>54.00</geoidheight><course>165.7</course><type>1</type></trkpt>
      <trkpt lat="40.45559301" lon="-5.28622266"><ele>1889</ele><speed>10.18</speed><time>2016-06-29T11:21:31Z</time><pdop>4.0</pdop><geoidheight>54.00</geoidheight><course>159.3</course><type>1</type></trkpt>
      <trkpt lat="40.45550296" lon="-5.2861872"><ele>1888</ele><speed>10.92</speed><time>2016-06-29T11:21:32Z</time><pdop>4.0</pdop><geoidheight>54.00</geoidheight><course>160.0</course><type>1</type></trkpt>
      <trkpt lat="40.45541052" lon="-5.28614305"><ele>1888</ele><speed>10.92</speed><time>2016-06-29T11:21:33Z</time><pdop>6.0</pdop><geoidheight>54.00</geoidheight><course>160.0</course><type>1</type></trkpt>
      <trkpt lat="40.45521796" lon="-5.2861"><ele>1883</ele><speed>11.15</speed><time>2016-06-29T11:21:35Z</time><pdop>5.0</pdop><geoidheight>54.00</geoidheight><course>172.2</course><type>1</type></trkpt>
      <trkpt lat="40.45511735" lon="-5.28609865"><ele>1882</ele><speed>11.64</speed><time>2016-06-29T11:21:36Z</time><pdop>4.0</pdop><geoidheight>54.00</geoidheight><course>178.2</course><type>1</type></trkpt>
      <trkpt lat="40.45500859" lon="-5.2860875"><ele>1882</ele><speed>11.48</speed><time>2016-06-29T11:21:37Z</time><pdop>4.0</pdop><geoidheight>54.00</geoidheight><course>177.1</course><type>1</type></trkpt>
      <trkpt lat="40.45490537" lon="-5.28608062"><ele>1883</ele><speed>11.47</speed><time>2016-06-29T11:21:38Z</time><pdop>5.0</pdop><geoidheight>54.00</geoidheight><course>177.1</course><type>1</type></trkpt>
      <trkpt lat="40.45482633" lon="-5.28604974"><ele>1883</ele><speed>10.40</speed><time>2016-06-29T11:21:39Z</time><pdop>4.0</pdop><geoidheight>54.00</geoidheight><course>171.1</course><type>1</type></trkpt>
      <trkpt lat="40.45473656" lon="-5.286036"><ele>1883</ele><speed>10.02</speed><time>2016-06-29T11:21:40Z</time><pdop>4.0</pdop><geoidheight>54.00</geoidheight><course>171.7</course><type>1</type></trkpt>
      <trkpt lat="40.45464726" lon="-5.28601895"><ele>1883</ele><speed>10.02</speed><time>2016-06-29T11:21:41Z</time><pdop>6.0</pdop><geoidheight>54.00</geoidheight><course>171.7</course><type>1</type></trkpt>
      <trkpt lat="40.45454775" lon="-5.28600304"><ele>1880</ele><speed>11.25</speed><time>2016-06-29T11:21:42Z</time><pdop>4.0</pdop><geoidheight>54.00</geoidheight><course>172.6</course><type>1</type></trkpt>
      <trkpt lat="40.45444835" lon="-5.28598614"><ele>1878</ele><speed>11.16</speed><time>2016-06-29T11:21:43Z</time><pdop>5.0</pdop><geoidheight>54.00</geoidheight><course>172.6</course><type>1</type></trkpt>
      <trkpt lat="40.45433683" lon="-5.285959"><ele>1878</ele><speed>12.22</speed><time>2016-06-29T11:21:44Z</time><pdop>4.0</pdop><geoidheight>54.00</geoidheight><course>171.5</course><type>1</type></trkpt>
      <trkpt lat="40.45421384" lon="-5.28594874"><ele>1877</ele><speed>12.66</speed><time>2016-06-29T11:21:45Z</time><pdop>4.0</pdop><geoidheight>54.00</geoidheight><course>175.4</course><type>1</type></trkpt>
      <trkpt lat="40.45409611" lon="-5.28593366"><ele>1877</ele><speed>12.43</speed><time>2016-06-29T11:21:46Z</time><pdop>4.0</pdop><geoidheight>54.00</geoidheight><course>174.7</course><type>1</type></trkpt>
      <trkpt lat="40.45398452" lon="-5.28592447"><ele>1877</ele><speed>11.94</speed><time>2016-06-29T11:21:47Z</time><pdop>4.0</pdop><geoidheight>54.00</geoidheight><course>175.0</course><type>1</type></trkpt>
      <trkpt lat="40.45387509" lon="-5.28590996"><ele>1876</ele><speed>12.16</speed><time>2016-06-29T11:21:48Z</time><pdop>4.0</pdop><geoidheight>54.00</geoidheight><course>174.0</course><type>1</type></trkpt>
      <trkpt lat="40.45375278" lon="-5.28590592"><ele>1876</ele><speed>12.12</speed><time>2016-06-29T11:21:49Z</time><pdop>4.0</pdop><geoidheight>54.00</geoidheight><course>175.8</course><type>1</type></trkpt>
      <trkpt lat="40.45364396" lon="-5.28589554"><ele>1876</ele><speed>12.11</speed><time>2016-06-29T11:21:50Z</time><pdop>4.0</pdop><geoidheight>54.00</geoidheight><course>175.8</course><type>1</type></trkpt>
      <trkpt lat="40.45355349" lon="-5.28591093"><ele>1877</ele><speed>10.76</speed><time>2016-06-29T11:21:51Z</time><pdop>4.0</pdop><geoidheight>54.00</geoidheight><course>179.8</course><type>1</type></trkpt>
      <trkpt lat="40.45345923" lon="-5.28590874"><ele>1878</ele><speed>10.38</speed><time>2016-06-29T11:21:52Z</time><pdop>4.0</pdop><geoidheight>54.00</geoidheight><course>178.8</course><type>1</type></trkpt>
      <trkpt lat="40.4533701" lon="-5.28591591"><ele>1877</ele><speed>10.04</speed><time>2016-06-29T11:21:53Z</time><pdop>4.0</pdop><geoidheight>54.00</geoidheight><course>181.2</course><type>1</type></trkpt>
      <trkpt lat="40.45328159" lon="-5.28592767"><ele>1878</ele><speed>10.26</speed><time>2016-06-29T11:21:54Z</time><pdop>4.0</pdop><geoidheight>54.00</geoidheight><course>183.9</course><type>1</type></trkpt>
      <trkpt lat="40.45318333" lon="-5.28593271"><ele>1879</ele><speed>10.29</speed><time>2016-06-29T11:21:55Z</time><pdop>4.0</pdop><geoidheight>54.00</geoidheight><course>184.2</course><type>1</type></trkpt>
      <trkpt lat="40.45308711" lon="-5.28593459"><ele>1879</ele><speed>10.02</speed><time>2016-06-29T11:21:56Z</time><pdop>5.0</pdop><geoidheight>54.00</geoidheight><course>183.7</course><type>1</type></trkpt>
      <trkpt lat="40.45291055" lon="-5.28593497"><ele>1879</ele><speed>10.47</speed><time>2016-06-29T11:21:58Z</time><pdop>5.0</pdop><geoidheight>54.00</geoidheight><course>171.8</course><type>1</type></trkpt>
      <trkpt lat="40.45280942" lon="-5.28589836"><ele>1886</ele><speed>11.73</speed><time>2016-06-29T11:21:59Z</time><pdop>5.0</pdop><geoidheight>54.00</geoidheight><course>167.8</course><type>1</type></trkpt>
      <trkpt lat="40.45263875" lon="-5.28583823"><ele>1892</ele><speed>10.41</speed><time>2016-06-29T11:22:01Z</time><pdop>6.0</pdop><geoidheight>54.00</geoidheight><course>156.3</course><type>1</type></trkpt>
      <trkpt lat="40.45245675" lon="-5.28573046"><ele>1893</ele><speed>10.96</speed><time>2016-06-29T11:22:03Z</time><pdop>7.0</pdop><geoidheight>54.00</geoidheight><course>155.4</course><type>1</type></trkpt>
      <trkpt lat="40.45227129" lon="-5.28561411"><ele>1897</ele><speed>11.05</speed><time>2016-06-29T11:22:05Z</time><pdop>7.0</pdop><geoidheight>54.00</geoidheight><course>158.5</course><type>1</type></trkpt>
      <trkpt lat="40.45209042" lon="-5.28554825"><ele>1902</ele><speed>10.24</speed><time>2016-06-29T11:22:07Z</time><pdop>5.0</pdop><geoidheight>54.00</geoidheight><course>170.0</course><type>1</type></trkpt>
      <trkpt lat="40.45199942" lon="-5.28551448"><ele>1907</ele><speed>8.66</speed><time>2016-06-29T11:22:08Z</time><pdop>5.0</pdop><geoidheight>54.00</geoidheight><course>179.1</course><type>1</type></trkpt>
      <trkpt lat="40.45189672" lon="-5.28555125"><ele>1911</ele><speed>5.86</speed><time>2016-06-29T11:22:10Z</time><pdop>4.0</pdop><geoidheight>54.00</geoidheight><course>231.7</course><type>1</type></trkpt>
      <trkpt lat="40.45190081" lon="-5.2857106"><ele>1913</ele><speed>7.29</speed><time>2016-06-29T11:22:12Z</time><pdop>5.0</pdop><geoidheight>54.00</geoidheight><course>276.8</course><type>1</type></trkpt>
      <trkpt lat="40.45202551" lon="-5.28579843"><ele>1920</ele><speed>7.92</speed><time>2016-06-29T11:22:14Z</time><pdop>6.0</pdop><geoidheight>54.00</geoidheight><course>322.7</course><type>1</type></trkpt>
      <trkpt lat="40.45211765" lon="-5.28574747"><ele>1921</ele><speed>9.16</speed><time>2016-06-29T11:22:15Z</time><pdop>5.0</pdop><geoidheight>54.00</geoidheight><course>10.9</course><type>1</type></trkpt>
      <trkpt lat="40.45222715" lon="-5.28552098"><ele>1926</ele><speed>12.01</speed><time>2016-06-29T11:22:17Z</time><pdop>4.0</pdop><geoidheight>54.00</geoidheight><course>66.0</course><type>1</type></trkpt>
      <trkpt lat="40.45224862" lon="-5.28540174"><ele>1929</ele><speed>12.40</speed><time>2016-06-29T11:22:18Z</time><pdop>4.0</pdop><geoidheight>54.00</geoidheight><course>80.3</course><type>1</type></trkpt>
      <trkpt lat="40.45224657" lon="-5.28525928"><ele>1931</ele><speed>12.74</speed><time>2016-06-29T11:22:19Z</time><pdop>4.0</pdop><geoidheight>54.00</geoidheight><course>93.6</course><type>1</type></trkpt>
      <trkpt lat="40.4522192" lon="-5.2851114"><ele>1932</ele><speed>12.89</speed><time>2016-06-29T11:22:20Z</time><pdop>3.0</pdop><geoidheight>54.00</geoidheight><course>106.2</course><type>1</type></trkpt>
      <trkpt lat="40.452167" lon="-5.28498949"><ele>1933</ele><speed>13.13</speed><time>2016-06-29T11:22:21Z</time><pdop>3.0</pdop><geoidheight>54.00</geoidheight><course>121.1</course><type>1</type></trkpt>
      <trkpt lat="40.45210629" lon="-5.28485744"><ele>1933</ele><speed>13.09</speed><time>2016-06-29T11:22:22Z</time><pdop>4.0</pdop><geoidheight>54.00</geoidheight><course>121.0</course><type>1</type></trkpt>
      <trkpt lat="40.45203056" lon="-5.28473957"><ele>1936</ele><speed>13.13</speed><time>2016-06-29T11:22:23Z</time><pdop>3.0</pdop><geoidheight>54.00</geoidheight><course>131.6</course><type>1</type></trkpt>
      <trkpt lat="40.4519524" lon="-5.28462417"><ele>1937</ele><speed>13.09</speed><time>2016-06-29T11:22:24Z</time><pdop>4.0</pdop><geoidheight>54.00</geoidheight><course>131.6</course><type>1</type></trkpt>
      <trkpt lat="40.45186451" lon="-5.28456929"><ele>1938</ele><speed>11.69</speed><time>2016-06-29T11:22:25Z</time><pdop>4.0</pdop><geoidheight>54.00</geoidheight><course>147.5</course><type>1</type></trkpt>
      <trkpt lat="40.45179362" lon="-5.28451938"><ele>1940</ele><speed>9.88</speed><time>2016-06-29T11:22:26Z</time><pdop>4.0</pdop><geoidheight>54.00</geoidheight><course>159.4</course><type>1</type></trkpt>
      <trkpt lat="40.45171373" lon="-5.28448685"><ele>1942</ele><speed>8.25</speed><time>2016-06-29T11:22:27Z</time><pdop>4.0</pdop><geoidheight>54.00</geoidheight><course>166.1</course><type>1</type></trkpt>
      <trkpt lat="40.45158308" lon="-5.28446674"><ele>1944</ele><speed>7.08</speed><time>2016-06-29T11:22:29Z</time><pdop>4.0</pdop><geoidheight>54.00</geoidheight><course>186.9</course><type>1</type></trkpt>
      <trkpt lat="40.45150022" lon="-5.28453942"><ele>1944</ele><speed>5.09</speed><time>2016-06-29T11:22:31Z</time><pdop>4.0</pdop><geoidheight>54.00</geoidheight><course>255.4</course><type>1</type></trkpt>
      <trkpt lat="40.45154579" lon="-5.28463014"><ele>1944</ele><speed>6.42</speed><time>2016-06-29T11:22:33Z</time><pdop>3.0</pdop><geoidheight>54.00</geoidheight><course>328.5</course><type>1</type></trkpt>
      <trkpt lat="40.45170584" lon="-5.28463534"><ele>1947</ele><speed>10.87</speed><time>2016-06-29T11:22:35Z</time><pdop>3.0</pdop><geoidheight>54.00</geoidheight><course>6.8</course><type>1</type></trkpt>
      <trkpt lat="40.4518108" lon="-5.28459153"><ele>1949</ele><speed>12.54</speed><time>2016-06-29T11:22:36Z</time><pdop>3.0</pdop><geoidheight>54.00</geoidheight><course>19.7</course><type>1</type></trkpt>
      <trkpt lat="40.45190903" lon="-5.28452371"><ele>1952</ele><speed>12.38</speed><time>2016-06-29T11:22:37Z</time><pdop>3.0</pdop><geoidheight>54.00</geoidheight><course>30.5</course><type>1</type></trkpt>
      <trkpt lat="40.45198659" lon="-5.28443402"><ele>1956</ele><speed>11.78</speed><time>2016-06-29T11:22:38Z</time><pdop>3.0</pdop><geoidheight>54.00</geoidheight><course>44.0</course><type>1</type></trkpt>
      <trkpt lat="40.45205155" lon="-5.28433058"><ele>1958</ele><speed>11.42</speed><time>2016-06-29T11:22:39Z</time><pdop>3.0</pdop><geoidheight>54.00</geoidheight><course>58.6</course><type>1</type></trkpt>
      <trkpt lat="40.45209466" lon="-5.28420542"><ele>1959</ele><speed>12.23</speed><time>2016-06-29T11:22:40Z</time><pdop>3.0</pdop><geoidheight>54.00</geoidheight><course>71.7</course><type>1</type></trkpt>
      <trkpt lat="40.45212882" lon="-5.28406958"><ele>1960</ele><speed>12.15</speed><time>2016-06-29T11:22:41Z</time><pdop>3.0</pdop><geoidheight>54.00</geoidheight><course>71.7</course><type>1</type></trkpt>
      <trkpt lat="40.45211973" lon="-5.28391543"><ele>1964</ele><speed>12.98</speed><time>2016-06-29T11:22:42Z</time><pdop>3.0</pdop><geoidheight>54.00</geoidheight><course>84.7</course><type>1</type></trkpt>
      <trkpt lat="40.4521216" lon="-5.28375996"><ele>1966</ele><speed>13.07</speed><time>2016-06-29T11:22:43Z</time><pdop>4.0</pdop><geoidheight>54.00</geoidheight><course>88.1</course><type>1</type></trkpt>
      <trkpt lat="40.45212411" lon="-5.28360116"><ele>1967</ele><speed>13.12</speed><time>2016-06-29T11:22:44Z</time><pdop>4.0</pdop><geoidheight>54.00</geoidheight><course>90.5</course><type>1</type></trkpt>
      <trkpt lat="40.45212572" lon="-5.28346144"><ele>1968</ele><speed>11.89</speed><time>2016-06-29T11:22:45Z</time><pdop>4.0</pdop><geoidheight>54.00</geoidheight><course>95.0</course><type>1</type></trkpt>
      <trkpt lat="40.45209873" lon="-5.2833262"><ele>1967</ele><speed>12.39</speed><time>2016-06-29T11:22:46Z</time><pdop>4.0</pdop><geoidheight>54.00</geoidheight><course>105.5</course><type>1</type></trkpt>
      <trkpt lat="40.45205104" lon="-5.28319047"><ele>1968</ele><speed>12.51</speed><time>2016-06-29T11:22:47Z</time><pdop>4.0</pdop><geoidheight>54.00</geoidheight><course>114.4</course><type>1</type></trkpt>
      <trkpt lat="40.45200468" lon="-5.28305658"><ele>1969</ele><speed>12.48</speed><time>2016-06-29T11:22:48Z</time><pdop>5.0</pdop><geoidheight>54.00</geoidheight><course>114.4</course><type>1</type></trkpt>
      <trkpt lat="40.45194264" lon="-5.28292129"><ele>1971</ele><speed>12.85</speed><time>2016-06-29T11:22:49Z</time><pdop>4.0</pdop><geoidheight>54.00</geoidheight><course>119.3</course><type>1</type></trkpt>
      <trkpt lat="40.45188405" lon="-5.28279721"><ele>1974</ele><speed>12.81</speed><time>2016-06-29T11:22:50Z</time><pdop>3.0</pdop><geoidheight>54.00</geoidheight><course>123.9</course><type>1</type></trkpt>
      <trkpt lat="40.45180639" lon="-5.2827077"><ele>1975</ele><speed>12.23</speed><time>2016-06-29T11:22:51Z</time><pdop>3.0</pdop><geoidheight>54.00</geoidheight><course>133.1</course><type>1</type></trkpt>
      <trkpt lat="40.45172189" lon="-5.28261661"><ele>1977</ele><speed>11.70</speed><time>2016-06-29T11:22:52Z</time><pdop>3.0</pdop><geoidheight>54.00</geoidheight><course>142.5</course><type>1</type></trkpt>
      <trkpt lat="40.45163527" lon="-5.2825402"><ele>1979</ele><speed>11.27</speed><time>2016-06-29T11:22:53Z</time><pdop>3.0</pdop><geoidheight>54.00</geoidheight><course>148.0</course><type>1</type></trkpt>
      <trkpt lat="40.45155934" lon="-5.2825047"><ele>1980</ele><speed>10.06</speed><time>2016-06-29T11:22:54Z</time><pdop>3.0</pdop><geoidheight>54.00</geoidheight><course>153.3</course><type>1</type></trkpt>
      <trkpt lat="40.45148425" lon="-5.28247482"><ele>1981</ele><speed>8.35</speed><time>2016-06-29T11:22:55Z</time><pdop>4.0</pdop><geoidheight>54.00</geoidheight><course>162.3</course><type>1</type></trkpt>
      <trkpt lat="40.45141134" lon="-5.2824507"><ele>1982</ele><speed>7.78</speed><time>2016-06-29T11:22:56Z</time><pdop>4.0</pdop><geoidheight>54.00</geoidheight><course>167.1</course><type>1</type></trkpt>
      <trkpt lat="40.45129282" lon="-5.2824487"><ele>1983</ele><speed>6.27</speed><time>2016-06-29T11:22:58Z</time><pdop>4.0</pdop><geoidheight>54.00</geoidheight><course>195.3</course><type>1</type></trkpt>
      <trkpt lat="40.45122319" lon="-5.28253433"><ele>1984</ele><speed>4.57</speed><time>2016-06-29T11:23:00Z</time><pdop>4.0</pdop><geoidheight>54.00</geoidheight><course>254.8</course><type>1</type></trkpt>
      <trkpt lat="40.45133456" lon="-5.28262391"><ele>1985</ele><speed>7.32</speed><time>2016-06-29T11:23:03Z</time><pdop>4.0</pdop><geoidheight>54.00</geoidheight><course>354.4</course><type>1</type></trkpt>
      <trkpt lat="40.45142212" lon="-5.28258829"><ele>1984</ele><speed>10.75</speed><time>2016-06-29T11:23:04Z</time><pdop>4.0</pdop><geoidheight>54.00</geoidheight><course>19.4</course><type>1</type></trkpt>
      <trkpt lat="40.45151659" lon="-5.28250915"><ele>1983</ele><speed>13.19</speed><time>2016-06-29T11:23:05Z</time><pdop>4.0</pdop><geoidheight>54.00</geoidheight><course>35.1</course><type>1</type></trkpt>
      <trkpt lat="40.45159466" lon="-5.28240279"><ele>1983</ele><speed>15.03</speed><time>2016-06-29T11:23:06Z</time><pdop>4.0</pdop><geoidheight>54.00</geoidheight><course>50.7</course><type>1</type></trkpt>
      <trkpt lat="40.45166546" lon="-5.28224628"><ele>1984</ele><speed>16.32</speed><time>2016-06-29T11:23:07Z</time><pdop>4.0</pdop><geoidheight>54.00</geoidheight><course>63.8</course><type>1</type></trkpt>
      <trkpt lat="40.45173014" lon="-5.28207401"><ele>1985</ele><speed>16.29</speed><time>2016-06-29T11:23:08Z</time><pdop>5.0</pdop><geoidheight>54.00</geoidheight><course>63.8</course><type>1</type></trkpt>
      <trkpt lat="40.45174123" lon="-5.2818781"><ele>1988</ele><speed>16.17</speed><time>2016-06-29T11:23:09Z</time><pdop>4.0</pdop><geoidheight>54.00</geoidheight><course>81.5</course><type>1</type></trkpt>
      <trkpt lat="40.45174187" lon="-5.28169477"><ele>1990</ele><speed>15.12</speed><time>2016-06-29T11:23:10Z</time><pdop>4.0</pdop><geoidheight>54.00</geoidheight><course>93.5</course><type>1</type></trkpt>
      <trkpt lat="40.45173358" lon="-5.28151783"><ele>1991</ele><speed>15.06</speed><time>2016-06-29T11:23:11Z</time><pdop>5.0</pdop><geoidheight>54.00</geoidheight><course>93.5</course><type>1</type></trkpt>
      <trkpt lat="40.45165223" lon="-5.28137274"><ele>1990</ele><speed>14.08</speed><time>2016-06-29T11:23:12Z</time><pdop>4.0</pdop><geoidheight>54.00</geoidheight><course>111.5</course><type>1</type></trkpt>
      <trkpt lat="40.45160576" lon="-5.28121825"><ele>1991</ele><speed>14.08</speed><time>2016-06-29T11:23:13Z</time><pdop>5.0</pdop><geoidheight>54.00</geoidheight><course>111.5</course><type>1</type></trkpt>
      <trkpt lat="40.45151066" lon="-5.28110974"><ele>1993</ele><speed>13.68</speed><time>2016-06-29T11:23:14Z</time><pdop>4.0</pdop><geoidheight>54.00</geoidheight><course>129.9</course><type>1</type></trkpt>
      <trkpt lat="40.4514199" lon="-5.28098999"><ele>1995</ele><speed>14.10</speed><time>2016-06-29T11:23:15Z</time><pdop>4.0</pdop><geoidheight>54.00</geoidheight><course>136.1</course><type>1</type></trkpt>
      <trkpt lat="40.45133469" lon="-5.28088341"><ele>1997</ele><speed>13.79</speed><time>2016-06-29T11:23:16Z</time><pdop>4.0</pdop><geoidheight>54.00</geoidheight><course>135.8</course><type>1</type></trkpt>
      <trkpt lat="40.4512419" lon="-5.28075261"><ele>2000</ele><speed>14.21</speed><time>2016-06-29T11:23:17Z</time><pdop>4.0</pdop><geoidheight>54.00</geoidheight><course>134.7</course><type>1</type></trkpt>
      <trkpt lat="40.4511597" lon="-5.28063179"><ele>2004</ele><speed>13.88</speed><time>2016-06-29T11:23:18Z</time><pdop>4.0</pdop><geoidheight>54.00</geoidheight><course>129.2</course><type>1</type></trkpt>
      <trkpt lat="40.45107173" lon="-5.28050783"><ele>2006</ele><speed>13.91</speed><time>2016-06-29T11:23:19Z</time><pdop>4.0</pdop><geoidheight>54.00</geoidheight><course>131.5</course><type>1</type></trkpt>
      <trkpt lat="40.45099009" lon="-5.28038686"><ele>2008</ele><speed>13.79</speed><time>2016-06-29T11:23:20Z</time><pdop>5.0</pdop><geoidheight>54.00</geoidheight><course>131.5</course><type>1</type></trkpt>
      <trkpt lat="40.45090891" lon="-5.28030283"><ele>2009</ele><speed>12.05</speed><time>2016-06-29T11:23:21Z</time><pdop>4.0</pdop><geoidheight>54.00</geoidheight><course>144.1</course><type>1</type></trkpt>
      <trkpt lat="40.45082137" lon="-5.28022"><ele>2010</ele><speed>12.00</speed><time>2016-06-29T11:23:22Z</time><pdop>5.0</pdop><geoidheight>54.00</geoidheight><course>144.1</course><type>1</type></trkpt>
      <trkpt lat="40.45073399" lon="-5.28020697"><ele>2012</ele><speed>9.41</speed><time>2016-06-29T11:23:23Z</time><pdop>4.0</pdop><geoidheight>54.00</geoidheight><course>167.6</course><type>1</type></trkpt>
      <trkpt lat="40.45065046" lon="-5.28026848"><ele>2006</ele><speed>5.37</speed><time>2016-06-29T11:23:25Z</time><pdop>4.0</pdop><geoidheight>54.00</geoidheight><course>211.0</course><type>1</type></trkpt>
      <trkpt lat="40.45069161" lon="-5.28034125"><ele>2002</ele><speed>6.19</speed><time>2016-06-29T11:23:26Z</time><pdop>3.0</pdop><geoidheight>54.00</geoidheight><course>306.8</course><type>1</type></trkpt>
      <trkpt lat="40.45075275" lon="-5.28037551"><ele>2000</ele><speed>8.13</speed><time>2016-06-29T11:23:27Z</time><pdop>3.0</pdop><geoidheight>54.00</geoidheight><course>344.1</course><type>1</type></trkpt>
      <trkpt lat="40.4508227" lon="-5.28040164"><ele>2000</ele><speed>8.08</speed><time>2016-06-29T11:23:28Z</time><pdop>4.0</pdop><geoidheight>54.00</geoidheight><course>344.1</course><type>1</type></trkpt>
      <trkpt lat="40.45092498" lon="-5.28029998"><ele>2000</ele><speed>11.66</speed><time>2016-06-29T11:23:29Z</time><pdop>3.0</pdop><geoidheight>54.00</geoidheight><course>26.3</course><type>1</type></trkpt>
      <trkpt lat="40.45101898" lon="-5.28023924"><ele>1999</ele><speed>11.64</speed><time>2016-06-29T11:23:30Z</time><pdop>4.0</pdop><geoidheight>54.00</geoidheight><course>26.3</course><type>1</type></trkpt>
      <trkpt lat="40.45108498" lon="-5.28008912"><ele>1999</ele><speed>13.17</speed><time>2016-06-29T11:23:31Z</time><pdop>3.0</pdop><geoidheight>54.00</geoidheight><course>50.4</course><type>1</type></trkpt>
      <trkpt lat="40.45115653" lon="-5.27995707"><ele>2000</ele><speed>13.45</speed><time>2016-06-29T11:23:32Z</time><pdop>3.0</pdop><geoidheight>54.00</geoidheight><course>57.7</course><type>1</type></trkpt>
      <trkpt lat="40.45122118" lon="-5.27982339"><ele>2000</ele><speed>13.43</speed><time>2016-06-29T11:23:33Z</time><pdop>4.0</pdop><geoidheight>54.00</geoidheight><course>57.7</course><type>1</type></trkpt>
      <trkpt lat="40.45124579" lon="-5.27965507"><ele>2001</ele><speed>14.62</speed><time>2016-06-29T11:23:34Z</time><pdop>4.0</pdop><geoidheight>54.00</geoidheight><course>76.3</course><type>1</type></trkpt>
      <trkpt lat="40.45125337" lon="-5.27950498"><ele>2001</ele><speed>14.37</speed><time>2016-06-29T11:23:35Z</time><pdop>4.0</pdop><geoidheight>54.00</geoidheight><course>82.8</course><type>1</type></trkpt>
      <trkpt lat="40.45126956" lon="-5.27933692"><ele>2001</ele><speed>14.37</speed><time>2016-06-29T11:23:36Z</time><pdop>5.0</pdop><geoidheight>54.00</geoidheight><course>82.8</course><type>1</type></trkpt>
      <trkpt lat="40.45119581" lon="-5.27917567"><ele>2003</ele><speed>14.05</speed><time>2016-06-29T11:23:37Z</time><pdop>4.0</pdop><geoidheight>54.00</geoidheight><course>109.4</course><type>1</type></trkpt>
      <trkpt lat="40.45115386" lon="-5.27901995"><ele>2003</ele><speed>14.02</speed><time>2016-06-29T11:23:38Z</time><pdop>4.0</pdop><geoidheight>54.00</geoidheight><course>109.4</course><type>1</type></trkpt>
      <trkpt lat="40.45112177" lon="-5.27889264"><ele>2004</ele><speed>12.84</speed><time>2016-06-29T11:23:39Z</time><pdop>4.0</pdop><geoidheight>54.00</geoidheight><course>117.1</course><type>1</type></trkpt>
      <trkpt lat="40.45106009" lon="-5.27876494"><ele>2006</ele><speed>12.84</speed><time>2016-06-29T11:23:40Z</time><pdop>4.0</pdop><geoidheight>54.00</geoidheight><course>122.1</course><type>1</type></trkpt>
      <trkpt lat="40.45099945" lon="-5.27864717"><ele>2006</ele><speed>12.97</speed><time>2016-06-29T11:23:41Z</time><pdop>3.0</pdop><geoidheight>54.00</geoidheight><course>123.7</course><type>1</type></trkpt>
      <trkpt lat="40.45093493" lon="-5.27851899"><ele>2007</ele><speed>12.97</speed><time>2016-06-29T11:23:42Z</time><pdop>3.0</pdop><geoidheight>54.00</geoidheight><course>125.5</course><type>1</type></trkpt>
      <trkpt lat="40.4508775" lon="-5.27838958"><ele>2007</ele><speed>12.44</speed><time>2016-06-29T11:23:43Z</time><pdop>3.0</pdop><geoidheight>54.00</geoidheight><course>127.9</course><type>1</type></trkpt>
      <trkpt lat="40.45080123" lon="-5.2783035"><ele>2007</ele><speed>11.01</speed><time>2016-06-29T11:23:44Z</time><pdop>3.0</pdop><geoidheight>54.00</geoidheight><course>138.4</course><type>1</type></trkpt>
      <trkpt lat="40.45072461" lon="-5.2782255"><ele>2034</ele><speed>10.03</speed><time>2016-06-29T11:23:45Z</time><pdop>3.0</pdop><geoidheight>54.00</geoidheight><course>146.7</course><type>1</type></trkpt>
      <trkpt lat="40.45065028" lon="-5.27817458"><ele>2030</ele><speed>8.71</speed><time>2016-06-29T11:23:46Z</time><pdop>3.0</pdop><geoidheight>54.00</geoidheight><course>154.4</course><type>1</type></trkpt>
      <trkpt lat="40.45057199" lon="-5.27815501"><ele>2028</ele><speed>7.85</speed><time>2016-06-29T11:23:47Z</time><pdop>4.0</pdop><geoidheight>54.00</geoidheight><course>161.9</course><type>1</type></trkpt>
      <trkpt lat="40.45048338" lon="-5.27816825"><ele>2024</ele><speed>4.04</speed><time>2016-06-29T11:23:49Z</time><pdop>4.0</pdop><geoidheight>54.00</geoidheight><course>220.5</course><type>1</type></trkpt>
      <trkpt lat="40.45057796" lon="-5.2782839"><ele>2016</ele><speed>7.36</speed><time>2016-06-29T11:23:52Z</time><pdop>5.0</pdop><geoidheight>54.00</geoidheight><course>335.1</course><type>1</type></trkpt>
      <trkpt lat="40.45070499" lon="-5.27833261"><ele>2015</ele><speed>7.48</speed><time>2016-06-29T11:23:54Z</time><pdop>6.0</pdop><geoidheight>54.00</geoidheight><course>343.1</course><type>1</type></trkpt>
      <trkpt lat="40.45085731" lon="-5.27833375"><ele>2012</ele><speed>7.89</speed><time>2016-06-29T11:23:56Z</time><pdop>8.0</pdop><geoidheight>54.00</geoidheight><course>358.6</course><type>1</type></trkpt>
      <trkpt lat="40.45100855" lon="-5.27829369"><ele>2009</ele><speed>8.96</speed><time>2016-06-29T11:23:58Z</time><pdop>7.0</pdop><geoidheight>54.00</geoidheight><course>11.0</course><type>1</type></trkpt>
      <trkpt lat="40.45118908" lon="-5.27821272"><ele>2003</ele><speed>10.35</speed><time>2016-06-29T11:24:00Z</time><pdop>6.0</pdop><geoidheight>54.00</geoidheight><course>8.4</course><type>1</type></trkpt>
      <trkpt lat="40.45138819" lon="-5.27820239"><ele>2002</ele><speed>10.90</speed><time>2016-06-29T11:24:02Z</time><pdop>9.0</pdop><geoidheight>54.00</geoidheight><course>0.5</course><type>1</type></trkpt>
      <trkpt lat="40.45152882" lon="-5.27824778"><ele>2001</ele><speed>13.10</speed><time>2016-06-29T11:24:03Z</time><pdop>6.0</pdop><geoidheight>54.00</geoidheight><course>350.1</course><type>1</type></trkpt>
      <trkpt lat="40.45165844" lon="-5.27828062"><ele>2001</ele><speed>13.59</speed><time>2016-06-29T11:24:04Z</time><pdop>6.0</pdop><geoidheight>54.00</geoidheight><course>351.1</course><type>1</type></trkpt>
      <trkpt lat="40.45177635" lon="-5.27829127"><ele>2001</ele><speed>12.58</speed><time>2016-06-29T11:24:05Z</time><pdop>6.0</pdop><geoidheight>54.00</geoidheight><course>352.6</course><type>1</type></trkpt>
      <trkpt lat="40.45195184" lon="-5.27832162"><ele>2001</ele><speed>9.60</speed><time>2016-06-29T11:24:07Z</time><pdop>5.0</pdop><geoidheight>54.00</geoidheight><course>353.5</course><type>1</type></trkpt>
      <trkpt lat="40.4520344" lon="-5.27834007"><ele>2003</ele><speed>9.39</speed><time>2016-06-29T11:24:08Z</time><pdop>4.0</pdop><geoidheight>54.00</geoidheight><course>355.4</course><type>1</type></trkpt>
      <trkpt lat="40.45210726" lon="-5.27833347"><ele>2004</ele><speed>8.94</speed><time>2016-06-29T11:24:09Z</time><pdop>4.0</pdop><geoidheight>54.00</geoidheight><course>357.5</course><type>1</type></trkpt>
      <trkpt lat="40.4521964" lon="-5.27834659"><ele>2004</ele><speed>8.50</speed><time>2016-06-29T11:24:10Z</time><pdop>4.0</pdop><geoidheight>54.00</geoidheight><course>353.7</course><type>1</type></trkpt>
      <trkpt lat="40.45232859" lon="-5.27838814"><ele>2005</ele><speed>7.80</speed><time>2016-06-29T11:24:12Z</time><pdop>4.0</pdop><geoidheight>54.00</geoidheight><course>347.4</course><type>1</type></trkpt>
      <trkpt lat="40.45247523" lon="-5.2784246"><ele>2006</ele><speed>8.17</speed><time>2016-06-29T11:24:14Z</time><pdop>7.0</pdop><geoidheight>54.00</geoidheight><course>350.5</course><type>1</type></trkpt>
      <trkpt lat="40.45263121" lon="-5.27844799"><ele>2004</ele><speed>8.33</speed><time>2016-06-29T11:24:16Z</time><pdop>7.0</pdop><geoidheight>54.00</geoidheight><course>353.2</course><type>1</type></trkpt>
      <trkpt lat="40.45278726" lon="-5.27846179"><ele>2003</ele><speed>9.06</speed><time>2016-06-29T11:24:18Z</time><pdop>5.0</pdop><geoidheight>54.00</geoidheight><course>355.0</course><type>1</type></trkpt>
      <trkpt lat="40.45287911" lon="-5.27845781"><ele>2004</ele><speed>9.66</speed><time>2016-06-29T11:24:19Z</time><pdop>5.0</pdop><geoidheight>54.00</geoidheight><course>355.1</course><type>1</type></trkpt>
      <trkpt lat="40.45303269" lon="-5.27848392"><ele>2005</ele><speed>8.94</speed><time>2016-06-29T11:24:21Z</time><pdop>6.0</pdop><geoidheight>54.00</geoidheight><course>355.4</course><type>1</type></trkpt>
      <trkpt lat="40.4531981" lon="-5.2785043"><ele>2007</ele><speed>9.00</speed><time>2016-06-29T11:24:23Z</time><pdop>7.0</pdop><geoidheight>54.00</geoidheight><course>358.2</course><type>1</type></trkpt>
      <trkpt lat="40.4533554" lon="-5.27835063"><ele>2013</ele><speed>11.26</speed><time>2016-06-29T11:24:25Z</time><pdop>4.0</pdop><geoidheight>54.00</geoidheight><course>40.4</course><type>1</type></trkpt>
      <trkpt lat="40.45342571" lon="-5.27824597"><ele>2011</ele><speed>11.83</speed><time>2016-06-29T11:24:26Z</time><pdop>4.0</pdop><geoidheight>54.00</geoidheight><course>49.4</course><type>1</type></trkpt>
      <trkpt lat="40.45349042" lon="-5.27813658"><ele>2010</ele><speed>11.90</speed><time>2016-06-29T11:24:27Z</time><pdop>4.0</pdop><geoidheight>54.00</geoidheight><course>53.2</course><type>1</type></trkpt>
      <trkpt lat="40.45355742" lon="-5.27801603"><ele>2009</ele><speed>11.90</speed><time>2016-06-29T11:24:28Z</time><pdop>4.0</pdop><geoidheight>54.00</geoidheight><course>51.1</course><type>1</type></trkpt>
      <trkpt lat="40.45363028" lon="-5.27792187"><ele>2007</ele><speed>11.57</speed><time>2016-06-29T11:24:29Z</time><pdop>3.0</pdop><geoidheight>54.00</geoidheight><course>45.6</course><type>1</type></trkpt>
      <trkpt lat="40.4536998" lon="-5.27783508"><ele>2006</ele><speed>10.41</speed><time>2016-06-29T11:24:30Z</time><pdop>4.0</pdop><geoidheight>54.00</geoidheight><course>41.8</course><type>1</type></trkpt>
      <trkpt lat="40.45383477" lon="-5.27773347"><ele>2006</ele><speed>8.68</speed><time>2016-06-29T11:24:32Z</time><pdop>5.0</pdop><geoidheight>54.00</geoidheight><course>29.6</course><type>1</type></trkpt>
      <trkpt lat="40.453966" lon="-5.27767312"><ele>2006</ele><speed>7.64</speed><time>2016-06-29T11:24:34Z</time><pdop>9.0</pdop><geoidheight>54.00</geoidheight><course>18.8</course><type>1</type></trkpt>
      <trkpt lat="40.45418479" lon="-5.2777152"><ele>2004</ele><speed>9.07</speed><time>2016-06-29T11:24:36Z</time><pdop>7.0</pdop><geoidheight>54.00</geoidheight><course>356.0</course><type>1</type></trkpt>
      <trkpt lat="40.45434329" lon="-5.27779851"><ele>2003</ele><speed>8.11</speed><time>2016-06-29T11:24:38Z</time><pdop>6.0</pdop><geoidheight>54.00</geoidheight><course>338.9</course><type>1</type></trkpt>
      <trkpt lat="40.45448044" lon="-5.27785935"><ele>1998</ele><speed>8.44</speed><time>2016-06-29T11:24:40Z</time><pdop>5.0</pdop><geoidheight>54.00</geoidheight><course>341.0</course><type>1</type></trkpt>
      <trkpt lat="40.45456576" lon="-5.2778995"><ele>1997</ele><speed>8.69</speed><time>2016-06-29T11:24:41Z</time><pdop>5.0</pdop><geoidheight>54.00</geoidheight><course>341.5</course><type>1</type></trkpt>
      <trkpt lat="40.45465974" lon="-5.27796544"><ele>1996</ele><speed>10.64</speed><time>2016-06-29T11:24:42Z</time><pdop>5.0</pdop><geoidheight>54.00</geoidheight><course>337.1</course><type>1</type></trkpt>
      <trkpt lat="40.4547696" lon="-5.2780034"><ele>1994</ele><speed>11.47</speed><time>2016-06-29T11:24:43Z</time><pdop>6.0</pdop><geoidheight>54.00</geoidheight><course>341.4</course><type>1</type></trkpt>
      <trkpt lat="40.45487119" lon="-5.27803574"><ele>1994</ele><speed>11.76</speed><time>2016-06-29T11:24:44Z</time><pdop>5.0</pdop><geoidheight>54.00</geoidheight><course>343.4</course><type>1</type></trkpt>
      <trkpt lat="40.45496615" lon="-5.27799715"><ele>1990</ele><speed>11.03</speed><time>2016-06-29T11:24:45Z</time><pdop>5.0</pdop><geoidheight>54.00</geoidheight><course>350.4</course><type>1</type></trkpt>
      <trkpt lat="40.45513784" lon="-5.27798574"><ele>1987</ele><speed>9.18</speed><time>2016-06-29T11:24:47Z</time><pdop>5.0</pdop><geoidheight>54.00</geoidheight><course>357.4</course><type>1</type></trkpt>
      <trkpt lat="40.45527207" lon="-5.27800996"><ele>1984</ele><speed>7.99</speed><time>2016-06-29T11:24:49Z</time><pdop>9.0</pdop><geoidheight>54.00</geoidheight><course>353.8</course><type>1</type></trkpt>
      <trkpt lat="40.4555288" lon="-5.27805249"><ele>1981</ele><speed>12.62</speed><time>2016-06-29T11:24:51Z</time><pdop>8.0</pdop><geoidheight>54.00</geoidheight><course>350.1</course><type>1</type></trkpt>
      <trkpt lat="40.4557777" lon="-5.27809287"><ele>1977</ele><speed>13.21</speed><time>2016-06-29T11:24:53Z</time><pdop>9.0</pdop><geoidheight>54.00</geoidheight><course>352.7</course><type>1</type></trkpt>
      <trkpt lat="40.45600273" lon="-5.27811866"><ele>1973</ele><speed>11.00</speed><time>2016-06-29T11:24:55Z</time><pdop>6.0</pdop><geoidheight>54.00</geoidheight><course>355.3</course><type>1</type></trkpt>
      <trkpt lat="40.45620492" lon="-5.27815164"><ele>1973</ele><speed>11.64</speed><time>2016-06-29T11:24:57Z</time><pdop>10.0</pdop><geoidheight>54.00</geoidheight><course>354.9</course><type>1</type></trkpt>
      <trkpt lat="40.45641239" lon="-5.27810076"><ele>1972</ele><speed>11.35</speed><time>2016-06-29T11:24:59Z</time><pdop>10.0</pdop><geoidheight>54.00</geoidheight><course>10.5</course><type>1</type></trkpt>
      <trkpt lat="40.45658784" lon="-5.27803862"><ele>1971</ele><speed>8.84</speed><time>2016-06-29T11:25:01Z</time><pdop>9.0</pdop><geoidheight>54.00</geoidheight><course>10.1</course><type>1</type></trkpt>
      <trkpt lat="40.45679095" lon="-5.2779744"><ele>1966</ele><speed>8.16</speed><time>2016-06-29T11:25:04Z</time><pdop>9.0</pdop><geoidheight>54.00</geoidheight><course>10.0</course><type>1</type></trkpt>
      <trkpt lat="40.45695662" lon="-5.27796664"><ele>1963</ele><speed>9.23</speed><time>2016-06-29T11:25:06Z</time><pdop>9.0</pdop><geoidheight>54.00</geoidheight><course>3.5</course><type>1</type></trkpt>
      <trkpt lat="40.45713947" lon="-5.27792207"><ele>1963</ele><speed>10.21</speed><time>2016-06-29T11:25:08Z</time><pdop>9.0</pdop><geoidheight>54.00</geoidheight><course>11.2</course><type>1</type></trkpt>
      <trkpt lat="40.45730234" lon="-5.27785951"><ele>1963</ele><speed>9.44</speed><time>2016-06-29T11:25:10Z</time><pdop>9.0</pdop><geoidheight>54.00</geoidheight><course>18.1</course><type>1</type></trkpt>
      <trkpt lat="40.45746223" lon="-5.27777104"><ele>1962</ele><speed>9.81</speed><time>2016-06-29T11:25:12Z</time><pdop>9.0</pdop><geoidheight>54.00</geoidheight><course>23.9</course><type>1</type></trkpt>
      <trkpt lat="40.45762962" lon="-5.27765829"><ele>1961</ele><speed>10.26</speed><time>2016-06-29T11:25:14Z</time><pdop>9.0</pdop><geoidheight>54.00</geoidheight><course>27.8</course><type>1</type></trkpt>
      <trkpt lat="40.45780226" lon="-5.27752321"><ele>1960</ele><speed>10.98</speed><time>2016-06-29T11:25:16Z</time><pdop>9.0</pdop><geoidheight>54.00</geoidheight><course>30.8</course><type>1</type></trkpt>
      <trkpt lat="40.45797284" lon="-5.27741299"><ele>1959</ele><speed>9.68</speed><time>2016-06-29T11:25:18Z</time><pdop>9.0</pdop><geoidheight>54.00</geoidheight><course>28.1</course><type>1</type></trkpt>
      <trkpt lat="40.45818831" lon="-5.27736007"><ele>1954</ele><speed>8.90</speed><time>2016-06-29T11:25:21Z</time><pdop>9.0</pdop><geoidheight>54.00</geoidheight><course>358.0</course><type>1</type></trkpt>
      <trkpt lat="40.45835565" lon="-5.27738729"><ele>1953</ele><speed>9.64</speed><time>2016-06-29T11:25:23Z</time><pdop>9.0</pdop><geoidheight>54.00</geoidheight><course>353.4</course><type>1</type></trkpt>
      <trkpt lat="40.4586312" lon="-5.27734951"><ele>1949</ele><speed>13.31</speed><time>2016-06-29T11:25:25Z</time><pdop>9.0</pdop><geoidheight>54.00</geoidheight><course>356.5</course><type>1</type></trkpt>
      <trkpt lat="40.4588573" lon="-5.27734035"><ele>1949</ele><speed>12.01</speed><time>2016-06-29T11:25:27Z</time><pdop>9.0</pdop><geoidheight>54.00</geoidheight><course>5.6</course><type>1</type></trkpt>
      <trkpt lat="40.45904624" lon="-5.27726895"><ele>1949</ele><speed>10.44</speed><time>2016-06-29T11:25:29Z</time><pdop>9.0</pdop><geoidheight>54.00</geoidheight><course>17.3</course><type>1</type></trkpt>
      <trkpt lat="40.45921712" lon="-5.27718097"><ele>1949</ele><speed>9.53</speed><time>2016-06-29T11:25:31Z</time><pdop>9.0</pdop><geoidheight>54.00</geoidheight><course>16.8</course><type>1</type></trkpt>
      <trkpt lat="40.45939096" lon="-5.27718546"><ele>1943</ele><speed>5.86</speed><time>2016-06-29T11:25:34Z</time><pdop>9.0</pdop><geoidheight>54.00</geoidheight><course>350.1</course><type>1</type></trkpt>
      <trkpt lat="40.45949952" lon="-5.277222"><ele>1937</ele><speed>6.94</speed><time>2016-06-29T11:25:36Z</time><pdop>3.0</pdop><geoidheight>54.00</geoidheight><course>345.1</course><type>1</type></trkpt>
      <trkpt lat="40.45956659" lon="-5.27725843"><ele>1935</ele><speed>7.90</speed><time>2016-06-29T11:25:37Z</time><pdop>3.0</pdop><geoidheight>54.00</geoidheight><course>341.3</course><type>1</type></trkpt>
      <trkpt lat="40.45964314" lon="-5.2772944"><ele>1933</ele><speed>8.71</speed><time>2016-06-29T11:25:38Z</time><pdop>3.0</pdop><geoidheight>54.00</geoidheight><course>339.1</course><type>1</type></trkpt>
      <trkpt lat="40.45972235" lon="-5.27733352"><ele>1933</ele><speed>9.13</speed><time>2016-06-29T11:25:39Z</time><pdop>3.0</pdop><geoidheight>54.00</geoidheight><course>339.0</course><type>1</type></trkpt>
      <trkpt lat="40.4597956" lon="-5.27734289"><ele>1934</ele><speed>8.57</speed><time>2016-06-29T11:25:40Z</time><pdop>3.0</pdop><geoidheight>54.00</geoidheight><course>345.1</course><type>1</type></trkpt>
      <trkpt lat="40.45985942" lon="-5.27732514"><ele>1936</ele><speed>7.86</speed><time>2016-06-29T11:25:41Z</time><pdop>3.0</pdop><geoidheight>54.00</geoidheight><course>4.8</course><type>1</type></trkpt>
      <trkpt lat="40.4599294" lon="-5.27728706"><ele>1935</ele><speed>8.44</speed><time>2016-06-29T11:25:42Z</time><pdop>3.0</pdop><geoidheight>54.00</geoidheight><course>22.3</course><type>1</type></trkpt>
      <trkpt lat="40.45999439" lon="-5.27721519"><ele>1935</ele><speed>9.20</speed><time>2016-06-29T11:25:43Z</time><pdop>3.0</pdop><geoidheight>54.00</geoidheight><course>34.8</course><type>1</type></trkpt>
      <trkpt lat="40.46005831" lon="-5.27712724"><ele>1934</ele><speed>10.06</speed><time>2016-06-29T11:25:44Z</time><pdop>3.0</pdop><geoidheight>54.00</geoidheight><course>43.6</course><type>1</type></trkpt>
      <trkpt lat="40.46010719" lon="-5.27700557"><ele>1934</ele><speed>11.62</speed><time>2016-06-29T11:25:45Z</time><pdop>3.0</pdop><geoidheight>54.00</geoidheight><course>61.5</course><type>1</type></trkpt>
      <trkpt lat="40.46012074" lon="-5.27684521"><ele>1934</ele><speed>13.17</speed><time>2016-06-29T11:25:46Z</time><pdop>3.0</pdop><geoidheight>54.00</geoidheight><course>76.2</course><type>1</type></trkpt>
      <trkpt lat="40.46014826" lon="-5.27668756"><ele>1933</ele><speed>13.73</speed><time>2016-06-29T11:25:47Z</time><pdop>3.0</pdop><geoidheight>54.00</geoidheight><course>78.4</course><type>1</type></trkpt>
      <trkpt lat="40.46016368" lon="-5.27651192"><ele>1932</ele><speed>14.14</speed><time>2016-06-29T11:25:48Z</time><pdop>4.0</pdop><geoidheight>54.00</geoidheight><course>81.6</course><type>1</type></trkpt>
      <trkpt lat="40.46009224" lon="-5.27637435"><ele>1933</ele><speed>12.69</speed><time>2016-06-29T11:25:49Z</time><pdop>5.0</pdop><geoidheight>54.00</geoidheight><course>105.4</course><type>1</type></trkpt>
      <trkpt lat="40.45997606" lon="-5.27619755"><ele>1935</ele><speed>14.95</speed><time>2016-06-29T11:25:50Z</time><pdop>4.0</pdop><geoidheight>54.00</geoidheight><course>125.3</course><type>1</type></trkpt>
      <trkpt lat="40.45987442" lon="-5.27606722"><ele>1935</ele><speed>14.90</speed><time>2016-06-29T11:25:51Z</time><pdop>4.0</pdop><geoidheight>54.00</geoidheight><course>132.4</course><type>1</type></trkpt>
      <trkpt lat="40.45976709" lon="-5.2759502"><ele>1935</ele><speed>15.29</speed><time>2016-06-29T11:25:52Z</time><pdop>4.0</pdop><geoidheight>54.00</geoidheight><course>136.7</course><type>1</type></trkpt>
      <trkpt lat="40.45965084" lon="-5.27596271"><ele>1936</ele><speed>13.07</speed><time>2016-06-29T11:25:53Z</time><pdop>4.0</pdop><geoidheight>54.00</geoidheight><course>157.7</course><type>1</type></trkpt>
      <trkpt lat="40.45954752" lon="-5.27601275"><ele>1936</ele><speed>11.44</speed><time>2016-06-29T11:25:54Z</time><pdop>3.0</pdop><geoidheight>54.00</geoidheight><course>183.3</course><type>1</type></trkpt>
      <trkpt lat="40.45947198" lon="-5.27604873"><ele>1935</ele><speed>9.88</speed><time>2016-06-29T11:25:55Z</time><pdop>3.0</pdop><geoidheight>54.00</geoidheight><course>195.3</course><type>1</type></trkpt>
      <trkpt lat="40.45941643" lon="-5.27609857"><ele>1936</ele><speed>7.95</speed><time>2016-06-29T11:25:56Z</time><pdop>3.0</pdop><geoidheight>54.00</geoidheight><course>208.0</course><type>1</type></trkpt>
      <trkpt lat="40.45938533" lon="-5.27615721"><ele>1936</ele><speed>6.29</speed><time>2016-06-29T11:25:57Z</time><pdop>3.0</pdop><geoidheight>54.00</geoidheight><course>225.8</course><type>1</type></trkpt>
      <trkpt lat="40.45936764" lon="-5.27627852"><ele>1933</ele><speed>4.41</speed><time>2016-06-29T11:25:59Z</time><pdop>3.0</pdop><geoidheight>54.00</geoidheight><course>259.1</course><type>1</type></trkpt>
      <trkpt lat="40.45943574" lon="-5.27635425"><ele>1931</ele><speed>4.13</speed><time>2016-06-29T11:26:02Z</time><pdop>3.0</pdop><geoidheight>54.00</geoidheight><course>332.1</course><type>1</type></trkpt>
      <trkpt lat="40.45950927" lon="-5.27637879"><ele>1929</ele><speed>7.10</speed><time>2016-06-29T11:26:03Z</time><pdop>3.0</pdop><geoidheight>54.00</geoidheight><course>345.0</course><type>1</type></trkpt>
      <trkpt lat="40.45958259" lon="-5.27640596"><ele>1927</ele><speed>8.49</speed><time>2016-06-29T11:26:04Z</time><pdop>3.0</pdop><geoidheight>54.00</geoidheight><course>342.8</course><type>1</type></trkpt>
      <trkpt lat="40.45965802" lon="-5.27642498"><ele>1927</ele><speed>9.20</speed><time>2016-06-29T11:26:05Z</time><pdop>3.0</pdop><geoidheight>54.00</geoidheight><course>349.7</course><type>1</type></trkpt>
      <trkpt lat="40.45973959" lon="-5.27644438"><ele>1927</ele><speed>9.20</speed><time>2016-06-29T11:26:06Z</time><pdop>4.0</pdop><geoidheight>54.00</geoidheight><course>349.7</course><type>1</type></trkpt>
      <trkpt lat="40.45981869" lon="-5.27641446"><ele>1926</ele><speed>8.84</speed><time>2016-06-29T11:26:07Z</time><pdop>3.0</pdop><geoidheight>54.00</geoidheight><course>8.1</course><type>1</type></trkpt>
      <trkpt lat="40.45989027" lon="-5.27638403"><ele>1927</ele><speed>8.14</speed><time>2016-06-29T11:26:08Z</time><pdop>3.0</pdop><geoidheight>54.00</geoidheight><course>16.7</course><type>1</type></trkpt>
      <trkpt lat="40.45995584" lon="-5.27634988"><ele>1928</ele><speed>8.65</speed><time>2016-06-29T11:26:09Z</time><pdop>3.0</pdop><geoidheight>54.00</geoidheight><course>19.1</course><type>1</type></trkpt>
      <trkpt lat="40.46003476" lon="-5.27631715"><ele>1927</ele><speed>8.64</speed><time>2016-06-29T11:26:10Z</time><pdop>3.0</pdop><geoidheight>54.00</geoidheight><course>22.8</course><type>1</type></trkpt>
      <trkpt lat="40.46011094" lon="-5.27626783"><ele>1927</ele><speed>9.55</speed><time>2016-06-29T11:26:11Z</time><pdop>3.0</pdop><geoidheight>54.00</geoidheight><course>33.0</course><type>1</type></trkpt>
      <trkpt lat="40.46017014" lon="-5.27618021"><ele>1931</ele><speed>10.82</speed><time>2016-06-29T11:26:12Z</time><pdop>4.0</pdop><geoidheight>54.00</geoidheight><course>53.4</course><type>1</type></trkpt>
      <trkpt lat="40.46021196" lon="-5.27605117"><ele>1930</ele><speed>12.76</speed><time>2016-06-29T11:26:13Z</time><pdop>3.0</pdop><geoidheight>54.00</geoidheight><course>73.9</course><type>1</type></trkpt>
      <trkpt lat="40.46023191" lon="-5.27589489"><ele>1931</ele><speed>14.49</speed><time>2016-06-29T11:26:14Z</time><pdop>3.0</pdop><geoidheight>54.00</geoidheight><course>84.2</course><type>1</type></trkpt>
      <trkpt lat="40.46024491" lon="-5.2757253"><ele>1931</ele><speed>14.46</speed><time>2016-06-29T11:26:15Z</time><pdop>4.0</pdop><geoidheight>54.00</geoidheight><course>84.2</course><type>1</type></trkpt>
      <trkpt lat="40.46023702" lon="-5.27556214"><ele>1931</ele><speed>14.44</speed><time>2016-06-29T11:26:16Z</time><pdop>6.0</pdop><geoidheight>54.00</geoidheight><course>90.0</course><type>1</type></trkpt>
      <trkpt lat="40.46012541" lon="-5.2754631"><ele>1929</ele><speed>12.07</speed><time>2016-06-29T11:26:17Z</time><pdop>6.0</pdop><geoidheight>54.00</geoidheight><course>117.2</course><type>1</type></trkpt>
      <trkpt lat="40.46000585" lon="-5.27537583"><ele>1924</ele><speed>13.12</speed><time>2016-06-29T11:26:18Z</time><pdop>6.0</pdop><geoidheight>54.00</geoidheight><course>136.5</course><type>1</type></trkpt>
      <trkpt lat="40.45986989" lon="-5.27535442"><ele>1926</ele><speed>13.49</speed><time>2016-06-29T11:26:19Z</time><pdop>4.0</pdop><geoidheight>54.00</geoidheight><course>159.3</course><type>1</type></trkpt>
      <trkpt lat="40.45975792" lon="-5.27533478"><ele>1928</ele><speed>12.83</speed><time>2016-06-29T11:26:20Z</time><pdop>4.0</pdop><geoidheight>54.00</geoidheight><course>174.4</course><type>1</type></trkpt>
      <trkpt lat="40.4596569" lon="-5.27534399"><ele>1930</ele><speed>11.35</speed><time>2016-06-29T11:26:21Z</time><pdop>4.0</pdop><geoidheight>54.00</geoidheight><course>187.9</course><type>1</type></trkpt>
      <trkpt lat="40.45957433" lon="-5.27537631"><ele>1931</ele><speed>9.42</speed><time>2016-06-29T11:26:22Z</time><pdop>3.0</pdop><geoidheight>54.00</geoidheight><course>199.7</course><type>1</type></trkpt>
      <trkpt lat="40.45952639" lon="-5.27541907"><ele>1933</ele><speed>6.87</speed><time>2016-06-29T11:26:23Z</time><pdop>3.0</pdop><geoidheight>54.00</geoidheight><course>214.3</course><type>1</type></trkpt>
      <trkpt lat="40.4595873" lon="-5.27547489"><ele>1934</ele><speed>5.87</speed><time>2016-06-29T11:26:26Z</time><pdop>3.0</pdop><geoidheight>54.00</geoidheight><course>352.8</course><type>1</type></trkpt>
      <trkpt lat="40.45965405" lon="-5.27544696"><ele>1934</ele><speed>7.69</speed><time>2016-06-29T11:26:27Z</time><pdop>3.0</pdop><geoidheight>54.00</geoidheight><course>14.8</course><type>1</type></trkpt>
      <trkpt lat="40.45972124" lon="-5.27537889"><ele>1933</ele><speed>8.84</speed><time>2016-06-29T11:26:28Z</time><pdop>3.0</pdop><geoidheight>54.00</geoidheight><course>31.6</course><type>1</type></trkpt>
      <trkpt lat="40.45978503" lon="-5.27530197"><ele>1934</ele><speed>10.25</speed><time>2016-06-29T11:26:29Z</time><pdop>3.0</pdop><geoidheight>54.00</geoidheight><course>41.0</course><type>1</type></trkpt>
      <trkpt lat="40.45983791" lon="-5.27518697"><ele>1936</ele><speed>11.87</speed><time>2016-06-29T11:26:30Z</time><pdop>3.0</pdop><geoidheight>54.00</geoidheight><course>57.2</course><type>1</type></trkpt>
      <trkpt lat="40.45989572" lon="-5.27506962"><ele>1937</ele><speed>11.84</speed><time>2016-06-29T11:26:31Z</time><pdop>4.0</pdop><geoidheight>54.00</geoidheight><course>57.2</course><type>1</type></trkpt>
      <trkpt lat="40.45989217" lon="-5.27490025"><ele>1940</ele><speed>12.64</speed><time>2016-06-29T11:26:32Z</time><pdop>3.0</pdop><geoidheight>54.00</geoidheight><course>82.8</course><type>1</type></trkpt>
      <trkpt lat="40.45989135" lon="-5.27475376"><ele>1941</ele><speed>12.08</speed><time>2016-06-29T11:26:33Z</time><pdop>3.0</pdop><geoidheight>54.00</geoidheight><course>89.8</course><type>1</type></trkpt>
      <trkpt lat="40.45989183" lon="-5.27461146"><ele>1941</ele><speed>12.07</speed><time>2016-06-29T11:26:34Z</time><pdop>5.0</pdop><geoidheight>54.00</geoidheight><course>89.8</course><type>1</type></trkpt>
      <trkpt lat="40.45990927" lon="-5.27448987"><ele>1941</ele><speed>11.12</speed><time>2016-06-29T11:26:35Z</time><pdop>5.0</pdop><geoidheight>54.00</geoidheight><course>78.3</course><type>1</type></trkpt>
      <trkpt lat="40.45992934" lon="-5.27436154"><ele>1941</ele><speed>11.11</speed><time>2016-06-29T11:26:36Z</time><pdop>6.0</pdop><geoidheight>54.00</geoidheight><course>78.4</course><type>1</type></trkpt>
      <trkpt lat="40.46003031" lon="-5.27430299"><ele>1939</ele><speed>9.71</speed><time>2016-06-29T11:26:37Z</time><pdop>5.0</pdop><geoidheight>54.00</geoidheight><course>37.4</course><type>1</type></trkpt>
      <trkpt lat="40.46010453" lon="-5.27424696"><ele>1940</ele><speed>9.52</speed><time>2016-06-29T11:26:38Z</time><pdop>4.0</pdop><geoidheight>54.00</geoidheight><course>21.4</course><type>1</type></trkpt>
      <trkpt lat="40.46024252" lon="-5.27419591"><ele>1942</ele><speed>7.37</speed><time>2016-06-29T11:26:40Z</time><pdop>4.0</pdop><geoidheight>54.00</geoidheight><course>12.8</course><type>1</type></trkpt>
      <trkpt lat="40.46033947" lon="-5.27415401"><ele>1946</ele><speed>7.21</speed><time>2016-06-29T11:26:42Z</time><pdop>5.0</pdop><geoidheight>54.00</geoidheight><course>23.0</course><type>1</type></trkpt>
      <trkpt lat="40.46048894" lon="-5.27408822"><ele>1951</ele><speed>8.87</speed><time>2016-06-29T11:26:44Z</time><pdop>5.0</pdop><geoidheight>54.00</geoidheight><course>17.4</course><type>1</type></trkpt>
      <trkpt lat="40.46061876" lon="-5.27406394"><ele>1954</ele><speed>7.16</speed><time>2016-06-29T11:26:46Z</time><pdop>5.0</pdop><geoidheight>54.00</geoidheight><course>359.6</course><type>1</type></trkpt>
      <trkpt lat="40.46070996" lon="-5.27412268"><ele>1956</ele><speed>4.30</speed><time>2016-06-29T11:26:48Z</time><pdop>5.0</pdop><geoidheight>54.00</geoidheight><course>321.8</course><type>1</type></trkpt>
      <trkpt lat="40.46064456" lon="-5.27430224"><ele>1956</ele><speed>5.13</speed><time>2016-06-29T11:26:51Z</time><pdop>11.0</pdop><geoidheight>54.00</geoidheight><course>241.3</course><type>1</type></trkpt>
      <trkpt lat="40.46047122" lon="-5.27435372"><ele>1956</ele><speed>9.28</speed><time>2016-06-29T11:26:52Z</time><pdop>7.0</pdop><geoidheight>54.00</geoidheight><course>193.5</course><type>1</type></trkpt>
      <trkpt lat="40.46029006" lon="-5.2743911"><ele>1958</ele><speed>10.23</speed><time>2016-06-29T11:26:54Z</time><pdop>9.0</pdop><geoidheight>54.00</geoidheight><course>187.0</course><type>1</type></trkpt>
      <trkpt lat="40.46011871" lon="-5.27401548"><ele>1960</ele><speed>14.75</speed><time>2016-06-29T11:26:56Z</time><pdop>10.0</pdop><geoidheight>54.00</geoidheight><course>114.2</course><type>1</type></trkpt>
      <trkpt lat="40.4600405" lon="-5.27370674"><ele>1964</ele><speed>13.17</speed><time>2016-06-29T11:26:58Z</time><pdop>11.0</pdop><geoidheight>54.00</geoidheight><course>101.5</course><type>1</type></trkpt>
      <trkpt lat="40.46004778" lon="-5.27340741"><ele>1965</ele><speed>12.47</speed><time>2016-06-29T11:27:00Z</time><pdop>13.0</pdop><geoidheight>54.00</geoidheight><course>85.3</course><type>1</type></trkpt>
      <trkpt lat="40.46007019" lon="-5.27310646"><ele>1964</ele><speed>12.54</speed><time>2016-06-29T11:27:02Z</time><pdop>12.0</pdop><geoidheight>54.00</geoidheight><course>84.0</course><type>1</type></trkpt>
      <trkpt lat="40.46015659" lon="-5.27276278"><ele>1969</ele><speed>8.35</speed><time>2016-06-29T11:27:05Z</time><pdop>11.0</pdop><geoidheight>54.00</geoidheight><course>71.0</course><type>1</type></trkpt>
      <trkpt lat="40.46037442" lon="-5.27266148"><ele>1975</ele><speed>8.40</speed><time>2016-06-29T11:27:07Z</time><pdop>11.0</pdop><geoidheight>54.00</geoidheight><course>39.1</course><type>1</type></trkpt>
      <trkpt lat="40.46058749" lon="-5.27261348"><ele>1977</ele><speed>8.53</speed><time>2016-06-29T11:27:09Z</time><pdop>8.0</pdop><geoidheight>54.00</geoidheight><course>14.8</course><type>1</type></trkpt>
      <trkpt lat="40.46070935" lon="-5.27272737"><ele>1979</ele><speed>6.99</speed><time>2016-06-29T11:27:11Z</time><pdop>8.0</pdop><geoidheight>54.00</geoidheight><course>338.0</course><type>1</type></trkpt>
      <trkpt lat="40.46072141" lon="-5.27298122"><ele>1986</ele><speed>5.71</speed><time>2016-06-29T11:27:14Z</time><pdop>9.0</pdop><geoidheight>54.00</geoidheight><course>278.5</course><type>1</type></trkpt>
      <trkpt lat="40.46044319" lon="-5.27301748"><ele>1988</ele><speed>4.93</speed><time>2016-06-29T11:27:17Z</time><pdop>11.0</pdop><geoidheight>54.00</geoidheight><course>181.3</course><type>1</type></trkpt>
      <trkpt lat="40.46017622" lon="-5.27295828"><ele>1991</ele><speed>8.96</speed><time>2016-06-29T11:27:19Z</time><pdop>12.0</pdop><geoidheight>54.00</geoidheight><course>171.0</course><type>1</type></trkpt>
      <trkpt lat="40.4600352" lon="-5.27265165"><ele>1994</ele><speed>10.09</speed><time>2016-06-29T11:27:21Z</time><pdop>16.0</pdop><geoidheight>54.00</geoidheight><course>129.5</course><type>1</type></trkpt>
      <trkpt lat="40.46002137" lon="-5.27215441"><ele>2003</ele><speed>14.45</speed><time>2016-06-29T11:27:23Z</time><pdop>10.0</pdop><geoidheight>54.00</geoidheight><course>84.4</course><type>1</type></trkpt>
      <trkpt lat="40.46007132" lon="-5.27179752"><ele>2011</ele><speed>11.61</speed><time>2016-06-29T11:27:25Z</time><pdop>7.0</pdop><geoidheight>54.00</geoidheight><course>72.2</course><type>1</type></trkpt>
      <trkpt lat="40.46016675" lon="-5.27158416"><ele>2015</ele><speed>8.84</speed><time>2016-06-29T11:27:27Z</time><pdop>6.0</pdop><geoidheight>54.00</geoidheight><course>53.7</course><type>1</type></trkpt>
      <trkpt lat="40.46027174" lon="-5.27145683"><ele>2018</ele><speed>7.55</speed><time>2016-06-29T11:27:29Z</time><pdop>6.0</pdop><geoidheight>54.00</geoidheight><course>32.9</course><type>1</type></trkpt>
      <trkpt lat="40.46039619" lon="-5.27139552"><ele>2017</ele><speed>7.02</speed><time>2016-06-29T11:27:31Z</time><pdop>7.0</pdop><geoidheight>54.00</geoidheight><course>15.9</course><type>1</type></trkpt>
      <trkpt lat="40.46049904" lon="-5.27150925"><ele>2020</ele><speed>8.70</speed><time>2016-06-29T11:27:32Z</time><pdop>5.0</pdop><geoidheight>54.00</geoidheight><course>339.4</course><type>1</type></trkpt>
      <trkpt lat="40.46064413" lon="-5.27156398"><ele>2026</ele><speed>8.30</speed><time>2016-06-29T11:27:34Z</time><pdop>4.0</pdop><geoidheight>54.00</geoidheight><course>347.2</course><type>1</type></trkpt>
      <trkpt lat="40.46074901" lon="-5.27160809"><ele>2029</ele><speed>5.99</speed><time>2016-06-29T11:27:36Z</time><pdop>3.0</pdop><geoidheight>54.00</geoidheight><course>348.8</course><type>1</type></trkpt>
      <trkpt lat="40.46080292" lon="-5.27163008"><ele>2028</ele><speed>6.27</speed><time>2016-06-29T11:27:37Z</time><pdop>3.0</pdop><geoidheight>54.00</geoidheight><course>340.0</course><type>1</type></trkpt>
      <trkpt lat="40.4608675" lon="-5.27167403"><ele>2028</ele><speed>7.90</speed><time>2016-06-29T11:27:38Z</time><pdop>3.0</pdop><geoidheight>54.00</geoidheight><course>335.4</course><type>1</type></trkpt>
      <trkpt lat="40.46094084" lon="-5.27171084"><ele>2029</ele><speed>9.04</speed><time>2016-06-29T11:27:39Z</time><pdop>4.0</pdop><geoidheight>54.00</geoidheight><course>338.9</course><type>1</type></trkpt>
      <trkpt lat="40.46102322" lon="-5.27173369"><ele>2031</ele><speed>9.51</speed><time>2016-06-29T11:27:40Z</time><pdop>4.0</pdop><geoidheight>54.00</geoidheight><course>346.0</course><type>1</type></trkpt>
      <trkpt lat="40.46110576" lon="-5.27174881"><ele>2033</ele><speed>9.93</speed><time>2016-06-29T11:27:41Z</time><pdop>4.0</pdop><geoidheight>54.00</geoidheight><course>353.9</course><type>1</type></trkpt>
      <trkpt lat="40.46120208" lon="-5.27175646"><ele>2034</ele><speed>10.13</speed><time>2016-06-29T11:27:42Z</time><pdop>5.0</pdop><geoidheight>54.00</geoidheight><course>358.6</course><type>1</type></trkpt>
      <trkpt lat="40.46139238" lon="-5.27161252"><ele>2033</ele><speed>11.87</speed><time>2016-06-29T11:27:44Z</time><pdop>6.0</pdop><geoidheight>54.00</geoidheight><course>29.7</course><type>1</type></trkpt>
      <trkpt lat="40.46141597" lon="-5.27145849"><ele>2034</ele><speed>13.05</speed><time>2016-06-29T11:27:45Z</time><pdop>4.0</pdop><geoidheight>54.00</geoidheight><course>59.8</course><type>1</type></trkpt>
      <trkpt lat="40.46144038" lon="-5.27128491"><ele>2035</ele><speed>14.48</speed><time>2016-06-29T11:27:46Z</time><pdop>4.0</pdop><geoidheight>54.00</geoidheight><course>75.0</course><type>1</type></trkpt>
      <trkpt lat="40.46144558" lon="-5.27110464"><ele>2037</ele><speed>15.29</speed><time>2016-06-29T11:27:47Z</time><pdop>4.0</pdop><geoidheight>54.00</geoidheight><course>85.9</course><type>1</type></trkpt>
      <trkpt lat="40.46141194" lon="-5.27092758"><ele>2040</ele><speed>15.53</speed><time>2016-06-29T11:27:48Z</time><pdop>4.0</pdop><geoidheight>54.00</geoidheight><course>99.1</course><type>1</type></trkpt>
      <trkpt lat="40.46136067" lon="-5.27077496"><ele>2042</ele><speed>14.58</speed><time>2016-06-29T11:27:49Z</time><pdop>4.0</pdop><geoidheight>54.00</geoidheight><course>109.5</course><type>1</type></trkpt>
      <trkpt lat="40.46129496" lon="-5.27062953"><ele>2042</ele><speed>14.48</speed><time>2016-06-29T11:27:50Z</time><pdop>4.0</pdop><geoidheight>54.00</geoidheight><course>119.5</course><type>1</type></trkpt>
      <trkpt lat="40.46119054" lon="-5.27054144"><ele>2043</ele><speed>13.97</speed><time>2016-06-29T11:27:51Z</time><pdop>9.0</pdop><geoidheight>54.00</geoidheight><course>139.6</course><type>1</type></trkpt>
      <trkpt lat="40.46096965" lon="-5.27042408"><ele>2045</ele><speed>12.66</speed><time>2016-06-29T11:27:53Z</time><pdop>9.0</pdop><geoidheight>54.00</geoidheight><course>165.6</course><type>1</type></trkpt>
      <trkpt lat="40.46078875" lon="-5.27045996"><ele>2047</ele><speed>9.75</speed><time>2016-06-29T11:27:55Z</time><pdop>9.0</pdop><geoidheight>54.00</geoidheight><course>194.3</course><type>1</type></trkpt>
      <trkpt lat="40.46069982" lon="-5.2705958"><ele>2048</ele><speed>7.15</speed><time>2016-06-29T11:27:57Z</time><pdop>3.0</pdop><geoidheight>54.00</geoidheight><course>240.1</course><type>1</type></trkpt>
      <trkpt lat="40.46068325" lon="-5.2706751"><ele>2048</ele><speed>7.01</speed><time>2016-06-29T11:27:58Z</time><pdop>3.0</pdop><geoidheight>54.00</geoidheight><course>255.9</course><type>1</type></trkpt>
      <trkpt lat="40.4607018" lon="-5.27076277"><ele>2048</ele><speed>7.33</speed><time>2016-06-29T11:27:59Z</time><pdop>3.0</pdop><geoidheight>54.00</geoidheight><course>277.3</course><type>1</type></trkpt>
      <trkpt lat="40.46074377" lon="-5.27084464"><ele>2049</ele><speed>7.85</speed><time>2016-06-29T11:28:00Z</time><pdop>4.0</pdop><geoidheight>54.00</geoidheight><course>294.3</course><type>1</type></trkpt>
      <trkpt lat="40.46088696" lon="-5.27082647"><ele>2055</ele><speed>7.34</speed><time>2016-06-29T11:28:02Z</time><pdop>3.0</pdop><geoidheight>54.00</geoidheight><course>353.1</course><type>1</type></trkpt>
      <trkpt lat="40.46095102" lon="-5.27078858"><ele>2056</ele><speed>7.65</speed><time>2016-06-29T11:28:03Z</time><pdop>3.0</pdop><geoidheight>54.00</geoidheight><course>20.6</course><type>1</type></trkpt>
      <trkpt lat="40.46100029" lon="-5.27072318"><ele>2057</ele><speed>9.21</speed><time>2016-06-29T11:28:04Z</time><pdop>3.0</pdop><geoidheight>54.00</geoidheight><course>46.0</course><type>1</type></trkpt>
      <trkpt lat="40.46104263" lon="-5.27059563"><ele>2056</ele><speed>13.13</speed><time>2016-06-29T11:28:05Z</time><pdop>3.0</pdop><geoidheight>54.00</geoidheight><course>67.2</course><type>1</type></trkpt>
      <trkpt lat="40.46108851" lon="-5.270453"><ele>2056</ele><speed>13.13</speed><time>2016-06-29T11:28:06Z</time><pdop>3.0</pdop><geoidheight>54.00</geoidheight><course>67.2</course><type>1</type></trkpt>
      <trkpt lat="40.46108643" lon="-5.27027159"><ele>2056</ele><speed>15.21</speed><time>2016-06-29T11:28:07Z</time><pdop>3.0</pdop><geoidheight>54.00</geoidheight><course>83.0</course><type>1</type></trkpt>
      <trkpt lat="40.46109816" lon="-5.27009412"><ele>2056</ele><speed>14.73</speed><time>2016-06-29T11:28:08Z</time><pdop>5.0</pdop><geoidheight>54.00</geoidheight><course>85.0</course><type>1</type></trkpt>
      <trkpt lat="40.46100824" lon="-5.26997362"><ele>2056</ele><speed>13.11</speed><time>2016-06-29T11:28:09Z</time><pdop>6.0</pdop><geoidheight>54.00</geoidheight><course>109.2</course><type>1</type></trkpt>
      <trkpt lat="40.46093723" lon="-5.26981251"><ele>2056</ele><speed>13.89</speed><time>2016-06-29T11:28:10Z</time><pdop>8.0</pdop><geoidheight>54.00</geoidheight><course>115.9</course><type>1</type></trkpt>
      <trkpt lat="40.46072317" lon="-5.26966635"><ele>2055</ele><speed>13.63</speed><time>2016-06-29T11:28:12Z</time><pdop>6.0</pdop><geoidheight>54.00</geoidheight><course>154.1</course><type>1</type></trkpt>
      <trkpt lat="40.46061907" lon="-5.26962505"><ele>2056</ele><speed>13.16</speed><time>2016-06-29T11:28:13Z</time><pdop>6.0</pdop><geoidheight>54.00</geoidheight><course>162.3</course><type>1</type></trkpt>
      <trkpt lat="40.46050788" lon="-5.26962371"><ele>2055</ele><speed>11.81</speed><time>2016-06-29T11:28:14Z</time><pdop>6.0</pdop><geoidheight>54.00</geoidheight><course>175.4</course><type>1</type></trkpt>
      <trkpt lat="40.46034527" lon="-5.26966389"><ele>2060</ele><speed>7.46</speed><time>2016-06-29T11:28:16Z</time><pdop>4.0</pdop><geoidheight>54.00</geoidheight><course>219.0</course><type>1</type></trkpt>
      <trkpt lat="40.46031061" lon="-5.26979948"><ele>2060</ele><speed>6.09</speed><time>2016-06-29T11:28:18Z</time><pdop>4.0</pdop><geoidheight>54.00</geoidheight><course>253.9</course><type>1</type></trkpt>
      <trkpt lat="40.4603792" lon="-5.26987486"><ele>2060</ele><speed>7.39</speed><time>2016-06-29T11:28:19Z</time><pdop>4.0</pdop><geoidheight>54.00</geoidheight><course>304.8</course><type>1</type></trkpt>
      <trkpt lat="40.460481" lon="-5.27000314"><ele>2060</ele><speed>8.08</speed><time>2016-06-29T11:28:21Z</time><pdop>7.0</pdop><geoidheight>54.00</geoidheight><course>316.7</course><type>1</type></trkpt>
      <trkpt lat="40.46062749" lon="-5.27004699"><ele>2060</ele><speed>7.23</speed><time>2016-06-29T11:28:23Z</time><pdop>5.0</pdop><geoidheight>54.00</geoidheight><course>342.9</course><type>1</type></trkpt>
      <trkpt lat="40.46075332" lon="-5.26995624"><ele>2060</ele><speed>7.24</speed><time>2016-06-29T11:28:25Z</time><pdop>5.0</pdop><geoidheight>54.00</geoidheight><course>9.5</course><type>1</type></trkpt>
      <trkpt lat="40.46088531" lon="-5.2699025"><ele>2062</ele><speed>8.84</speed><time>2016-06-29T11:28:27Z</time><pdop>4.0</pdop><geoidheight>54.00</geoidheight><course>18.8</course><type>1</type></trkpt>
      <trkpt lat="40.46095209" lon="-5.26983631"><ele>2061</ele><speed>9.35</speed><time>2016-06-29T11:28:28Z</time><pdop>5.0</pdop><geoidheight>54.00</geoidheight><course>29.7</course><type>1</type></trkpt>
      <trkpt lat="40.46100244" lon="-5.26970241"><ele>2063</ele><speed>11.62</speed><time>2016-06-29T11:28:29Z</time><pdop>4.0</pdop><geoidheight>54.00</geoidheight><course>52.9</course><type>1</type></trkpt>
      <trkpt lat="40.46104671" lon="-5.2695483"><ele>2063</ele><speed>12.45</speed><time>2016-06-29T11:28:30Z</time><pdop>5.0</pdop><geoidheight>54.00</geoidheight><course>62.8</course><type>1</type></trkpt>
      <trkpt lat="40.46106176" lon="-5.26939866"><ele>2064</ele><speed>14.20</speed><time>2016-06-29T11:28:31Z</time><pdop>5.0</pdop><geoidheight>54.00</geoidheight><course>84.5</course><type>1</type></trkpt>
      <trkpt lat="40.46104484" lon="-5.26924424"><ele>2065</ele><speed>13.92</speed><time>2016-06-29T11:28:32Z</time><pdop>5.0</pdop><geoidheight>54.00</geoidheight><course>94.0</course><type>1</type></trkpt>
      <trkpt lat="40.46100268" lon="-5.26908553"><ele>2066</ele><speed>14.22</speed><time>2016-06-29T11:28:33Z</time><pdop>4.0</pdop><geoidheight>54.00</geoidheight><course>109.6</course><type>1</type></trkpt>
      <trkpt lat="40.46095961" lon="-5.26892762"><ele>2066</ele><speed>14.22</speed><time>2016-06-29T11:28:34Z</time><pdop>6.0</pdop><geoidheight>54.00</geoidheight><course>109.6</course><type>1</type></trkpt>
      <trkpt lat="40.46085403" lon="-5.26883241"><ele>2068</ele><speed>14.27</speed><time>2016-06-29T11:28:35Z</time><pdop>5.0</pdop><geoidheight>54.00</geoidheight><course>130.5</course><type>1</type></trkpt>
      <trkpt lat="40.46077052" lon="-5.26870463"><ele>2068</ele><speed>14.26</speed><time>2016-06-29T11:28:36Z</time><pdop>8.0</pdop><geoidheight>54.00</geoidheight><course>130.5</course><type>1</type></trkpt>
      <trkpt lat="40.46063859" lon="-5.26871265"><ele>2068</ele><speed>12.55</speed><time>2016-06-29T11:28:37Z</time><pdop>5.0</pdop><geoidheight>54.00</geoidheight><course>162.1</course><type>1</type></trkpt>
      <trkpt lat="40.46053099" lon="-5.26866727"><ele>2067</ele><speed>12.55</speed><time>2016-06-29T11:28:38Z</time><pdop>6.0</pdop><geoidheight>54.00</geoidheight><course>162.1</course><type>1</type></trkpt>
      <trkpt lat="40.46045312" lon="-5.26872663"><ele>2068</ele><speed>10.41</speed><time>2016-06-29T11:28:39Z</time><pdop>4.0</pdop><geoidheight>54.00</geoidheight><course>204.4</course><type>1</type></trkpt>
      <trkpt lat="40.46038122" lon="-5.2687625"><ele>2071</ele><speed>8.82</speed><time>2016-06-29T11:28:40Z</time><pdop>4.0</pdop><geoidheight>54.00</geoidheight><course>217.0</course><type>1</type></trkpt>
      <trkpt lat="40.4603334" lon="-5.2689076"><ele>2072</ele><speed>6.00</speed><time>2016-06-29T11:28:42Z</time><pdop>6.0</pdop><geoidheight>54.00</geoidheight><course>255.2</course><type>1</type></trkpt>
      <trkpt lat="40.46044493" lon="-5.26899388"><ele>2071</ele><speed>6.08</speed><time>2016-06-29T11:28:44Z</time><pdop>5.0</pdop><geoidheight>54.00</geoidheight><course>322.5</course><type>1</type></trkpt>
      <trkpt lat="40.4605661" lon="-5.26901954"><ele>2074</ele><speed>6.88</speed><time>2016-06-29T11:28:46Z</time><pdop>5.0</pdop><geoidheight>54.00</geoidheight><course>342.0</course><type>1</type></trkpt>
      <trkpt lat="40.46068511" lon="-5.26904312"><ele>2073</ele><speed>6.97</speed><time>2016-06-29T11:28:48Z</time><pdop>5.0</pdop><geoidheight>54.00</geoidheight><course>347.8</course><type>1</type></trkpt>
      <trkpt lat="40.46082356" lon="-5.26909399"><ele>2072</ele><speed>8.52</speed><time>2016-06-29T11:28:50Z</time><pdop>4.0</pdop><geoidheight>54.00</geoidheight><course>341.5</course><type>1</type></trkpt>
      <trkpt lat="40.46089977" lon="-5.26912014"><ele>2074</ele><speed>8.60</speed><time>2016-06-29T11:28:51Z</time><pdop>4.0</pdop><geoidheight>54.00</geoidheight><course>347.0</course><type>1</type></trkpt>
      <trkpt lat="40.46098203" lon="-5.26913552"><ele>2074</ele><speed>8.80</speed><time>2016-06-29T11:28:52Z</time><pdop>4.0</pdop><geoidheight>54.00</geoidheight><course>351.9</course><type>1</type></trkpt>
      <trkpt lat="40.46113719" lon="-5.2691328"><ele>2075</ele><speed>8.57</speed><time>2016-06-29T11:28:54Z</time><pdop>4.0</pdop><geoidheight>54.00</geoidheight><course>357.7</course><type>1</type></trkpt>
      <trkpt lat="40.46128615" lon="-5.26915125"><ele>2077</ele><speed>8.43</speed><time>2016-06-29T11:28:56Z</time><pdop>4.0</pdop><geoidheight>54.00</geoidheight><course>2.0</course><type>1</type></trkpt>
      <trkpt lat="40.46136228" lon="-5.26915195"><ele>2079</ele><speed>8.58</speed><time>2016-06-29T11:28:57Z</time><pdop>3.0</pdop><geoidheight>54.00</geoidheight><course>4.3</course><type>1</type></trkpt>
      <trkpt lat="40.46143761" lon="-5.26912854"><ele>2080</ele><speed>8.53</speed><time>2016-06-29T11:28:58Z</time><pdop>3.0</pdop><geoidheight>54.00</geoidheight><course>7.1</course><type>1</type></trkpt>
      <trkpt lat="40.46151659" lon="-5.2691308"><ele>2081</ele><speed>8.16</speed><time>2016-06-29T11:28:59Z</time><pdop>3.0</pdop><geoidheight>54.00</geoidheight><course>5.0</course><type>1</type></trkpt>
      <trkpt lat="40.46158191" lon="-5.26914689"><ele>2084</ele><speed>7.29</speed><time>2016-06-29T11:29:00Z</time><pdop>3.0</pdop><geoidheight>54.00</geoidheight><course>354.3</course><type>1</type></trkpt>
      <trkpt lat="40.46167729" lon="-5.26921225"><ele>2085</ele><speed>5.45</speed><time>2016-06-29T11:29:02Z</time><pdop>3.0</pdop><geoidheight>54.00</geoidheight><course>327.4</course><type>1</type></trkpt>
      <trkpt lat="40.46166959" lon="-5.26929262"><ele>2086</ele><speed>5.06</speed><time>2016-06-29T11:29:03Z</time><pdop>3.0</pdop><geoidheight>54.00</geoidheight><course>273.0</course><type>1</type></trkpt>
      <trkpt lat="40.4616243" lon="-5.26938795"><ele>2087</ele><speed>7.57</speed><time>2016-06-29T11:29:04Z</time><pdop>3.0</pdop><geoidheight>54.00</geoidheight><course>239.2</course><type>1</type></trkpt>
      <trkpt lat="40.46153616" lon="-5.2694579"><ele>2087</ele><speed>9.79</speed><time>2016-06-29T11:29:05Z</time><pdop>3.0</pdop><geoidheight>54.00</geoidheight><course>212.9</course><type>1</type></trkpt>
      <trkpt lat="40.46145337" lon="-5.26950654"><ele>2087</ele><speed>10.06</speed><time>2016-06-29T11:29:06Z</time><pdop>3.0</pdop><geoidheight>54.00</geoidheight><course>204.8</course><type>1</type></trkpt>
      <trkpt lat="40.46135032" lon="-5.26952279"><ele>2086</ele><speed>10.66</speed><time>2016-06-29T11:29:07Z</time><pdop>4.0</pdop><geoidheight>54.00</geoidheight><course>190.2</course><type>1</type></trkpt>
      <trkpt lat="40.46124835" lon="-5.26951798"><ele>2086</ele><speed>11.19</speed><time>2016-06-29T11:29:08Z</time><pdop>5.0</pdop><geoidheight>54.00</geoidheight><course>185.1</course><type>1</type></trkpt>
      <trkpt lat="40.46110378" lon="-5.26942847"><ele>2088</ele><speed>7.85</speed><time>2016-06-29T11:29:10Z</time><pdop>8.0</pdop><geoidheight>54.00</geoidheight><course>163.7</course><type>1</type></trkpt>
      <trkpt lat="40.46102073" lon="-5.26923286"><ele>2087</ele><speed>9.94</speed><time>2016-06-29T11:29:11Z</time><pdop>9.0</pdop><geoidheight>54.00</geoidheight><course>137.8</course><type>1</type></trkpt>
      <trkpt lat="40.46103503" lon="-5.2688872"><ele>2088</ele><speed>14.46</speed><time>2016-06-29T11:29:12Z</time><pdop>6.0</pdop><geoidheight>54.00</geoidheight><course>95.1</course><type>1</type></trkpt>
      <trkpt lat="40.46105291" lon="-5.26870208"><ele>2088</ele><speed>14.15</speed><time>2016-06-29T11:29:13Z</time><pdop>5.0</pdop><geoidheight>54.00</geoidheight><course>81.9</course><type>1</type></trkpt>
      <trkpt lat="40.4610815" lon="-5.26853259"><ele>2089</ele><speed>13.37</speed><time>2016-06-29T11:29:14Z</time><pdop>4.0</pdop><geoidheight>54.00</geoidheight><course>73.5</course><type>1</type></trkpt>
      <trkpt lat="40.46114551" lon="-5.26839158"><ele>2091</ele><speed>12.61</speed><time>2016-06-29T11:29:15Z</time><pdop>4.0</pdop><geoidheight>54.00</geoidheight><course>58.5</course><type>1</type></trkpt>
      <trkpt lat="40.46121016" lon="-5.26829241"><ele>2091</ele><speed>11.49</speed><time>2016-06-29T11:29:16Z</time><pdop>4.0</pdop><geoidheight>54.00</geoidheight><course>48.9</course><type>1</type></trkpt>
      <trkpt lat="40.46128476" lon="-5.26820896"><ele>2092</ele><speed>10.45</speed><time>2016-06-29T11:29:17Z</time><pdop>4.0</pdop><geoidheight>54.00</geoidheight><course>39.4</course><type>1</type></trkpt>
      <trkpt lat="40.46135808" lon="-5.26814945"><ele>2092</ele><speed>9.74</speed><time>2016-06-29T11:29:18Z</time><pdop>4.0</pdop><geoidheight>54.00</geoidheight><course>30.1</course><type>1</type></trkpt>
      <trkpt lat="40.46149991" lon="-5.26809352"><ele>2094</ele><speed>8.11</speed><time>2016-06-29T11:29:20Z</time><pdop>3.0</pdop><geoidheight>54.00</geoidheight><course>14.8</course><type>1</type></trkpt>
      <trkpt lat="40.46157193" lon="-5.26806952"><ele>2095</ele><speed>8.10</speed><time>2016-06-29T11:29:21Z</time><pdop>3.0</pdop><geoidheight>54.00</geoidheight><course>12.6</course><type>1</type></trkpt>
      <trkpt lat="40.46164242" lon="-5.26805558"><ele>2095</ele><speed>8.28</speed><time>2016-06-29T11:29:22Z</time><pdop>3.0</pdop><geoidheight>54.00</geoidheight><course>9.9</course><type>1</type></trkpt>
      <trkpt lat="40.46171469" lon="-5.26803967"><ele>2097</ele><speed>8.40</speed><time>2016-06-29T11:29:23Z</time><pdop>3.0</pdop><geoidheight>54.00</geoidheight><course>10.7</course><type>1</type></trkpt>
      <trkpt lat="40.46178222" lon="-5.26802242"><ele>2099</ele><speed>8.18</speed><time>2016-06-29T11:29:24Z</time><pdop>3.0</pdop><geoidheight>54.00</geoidheight><course>12.8</course><type>1</type></trkpt>
      <trkpt lat="40.46184428" lon="-5.26800161"><ele>2101</ele><speed>7.75</speed><time>2016-06-29T11:29:25Z</time><pdop>3.0</pdop><geoidheight>54.00</geoidheight><course>12.6</course><type>1</type></trkpt>
      <trkpt lat="40.46191248" lon="-5.26799091"><ele>2103</ele><speed>7.46</speed><time>2016-06-29T11:29:26Z</time><pdop>3.0</pdop><geoidheight>54.00</geoidheight><course>7.9</course><type>1</type></trkpt>
      <trkpt lat="40.46198046" lon="-5.26799159"><ele>2105</ele><speed>7.29</speed><time>2016-06-29T11:29:27Z</time><pdop>3.0</pdop><geoidheight>54.00</geoidheight><course>0.9</course><type>1</type></trkpt>
      <trkpt lat="40.46204202" lon="-5.26800089"><ele>2106</ele><speed>7.19</speed><time>2016-06-29T11:29:28Z</time><pdop>3.0</pdop><geoidheight>54.00</geoidheight><course>353.9</course><type>1</type></trkpt>
      <trkpt lat="40.46210142" lon="-5.26802186"><ele>2106</ele><speed>6.27</speed><time>2016-06-29T11:29:29Z</time><pdop>3.0</pdop><geoidheight>54.00</geoidheight><course>342.3</course><type>1</type></trkpt>
      <trkpt lat="40.46216264" lon="-5.26812615"><ele>2107</ele><speed>5.63</speed><time>2016-06-29T11:29:31Z</time><pdop>3.0</pdop><geoidheight>54.00</geoidheight><course>296.2</course><type>1</type></trkpt>
      <trkpt lat="40.46214245" lon="-5.26823984"><ele>2106</ele><speed>7.03</speed><time>2016-06-29T11:29:32Z</time><pdop>3.0</pdop><geoidheight>54.00</geoidheight><course>264.6</course><type>1</type></trkpt>
      <trkpt lat="40.46212014" lon="-5.26833933"><ele>2106</ele><speed>8.17</speed><time>2016-06-29T11:29:33Z</time><pdop>4.0</pdop><geoidheight>54.00</geoidheight><course>258.1</course><type>1</type></trkpt>
      <trkpt lat="40.4620268" lon="-5.26845192"><ele>2105</ele><speed>6.03</speed><time>2016-06-29T11:29:35Z</time><pdop>7.0</pdop><geoidheight>54.00</geoidheight><course>236.4</course><type>1</type></trkpt>
      <trkpt lat="40.46187602" lon="-5.26841741"><ele>2105</ele><speed>8.42</speed><time>2016-06-29T11:29:36Z</time><pdop>7.0</pdop><geoidheight>54.00</geoidheight><course>196.7</course><type>1</type></trkpt>
      <trkpt lat="40.46169256" lon="-5.26827607"><ele>2103</ele><speed>6.95</speed><time>2016-06-29T11:29:38Z</time><pdop>9.0</pdop><geoidheight>54.00</geoidheight><course>159.8</course><type>1</type></trkpt>
      <trkpt lat="40.46158757" lon="-5.26787647"><ele>2104</ele><speed>11.64</speed><time>2016-06-29T11:29:40Z</time><pdop>11.0</pdop><geoidheight>54.00</geoidheight><course>112.3</course><type>1</type></trkpt>
      <trkpt lat="40.4616347" lon="-5.26766251"><ele>2109</ele><speed>13.21</speed><time>2016-06-29T11:29:41Z</time><pdop>7.0</pdop><geoidheight>54.00</geoidheight><course>83.2</course><type>1</type></trkpt>
      <trkpt lat="40.46165403" lon="-5.26746493"><ele>2112</ele><speed>11.77</speed><time>2016-06-29T11:29:42Z</time><pdop>6.0</pdop><geoidheight>54.00</geoidheight><course>72.9</course><type>1</type></trkpt>
      <trkpt lat="40.46169416" lon="-5.26734496"><ele>2113</ele><speed>10.21</speed><time>2016-06-29T11:29:43Z</time><pdop>5.0</pdop><geoidheight>54.00</geoidheight><course>61.8</course><type>1</type></trkpt>
      <trkpt lat="40.46176435" lon="-5.26724949"><ele>2116</ele><speed>9.83</speed><time>2016-06-29T11:29:44Z</time><pdop>5.0</pdop><geoidheight>54.00</geoidheight><course>35.7</course><type>1</type></trkpt>
      <trkpt lat="40.46190066" lon="-5.26717554"><ele>2119</ele><speed>7.98</speed><time>2016-06-29T11:29:46Z</time><pdop>5.0</pdop><geoidheight>54.00</geoidheight><course>13.3</course><type>1</type></trkpt>
      <trkpt lat="40.46203979" lon="-5.2672226"><ele>2122</ele><speed>6.40</speed><time>2016-06-29T11:29:48Z</time><pdop>4.0</pdop><geoidheight>54.00</geoidheight><course>333.7</course><type>1</type></trkpt>
      <trkpt lat="40.4620928" lon="-5.26732824"><ele>2121</ele><speed>5.35</speed><time>2016-06-29T11:29:50Z</time><pdop>3.0</pdop><geoidheight>54.00</geoidheight><course>295.7</course><type>1</type></trkpt>
      <trkpt lat="40.46209291" lon="-5.26740876"><ele>2121</ele><speed>6.35</speed><time>2016-06-29T11:29:51Z</time><pdop>3.0</pdop><geoidheight>54.00</geoidheight><course>272.2</course><type>1</type></trkpt>
      <trkpt lat="40.4620855" lon="-5.26748748"><ele>2121</ele><speed>6.86</speed><time>2016-06-29T11:29:52Z</time><pdop>3.0</pdop><geoidheight>54.00</geoidheight><course>266.2</course><type>1</type></trkpt>
      <trkpt lat="40.46213166" lon="-5.26764072"><ele>2120</ele><speed>7.45</speed><time>2016-06-29T11:29:54Z</time><pdop>3.0</pdop><geoidheight>54.00</geoidheight><course>296.4</course><type>1</type></trkpt>
      <trkpt lat="40.46218024" lon="-5.26773097"><ele>2119</ele><speed>8.04</speed><time>2016-06-29T11:29:55Z</time><pdop>3.0</pdop><geoidheight>54.00</geoidheight><course>305.1</course><type>1</type></trkpt>
      <trkpt lat="40.4622395" lon="-5.26778713"><ele>2119</ele><speed>8.47</speed><time>2016-06-29T11:29:56Z</time><pdop>5.0</pdop><geoidheight>54.00</geoidheight><course>317.9</course><type>1</type></trkpt>
      <trkpt lat="40.46234409" lon="-5.26779379"><ele>2117</ele><speed>9.67</speed><time>2016-06-29T11:29:57Z</time><pdop>4.0</pdop><geoidheight>54.00</geoidheight><course>343.1</course><type>1</type></trkpt>
      <trkpt lat="40.46242596" lon="-5.26780969"><ele>2118</ele><speed>9.30</speed><time>2016-06-29T11:29:58Z</time><pdop>4.0</pdop><geoidheight>54.00</geoidheight><course>347.2</course><type>1</type></trkpt>
      <trkpt lat="40.46250244" lon="-5.26780581"><ele>2120</ele><speed>8.56</speed><time>2016-06-29T11:29:59Z</time><pdop>3.0</pdop><geoidheight>54.00</geoidheight><course>354.4</course><type>1</type></trkpt>
      <trkpt lat="40.46257217" lon="-5.26779337"><ele>2120</ele><speed>8.28</speed><time>2016-06-29T11:30:00Z</time><pdop>4.0</pdop><geoidheight>54.00</geoidheight><course>358.5</course><type>1</type></trkpt>
      <trkpt lat="40.46265215" lon="-5.26781279"><ele>2120</ele><speed>8.58</speed><time>2016-06-29T11:30:01Z</time><pdop>4.0</pdop><geoidheight>54.00</geoidheight><course>356.7</course><type>1</type></trkpt>
      <trkpt lat="40.46272993" lon="-5.2678119"><ele>2120</ele><speed>8.92</speed><time>2016-06-29T11:30:02Z</time><pdop>4.0</pdop><geoidheight>54.00</geoidheight><course>357.4</course><type>1</type></trkpt>
      <trkpt lat="40.46281629" lon="-5.26781907"><ele>2120</ele><speed>9.13</speed><time>2016-06-29T11:30:03Z</time><pdop>4.0</pdop><geoidheight>54.00</geoidheight><course>358.3</course><type>1</type></trkpt>
      <trkpt lat="40.46289581" lon="-5.26781337"><ele>2121</ele><speed>9.14</speed><time>2016-06-29T11:30:04Z</time><pdop>4.0</pdop><geoidheight>54.00</geoidheight><course>359.3</course><type>1</type></trkpt>
      <trkpt lat="40.46297001" lon="-5.26779868"><ele>2119</ele><speed>9.04</speed><time>2016-06-29T11:30:05Z</time><pdop>4.0</pdop><geoidheight>54.00</geoidheight><course>358.1</course><type>1</type></trkpt>
      <trkpt lat="40.46305543" lon="-5.26781313"><ele>2119</ele><speed>9.22</speed><time>2016-06-29T11:30:06Z</time><pdop>4.0</pdop><geoidheight>54.00</geoidheight><course>354.6</course><type>1</type></trkpt>
      <trkpt lat="40.46313968" lon="-5.26781399"><ele>2119</ele><speed>9.52</speed><time>2016-06-29T11:30:07Z</time><pdop>4.0</pdop><geoidheight>54.00</geoidheight><course>353.6</course><type>1</type></trkpt>
      <trkpt lat="40.46323134" lon="-5.26781372"><ele>2118</ele><speed>9.94</speed><time>2016-06-29T11:30:08Z</time><pdop>4.0</pdop><geoidheight>54.00</geoidheight><course>354.1</course><type>1</type></trkpt>
      <trkpt lat="40.46333007" lon="-5.26782565"><ele>2119</ele><speed>10.33</speed><time>2016-06-29T11:30:09Z</time><pdop>3.0</pdop><geoidheight>54.00</geoidheight><course>354.7</course><type>1</type></trkpt>
      <trkpt lat="40.46342716" lon="-5.2678411"><ele>2120</ele><speed>10.37</speed><time>2016-06-29T11:30:10Z</time><pdop>3.0</pdop><geoidheight>54.00</geoidheight><course>357.2</course><type>1</type></trkpt>
      <trkpt lat="40.46351799" lon="-5.26785578"><ele>2122</ele><speed>10.08</speed><time>2016-06-29T11:30:11Z</time><pdop>3.0</pdop><geoidheight>54.00</geoidheight><course>358.4</course><type>1</type></trkpt>
      <trkpt lat="40.46360775" lon="-5.26787147"><ele>2123</ele><speed>9.84</speed><time>2016-06-29T11:30:12Z</time><pdop>3.0</pdop><geoidheight>54.00</geoidheight><course>358.0</course><type>1</type></trkpt>
      <trkpt lat="40.46368987" lon="-5.26786401"><ele>2124</ele><speed>9.51</speed><time>2016-06-29T11:30:13Z</time><pdop>3.0</pdop><geoidheight>54.00</geoidheight><course>1.2</course><type>1</type></trkpt>
      <trkpt lat="40.46376915" lon="-5.26785908"><ele>2124</ele><speed>9.51</speed><time>2016-06-29T11:30:14Z</time><pdop>3.0</pdop><geoidheight>54.00</geoidheight><course>2.6</course><type>1</type></trkpt>
      <trkpt lat="40.46385867" lon="-5.26784857"><ele>2123</ele><speed>10.02</speed><time>2016-06-29T11:30:15Z</time><pdop>3.0</pdop><geoidheight>54.00</geoidheight><course>3.7</course><type>1</type></trkpt>
      <trkpt lat="40.46395951" lon="-5.26785081"><ele>2123</ele><speed>10.81</speed><time>2016-06-29T11:30:16Z</time><pdop>3.0</pdop><geoidheight>54.00</geoidheight><course>2.1</course><type>1</type></trkpt>
      <trkpt lat="40.4640617" lon="-5.26785039"><ele>2122</ele><speed>11.27</speed><time>2016-06-29T11:30:17Z</time><pdop>3.0</pdop><geoidheight>54.00</geoidheight><course>359.7</course><type>1</type></trkpt>
      <trkpt lat="40.46416095" lon="-5.26785207"><ele>2124</ele><speed>11.10</speed><time>2016-06-29T11:30:18Z</time><pdop>3.0</pdop><geoidheight>54.00</geoidheight><course>359.6</course><type>1</type></trkpt>
      <trkpt lat="40.46425942" lon="-5.26783528"><ele>2125</ele><speed>10.83</speed><time>2016-06-29T11:30:19Z</time><pdop>3.0</pdop><geoidheight>54.00</geoidheight><course>4.1</course><type>1</type></trkpt>
      <trkpt lat="40.46435352" lon="-5.26781479"><ele>2126</ele><speed>10.73</speed><time>2016-06-29T11:30:20Z</time><pdop>3.0</pdop><geoidheight>54.00</geoidheight><course>9.6</course><type>1</type></trkpt>
      <trkpt lat="40.46445143" lon="-5.2677713"><ele>2127</ele><speed>11.11</speed><time>2016-06-29T11:30:21Z</time><pdop>3.0</pdop><geoidheight>54.00</geoidheight><course>17.1</course><type>1</type></trkpt>
      <trkpt lat="40.46454439" lon="-5.26770652"><ele>2128</ele><speed>11.71</speed><time>2016-06-29T11:30:22Z</time><pdop>3.0</pdop><geoidheight>54.00</geoidheight><course>25.7</course><type>1</type></trkpt>
      <trkpt lat="40.4646332" lon="-5.26762417"><ele>2129</ele><speed>12.29</speed><time>2016-06-29T11:30:23Z</time><pdop>3.0</pdop><geoidheight>54.00</geoidheight><course>33.9</course><type>1</type></trkpt>
      <trkpt lat="40.4647161" lon="-5.26752802"><ele>2131</ele><speed>12.41</speed><time>2016-06-29T11:30:24Z</time><pdop>3.0</pdop><geoidheight>54.00</geoidheight><course>41.4</course><type>1</type></trkpt>
      <trkpt lat="40.46479464" lon="-5.26743348"><ele>2132</ele><speed>12.11</speed><time>2016-06-29T11:30:25Z</time><pdop>3.0</pdop><geoidheight>54.00</geoidheight><course>44.2</course><type>1</type></trkpt>
      <trkpt lat="40.46487386" lon="-5.26734054"><ele>2132</ele><speed>11.60</speed><time>2016-06-29T11:30:26Z</time><pdop>3.0</pdop><geoidheight>54.00</geoidheight><course>41.6</course><type>1</type></trkpt>
      <trkpt lat="40.46496044" lon="-5.26726387"><ele>2133</ele><speed>11.32</speed><time>2016-06-29T11:30:27Z</time><pdop>3.0</pdop><geoidheight>54.00</geoidheight><course>34.8</course><type>1</type></trkpt>
      <trkpt lat="40.46505622" lon="-5.26720152"><ele>2133</ele><speed>11.56</speed><time>2016-06-29T11:30:28Z</time><pdop>3.0</pdop><geoidheight>54.00</geoidheight><course>26.1</course><type>1</type></trkpt>
      <trkpt lat="40.46515859" lon="-5.26719176"><ele>2132</ele><speed>10.98</speed><time>2016-06-29T11:30:29Z</time><pdop>3.0</pdop><geoidheight>54.00</geoidheight><course>10.1</course><type>1</type></trkpt>
      <trkpt lat="40.46525308" lon="-5.26720302"><ele>2133</ele><speed>10.18</speed><time>2016-06-29T11:30:30Z</time><pdop>3.0</pdop><geoidheight>54.00</geoidheight><course>355.5</course><type>1</type></trkpt>
      <trkpt lat="40.46532403" lon="-5.26724962"><ele>2133</ele><speed>8.64</speed><time>2016-06-29T11:30:31Z</time><pdop>3.0</pdop><geoidheight>54.00</geoidheight><course>337.0</course><type>1</type></trkpt>
      <trkpt lat="40.4653769" lon="-5.26730298"><ele>2133</ele><speed>7.65</speed><time>2016-06-29T11:30:32Z</time><pdop>3.0</pdop><geoidheight>54.00</geoidheight><course>328.2</course><type>1</type></trkpt>
      <trkpt lat="40.46537545" lon="-5.26743101"><ele>2134</ele><speed>5.23</speed><time>2016-06-29T11:30:34Z</time><pdop>4.0</pdop><geoidheight>54.00</geoidheight><course>270.3</course><type>1</type></trkpt>
      <trkpt lat="40.46532701" lon="-5.26751284"><ele>2135</ele><speed>5.87</speed><time>2016-06-29T11:30:35Z</time><pdop>3.0</pdop><geoidheight>54.00</geoidheight><course>238.9</course><type>1</type></trkpt>
      <trkpt lat="40.46522346" lon="-5.26758781"><ele>2134</ele><speed>5.52</speed><time>2016-06-29T11:30:37Z</time><pdop>5.0</pdop><geoidheight>54.00</geoidheight><course>218.3</course><type>1</type></trkpt>
      <trkpt lat="40.46512921" lon="-5.26756361"><ele>2135</ele><speed>6.81</speed><time>2016-06-29T11:30:38Z</time><pdop>5.0</pdop><geoidheight>54.00</geoidheight><course>189.1</course><type>1</type></trkpt>
      <trkpt lat="40.46502891" lon="-5.26748493"><ele>2135</ele><speed>4.15</speed><time>2016-06-29T11:30:40Z</time><pdop>7.0</pdop><geoidheight>54.00</geoidheight><course>159.4</course><type>1</type></trkpt>
      <trkpt lat="40.46498983" lon="-5.26700157"><ele>2136</ele><speed>12.88</speed><time>2016-06-29T11:30:42Z</time><pdop>8.0</pdop><geoidheight>54.00</geoidheight><course>92.0</course><type>1</type></trkpt>
      <trkpt lat="40.46501808" lon="-5.26673704"><ele>2140</ele><speed>14.49</speed><time>2016-06-29T11:30:43Z</time><pdop>7.0</pdop><geoidheight>54.00</geoidheight><course>74.3</course><type>1</type></trkpt>
      <trkpt lat="40.46505349" lon="-5.26657258"><ele>2140</ele><speed>14.49</speed><time>2016-06-29T11:30:44Z</time><pdop>7.0</pdop><geoidheight>54.00</geoidheight><course>74.3</course><type>1</type></trkpt>
      <trkpt lat="40.46509496" lon="-5.26636376"><ele>2141</ele><speed>15.49</speed><time>2016-06-29T11:30:45Z</time><pdop>8.0</pdop><geoidheight>54.00</geoidheight><course>71.7</course><type>1</type></trkpt>
      <trkpt lat="40.46517773" lon="-5.26623784"><ele>2143</ele><speed>13.80</speed><time>2016-06-29T11:30:46Z</time><pdop>6.0</pdop><geoidheight>54.00</geoidheight><course>56.6</course><type>1</type></trkpt>
      <trkpt lat="40.46527822" lon="-5.26612691"><ele>2145</ele><speed>12.92</speed><time>2016-06-29T11:30:47Z</time><pdop>6.0</pdop><geoidheight>54.00</geoidheight><course>41.7</course><type>1</type></trkpt>
      <trkpt lat="40.46536998" lon="-5.26601386"><ele>2147</ele><speed>12.70</speed><time>2016-06-29T11:30:48Z</time><pdop>6.0</pdop><geoidheight>54.00</geoidheight><course>38.3</course><type>1</type></trkpt>
      <trkpt lat="40.46555447" lon="-5.26594575"><ele>2148</ele><speed>11.08</speed><time>2016-06-29T11:30:50Z</time><pdop>5.0</pdop><geoidheight>54.00</geoidheight><course>9.8</course><type>1</type></trkpt>
      <trkpt lat="40.46565476" lon="-5.26594255"><ele>2147</ele><speed>10.72</speed><time>2016-06-29T11:30:51Z</time><pdop>5.0</pdop><geoidheight>54.00</geoidheight><course>2.6</course><type>1</type></trkpt>
      <trkpt lat="40.46582927" lon="-5.26592397"><ele>2148</ele><speed>11.12</speed><time>2016-06-29T11:30:53Z</time><pdop>5.0</pdop><geoidheight>54.00</geoidheight><course>0.5</course><type>1</type></trkpt>
      <trkpt lat="40.46594554" lon="-5.26591091"><ele>2150</ele><speed>12.41</speed><time>2016-06-29T11:30:54Z</time><pdop>5.0</pdop><geoidheight>54.00</geoidheight><course>4.9</course><type>1</type></trkpt>
      <trkpt lat="40.46606882" lon="-5.26588186"><ele>2151</ele><speed>13.51</speed><time>2016-06-29T11:30:55Z</time><pdop>4.0</pdop><geoidheight>54.00</geoidheight><course>7.6</course><type>1</type></trkpt>
      <trkpt lat="40.46618444" lon="-5.26585139"><ele>2151</ele><speed>13.74</speed><time>2016-06-29T11:30:56Z</time><pdop>4.0</pdop><geoidheight>54.00</geoidheight><course>9.5</course><type>1</type></trkpt>
      <trkpt lat="40.46629921" lon="-5.26580477"><ele>2151</ele><speed>13.29</speed><time>2016-06-29T11:30:57Z</time><pdop>4.0</pdop><geoidheight>54.00</geoidheight><course>12.0</course><type>1</type></trkpt>
      <trkpt lat="40.46640953" lon="-5.26577444"><ele>2151</ele><speed>12.90</speed><time>2016-06-29T11:30:58Z</time><pdop>5.0</pdop><geoidheight>54.00</geoidheight><course>13.4</course><type>1</type></trkpt>
      <trkpt lat="40.46651653" lon="-5.26572083"><ele>2151</ele><speed>12.64</speed><time>2016-06-29T11:30:59Z</time><pdop>4.0</pdop><geoidheight>54.00</geoidheight><course>16.4</course><type>1</type></trkpt>
      <trkpt lat="40.466614" lon="-5.26568761"><ele>2153</ele><speed>11.49</speed><time>2016-06-29T11:31:00Z</time><pdop>4.0</pdop><geoidheight>54.00</geoidheight><course>14.2</course><type>1</type></trkpt>
      <trkpt lat="40.46670877" lon="-5.26566332"><ele>2154</ele><speed>10.05</speed><time>2016-06-29T11:31:01Z</time><pdop>3.0</pdop><geoidheight>54.00</geoidheight><course>9.8</course><type>1</type></trkpt>
      <trkpt lat="40.46678165" lon="-5.26566347"><ele>2154</ele><speed>9.17</speed><time>2016-06-29T11:31:02Z</time><pdop>4.0</pdop><geoidheight>54.00</geoidheight><course>359.8</course><type>1</type></trkpt>
      <trkpt lat="40.46686503" lon="-5.26569214"><ele>2152</ele><speed>9.01</speed><time>2016-06-29T11:31:03Z</time><pdop>4.0</pdop><geoidheight>54.00</geoidheight><course>349.2</course><type>1</type></trkpt>
      <trkpt lat="40.46693783" lon="-5.26571769"><ele>2151</ele><speed>9.32</speed><time>2016-06-29T11:31:04Z</time><pdop>4.0</pdop><geoidheight>54.00</geoidheight><course>340.7</course><type>1</type></trkpt>
      <trkpt lat="40.46700916" lon="-5.26577323"><ele>2150</ele><speed>9.14</speed><time>2016-06-29T11:31:05Z</time><pdop>4.0</pdop><geoidheight>54.00</geoidheight><course>335.9</course><type>1</type></trkpt>
      <trkpt lat="40.46708527" lon="-5.26583409"><ele>2149</ele><speed>9.14</speed><time>2016-06-29T11:31:06Z</time><pdop>3.0</pdop><geoidheight>54.00</geoidheight><course>331.6</course><type>1</type></trkpt>
      <trkpt lat="40.46715698" lon="-5.26589831"><ele>2148</ele><speed>8.75</speed><time>2016-06-29T11:31:07Z</time><pdop>3.0</pdop><geoidheight>54.00</geoidheight><course>329.2</course><type>1</type></trkpt>
      <trkpt lat="40.46721392" lon="-5.26594355"><ele>2148</ele><speed>7.52</speed><time>2016-06-29T11:31:08Z</time><pdop>3.0</pdop><geoidheight>54.00</geoidheight><course>330.0</course><type>1</type></trkpt>
      <trkpt lat="40.46726134" lon="-5.26598337"><ele>2148</ele><speed>6.55</speed><time>2016-06-29T11:31:09Z</time><pdop>3.0</pdop><geoidheight>54.00</geoidheight><course>328.1</course><type>1</type></trkpt>
      <trkpt lat="40.46735742" lon="-5.26605233"><ele>2146</ele><speed>6.37</speed><time>2016-06-29T11:31:11Z</time><pdop>5.0</pdop><geoidheight>54.00</geoidheight><course>327.1</course><type>1</type></trkpt>
      <trkpt lat="40.46747955" lon="-5.2661137"><ele>2142</ele><speed>8.01</speed><time>2016-06-29T11:31:13Z</time><pdop>6.0</pdop><geoidheight>54.00</geoidheight><course>325.9</course><type>1</type></trkpt>
      <trkpt lat="40.46765275" lon="-5.26629471"><ele>2137</ele><speed>12.06</speed><time>2016-06-29T11:31:15Z</time><pdop>6.0</pdop><geoidheight>54.00</geoidheight><course>320.6</course><type>1</type></trkpt>
      <trkpt lat="40.46774519" lon="-5.26637237"><ele>2135</ele><speed>11.63</speed><time>2016-06-29T11:31:16Z</time><pdop>6.0</pdop><geoidheight>54.00</geoidheight><course>327.1</course><type>1</type></trkpt>
      <trkpt lat="40.46791159" lon="-5.26647377"><ele>2133</ele><speed>10.07</speed><time>2016-06-29T11:31:18Z</time><pdop>6.0</pdop><geoidheight>54.00</geoidheight><course>340.5</course><type>1</type></trkpt>
      <trkpt lat="40.46808504" lon="-5.26653651"><ele>2130</ele><speed>9.46</speed><time>2016-06-29T11:31:20Z</time><pdop>5.0</pdop><geoidheight>54.00</geoidheight><course>340.4</course><type>1</type></trkpt>
      <trkpt lat="40.46823574" lon="-5.26661054"><ele>2128</ele><speed>8.68</speed><time>2016-06-29T11:31:22Z</time><pdop>5.0</pdop><geoidheight>54.00</geoidheight><course>338.6</course><type>1</type></trkpt>
      <trkpt lat="40.46834892" lon="-5.2666635"><ele>2125</ele><speed>6.84</speed><time>2016-06-29T11:31:24Z</time><pdop>5.0</pdop><geoidheight>54.00</geoidheight><course>332.8</course><type>1</type></trkpt>
      <trkpt lat="40.4684543" lon="-5.26677012"><ele>2126</ele><speed>6.81</speed><time>2016-06-29T11:31:26Z</time><pdop>3.0</pdop><geoidheight>54.00</geoidheight><course>330.4</course><type>1</type></trkpt>
      <trkpt lat="40.46851466" lon="-5.2667765"><ele>2125</ele><speed>6.73</speed><time>2016-06-29T11:31:27Z</time><pdop>3.0</pdop><geoidheight>54.00</geoidheight><course>337.5</course><type>1</type></trkpt>
      <trkpt lat="40.46860859" lon="-5.26682482"><ele>2123</ele><speed>5.84</speed><time>2016-06-29T11:31:29Z</time><pdop>3.0</pdop><geoidheight>54.00</geoidheight><course>333.0</course><type>1</type></trkpt>
      <trkpt lat="40.46865382" lon="-5.26686941"><ele>2123</ele><speed>6.19</speed><time>2016-06-29T11:31:30Z</time><pdop>3.0</pdop><geoidheight>54.00</geoidheight><course>321.1</course><type>1</type></trkpt>
      <trkpt lat="40.46869823" lon="-5.26692667"><ele>2123</ele><speed>6.67</speed><time>2016-06-29T11:31:31Z</time><pdop>3.0</pdop><geoidheight>54.00</geoidheight><course>315.6</course><type>1</type></trkpt>
      <trkpt lat="40.4687461" lon="-5.26699199"><ele>2124</ele><speed>7.18</speed><time>2016-06-29T11:31:32Z</time><pdop>3.0</pdop><geoidheight>54.00</geoidheight><course>316.7</course><type>1</type></trkpt>
      <trkpt lat="40.46879893" lon="-5.26703212"><ele>2123</ele><speed>7.23</speed><time>2016-06-29T11:31:33Z</time><pdop>3.0</pdop><geoidheight>54.00</geoidheight><course>318.4</course><type>1</type></trkpt>
      <trkpt lat="40.46885573" lon="-5.26708589"><ele>2123</ele><speed>6.88</speed><time>2016-06-29T11:31:34Z</time><pdop>4.0</pdop><geoidheight>54.00</geoidheight><course>320.0</course><type>1</type></trkpt>
      <trkpt lat="40.46893825" lon="-5.26720178"><ele>2125</ele><speed>6.26</speed><time>2016-06-29T11:31:36Z</time><pdop>3.0</pdop><geoidheight>54.00</geoidheight><course>317.6</course><type>1</type></trkpt>
      <trkpt lat="40.46901955" lon="-5.26728741"><ele>2125</ele><speed>6.86</speed><time>2016-06-29T11:31:38Z</time><pdop>3.0</pdop><geoidheight>54.00</geoidheight><course>321.6</course><type>1</type></trkpt>
      <trkpt lat="40.46907566" lon="-5.26733473"><ele>2127</ele><speed>6.86</speed><time>2016-06-29T11:31:39Z</time><pdop>3.0</pdop><geoidheight>54.00</geoidheight><course>324.2</course><type>1</type></trkpt>
      <trkpt lat="40.46912364" lon="-5.26737944"><ele>2128</ele><speed>6.42</speed><time>2016-06-29T11:31:40Z</time><pdop>3.0</pdop><geoidheight>54.00</geoidheight><course>320.3</course><type>1</type></trkpt>
      <trkpt lat="40.46917018" lon="-5.26742244"><ele>2129</ele><speed>6.26</speed><time>2016-06-29T11:31:41Z</time><pdop>3.0</pdop><geoidheight>54.00</geoidheight><course>322.8</course><type>1</type></trkpt>
      <trkpt lat="40.46921861" lon="-5.26746366"><ele>2130</ele><speed>6.26</speed><time>2016-06-29T11:31:42Z</time><pdop>3.0</pdop><geoidheight>54.00</geoidheight><course>321.4</course><type>1</type></trkpt>
      <trkpt lat="40.46926226" lon="-5.26752441"><ele>2131</ele><speed>6.73</speed><time>2016-06-29T11:31:43Z</time><pdop>3.0</pdop><geoidheight>54.00</geoidheight><course>318.8</course><type>1</type></trkpt>
      <trkpt lat="40.46931058" lon="-5.26758396"><ele>2134</ele><speed>7.30</speed><time>2016-06-29T11:31:44Z</time><pdop>3.0</pdop><geoidheight>54.00</geoidheight><course>318.1</course><type>1</type></trkpt>
      <trkpt lat="40.46935753" lon="-5.26763369"><ele>2137</ele><speed>7.13</speed><time>2016-06-29T11:31:45Z</time><pdop>3.0</pdop><geoidheight>54.00</geoidheight><course>321.6</course><type>1</type></trkpt>
      <trkpt lat="40.4694475" lon="-5.26771615"><ele>2141</ele><speed>6.26</speed><time>2016-06-29T11:31:47Z</time><pdop>3.0</pdop><geoidheight>54.00</geoidheight><course>325.6</course><type>1</type></trkpt>
      <trkpt lat="40.46949776" lon="-5.2677528"><ele>2142</ele><speed>5.99</speed><time>2016-06-29T11:31:48Z</time><pdop>3.0</pdop><geoidheight>54.00</geoidheight><course>329.3</course><type>1</type></trkpt>
      <trkpt lat="40.46954149" lon="-5.26780091"><ele>2143</ele><speed>5.89</speed><time>2016-06-29T11:31:49Z</time><pdop>3.0</pdop><geoidheight>54.00</geoidheight><course>325.2</course><type>1</type></trkpt>
      <trkpt lat="40.46958147" lon="-5.2678591"><ele>2144</ele><speed>6.08</speed><time>2016-06-29T11:31:50Z</time><pdop>3.0</pdop><geoidheight>54.00</geoidheight><course>320.9</course><type>1</type></trkpt>
      <trkpt lat="40.46962668" lon="-5.26791159"><ele>2146</ele><speed>6.16</speed><time>2016-06-29T11:31:51Z</time><pdop>3.0</pdop><geoidheight>54.00</geoidheight><course>324.1</course><type>1</type></trkpt>
      <trkpt lat="40.4697234" lon="-5.26800202"><ele>2151</ele><speed>6.49</speed><time>2016-06-29T11:31:53Z</time><pdop>3.0</pdop><geoidheight>54.00</geoidheight><course>330.8</course><type>1</type></trkpt>
      <trkpt lat="40.46976098" lon="-5.26806503"><ele>2154</ele><speed>5.96</speed><time>2016-06-29T11:31:54Z</time><pdop>3.0</pdop><geoidheight>54.00</geoidheight><course>321.6</course><type>1</type></trkpt>
      <trkpt lat="40.46978168" lon="-5.26813195"><ele>2156</ele><speed>5.53</speed><time>2016-06-29T11:31:55Z</time><pdop>3.0</pdop><geoidheight>54.00</geoidheight><course>299.8</course><type>1</type></trkpt>
      <trkpt lat="40.46979012" lon="-5.26820345"><ele>2159</ele><speed>5.17</speed><time>2016-06-29T11:31:56Z</time><pdop>3.0</pdop><geoidheight>54.00</geoidheight><course>283.4</course><type>1</type></trkpt>
      <trkpt lat="40.46974313" lon="-5.26831246"><ele>2162</ele><speed>4.87</speed><time>2016-06-29T11:31:58Z</time><pdop>3.0</pdop><geoidheight>54.00</geoidheight><course>233.0</course><type>1</type></trkpt>
      <trkpt lat="40.46968655" lon="-5.26832382"><ele>2163</ele><speed>5.49</speed><time>2016-06-29T11:31:59Z</time><pdop>3.0</pdop><geoidheight>54.00</geoidheight><course>194.5</course><type>1</type></trkpt>
      <trkpt lat="40.46961947" lon="-5.26831151"><ele>2164</ele><speed>7.00</speed><time>2016-06-29T11:32:00Z</time><pdop>3.0</pdop><geoidheight>54.00</geoidheight><course>170.3</course><type>1</type></trkpt>
      <trkpt lat="40.46954575" lon="-5.26826117"><ele>2164</ele><speed>9.03</speed><time>2016-06-29T11:32:01Z</time><pdop>3.0</pdop><geoidheight>54.00</geoidheight><course>153.8</course><type>1</type></trkpt>
      <trkpt lat="40.46947197" lon="-5.26817026"><ele>2164</ele><speed>10.71</speed><time>2016-06-29T11:32:02Z</time><pdop>3.0</pdop><geoidheight>54.00</geoidheight><course>139.9</course><type>1</type></trkpt>
      <trkpt lat="40.46940706" lon="-5.26803258"><ele>2166</ele><speed>12.74</speed><time>2016-06-29T11:32:03Z</time><pdop>3.0</pdop><geoidheight>54.00</geoidheight><course>123.9</course><type>1</type></trkpt>
      <trkpt lat="40.46936408" lon="-5.26787778"><ele>2166</ele><speed>13.23</speed><time>2016-06-29T11:32:04Z</time><pdop>4.0</pdop><geoidheight>54.00</geoidheight><course>112.9</course><type>1</type></trkpt>
      <trkpt lat="40.46934028" lon="-5.26769345"><ele>2167</ele><speed>14.86</speed><time>2016-06-29T11:32:05Z</time><pdop>4.0</pdop><geoidheight>54.00</geoidheight><course>101.2</course><type>1</type></trkpt>
      <trkpt lat="40.46930542" lon="-5.26749664"><ele>2167</ele><speed>15.41</speed><time>2016-06-29T11:32:06Z</time><pdop>5.0</pdop><geoidheight>54.00</geoidheight><course>100.3</course><type>1</type></trkpt>
      <trkpt lat="40.46941089" lon="-5.26731044"><ele>2170</ele><speed>15.52</speed><time>2016-06-29T11:32:07Z</time><pdop>4.0</pdop><geoidheight>54.00</geoidheight><course>71.0</course><type>1</type></trkpt>
      <trkpt lat="40.46947531" lon="-5.26714092"><ele>2170</ele><speed>15.16</speed><time>2016-06-29T11:32:08Z</time><pdop>4.0</pdop><geoidheight>54.00</geoidheight><course>65.8</course><type>1</type></trkpt>
      <trkpt lat="40.46955163" lon="-5.26697482"><ele>2173</ele><speed>15.42</speed><time>2016-06-29T11:32:09Z</time><pdop>4.0</pdop><geoidheight>54.00</geoidheight><course>57.3</course><type>1</type></trkpt>
      <trkpt lat="40.46964561" lon="-5.26681409"><ele>2174</ele><speed>16.08</speed><time>2016-06-29T11:32:10Z</time><pdop>4.0</pdop><geoidheight>54.00</geoidheight><course>53.4</course><type>1</type></trkpt>
      <trkpt lat="40.46977376" lon="-5.26668318"><ele>2177</ele><speed>16.61</speed><time>2016-06-29T11:32:11Z</time><pdop>4.0</pdop><geoidheight>54.00</geoidheight><course>41.9</course><type>1</type></trkpt>
      <trkpt lat="40.46987935" lon="-5.26656813"><ele>2178</ele><speed>15.73</speed><time>2016-06-29T11:32:12Z</time><pdop>4.0</pdop><geoidheight>54.00</geoidheight><course>37.4</course><type>1</type></trkpt>
      <trkpt lat="40.47001176" lon="-5.26648237"><ele>2180</ele><speed>15.81</speed><time>2016-06-29T11:32:13Z</time><pdop>4.0</pdop><geoidheight>54.00</geoidheight><course>28.2</course><type>1</type></trkpt>
      <trkpt lat="40.47013859" lon="-5.26642381"><ele>2181</ele><speed>14.31</speed><time>2016-06-29T11:32:14Z</time><pdop>4.0</pdop><geoidheight>54.00</geoidheight><course>21.7</course><type>1</type></trkpt>
      <trkpt lat="40.47025508" lon="-5.26638637"><ele>2182</ele><speed>13.34</speed><time>2016-06-29T11:32:15Z</time><pdop>4.0</pdop><geoidheight>54.00</geoidheight><course>17.7</course><type>1</type></trkpt>
      <trkpt lat="40.47033725" lon="-5.26638258"><ele>2182</ele><speed>11.44</speed><time>2016-06-29T11:32:16Z</time><pdop>4.0</pdop><geoidheight>54.00</geoidheight><course>10.6</course><type>1</type></trkpt>
      <trkpt lat="40.47042415" lon="-5.26640455"><ele>2183</ele><speed>10.01</speed><time>2016-06-29T11:32:17Z</time><pdop>4.0</pdop><geoidheight>54.00</geoidheight><course>1.5</course><type>1</type></trkpt>
      <trkpt lat="40.4704994" lon="-5.26650138"><ele>2184</ele><speed>6.04</speed><time>2016-06-29T11:32:19Z</time><pdop>4.0</pdop><geoidheight>54.00</geoidheight><course>333.1</course><type>1</type></trkpt>
      <trkpt lat="40.47052382" lon="-5.26658551"><ele>2187</ele><speed>5.61</speed><time>2016-06-29T11:32:20Z</time><pdop>3.0</pdop><geoidheight>54.00</geoidheight><course>306.4</course><type>1</type></trkpt>
      <trkpt lat="40.47052475" lon="-5.26670203"><ele>2191</ele><speed>5.20</speed><time>2016-06-29T11:32:22Z</time><pdop>3.0</pdop><geoidheight>54.00</geoidheight><course>259.4</course><type>1</type></trkpt>
      <trkpt lat="40.47046985" lon="-5.26678357"><ele>2195</ele><speed>3.86</speed><time>2016-06-29T11:32:24Z</time><pdop>3.0</pdop><geoidheight>54.00</geoidheight><course>217.8</course><type>1</type></trkpt>
      <trkpt lat="40.47036491" lon="-5.26678306"><ele>2198</ele><speed>6.13</speed><time>2016-06-29T11:32:26Z</time><pdop>3.0</pdop><geoidheight>54.00</geoidheight><course>169.2</course><type>1</type></trkpt>
      <trkpt lat="40.47029477" lon="-5.26675415"><ele>2200</ele><speed>8.04</speed><time>2016-06-29T11:32:27Z</time><pdop>3.0</pdop><geoidheight>54.00</geoidheight><course>157.2</course><type>1</type></trkpt>
      <trkpt lat="40.47021618" lon="-5.266666"><ele>2201</ele><speed>10.18</speed><time>2016-06-29T11:32:28Z</time><pdop>3.0</pdop><geoidheight>54.00</geoidheight><course>140.9</course><type>1</type></trkpt>
      <trkpt lat="40.47015659" lon="-5.2665752"><ele>2202</ele><speed>10.09</speed><time>2016-06-29T11:32:29Z</time><pdop>3.0</pdop><geoidheight>54.00</geoidheight><course>130.4</course><type>1</type></trkpt>
      <trkpt lat="40.47013316" lon="-5.26646091"><ele>2203</ele><speed>9.60</speed><time>2016-06-29T11:32:30Z</time><pdop>4.0</pdop><geoidheight>54.00</geoidheight><course>111.4</course><type>1</type></trkpt>
      <trkpt lat="40.47011508" lon="-5.26623851"><ele>2202</ele><speed>13.61</speed><time>2016-06-29T11:32:31Z</time><pdop>4.0</pdop><geoidheight>54.00</geoidheight><course>96.7</course><type>1</type></trkpt>
      <trkpt lat="40.47011824" lon="-5.26604054"><ele>2203</ele><speed>15.28</speed><time>2016-06-29T11:32:32Z</time><pdop>4.0</pdop><geoidheight>54.00</geoidheight><course>92.3</course><type>1</type></trkpt>
      <trkpt lat="40.47025064" lon="-5.26586416"><ele>2204</ele><speed>16.60</speed><time>2016-06-29T11:32:33Z</time><pdop>4.0</pdop><geoidheight>54.00</geoidheight><course>62.9</course><type>1</type></trkpt>
      <trkpt lat="40.47033926" lon="-5.26569941"><ele>2206</ele><speed>16.57</speed><time>2016-06-29T11:32:34Z</time><pdop>4.0</pdop><geoidheight>54.00</geoidheight><course>54.5</course><type>1</type></trkpt>
      <trkpt lat="40.47045969" lon="-5.26557947"><ele>2208</ele><speed>16.50</speed><time>2016-06-29T11:32:35Z</time><pdop>4.0</pdop><geoidheight>54.00</geoidheight><course>41.5</course><type>1</type></trkpt>
      <trkpt lat="40.47058705" lon="-5.26547237"><ele>2209</ele><speed>15.62</speed><time>2016-06-29T11:32:36Z</time><pdop>4.0</pdop><geoidheight>54.00</geoidheight><course>31.7</course><type>1</type></trkpt>
      <trkpt lat="40.47070263" lon="-5.26539339"><ele>2209</ele><speed>14.94</speed><time>2016-06-29T11:32:37Z</time><pdop>4.0</pdop><geoidheight>54.00</geoidheight><course>24.7</course><type>1</type></trkpt>
      <trkpt lat="40.4708279" lon="-5.26534717"><ele>2212</ele><speed>13.92</speed><time>2016-06-29T11:32:38Z</time><pdop>3.0</pdop><geoidheight>54.00</geoidheight><course>15.9</course><type>1</type></trkpt>
      <trkpt lat="40.47094261" lon="-5.26530489"><ele>2213</ele><speed>13.59</speed><time>2016-06-29T11:32:39Z</time><pdop>3.0</pdop><geoidheight>54.00</geoidheight><course>12.9</course><type>1</type></trkpt>
      <trkpt lat="40.47106075" lon="-5.26527104"><ele>2215</ele><speed>13.09</speed><time>2016-06-29T11:32:40Z</time><pdop>3.0</pdop><geoidheight>54.00</geoidheight><course>7.8</course><type>1</type></trkpt>
      <trkpt lat="40.471173" lon="-5.26525478"><ele>2218</ele><speed>12.21</speed><time>2016-06-29T11:32:41Z</time><pdop>3.0</pdop><geoidheight>54.00</geoidheight><course>5.4</course><type>1</type></trkpt>
      <trkpt lat="40.47127089" lon="-5.26525943"><ele>2219</ele><speed>10.83</speed><time>2016-06-29T11:32:42Z</time><pdop>3.0</pdop><geoidheight>54.00</geoidheight><course>359.4</course><type>1</type></trkpt>
      <trkpt lat="40.47134825" lon="-5.26527848"><ele>2220</ele><speed>9.49</speed><time>2016-06-29T11:32:43Z</time><pdop>3.0</pdop><geoidheight>54.00</geoidheight><course>351.0</course><type>1</type></trkpt>
      <trkpt lat="40.47141523" lon="-5.26532054"><ele>2220</ele><speed>8.85</speed><time>2016-06-29T11:32:44Z</time><pdop>3.0</pdop><geoidheight>54.00</geoidheight><course>337.6</course><type>1</type></trkpt>
      <trkpt lat="40.4714783" lon="-5.26537432"><ele>2221</ele><speed>8.89</speed><time>2016-06-29T11:32:45Z</time><pdop>3.0</pdop><geoidheight>54.00</geoidheight><course>328.6</course><type>1</type></trkpt>
      <trkpt lat="40.47154114" lon="-5.26542353"><ele>2221</ele><speed>8.35</speed><time>2016-06-29T11:32:46Z</time><pdop>3.0</pdop><geoidheight>54.00</geoidheight><course>329.2</course><type>1</type></trkpt>
      <trkpt lat="40.47160491" lon="-5.26546298"><ele>2222</ele><speed>7.83</speed><time>2016-06-29T11:32:47Z</time><pdop>3.0</pdop><geoidheight>54.00</geoidheight><course>333.2</course><type>1</type></trkpt>
      <trkpt lat="40.47166517" lon="-5.26549634"><ele>2223</ele><speed>7.04</speed><time>2016-06-29T11:32:48Z</time><pdop>3.0</pdop><geoidheight>54.00</geoidheight><course>338.0</course><type>1</type></trkpt>
      <trkpt lat="40.47172036" lon="-5.26552179"><ele>2225</ele><speed>6.65</speed><time>2016-06-29T11:32:49Z</time><pdop>3.0</pdop><geoidheight>54.00</geoidheight><course>342.5</course><type>1</type></trkpt>
      <trkpt lat="40.47177185" lon="-5.26555645"><ele>2226</ele><speed>6.30</speed><time>2016-06-29T11:32:50Z</time><pdop>3.0</pdop><geoidheight>54.00</geoidheight><course>339.2</course><type>1</type></trkpt>
      <trkpt lat="40.47181886" lon="-5.26560284"><ele>2226</ele><speed>6.35</speed><time>2016-06-29T11:32:51Z</time><pdop>3.0</pdop><geoidheight>54.00</geoidheight><course>331.1</course><type>1</type></trkpt>
      <trkpt lat="40.47186263" lon="-5.26564918"><ele>2226</ele><speed>6.49</speed><time>2016-06-29T11:32:52Z</time><pdop>3.0</pdop><geoidheight>54.00</geoidheight><course>323.7</course><type>1</type></trkpt>
      <trkpt lat="40.4719098" lon="-5.26571353"><ele>2226</ele><speed>6.97</speed><time>2016-06-29T11:32:53Z</time><pdop>3.0</pdop><geoidheight>54.00</geoidheight><course>321.1</course><type>1</type></trkpt>
      <trkpt lat="40.47196431" lon="-5.26575538"><ele>2225</ele><speed>7.46</speed><time>2016-06-29T11:32:54Z</time><pdop>3.0</pdop><geoidheight>54.00</geoidheight><course>322.4</course><type>1</type></trkpt>
      <trkpt lat="40.47202414" lon="-5.2658116"><ele>2225</ele><speed>8.26</speed><time>2016-06-29T11:32:55Z</time><pdop>3.0</pdop><geoidheight>54.00</geoidheight><course>321.8</course><type>1</type></trkpt>
      <trkpt lat="40.47208582" lon="-5.26588125"><ele>2225</ele><speed>9.25</speed><time>2016-06-29T11:32:56Z</time><pdop>3.0</pdop><geoidheight>54.00</geoidheight><course>320.2</course><type>1</type></trkpt>
      <trkpt lat="40.47215689" lon="-5.26595803"><ele>2226</ele><speed>9.76</speed><time>2016-06-29T11:32:57Z</time><pdop>3.0</pdop><geoidheight>54.00</geoidheight><course>321.6</course><type>1</type></trkpt>
      <trkpt lat="40.47222311" lon="-5.26602875"><ele>2228</ele><speed>9.58</speed><time>2016-06-29T11:32:58Z</time><pdop>3.0</pdop><geoidheight>54.00</geoidheight><course>321.5</course><type>1</type></trkpt>
      <trkpt lat="40.47228704" lon="-5.26609859"><ele>2230</ele><speed>9.16</speed><time>2016-06-29T11:32:59Z</time><pdop>3.0</pdop><geoidheight>54.00</geoidheight><course>322.5</course><type>1</type></trkpt>
      <trkpt lat="40.47234309" lon="-5.26615879"><ele>2231</ele><speed>8.39</speed><time>2016-06-29T11:33:00Z</time><pdop>3.0</pdop><geoidheight>54.00</geoidheight><course>321.0</course><type>1</type></trkpt>
      <trkpt lat="40.47239638" lon="-5.26621899"><ele>2233</ele><speed>7.62</speed><time>2016-06-29T11:33:01Z</time><pdop>3.0</pdop><geoidheight>54.00</geoidheight><course>321.1</course><type>1</type></trkpt>
      <trkpt lat="40.47245295" lon="-5.26626457"><ele>2233</ele><speed>7.80</speed><time>2016-06-29T11:33:02Z</time><pdop>3.0</pdop><geoidheight>54.00</geoidheight><course>327.0</course><type>1</type></trkpt>
      <trkpt lat="40.4725171" lon="-5.26631353"><ele>2234</ele><speed>7.82</speed><time>2016-06-29T11:33:03Z</time><pdop>3.0</pdop><geoidheight>54.00</geoidheight><course>327.9</course><type>1</type></trkpt>
      <trkpt lat="40.47258753" lon="-5.26635053"><ele>2236</ele><speed>7.96</speed><time>2016-06-29T11:33:04Z</time><pdop>3.0</pdop><geoidheight>54.00</geoidheight><course>331.7</course><type>1</type></trkpt>
      <trkpt lat="40.47266288" lon="-5.2663934"><ele>2237</ele><speed>8.15</speed><time>2016-06-29T11:33:05Z</time><pdop>3.0</pdop><geoidheight>54.00</geoidheight><course>332.2</course><type>1</type></trkpt>
      <trkpt lat="40.4727309" lon="-5.26644259"><ele>2239</ele><speed>8.31</speed><time>2016-06-29T11:33:06Z</time><pdop>3.0</pdop><geoidheight>54.00</geoidheight><course>330.4</course><type>1</type></trkpt>
      <trkpt lat="40.47279259" lon="-5.26648749"><ele>2241</ele><speed>7.80</speed><time>2016-06-29T11:33:07Z</time><pdop>3.0</pdop><geoidheight>54.00</geoidheight><course>330.3</course><type>1</type></trkpt>
      <trkpt lat="40.47285211" lon="-5.26651832"><ele>2242</ele><speed>7.56</speed><time>2016-06-29T11:33:08Z</time><pdop>3.0</pdop><geoidheight>54.00</geoidheight><course>336.4</course><type>1</type></trkpt>
      <trkpt lat="40.47291436" lon="-5.26656571"><ele>2244</ele><speed>7.71</speed><time>2016-06-29T11:33:09Z</time><pdop>3.0</pdop><geoidheight>54.00</geoidheight><course>333.2</course><type>1</type></trkpt>
      <trkpt lat="40.47297586" lon="-5.26661386"><ele>2245</ele><speed>7.82</speed><time>2016-06-29T11:33:10Z</time><pdop>3.0</pdop><geoidheight>54.00</geoidheight><course>330.1</course><type>1</type></trkpt>
      <trkpt lat="40.47304018" lon="-5.26667073"><ele>2246</ele><speed>8.11</speed><time>2016-06-29T11:33:11Z</time><pdop>3.0</pdop><geoidheight>54.00</geoidheight><course>327.1</course><type>1</type></trkpt>
      <trkpt lat="40.47310248" lon="-5.26673184"><ele>2247</ele><speed>8.37</speed><time>2016-06-29T11:33:12Z</time><pdop>3.0</pdop><geoidheight>54.00</geoidheight><course>326.8</course><type>1</type></trkpt>
      <trkpt lat="40.47316053" lon="-5.26678549"><ele>2249</ele><speed>8.48</speed><time>2016-06-29T11:33:13Z</time><pdop>3.0</pdop><geoidheight>54.00</geoidheight><course>328.2</course><type>1</type></trkpt>
      <trkpt lat="40.47322502" lon="-5.26682856"><ele>2250</ele><speed>8.24</speed><time>2016-06-29T11:33:14Z</time><pdop>3.0</pdop><geoidheight>54.00</geoidheight><course>332.2</course><type>1</type></trkpt>
      <trkpt lat="40.47328547" lon="-5.26687049"><ele>2251</ele><speed>7.95</speed><time>2016-06-29T11:33:15Z</time><pdop>3.0</pdop><geoidheight>54.00</geoidheight><course>335.3</course><type>1</type></trkpt>
      <trkpt lat="40.47335019" lon="-5.26691515"><ele>2251</ele><speed>7.97</speed><time>2016-06-29T11:33:16Z</time><pdop>3.0</pdop><geoidheight>54.00</geoidheight><course>332.6</course><type>1</type></trkpt>
      <trkpt lat="40.47340655" lon="-5.26697153"><ele>2252</ele><speed>7.95</speed><time>2016-06-29T11:33:17Z</time><pdop>3.0</pdop><geoidheight>54.00</geoidheight><course>326.1</course><type>1</type></trkpt>
      <trkpt lat="40.47344932" lon="-5.26703064"><ele>2252</ele><speed>7.00</speed><time>2016-06-29T11:33:18Z</time><pdop>3.0</pdop><geoidheight>54.00</geoidheight><course>318.3</course><type>1</type></trkpt>
      <trkpt lat="40.47348139" lon="-5.26715094"><ele>2253</ele><speed>5.18</speed><time>2016-06-29T11:33:20Z</time><pdop>3.0</pdop><geoidheight>54.00</geoidheight><course>277.7</course><type>1</type></trkpt>
      <trkpt lat="40.47345672" lon="-5.26722121"><ele>2253</ele><speed>3.64</speed><time>2016-06-29T11:33:22Z</time><pdop>3.0</pdop><geoidheight>54.00</geoidheight><course>243.0</course><type>1</type></trkpt>
      <trkpt lat="40.47335679" lon="-5.26725402"><ele>2256</ele><speed>5.75</speed><time>2016-06-29T11:33:24Z</time><pdop>4.0</pdop><geoidheight>54.00</geoidheight><course>176.3</course><type>1</type></trkpt>
      <trkpt lat="40.47322908" lon="-5.26718185"><ele>2257</ele><speed>8.21</speed><time>2016-06-29T11:33:26Z</time><pdop>4.0</pdop><geoidheight>54.00</geoidheight><course>148.5</course><type>1</type></trkpt>
      <trkpt lat="40.47315362" lon="-5.26706021"><ele>2257</ele><speed>11.23</speed><time>2016-06-29T11:33:27Z</time><pdop>4.0</pdop><geoidheight>54.00</geoidheight><course>130.9</course><type>1</type></trkpt>
      <trkpt lat="40.47309489" lon="-5.26694738"><ele>2248</ele><speed>11.45</speed><time>2016-06-29T11:33:28Z</time><pdop>4.0</pdop><geoidheight>54.00</geoidheight><course>123.2</course><type>1</type></trkpt>
      <trkpt lat="40.47305849" lon="-5.26681624"><ele>2251</ele><speed>11.81</speed><time>2016-06-29T11:33:29Z</time><pdop>5.0</pdop><geoidheight>54.00</geoidheight><course>112.1</course><type>1</type></trkpt>
      <trkpt lat="40.47301066" lon="-5.26666411"><ele>2253</ele><speed>13.10</speed><time>2016-06-29T11:33:30Z</time><pdop>6.0</pdop><geoidheight>54.00</geoidheight><course>110.3</course><type>1</type></trkpt>
      <trkpt lat="40.47298552" lon="-5.26647646"><ele>2255</ele><speed>14.20</speed><time>2016-06-29T11:33:31Z</time><pdop>7.0</pdop><geoidheight>54.00</geoidheight><course>104.6</course><type>1</type></trkpt>
      <trkpt lat="40.47296472" lon="-5.26625671"><ele>2256</ele><speed>16.07</speed><time>2016-06-29T11:33:32Z</time><pdop>7.0</pdop><geoidheight>54.00</geoidheight><course>99.4</course><type>1</type></trkpt>
      <trkpt lat="40.47307682" lon="-5.26605288"><ele>2259</ele><speed>15.87</speed><time>2016-06-29T11:33:33Z</time><pdop>5.0</pdop><geoidheight>54.00</geoidheight><course>77.2</course><type>1</type></trkpt>
      <trkpt lat="40.47312303" lon="-5.26586731"><ele>2262</ele><speed>15.13</speed><time>2016-06-29T11:33:34Z</time><pdop>5.0</pdop><geoidheight>54.00</geoidheight><course>67.7</course><type>1</type></trkpt>
      <trkpt lat="40.47318896" lon="-5.26571454"><ele>2263</ele><speed>14.19</speed><time>2016-06-29T11:33:35Z</time><pdop>4.0</pdop><geoidheight>54.00</geoidheight><course>57.7</course><type>1</type></trkpt>
      <trkpt lat="40.47326539" lon="-5.26558404"><ele>2265</ele><speed>13.46</speed><time>2016-06-29T11:33:36Z</time><pdop>4.0</pdop><geoidheight>54.00</geoidheight><course>51.0</course><type>1</type></trkpt>
      <trkpt lat="40.47334322" lon="-5.26547521"><ele>2266</ele><speed>12.82</speed><time>2016-06-29T11:33:37Z</time><pdop>4.0</pdop><geoidheight>54.00</geoidheight><course>48.6</course><type>1</type></trkpt>
      <trkpt lat="40.47345596" lon="-5.26540035"><ele>2268</ele><speed>12.77</speed><time>2016-06-29T11:33:38Z</time><pdop>4.0</pdop><geoidheight>54.00</geoidheight><course>32.5</course><type>1</type></trkpt>
      <trkpt lat="40.47355971" lon="-5.26533809"><ele>2268</ele><speed>12.25</speed><time>2016-06-29T11:33:39Z</time><pdop>4.0</pdop><geoidheight>54.00</geoidheight><course>23.7</course><type>1</type></trkpt>
      <trkpt lat="40.47367197" lon="-5.26530179"><ele>2269</ele><speed>12.16</speed><time>2016-06-29T11:33:40Z</time><pdop>3.0</pdop><geoidheight>54.00</geoidheight><course>14.7</course><type>1</type></trkpt>
      <trkpt lat="40.47377533" lon="-5.26528207"><ele>2270</ele><speed>11.35</speed><time>2016-06-29T11:33:41Z</time><pdop>3.0</pdop><geoidheight>54.00</geoidheight><course>9.3</course><type>1</type></trkpt>
      <trkpt lat="40.47387541" lon="-5.26527021"><ele>2272</ele><speed>10.47</speed><time>2016-06-29T11:33:42Z</time><pdop>3.0</pdop><geoidheight>54.00</geoidheight><course>4.7</course><type>1</type></trkpt>
      <trkpt lat="40.47396253" lon="-5.26527207"><ele>2272</ele><speed>9.91</speed><time>2016-06-29T11:33:43Z</time><pdop>3.0</pdop><geoidheight>54.00</geoidheight><course>0.6</course><type>1</type></trkpt>
      <trkpt lat="40.47405114" lon="-5.2652794"><ele>2272</ele><speed>9.68</speed><time>2016-06-29T11:33:44Z</time><pdop>3.0</pdop><geoidheight>54.00</geoidheight><course>357.3</course><type>1</type></trkpt>
      <trkpt lat="40.47413782" lon="-5.26528125"><ele>2273</ele><speed>9.59</speed><time>2016-06-29T11:33:45Z</time><pdop>3.0</pdop><geoidheight>54.00</geoidheight><course>356.2</course><type>1</type></trkpt>
      <trkpt lat="40.47422554" lon="-5.26529568"><ele>2274</ele><speed>9.83</speed><time>2016-06-29T11:33:46Z</time><pdop>3.0</pdop><geoidheight>54.00</geoidheight><course>354.8</course><type>1</type></trkpt>
      <trkpt lat="40.47431357" lon="-5.26530883"><ele>2274</ele><speed>10.27</speed><time>2016-06-29T11:33:47Z</time><pdop>3.0</pdop><geoidheight>54.00</geoidheight><course>354.6</course><type>1</type></trkpt>
      <trkpt lat="40.47440998" lon="-5.26532198"><ele>2267</ele><speed>10.37</speed><time>2016-06-29T11:33:48Z</time><pdop>3.0</pdop><geoidheight>54.00</geoidheight><course>355.5</course><type>1</type></trkpt>
      <trkpt lat="40.47450609" lon="-5.26532499"><ele>2269</ele><speed>10.07</speed><time>2016-06-29T11:33:49Z</time><pdop>3.0</pdop><geoidheight>54.00</geoidheight><course>357.6</course><type>1</type></trkpt>
      <trkpt lat="40.47459207" lon="-5.2653281"><ele>2272</ele><speed>9.85</speed><time>2016-06-29T11:33:50Z</time><pdop>3.0</pdop><geoidheight>54.00</geoidheight><course>0.1</course><type>1</type></trkpt>
      <trkpt lat="40.47467959" lon="-5.26532497"><ele>2274</ele><speed>9.87</speed><time>2016-06-29T11:33:51Z</time><pdop>3.0</pdop><geoidheight>54.00</geoidheight><course>359.9</course><type>1</type></trkpt>
      <trkpt lat="40.47476836" lon="-5.26532509"><ele>2275</ele><speed>9.86</speed><time>2016-06-29T11:33:52Z</time><pdop>3.0</pdop><geoidheight>54.00</geoidheight><course>359.9</course><type>1</type></trkpt>
      <trkpt lat="40.47485756" lon="-5.26532396"><ele>2275</ele><speed>9.56</speed><time>2016-06-29T11:33:53Z</time><pdop>3.0</pdop><geoidheight>54.00</geoidheight><course>359.8</course><type>1</type></trkpt>
      <trkpt lat="40.4749367" lon="-5.265316"><ele>2275</ele><speed>9.75</speed><time>2016-06-29T11:33:54Z</time><pdop>3.0</pdop><geoidheight>54.00</geoidheight><course>0.8</course><type>1</type></trkpt>
      <trkpt lat="40.47502525" lon="-5.26531175"><ele>2277</ele><speed>9.59</speed><time>2016-06-29T11:33:55Z</time><pdop>3.0</pdop><geoidheight>54.00</geoidheight><course>2.0</course><type>1</type></trkpt>
      <trkpt lat="40.4751056" lon="-5.26531105"><ele>2278</ele><speed>9.46</speed><time>2016-06-29T11:33:56Z</time><pdop>3.0</pdop><geoidheight>54.00</geoidheight><course>6.3</course><type>1</type></trkpt>
      <trkpt lat="40.47518977" lon="-5.26528989"><ele>2278</ele><speed>9.61</speed><time>2016-06-29T11:33:57Z</time><pdop>3.0</pdop><geoidheight>54.00</geoidheight><course>9.9</course><type>1</type></trkpt>
      <trkpt lat="40.47527487" lon="-5.26527038"><ele>2279</ele><speed>9.59</speed><time>2016-06-29T11:33:58Z</time><pdop>4.0</pdop><geoidheight>54.00</geoidheight><course>9.9</course><type>1</type></trkpt>
      <trkpt lat="40.47536735" lon="-5.26524187"><ele>2279</ele><speed>10.03</speed><time>2016-06-29T11:33:59Z</time><pdop>5.0</pdop><geoidheight>54.00</geoidheight><course>12.0</course><type>1</type></trkpt>
      <trkpt lat="40.47546047" lon="-5.26521479"><ele>2282</ele><speed>11.13</speed><time>2016-06-29T11:34:00Z</time><pdop>4.0</pdop><geoidheight>54.00</geoidheight><course>11.7</course><type>1</type></trkpt>
      <trkpt lat="40.47555131" lon="-5.26517669"><ele>2283</ele><speed>10.90</speed><time>2016-06-29T11:34:01Z</time><pdop>4.0</pdop><geoidheight>54.00</geoidheight><course>12.9</course><type>1</type></trkpt>
      <trkpt lat="40.47571747" lon="-5.26513337"><ele>2283</ele><speed>10.33</speed><time>2016-06-29T11:34:03Z</time><pdop>7.0</pdop><geoidheight>54.00</geoidheight><course>9.9</course><type>1</type></trkpt>
      <trkpt lat="40.47590772" lon="-5.26511819"><ele>2284</ele><speed>10.65</speed><time>2016-06-29T11:34:05Z</time><pdop>6.0</pdop><geoidheight>54.00</geoidheight><course>4.4</course><type>1</type></trkpt>
      <trkpt lat="40.47612728" lon="-5.26511036"><ele>2284</ele><speed>12.42</speed><time>2016-06-29T11:34:07Z</time><pdop>5.0</pdop><geoidheight>54.00</geoidheight><course>3.5</course><type>1</type></trkpt>
      <trkpt lat="40.4762415" lon="-5.26510118"><ele>2283</ele><speed>13.40</speed><time>2016-06-29T11:34:08Z</time><pdop>5.0</pdop><geoidheight>54.00</geoidheight><course>359.5</course><type>1</type></trkpt>
      <trkpt lat="40.47636206" lon="-5.26510245"><ele>2282</ele><speed>13.39</speed><time>2016-06-29T11:34:09Z</time><pdop>6.0</pdop><geoidheight>54.00</geoidheight><course>359.5</course><type>1</type></trkpt>
      <trkpt lat="40.47648562" lon="-5.26511302"><ele>2282</ele><speed>13.82</speed><time>2016-06-29T11:34:10Z</time><pdop>5.0</pdop><geoidheight>54.00</geoidheight><course>357.8</course><type>1</type></trkpt>
      <trkpt lat="40.47660552" lon="-5.26511244"><ele>2283</ele><speed>13.20</speed><time>2016-06-29T11:34:11Z</time><pdop>4.0</pdop><geoidheight>54.00</geoidheight><course>1.5</course><type>1</type></trkpt>
      <trkpt lat="40.47672486" lon="-5.26508322"><ele>2282</ele><speed>13.37</speed><time>2016-06-29T11:34:12Z</time><pdop>4.0</pdop><geoidheight>54.00</geoidheight><course>8.3</course><type>1</type></trkpt>
      <trkpt lat="40.4768343" lon="-5.26505483"><ele>2282</ele><speed>12.53</speed><time>2016-06-29T11:34:13Z</time><pdop>4.0</pdop><geoidheight>54.00</geoidheight><course>13.2</course><type>1</type></trkpt>
      <trkpt lat="40.47693869" lon="-5.26501793"><ele>2281</ele><speed>11.35</speed><time>2016-06-29T11:34:14Z</time><pdop>4.0</pdop><geoidheight>54.00</geoidheight><course>12.3</course><type>1</type></trkpt>
      <trkpt lat="40.47704576" lon="-5.26501209"><ele>2280</ele><speed>11.39</speed><time>2016-06-29T11:34:15Z</time><pdop>4.0</pdop><geoidheight>54.00</geoidheight><course>5.1</course><type>1</type></trkpt>
      <trkpt lat="40.47715342" lon="-5.26501315"><ele>2279</ele><speed>11.58</speed><time>2016-06-29T11:34:16Z</time><pdop>3.0</pdop><geoidheight>54.00</geoidheight><course>1.0</course><type>1</type></trkpt>
      <trkpt lat="40.47725857" lon="-5.26501437"><ele>2280</ele><speed>11.31</speed><time>2016-06-29T11:34:17Z</time><pdop>3.0</pdop><geoidheight>54.00</geoidheight><course>2.5</course><type>1</type></trkpt>
      <trkpt lat="40.47735938" lon="-5.26499979"><ele>2279</ele><speed>10.85</speed><time>2016-06-29T11:34:18Z</time><pdop>3.0</pdop><geoidheight>54.00</geoidheight><course>4.6</course><type>1</type></trkpt>
      <trkpt lat="40.47745569" lon="-5.26498609"><ele>2279</ele><speed>10.74</speed><time>2016-06-29T11:34:19Z</time><pdop>3.0</pdop><geoidheight>54.00</geoidheight><course>6.2</course><type>1</type></trkpt>
      <trkpt lat="40.47754624" lon="-5.26497746"><ele>2278</ele><speed>10.38</speed><time>2016-06-29T11:34:20Z</time><pdop>3.0</pdop><geoidheight>54.00</geoidheight><course>5.6</course><type>1</type></trkpt>
      <trkpt lat="40.47766254" lon="-5.26496454"><ele>2277</ele><speed>11.77</speed><time>2016-06-29T11:34:21Z</time><pdop>3.0</pdop><geoidheight>54.00</geoidheight><course>6.7</course><type>1</type></trkpt>
      <trkpt lat="40.47776679" lon="-5.26495563"><ele>2276</ele><speed>12.13</speed><time>2016-06-29T11:34:22Z</time><pdop>3.0</pdop><geoidheight>54.00</geoidheight><course>2.8</course><type>1</type></trkpt>
      <trkpt lat="40.47787148" lon="-5.26494633"><ele>2276</ele><speed>11.92</speed><time>2016-06-29T11:34:23Z</time><pdop>4.0</pdop><geoidheight>54.00</geoidheight><course>3.8</course><type>1</type></trkpt>
      <trkpt lat="40.47796838" lon="-5.26493487"><ele>2275</ele><speed>11.43</speed><time>2016-06-29T11:34:24Z</time><pdop>4.0</pdop><geoidheight>54.00</geoidheight><course>4.8</course><type>1</type></trkpt>
      <trkpt lat="40.47806948" lon="-5.26492773"><ele>2275</ele><speed>11.41</speed><time>2016-06-29T11:34:25Z</time><pdop>4.0</pdop><geoidheight>54.00</geoidheight><course>5.0</course><type>1</type></trkpt>
      <trkpt lat="40.47815806" lon="-5.26491561"><ele>2275</ele><speed>10.70</speed><time>2016-06-29T11:34:26Z</time><pdop>5.0</pdop><geoidheight>54.00</geoidheight><course>4.6</course><type>1</type></trkpt>
      <trkpt lat="40.47826344" lon="-5.26490798"><ele>2273</ele><speed>11.20</speed><time>2016-06-29T11:34:27Z</time><pdop>5.0</pdop><geoidheight>54.00</geoidheight><course>3.7</course><type>1</type></trkpt>
      <trkpt lat="40.47838313" lon="-5.26493434"><ele>2271</ele><speed>12.00</speed><time>2016-06-29T11:34:28Z</time><pdop>4.0</pdop><geoidheight>54.00</geoidheight><course>355.8</course><type>1</type></trkpt>
      <trkpt lat="40.47848475" lon="-5.26495673"><ele>2270</ele><speed>12.37</speed><time>2016-06-29T11:34:29Z</time><pdop>4.0</pdop><geoidheight>54.00</geoidheight><course>354.2</course><type>1</type></trkpt>
      <trkpt lat="40.47861075" lon="-5.26495071"><ele>2268</ele><speed>12.85</speed><time>2016-06-29T11:34:30Z</time><pdop>4.0</pdop><geoidheight>54.00</geoidheight><course>356.8</course><type>1</type></trkpt>
      <trkpt lat="40.47872378" lon="-5.26495401"><ele>2268</ele><speed>12.68</speed><time>2016-06-29T11:34:31Z</time><pdop>4.0</pdop><geoidheight>54.00</geoidheight><course>357.7</course><type>1</type></trkpt>
      <trkpt lat="40.47882966" lon="-5.26496034"><ele>2267</ele><speed>12.43</speed><time>2016-06-29T11:34:32Z</time><pdop>4.0</pdop><geoidheight>54.00</geoidheight><course>357.9</course><type>1</type></trkpt>
      <trkpt lat="40.47895286" lon="-5.26492627"><ele>2264</ele><speed>12.83</speed><time>2016-06-29T11:34:33Z</time><pdop>5.0</pdop><geoidheight>54.00</geoidheight><course>2.9</course><type>1</type></trkpt>
      <trkpt lat="40.47906617" lon="-5.26490069"><ele>2263</ele><speed>12.87</speed><time>2016-06-29T11:34:34Z</time><pdop>7.0</pdop><geoidheight>54.00</geoidheight><course>5.2</course><type>1</type></trkpt>
      <trkpt lat="40.47923815" lon="-5.26490761"><ele>2264</ele><speed>14.80</speed><time>2016-06-29T11:34:35Z</time><pdop>7.0</pdop><geoidheight>54.00</geoidheight><course>3.4</course><type>1</type></trkpt>
      <trkpt lat="40.47941161" lon="-5.26488311"><ele>2262</ele><speed>15.92</speed><time>2016-06-29T11:34:36Z</time><pdop>6.0</pdop><geoidheight>54.00</geoidheight><course>4.0</course><type>1</type></trkpt>
      <trkpt lat="40.47956081" lon="-5.26485888"><ele>2261</ele><speed>15.59</speed><time>2016-06-29T11:34:37Z</time><pdop>4.0</pdop><geoidheight>54.00</geoidheight><course>5.3</course><type>1</type></trkpt>
      <trkpt lat="40.47970076" lon="-5.26483325"><ele>2260</ele><speed>15.69</speed><time>2016-06-29T11:34:38Z</time><pdop>4.0</pdop><geoidheight>54.00</geoidheight><course>7.0</course><type>1</type></trkpt>
      <trkpt lat="40.47982695" lon="-5.264803"><ele>2260</ele><speed>15.35</speed><time>2016-06-29T11:34:39Z</time><pdop>5.0</pdop><geoidheight>54.00</geoidheight><course>10.1</course><type>1</type></trkpt>
      <trkpt lat="40.47994564" lon="-5.26474466"><ele>2259</ele><speed>14.50</speed><time>2016-06-29T11:34:40Z</time><pdop>5.0</pdop><geoidheight>54.00</geoidheight><course>15.1</course><type>1</type></trkpt>
      <trkpt lat="40.48005645" lon="-5.2646994"><ele>2258</ele><speed>14.06</speed><time>2016-06-29T11:34:41Z</time><pdop>5.0</pdop><geoidheight>54.00</geoidheight><course>17.1</course><type>1</type></trkpt>
      <trkpt lat="40.48020866" lon="-5.26463694"><ele>2257</ele><speed>15.12</speed><time>2016-06-29T11:34:42Z</time><pdop>5.0</pdop><geoidheight>54.00</geoidheight><course>17.6</course><type>1</type></trkpt>
      <trkpt lat="40.48035199" lon="-5.26457782"><ele>2255</ele><speed>15.55</speed><time>2016-06-29T11:34:43Z</time><pdop>6.0</pdop><geoidheight>54.00</geoidheight><course>16.0</course><type>1</type></trkpt>
      <trkpt lat="40.48051158" lon="-5.26454961"><ele>2253</ele><speed>16.29</speed><time>2016-06-29T11:34:44Z</time><pdop>5.0</pdop><geoidheight>54.00</geoidheight><course>11.6</course><type>1</type></trkpt>
      <trkpt lat="40.48066022" lon="-5.26450605"><ele>2252</ele><speed>16.75</speed><time>2016-06-29T11:34:45Z</time><pdop>5.0</pdop><geoidheight>54.00</geoidheight><course>11.7</course><type>1</type></trkpt>
      <trkpt lat="40.48079999" lon="-5.26445477"><ele>2253</ele><speed>16.74</speed><time>2016-06-29T11:34:46Z</time><pdop>5.0</pdop><geoidheight>54.00</geoidheight><course>13.3</course><type>1</type></trkpt>
      <trkpt lat="40.48095251" lon="-5.26439067"><ele>2253</ele><speed>16.90</speed><time>2016-06-29T11:34:47Z</time><pdop>5.0</pdop><geoidheight>54.00</geoidheight><course>16.6</course><type>1</type></trkpt>
      <trkpt lat="40.4811002" lon="-5.26433395"><ele>2253</ele><speed>16.36</speed><time>2016-06-29T11:34:48Z</time><pdop>5.0</pdop><geoidheight>54.00</geoidheight><course>17.5</course><type>1</type></trkpt>
      <trkpt lat="40.48123897" lon="-5.26428511"><ele>2252</ele><speed>15.51</speed><time>2016-06-29T11:34:49Z</time><pdop>5.0</pdop><geoidheight>54.00</geoidheight><course>17.2</course><type>1</type></trkpt>
      <trkpt lat="40.48133996" lon="-5.26423053"><ele>2164</ele><speed>14.51</speed><time>2016-06-29T11:34:50Z</time><pdop>4.0</pdop><geoidheight>54.00</geoidheight><course>17.5</course><type>1</type></trkpt>
      <trkpt lat="40.48148779" lon="-5.26419426"><ele>2190</ele><speed>14.88</speed><time>2016-06-29T11:34:51Z</time><pdop>4.0</pdop><geoidheight>54.00</geoidheight><course>14.3</course><type>1</type></trkpt>
      <trkpt lat="40.48160491" lon="-5.26414686"><ele>2204</ele><speed>14.97</speed><time>2016-06-29T11:34:52Z</time><pdop>4.0</pdop><geoidheight>54.00</geoidheight><course>14.3</course><type>1</type></trkpt>
      <trkpt lat="40.48174101" lon="-5.26407361"><ele>2200</ele><speed>15.62</speed><time>2016-06-29T11:34:53Z</time><pdop>4.0</pdop><geoidheight>54.00</geoidheight><course>18.0</course><type>1</type></trkpt>
      <trkpt lat="40.4818728" lon="-5.26400893"><ele>2207</ele><speed>15.68</speed><time>2016-06-29T11:34:54Z</time><pdop>4.0</pdop><geoidheight>54.00</geoidheight><course>19.8</course><type>1</type></trkpt>
      <trkpt lat="40.48199068" lon="-5.26395045"><ele>2218</ele><speed>14.93</speed><time>2016-06-29T11:34:55Z</time><pdop>4.0</pdop><geoidheight>54.00</geoidheight><course>19.0</course><type>1</type></trkpt>
      <trkpt lat="40.4821128" lon="-5.26390036"><ele>2223</ele><speed>14.87</speed><time>2016-06-29T11:34:56Z</time><pdop>4.0</pdop><geoidheight>54.00</geoidheight><course>15.9</course><type>1</type></trkpt>
      <trkpt lat="40.48224421" lon="-5.26385346"><ele>2226</ele><speed>14.96</speed><time>2016-06-29T11:34:57Z</time><pdop>9.0</pdop><geoidheight>54.00</geoidheight><course>14.9</course><type>1</type></trkpt>
      <trkpt lat="40.48250943" lon="-5.263751"><ele>2230</ele><speed>15.73</speed><time>2016-06-29T11:34:59Z</time><pdop>9.0</pdop><geoidheight>54.00</geoidheight><course>18.5</course><type>1</type></trkpt>
      <trkpt lat="40.48278269" lon="-5.26360225"><ele>2231</ele><speed>16.59</speed><time>2016-06-29T11:35:01Z</time><pdop>10.0</pdop><geoidheight>54.00</geoidheight><course>22.3</course><type>1</type></trkpt>
      <trkpt lat="40.48305276" lon="-5.26341623"><ele>2231</ele><speed>16.16</speed><time>2016-06-29T11:35:03Z</time><pdop>9.0</pdop><geoidheight>54.00</geoidheight><course>26.1</course><type>1</type></trkpt>
      <trkpt lat="40.48330022" lon="-5.26326279"><ele>2229</ele><speed>15.93</speed><time>2016-06-29T11:35:05Z</time><pdop>9.0</pdop><geoidheight>54.00</geoidheight><course>23.3</course><type>1</type></trkpt>
      <trkpt lat="40.48356244" lon="-5.26314203"><ele>2225</ele><speed>15.79</speed><time>2016-06-29T11:35:07Z</time><pdop>9.0</pdop><geoidheight>54.00</geoidheight><course>17.6</course><type>1</type></trkpt>
      <trkpt lat="40.4838528" lon="-5.26308531"><ele>2224</ele><speed>16.43</speed><time>2016-06-29T11:35:09Z</time><pdop>10.0</pdop><geoidheight>54.00</geoidheight><course>10.9</course><type>1</type></trkpt>
      <trkpt lat="40.48416904" lon="-5.26299414"><ele>2224</ele><speed>16.96</speed><time>2016-06-29T11:35:11Z</time><pdop>9.0</pdop><geoidheight>54.00</geoidheight><course>15.6</course><type>1</type></trkpt>
      <trkpt lat="40.4844418" lon="-5.26290459"><ele>2222</ele><speed>15.30</speed><time>2016-06-29T11:35:13Z</time><pdop>9.0</pdop><geoidheight>54.00</geoidheight><course>14.0</course><type>1</type></trkpt>
      <trkpt lat="40.48470552" lon="-5.26281324"><ele>2220</ele><speed>15.00</speed><time>2016-06-29T11:35:15Z</time><pdop>9.0</pdop><geoidheight>54.00</geoidheight><course>13.1</course><type>1</type></trkpt>
      <trkpt lat="40.48498299" lon="-5.26274304"><ele>2218</ele><speed>15.50</speed><time>2016-06-29T11:35:17Z</time><pdop>10.0</pdop><geoidheight>54.00</geoidheight><course>11.6</course><type>1</type></trkpt>
      <trkpt lat="40.48529522" lon="-5.26264361"><ele>2214</ele><speed>16.96</speed><time>2016-06-29T11:35:19Z</time><pdop>10.0</pdop><geoidheight>54.00</geoidheight><course>12.1</course><type>1</type></trkpt>
      <trkpt lat="40.48560256" lon="-5.26256174"><ele>2211</ele><speed>16.62</speed><time>2016-06-29T11:35:21Z</time><pdop>9.0</pdop><geoidheight>54.00</geoidheight><course>13.5</course><type>1</type></trkpt>
      <trkpt lat="40.48589678" lon="-5.26247675"><ele>2207</ele><speed>16.50</speed><time>2016-06-29T11:35:23Z</time><pdop>9.0</pdop><geoidheight>54.00</geoidheight><course>13.9</course><type>1</type></trkpt>
      <trkpt lat="40.48623179" lon="-5.26239594"><ele>2201</ele><speed>18.11</speed><time>2016-06-29T11:35:25Z</time><pdop>9.0</pdop><geoidheight>54.00</geoidheight><course>10.7</course><type>1</type></trkpt>
      <trkpt lat="40.48639249" lon="-5.26236401"><ele>2198</ele><speed>17.64</speed><time>2016-06-29T11:35:26Z</time><pdop>9.0</pdop><geoidheight>54.00</geoidheight><course>8.5</course><type>1</type></trkpt>
      <trkpt lat="40.48668977" lon="-5.26229641"><ele>2195</ele><speed>16.41</speed><time>2016-06-29T11:35:28Z</time><pdop>9.0</pdop><geoidheight>54.00</geoidheight><course>10.7</course><type>1</type></trkpt>
      <trkpt lat="40.48696595" lon="-5.26218851"><ele>2192</ele><speed>15.61</speed><time>2016-06-29T11:35:30Z</time><pdop>9.0</pdop><geoidheight>54.00</geoidheight><course>16.8</course><type>1</type></trkpt>
      <trkpt lat="40.48726143" lon="-5.26208002"><ele>2188</ele><speed>16.39</speed><time>2016-06-29T11:35:32Z</time><pdop>10.0</pdop><geoidheight>54.00</geoidheight><course>14.0</course><type>1</type></trkpt>
      <trkpt lat="40.48744005" lon="-5.26206234"><ele>2185</ele><speed>17.33</speed><time>2016-06-29T11:35:33Z</time><pdop>9.0</pdop><geoidheight>54.00</geoidheight><course>9.4</course><type>1</type></trkpt>
      <trkpt lat="40.48773011" lon="-5.26195618"><ele>2182</ele><speed>17.24</speed><time>2016-06-29T11:35:35Z</time><pdop>9.0</pdop><geoidheight>54.00</geoidheight><course>17.5</course><type>1</type></trkpt>
      <trkpt lat="40.48802908" lon="-5.26181883"><ele>2178</ele><speed>17.20</speed><time>2016-06-29T11:35:37Z</time><pdop>9.0</pdop><geoidheight>54.00</geoidheight><course>20.8</course><type>1</type></trkpt>
      <trkpt lat="40.48833115" lon="-5.26167356"><ele>2175</ele><speed>17.66</speed><time>2016-06-29T11:35:39Z</time><pdop>9.0</pdop><geoidheight>54.00</geoidheight><course>19.4</course><type>1</type></trkpt>
      <trkpt lat="40.48863117" lon="-5.26156393"><ele>2172</ele><speed>16.81</speed><time>2016-06-29T11:35:41Z</time><pdop>9.0</pdop><geoidheight>54.00</geoidheight><course>14.1</course><type>1</type></trkpt>
      <trkpt lat="40.48891129" lon="-5.26148677"><ele>2170</ele><speed>15.96</speed><time>2016-06-29T11:35:43Z</time><pdop>9.0</pdop><geoidheight>54.00</geoidheight><course>13.6</course><type>1</type></trkpt>
      <trkpt lat="40.48919488" lon="-5.26139695"><ele>2167</ele><speed>16.09</speed><time>2016-06-29T11:35:45Z</time><pdop>9.0</pdop><geoidheight>54.00</geoidheight><course>12.9</course><type>1</type></trkpt>
      <trkpt lat="40.48948607" lon="-5.26130821"><ele>2163</ele><speed>16.03</speed><time>2016-06-29T11:35:47Z</time><pdop>9.0</pdop><geoidheight>54.00</geoidheight><course>11.1</course><type>1</type></trkpt>
      <trkpt lat="40.48975748" lon="-5.26124049"><ele>2160</ele><speed>15.21</speed><time>2016-06-29T11:35:49Z</time><pdop>9.0</pdop><geoidheight>54.00</geoidheight><course>7.8</course><type>1</type></trkpt>
      <trkpt lat="40.49002061" lon="-5.26118396"><ele>2098</ele><speed>14.61</speed><time>2016-06-29T11:35:51Z</time><pdop>9.0</pdop><geoidheight>54.00</geoidheight><course>8.0</course><type>1</type></trkpt>
      <trkpt lat="40.4902887" lon="-5.26107649"><ele>2116</ele><speed>15.27</speed><time>2016-06-29T11:35:53Z</time><pdop>11.0</pdop><geoidheight>54.00</geoidheight><course>14.2</course><type>1</type></trkpt>
      <trkpt lat="40.49061161" lon="-5.26096817"><ele>2126</ele><speed>17.36</speed><time>2016-06-29T11:35:55Z</time><pdop>10.0</pdop><geoidheight>54.00</geoidheight><course>15.2</course><type>1</type></trkpt>
      <trkpt lat="40.49092764" lon="-5.26087081"><ele>2133</ele><speed>17.22</speed><time>2016-06-29T11:35:57Z</time><pdop>9.0</pdop><geoidheight>54.00</geoidheight><course>14.8</course><type>1</type></trkpt>
      <trkpt lat="40.49120506" lon="-5.26076042"><ele>2135</ele><speed>15.68</speed><time>2016-06-29T11:35:59Z</time><pdop>9.0</pdop><geoidheight>54.00</geoidheight><course>17.9</course><type>1</type></trkpt>
      <trkpt lat="40.49148277" lon="-5.26061549"><ele>2135</ele><speed>15.91</speed><time>2016-06-29T11:36:01Z</time><pdop>9.0</pdop><geoidheight>54.00</geoidheight><course>23.1</course><type>1</type></trkpt>
      <trkpt lat="40.49175851" lon="-5.26045469"><ele>2135</ele><speed>15.96</speed><time>2016-06-29T11:36:03Z</time><pdop>9.0</pdop><geoidheight>54.00</geoidheight><course>24.8</course><type>1</type></trkpt>
      <trkpt lat="40.49200751" lon="-5.26031363"><ele>2134</ele><speed>15.13</speed><time>2016-06-29T11:36:05Z</time><pdop>9.0</pdop><geoidheight>54.00</geoidheight><course>21.7</course><type>1</type></trkpt>
      <trkpt lat="40.49224832" lon="-5.26019106"><ele>2133</ele><speed>14.68</speed><time>2016-06-29T11:36:07Z</time><pdop>9.0</pdop><geoidheight>54.00</geoidheight><course>19.7</course><type>1</type></trkpt>
      <trkpt lat="40.49249295" lon="-5.26010204"><ele>2049</ele><speed>13.92</speed><time>2016-06-29T11:36:09Z</time><pdop>9.0</pdop><geoidheight>54.00</geoidheight><course>14.8</course><type>1</type></trkpt>
      <trkpt lat="40.49274274" lon="-5.26002514"><ele>2083</ele><speed>14.28</speed><time>2016-06-29T11:36:11Z</time><pdop>9.0</pdop><geoidheight>54.00</geoidheight><course>12.9</course><type>1</type></trkpt>
      <trkpt lat="40.49299818" lon="-5.25991419"><ele>2097</ele><speed>14.81</speed><time>2016-06-29T11:36:13Z</time><pdop>9.0</pdop><geoidheight>54.00</geoidheight><course>16.8</course><type>1</type></trkpt>
      <trkpt lat="40.49326128" lon="-5.25980328"><ele>2107</ele><speed>15.15</speed><time>2016-06-29T11:36:15Z</time><pdop>9.0</pdop><geoidheight>54.00</geoidheight><course>16.8</course><type>1</type></trkpt>
      <trkpt lat="40.49352587" lon="-5.25967402"><ele>2106</ele><speed>15.40</speed><time>2016-06-29T11:36:17Z</time><pdop>9.0</pdop><geoidheight>54.00</geoidheight><course>18.2</course><type>1</type></trkpt>
      <trkpt lat="40.49382543" lon="-5.25957992"><ele>2104</ele><speed>17.53</speed><time>2016-06-29T11:36:19Z</time><pdop>9.0</pdop><geoidheight>54.00</geoidheight><course>13.2</course><type>1</type></trkpt>
      <trkpt lat="40.49413217" lon="-5.2594797"><ele>2103</ele><speed>17.32</speed><time>2016-06-29T11:36:21Z</time><pdop>9.0</pdop><geoidheight>54.00</geoidheight><course>13.3</course><type>1</type></trkpt>
      <trkpt lat="40.49442173" lon="-5.2594049"><ele>2101</ele><speed>15.81</speed><time>2016-06-29T11:36:23Z</time><pdop>9.0</pdop><geoidheight>54.00</geoidheight><course>11.2</course><type>1</type></trkpt>
      <trkpt lat="40.49469337" lon="-5.25934501"><ele>2099</ele><speed>15.19</speed><time>2016-06-29T11:36:25Z</time><pdop>9.0</pdop><geoidheight>54.00</geoidheight><course>10.7</course><type>1</type></trkpt>
      <trkpt lat="40.49497645" lon="-5.25929228"><ele>2095</ele><speed>15.13</speed><time>2016-06-29T11:36:27Z</time><pdop>9.0</pdop><geoidheight>54.00</geoidheight><course>8.9</course><type>1</type></trkpt>
      <trkpt lat="40.49525122" lon="-5.259263"><ele>2091</ele><speed>14.82</speed><time>2016-06-29T11:36:29Z</time><pdop>9.0</pdop><geoidheight>54.00</geoidheight><course>3.6</course><type>1</type></trkpt>
      <trkpt lat="40.49551347" lon="-5.25924992"><ele>2089</ele><speed>14.11</speed><time>2016-06-29T11:36:31Z</time><pdop>9.0</pdop><geoidheight>54.00</geoidheight><course>0.9</course><type>1</type></trkpt>
      <trkpt lat="40.49575257" lon="-5.25923442"><ele>2088</ele><speed>13.52</speed><time>2016-06-29T11:36:33Z</time><pdop>9.0</pdop><geoidheight>54.00</geoidheight><course>2.6</course><type>1</type></trkpt>
      <trkpt lat="40.49600792" lon="-5.2592134"><ele>2086</ele><speed>13.90</speed><time>2016-06-29T11:36:35Z</time><pdop>9.0</pdop><geoidheight>54.00</geoidheight><course>5.1</course><type>1</type></trkpt>
      <trkpt lat="40.49625893" lon="-5.25915422"><ele>2085</ele><speed>13.99</speed><time>2016-06-29T11:36:37Z</time><pdop>9.0</pdop><geoidheight>54.00</geoidheight><course>7.5</course><type>1</type></trkpt>
      <trkpt lat="40.49650196" lon="-5.25908781"><ele>2082</ele><speed>14.41</speed><time>2016-06-29T11:36:39Z</time><pdop>9.0</pdop><geoidheight>54.00</geoidheight><course>10.2</course><type>1</type></trkpt>
      <trkpt lat="40.49676069" lon="-5.25897847"><ele>2080</ele><speed>14.35</speed><time>2016-06-29T11:36:41Z</time><pdop>9.0</pdop><geoidheight>54.00</geoidheight><course>16.0</course><type>1</type></trkpt>
      <trkpt lat="40.49699005" lon="-5.25887682"><ele>2076</ele><speed>13.93</speed><time>2016-06-29T11:36:43Z</time><pdop>9.0</pdop><geoidheight>54.00</geoidheight><course>17.2</course><type>1</type></trkpt>
      <trkpt lat="40.49723542" lon="-5.25879857"><ele>2073</ele><speed>13.99</speed><time>2016-06-29T11:36:45Z</time><pdop>9.0</pdop><geoidheight>54.00</geoidheight><course>15.4</course><type>1</type></trkpt>
      <trkpt lat="40.4974859" lon="-5.2587032"><ele>2069</ele><speed>14.39</speed><time>2016-06-29T11:36:47Z</time><pdop>9.0</pdop><geoidheight>54.00</geoidheight><course>16.5</course><type>1</type></trkpt>
      <trkpt lat="40.49772053" lon="-5.25860169"><ele>2065</ele><speed>13.74</speed><time>2016-06-29T11:36:49Z</time><pdop>9.0</pdop><geoidheight>54.00</geoidheight><course>17.3</course><type>1</type></trkpt>
      <trkpt lat="40.49795602" lon="-5.25851666"><ele>2063</ele><speed>13.58</speed><time>2016-06-29T11:36:51Z</time><pdop>9.0</pdop><geoidheight>54.00</geoidheight><course>14.8</course><type>1</type></trkpt>
      <trkpt lat="40.4982017" lon="-5.25845273"><ele>2058</ele><speed>13.49</speed><time>2016-06-29T11:36:53Z</time><pdop>9.0</pdop><geoidheight>54.00</geoidheight><course>12.1</course><type>1</type></trkpt>
      <trkpt lat="40.49843336" lon="-5.25840578"><ele>2055</ele><speed>13.82</speed><time>2016-06-29T11:36:55Z</time><pdop>9.0</pdop><geoidheight>54.00</geoidheight><course>8.0</course><type>1</type></trkpt>
      <trkpt lat="40.49867658" lon="-5.25836309"><ele>2053</ele><speed>13.56</speed><time>2016-06-29T11:36:57Z</time><pdop>9.0</pdop><geoidheight>54.00</geoidheight><course>9.4</course><type>1</type></trkpt>
      <trkpt lat="40.49891298" lon="-5.25830784"><ele>2051</ele><speed>12.65</speed><time>2016-06-29T11:36:59Z</time><pdop>9.0</pdop><geoidheight>54.00</geoidheight><course>11.1</course><type>1</type></trkpt>
      <trkpt lat="40.49913263" lon="-5.25824106"><ele>2046</ele><speed>12.90</speed><time>2016-06-29T11:37:01Z</time><pdop>9.0</pdop><geoidheight>54.00</geoidheight><course>10.7</course><type>1</type></trkpt>
      <trkpt lat="40.49940699" lon="-5.25816256"><ele>2045</ele><speed>15.32</speed><time>2016-06-29T11:37:03Z</time><pdop>9.0</pdop><geoidheight>54.00</geoidheight><course>14.9</course><type>1</type></trkpt>
      <trkpt lat="40.4996669" lon="-5.25808524"><ele>2043</ele><speed>14.29</speed><time>2016-06-29T11:37:05Z</time><pdop>9.0</pdop><geoidheight>54.00</geoidheight><course>13.4</course><type>1</type></trkpt>
      <trkpt lat="40.49988725" lon="-5.25800587"><ele>2042</ele><speed>12.55</speed><time>2016-06-29T11:37:07Z</time><pdop>9.0</pdop><geoidheight>54.00</geoidheight><course>15.9</course><type>1</type></trkpt>
      <trkpt lat="40.50008587" lon="-5.25791987"><ele>2039</ele><speed>11.54</speed><time>2016-06-29T11:37:09Z</time><pdop>9.0</pdop><geoidheight>54.00</geoidheight><course>15.7</course><type>1</type></trkpt>
      <trkpt lat="40.50030676" lon="-5.257889"><ele>2037</ele><speed>12.38</speed><time>2016-06-29T11:37:11Z</time><pdop>9.0</pdop><geoidheight>54.00</geoidheight><course>6.2</course><type>1</type></trkpt>
      <trkpt lat="40.5005241" lon="-5.25783324"><ele>2100</ele><speed>12.73</speed><time>2016-06-29T11:37:13Z</time><pdop>9.0</pdop><geoidheight>54.00</geoidheight><course>6.6</course><type>1</type></trkpt>
      <trkpt lat="40.50077216" lon="-5.25771044"><ele>2066</ele><speed>14.03</speed><time>2016-06-29T11:37:15Z</time><pdop>10.0</pdop><geoidheight>54.00</geoidheight><course>16.6</course><type>1</type></trkpt>
      <trkpt lat="40.501092" lon="-5.25764576"><ele>2047</ele><speed>16.13</speed><time>2016-06-29T11:37:17Z</time><pdop>10.0</pdop><geoidheight>54.00</geoidheight><course>6.8</course><type>1</type></trkpt>
      <trkpt lat="40.50137295" lon="-5.25760813"><ele>2038</ele><speed>15.68</speed><time>2016-06-29T11:37:19Z</time><pdop>10.0</pdop><geoidheight>54.00</geoidheight><course>6.1</course><type>1</type></trkpt>
      <trkpt lat="40.50165898" lon="-5.25754451"><ele>2031</ele><speed>15.29</speed><time>2016-06-29T11:37:21Z</time><pdop>10.0</pdop><geoidheight>54.00</geoidheight><course>9.5</course><type>1</type></trkpt>
      <trkpt lat="40.50192242" lon="-5.2574748"><ele>2024</ele><speed>14.90</speed><time>2016-06-29T11:37:23Z</time><pdop>10.0</pdop><geoidheight>54.00</geoidheight><course>10.7</course><type>1</type></trkpt>
      <trkpt lat="40.50221456" lon="-5.25744017"><ele>2018</ele><speed>15.27</speed><time>2016-06-29T11:37:25Z</time><pdop>10.0</pdop><geoidheight>54.00</geoidheight><course>5.8</course><type>1</type></trkpt>
      <trkpt lat="40.5024031" lon="-5.25743961"><ele>2016</ele><speed>16.84</speed><time>2016-06-29T11:37:26Z</time><pdop>10.0</pdop><geoidheight>54.00</geoidheight><course>3.8</course><type>1</type></trkpt>
      <trkpt lat="40.50267115" lon="-5.25740783"><ele>2016</ele><speed>15.86</speed><time>2016-06-29T11:37:28Z</time><pdop>10.0</pdop><geoidheight>54.00</geoidheight><course>4.4</course><type>1</type></trkpt>
      <trkpt lat="40.5029601" lon="-5.25737812"><ele>2014</ele><speed>16.15</speed><time>2016-06-29T11:37:30Z</time><pdop>10.0</pdop><geoidheight>54.00</geoidheight><course>6.5</course><type>1</type></trkpt>
      <trkpt lat="40.50324998" lon="-5.25732214"><ele>2011</ele><speed>16.12</speed><time>2016-06-29T11:37:32Z</time><pdop>10.0</pdop><geoidheight>54.00</geoidheight><course>10.0</course><type>1</type></trkpt>
      <trkpt lat="40.50355204" lon="-5.2572506"><ele>2008</ele><speed>16.12</speed><time>2016-06-29T11:37:34Z</time><pdop>10.0</pdop><geoidheight>54.00</geoidheight><course>9.4</course><type>1</type></trkpt>
      <trkpt lat="40.50382226" lon="-5.25720633"><ele>2003</ele><speed>15.38</speed><time>2016-06-29T11:37:36Z</time><pdop>9.0</pdop><geoidheight>54.00</geoidheight><course>6.5</course><type>1</type></trkpt>
      <trkpt lat="40.50410237" lon="-5.25714124"><ele>1999</ele><speed>15.76</speed><time>2016-06-29T11:37:38Z</time><pdop>9.0</pdop><geoidheight>54.00</geoidheight><course>9.9</course><type>1</type></trkpt>
      <trkpt lat="40.50438921" lon="-5.25709291"><ele>1997</ele><speed>15.82</speed><time>2016-06-29T11:37:40Z</time><pdop>9.0</pdop><geoidheight>54.00</geoidheight><course>6.8</course><type>1</type></trkpt>
      <trkpt lat="40.50465021" lon="-5.2570127"><ele>1994</ele><speed>15.55</speed><time>2016-06-29T11:37:42Z</time><pdop>9.0</pdop><geoidheight>54.00</geoidheight><course>12.1</course><type>1</type></trkpt>
      <trkpt lat="40.50492713" lon="-5.25692324"><ele>1991</ele><speed>15.27</speed><time>2016-06-29T11:37:44Z</time><pdop>9.0</pdop><geoidheight>54.00</geoidheight><course>14.0</course><type>1</type></trkpt>
      <trkpt lat="40.50519826" lon="-5.2568335"><ele>1989</ele><speed>15.46</speed><time>2016-06-29T11:37:46Z</time><pdop>10.0</pdop><geoidheight>54.00</geoidheight><course>14.4</course><type>1</type></trkpt>
      <trkpt lat="40.50551563" lon="-5.25675881"><ele>1987</ele><speed>17.02</speed><time>2016-06-29T11:37:48Z</time><pdop>10.0</pdop><geoidheight>54.00</geoidheight><course>10.4</course><type>1</type></trkpt>
      <trkpt lat="40.50569424" lon="-5.25673138"><ele>1985</ele><speed>17.72</speed><time>2016-06-29T11:37:49Z</time><pdop>10.0</pdop><geoidheight>54.00</geoidheight><course>8.5</course><type>1</type></trkpt>
      <trkpt lat="40.50602315" lon="-5.25666062"><ele>1984</ele><speed>17.94</speed><time>2016-06-29T11:37:51Z</time><pdop>10.0</pdop><geoidheight>54.00</geoidheight><course>8.9</course><type>1</type></trkpt>
      <trkpt lat="40.50633092" lon="-5.25658404"><ele>1982</ele><speed>16.97</speed><time>2016-06-29T11:37:53Z</time><pdop>10.0</pdop><geoidheight>54.00</geoidheight><course>9.9</course><type>1</type></trkpt>
      <trkpt lat="40.50654255" lon="-5.25650846"><ele>1979</ele><speed>14.87</speed><time>2016-06-29T11:37:55Z</time><pdop>11.0</pdop><geoidheight>54.00</geoidheight><course>10.5</course><type>1</type></trkpt>
      <trkpt lat="40.50689058" lon="-5.25650309"><ele>1975</ele><speed>16.73</speed><time>2016-06-29T11:37:57Z</time><pdop>10.0</pdop><geoidheight>54.00</geoidheight><course>4.3</course><type>1</type></trkpt>
      <trkpt lat="40.50716044" lon="-5.25646257"><ele>1971</ele><speed>15.03</speed><time>2016-06-29T11:37:59Z</time><pdop>10.0</pdop><geoidheight>54.00</geoidheight><course>5.6</course><type>1</type></trkpt>
      <trkpt lat="40.50739865" lon="-5.2563998"><ele>1966</ele><speed>13.96</speed><time>2016-06-29T11:38:01Z</time><pdop>9.0</pdop><geoidheight>54.00</geoidheight><course>10.8</course><type>1</type></trkpt>
      <trkpt lat="40.50764289" lon="-5.2563333"><ele>1959</ele><speed>13.30</speed><time>2016-06-29T11:38:03Z</time><pdop>9.0</pdop><geoidheight>54.00</geoidheight><course>10.7</course><type>1</type></trkpt>
      <trkpt lat="40.50786567" lon="-5.25628225"><ele>1956</ele><speed>12.76</speed><time>2016-06-29T11:38:05Z</time><pdop>10.0</pdop><geoidheight>54.00</geoidheight><course>9.8</course><type>1</type></trkpt>
      <trkpt lat="40.50815704" lon="-5.25625696"><ele>1949</ele><speed>16.04</speed><time>2016-06-29T11:38:07Z</time><pdop>10.0</pdop><geoidheight>54.00</geoidheight><course>2.8</course><type>1</type></trkpt>
      <trkpt lat="40.50841345" lon="-5.25623007"><ele>1948</ele><speed>13.26</speed><time>2016-06-29T11:38:09Z</time><pdop>10.0</pdop><geoidheight>54.00</geoidheight><course>6.3</course><type>1</type></trkpt>
      <trkpt lat="40.50865385" lon="-5.25618318"><ele>1945</ele><speed>12.74</speed><time>2016-06-29T11:38:11Z</time><pdop>10.0</pdop><geoidheight>54.00</geoidheight><course>9.5</course><type>1</type></trkpt>
      <trkpt lat="40.50887467" lon="-5.25611063"><ele>1942</ele><speed>12.62</speed><time>2016-06-29T11:38:13Z</time><pdop>10.0</pdop><geoidheight>54.00</geoidheight><course>15.8</course><type>1</type></trkpt>
      <trkpt lat="40.50909018" lon="-5.25605111"><ele>1940</ele><speed>12.56</speed><time>2016-06-29T11:38:15Z</time><pdop>12.0</pdop><geoidheight>54.00</geoidheight><course>16.6</course><type>1</type></trkpt>
      <trkpt lat="40.50938772" lon="-5.25600187"><ele>1936</ele><speed>14.24</speed><time>2016-06-29T11:38:17Z</time><pdop>12.0</pdop><geoidheight>54.00</geoidheight><course>8.6</course><type>1</type></trkpt>
      <trkpt lat="40.50971197" lon="-5.25601137"><ele>1932</ele><speed>15.37</speed><time>2016-06-29T11:38:19Z</time><pdop>13.0</pdop><geoidheight>54.00</geoidheight><course>1.1</course><type>1</type></trkpt>
      <trkpt lat="40.51002862" lon="-5.25599306"><ele>1927</ele><speed>15.19</speed><time>2016-06-29T11:38:21Z</time><pdop>12.0</pdop><geoidheight>54.00</geoidheight><course>5.4</course><type>1</type></trkpt>
      <trkpt lat="40.51031297" lon="-5.25595231"><ele>1923</ele><speed>15.22</speed><time>2016-06-29T11:38:23Z</time><pdop>11.0</pdop><geoidheight>54.00</geoidheight><course>8.2</course><type>1</type></trkpt>
      <trkpt lat="40.51059159" lon="-5.25590537"><ele>1917</ele><speed>15.38</speed><time>2016-06-29T11:38:25Z</time><pdop>11.0</pdop><geoidheight>54.00</geoidheight><course>6.5</course><type>1</type></trkpt>
      <trkpt lat="40.51088253" lon="-5.25588781"><ele>1912</ele><speed>16.11</speed><time>2016-06-29T11:38:27Z</time><pdop>11.0</pdop><geoidheight>54.00</geoidheight><course>2.7</course><type>1</type></trkpt>
      <trkpt lat="40.51112621" lon="-5.25583302"><ele>1906</ele><speed>15.35</speed><time>2016-06-29T11:38:29Z</time><pdop>11.0</pdop><geoidheight>54.00</geoidheight><course>8.8</course><type>1</type></trkpt>
      <trkpt lat="40.51139649" lon="-5.25577412"><ele>1902</ele><speed>14.66</speed><time>2016-06-29T11:38:31Z</time><pdop>10.0</pdop><geoidheight>54.00</geoidheight><course>10.8</course><type>1</type></trkpt>
      <trkpt lat="40.51166044" lon="-5.25571977"><ele>1895</ele><speed>15.17</speed><time>2016-06-29T11:38:33Z</time><pdop>10.0</pdop><geoidheight>54.00</geoidheight><course>8.7</course><type>1</type></trkpt>
      <trkpt lat="40.5119524" lon="-5.2556744"><ele>1889</ele><speed>16.63</speed><time>2016-06-29T11:38:35Z</time><pdop>10.0</pdop><geoidheight>54.00</geoidheight><course>6.1</course><type>1</type></trkpt>
      <trkpt lat="40.51225915" lon="-5.25564403"><ele>1888</ele><speed>16.73</speed><time>2016-06-29T11:38:37Z</time><pdop>10.0</pdop><geoidheight>54.00</geoidheight><course>4.2</course><type>1</type></trkpt>
      <trkpt lat="40.5125129" lon="-5.25557727"><ele>1886</ele><speed>14.95</speed><time>2016-06-29T11:38:39Z</time><pdop>11.0</pdop><geoidheight>54.00</geoidheight><course>11.1</course><type>1</type></trkpt>
      <trkpt lat="40.51272501" lon="-5.25539751"><ele>1889</ele><speed>10.11</speed><time>2016-06-29T11:38:42Z</time><pdop>10.0</pdop><geoidheight>54.00</geoidheight><course>21.2</course><type>1</type></trkpt>
      <trkpt lat="40.51289548" lon="-5.25530253"><ele>1889</ele><speed>10.53</speed><time>2016-06-29T11:38:44Z</time><pdop>10.0</pdop><geoidheight>54.00</geoidheight><course>23.6</course><type>1</type></trkpt>
      <trkpt lat="40.51306566" lon="-5.25517696"><ele>1889</ele><speed>11.17</speed><time>2016-06-29T11:38:46Z</time><pdop>9.0</pdop><geoidheight>54.00</geoidheight><course>31.2</course><type>1</type></trkpt>
      <trkpt lat="40.51322134" lon="-5.25500555"><ele>1891</ele><speed>11.04</speed><time>2016-06-29T11:38:48Z</time><pdop>10.0</pdop><geoidheight>54.00</geoidheight><course>36.8</course><type>1</type></trkpt>
      <trkpt lat="40.51344183" lon="-5.25474372"><ele>1897</ele><speed>11.54</speed><time>2016-06-29T11:38:51Z</time><pdop>10.0</pdop><geoidheight>54.00</geoidheight><course>37.7</course><type>1</type></trkpt>
      <trkpt lat="40.51361497" lon="-5.25459894"><ele>1900</ele><speed>11.48</speed><time>2016-06-29T11:38:53Z</time><pdop>10.0</pdop><geoidheight>54.00</geoidheight><course>25.0</course><type>1</type></trkpt>
      <trkpt lat="40.51386127" lon="-5.2545791"><ele>1904</ele><speed>9.42</speed><time>2016-06-29T11:38:56Z</time><pdop>11.0</pdop><geoidheight>54.00</geoidheight><course>2.4</course><type>1</type></trkpt>
      <trkpt lat="40.51376633" lon="-5.25483178"><ele>1909</ele><speed>5.15</speed><time>2016-06-29T11:39:01Z</time><pdop>11.0</pdop><geoidheight>54.00</geoidheight><course>219.0</course><type>1</type></trkpt>
      <trkpt lat="40.51350605" lon="-5.25483706"><ele>1913</ele><speed>10.69</speed><time>2016-06-29T11:39:03Z</time><pdop>10.0</pdop><geoidheight>54.00</geoidheight><course>162.7</course><type>1</type></trkpt>
      <trkpt lat="40.51331177" lon="-5.25473177"><ele>1915</ele><speed>11.21</speed><time>2016-06-29T11:39:05Z</time><pdop>10.0</pdop><geoidheight>54.00</geoidheight><course>150.5</course><type>1</type></trkpt>
      <trkpt lat="40.51315169" lon="-5.25446447"><ele>1918</ele><speed>13.14</speed><time>2016-06-29T11:39:07Z</time><pdop>11.0</pdop><geoidheight>54.00</geoidheight><course>134.2</course><type>1</type></trkpt>
      <trkpt lat="40.51314079" lon="-5.25410272"><ele>1919</ele><speed>12.88</speed><time>2016-06-29T11:39:09Z</time><pdop>13.0</pdop><geoidheight>54.00</geoidheight><course>104.6</course><type>1</type></trkpt>
      <trkpt lat="40.51323908" lon="-5.25378315"><ele>1924</ele><speed>11.75</speed><time>2016-06-29T11:39:11Z</time><pdop>14.0</pdop><geoidheight>54.00</geoidheight><course>81.2</course><type>1</type></trkpt>
      <trkpt lat="40.51350299" lon="-5.25352928"><ele>1931</ele><speed>12.54</speed><time>2016-06-29T11:39:13Z</time><pdop>11.0</pdop><geoidheight>54.00</geoidheight><course>39.7</course><type>1</type></trkpt>
      <trkpt lat="40.51371702" lon="-5.25336115"><ele>1938</ele><speed>12.74</speed><time>2016-06-29T11:39:15Z</time><pdop>10.0</pdop><geoidheight>54.00</geoidheight><course>30.6</course><type>1</type></trkpt>
      <trkpt lat="40.51395848" lon="-5.25329547"><ele>1942</ele><speed>11.59</speed><time>2016-06-29T11:39:17Z</time><pdop>10.0</pdop><geoidheight>54.00</geoidheight><course>12.6</course><type>1</type></trkpt>
      <trkpt lat="40.51415434" lon="-5.25322736"><ele>1948</ele><speed>11.15</speed><time>2016-06-29T11:39:19Z</time><pdop>9.0</pdop><geoidheight>54.00</geoidheight><course>19.3</course><type>1</type></trkpt>
      <trkpt lat="40.51435486" lon="-5.25311583"><ele>1954</ele><speed>11.10</speed><time>2016-06-29T11:39:21Z</time><pdop>9.0</pdop><geoidheight>54.00</geoidheight><course>25.1</course><type>1</type></trkpt>
      <trkpt lat="40.51451663" lon="-5.25304242"><ele>1958</ele><speed>9.28</speed><time>2016-06-29T11:39:23Z</time><pdop>9.0</pdop><geoidheight>54.00</geoidheight><course>14.0</course><type>1</type></trkpt>
      <trkpt lat="40.51468337" lon="-5.25302889"><ele>1961</ele><speed>8.69</speed><time>2016-06-29T11:39:25Z</time><pdop>9.0</pdop><geoidheight>54.00</geoidheight><course>4.7</course><type>1</type></trkpt>
      <trkpt lat="40.51484845" lon="-5.25300609"><ele>1966</ele><speed>9.23</speed><time>2016-06-29T11:39:27Z</time><pdop>9.0</pdop><geoidheight>54.00</geoidheight><course>7.7</course><type>1</type></trkpt>
      <trkpt lat="40.51504124" lon="-5.25296411"><ele>1967</ele><speed>10.31</speed><time>2016-06-29T11:39:29Z</time><pdop>9.0</pdop><geoidheight>54.00</geoidheight><course>10.7</course><type>1</type></trkpt>
      <trkpt lat="40.51520193" lon="-5.25288103"><ele>1971</ele><speed>9.45</speed><time>2016-06-29T11:39:31Z</time><pdop>9.0</pdop><geoidheight>54.00</geoidheight><course>20.9</course><type>1</type></trkpt>
      <trkpt lat="40.51543133" lon="-5.25275943"><ele>1975</ele><speed>9.50</speed><time>2016-06-29T11:39:34Z</time><pdop>9.0</pdop><geoidheight>54.00</geoidheight><course>22.6</course><type>1</type></trkpt>
      <trkpt lat="40.51559238" lon="-5.2526617"><ele>1976</ele><speed>9.71</speed><time>2016-06-29T11:39:36Z</time><pdop>9.0</pdop><geoidheight>54.00</geoidheight><course>20.6</course><type>1</type></trkpt>
      <trkpt lat="40.51575818" lon="-5.2526414"><ele>1979</ele><speed>9.32</speed><time>2016-06-29T11:39:38Z</time><pdop>9.0</pdop><geoidheight>54.00</geoidheight><course>5.8</course><type>1</type></trkpt>
      <trkpt lat="40.51595866" lon="-5.25271484"><ele>1983</ele><speed>7.35</speed><time>2016-06-29T11:39:41Z</time><pdop>3.0</pdop><geoidheight>54.00</geoidheight><course>340.5</course><type>1</type></trkpt>
      <trkpt lat="40.51601029" lon="-5.25275763"><ele>1983</ele><speed>6.41</speed><time>2016-06-29T11:39:42Z</time><pdop>3.0</pdop><geoidheight>54.00</geoidheight><course>328.0</course><type>1</type></trkpt>
      <trkpt lat="40.51605705" lon="-5.25288065"><ele>1984</ele><speed>5.94</speed><time>2016-06-29T11:39:44Z</time><pdop>3.0</pdop><geoidheight>54.00</geoidheight><course>290.8</course><type>1</type></trkpt>
      <trkpt lat="40.51606955" lon="-5.25295744"><ele>1984</ele><speed>6.25</speed><time>2016-06-29T11:39:45Z</time><pdop>3.0</pdop><geoidheight>54.00</geoidheight><course>281.7</course><type>1</type></trkpt>
      <trkpt lat="40.51606432" lon="-5.25309822"><ele>1988</ele><speed>6.19</speed><time>2016-06-29T11:39:47Z</time><pdop>3.0</pdop><geoidheight>54.00</geoidheight><course>255.2</course><type>1</type></trkpt>
      <trkpt lat="40.51603334" lon="-5.2531689"><ele>1989</ele><speed>6.58</speed><time>2016-06-29T11:39:48Z</time><pdop>3.0</pdop><geoidheight>54.00</geoidheight><course>237.4</course><type>1</type></trkpt>
      <trkpt lat="40.51599712" lon="-5.25324755"><ele>1990</ele><speed>7.41</speed><time>2016-06-29T11:39:49Z</time><pdop>3.0</pdop><geoidheight>54.00</geoidheight><course>232.3</course><type>1</type></trkpt>
      <trkpt lat="40.51596224" lon="-5.2533292"><ele>1990</ele><speed>7.83</speed><time>2016-06-29T11:39:50Z</time><pdop>4.0</pdop><geoidheight>54.00</geoidheight><course>239.7</course><type>1</type></trkpt>
      <trkpt lat="40.5159405" lon="-5.25341115"><ele>1993</ele><speed>7.68</speed><time>2016-06-29T11:39:51Z</time><pdop>3.0</pdop><geoidheight>54.00</geoidheight><course>249.0</course><type>1</type></trkpt>
      <trkpt lat="40.51592652" lon="-5.25349078"><ele>1994</ele><speed>7.33</speed><time>2016-06-29T11:39:52Z</time><pdop>3.0</pdop><geoidheight>54.00</geoidheight><course>259.4</course><type>1</type></trkpt>
      <trkpt lat="40.51591159" lon="-5.25356835"><ele>1997</ele><speed>6.86</speed><time>2016-06-29T11:39:53Z</time><pdop>3.0</pdop><geoidheight>54.00</geoidheight><course>261.0</course><type>1</type></trkpt>
      <trkpt lat="40.51589791" lon="-5.2536652"><ele>2000</ele><speed>4.59</speed><time>2016-06-29T11:39:55Z</time><pdop>3.0</pdop><geoidheight>54.00</geoidheight><course>250.2</course><type>1</type></trkpt>
      <trkpt lat="40.51580762" lon="-5.25373219"><ele>2001</ele><speed>5.01</speed><time>2016-06-29T11:39:57Z</time><pdop>4.0</pdop><geoidheight>54.00</geoidheight><course>208.1</course><type>1</type></trkpt>
      <trkpt lat="40.51570653" lon="-5.25371996"><ele>2002</ele><speed>4.75</speed><time>2016-06-29T11:39:59Z</time><pdop>6.0</pdop><geoidheight>54.00</geoidheight><course>177.1</course><type>1</type></trkpt>
      <trkpt lat="40.51560233" lon="-5.25364153"><ele>2000</ele><speed>7.41</speed><time>2016-06-29T11:40:00Z</time><pdop>7.0</pdop><geoidheight>54.00</geoidheight><course>157.0</course><type>1</type></trkpt>
      <trkpt lat="40.51545418" lon="-5.25335629"><ele>1998</ele><speed>10.26</speed><time>2016-06-29T11:40:02Z</time><pdop>7.0</pdop><geoidheight>54.00</geoidheight><course>123.5</course><type>1</type></trkpt>
      <trkpt lat="40.51540959" lon="-5.25320016"><ele>1999</ele><speed>11.77</speed><time>2016-06-29T11:40:03Z</time><pdop>5.0</pdop><geoidheight>54.00</geoidheight><course>113.1</course><type>1</type></trkpt>
      <trkpt lat="40.51538187" lon="-5.25301783"><ele>2000</ele><speed>13.31</speed><time>2016-06-29T11:40:04Z</time><pdop>5.0</pdop><geoidheight>54.00</geoidheight><course>102.7</course><type>1</type></trkpt>
      <trkpt lat="40.51533783" lon="-5.25280744"><ele>1999</ele><speed>14.54</speed><time>2016-06-29T11:40:05Z</time><pdop>5.0</pdop><geoidheight>54.00</geoidheight><course>98.2</course><type>1</type></trkpt>
      <trkpt lat="40.51531695" lon="-5.25262682"><ele>2000</ele><speed>14.98</speed><time>2016-06-29T11:40:06Z</time><pdop>5.0</pdop><geoidheight>54.00</geoidheight><course>98.8</course><type>1</type></trkpt>
      <trkpt lat="40.51529283" lon="-5.25243198"><ele>2001</ele><speed>15.65</speed><time>2016-06-29T11:40:07Z</time><pdop>4.0</pdop><geoidheight>54.00</geoidheight><course>100.8</course><type>1</type></trkpt>
      <trkpt lat="40.5152626" lon="-5.25225479"><ele>2003</ele><speed>15.89</speed><time>2016-06-29T11:40:08Z</time><pdop>5.0</pdop><geoidheight>54.00</geoidheight><course>104.2</course><type>1</type></trkpt>
      <trkpt lat="40.5152272" lon="-5.25206668"><ele>2005</ele><speed>15.79</speed><time>2016-06-29T11:40:09Z</time><pdop>5.0</pdop><geoidheight>54.00</geoidheight><course>104.0</course><type>1</type></trkpt>
      <trkpt lat="40.51519738" lon="-5.2518835"><ele>2006</ele><speed>15.58</speed><time>2016-06-29T11:40:10Z</time><pdop>5.0</pdop><geoidheight>54.00</geoidheight><course>101.7</course><type>1</type></trkpt>
      <trkpt lat="40.51517449" lon="-5.25172754"><ele>2008</ele><speed>14.46</speed><time>2016-06-29T11:40:11Z</time><pdop>6.0</pdop><geoidheight>54.00</geoidheight><course>101.0</course><type>1</type></trkpt>
      <trkpt lat="40.51516117" lon="-5.2515598"><ele>2009</ele><speed>13.79</speed><time>2016-06-29T11:40:12Z</time><pdop>7.0</pdop><geoidheight>54.00</geoidheight><course>98.1</course><type>1</type></trkpt>
      <trkpt lat="40.51516119" lon="-5.25139167"><ele>2011</ele><speed>12.95</speed><time>2016-06-29T11:40:13Z</time><pdop>7.0</pdop><geoidheight>54.00</geoidheight><course>93.4</course><type>1</type></trkpt>
      <trkpt lat="40.51519134" lon="-5.2510975"><ele>2012</ele><speed>12.05</speed><time>2016-06-29T11:40:15Z</time><pdop>8.0</pdop><geoidheight>54.00</geoidheight><course>86.5</course><type>1</type></trkpt>
      <trkpt lat="40.51541384" lon="-5.25098932"><ele>2014</ele><speed>9.74</speed><time>2016-06-29T11:40:17Z</time><pdop>6.0</pdop><geoidheight>54.00</geoidheight><course>48.9</course><type>1</type></trkpt>
      <trkpt lat="40.51556159" lon="-5.25091877"><ele>2023</ele><speed>8.25</speed><time>2016-06-29T11:40:19Z</time><pdop>5.0</pdop><geoidheight>54.00</geoidheight><course>17.8</course><type>1</type></trkpt>
      <trkpt lat="40.51565391" lon="-5.25091972"><ele>2026</ele><speed>7.52</speed><time>2016-06-29T11:40:20Z</time><pdop>4.0</pdop><geoidheight>54.00</geoidheight><course>2.4</course><type>1</type></trkpt>
      <trkpt lat="40.51572964" lon="-5.25095582"><ele>2027</ele><speed>7.23</speed><time>2016-06-29T11:40:21Z</time><pdop>4.0</pdop><geoidheight>54.00</geoidheight><course>342.5</course><type>1</type></trkpt>
      <trkpt lat="40.51580165" lon="-5.25098423"><ele>2028</ele><speed>7.32</speed><time>2016-06-29T11:40:22Z</time><pdop>4.0</pdop><geoidheight>54.00</geoidheight><course>338.6</course><type>1</type></trkpt>
      <trkpt lat="40.51587525" lon="-5.25113539"><ele>2030</ele><speed>7.06</speed><time>2016-06-29T11:40:24Z</time><pdop>5.0</pdop><geoidheight>54.00</geoidheight><course>308.2</course><type>1</type></trkpt>
      <trkpt lat="40.51580927" lon="-5.2513388"><ele>2032</ele><speed>7.41</speed><time>2016-06-29T11:40:26Z</time><pdop>6.0</pdop><geoidheight>54.00</geoidheight><course>260.1</course><type>1</type></trkpt>
      <trkpt lat="40.51560804" lon="-5.25131081"><ele>2078</ele><speed>5.09</speed><time>2016-06-29T11:40:29Z</time><pdop>6.0</pdop><geoidheight>54.00</geoidheight><course>175.3</course><type>1</type></trkpt>
      <trkpt lat="40.51546428" lon="-5.25107331"><ele>2063</ele><speed>8.46</speed><time>2016-06-29T11:40:31Z</time><pdop>8.0</pdop><geoidheight>54.00</geoidheight><course>126.0</course><type>1</type></trkpt>
      <trkpt lat="40.51550879" lon="-5.25056328"><ele>2062</ele><speed>15.40</speed><time>2016-06-29T11:40:33Z</time><pdop>7.0</pdop><geoidheight>54.00</geoidheight><course>76.3</course><type>1</type></trkpt>
      <trkpt lat="40.51553323" lon="-5.25037264"><ele>2062</ele><speed>15.17</speed><time>2016-06-29T11:40:34Z</time><pdop>7.0</pdop><geoidheight>54.00</geoidheight><course>75.7</course><type>1</type></trkpt>
      <trkpt lat="40.51555343" lon="-5.25019897"><ele>2061</ele><speed>13.74</speed><time>2016-06-29T11:40:35Z</time><pdop>7.0</pdop><geoidheight>54.00</geoidheight><course>75.2</course><type>1</type></trkpt>
      <trkpt lat="40.51563526" lon="-5.24991579"><ele>2062</ele><speed>11.90</speed><time>2016-06-29T11:40:37Z</time><pdop>8.0</pdop><geoidheight>54.00</geoidheight><course>68.0</course><type>1</type></trkpt>
      <trkpt lat="40.51576338" lon="-5.24975407"><ele>2065</ele><speed>10.44</speed><time>2016-06-29T11:40:39Z</time><pdop>7.0</pdop><geoidheight>54.00</geoidheight><course>54.5</course><type>1</type></trkpt>
      <trkpt lat="40.51586766" lon="-5.24968347"><ele>2069</ele><speed>11.28</speed><time>2016-06-29T11:40:40Z</time><pdop>5.0</pdop><geoidheight>54.00</geoidheight><course>36.8</course><type>1</type></trkpt>
      <trkpt lat="40.51596146" lon="-5.24962982"><ele>2074</ele><speed>11.09</speed><time>2016-06-29T11:40:41Z</time><pdop>5.0</pdop><geoidheight>54.00</geoidheight><course>23.1</course><type>1</type></trkpt>
      <trkpt lat="40.51605933" lon="-5.24959361"><ele>2078</ele><speed>10.79</speed><time>2016-06-29T11:40:42Z</time><pdop>6.0</pdop><geoidheight>54.00</geoidheight><course>18.5</course><type>1</type></trkpt>
      <trkpt lat="40.51621228" lon="-5.24956452"><ele>2081</ele><speed>8.25</speed><time>2016-06-29T11:40:44Z</time><pdop>8.0</pdop><geoidheight>54.00</geoidheight><course>7.0</course><type>1</type></trkpt>
      <trkpt lat="40.51610393" lon="-5.24986559"><ele>2083</ele><speed>5.23</speed><time>2016-06-29T11:40:48Z</time><pdop>11.0</pdop><geoidheight>54.00</geoidheight><course>222.9</course><type>1</type></trkpt>
      <trkpt lat="40.5158843" lon="-5.24993619"><ele>2086</ele><speed>7.72</speed><time>2016-06-29T11:40:51Z</time><pdop>11.0</pdop><geoidheight>54.00</geoidheight><course>172.3</course><type>1</type></trkpt>
      <trkpt lat="40.51561925" lon="-5.24983358"><ele>2089</ele><speed>12.56</speed><time>2016-06-29T11:40:53Z</time><pdop>11.0</pdop><geoidheight>54.00</geoidheight><course>156.2</course><type>1</type></trkpt>
      <trkpt lat="40.51544844" lon="-5.24955858"><ele>2092</ele><speed>12.75</speed><time>2016-06-29T11:40:55Z</time><pdop>10.0</pdop><geoidheight>54.00</geoidheight><course>130.2</course><type>1</type></trkpt>
      <trkpt lat="40.51536208" lon="-5.2491919"><ele>2096</ele><speed>14.29</speed><time>2016-06-29T11:40:57Z</time><pdop>10.0</pdop><geoidheight>54.00</geoidheight><course>110.9</course><type>1</type></trkpt>
      <trkpt lat="40.51530955" lon="-5.24881026"><ele>2099</ele><speed>15.31</speed><time>2016-06-29T11:40:59Z</time><pdop>11.0</pdop><geoidheight>54.00</geoidheight><course>100.0</course><type>1</type></trkpt>
      <trkpt lat="40.51535174" lon="-5.24844822"><ele>2104</ele><speed>14.24</speed><time>2016-06-29T11:41:01Z</time><pdop>14.0</pdop><geoidheight>54.00</geoidheight><course>86.4</course><type>1</type></trkpt>
      <trkpt lat="40.51549441" lon="-5.24812747"><ele>2110</ele><speed>12.30</speed><time>2016-06-29T11:41:03Z</time><pdop>14.0</pdop><geoidheight>54.00</geoidheight><course>70.3</course><type>1</type></trkpt>
      <trkpt lat="40.51574858" lon="-5.24792537"><ele>2121</ele><speed>12.33</speed><time>2016-06-29T11:41:05Z</time><pdop>14.0</pdop><geoidheight>54.00</geoidheight><course>38.5</course><type>1</type></trkpt>
      <trkpt lat="40.51599178" lon="-5.24780531"><ele>2127</ele><speed>11.81</speed><time>2016-06-29T11:41:07Z</time><pdop>13.0</pdop><geoidheight>54.00</geoidheight><course>21.8</course><type>1</type></trkpt>
      <trkpt lat="40.51622893" lon="-5.24775181"><ele>2133</ele><speed>10.90</speed><time>2016-06-29T11:41:09Z</time><pdop>12.0</pdop><geoidheight>54.00</geoidheight><course>5.8</course><type>1</type></trkpt>
      <trkpt lat="40.51649996" lon="-5.24782299"><ele>2139</ele><speed>8.52</speed><time>2016-06-29T11:41:12Z</time><pdop>11.0</pdop><geoidheight>54.00</geoidheight><course>344.8</course><type>1</type></trkpt>
      <trkpt lat="40.51638273" lon="-5.24804059"><ele>2147</ele><speed>6.43</speed><time>2016-06-29T11:41:16Z</time><pdop>10.0</pdop><geoidheight>54.00</geoidheight><course>194.5</course><type>1</type></trkpt>
      <trkpt lat="40.51614109" lon="-5.24795489"><ele>2155</ele><speed>11.17</speed><time>2016-06-29T11:41:19Z</time><pdop>9.0</pdop><geoidheight>54.00</geoidheight><course>149.1</course><type>1</type></trkpt>
      <trkpt lat="40.5160154" lon="-5.2477253"><ele>2166</ele><speed>12.97</speed><time>2016-06-29T11:41:21Z</time><pdop>9.0</pdop><geoidheight>54.00</geoidheight><course>119.5</course><type>1</type></trkpt>
      <trkpt lat="40.51597882" lon="-5.24743364"><ele>2172</ele><speed>13.40</speed><time>2016-06-29T11:41:23Z</time><pdop>9.0</pdop><geoidheight>54.00</geoidheight><course>94.2</course><type>1</type></trkpt>
      <trkpt lat="40.51602034" lon="-5.2470873"><ele>2178</ele><speed>14.73</speed><time>2016-06-29T11:41:25Z</time><pdop>4.0</pdop><geoidheight>54.00</geoidheight><course>75.6</course><type>1</type></trkpt>
      <trkpt lat="40.51606196" lon="-5.24692977"><ele>2182</ele><speed>14.35</speed><time>2016-06-29T11:41:26Z</time><pdop>4.0</pdop><geoidheight>54.00</geoidheight><course>68.6</course><type>1</type></trkpt>
      <trkpt lat="40.5161146" lon="-5.24678409"><ele>2186</ele><speed>13.52</speed><time>2016-06-29T11:41:27Z</time><pdop>4.0</pdop><geoidheight>54.00</geoidheight><course>63.8</course><type>1</type></trkpt>
      <trkpt lat="40.51617889" lon="-5.24664904"><ele>2189</ele><speed>13.29</speed><time>2016-06-29T11:41:28Z</time><pdop>4.0</pdop><geoidheight>54.00</geoidheight><course>57.4</course><type>1</type></trkpt>
      <trkpt lat="40.51624934" lon="-5.24651092"><ele>2192</ele><speed>13.57</speed><time>2016-06-29T11:41:29Z</time><pdop>5.0</pdop><geoidheight>54.00</geoidheight><course>55.9</course><type>1</type></trkpt>
      <trkpt lat="40.51633928" lon="-5.24638941"><ele>2193</ele><speed>13.67</speed><time>2016-06-29T11:41:30Z</time><pdop>5.0</pdop><geoidheight>54.00</geoidheight><course>51.0</course><type>1</type></trkpt>
      <trkpt lat="40.5164792" lon="-5.24628552"><ele>2200</ele><speed>16.34</speed><time>2016-06-29T11:41:31Z</time><pdop>4.0</pdop><geoidheight>54.00</geoidheight><course>37.9</course><type>1</type></trkpt>
      <trkpt lat="40.51657383" lon="-5.24618033"><ele>2207</ele><speed>15.99</speed><time>2016-06-29T11:41:32Z</time><pdop>4.0</pdop><geoidheight>54.00</geoidheight><course>38.2</course><type>1</type></trkpt>
      <trkpt lat="40.51667351" lon="-5.24608957"><ele>2214</ele><speed>14.69</speed><time>2016-06-29T11:41:33Z</time><pdop>4.0</pdop><geoidheight>54.00</geoidheight><course>36.0</course><type>1</type></trkpt>
      <trkpt lat="40.51676936" lon="-5.24600857"><ele>2221</ele><speed>13.01</speed><time>2016-06-29T11:41:34Z</time><pdop>4.0</pdop><geoidheight>54.00</geoidheight><course>30.2</course><type>1</type></trkpt>
      <trkpt lat="40.51686075" lon="-5.2459426"><ele>2228</ele><speed>12.51</speed><time>2016-06-29T11:41:35Z</time><pdop>4.0</pdop><geoidheight>54.00</geoidheight><course>27.7</course><type>1</type></trkpt>
      <trkpt lat="40.51695375" lon="-5.24593316"><ele>2233</ele><speed>11.52</speed><time>2016-06-29T11:41:36Z</time><pdop>4.0</pdop><geoidheight>54.00</geoidheight><course>12.3</course><type>1</type></trkpt>
      <trkpt lat="40.51704471" lon="-5.24591593"><ele>2238</ele><speed>11.28</speed><time>2016-06-29T11:41:37Z</time><pdop>5.0</pdop><geoidheight>54.00</geoidheight><course>11.5</course><type>1</type></trkpt>
      <trkpt lat="40.51707207" lon="-5.24606129"><ele>2241</ele><speed>4.35</speed><time>2016-06-29T11:41:39Z</time><pdop>7.0</pdop><geoidheight>54.00</geoidheight><course>324.5</course><type>1</type></trkpt>
      <trkpt lat="40.51695106" lon="-5.24622751"><ele>2246</ele><speed>3.12</speed><time>2016-06-29T11:41:42Z</time><pdop>7.0</pdop><geoidheight>54.00</geoidheight><course>220.9</course><type>1</type></trkpt>
      <trkpt lat="40.51675075" lon="-5.24619252"><ele>2247</ele><speed>6.76</speed><time>2016-06-29T11:41:44Z</time><pdop>6.0</pdop><geoidheight>54.00</geoidheight><course>171.6</course><type>1</type></trkpt>
      <trkpt lat="40.51664608" lon="-5.24611236"><ele>2248</ele><speed>8.47</speed><time>2016-06-29T11:41:45Z</time><pdop>7.0</pdop><geoidheight>54.00</geoidheight><course>161.3</course><type>1</type></trkpt>
      <trkpt lat="40.51653795" lon="-5.24577529"><ele>2251</ele><speed>11.70</speed><time>2016-06-29T11:41:47Z</time><pdop>9.0</pdop><geoidheight>54.00</geoidheight><course>121.9</course><type>1</type></trkpt>
      <trkpt lat="40.51654886" lon="-5.24549975"><ele>2251</ele><speed>14.49</speed><time>2016-06-29T11:41:48Z</time><pdop>11.0</pdop><geoidheight>54.00</geoidheight><course>103.4</course><type>1</type></trkpt>
      <trkpt lat="40.51674578" lon="-5.24511646"><ele>2252</ele><speed>14.57</speed><time>2016-06-29T11:41:50Z</time><pdop>16.0</pdop><geoidheight>54.00</geoidheight><course>77.0</course><type>1</type></trkpt>
      <trkpt lat="40.51695827" lon="-5.24475362"><ele>2261</ele><speed>10.46</speed><time>2016-06-29T11:41:53Z</time><pdop>19.0</pdop><geoidheight>54.00</geoidheight><course>62.5</course><type>1</type></trkpt>
      <trkpt lat="40.51728283" lon="-5.24445951"><ele>2275</ele><speed>12.31</speed><time>2016-06-29T11:41:56Z</time><pdop>17.0</pdop><geoidheight>54.00</geoidheight><course>42.1</course><type>1</type></trkpt>
      <trkpt lat="40.51768064" lon="-5.2443171"><ele>2258</ele><speed>11.51</speed><time>2016-06-29T11:41:59Z</time><pdop>15.0</pdop><geoidheight>54.00</geoidheight><course>22.8</course><type>1</type></trkpt>
      <trkpt lat="40.51769992" lon="-5.24465661"><ele>2283</ele><speed>6.49</speed><time>2016-06-29T11:42:05Z</time><pdop>12.0</pdop><geoidheight>54.00</geoidheight><course>234.5</course><type>1</type></trkpt>
      <trkpt lat="40.51739578" lon="-5.24471301"><ele>2294</ele><speed>9.42</speed><time>2016-06-29T11:42:08Z</time><pdop>11.0</pdop><geoidheight>54.00</geoidheight><course>189.5</course><type>1</type></trkpt>
      <trkpt lat="40.51742935" lon="-5.24323778"><ele>2102</ele><speed>10.90</speed><time>2016-06-29T11:42:19Z</time><pdop>30.0</pdop><geoidheight>54.00</geoidheight><course>51.7</course><type>1</type></trkpt>
      <trkpt lat="40.51736612" lon="-5.24249139"><ele>2248</ele><speed>12.24</speed><time>2016-06-29T11:42:31Z</time><pdop>29.0</pdop><geoidheight>54.00</geoidheight><course>86.4</course><type>1</type></trkpt>
      <trkpt lat="40.51775941" lon="-5.24216083"><ele>2320</ele><speed>6.55</speed><time>2016-06-29T11:42:36Z</time><pdop>18.0</pdop><geoidheight>54.00</geoidheight><course>16.4</course><type>1</type></trkpt>
      <trkpt lat="40.51780019" lon="-5.24255204"><ele>2358</ele><speed>5.57</speed><time>2016-06-29T11:42:41Z</time><pdop>15.0</pdop><geoidheight>54.00</geoidheight><course>250.6</course><type>1</type></trkpt>
      <trkpt lat="40.51741935" lon="-5.24221126"><ele>2381</ele><speed>7.93</speed><time>2016-06-29T11:42:49Z</time><pdop>33.0</pdop><geoidheight>54.00</geoidheight><course>118.9</course><type>1</type></trkpt>
      <trkpt lat="40.51790384" lon="-5.24154205"><ele>2406</ele><speed>5.92</speed><time>2016-06-29T11:42:56Z</time><pdop>37.0</pdop><geoidheight>54.00</geoidheight><course>31.3</course><type>1</type></trkpt>
      <trkpt lat="40.51802244" lon="-5.24063673"><ele>2467</ele><speed>16.79</speed><time>2016-06-29T11:43:05Z</time><pdop>23.0</pdop><geoidheight>54.00</geoidheight><course>55.7</course><type>1</type></trkpt>
      <trkpt lat="40.51830437" lon="-5.24020791"><ele>2484</ele><speed>15.45</speed><time>2016-06-29T11:43:08Z</time><pdop>24.0</pdop><geoidheight>54.00</geoidheight><course>38.9</course><type>1</type></trkpt>
      <trkpt lat="40.5181715" lon="-5.23952806"><ele>2546</ele><speed>9.27</speed><time>2016-06-29T11:43:24Z</time><pdop>31.0</pdop><geoidheight>54.00</geoidheight><course>74.1</course><type>1</type></trkpt>
      <trkpt lat="40.51871401" lon="-5.23917351"><ele>2567</ele><speed>8.09</speed><time>2016-06-29T11:43:29Z</time><pdop>21.0</pdop><geoidheight>54.00</geoidheight><course>4.2</course><type>1</type></trkpt>
      <trkpt lat="40.51853425" lon="-5.23863921"><ele>2397</ele><speed>14.94</speed><time>2016-06-29T11:43:43Z</time><pdop>18.0</pdop><geoidheight>54.00</geoidheight><course>93.3</course><type>1</type></trkpt>
      <trkpt lat="40.51869419" lon="-5.23823546"><ele>2480</ele><speed>17.17</speed><time>2016-06-29T11:43:45Z</time><pdop>14.0</pdop><geoidheight>54.00</geoidheight><course>63.8</course><type>1</type></trkpt>
      <trkpt lat="40.51882509" lon="-5.2379172"><ele>2547</ele><speed>15.86</speed><time>2016-06-29T11:43:47Z</time><pdop>12.0</pdop><geoidheight>54.00</geoidheight><course>51.2</course><type>1</type></trkpt>
      <trkpt lat="40.51903009" lon="-5.23765723"><ele>2600</ele><speed>15.66</speed><time>2016-06-29T11:43:49Z</time><pdop>11.0</pdop><geoidheight>54.00</geoidheight><course>34.4</course><type>1</type></trkpt>
      <trkpt lat="40.51924327" lon="-5.23748881"><ele>2625</ele><speed>14.68</speed><time>2016-06-29T11:43:51Z</time><pdop>10.0</pdop><geoidheight>54.00</geoidheight><course>20.9</course><type>1</type></trkpt>
      <trkpt lat="40.51950343" lon="-5.23744153"><ele>2643</ele><speed>14.34</speed><time>2016-06-29T11:43:53Z</time><pdop>11.0</pdop><geoidheight>54.00</geoidheight><course>8.5</course><type>1</type></trkpt>
      <trkpt lat="40.51957264" lon="-5.23767182"><ele>2666</ele><speed>4.79</speed><time>2016-06-29T11:43:56Z</time><pdop>8.0</pdop><geoidheight>54.00</geoidheight><course>307.9</course><type>1</type></trkpt>
      <trkpt lat="40.51949901" lon="-5.23783745"><ele>2685</ele><speed>2.29</speed><time>2016-06-29T11:44:00Z</time><pdop>8.0</pdop><geoidheight>54.00</geoidheight><course>204.5</course><type>1</type></trkpt>
      <trkpt lat="40.51930195" lon="-5.2376857"><ele>2696</ele><speed>4.67</speed><time>2016-06-29T11:44:03Z</time><pdop>10.0</pdop><geoidheight>54.00</geoidheight><course>145.4</course><type>1</type></trkpt>
      <trkpt lat="40.51920544" lon="-5.23739673"><ele>2699</ele><speed>8.74</speed><time>2016-06-29T11:44:05Z</time><pdop>12.0</pdop><geoidheight>54.00</geoidheight><course>113.8</course><type>1</type></trkpt>
      <trkpt lat="40.51915075" lon="-5.23712947"><ele>2704</ele><speed>13.16</speed><time>2016-06-29T11:44:06Z</time><pdop>8.0</pdop><geoidheight>54.00</geoidheight><course>106.7</course><type>1</type></trkpt>
      <trkpt lat="40.51912512" lon="-5.23691361"><ele>2710</ele><speed>13.90</speed><time>2016-06-29T11:44:07Z</time><pdop>8.0</pdop><geoidheight>54.00</geoidheight><course>99.7</course><type>1</type></trkpt>
      <trkpt lat="40.51916015" lon="-5.23629218"><ele>2512</ele><speed>15.84</speed><time>2016-06-29T11:44:10Z</time><pdop>9.0</pdop><geoidheight>54.00</geoidheight><course>80.6</course><type>1</type></trkpt>
      <trkpt lat="40.51921266" lon="-5.23607605"><ele>2564</ele><speed>16.64</speed><time>2016-06-29T11:44:11Z</time><pdop>10.0</pdop><geoidheight>54.00</geoidheight><course>75.8</course><type>1</type></trkpt>
      <trkpt lat="40.51952862" lon="-5.23573719"><ele>2638</ele><speed>18.94</speed><time>2016-06-29T11:44:13Z</time><pdop>8.0</pdop><geoidheight>54.00</geoidheight><course>47.6</course><type>1</type></trkpt>
      <trkpt lat="40.51963742" lon="-5.23556015"><ele>2674</ele><speed>18.31</speed><time>2016-06-29T11:44:14Z</time><pdop>7.0</pdop><geoidheight>54.00</geoidheight><course>47.0</course><type>1</type></trkpt>
      <trkpt lat="40.51974737" lon="-5.2353956"><ele>2691</ele><speed>17.84</speed><time>2016-06-29T11:44:15Z</time><pdop>6.0</pdop><geoidheight>54.00</geoidheight><course>47.2</course><type>1</type></trkpt>
      <trkpt lat="40.51985455" lon="-5.23523887"><ele>2711</ele><speed>17.86</speed><time>2016-06-29T11:44:16Z</time><pdop>6.0</pdop><geoidheight>54.00</geoidheight><course>46.4</course><type>1</type></trkpt>
      <trkpt lat="40.51997539" lon="-5.23508668"><ele>2723</ele><speed>17.64</speed><time>2016-06-29T11:44:17Z</time><pdop>6.0</pdop><geoidheight>54.00</geoidheight><course>44.5</course><type>1</type></trkpt>
      <trkpt lat="40.52010435" lon="-5.23494303"><ele>2737</ele><speed>17.84</speed><time>2016-06-29T11:44:18Z</time><pdop>5.0</pdop><geoidheight>54.00</geoidheight><course>41.0</course><type>1</type></trkpt>
      <trkpt lat="40.52022942" lon="-5.23480164"><ele>2746</ele><speed>18.08</speed><time>2016-06-29T11:44:19Z</time><pdop>5.0</pdop><geoidheight>54.00</geoidheight><course>38.2</course><type>1</type></trkpt>
      <trkpt lat="40.52035937" lon="-5.23467271"><ele>2755</ele><speed>17.73</speed><time>2016-06-29T11:44:20Z</time><pdop>4.0</pdop><geoidheight>54.00</geoidheight><course>37.1</course><type>1</type></trkpt>
      <trkpt lat="40.52049698" lon="-5.23455551"><ele>2761</ele><speed>17.02</speed><time>2016-06-29T11:44:21Z</time><pdop>4.0</pdop><geoidheight>54.00</geoidheight><course>36.0</course><type>1</type></trkpt>
      <trkpt lat="40.52062351" lon="-5.23445108"><ele>2764</ele><speed>16.19</speed><time>2016-06-29T11:44:22Z</time><pdop>4.0</pdop><geoidheight>54.00</geoidheight><course>34.2</course><type>1</type></trkpt>
      <trkpt lat="40.52075568" lon="-5.23435021"><ele>2765</ele><speed>16.40</speed><time>2016-06-29T11:44:23Z</time><pdop>4.0</pdop><geoidheight>54.00</geoidheight><course>32.7</course><type>1</type></trkpt>
      <trkpt lat="40.52090427" lon="-5.23424806"><ele>2765</ele><speed>17.93</speed><time>2016-06-29T11:44:24Z</time><pdop>4.0</pdop><geoidheight>54.00</geoidheight><course>32.8</course><type>1</type></trkpt>
      <trkpt lat="40.52105208" lon="-5.23412611"><ele>2763</ele><speed>19.26</speed><time>2016-06-29T11:44:25Z</time><pdop>4.0</pdop><geoidheight>54.00</geoidheight><course>34.6</course><type>1</type></trkpt>
      <trkpt lat="40.52119458" lon="-5.23398375"><ele>2761</ele><speed>20.01</speed><time>2016-06-29T11:44:26Z</time><pdop>3.0</pdop><geoidheight>54.00</geoidheight><course>37.4</course><type>1</type></trkpt>
      <trkpt lat="40.52133719" lon="-5.23382085"><ele>2762</ele><speed>20.57</speed><time>2016-06-29T11:44:27Z</time><pdop>3.0</pdop><geoidheight>54.00</geoidheight><course>40.9</course><type>1</type></trkpt>
      <trkpt lat="40.52147773" lon="-5.23366597"><ele>2761</ele><speed>20.84</speed><time>2016-06-29T11:44:28Z</time><pdop>3.0</pdop><geoidheight>54.00</geoidheight><course>42.3</course><type>1</type></trkpt>
      <trkpt lat="40.52161376" lon="-5.23350285"><ele>2761</ele><speed>20.67</speed><time>2016-06-29T11:44:29Z</time><pdop>4.0</pdop><geoidheight>54.00</geoidheight><course>42.0</course><type>1</type></trkpt>
      <trkpt lat="40.52176907" lon="-5.23332263"><ele>2760</ele><speed>22.25</speed><time>2016-06-29T11:44:30Z</time><pdop>5.0</pdop><geoidheight>54.00</geoidheight><course>41.6</course><type>1</type></trkpt>
      <trkpt lat="40.52196035" lon="-5.23311394"><ele>2760</ele><speed>24.60</speed><time>2016-06-29T11:44:31Z</time><pdop>7.0</pdop><geoidheight>54.00</geoidheight><course>41.1</course><type>1</type></trkpt>
      <trkpt lat="40.52212452" lon="-5.23289499"><ele>2760</ele><speed>25.60</speed><time>2016-06-29T11:44:32Z</time><pdop>8.0</pdop><geoidheight>54.00</geoidheight><course>42.4</course><type>1</type></trkpt>
      <trkpt lat="40.52232987" lon="-5.23267989"><ele>2758</ele><speed>27.05</speed><time>2016-06-29T11:44:33Z</time><pdop>8.0</pdop><geoidheight>54.00</geoidheight><course>41.1</course><type>1</type></trkpt>
      <trkpt lat="40.52244404" lon="-5.23241964"><ele>2757</ele><speed>26.59</speed><time>2016-06-29T11:44:34Z</time><pdop>8.0</pdop><geoidheight>54.00</geoidheight><course>45.8</course><type>1</type></trkpt>
      <trkpt lat="40.52258078" lon="-5.23223588"><ele>2761</ele><speed>25.34</speed><time>2016-06-29T11:44:35Z</time><pdop>8.0</pdop><geoidheight>54.00</geoidheight><course>46.5</course><type>1</type></trkpt>
      <trkpt lat="40.52269872" lon="-5.23196612"><ele>2759</ele><speed>25.73</speed><time>2016-06-29T11:44:36Z</time><pdop>8.0</pdop><geoidheight>54.00</geoidheight><course>50.0</course><type>1</type></trkpt>
      <trkpt lat="40.52277795" lon="-5.23180112"><ele>2751</ele><speed>24.26</speed><time>2016-06-29T11:44:37Z</time><pdop>6.0</pdop><geoidheight>54.00</geoidheight><course>50.5</course><type>1</type></trkpt>
      <trkpt lat="40.52291258" lon="-5.23159467"><ele>2745</ele><speed>24.56</speed><time>2016-06-29T11:44:38Z</time><pdop>6.0</pdop><geoidheight>54.00</geoidheight><course>49.5</course><type>1</type></trkpt>
      <trkpt lat="40.52305575" lon="-5.23137858"><ele>2739</ele><speed>24.90</speed><time>2016-06-29T11:44:39Z</time><pdop>5.0</pdop><geoidheight>54.00</geoidheight><course>48.8</course><type>1</type></trkpt>
      <trkpt lat="40.52320332" lon="-5.2311589"><ele>2733</ele><speed>25.29</speed><time>2016-06-29T11:44:40Z</time><pdop>5.0</pdop><geoidheight>54.00</geoidheight><course>48.9</course><type>1</type></trkpt>
      <trkpt lat="40.52335542" lon="-5.23093053"><ele>2728</ele><speed>25.71</speed><time>2016-06-29T11:44:41Z</time><pdop>5.0</pdop><geoidheight>54.00</geoidheight><course>49.1</course><type>1</type></trkpt>
      <trkpt lat="40.5235169" lon="-5.23068927"><ele>2723</ele><speed>25.66</speed><time>2016-06-29T11:44:42Z</time><pdop>5.0</pdop><geoidheight>54.00</geoidheight><course>48.6</course><type>1</type></trkpt>
      <trkpt lat="40.52367292" lon="-5.23045939"><ele>2720</ele><speed>25.60</speed><time>2016-06-29T11:44:43Z</time><pdop>5.0</pdop><geoidheight>54.00</geoidheight><course>48.6</course><type>1</type></trkpt>
      <trkpt lat="40.52382823" lon="-5.23026187"><ele>2715</ele><speed>25.19</speed><time>2016-06-29T11:44:44Z</time><pdop>5.0</pdop><geoidheight>54.00</geoidheight><course>48.4</course><type>1</type></trkpt>
      <trkpt lat="40.52397107" lon="-5.23003913"><ele>2713</ele><speed>25.12</speed><time>2016-06-29T11:44:45Z</time><pdop>5.0</pdop><geoidheight>54.00</geoidheight><course>48.5</course><type>1</type></trkpt>
      <trkpt lat="40.52412069" lon="-5.22982629"><ele>2712</ele><speed>24.95</speed><time>2016-06-29T11:44:46Z</time><pdop>5.0</pdop><geoidheight>54.00</geoidheight><course>47.7</course><type>1</type></trkpt>
      <trkpt lat="40.52426931" lon="-5.22962621"><ele>2710</ele><speed>24.82</speed><time>2016-06-29T11:44:47Z</time><pdop>10.0</pdop><geoidheight>54.00</geoidheight><course>46.8</course><type>1</type></trkpt>
      <trkpt lat="40.52443582" lon="-5.22941506"><ele>2709</ele><speed>25.48</speed><time>2016-06-29T11:44:48Z</time><pdop>10.0</pdop><geoidheight>54.00</geoidheight><course>45.5</course><type>1</type></trkpt>
      <trkpt lat="40.52458749" lon="-5.22918691"><ele>2708</ele><speed>25.44</speed><time>2016-06-29T11:44:49Z</time><pdop>10.0</pdop><geoidheight>54.00</geoidheight><course>47.6</course><type>1</type></trkpt>
      <trkpt lat="40.52468634" lon="-5.22893912"><ele>2705</ele><speed>24.87</speed><time>2016-06-29T11:44:50Z</time><pdop>9.0</pdop><geoidheight>54.00</geoidheight><course>53.0</course><type>1</type></trkpt>
      <trkpt lat="40.52480644" lon="-5.22872854"><ele>2704</ele><speed>24.73</speed><time>2016-06-29T11:44:51Z</time><pdop>9.0</pdop><geoidheight>54.00</geoidheight><course>52.7</course><type>1</type></trkpt>
      <trkpt lat="40.52493291" lon="-5.22848565"><ele>2703</ele><speed>24.97</speed><time>2016-06-29T11:44:52Z</time><pdop>10.0</pdop><geoidheight>54.00</geoidheight><course>52.9</course><type>1</type></trkpt>
      <trkpt lat="40.52507917" lon="-5.22823801"><ele>2701</ele><speed>25.69</speed><time>2016-06-29T11:44:53Z</time><pdop>10.0</pdop><geoidheight>54.00</geoidheight><course>52.5</course><type>1</type></trkpt>
      <trkpt lat="40.52523642" lon="-5.22799676"><ele>2700</ele><speed>26.49</speed><time>2016-06-29T11:44:54Z</time><pdop>10.0</pdop><geoidheight>54.00</geoidheight><course>51.5</course><type>1</type></trkpt>
      <trkpt lat="40.5253809" lon="-5.22775736"><ele>2699</ele><speed>25.50</speed><time>2016-06-29T11:44:55Z</time><pdop>10.0</pdop><geoidheight>54.00</geoidheight><course>51.4</course><type>1</type></trkpt>
      <trkpt lat="40.52551164" lon="-5.22752724"><ele>2698</ele><speed>24.42</speed><time>2016-06-29T11:44:56Z</time><pdop>10.0</pdop><geoidheight>54.00</geoidheight><course>51.1</course><type>1</type></trkpt>
      <trkpt lat="40.52565541" lon="-5.22732576"><ele>2698</ele><speed>23.57</speed><time>2016-06-29T11:44:57Z</time><pdop>10.0</pdop><geoidheight>54.00</geoidheight><course>50.0</course><type>1</type></trkpt>
      <trkpt lat="40.52578492" lon="-5.2271137"><ele>2697</ele><speed>23.08</speed><time>2016-06-29T11:44:58Z</time><pdop>10.0</pdop><geoidheight>54.00</geoidheight><course>50.1</course><type>1</type></trkpt>
      <trkpt lat="40.52592436" lon="-5.22688463"><ele>2696</ele><speed>23.59</speed><time>2016-06-29T11:44:59Z</time><pdop>10.0</pdop><geoidheight>54.00</geoidheight><course>50.3</course><type>1</type></trkpt>
      <trkpt lat="40.52608461" lon="-5.22671476"><ele>2694</ele><speed>23.39</speed><time>2016-06-29T11:45:00Z</time><pdop>10.0</pdop><geoidheight>54.00</geoidheight><course>47.3</course><type>1</type></trkpt>
      <trkpt lat="40.52623759" lon="-5.2265134"><ele>2691</ele><speed>24.08</speed><time>2016-06-29T11:45:01Z</time><pdop>11.0</pdop><geoidheight>54.00</geoidheight><course>46.5</course><type>1</type></trkpt>
      <trkpt lat="40.52643556" lon="-5.22630329"><ele>2689</ele><speed>25.75</speed><time>2016-06-29T11:45:02Z</time><pdop>11.0</pdop><geoidheight>54.00</geoidheight><course>44.5</course><type>1</type></trkpt>
      <trkpt lat="40.52661445" lon="-5.2260734"><ele>2681</ele><speed>27.28</speed><time>2016-06-29T11:45:03Z</time><pdop>10.0</pdop><geoidheight>54.00</geoidheight><course>42.8</course><type>1</type></trkpt>
      <trkpt lat="40.52678076" lon="-5.22584799"><ele>2676</ele><speed>27.32</speed><time>2016-06-29T11:45:04Z</time><pdop>4.0</pdop><geoidheight>54.00</geoidheight><course>44.0</course><type>1</type></trkpt>
      <trkpt lat="40.52693148" lon="-5.2256109"><ele>2672</ele><speed>27.20</speed><time>2016-06-29T11:45:05Z</time><pdop>4.0</pdop><geoidheight>54.00</geoidheight><course>47.1</course><type>1</type></trkpt>
      <trkpt lat="40.52707793" lon="-5.22536711"><ele>2667</ele><speed>27.25</speed><time>2016-06-29T11:45:06Z</time><pdop>4.0</pdop><geoidheight>54.00</geoidheight><course>51.0</course><type>1</type></trkpt>
      <trkpt lat="40.52721007" lon="-5.2251047"><ele>2662</ele><speed>27.31</speed><time>2016-06-29T11:45:07Z</time><pdop>4.0</pdop><geoidheight>54.00</geoidheight><course>55.1</course><type>1</type></trkpt>
      <trkpt lat="40.52732768" lon="-5.22482888"><ele>2657</ele><speed>27.31</speed><time>2016-06-29T11:45:08Z</time><pdop>4.0</pdop><geoidheight>54.00</geoidheight><course>58.6</course><type>1</type></trkpt>
      <trkpt lat="40.52744984" lon="-5.22454564"><ele>2653</ele><speed>27.57</speed><time>2016-06-29T11:45:09Z</time><pdop>4.0</pdop><geoidheight>54.00</geoidheight><course>60.6</course><type>1</type></trkpt>
      <trkpt lat="40.52754591" lon="-5.22425663"><ele>2647</ele><speed>27.51</speed><time>2016-06-29T11:45:10Z</time><pdop>4.0</pdop><geoidheight>54.00</geoidheight><course>62.3</course><type>1</type></trkpt>
      <trkpt lat="40.5276585" lon="-5.22396174"><ele>2644</ele><speed>27.70</speed><time>2016-06-29T11:45:11Z</time><pdop>4.0</pdop><geoidheight>54.00</geoidheight><course>64.3</course><type>1</type></trkpt>
      <trkpt lat="40.52775787" lon="-5.22366715"><ele>2640</ele><speed>27.31</speed><time>2016-06-29T11:45:12Z</time><pdop>4.0</pdop><geoidheight>54.00</geoidheight><course>65.9</course><type>1</type></trkpt>
      <trkpt lat="40.52785407" lon="-5.22336824"><ele>2638</ele><speed>27.30</speed><time>2016-06-29T11:45:13Z</time><pdop>4.0</pdop><geoidheight>54.00</geoidheight><course>66.9</course><type>1</type></trkpt>
      <trkpt lat="40.52794318" lon="-5.22305967"><ele>2635</ele><speed>27.42</speed><time>2016-06-29T11:45:14Z</time><pdop>4.0</pdop><geoidheight>54.00</geoidheight><course>68.6</course><type>1</type></trkpt>
      <trkpt lat="40.52801379" lon="-5.2227636"><ele>2632</ele><speed>27.35</speed><time>2016-06-29T11:45:15Z</time><pdop>4.0</pdop><geoidheight>54.00</geoidheight><course>70.1</course><type>1</type></trkpt>
      <trkpt lat="40.52808793" lon="-5.2224806"><ele>2628</ele><speed>27.14</speed><time>2016-06-29T11:45:16Z</time><pdop>4.0</pdop><geoidheight>54.00</geoidheight><course>70.8</course><type>1</type></trkpt>
      <trkpt lat="40.52817117" lon="-5.22217676"><ele>2625</ele><speed>27.47</speed><time>2016-06-29T11:45:17Z</time><pdop>4.0</pdop><geoidheight>54.00</geoidheight><course>70.9</course><type>1</type></trkpt>
      <trkpt lat="40.5282349" lon="-5.22188075"><ele>2621</ele><speed>26.97</speed><time>2016-06-29T11:45:18Z</time><pdop>4.0</pdop><geoidheight>54.00</geoidheight><course>72.6</course><type>1</type></trkpt>
      <trkpt lat="40.52830404" lon="-5.22162122"><ele>2616</ele><speed>26.19</speed><time>2016-06-29T11:45:19Z</time><pdop>4.0</pdop><geoidheight>54.00</geoidheight><course>73.0</course><type>1</type></trkpt>
      <trkpt lat="40.52837427" lon="-5.22132762"><ele>2613</ele><speed>26.14</speed><time>2016-06-29T11:45:20Z</time><pdop>4.0</pdop><geoidheight>54.00</geoidheight><course>73.3</course><type>1</type></trkpt>
      <trkpt lat="40.52844727" lon="-5.22102685"><ele>2611</ele><speed>26.56</speed><time>2016-06-29T11:45:21Z</time><pdop>4.0</pdop><geoidheight>54.00</geoidheight><course>72.4</course><type>1</type></trkpt>
      <trkpt lat="40.52852451" lon="-5.22073565"><ele>2608</ele><speed>26.68</speed><time>2016-06-29T11:45:22Z</time><pdop>4.0</pdop><geoidheight>54.00</geoidheight><course>72.1</course><type>1</type></trkpt>
      <trkpt lat="40.52860791" lon="-5.22052696"><ele>2601</ele><speed>25.44</speed><time>2016-06-29T11:45:23Z</time><pdop>4.0</pdop><geoidheight>54.00</geoidheight><course>69.2</course><type>1</type></trkpt>
      <trkpt lat="40.52868786" lon="-5.22024835"><ele>2597</ele><speed>25.17</speed><time>2016-06-29T11:45:24Z</time><pdop>4.0</pdop><geoidheight>54.00</geoidheight><course>69.1</course><type>1</type></trkpt>
      <trkpt lat="40.52876065" lon="-5.21997137"><ele>2594</ele><speed>25.21</speed><time>2016-06-29T11:45:25Z</time><pdop>4.0</pdop><geoidheight>54.00</geoidheight><course>69.7</course><type>1</type></trkpt>
      <trkpt lat="40.52883946" lon="-5.21968538"><ele>2592</ele><speed>24.90</speed><time>2016-06-29T11:45:26Z</time><pdop>4.0</pdop><geoidheight>54.00</geoidheight><course>69.8</course><type>1</type></trkpt>
      <trkpt lat="40.52891092" lon="-5.21941833"><ele>2589</ele><speed>24.80</speed><time>2016-06-29T11:45:27Z</time><pdop>3.0</pdop><geoidheight>54.00</geoidheight><course>69.8</course><type>1</type></trkpt>
      <trkpt lat="40.52898464" lon="-5.21913589"><ele>2586</ele><speed>25.16</speed><time>2016-06-29T11:45:28Z</time><pdop>3.0</pdop><geoidheight>54.00</geoidheight><course>69.6</course><type>1</type></trkpt>
      <trkpt lat="40.52906122" lon="-5.21887315"><ele>2583</ele><speed>24.87</speed><time>2016-06-29T11:45:29Z</time><pdop>3.0</pdop><geoidheight>54.00</geoidheight><course>69.8</course><type>1</type></trkpt>
      <trkpt lat="40.52913425" lon="-5.2186044"><ele>2580</ele><speed>24.59</speed><time>2016-06-29T11:45:30Z</time><pdop>4.0</pdop><geoidheight>54.00</geoidheight><course>70.5</course><type>1</type></trkpt>
      <trkpt lat="40.52919649" lon="-5.21832529"><ele>2579</ele><speed>24.46</speed><time>2016-06-29T11:45:31Z</time><pdop>3.0</pdop><geoidheight>54.00</geoidheight><course>72.1</course><type>1</type></trkpt>
      <trkpt lat="40.52926534" lon="-5.21804639"><ele>2578</ele><speed>24.40</speed><time>2016-06-29T11:45:32Z</time><pdop>4.0</pdop><geoidheight>54.00</geoidheight><course>72.1</course><type>1</type></trkpt>
      <trkpt lat="40.52933181" lon="-5.2177588"><ele>2578</ele><speed>24.81</speed><time>2016-06-29T11:45:33Z</time><pdop>5.0</pdop><geoidheight>54.00</geoidheight><course>72.6</course><type>1</type></trkpt>
      <trkpt lat="40.52940807" lon="-5.21747099"><ele>2576</ele><speed>25.10</speed><time>2016-06-29T11:45:34Z</time><pdop>7.0</pdop><geoidheight>54.00</geoidheight><course>71.8</course><type>1</type></trkpt>
      <trkpt lat="40.52948492" lon="-5.21719638"><ele>2575</ele><speed>24.79</speed><time>2016-06-29T11:45:35Z</time><pdop>5.0</pdop><geoidheight>54.00</geoidheight><course>72.4</course><type>1</type></trkpt>
      <trkpt lat="40.52954575" lon="-5.21692981"><ele>2574</ele><speed>24.58</speed><time>2016-06-29T11:45:36Z</time><pdop>4.0</pdop><geoidheight>54.00</geoidheight><course>72.3</course><type>1</type></trkpt>
      <trkpt lat="40.52961878" lon="-5.21665862"><ele>2573</ele><speed>24.44</speed><time>2016-06-29T11:45:37Z</time><pdop>4.0</pdop><geoidheight>54.00</geoidheight><course>72.1</course><type>1</type></trkpt>
      <trkpt lat="40.52968943" lon="-5.21637524"><ele>2572</ele><speed>24.55</speed><time>2016-06-29T11:45:38Z</time><pdop>5.0</pdop><geoidheight>54.00</geoidheight><course>71.6</course><type>1</type></trkpt>
      <trkpt lat="40.52976424" lon="-5.21610079"><ele>2571</ele><speed>24.69</speed><time>2016-06-29T11:45:39Z</time><pdop>4.0</pdop><geoidheight>54.00</geoidheight><course>70.1</course><type>1</type></trkpt>
      <trkpt lat="40.52985647" lon="-5.21584527"><ele>2569</ele><speed>24.12</speed><time>2016-06-29T11:45:40Z</time><pdop>4.0</pdop><geoidheight>54.00</geoidheight><course>68.4</course><type>1</type></trkpt>
      <trkpt lat="40.52992215" lon="-5.21559269"><ele>2569</ele><speed>23.23</speed><time>2016-06-29T11:45:41Z</time><pdop>5.0</pdop><geoidheight>54.00</geoidheight><course>69.0</course><type>1</type></trkpt>
      <trkpt lat="40.52998223" lon="-5.21539481"><ele>2568</ele><speed>20.79</speed><time>2016-06-29T11:45:42Z</time><pdop>6.0</pdop><geoidheight>54.00</geoidheight><course>69.2</course><type>1</type></trkpt>
      <trkpt lat="40.53005549" lon="-5.21518763"><ele>2569</ele><speed>19.45</speed><time>2016-06-29T11:45:43Z</time><pdop>6.0</pdop><geoidheight>54.00</geoidheight><course>68.6</course><type>1</type></trkpt>
      <trkpt lat="40.53011086" lon="-5.21497964"><ele>2571</ele><speed>18.15</speed><time>2016-06-29T11:45:44Z</time><pdop>5.0</pdop><geoidheight>54.00</geoidheight><course>69.3</course><type>1</type></trkpt>
      <trkpt lat="40.53019665" lon="-5.21477457"><ele>2574</ele><speed>18.51</speed><time>2016-06-29T11:45:45Z</time><pdop>5.0</pdop><geoidheight>54.00</geoidheight><course>67.5</course><type>1</type></trkpt>
      <trkpt lat="40.53024549" lon="-5.21458825"><ele>2575</ele><speed>17.86</speed><time>2016-06-29T11:45:46Z</time><pdop>4.0</pdop><geoidheight>54.00</geoidheight><course>66.6</course><type>1</type></trkpt>
      <trkpt lat="40.53029577" lon="-5.21439481"><ele>2577</ele><speed>17.05</speed><time>2016-06-29T11:45:47Z</time><pdop>4.0</pdop><geoidheight>54.00</geoidheight><course>69.0</course><type>1</type></trkpt>
      <trkpt lat="40.53034386" lon="-5.21421044"><ele>2580</ele><speed>16.18</speed><time>2016-06-29T11:45:48Z</time><pdop>4.0</pdop><geoidheight>54.00</geoidheight><course>69.9</course><type>1</type></trkpt>
      <trkpt lat="40.53038496" lon="-5.21405437"><ele>2581</ele><speed>14.95</speed><time>2016-06-29T11:45:49Z</time><pdop>3.0</pdop><geoidheight>54.00</geoidheight><course>69.3</course><type>1</type></trkpt>
      <trkpt lat="40.530432" lon="-5.21388911"><ele>2582</ele><speed>14.51</speed><time>2016-06-29T11:45:50Z</time><pdop>3.0</pdop><geoidheight>54.00</geoidheight><course>67.3</course><type>1</type></trkpt>
      <trkpt lat="40.53049133" lon="-5.21373227"><ele>2582</ele><speed>15.06</speed><time>2016-06-29T11:45:51Z</time><pdop>3.0</pdop><geoidheight>54.00</geoidheight><course>66.6</course><type>1</type></trkpt>
      <trkpt lat="40.53055748" lon="-5.213549"><ele>2582</ele><speed>16.25</speed><time>2016-06-29T11:45:52Z</time><pdop>3.0</pdop><geoidheight>54.00</geoidheight><course>66.2</course><type>1</type></trkpt>
      <trkpt lat="40.53062416" lon="-5.21336514"><ele>2581</ele><speed>17.22</speed><time>2016-06-29T11:45:53Z</time><pdop>3.0</pdop><geoidheight>54.00</geoidheight><course>66.0</course><type>1</type></trkpt>
      <trkpt lat="40.53069524" lon="-5.21316416"><ele>2581</ele><speed>18.26</speed><time>2016-06-29T11:45:54Z</time><pdop>3.0</pdop><geoidheight>54.00</geoidheight><course>65.2</course><type>1</type></trkpt>
      <trkpt lat="40.53077268" lon="-5.2129636"><ele>2581</ele><speed>18.68</speed><time>2016-06-29T11:45:55Z</time><pdop>3.0</pdop><geoidheight>54.00</geoidheight><course>62.6</course><type>1</type></trkpt>
      <trkpt lat="40.53086353" lon="-5.2127674"><ele>2581</ele><speed>19.15</speed><time>2016-06-29T11:45:56Z</time><pdop>3.0</pdop><geoidheight>54.00</geoidheight><course>59.0</course><type>1</type></trkpt>
      <trkpt lat="40.53096225" lon="-5.21258662"><ele>2581</ele><speed>18.83</speed><time>2016-06-29T11:45:57Z</time><pdop>3.0</pdop><geoidheight>54.00</geoidheight><course>55.2</course><type>1</type></trkpt>
      <trkpt lat="40.53106363" lon="-5.21241042"><ele>2583</ele><speed>18.25</speed><time>2016-06-29T11:45:58Z</time><pdop>3.0</pdop><geoidheight>54.00</geoidheight><course>52.8</course><type>1</type></trkpt>
      <trkpt lat="40.5311612" lon="-5.21224491"><ele>2582</ele><speed>17.73</speed><time>2016-06-29T11:45:59Z</time><pdop>3.0</pdop><geoidheight>54.00</geoidheight><course>53.6</course><type>1</type></trkpt>
      <trkpt lat="40.53125239" lon="-5.21208452"><ele>2581</ele><speed>17.75</speed><time>2016-06-29T11:46:00Z</time><pdop>3.0</pdop><geoidheight>54.00</geoidheight><course>54.4</course><type>1</type></trkpt>
      <trkpt lat="40.53133478" lon="-5.21190758"><ele>2580</ele><speed>17.91</speed><time>2016-06-29T11:46:01Z</time><pdop>3.0</pdop><geoidheight>54.00</geoidheight><course>56.3</course><type>1</type></trkpt>
      <trkpt lat="40.53141808" lon="-5.21172105"><ele>2579</ele><speed>18.52</speed><time>2016-06-29T11:46:02Z</time><pdop>3.0</pdop><geoidheight>54.00</geoidheight><course>57.0</course><type>1</type></trkpt>
      <trkpt lat="40.53151025" lon="-5.21155819"><ele>2577</ele><speed>17.58</speed><time>2016-06-29T11:46:03Z</time><pdop>4.0</pdop><geoidheight>54.00</geoidheight><course>54.9</course><type>1</type></trkpt>
      <trkpt lat="40.53159546" lon="-5.21139262"><ele>2577</ele><speed>17.39</speed><time>2016-06-29T11:46:04Z</time><pdop>5.0</pdop><geoidheight>54.00</geoidheight><course>55.8</course><type>1</type></trkpt>
      <trkpt lat="40.53167514" lon="-5.21124426"><ele>2575</ele><speed>17.07</speed><time>2016-06-29T11:46:05Z</time><pdop>6.0</pdop><geoidheight>54.00</geoidheight><course>56.5</course><type>1</type></trkpt>
      <trkpt lat="40.5317521" lon="-5.21101956"><ele>2573</ele><speed>19.46</speed><time>2016-06-29T11:46:06Z</time><pdop>6.0</pdop><geoidheight>54.00</geoidheight><course>61.4</course><type>1</type></trkpt>
      <trkpt lat="40.53177112" lon="-5.2108226"><ele>2571</ele><speed>19.11</speed><time>2016-06-29T11:46:07Z</time><pdop>6.0</pdop><geoidheight>54.00</geoidheight><course>66.5</course><type>1</type></trkpt>
      <trkpt lat="40.53176483" lon="-5.21057072"><ele>2568</ele><speed>20.06</speed><time>2016-06-29T11:46:08Z</time><pdop>5.0</pdop><geoidheight>54.00</geoidheight><course>74.8</course><type>1</type></trkpt>
      <trkpt lat="40.53180096" lon="-5.21036137"><ele>2568</ele><speed>18.37</speed><time>2016-06-29T11:46:09Z</time><pdop>5.0</pdop><geoidheight>54.00</geoidheight><course>78.6</course><type>1</type></trkpt>
      <trkpt lat="40.53184386" lon="-5.21016525"><ele>2566</ele><speed>16.97</speed><time>2016-06-29T11:46:10Z</time><pdop>4.0</pdop><geoidheight>54.00</geoidheight><course>79.4</course><type>1</type></trkpt>
      <trkpt lat="40.53187573" lon="-5.20997841"><ele>2564</ele><speed>16.51</speed><time>2016-06-29T11:46:11Z</time><pdop>4.0</pdop><geoidheight>54.00</geoidheight><course>78.2</course><type>1</type></trkpt>
      <trkpt lat="40.53190298" lon="-5.20979495"><ele>2559</ele><speed>17.00</speed><time>2016-06-29T11:46:12Z</time><pdop>4.0</pdop><geoidheight>54.00</geoidheight><course>75.4</course><type>1</type></trkpt>
      <trkpt lat="40.53195403" lon="-5.20959942"><ele>2555</ele><speed>17.34</speed><time>2016-06-29T11:46:13Z</time><pdop>4.0</pdop><geoidheight>54.00</geoidheight><course>71.8</course><type>1</type></trkpt>
      <trkpt lat="40.5320143" lon="-5.20940381"><ele>2552</ele><speed>17.85</speed><time>2016-06-29T11:46:14Z</time><pdop>4.0</pdop><geoidheight>54.00</geoidheight><course>68.4</course><type>1</type></trkpt>
      <trkpt lat="40.53207877" lon="-5.20921072"><ele>2550</ele><speed>17.83</speed><time>2016-06-29T11:46:15Z</time><pdop>4.0</pdop><geoidheight>54.00</geoidheight><course>66.9</course><type>1</type></trkpt>
      <trkpt lat="40.53212743" lon="-5.20903548"><ele>2550</ele><speed>16.01</speed><time>2016-06-29T11:46:16Z</time><pdop>4.0</pdop><geoidheight>54.00</geoidheight><course>69.0</course><type>1</type></trkpt>
      <trkpt lat="40.53214838" lon="-5.20888551"><ele>2550</ele><speed>13.82</speed><time>2016-06-29T11:46:17Z</time><pdop>4.0</pdop><geoidheight>54.00</geoidheight><course>74.9</course><type>1</type></trkpt>
      <trkpt lat="40.5321777" lon="-5.20873799"><ele>2550</ele><speed>12.75</speed><time>2016-06-29T11:46:18Z</time><pdop>3.0</pdop><geoidheight>54.00</geoidheight><course>78.3</course><type>1</type></trkpt>
      <trkpt lat="40.53220228" lon="-5.20858895"><ele>2549</ele><speed>13.13</speed><time>2016-06-29T11:46:19Z</time><pdop>3.0</pdop><geoidheight>54.00</geoidheight><course>76.5</course><type>1</type></trkpt>
      <trkpt lat="40.53225496" lon="-5.20841762"><ele>2545</ele><speed>15.31</speed><time>2016-06-29T11:46:20Z</time><pdop>3.0</pdop><geoidheight>54.00</geoidheight><course>71.6</course><type>1</type></trkpt>
      <trkpt lat="40.53229358" lon="-5.20823984"><ele>2542</ele><speed>15.61</speed><time>2016-06-29T11:46:21Z</time><pdop>3.0</pdop><geoidheight>54.00</geoidheight><course>71.6</course><type>1</type></trkpt>
      <trkpt lat="40.53237211" lon="-5.20803574"><ele>2536</ele><speed>18.61</speed><time>2016-06-29T11:46:22Z</time><pdop>4.0</pdop><geoidheight>54.00</geoidheight><course>66.7</course><type>1</type></trkpt>
      <trkpt lat="40.53244358" lon="-5.20784295"><ele>2533</ele><speed>18.72</speed><time>2016-06-29T11:46:23Z</time><pdop>4.0</pdop><geoidheight>54.00</geoidheight><course>64.9</course><type>1</type></trkpt>
      <trkpt lat="40.53252351" lon="-5.20762603"><ele>2533</ele><speed>19.35</speed><time>2016-06-29T11:46:24Z</time><pdop>4.0</pdop><geoidheight>54.00</geoidheight><course>63.9</course><type>1</type></trkpt>
      <trkpt lat="40.53258987" lon="-5.20744157"><ele>2532</ele><speed>18.09</speed><time>2016-06-29T11:46:25Z</time><pdop>4.0</pdop><geoidheight>54.00</geoidheight><course>64.5</course><type>1</type></trkpt>
      <trkpt lat="40.53265692" lon="-5.20725351"><ele>2533</ele><speed>16.84</speed><time>2016-06-29T11:46:26Z</time><pdop>4.0</pdop><geoidheight>54.00</geoidheight><course>64.6</course><type>1</type></trkpt>
      <trkpt lat="40.53272471" lon="-5.2070894"><ele>2533</ele><speed>15.72</speed><time>2016-06-29T11:46:27Z</time><pdop>4.0</pdop><geoidheight>54.00</geoidheight><course>63.3</course><type>1</type></trkpt>
      <trkpt lat="40.53279215" lon="-5.20695531"><ele>2531</ele><speed>14.62</speed><time>2016-06-29T11:46:28Z</time><pdop>4.0</pdop><geoidheight>54.00</geoidheight><course>60.5</course><type>1</type></trkpt>
      <trkpt lat="40.53285417" lon="-5.20679314"><ele>2529</ele><speed>15.45</speed><time>2016-06-29T11:46:29Z</time><pdop>4.0</pdop><geoidheight>54.00</geoidheight><course>58.5</course><type>1</type></trkpt>
      <trkpt lat="40.53293914" lon="-5.20664723"><ele>2527</ele><speed>16.06</speed><time>2016-06-29T11:46:30Z</time><pdop>4.0</pdop><geoidheight>54.00</geoidheight><course>54.5</course><type>1</type></trkpt>
      <trkpt lat="40.53303804" lon="-5.20648941"><ele>2526</ele><speed>16.67</speed><time>2016-06-29T11:46:31Z</time><pdop>4.0</pdop><geoidheight>54.00</geoidheight><course>53.0</course><type>1</type></trkpt>
      <trkpt lat="40.53312847" lon="-5.20632316"><ele>2526</ele><speed>16.80</speed><time>2016-06-29T11:46:32Z</time><pdop>4.0</pdop><geoidheight>54.00</geoidheight><course>52.9</course><type>1</type></trkpt>
      <trkpt lat="40.53321388" lon="-5.2061649"><ele>2527</ele><speed>16.24</speed><time>2016-06-29T11:46:33Z</time><pdop>4.0</pdop><geoidheight>54.00</geoidheight><course>53.9</course><type>1</type></trkpt>
      <trkpt lat="40.53329488" lon="-5.20600423"><ele>2527</ele><speed>15.80</speed><time>2016-06-29T11:46:34Z</time><pdop>4.0</pdop><geoidheight>54.00</geoidheight><course>56.5</course><type>1</type></trkpt>
      <trkpt lat="40.53336476" lon="-5.20585367"><ele>2527</ele><speed>14.98</speed><time>2016-06-29T11:46:35Z</time><pdop>4.0</pdop><geoidheight>54.00</geoidheight><course>58.3</course><type>1</type></trkpt>
      <trkpt lat="40.53342441" lon="-5.20571304"><ele>2525</ele><speed>14.73</speed><time>2016-06-29T11:46:36Z</time><pdop>4.0</pdop><geoidheight>54.00</geoidheight><course>60.9</course><type>1</type></trkpt>
      <trkpt lat="40.53348374" lon="-5.20554105"><ele>2524</ele><speed>15.43</speed><time>2016-06-29T11:46:37Z</time><pdop>4.0</pdop><geoidheight>54.00</geoidheight><course>61.1</course><type>1</type></trkpt>
      <trkpt lat="40.53355807" lon="-5.20536401"><ele>2524</ele><speed>16.25</speed><time>2016-06-29T11:46:38Z</time><pdop>5.0</pdop><geoidheight>54.00</geoidheight><course>60.6</course><type>1</type></trkpt>
      <trkpt lat="40.53363297" lon="-5.20517824"><ele>2524</ele><speed>17.22</speed><time>2016-06-29T11:46:39Z</time><pdop>6.0</pdop><geoidheight>54.00</geoidheight><course>60.2</course><type>1</type></trkpt>
      <trkpt lat="40.53368657" lon="-5.20499816"><ele>2523</ele><speed>17.35</speed><time>2016-06-29T11:46:40Z</time><pdop>7.0</pdop><geoidheight>54.00</geoidheight><course>61.5</course><type>1</type></trkpt>
      <trkpt lat="40.53379276" lon="-5.204859"><ele>2522</ele><speed>16.53</speed><time>2016-06-29T11:46:41Z</time><pdop>7.0</pdop><geoidheight>54.00</geoidheight><course>55.4</course><type>1</type></trkpt>
      <trkpt lat="40.53390739" lon="-5.20474165"><ele>2522</ele><speed>15.60</speed><time>2016-06-29T11:46:42Z</time><pdop>6.0</pdop><geoidheight>54.00</geoidheight><course>48.2</course><type>1</type></trkpt>
      <trkpt lat="40.53400594" lon="-5.20463983"><ele>2523</ele><speed>14.97</speed><time>2016-06-29T11:46:43Z</time><pdop>6.0</pdop><geoidheight>54.00</geoidheight><course>44.0</course><type>1</type></trkpt>
      <trkpt lat="40.53410711" lon="-5.20449924"><ele>2524</ele><speed>15.21</speed><time>2016-06-29T11:46:44Z</time><pdop>5.0</pdop><geoidheight>54.00</geoidheight><course>44.7</course><type>1</type></trkpt>
      <trkpt lat="40.53419826" lon="-5.20439057"><ele>2525</ele><speed>14.51</speed><time>2016-06-29T11:46:45Z</time><pdop>5.0</pdop><geoidheight>54.00</geoidheight><course>44.8</course><type>1</type></trkpt>
      <trkpt lat="40.53428579" lon="-5.20427324"><ele>2526</ele><speed>13.41</speed><time>2016-06-29T11:46:46Z</time><pdop>5.0</pdop><geoidheight>54.00</geoidheight><course>46.1</course><type>1</type></trkpt>
      <trkpt lat="40.53435769" lon="-5.20414564"><ele>2527</ele><speed>13.01</speed><time>2016-06-29T11:46:47Z</time><pdop>5.0</pdop><geoidheight>54.00</geoidheight><course>50.0</course><type>1</type></trkpt>
      <trkpt lat="40.53443172" lon="-5.20402532"><ele>2528</ele><speed>12.66</speed><time>2016-06-29T11:46:48Z</time><pdop>5.0</pdop><geoidheight>54.00</geoidheight><course>53.1</course><type>1</type></trkpt>
      <trkpt lat="40.53450867" lon="-5.2038983"><ele>2530</ele><speed>12.84</speed><time>2016-06-29T11:46:49Z</time><pdop>5.0</pdop><geoidheight>54.00</geoidheight><course>52.9</course><type>1</type></trkpt>
      <trkpt lat="40.53458256" lon="-5.20379112"><ele>2530</ele><speed>13.05</speed><time>2016-06-29T11:46:50Z</time><pdop>5.0</pdop><geoidheight>54.00</geoidheight><course>52.6</course><type>1</type></trkpt>
      <trkpt lat="40.53466019" lon="-5.20364523"><ele>2530</ele><speed>13.81</speed><time>2016-06-29T11:46:51Z</time><pdop>5.0</pdop><geoidheight>54.00</geoidheight><course>55.7</course><type>1</type></trkpt>
      <trkpt lat="40.53473279" lon="-5.20348678"><ele>2530</ele><speed>14.76</speed><time>2016-06-29T11:46:52Z</time><pdop>5.0</pdop><geoidheight>54.00</geoidheight><course>62.1</course><type>1</type></trkpt>
      <trkpt lat="40.53481351" lon="-5.20331412"><ele>2531</ele><speed>15.44</speed><time>2016-06-29T11:46:53Z</time><pdop>6.0</pdop><geoidheight>54.00</geoidheight><course>63.0</course><type>1</type></trkpt>
      <trkpt lat="40.5348341" lon="-5.20314388"><ele>2530</ele><speed>15.01</speed><time>2016-06-29T11:46:54Z</time><pdop>6.0</pdop><geoidheight>54.00</geoidheight><course>69.1</course><type>1</type></trkpt>
      <trkpt lat="40.534866" lon="-5.20298415"><ele>2531</ele><speed>14.41</speed><time>2016-06-29T11:46:55Z</time><pdop>7.0</pdop><geoidheight>54.00</geoidheight><course>73.5</course><type>1</type></trkpt>
      <trkpt lat="40.53483868" lon="-5.20281446"><ele>2534</ele><speed>13.20</speed><time>2016-06-29T11:46:56Z</time><pdop>5.0</pdop><geoidheight>54.00</geoidheight><course>92.4</course><type>1</type></trkpt>
      <trkpt lat="40.53481486" lon="-5.20266736"><ele>2537</ele><speed>11.81</speed><time>2016-06-29T11:46:57Z</time><pdop>4.0</pdop><geoidheight>54.00</geoidheight><course>101.9</course><type>1</type></trkpt>
      <trkpt lat="40.53478225" lon="-5.20257221"><ele>2538</ele><speed>9.18</speed><time>2016-06-29T11:46:58Z</time><pdop>4.0</pdop><geoidheight>54.00</geoidheight><course>116.0</course><type>1</type></trkpt>
      <trkpt lat="40.53472207" lon="-5.20253255"><ele>2537</ele><speed>4.03</speed><time>2016-06-29T11:47:00Z</time><pdop>3.0</pdop><geoidheight>54.00</geoidheight><course>186.4</course><type>1</type></trkpt>
      <trkpt lat="40.53472638" lon="-5.20263438"><ele>2537</ele><speed>5.35</speed><time>2016-06-29T11:47:02Z</time><pdop>3.0</pdop><geoidheight>54.00</geoidheight><course>281.7</course><type>1</type></trkpt>
      <trkpt lat="40.53483268" lon="-5.20273659"><ele>2538</ele><speed>8.39</speed><time>2016-06-29T11:47:04Z</time><pdop>3.0</pdop><geoidheight>54.00</geoidheight><course>330.7</course><type>1</type></trkpt>
      <trkpt lat="40.53491798" lon="-5.20276277"><ele>2538</ele><speed>9.28</speed><time>2016-06-29T11:47:05Z</time><pdop>3.0</pdop><geoidheight>54.00</geoidheight><course>339.5</course><type>1</type></trkpt>
      <trkpt lat="40.53505661" lon="-5.20278414"><ele>2538</ele><speed>13.58</speed><time>2016-06-29T11:47:06Z</time><pdop>3.0</pdop><geoidheight>54.00</geoidheight><course>350.3</course><type>1</type></trkpt>
      <trkpt lat="40.53518265" lon="-5.20281142"><ele>2538</ele><speed>14.23</speed><time>2016-06-29T11:47:07Z</time><pdop>3.0</pdop><geoidheight>54.00</geoidheight><course>351.9</course><type>1</type></trkpt>
      <trkpt lat="40.53533913" lon="-5.2027829"><ele>2538</ele><speed>16.17</speed><time>2016-06-29T11:47:08Z</time><pdop>3.0</pdop><geoidheight>54.00</geoidheight><course>2.8</course><type>1</type></trkpt>
      <trkpt lat="40.5354851" lon="-5.20274207"><ele>2538</ele><speed>16.72</speed><time>2016-06-29T11:47:09Z</time><pdop>4.0</pdop><geoidheight>54.00</geoidheight><course>9.3</course><type>1</type></trkpt>
      <trkpt lat="40.53560746" lon="-5.2026462"><ele>2541</ele><speed>16.11</speed><time>2016-06-29T11:47:10Z</time><pdop>4.0</pdop><geoidheight>54.00</geoidheight><course>19.0</course><type>1</type></trkpt>
      <trkpt lat="40.53572699" lon="-5.20256036"><ele>2544</ele><speed>15.60</speed><time>2016-06-29T11:47:11Z</time><pdop>4.0</pdop><geoidheight>54.00</geoidheight><course>22.6</course><type>1</type></trkpt>
      <trkpt lat="40.53584958" lon="-5.20248512"><ele>2547</ele><speed>15.16</speed><time>2016-06-29T11:47:12Z</time><pdop>4.0</pdop><geoidheight>54.00</geoidheight><course>24.2</course><type>1</type></trkpt>
      <trkpt lat="40.53596963" lon="-5.20239978"><ele>2549</ele><speed>14.86</speed><time>2016-06-29T11:47:13Z</time><pdop>4.0</pdop><geoidheight>54.00</geoidheight><course>26.5</course><type>1</type></trkpt>
      <trkpt lat="40.53607864" lon="-5.20231508"><ele>2551</ele><speed>14.83</speed><time>2016-06-29T11:47:14Z</time><pdop>3.0</pdop><geoidheight>54.00</geoidheight><course>28.8</course><type>1</type></trkpt>
      <trkpt lat="40.53618774" lon="-5.20222411"><ele>2552</ele><speed>15.01</speed><time>2016-06-29T11:47:15Z</time><pdop>4.0</pdop><geoidheight>54.00</geoidheight><course>30.2</course><type>1</type></trkpt>
      <trkpt lat="40.53631144" lon="-5.20212817"><ele>2553</ele><speed>15.34</speed><time>2016-06-29T11:47:16Z</time><pdop>4.0</pdop><geoidheight>54.00</geoidheight><course>32.6</course><type>1</type></trkpt>
      <trkpt lat="40.5364042" lon="-5.20200145"><ele>2556</ele><speed>14.95</speed><time>2016-06-29T11:47:17Z</time><pdop>3.0</pdop><geoidheight>54.00</geoidheight><course>41.8</course><type>1</type></trkpt>
      <trkpt lat="40.53647968" lon="-5.20186261"><ele>2558</ele><speed>14.25</speed><time>2016-06-29T11:47:18Z</time><pdop>3.0</pdop><geoidheight>54.00</geoidheight><course>52.7</course><type>1</type></trkpt>
      <trkpt lat="40.53652625" lon="-5.2017274"><ele>2559</ele><speed>13.17</speed><time>2016-06-29T11:47:19Z</time><pdop>3.0</pdop><geoidheight>54.00</geoidheight><course>64.1</course><type>1</type></trkpt>
      <trkpt lat="40.53654344" lon="-5.20158655"><ele>2561</ele><speed>12.12</speed><time>2016-06-29T11:47:20Z</time><pdop>9.0</pdop><geoidheight>54.00</geoidheight><course>77.0</course><type>1</type></trkpt>
      <trkpt lat="40.53650827" lon="-5.20134813"><ele>2561</ele><speed>10.12</speed><time>2016-06-29T11:47:22Z</time><pdop>9.0</pdop><geoidheight>54.00</geoidheight><course>102.9</course><type>1</type></trkpt>
      <trkpt lat="40.53634567" lon="-5.20128534"><ele>2566</ele><speed>5.05</speed><time>2016-06-29T11:47:25Z</time><pdop>9.0</pdop><geoidheight>54.00</geoidheight><course>190.3</course><type>1</type></trkpt>
      <trkpt lat="40.5364202" lon="-5.20148116"><ele>2569</ele><speed>8.78</speed><time>2016-06-29T11:47:28Z</time><pdop>9.0</pdop><geoidheight>54.00</geoidheight><course>311.0</course><type>1</type></trkpt>
      <trkpt lat="40.53662532" lon="-5.20156413"><ele>2570</ele><speed>12.67</speed><time>2016-06-29T11:47:30Z</time><pdop>9.0</pdop><geoidheight>54.00</geoidheight><course>345.7</course><type>1</type></trkpt>
      <trkpt lat="40.53688086" lon="-5.20152831"><ele>2572</ele><speed>14.51</speed><time>2016-06-29T11:47:32Z</time><pdop>9.0</pdop><geoidheight>54.00</geoidheight><course>9.6</course><type>1</type></trkpt>
      <trkpt lat="40.53700078" lon="-5.20146304"><ele>2572</ele><speed>14.59</speed><time>2016-06-29T11:47:33Z</time><pdop>3.0</pdop><geoidheight>54.00</geoidheight><course>20.4</course><type>1</type></trkpt>
      <trkpt lat="40.53711725" lon="-5.20137095"><ele>2573</ele><speed>14.93</speed><time>2016-06-29T11:47:34Z</time><pdop>3.0</pdop><geoidheight>54.00</geoidheight><course>28.1</course><type>1</type></trkpt>
      <trkpt lat="40.53723285" lon="-5.20126155"><ele>2572</ele><speed>15.20</speed><time>2016-06-29T11:47:35Z</time><pdop>3.0</pdop><geoidheight>54.00</geoidheight><course>33.6</course><type>1</type></trkpt>
      <trkpt lat="40.5373306" lon="-5.20114871"><ele>2573</ele><speed>14.95</speed><time>2016-06-29T11:47:36Z</time><pdop>3.0</pdop><geoidheight>54.00</geoidheight><course>41.0</course><type>1</type></trkpt>
      <trkpt lat="40.53742169" lon="-5.20102989"><ele>2573</ele><speed>14.85</speed><time>2016-06-29T11:47:37Z</time><pdop>4.0</pdop><geoidheight>54.00</geoidheight><course>43.1</course><type>1</type></trkpt>
      <trkpt lat="40.53751916" lon="-5.20088589"><ele>2573</ele><speed>15.70</speed><time>2016-06-29T11:47:38Z</time><pdop>5.0</pdop><geoidheight>54.00</geoidheight><course>46.4</course><type>1</type></trkpt>
      <trkpt lat="40.53741367" lon="-5.20061452"><ele>2573</ele><speed>11.56</speed><time>2016-06-29T11:47:40Z</time><pdop>5.0</pdop><geoidheight>54.00</geoidheight><course>97.6</course><type>1</type></trkpt>
      <trkpt lat="40.53739814" lon="-5.20048232"><ele>2573</ele><speed>11.06</speed><time>2016-06-29T11:47:41Z</time><pdop>5.0</pdop><geoidheight>54.00</geoidheight><course>101.5</course><type>1</type></trkpt>
      <trkpt lat="40.53729531" lon="-5.20034977"><ele>2577</ele><speed>7.94</speed><time>2016-06-29T11:47:43Z</time><pdop>4.0</pdop><geoidheight>54.00</geoidheight><course>138.7</course><type>1</type></trkpt>
      <trkpt lat="40.53721699" lon="-5.20030907"><ele>2581</ele><speed>4.50</speed><time>2016-06-29T11:47:45Z</time><pdop>3.0</pdop><geoidheight>54.00</geoidheight><course>173.5</course><type>1</type></trkpt>
      <trkpt lat="40.53723598" lon="-5.20043562"><ele>2583</ele><speed>6.54</speed><time>2016-06-29T11:47:48Z</time><pdop>3.0</pdop><geoidheight>54.00</geoidheight><course>298.9</course><type>1</type></trkpt>
      <trkpt lat="40.53729909" lon="-5.20050375"><ele>2579</ele><speed>9.25</speed><time>2016-06-29T11:47:49Z</time><pdop>3.0</pdop><geoidheight>54.00</geoidheight><course>316.7</course><type>1</type></trkpt>
      <trkpt lat="40.53739558" lon="-5.20057704"><ele>2581</ele><speed>11.78</speed><time>2016-06-29T11:47:50Z</time><pdop>3.0</pdop><geoidheight>54.00</geoidheight><course>332.1</course><type>1</type></trkpt>
      <trkpt lat="40.53748074" lon="-5.20063526"><ele>2582</ele><speed>11.64</speed><time>2016-06-29T11:47:51Z</time><pdop>3.0</pdop><geoidheight>54.00</geoidheight><course>333.2</course><type>1</type></trkpt>
      <trkpt lat="40.5375989" lon="-5.20059492"><ele>2584</ele><speed>12.08</speed><time>2016-06-29T11:47:52Z</time><pdop>4.0</pdop><geoidheight>54.00</geoidheight><course>359.1</course><type>1</type></trkpt>
      <trkpt lat="40.53776746" lon="-5.20053676"><ele>2584</ele><speed>15.86</speed><time>2016-06-29T11:47:53Z</time><pdop>3.0</pdop><geoidheight>54.00</geoidheight><course>14.6</course><type>1</type></trkpt>
      <trkpt lat="40.53790337" lon="-5.20046441"><ele>2585</ele><speed>16.43</speed><time>2016-06-29T11:47:54Z</time><pdop>3.0</pdop><geoidheight>54.00</geoidheight><course>23.7</course><type>1</type></trkpt>
      <trkpt lat="40.53802757" lon="-5.20036894"><ele>2586</ele><speed>16.28</speed><time>2016-06-29T11:47:55Z</time><pdop>3.0</pdop><geoidheight>54.00</geoidheight><course>28.5</course><type>1</type></trkpt>
      <trkpt lat="40.53813704" lon="-5.200256"><ele>2588</ele><speed>15.71</speed><time>2016-06-29T11:47:56Z</time><pdop>3.0</pdop><geoidheight>54.00</geoidheight><course>36.2</course><type>1</type></trkpt>
      <trkpt lat="40.53824031" lon="-5.20014219"><ele>2587</ele><speed>15.19</speed><time>2016-06-29T11:47:57Z</time><pdop>3.0</pdop><geoidheight>54.00</geoidheight><course>38.6</course><type>1</type></trkpt>
      <trkpt lat="40.53834979" lon="-5.20002813"><ele>2588</ele><speed>14.82</speed><time>2016-06-29T11:47:58Z</time><pdop>3.0</pdop><geoidheight>54.00</geoidheight><course>39.5</course><type>1</type></trkpt>
      <trkpt lat="40.53843479" lon="-5.19990352"><ele>2588</ele><speed>14.79</speed><time>2016-06-29T11:47:59Z</time><pdop>3.0</pdop><geoidheight>54.00</geoidheight><course>45.5</course><type>1</type></trkpt>
      <trkpt lat="40.53851929" lon="-5.19975886"><ele>2587</ele><speed>15.22</speed><time>2016-06-29T11:48:00Z</time><pdop>4.0</pdop><geoidheight>54.00</geoidheight><course>51.6</course><type>1</type></trkpt>
      <trkpt lat="40.53859369" lon="-5.19960626"><ele>2586</ele><speed>15.59</speed><time>2016-06-29T11:48:01Z</time><pdop>4.0</pdop><geoidheight>54.00</geoidheight><course>56.5</course><type>1</type></trkpt>
      <trkpt lat="40.53865969" lon="-5.19944901"><ele>2586</ele><speed>15.68</speed><time>2016-06-29T11:48:02Z</time><pdop>4.0</pdop><geoidheight>54.00</geoidheight><course>60.5</course><type>1</type></trkpt>
      <trkpt lat="40.5387196" lon="-5.19928115"><ele>2586</ele><speed>15.56</speed><time>2016-06-29T11:48:03Z</time><pdop>4.0</pdop><geoidheight>54.00</geoidheight><course>63.6</course><type>1</type></trkpt>
      <trkpt lat="40.53877065" lon="-5.19911042"><ele>2586</ele><speed>15.48</speed><time>2016-06-29T11:48:04Z</time><pdop>4.0</pdop><geoidheight>54.00</geoidheight><course>65.5</course><type>1</type></trkpt>
      <trkpt lat="40.53882486" lon="-5.19895704"><ele>2585</ele><speed>15.10</speed><time>2016-06-29T11:48:05Z</time><pdop>4.0</pdop><geoidheight>54.00</geoidheight><course>66.0</course><type>1</type></trkpt>
      <trkpt lat="40.53888209" lon="-5.19879961"><ele>2585</ele><speed>14.95</speed><time>2016-06-29T11:48:06Z</time><pdop>4.0</pdop><geoidheight>54.00</geoidheight><course>66.1</course><type>1</type></trkpt>
      <trkpt lat="40.5389285" lon="-5.19864662"><ele>2584</ele><speed>14.66</speed><time>2016-06-29T11:48:07Z</time><pdop>4.0</pdop><geoidheight>54.00</geoidheight><course>65.8</course><type>1</type></trkpt>
      <trkpt lat="40.53899167" lon="-5.19849214"><ele>2585</ele><speed>15.18</speed><time>2016-06-29T11:48:08Z</time><pdop>4.0</pdop><geoidheight>54.00</geoidheight><course>65.8</course><type>1</type></trkpt>
      <trkpt lat="40.5390467" lon="-5.19831325"><ele>2587</ele><speed>15.38</speed><time>2016-06-29T11:48:09Z</time><pdop>4.0</pdop><geoidheight>54.00</geoidheight><course>67.9</course><type>1</type></trkpt>
      <trkpt lat="40.53909121" lon="-5.19813195"><ele>2588</ele><speed>16.34</speed><time>2016-06-29T11:48:10Z</time><pdop>3.0</pdop><geoidheight>54.00</geoidheight><course>69.5</course><type>1</type></trkpt>
      <trkpt lat="40.53914982" lon="-5.1979445"><ele>2589</ele><speed>17.27</speed><time>2016-06-29T11:48:11Z</time><pdop>3.0</pdop><geoidheight>54.00</geoidheight><course>69.3</course><type>1</type></trkpt>
      <trkpt lat="40.53920359" lon="-5.19775213"><ele>2591</ele><speed>16.93</speed><time>2016-06-29T11:48:12Z</time><pdop>3.0</pdop><geoidheight>54.00</geoidheight><course>69.1</course><type>1</type></trkpt>
      <trkpt lat="40.53924875" lon="-5.19757313"><ele>2592</ele><speed>15.57</speed><time>2016-06-29T11:48:13Z</time><pdop>3.0</pdop><geoidheight>54.00</geoidheight><course>70.6</course><type>1</type></trkpt>
      <trkpt lat="40.53927902" lon="-5.19741649"><ele>2593</ele><speed>14.40</speed><time>2016-06-29T11:48:14Z</time><pdop>3.0</pdop><geoidheight>54.00</geoidheight><course>73.3</course><type>1</type></trkpt>
      <trkpt lat="40.53931647" lon="-5.19725741"><ele>2594</ele><speed>13.82</speed><time>2016-06-29T11:48:15Z</time><pdop>3.0</pdop><geoidheight>54.00</geoidheight><course>72.0</course><type>1</type></trkpt>
      <trkpt lat="40.53935133" lon="-5.19710772"><ele>2592</ele><speed>13.43</speed><time>2016-06-29T11:48:16Z</time><pdop>3.0</pdop><geoidheight>54.00</geoidheight><course>67.2</course><type>1</type></trkpt>
      <trkpt lat="40.53940727" lon="-5.19695599"><ele>2592</ele><speed>13.72</speed><time>2016-06-29T11:48:17Z</time><pdop>4.0</pdop><geoidheight>54.00</geoidheight><course>65.8</course><type>1</type></trkpt>
      <trkpt lat="40.53948697" lon="-5.19679549"><ele>2592</ele><speed>14.90</speed><time>2016-06-29T11:48:18Z</time><pdop>4.0</pdop><geoidheight>54.00</geoidheight><course>61.2</course><type>1</type></trkpt>
      <trkpt lat="40.53956306" lon="-5.19662386"><ele>2592</ele><speed>15.81</speed><time>2016-06-29T11:48:19Z</time><pdop>5.0</pdop><geoidheight>54.00</geoidheight><course>61.5</course><type>1</type></trkpt>
      <trkpt lat="40.53964593" lon="-5.19644321"><ele>2591</ele><speed>16.96</speed><time>2016-06-29T11:48:20Z</time><pdop>7.0</pdop><geoidheight>54.00</geoidheight><course>61.3</course><type>1</type></trkpt>
      <trkpt lat="40.53980999" lon="-5.19625207"><ele>2590</ele><speed>19.11</speed><time>2016-06-29T11:48:21Z</time><pdop>7.0</pdop><geoidheight>54.00</geoidheight><course>53.4</course><type>1</type></trkpt>
      <trkpt lat="40.53995044" lon="-5.19607861"><ele>2590</ele><speed>18.47</speed><time>2016-06-29T11:48:22Z</time><pdop>5.0</pdop><geoidheight>54.00</geoidheight><course>49.9</course><type>1</type></trkpt>
      <trkpt lat="40.54005679" lon="-5.19592704"><ele>2589</ele><speed>17.07</speed><time>2016-06-29T11:48:23Z</time><pdop>4.0</pdop><geoidheight>54.00</geoidheight><course>50.0</course><type>1</type></trkpt>
      <trkpt lat="40.54017181" lon="-5.19578214"><ele>2586</ele><speed>17.26</speed><time>2016-06-29T11:48:24Z</time><pdop>4.0</pdop><geoidheight>54.00</geoidheight><course>47.4</course><type>1</type></trkpt>
      <trkpt lat="40.54030449" lon="-5.19563778"><ele>2584</ele><speed>18.02</speed><time>2016-06-29T11:48:25Z</time><pdop>4.0</pdop><geoidheight>54.00</geoidheight><course>44.2</course><type>1</type></trkpt>
      <trkpt lat="40.5404321" lon="-5.19550118"><ele>2583</ele><speed>17.67</speed><time>2016-06-29T11:48:26Z</time><pdop>4.0</pdop><geoidheight>54.00</geoidheight><course>42.6</course><type>1</type></trkpt>
      <trkpt lat="40.54053485" lon="-5.19536518"><ele>2582</ele><speed>16.92</speed><time>2016-06-29T11:48:27Z</time><pdop>4.0</pdop><geoidheight>54.00</geoidheight><course>44.0</course><type>1</type></trkpt>
      <trkpt lat="40.54064109" lon="-5.19524044"><ele>2580</ele><speed>15.70</speed><time>2016-06-29T11:48:28Z</time><pdop>4.0</pdop><geoidheight>54.00</geoidheight><course>47.2</course><type>1</type></trkpt>
      <trkpt lat="40.54074162" lon="-5.19510058"><ele>2468</ele><speed>15.82</speed><time>2016-06-29T11:48:29Z</time><pdop>4.0</pdop><geoidheight>54.00</geoidheight><course>47.5</course><type>1</type></trkpt>
      <trkpt lat="40.54084112" lon="-5.19497302"><ele>2497</ele><speed>16.88</speed><time>2016-06-29T11:48:30Z</time><pdop>4.0</pdop><geoidheight>54.00</geoidheight><course>45.5</course><type>1</type></trkpt>
      <trkpt lat="40.54095697" lon="-5.19481746"><ele>2513</ele><speed>17.66</speed><time>2016-06-29T11:48:31Z</time><pdop>4.0</pdop><geoidheight>54.00</geoidheight><course>45.3</course><type>1</type></trkpt>
      <trkpt lat="40.54108838" lon="-5.19464887"><ele>2522</ele><speed>19.09</speed><time>2016-06-29T11:48:32Z</time><pdop>5.0</pdop><geoidheight>54.00</geoidheight><course>44.7</course><type>1</type></trkpt>
      <trkpt lat="40.54125163" lon="-5.19448879"><ele>2530</ele><speed>20.56</speed><time>2016-06-29T11:48:33Z</time><pdop>6.0</pdop><geoidheight>54.00</geoidheight><course>42.1</course><type>1</type></trkpt>
      <trkpt lat="40.54141154" lon="-5.19430819"><ele>2541</ele><speed>21.84</speed><time>2016-06-29T11:48:34Z</time><pdop>5.0</pdop><geoidheight>54.00</geoidheight><course>42.2</course><type>1</type></trkpt>
      <trkpt lat="40.54156286" lon="-5.1941356"><ele>2550</ele><speed>21.76</speed><time>2016-06-29T11:48:35Z</time><pdop>4.0</pdop><geoidheight>54.00</geoidheight><course>40.7</course><type>1</type></trkpt>
      <trkpt lat="40.54170683" lon="-5.19399181"><ele>2556</ele><speed>19.89</speed><time>2016-06-29T11:48:36Z</time><pdop>4.0</pdop><geoidheight>54.00</geoidheight><course>40.6</course><type>1</type></trkpt>
      <trkpt lat="40.54184363" lon="-5.19383919"><ele>2556</ele><speed>19.48</speed><time>2016-06-29T11:48:37Z</time><pdop>4.0</pdop><geoidheight>54.00</geoidheight><course>41.2</course><type>1</type></trkpt>
      <trkpt lat="40.54192076" lon="-5.19367918"><ele>2559</ele><speed>16.91</speed><time>2016-06-29T11:48:38Z</time><pdop>4.0</pdop><geoidheight>54.00</geoidheight><course>50.6</course><type>1</type></trkpt>
      <trkpt lat="40.54201507" lon="-5.19352502"><ele>2559</ele><speed>16.72</speed><time>2016-06-29T11:48:39Z</time><pdop>4.0</pdop><geoidheight>54.00</geoidheight><course>50.5</course><type>1</type></trkpt>
      <trkpt lat="40.54211081" lon="-5.19338317"><ele>2560</ele><speed>16.44</speed><time>2016-06-29T11:48:40Z</time><pdop>4.0</pdop><geoidheight>54.00</geoidheight><course>50.1</course><type>1</type></trkpt>
      <trkpt lat="40.54223016" lon="-5.19323194"><ele>2560</ele><speed>17.26</speed><time>2016-06-29T11:48:41Z</time><pdop>4.0</pdop><geoidheight>54.00</geoidheight><course>46.6</course><type>1</type></trkpt>
      <trkpt lat="40.54234872" lon="-5.19310847"><ele>2561</ele><speed>17.51</speed><time>2016-06-29T11:48:42Z</time><pdop>4.0</pdop><geoidheight>54.00</geoidheight><course>41.7</course><type>1</type></trkpt>
      <trkpt lat="40.5424884" lon="-5.1929763"><ele>2559</ele><speed>18.63</speed><time>2016-06-29T11:48:43Z</time><pdop>3.0</pdop><geoidheight>54.00</geoidheight><course>40.2</course><type>1</type></trkpt>
      <trkpt lat="40.54262861" lon="-5.19281933"><ele>2558</ele><speed>20.09</speed><time>2016-06-29T11:48:44Z</time><pdop>4.0</pdop><geoidheight>54.00</geoidheight><course>39.9</course><type>1</type></trkpt>
      <trkpt lat="40.54275556" lon="-5.1926404"><ele>2554</ele><speed>20.82</speed><time>2016-06-29T11:48:45Z</time><pdop>4.0</pdop><geoidheight>54.00</geoidheight><course>42.7</course><type>1</type></trkpt>
      <trkpt lat="40.54288882" lon="-5.19247439"><ele>2553</ele><speed>20.56</speed><time>2016-06-29T11:48:46Z</time><pdop>4.0</pdop><geoidheight>54.00</geoidheight><course>44.5</course><type>1</type></trkpt>
      <trkpt lat="40.54300857" lon="-5.19230894"><ele>2554</ele><speed>19.62</speed><time>2016-06-29T11:48:47Z</time><pdop>4.0</pdop><geoidheight>54.00</geoidheight><course>45.6</course><type>1</type></trkpt>
      <trkpt lat="40.54312558" lon="-5.19215511"><ele>2553</ele><speed>19.00</speed><time>2016-06-29T11:48:48Z</time><pdop>4.0</pdop><geoidheight>54.00</geoidheight><course>46.6</course><type>1</type></trkpt>
      <trkpt lat="40.54323239" lon="-5.19199032"><ele>2550</ele><speed>19.34</speed><time>2016-06-29T11:48:49Z</time><pdop>4.0</pdop><geoidheight>54.00</geoidheight><course>48.0</course><type>1</type></trkpt>
      <trkpt lat="40.5433512" lon="-5.1918257"><ele>2547</ele><speed>19.84</speed><time>2016-06-29T11:48:50Z</time><pdop>4.0</pdop><geoidheight>54.00</geoidheight><course>47.4</course><type>1</type></trkpt>
      <trkpt lat="40.54348195" lon="-5.1916383"><ele>2547</ele><speed>20.37</speed><time>2016-06-29T11:48:51Z</time><pdop>5.0</pdop><geoidheight>54.00</geoidheight><course>47.2</course><type>1</type></trkpt>
      <trkpt lat="40.54361234" lon="-5.191432"><ele>2546</ele><speed>21.58</speed><time>2016-06-29T11:48:52Z</time><pdop>6.0</pdop><geoidheight>54.00</geoidheight><course>47.6</course><type>1</type></trkpt>
      <trkpt lat="40.54375146" lon="-5.19125859"><ele>2544</ele><speed>22.05</speed><time>2016-06-29T11:48:53Z</time><pdop>7.0</pdop><geoidheight>54.00</geoidheight><course>45.7</course><type>1</type></trkpt>
      <trkpt lat="40.54387931" lon="-5.1910573"><ele>2543</ele><speed>22.62</speed><time>2016-06-29T11:48:54Z</time><pdop>7.0</pdop><geoidheight>54.00</geoidheight><course>46.5</course><type>1</type></trkpt>
      <trkpt lat="40.54406719" lon="-5.19089808"><ele>2539</ele><speed>23.60</speed><time>2016-06-29T11:48:55Z</time><pdop>6.0</pdop><geoidheight>54.00</geoidheight><course>44.4</course><type>1</type></trkpt>
      <trkpt lat="40.5442096" lon="-5.19072571"><ele>2536</ele><speed>22.16</speed><time>2016-06-29T11:48:56Z</time><pdop>6.0</pdop><geoidheight>54.00</geoidheight><course>43.9</course><type>1</type></trkpt>
      <trkpt lat="40.54434473" lon="-5.19055062"><ele>2534</ele><speed>21.28</speed><time>2016-06-29T11:48:57Z</time><pdop>6.0</pdop><geoidheight>54.00</geoidheight><course>43.4</course><type>1</type></trkpt>
      <trkpt lat="40.54448322" lon="-5.19041512"><ele>2528</ele><speed>20.62</speed><time>2016-06-29T11:48:58Z</time><pdop>6.0</pdop><geoidheight>54.00</geoidheight><course>41.8</course><type>1</type></trkpt>
      <trkpt lat="40.54460718" lon="-5.19026838"><ele>2525</ele><speed>20.28</speed><time>2016-06-29T11:48:59Z</time><pdop>6.0</pdop><geoidheight>54.00</geoidheight><course>42.4</course><type>1</type></trkpt>
      <trkpt lat="40.54473085" lon="-5.19009094"><ele>2522</ele><speed>20.65</speed><time>2016-06-29T11:49:00Z</time><pdop>6.0</pdop><geoidheight>54.00</geoidheight><course>44.5</course><type>1</type></trkpt>
      <trkpt lat="40.54485618" lon="-5.18990925"><ele>2521</ele><speed>21.22</speed><time>2016-06-29T11:49:01Z</time><pdop>7.0</pdop><geoidheight>54.00</geoidheight><course>45.7</course><type>1</type></trkpt>
      <trkpt lat="40.54500347" lon="-5.18968719"><ele>2519</ele><speed>23.06</speed><time>2016-06-29T11:49:02Z</time><pdop>9.0</pdop><geoidheight>54.00</geoidheight><course>46.3</course><type>1</type></trkpt>
      <trkpt lat="40.5451449" lon="-5.18953525"><ele>2517</ele><speed>22.44</speed><time>2016-06-29T11:49:03Z</time><pdop>10.0</pdop><geoidheight>54.00</geoidheight><course>45.1</course><type>1</type></trkpt>
      <trkpt lat="40.54525307" lon="-5.1893423"><ele>2515</ele><speed>22.96</speed><time>2016-06-29T11:49:04Z</time><pdop>9.0</pdop><geoidheight>54.00</geoidheight><course>46.4</course><type>1</type></trkpt>
      <trkpt lat="40.54540911" lon="-5.18915971"><ele>2512</ele><speed>22.96</speed><time>2016-06-29T11:49:05Z</time><pdop>7.0</pdop><geoidheight>54.00</geoidheight><course>44.0</course><type>1</type></trkpt>
      <trkpt lat="40.54554883" lon="-5.1890023"><ele>2510</ele><speed>21.31</speed><time>2016-06-29T11:49:06Z</time><pdop>7.0</pdop><geoidheight>54.00</geoidheight><course>45.4</course><type>1</type></trkpt>
      <trkpt lat="40.54565309" lon="-5.18882615"><ele>2507</ele><speed>20.18</speed><time>2016-06-29T11:49:07Z</time><pdop>7.0</pdop><geoidheight>54.00</geoidheight><course>47.4</course><type>1</type></trkpt>
      <trkpt lat="40.54577489" lon="-5.18864027"><ele>2504</ele><speed>20.62</speed><time>2016-06-29T11:49:08Z</time><pdop>7.0</pdop><geoidheight>54.00</geoidheight><course>47.8</course><type>1</type></trkpt>
      <trkpt lat="40.54590524" lon="-5.1884659"><ele>2502</ele><speed>20.71</speed><time>2016-06-29T11:49:09Z</time><pdop>8.0</pdop><geoidheight>54.00</geoidheight><course>47.4</course><type>1</type></trkpt>
      <trkpt lat="40.54605574" lon="-5.18827789"><ele>2500</ele><speed>21.90</speed><time>2016-06-29T11:49:10Z</time><pdop>10.0</pdop><geoidheight>54.00</geoidheight><course>46.3</course><type>1</type></trkpt>
      <trkpt lat="40.54618977" lon="-5.1881211"><ele>2496</ele><speed>22.20</speed><time>2016-06-29T11:49:11Z</time><pdop>9.0</pdop><geoidheight>54.00</geoidheight><course>45.8</course><type>1</type></trkpt>
      <trkpt lat="40.54634849" lon="-5.18795001"><ele>2494</ele><speed>22.52</speed><time>2016-06-29T11:49:12Z</time><pdop>11.0</pdop><geoidheight>54.00</geoidheight><course>44.0</course><type>1</type></trkpt>
      <trkpt lat="40.54664381" lon="-5.18765914"><ele>2491</ele><speed>20.72</speed><time>2016-06-29T11:49:14Z</time><pdop>11.0</pdop><geoidheight>54.00</geoidheight><course>39.8</course><type>1</type></trkpt>
      <trkpt lat="40.5467968" lon="-5.18748772"><ele>2489</ele><speed>21.27</speed><time>2016-06-29T11:49:15Z</time><pdop>10.0</pdop><geoidheight>54.00</geoidheight><course>41.0</course><type>1</type></trkpt>
      <trkpt lat="40.54695656" lon="-5.18733314"><ele>2487</ele><speed>21.76</speed><time>2016-06-29T11:49:16Z</time><pdop>10.0</pdop><geoidheight>54.00</geoidheight><course>41.1</course><type>1</type></trkpt>
      <trkpt lat="40.54712201" lon="-5.18719523"><ele>2484</ele><speed>21.96</speed><time>2016-06-29T11:49:17Z</time><pdop>11.0</pdop><geoidheight>54.00</geoidheight><course>39.1</course><type>1</type></trkpt>
      <trkpt lat="40.54746493" lon="-5.18693445"><ele>2478</ele><speed>22.85</speed><time>2016-06-29T11:49:19Z</time><pdop>12.0</pdop><geoidheight>54.00</geoidheight><course>37.2</course><type>1</type></trkpt>
      <trkpt lat="40.54770995" lon="-5.18653416"><ele>2472</ele><speed>22.36</speed><time>2016-06-29T11:49:21Z</time><pdop>12.0</pdop><geoidheight>54.00</geoidheight><course>42.0</course><type>1</type></trkpt>
      <trkpt lat="40.54792761" lon="-5.18616198"><ele>2465</ele><speed>21.90</speed><time>2016-06-29T11:49:23Z</time><pdop>11.0</pdop><geoidheight>54.00</geoidheight><course>43.6</course><type>1</type></trkpt>
      <trkpt lat="40.54804405" lon="-5.18598044"><ele>2455</ele><speed>21.89</speed><time>2016-06-29T11:49:24Z</time><pdop>9.0</pdop><geoidheight>54.00</geoidheight><course>45.8</course><type>1</type></trkpt>
      <trkpt lat="40.54817539" lon="-5.18578885"><ele>2450</ele><speed>21.69</speed><time>2016-06-29T11:49:25Z</time><pdop>8.0</pdop><geoidheight>54.00</geoidheight><course>48.0</course><type>1</type></trkpt>
      <trkpt lat="40.5482988" lon="-5.18561697"><ele>2442</ele><speed>22.08</speed><time>2016-06-29T11:49:26Z</time><pdop>8.0</pdop><geoidheight>54.00</geoidheight><course>48.6</course><type>1</type></trkpt>
      <trkpt lat="40.54844388" lon="-5.18541825"><ele>2436</ele><speed>23.07</speed><time>2016-06-29T11:49:27Z</time><pdop>11.0</pdop><geoidheight>54.00</geoidheight><course>47.1</course><type>1</type></trkpt>
      <trkpt lat="40.5485861" lon="-5.18522925"><ele>2429</ele><speed>23.50</speed><time>2016-06-29T11:49:28Z</time><pdop>11.0</pdop><geoidheight>54.00</geoidheight><course>44.8</course><type>1</type></trkpt>
      <trkpt lat="40.54873243" lon="-5.18504287"><ele>2424</ele><speed>22.90</speed><time>2016-06-29T11:49:29Z</time><pdop>11.0</pdop><geoidheight>54.00</geoidheight><course>44.4</course><type>1</type></trkpt>
      <trkpt lat="40.54886304" lon="-5.18484193"><ele>2422</ele><speed>22.28</speed><time>2016-06-29T11:49:30Z</time><pdop>11.0</pdop><geoidheight>54.00</geoidheight><course>48.2</course><type>1</type></trkpt>
      <trkpt lat="40.54910144" lon="-5.18443823"><ele>2416</ele><speed>21.57</speed><time>2016-06-29T11:49:32Z</time><pdop>11.0</pdop><geoidheight>54.00</geoidheight><course>53.1</course><type>1</type></trkpt>
      <trkpt lat="40.5493479" lon="-5.18404331"><ele>2412</ele><speed>21.79</speed><time>2016-06-29T11:49:34Z</time><pdop>12.0</pdop><geoidheight>54.00</geoidheight><course>50.9</course><type>1</type></trkpt>
      <trkpt lat="40.54960906" lon="-5.18367259"><ele>2403</ele><speed>22.36</speed><time>2016-06-29T11:49:36Z</time><pdop>11.0</pdop><geoidheight>54.00</geoidheight><course>49.4</course><type>1</type></trkpt>
      <trkpt lat="40.54984189" lon="-5.18327719"><ele>2393</ele><speed>22.16</speed><time>2016-06-29T11:49:38Z</time><pdop>10.0</pdop><geoidheight>54.00</geoidheight><course>48.6</course><type>1</type></trkpt>
      <trkpt lat="40.54996278" lon="-5.18309269"><ele>2388</ele><speed>21.64</speed><time>2016-06-29T11:49:39Z</time><pdop>10.0</pdop><geoidheight>54.00</geoidheight><course>49.2</course><type>1</type></trkpt>
      <trkpt lat="40.55008069" lon="-5.18290866"><ele>2384</ele><speed>20.98</speed><time>2016-06-29T11:49:40Z</time><pdop>10.0</pdop><geoidheight>54.00</geoidheight><course>49.4</course><type>1</type></trkpt>
      <trkpt lat="40.55031794" lon="-5.18256542"><ele>2376</ele><speed>20.41</speed><time>2016-06-29T11:49:42Z</time><pdop>10.0</pdop><geoidheight>54.00</geoidheight><course>46.9</course><type>1</type></trkpt>
      <trkpt lat="40.5504568" lon="-5.18238472"><ele>2373</ele><speed>21.26</speed><time>2016-06-29T11:49:43Z</time><pdop>10.0</pdop><geoidheight>54.00</geoidheight><course>45.7</course><type>1</type></trkpt>
      <trkpt lat="40.55069223" lon="-5.18200305"><ele>2363</ele><speed>21.59</speed><time>2016-06-29T11:49:45Z</time><pdop>10.0</pdop><geoidheight>54.00</geoidheight><course>48.8</course><type>1</type></trkpt>
      <trkpt lat="40.55081307" lon="-5.18181626"><ele>2358</ele><speed>21.44</speed><time>2016-06-29T11:49:46Z</time><pdop>10.0</pdop><geoidheight>54.00</geoidheight><course>46.5</course><type>1</type></trkpt>
      <trkpt lat="40.55094121" lon="-5.18163764"><ele>2355</ele><speed>21.22</speed><time>2016-06-29T11:49:47Z</time><pdop>10.0</pdop><geoidheight>54.00</geoidheight><course>47.5</course><type>1</type></trkpt>
      <trkpt lat="40.55106257" lon="-5.18143803"><ele>2353</ele><speed>21.22</speed><time>2016-06-29T11:49:48Z</time><pdop>10.0</pdop><geoidheight>54.00</geoidheight><course>51.5</course><type>1</type></trkpt>
      <trkpt lat="40.5512606" lon="-5.18106815"><ele>2350</ele><speed>19.43</speed><time>2016-06-29T11:49:50Z</time><pdop>11.0</pdop><geoidheight>54.00</geoidheight><course>52.7</course><type>1</type></trkpt>
      <trkpt lat="40.55134855" lon="-5.18072655"><ele>2343</ele><speed>12.68</speed><time>2016-06-29T11:49:53Z</time><pdop>11.0</pdop><geoidheight>54.00</geoidheight><course>58.8</course><type>1</type></trkpt>
      <trkpt lat="40.5514584" lon="-5.18045211"><ele>2340</ele><speed>15.10</speed><time>2016-06-29T11:49:55Z</time><pdop>11.0</pdop><geoidheight>54.00</geoidheight><course>54.0</course><type>1</type></trkpt>
      <trkpt lat="40.55163738" lon="-5.18010642"><ele>2335</ele><speed>17.04</speed><time>2016-06-29T11:49:57Z</time><pdop>10.0</pdop><geoidheight>54.00</geoidheight><course>53.0</course><type>1</type></trkpt>
      <trkpt lat="40.55179944" lon="-5.17980401"><ele>2335</ele><speed>15.05</speed><time>2016-06-29T11:49:59Z</time><pdop>10.0</pdop><geoidheight>54.00</geoidheight><course>54.5</course><type>1</type></trkpt>
      <trkpt lat="40.55189414" lon="-5.17953771"><ele>2334</ele><speed>13.40</speed><time>2016-06-29T11:50:01Z</time><pdop>10.0</pdop><geoidheight>54.00</geoidheight><course>65.0</course><type>1</type></trkpt>
      <trkpt lat="40.55193706" lon="-5.17926678"><ele>2333</ele><speed>12.39</speed><time>2016-06-29T11:50:03Z</time><pdop>10.0</pdop><geoidheight>54.00</geoidheight><course>74.0</course><type>1</type></trkpt>
      <trkpt lat="40.55200435" lon="-5.17895482"><ele>2335</ele><speed>13.19</speed><time>2016-06-29T11:50:05Z</time><pdop>9.0</pdop><geoidheight>54.00</geoidheight><course>74.0</course><type>1</type></trkpt>
      <trkpt lat="40.5520657" lon="-5.17864409"><ele>2337</ele><speed>13.97</speed><time>2016-06-29T11:50:07Z</time><pdop>9.0</pdop><geoidheight>54.00</geoidheight><course>76.5</course><type>1</type></trkpt>
      <trkpt lat="40.55207457" lon="-5.17833575"><ele>2336</ele><speed>14.01</speed><time>2016-06-29T11:50:09Z</time><pdop>9.0</pdop><geoidheight>54.00</geoidheight><course>83.5</course><type>1</type></trkpt>
      <trkpt lat="40.55208338" lon="-5.17802053"><ele>2337</ele><speed>13.22</speed><time>2016-06-29T11:50:11Z</time><pdop>9.0</pdop><geoidheight>54.00</geoidheight><course>91.4</course><type>1</type></trkpt>
      <trkpt lat="40.55197186" lon="-5.17772543"><ele>2337</ele><speed>13.32</speed><time>2016-06-29T11:50:13Z</time><pdop>9.0</pdop><geoidheight>54.00</geoidheight><course>115.8</course><type>1</type></trkpt>
      <trkpt lat="40.55182218" lon="-5.17753128"><ele>2338</ele><speed>11.91</speed><time>2016-06-29T11:50:15Z</time><pdop>9.0</pdop><geoidheight>54.00</geoidheight><course>136.1</course><type>1</type></trkpt>
      <trkpt lat="40.55166095" lon="-5.17739656"><ele>2337</ele><speed>11.21</speed><time>2016-06-29T11:50:17Z</time><pdop>10.0</pdop><geoidheight>54.00</geoidheight><course>147.6</course><type>1</type></trkpt>
      <trkpt lat="40.55185886" lon="-5.17746439"><ele>2337</ele><speed>6.85</speed><time>2016-06-29T11:50:24Z</time><pdop>12.0</pdop><geoidheight>54.00</geoidheight><course>34.1</course><type>1</type></trkpt>
      <trkpt lat="40.5520441" lon="-5.17727832"><ele>2338</ele><speed>13.19</speed><time>2016-06-29T11:50:25Z</time><pdop>12.0</pdop><geoidheight>54.00</geoidheight><course>42.5</course><type>1</type></trkpt>
      <trkpt lat="40.55220198" lon="-5.17692018"><ele>2341</ele><speed>13.75</speed><time>2016-06-29T11:50:27Z</time><pdop>10.0</pdop><geoidheight>54.00</geoidheight><course>60.9</course><type>1</type></trkpt>
      <trkpt lat="40.55225317" lon="-5.17649947"><ele>2346</ele><speed>15.05</speed><time>2016-06-29T11:50:29Z</time><pdop>10.0</pdop><geoidheight>54.00</geoidheight><course>78.8</course><type>1</type></trkpt>
      <trkpt lat="40.55225782" lon="-5.17626358"><ele>2349</ele><speed>15.85</speed><time>2016-06-29T11:50:30Z</time><pdop>8.0</pdop><geoidheight>54.00</geoidheight><course>84.0</course><type>1</type></trkpt>
      <trkpt lat="40.55223754" lon="-5.17604939"><ele>2351</ele><speed>15.72</speed><time>2016-06-29T11:50:31Z</time><pdop>7.0</pdop><geoidheight>54.00</geoidheight><course>90.0</course><type>1</type></trkpt>
      <trkpt lat="40.55211311" lon="-5.17575736"><ele>2354</ele><speed>12.75</speed><time>2016-06-29T11:50:33Z</time><pdop>5.0</pdop><geoidheight>54.00</geoidheight><course>117.2</course><type>1</type></trkpt>
      <trkpt lat="40.55199976" lon="-5.17559662"><ele>2356</ele><speed>9.62</speed><time>2016-06-29T11:50:35Z</time><pdop>4.0</pdop><geoidheight>54.00</geoidheight><course>148.6</course><type>1</type></trkpt>
      <trkpt lat="40.55191765" lon="-5.17554078"><ele>2356</ele><speed>9.10</speed><time>2016-06-29T11:50:36Z</time><pdop>4.0</pdop><geoidheight>54.00</geoidheight><course>162.3</course><type>1</type></trkpt>
      <trkpt lat="40.55179255" lon="-5.17553915"><ele>2360</ele><speed>7.06</speed><time>2016-06-29T11:50:38Z</time><pdop>4.0</pdop><geoidheight>54.00</geoidheight><course>186.1</course><type>1</type></trkpt>
      <trkpt lat="40.55180976" lon="-5.17573331"><ele>2362</ele><speed>5.15</speed><time>2016-06-29T11:50:41Z</time><pdop>5.0</pdop><geoidheight>54.00</geoidheight><course>272.5</course><type>1</type></trkpt>
      <trkpt lat="40.55187671" lon="-5.17586655"><ele>2365</ele><speed>5.14</speed><time>2016-06-29T11:50:43Z</time><pdop>6.0</pdop><geoidheight>54.00</geoidheight><course>300.6</course><type>1</type></trkpt>
      <trkpt lat="40.55198993" lon="-5.17581906"><ele>2364</ele><speed>5.66</speed><time>2016-06-29T11:50:44Z</time><pdop>6.0</pdop><geoidheight>54.00</geoidheight><course>352.6</course><type>1</type></trkpt>
      <trkpt lat="40.55211117" lon="-5.17581272"><ele>2363</ele><speed>7.48</speed><time>2016-06-29T11:50:45Z</time><pdop>7.0</pdop><geoidheight>54.00</geoidheight><course>2.0</course><type>1</type></trkpt>
      <trkpt lat="40.55231577" lon="-5.17574095"><ele>2365</ele><speed>12.05</speed><time>2016-06-29T11:50:46Z</time><pdop>6.0</pdop><geoidheight>54.00</geoidheight><course>19.3</course><type>1</type></trkpt>
      <trkpt lat="40.5524442" lon="-5.17556883"><ele>2369</ele><speed>14.79</speed><time>2016-06-29T11:50:47Z</time><pdop>5.0</pdop><geoidheight>54.00</geoidheight><course>39.5</course><type>1</type></trkpt>
      <trkpt lat="40.55255636" lon="-5.17542109"><ele>2371</ele><speed>15.03</speed><time>2016-06-29T11:50:48Z</time><pdop>4.0</pdop><geoidheight>54.00</geoidheight><course>50.2</course><type>1</type></trkpt>
      <trkpt lat="40.55264198" lon="-5.17527229"><ele>2375</ele><speed>14.70</speed><time>2016-06-29T11:50:49Z</time><pdop>4.0</pdop><geoidheight>54.00</geoidheight><course>55.8</course><type>1</type></trkpt>
      <trkpt lat="40.55272209" lon="-5.17512201"><ele>2378</ele><speed>14.12</speed><time>2016-06-29T11:50:50Z</time><pdop>3.0</pdop><geoidheight>54.00</geoidheight><course>61.0</course><type>1</type></trkpt>
      <trkpt lat="40.55277847" lon="-5.17497847"><ele>2379</ele><speed>13.84</speed><time>2016-06-29T11:50:51Z</time><pdop>3.0</pdop><geoidheight>54.00</geoidheight><course>62.7</course><type>1</type></trkpt>
      <trkpt lat="40.55282199" lon="-5.17484769"><ele>2380</ele><speed>12.98</speed><time>2016-06-29T11:50:52Z</time><pdop>4.0</pdop><geoidheight>54.00</geoidheight><course>67.7</course><type>1</type></trkpt>
      <trkpt lat="40.55286706" lon="-5.17467082"><ele>2381</ele><speed>13.74</speed><time>2016-06-29T11:50:53Z</time><pdop>4.0</pdop><geoidheight>54.00</geoidheight><course>70.2</course><type>1</type></trkpt>
      <trkpt lat="40.55289015" lon="-5.17452409"><ele>2382</ele><speed>12.71</speed><time>2016-06-29T11:50:54Z</time><pdop>4.0</pdop><geoidheight>54.00</geoidheight><course>72.0</course><type>1</type></trkpt>
      <trkpt lat="40.55281933" lon="-5.17443104"><ele>2384</ele><speed>10.19</speed><time>2016-06-29T11:50:55Z</time><pdop>5.0</pdop><geoidheight>54.00</geoidheight><course>89.8</course><type>1</type></trkpt>
      <trkpt lat="40.55272418" lon="-5.17440516"><ele>2384</ele><speed>7.68</speed><time>2016-06-29T11:50:56Z</time><pdop>5.0</pdop><geoidheight>54.00</geoidheight><course>117.2</course><type>1</type></trkpt>
      <trkpt lat="40.55258076" lon="-5.1743442"><ele>2384</ele><speed>10.22</speed><time>2016-06-29T11:50:57Z</time><pdop>5.0</pdop><geoidheight>54.00</geoidheight><course>144.4</course><type>1</type></trkpt>
      <trkpt lat="40.55250868" lon="-5.1744105"><ele>2387</ele><speed>9.16</speed><time>2016-06-29T11:50:58Z</time><pdop>4.0</pdop><geoidheight>54.00</geoidheight><course>174.3</course><type>1</type></trkpt>
      <trkpt lat="40.55247834" lon="-5.17456723"><ele>2391</ele><speed>4.15</speed><time>2016-06-29T11:51:01Z</time><pdop>7.0</pdop><geoidheight>54.00</geoidheight><course>240.9</course><type>1</type></trkpt>
      <trkpt lat="40.55261499" lon="-5.17466684"><ele>2393</ele><speed>2.81</speed><time>2016-06-29T11:51:03Z</time><pdop>9.0</pdop><geoidheight>54.00</geoidheight><course>338.4</course><type>1</type></trkpt>
      <trkpt lat="40.55292678" lon="-5.17449582"><ele>2397</ele><speed>12.98</speed><time>2016-06-29T11:51:05Z</time><pdop>6.0</pdop><geoidheight>54.00</geoidheight><course>41.9</course><type>1</type></trkpt>
      <trkpt lat="40.55302434" lon="-5.17437257"><ele>2399</ele><speed>13.37</speed><time>2016-06-29T11:51:06Z</time><pdop>5.0</pdop><geoidheight>54.00</geoidheight><course>51.5</course><type>1</type></trkpt>
      <trkpt lat="40.55308049" lon="-5.17424044"><ele>2400</ele><speed>13.10</speed><time>2016-06-29T11:51:07Z</time><pdop>4.0</pdop><geoidheight>54.00</geoidheight><course>59.3</course><type>1</type></trkpt>
      <trkpt lat="40.55314462" lon="-5.17408945"><ele>2402</ele><speed>13.62</speed><time>2016-06-29T11:51:08Z</time><pdop>4.0</pdop><geoidheight>54.00</geoidheight><course>64.4</course><type>1</type></trkpt>
      <trkpt lat="40.5531789" lon="-5.17393534"><ele>2404</ele><speed>13.42</speed><time>2016-06-29T11:51:09Z</time><pdop>4.0</pdop><geoidheight>54.00</geoidheight><course>72.1</course><type>1</type></trkpt>
      <trkpt lat="40.55321787" lon="-5.17377566"><ele>2406</ele><speed>13.38</speed><time>2016-06-29T11:51:10Z</time><pdop>4.0</pdop><geoidheight>54.00</geoidheight><course>78.1</course><type>1</type></trkpt>
      <trkpt lat="40.55324277" lon="-5.17362139"><ele>2408</ele><speed>12.94</speed><time>2016-06-29T11:51:11Z</time><pdop>3.0</pdop><geoidheight>54.00</geoidheight><course>81.0</course><type>1</type></trkpt>
      <trkpt lat="40.55324369" lon="-5.17346726"><ele>2410</ele><speed>12.74</speed><time>2016-06-29T11:51:12Z</time><pdop>3.0</pdop><geoidheight>54.00</geoidheight><course>87.7</course><type>1</type></trkpt>
      <trkpt lat="40.55323758" lon="-5.17330412"><ele>2413</ele><speed>13.25</speed><time>2016-06-29T11:51:13Z</time><pdop>3.0</pdop><geoidheight>54.00</geoidheight><course>91.6</course><type>1</type></trkpt>
      <trkpt lat="40.55323157" lon="-5.17315707"><ele>2414</ele><speed>12.96</speed><time>2016-06-29T11:51:14Z</time><pdop>3.0</pdop><geoidheight>54.00</geoidheight><course>94.9</course><type>1</type></trkpt>
      <trkpt lat="40.55322034" lon="-5.17302089"><ele>2416</ele><speed>12.61</speed><time>2016-06-29T11:51:15Z</time><pdop>3.0</pdop><geoidheight>54.00</geoidheight><course>96.1</course><type>1</type></trkpt>
      <trkpt lat="40.55322672" lon="-5.17284786"><ele>2421</ele><speed>13.64</speed><time>2016-06-29T11:51:16Z</time><pdop>3.0</pdop><geoidheight>54.00</geoidheight><course>92.7</course><type>1</type></trkpt>
      <trkpt lat="40.55321453" lon="-5.17268005"><ele>2424</ele><speed>14.27</speed><time>2016-06-29T11:51:17Z</time><pdop>3.0</pdop><geoidheight>54.00</geoidheight><course>96.0</course><type>1</type></trkpt>
      <trkpt lat="40.55319414" lon="-5.17252346"><ele>2428</ele><speed>13.33</speed><time>2016-06-29T11:51:18Z</time><pdop>3.0</pdop><geoidheight>54.00</geoidheight><course>100.9</course><type>1</type></trkpt>
      <trkpt lat="40.55316055" lon="-5.17239701"><ele>2431</ele><speed>11.99</speed><time>2016-06-29T11:51:19Z</time><pdop>3.0</pdop><geoidheight>54.00</geoidheight><course>108.6</course><type>1</type></trkpt>
      <trkpt lat="40.55312064" lon="-5.17228509"><ele>2432</ele><speed>11.24</speed><time>2016-06-29T11:51:20Z</time><pdop>4.0</pdop><geoidheight>54.00</geoidheight><course>114.5</course><type>1</type></trkpt>
      <trkpt lat="40.5530786" lon="-5.17219895"><ele>2433</ele><speed>10.24</speed><time>2016-06-29T11:51:21Z</time><pdop>4.0</pdop><geoidheight>54.00</geoidheight><course>119.3</course><type>1</type></trkpt>
      <trkpt lat="40.55293801" lon="-5.17220134"><ele>2437</ele><speed>8.04</speed><time>2016-06-29T11:51:23Z</time><pdop>4.0</pdop><geoidheight>54.00</geoidheight><course>168.0</course><type>1</type></trkpt>
      <trkpt lat="40.55291595" lon="-5.1723735"><ele>2443</ele><speed>7.40</speed><time>2016-06-29T11:51:25Z</time><pdop>3.0</pdop><geoidheight>54.00</geoidheight><course>261.0</course><type>1</type></trkpt>
      <trkpt lat="40.55297427" lon="-5.17249723"><ele>2448</ele><speed>7.33</speed><time>2016-06-29T11:51:27Z</time><pdop>3.0</pdop><geoidheight>54.00</geoidheight><course>316.6</course><type>1</type></trkpt>
      <trkpt lat="40.55303685" lon="-5.1725566"><ele>2450</ele><speed>8.36</speed><time>2016-06-29T11:51:28Z</time><pdop>3.0</pdop><geoidheight>54.00</geoidheight><course>323.5</course><type>1</type></trkpt>
      <trkpt lat="40.55312444" lon="-5.17260773"><ele>2452</ele><speed>10.37</speed><time>2016-06-29T11:51:29Z</time><pdop>3.0</pdop><geoidheight>54.00</geoidheight><course>334.5</course><type>1</type></trkpt>
      <trkpt lat="40.55324501" lon="-5.1726384"><ele>2452</ele><speed>12.77</speed><time>2016-06-29T11:51:30Z</time><pdop>3.0</pdop><geoidheight>54.00</geoidheight><course>348.6</course><type>1</type></trkpt>
      <trkpt lat="40.55335105" lon="-5.17265652"><ele>2453</ele><speed>12.34</speed><time>2016-06-29T11:51:31Z</time><pdop>4.0</pdop><geoidheight>54.00</geoidheight><course>352.8</course><type>1</type></trkpt>
      <trkpt lat="40.55346834" lon="-5.17260316"><ele>2452</ele><speed>12.59</speed><time>2016-06-29T11:51:32Z</time><pdop>5.0</pdop><geoidheight>54.00</geoidheight><course>4.0</course><type>1</type></trkpt>
      <trkpt lat="40.5536187" lon="-5.17245599"><ele>2454</ele><speed>16.26</speed><time>2016-06-29T11:51:33Z</time><pdop>5.0</pdop><geoidheight>54.00</geoidheight><course>24.6</course><type>1</type></trkpt>
      <trkpt lat="40.55371534" lon="-5.17231198"><ele>2455</ele><speed>15.81</speed><time>2016-06-29T11:51:34Z</time><pdop>6.0</pdop><geoidheight>54.00</geoidheight><course>33.3</course><type>1</type></trkpt>
      <trkpt lat="40.55365248" lon="-5.1720473"><ele>2457</ele><speed>14.96</speed><time>2016-06-29T11:51:35Z</time><pdop>5.0</pdop><geoidheight>54.00</geoidheight><course>69.4</course><type>1</type></trkpt>
      <trkpt lat="40.5536773" lon="-5.1718481"><ele>2461</ele><speed>15.69</speed><time>2016-06-29T11:51:36Z</time><pdop>4.0</pdop><geoidheight>54.00</geoidheight><course>79.0</course><type>1</type></trkpt>
      <trkpt lat="40.55368728" lon="-5.17167008"><ele>2463</ele><speed>15.08</speed><time>2016-06-29T11:51:37Z</time><pdop>4.0</pdop><geoidheight>54.00</geoidheight><course>85.6</course><type>1</type></trkpt>
      <trkpt lat="40.55368895" lon="-5.17150099"><ele>2465</ele><speed>14.58</speed><time>2016-06-29T11:51:38Z</time><pdop>4.0</pdop><geoidheight>54.00</geoidheight><course>92.1</course><type>1</type></trkpt>
      <trkpt lat="40.55368134" lon="-5.17133641"><ele>2468</ele><speed>14.05</speed><time>2016-06-29T11:51:39Z</time><pdop>4.0</pdop><geoidheight>54.00</geoidheight><course>98.9</course><type>1</type></trkpt>
      <trkpt lat="40.55365462" lon="-5.17118561"><ele>2470</ele><speed>13.03</speed><time>2016-06-29T11:51:40Z</time><pdop>4.0</pdop><geoidheight>54.00</geoidheight><course>110.3</course><type>1</type></trkpt>
      <trkpt lat="40.55360567" lon="-5.17107327"><ele>2472</ele><speed>11.47</speed><time>2016-06-29T11:51:41Z</time><pdop>3.0</pdop><geoidheight>54.00</geoidheight><course>124.6</course><type>1</type></trkpt>
      <trkpt lat="40.55353692" lon="-5.17097841"><ele>2477</ele><speed>10.49</speed><time>2016-06-29T11:51:42Z</time><pdop>3.0</pdop><geoidheight>54.00</geoidheight><course>139.5</course><type>1</type></trkpt>
      <trkpt lat="40.55347442" lon="-5.17094827"><ele>2479</ele><speed>9.10</speed><time>2016-06-29T11:51:43Z</time><pdop>3.0</pdop><geoidheight>54.00</geoidheight><course>156.7</course><type>1</type></trkpt>
      <trkpt lat="40.55339689" lon="-5.17093288"><ele>2481</ele><speed>8.40</speed><time>2016-06-29T11:51:44Z</time><pdop>3.0</pdop><geoidheight>54.00</geoidheight><course>177.1</course><type>1</type></trkpt>
      <trkpt lat="40.5533343" lon="-5.17096544"><ele>2483</ele><speed>8.01</speed><time>2016-06-29T11:51:45Z</time><pdop>3.0</pdop><geoidheight>54.00</geoidheight><course>201.1</course><type>1</type></trkpt>
      <trkpt lat="40.55328661" lon="-5.17101749"><ele>2485</ele><speed>7.44</speed><time>2016-06-29T11:51:46Z</time><pdop>3.0</pdop><geoidheight>54.00</geoidheight><course>213.5</course><type>1</type></trkpt>
      <trkpt lat="40.55328533" lon="-5.17111016"><ele>2488</ele><speed>3.95</speed><time>2016-06-29T11:51:48Z</time><pdop>3.0</pdop><geoidheight>54.00</geoidheight><course>264.0</course><type>1</type></trkpt>
      <trkpt lat="40.5533877" lon="-5.17118519"><ele>2490</ele><speed>3.47</speed><time>2016-06-29T11:51:51Z</time><pdop>8.0</pdop><geoidheight>54.00</geoidheight><course>336.1</course><type>1</type></trkpt>
      <trkpt lat="40.55370998" lon="-5.17097565"><ele>2492</ele><speed>12.64</speed><time>2016-06-29T11:51:53Z</time><pdop>7.0</pdop><geoidheight>54.00</geoidheight><course>28.9</course><type>1</type></trkpt>
      <trkpt lat="40.55379478" lon="-5.17082745"><ele>2492</ele><speed>13.02</speed><time>2016-06-29T11:51:54Z</time><pdop>8.0</pdop><geoidheight>54.00</geoidheight><course>42.1</course><type>1</type></trkpt>
      <trkpt lat="40.55393769" lon="-5.17045443"><ele>2495</ele><speed>15.40</speed><time>2016-06-29T11:51:56Z</time><pdop>9.0</pdop><geoidheight>54.00</geoidheight><course>57.7</course><type>1</type></trkpt>
      <trkpt lat="40.55401722" lon="-5.17011006"><ele>2498</ele><speed>13.51</speed><time>2016-06-29T11:51:58Z</time><pdop>8.0</pdop><geoidheight>54.00</geoidheight><course>66.3</course><type>1</type></trkpt>
      <trkpt lat="40.55392659" lon="-5.16984471"><ele>2503</ele><speed>9.93</speed><time>2016-06-29T11:52:00Z</time><pdop>7.0</pdop><geoidheight>54.00</geoidheight><course>94.7</course><type>1</type></trkpt>
      <trkpt lat="40.55384483" lon="-5.16969141"><ele>2507</ele><speed>10.82</speed><time>2016-06-29T11:52:01Z</time><pdop>8.0</pdop><geoidheight>54.00</geoidheight><course>109.7</course><type>1</type></trkpt>
      <trkpt lat="40.55371718" lon="-5.16958695"><ele>2510</ele><speed>11.63</speed><time>2016-06-29T11:52:02Z</time><pdop>6.0</pdop><geoidheight>54.00</geoidheight><course>131.3</course><type>1</type></trkpt>
      <trkpt lat="40.55361787" lon="-5.16950143"><ele>2513</ele><speed>11.14</speed><time>2016-06-29T11:52:03Z</time><pdop>5.0</pdop><geoidheight>54.00</geoidheight><course>142.4</course><type>1</type></trkpt>
      <trkpt lat="40.5535374" lon="-5.1694671"><ele>2520</ele><speed>8.94</speed><time>2016-06-29T11:52:04Z</time><pdop>4.0</pdop><geoidheight>54.00</geoidheight><course>158.1</course><type>1</type></trkpt>
      <trkpt lat="40.55344086" lon="-5.16946871"><ele>2528</ele><speed>4.30</speed><time>2016-06-29T11:52:06Z</time><pdop>4.0</pdop><geoidheight>54.00</geoidheight><course>206.4</course><type>1</type></trkpt>
      <trkpt lat="40.55346413" lon="-5.16954701"><ele>2531</ele><speed>5.59</speed><time>2016-06-29T11:52:08Z</time><pdop>3.0</pdop><geoidheight>54.00</geoidheight><course>311.8</course><type>1</type></trkpt>
      <trkpt lat="40.55352382" lon="-5.16960367"><ele>2534</ele><speed>8.63</speed><time>2016-06-29T11:52:09Z</time><pdop>3.0</pdop><geoidheight>54.00</geoidheight><course>327.6</course><type>1</type></trkpt>
      <trkpt lat="40.55361644" lon="-5.1696409"><ele>2536</ele><speed>10.80</speed><time>2016-06-29T11:52:10Z</time><pdop>3.0</pdop><geoidheight>54.00</geoidheight><course>338.9</course><type>1</type></trkpt>
      <trkpt lat="40.55372165" lon="-5.16965109"><ele>2540</ele><speed>12.72</speed><time>2016-06-29T11:52:11Z</time><pdop>3.0</pdop><geoidheight>54.00</geoidheight><course>351.7</course><type>1</type></trkpt>
      <trkpt lat="40.55384082" lon="-5.1696333"><ele>2544</ele><speed>13.98</speed><time>2016-06-29T11:52:12Z</time><pdop>3.0</pdop><geoidheight>54.00</geoidheight><course>3.3</course><type>1</type></trkpt>
      <trkpt lat="40.55396157" lon="-5.16958265"><ele>2547</ele><speed>14.76</speed><time>2016-06-29T11:52:13Z</time><pdop>3.0</pdop><geoidheight>54.00</geoidheight><course>14.2</course><type>1</type></trkpt>
      <trkpt lat="40.55408444" lon="-5.16951328"><ele>2550</ele><speed>15.35</speed><time>2016-06-29T11:52:14Z</time><pdop>3.0</pdop><geoidheight>54.00</geoidheight><course>22.5</course><type>1</type></trkpt>
      <trkpt lat="40.55420528" lon="-5.16941718"><ele>2554</ele><speed>16.11</speed><time>2016-06-29T11:52:15Z</time><pdop>3.0</pdop><geoidheight>54.00</geoidheight><course>29.5</course><type>1</type></trkpt>
      <trkpt lat="40.55431994" lon="-5.16929837"><ele>2557</ele><speed>16.84</speed><time>2016-06-29T11:52:16Z</time><pdop>3.0</pdop><geoidheight>54.00</geoidheight><course>36.3</course><type>1</type></trkpt>
      <trkpt lat="40.55442583" lon="-5.16914982"><ele>2561</ele><speed>17.45</speed><time>2016-06-29T11:52:17Z</time><pdop>3.0</pdop><geoidheight>54.00</geoidheight><course>44.8</course><type>1</type></trkpt>
      <trkpt lat="40.5545115" lon="-5.16897613"><ele>2564</ele><speed>17.56</speed><time>2016-06-29T11:52:18Z</time><pdop>3.0</pdop><geoidheight>54.00</geoidheight><course>55.3</course><type>1</type></trkpt>
      <trkpt lat="40.55459503" lon="-5.16880636"><ele>2565</ele><speed>17.71</speed><time>2016-06-29T11:52:19Z</time><pdop>3.0</pdop><geoidheight>54.00</geoidheight><course>58.3</course><type>1</type></trkpt>
      <trkpt lat="40.55462711" lon="-5.16864051"><ele>2567</ele><speed>15.81</speed><time>2016-06-29T11:52:20Z</time><pdop>4.0</pdop><geoidheight>54.00</geoidheight><course>68.0</course><type>1</type></trkpt>
      <trkpt lat="40.55464092" lon="-5.16848793"><ele>2568</ele><speed>14.21</speed><time>2016-06-29T11:52:21Z</time><pdop>5.0</pdop><geoidheight>54.00</geoidheight><course>74.6</course><type>1</type></trkpt>
      <trkpt lat="40.55462213" lon="-5.16830016"><ele>2569</ele><speed>14.43</speed><time>2016-06-29T11:52:22Z</time><pdop>5.0</pdop><geoidheight>54.00</geoidheight><course>86.2</course><type>1</type></trkpt>
      <trkpt lat="40.55457194" lon="-5.16817176"><ele>2569</ele><speed>12.62</speed><time>2016-06-29T11:52:23Z</time><pdop>5.0</pdop><geoidheight>54.00</geoidheight><course>97.1</course><type>1</type></trkpt>
      <trkpt lat="40.55447749" lon="-5.16802636"><ele>2569</ele><speed>12.87</speed><time>2016-06-29T11:52:24Z</time><pdop>5.0</pdop><geoidheight>54.00</geoidheight><course>111.2</course><type>1</type></trkpt>
      <trkpt lat="40.5543648" lon="-5.16790549"><ele>2570</ele><speed>13.20</speed><time>2016-06-29T11:52:25Z</time><pdop>5.0</pdop><geoidheight>54.00</geoidheight><course>125.2</course><type>1</type></trkpt>
      <trkpt lat="40.55428482" lon="-5.16787851"><ele>2571</ele><speed>10.53</speed><time>2016-06-29T11:52:26Z</time><pdop>4.0</pdop><geoidheight>54.00</geoidheight><course>141.0</course><type>1</type></trkpt>
      <trkpt lat="40.55420665" lon="-5.16791067"><ele>2576</ele><speed>5.17</speed><time>2016-06-29T11:52:28Z</time><pdop>3.0</pdop><geoidheight>54.00</geoidheight><course>172.1</course><type>1</type></trkpt>
      <trkpt lat="40.55413635" lon="-5.1679565"><ele>2578</ele><speed>4.14</speed><time>2016-06-29T11:52:30Z</time><pdop>3.0</pdop><geoidheight>54.00</geoidheight><course>247.4</course><type>1</type></trkpt>
      <trkpt lat="40.55420052" lon="-5.16807292"><ele>2581</ele><speed>7.05</speed><time>2016-06-29T11:52:32Z</time><pdop>3.0</pdop><geoidheight>54.00</geoidheight><course>315.2</course><type>1</type></trkpt>
      <trkpt lat="40.55427718" lon="-5.16811237"><ele>2585</ele><speed>8.56</speed><time>2016-06-29T11:52:33Z</time><pdop>3.0</pdop><geoidheight>54.00</geoidheight><course>336.7</course><type>1</type></trkpt>
      <trkpt lat="40.55437488" lon="-5.16813393"><ele>2588</ele><speed>10.35</speed><time>2016-06-29T11:52:34Z</time><pdop>3.0</pdop><geoidheight>54.00</geoidheight><course>347.5</course><type>1</type></trkpt>
      <trkpt lat="40.55448622" lon="-5.16812947"><ele>2592</ele><speed>12.43</speed><time>2016-06-29T11:52:35Z</time><pdop>3.0</pdop><geoidheight>54.00</geoidheight><course>1.1</course><type>1</type></trkpt>
      <trkpt lat="40.55460902" lon="-5.16808103"><ele>2595</ele><speed>14.56</speed><time>2016-06-29T11:52:36Z</time><pdop>3.0</pdop><geoidheight>54.00</geoidheight><course>13.6</course><type>1</type></trkpt>
      <trkpt lat="40.55473088" lon="-5.16800612"><ele>2599</ele><speed>16.09</speed><time>2016-06-29T11:52:37Z</time><pdop>3.0</pdop><geoidheight>54.00</geoidheight><course>24.7</course><type>1</type></trkpt>
      <trkpt lat="40.55485818" lon="-5.16791589"><ele>2601</ele><speed>16.79</speed><time>2016-06-29T11:52:38Z</time><pdop>3.0</pdop><geoidheight>54.00</geoidheight><course>28.6</course><type>1</type></trkpt>
      <trkpt lat="40.55495546" lon="-5.16777247"><ele>2604</ele><speed>16.71</speed><time>2016-06-29T11:52:39Z</time><pdop>3.0</pdop><geoidheight>54.00</geoidheight><course>40.0</course><type>1</type></trkpt>
      <trkpt lat="40.55504874" lon="-5.16763233"><ele>2605</ele><speed>16.49</speed><time>2016-06-29T11:52:40Z</time><pdop>4.0</pdop><geoidheight>54.00</geoidheight><course>43.6</course><type>1</type></trkpt>
      <trkpt lat="40.55511791" lon="-5.16748946"><ele>2606</ele><speed>15.70</speed><time>2016-06-29T11:52:41Z</time><pdop>6.0</pdop><geoidheight>54.00</geoidheight><course>48.2</course><type>1</type></trkpt>
      <trkpt lat="40.55511348" lon="-5.16729697"><ele>2607</ele><speed>14.67</speed><time>2016-06-29T11:52:42Z</time><pdop>5.0</pdop><geoidheight>54.00</geoidheight><course>63.3</course><type>1</type></trkpt>
      <trkpt lat="40.55506989" lon="-5.16713165"><ele>2608</ele><speed>13.02</speed><time>2016-06-29T11:52:43Z</time><pdop>5.0</pdop><geoidheight>54.00</geoidheight><course>77.2</course><type>1</type></trkpt>
      <trkpt lat="40.55501874" lon="-5.16697005"><ele>2611</ele><speed>12.66</speed><time>2016-06-29T11:52:44Z</time><pdop>5.0</pdop><geoidheight>54.00</geoidheight><course>91.3</course><type>1</type></trkpt>
      <trkpt lat="40.55493437" lon="-5.16682627"><ele>2612</ele><speed>12.44</speed><time>2016-06-29T11:52:45Z</time><pdop>5.0</pdop><geoidheight>54.00</geoidheight><course>109.8</course><type>1</type></trkpt>
      <trkpt lat="40.55486104" lon="-5.16675478"><ele>2615</ele><speed>10.70</speed><time>2016-06-29T11:52:46Z</time><pdop>4.0</pdop><geoidheight>54.00</geoidheight><course>131.5</course><type>1</type></trkpt>
      <trkpt lat="40.55478032" lon="-5.16669823"><ele>2617</ele><speed>9.09</speed><time>2016-06-29T11:52:47Z</time><pdop>3.0</pdop><geoidheight>54.00</geoidheight><course>149.1</course><type>1</type></trkpt>
      <trkpt lat="40.55471014" lon="-5.1666708"><ele>2618</ele><speed>8.25</speed><time>2016-06-29T11:52:48Z</time><pdop>4.0</pdop><geoidheight>54.00</geoidheight><course>162.9</course><type>1</type></trkpt>
      <trkpt lat="40.55476719" lon="-5.1667128"><ele>2627</ele><speed>5.71</speed><time>2016-06-29T11:52:52Z</time><pdop>3.0</pdop><geoidheight>54.00</geoidheight><course>343.5</course><type>1</type></trkpt>
      <trkpt lat="40.55487416" lon="-5.16675137"><ele>2631</ele><speed>6.30</speed><time>2016-06-29T11:52:54Z</time><pdop>3.0</pdop><geoidheight>54.00</geoidheight><course>338.8</course><type>1</type></trkpt>
      <trkpt lat="40.55493303" lon="-5.16677512"><ele>2632</ele><speed>7.73</speed><time>2016-06-29T11:52:55Z</time><pdop>3.0</pdop><geoidheight>54.00</geoidheight><course>342.3</course><type>1</type></trkpt>
      <trkpt lat="40.55501219" lon="-5.16679006"><ele>2635</ele><speed>9.33</speed><time>2016-06-29T11:52:56Z</time><pdop>3.0</pdop><geoidheight>54.00</geoidheight><course>350.3</course><type>1</type></trkpt>
      <trkpt lat="40.55510305" lon="-5.16679684"><ele>2636</ele><speed>10.40</speed><time>2016-06-29T11:52:57Z</time><pdop>3.0</pdop><geoidheight>54.00</geoidheight><course>356.4</course><type>1</type></trkpt>
      <trkpt lat="40.55520983" lon="-5.16677423"><ele>2638</ele><speed>12.01</speed><time>2016-06-29T11:52:58Z</time><pdop>3.0</pdop><geoidheight>54.00</geoidheight><course>4.6</course><type>1</type></trkpt>
      <trkpt lat="40.55532989" lon="-5.16671349"><ele>2638</ele><speed>14.27</speed><time>2016-06-29T11:52:59Z</time><pdop>3.0</pdop><geoidheight>54.00</geoidheight><course>18.8</course><type>1</type></trkpt>
      <trkpt lat="40.55544421" lon="-5.16661013"><ele>2640</ele><speed>16.22</speed><time>2016-06-29T11:53:00Z</time><pdop>3.0</pdop><geoidheight>54.00</geoidheight><course>31.3</course><type>1</type></trkpt>
      <trkpt lat="40.55555448" lon="-5.1664785"><ele>2640</ele><speed>17.34</speed><time>2016-06-29T11:53:01Z</time><pdop>3.0</pdop><geoidheight>54.00</geoidheight><course>40.1</course><type>1</type></trkpt>
      <trkpt lat="40.55566088" lon="-5.16632131"><ele>2643</ele><speed>17.81</speed><time>2016-06-29T11:53:02Z</time><pdop>3.0</pdop><geoidheight>54.00</geoidheight><course>46.7</course><type>1</type></trkpt>
      <trkpt lat="40.55573776" lon="-5.1661467"><ele>2647</ele><speed>17.83</speed><time>2016-06-29T11:53:03Z</time><pdop>3.0</pdop><geoidheight>54.00</geoidheight><course>57.4</course><type>1</type></trkpt>
      <trkpt lat="40.5558173" lon="-5.16597151"><ele>2648</ele><speed>17.33</speed><time>2016-06-29T11:53:04Z</time><pdop>3.0</pdop><geoidheight>54.00</geoidheight><course>59.8</course><type>1</type></trkpt>
      <trkpt lat="40.55583557" lon="-5.16578534"><ele>2649</ele><speed>16.34</speed><time>2016-06-29T11:53:05Z</time><pdop>4.0</pdop><geoidheight>54.00</geoidheight><course>71.9</course><type>1</type></trkpt>
      <trkpt lat="40.55585913" lon="-5.16562536"><ele>2649</ele><speed>14.49</speed><time>2016-06-29T11:53:06Z</time><pdop>4.0</pdop><geoidheight>54.00</geoidheight><course>76.9</course><type>1</type></trkpt>
      <trkpt lat="40.55571411" lon="-5.16550668"><ele>2648</ele><speed>12.93</speed><time>2016-06-29T11:53:07Z</time><pdop>3.0</pdop><geoidheight>54.00</geoidheight><course>111.0</course><type>1</type></trkpt>
      <trkpt lat="40.55564016" lon="-5.1654045"><ele>2648</ele><speed>11.07</speed><time>2016-06-29T11:53:08Z</time><pdop>3.0</pdop><geoidheight>54.00</geoidheight><course>130.4</course><type>1</type></trkpt>
      <trkpt lat="40.55557559" lon="-5.16530505"><ele>2648</ele><speed>11.06</speed><time>2016-06-29T11:53:09Z</time><pdop>4.0</pdop><geoidheight>54.00</geoidheight><course>130.4</course><type>1</type></trkpt>
      <trkpt lat="40.55546365" lon="-5.16526541"><ele>2650</ele><speed>6.46</speed><time>2016-06-29T11:53:11Z</time><pdop>3.0</pdop><geoidheight>54.00</geoidheight><course>165.0</course><type>1</type></trkpt>
      <trkpt lat="40.55537918" lon="-5.16525937"><ele>2655</ele><speed>3.00</speed><time>2016-06-29T11:53:14Z</time><pdop>3.0</pdop><geoidheight>54.00</geoidheight><course>162.5</course><type>1</type></trkpt>
      <trkpt lat="40.55544243" lon="-5.16529721"><ele>2661</ele><speed>6.71</speed><time>2016-06-29T11:53:20Z</time><pdop>4.0</pdop><geoidheight>54.00</geoidheight><course>342.3</course><type>1</type></trkpt>
      <trkpt lat="40.55559268" lon="-5.16533508"><ele>2661</ele><speed>9.01</speed><time>2016-06-29T11:53:22Z</time><pdop>5.0</pdop><geoidheight>54.00</geoidheight><course>347.7</course><type>1</type></trkpt>
      <trkpt lat="40.55574154" lon="-5.1652757"><ele>2661</ele><speed>13.21</speed><time>2016-06-29T11:53:23Z</time><pdop>5.0</pdop><geoidheight>54.00</geoidheight><course>6.5</course><type>1</type></trkpt>
      <trkpt lat="40.55589181" lon="-5.16520139"><ele>2660</ele><speed>17.15</speed><time>2016-06-29T11:53:24Z</time><pdop>5.0</pdop><geoidheight>54.00</geoidheight><course>22.4</course><type>1</type></trkpt>
      <trkpt lat="40.55603342" lon="-5.16510716"><ele>2663</ele><speed>17.69</speed><time>2016-06-29T11:53:25Z</time><pdop>5.0</pdop><geoidheight>54.00</geoidheight><course>27.7</course><type>1</type></trkpt>
      <trkpt lat="40.55617446" lon="-5.16501022"><ele>2663</ele><speed>17.69</speed><time>2016-06-29T11:53:26Z</time><pdop>5.0</pdop><geoidheight>54.00</geoidheight><course>27.7</course><type>1</type></trkpt>
      <trkpt lat="40.55630149" lon="-5.16485412"><ele>2667</ele><speed>19.11</speed><time>2016-06-29T11:53:27Z</time><pdop>4.0</pdop><geoidheight>54.00</geoidheight><course>38.6</course><type>1</type></trkpt>
      <trkpt lat="40.55641635" lon="-5.16469888"><ele>2670</ele><speed>18.50</speed><time>2016-06-29T11:53:28Z</time><pdop>4.0</pdop><geoidheight>54.00</geoidheight><course>47.2</course><type>1</type></trkpt>
      <trkpt lat="40.55652854" lon="-5.1645402"><ele>2672</ele><speed>18.40</speed><time>2016-06-29T11:53:29Z</time><pdop>4.0</pdop><geoidheight>54.00</geoidheight><course>47.2</course><type>1</type></trkpt>
      <trkpt lat="40.55663646" lon="-5.16439224"><ele>2673</ele><speed>17.90</speed><time>2016-06-29T11:53:30Z</time><pdop>6.0</pdop><geoidheight>54.00</geoidheight><course>48.3</course><type>1</type></trkpt>
      <trkpt lat="40.55667255" lon="-5.16423597"><ele>2674</ele><speed>15.69</speed><time>2016-06-29T11:53:31Z</time><pdop>5.0</pdop><geoidheight>54.00</geoidheight><course>62.0</course><type>1</type></trkpt>
      <trkpt lat="40.55671343" lon="-5.16407283"><ele>2675</ele><speed>15.14</speed><time>2016-06-29T11:53:32Z</time><pdop>5.0</pdop><geoidheight>54.00</geoidheight><course>65.9</course><type>1</type></trkpt>
      <trkpt lat="40.5567458" lon="-5.16390378"><ele>2675</ele><speed>14.63</speed><time>2016-06-29T11:53:33Z</time><pdop>5.0</pdop><geoidheight>54.00</geoidheight><course>72.4</course><type>1</type></trkpt>
      <trkpt lat="40.55670135" lon="-5.1637572"><ele>2674</ele><speed>13.35</speed><time>2016-06-29T11:53:34Z</time><pdop>4.0</pdop><geoidheight>54.00</geoidheight><course>88.1</course><type>1</type></trkpt>
      <trkpt lat="40.5566788" lon="-5.16360476"><ele>2673</ele><speed>13.04</speed><time>2016-06-29T11:53:35Z</time><pdop>7.0</pdop><geoidheight>54.00</geoidheight><course>96.8</course><type>1</type></trkpt>
      <trkpt lat="40.556602" lon="-5.16330246"><ele>2674</ele><speed>13.17</speed><time>2016-06-29T11:53:37Z</time><pdop>9.0</pdop><geoidheight>54.00</geoidheight><course>111.3</course><type>1</type></trkpt>
      <trkpt lat="40.55649969" lon="-5.16304151"><ele>2675</ele><speed>12.09</speed><time>2016-06-29T11:53:39Z</time><pdop>9.0</pdop><geoidheight>54.00</geoidheight><course>120.7</course><type>1</type></trkpt>
      <trkpt lat="40.55636054" lon="-5.1628811"><ele>2675</ele><speed>8.64</speed><time>2016-06-29T11:53:41Z</time><pdop>6.0</pdop><geoidheight>54.00</geoidheight><course>145.3</course><type>1</type></trkpt>
      <trkpt lat="40.55647908" lon="-5.16290956"><ele>2681</ele><speed>7.84</speed><time>2016-06-29T11:53:47Z</time><pdop>4.0</pdop><geoidheight>54.00</geoidheight><course>2.0</course><type>1</type></trkpt>
      <trkpt lat="40.55656239" lon="-5.16290877"><ele>2683</ele><speed>9.04</speed><time>2016-06-29T11:53:48Z</time><pdop>4.0</pdop><geoidheight>54.00</geoidheight><course>0.5</course><type>1</type></trkpt>
      <trkpt lat="40.5566545" lon="-5.16291352"><ele>2683</ele><speed>10.34</speed><time>2016-06-29T11:53:49Z</time><pdop>4.0</pdop><geoidheight>54.00</geoidheight><course>358.8</course><type>1</type></trkpt>
      <trkpt lat="40.55677441" lon="-5.16290909"><ele>2683</ele><speed>12.54</speed><time>2016-06-29T11:53:50Z</time><pdop>3.0</pdop><geoidheight>54.00</geoidheight><course>0.6</course><type>1</type></trkpt>
      <trkpt lat="40.55689708" lon="-5.16289023"><ele>2684</ele><speed>14.09</speed><time>2016-06-29T11:53:51Z</time><pdop>3.0</pdop><geoidheight>54.00</geoidheight><course>7.4</course><type>1</type></trkpt>
      <trkpt lat="40.55703411" lon="-5.16283132"><ele>2686</ele><speed>15.64</speed><time>2016-06-29T11:53:52Z</time><pdop>3.0</pdop><geoidheight>54.00</geoidheight><course>17.3</course><type>1</type></trkpt>
      <trkpt lat="40.55716719" lon="-5.1627297"><ele>2687</ele><speed>16.90</speed><time>2016-06-29T11:53:53Z</time><pdop>3.0</pdop><geoidheight>54.00</geoidheight><course>27.8</course><type>1</type></trkpt>
      <trkpt lat="40.55728697" lon="-5.16260343"><ele>2689</ele><speed>17.38</speed><time>2016-06-29T11:53:54Z</time><pdop>3.0</pdop><geoidheight>54.00</geoidheight><course>39.1</course><type>1</type></trkpt>
      <trkpt lat="40.55738291" lon="-5.16243485"><ele>2691</ele><speed>17.53</speed><time>2016-06-29T11:53:55Z</time><pdop>3.0</pdop><geoidheight>54.00</geoidheight><course>52.5</course><type>1</type></trkpt>
      <trkpt lat="40.55744804" lon="-5.1622524"><ele>2692</ele><speed>16.86</speed><time>2016-06-29T11:53:56Z</time><pdop>3.0</pdop><geoidheight>54.00</geoidheight><course>63.5</course><type>1</type></trkpt>
      <trkpt lat="40.55751032" lon="-5.1620732"><ele>2693</ele><speed>16.54</speed><time>2016-06-29T11:53:57Z</time><pdop>3.0</pdop><geoidheight>54.00</geoidheight><course>64.8</course><type>1</type></trkpt>
      <trkpt lat="40.55753455" lon="-5.16190166"><ele>2694</ele><speed>15.34</speed><time>2016-06-29T11:53:58Z</time><pdop>3.0</pdop><geoidheight>54.00</geoidheight><course>73.1</course><type>1</type></trkpt>
      <trkpt lat="40.55755542" lon="-5.16172717"><ele>2695</ele><speed>15.14</speed><time>2016-06-29T11:53:59Z</time><pdop>3.0</pdop><geoidheight>54.00</geoidheight><course>77.8</course><type>1</type></trkpt>
      <trkpt lat="40.5575808" lon="-5.16155098"><ele>2695</ele><speed>14.92</speed><time>2016-06-29T11:54:00Z</time><pdop>3.0</pdop><geoidheight>54.00</geoidheight><course>79.7</course><type>1</type></trkpt>
      <trkpt lat="40.55756899" lon="-5.16137947"><ele>2696</ele><speed>14.50</speed><time>2016-06-29T11:54:01Z</time><pdop>3.0</pdop><geoidheight>54.00</geoidheight><course>91.1</course><type>1</type></trkpt>
      <trkpt lat="40.55755722" lon="-5.16122939"><ele>2695</ele><speed>13.62</speed><time>2016-06-29T11:54:02Z</time><pdop>4.0</pdop><geoidheight>54.00</geoidheight><course>95.8</course><type>1</type></trkpt>
      <trkpt lat="40.55749213" lon="-5.16110568"><ele>2696</ele><speed>12.03</speed><time>2016-06-29T11:54:03Z</time><pdop>3.0</pdop><geoidheight>54.00</geoidheight><course>114.6</course><type>1</type></trkpt>
      <trkpt lat="40.55743444" lon="-5.16100436"><ele>2697</ele><speed>9.50</speed><time>2016-06-29T11:54:04Z</time><pdop>3.0</pdop><geoidheight>54.00</geoidheight><course>128.0</course><type>1</type></trkpt>
      <trkpt lat="40.55738174" lon="-5.16095966"><ele>2697</ele><speed>6.94</speed><time>2016-06-29T11:54:05Z</time><pdop>3.0</pdop><geoidheight>54.00</geoidheight><course>142.3</course><type>1</type></trkpt>
      <trkpt lat="40.55731413" lon="-5.16093672"><ele>2697</ele><speed>2.59</speed><time>2016-06-29T11:54:07Z</time><pdop>3.0</pdop><geoidheight>54.00</geoidheight><course>182.0</course><type>1</type></trkpt>
      <trkpt lat="40.55734489" lon="-5.16099972"><ele>2696</ele><speed>4.83</speed><time>2016-06-29T11:54:09Z</time><pdop>3.0</pdop><geoidheight>54.00</geoidheight><course>308.3</course><type>1</type></trkpt>
      <trkpt lat="40.55739941" lon="-5.16105215"><ele>2695</ele><speed>7.11</speed><time>2016-06-29T11:54:10Z</time><pdop>3.0</pdop><geoidheight>54.00</geoidheight><course>324.5</course><type>1</type></trkpt>
      <trkpt lat="40.55747175" lon="-5.16108798"><ele>2697</ele><speed>8.71</speed><time>2016-06-29T11:54:11Z</time><pdop>3.0</pdop><geoidheight>54.00</geoidheight><course>339.4</course><type>1</type></trkpt>
      <trkpt lat="40.55756314" lon="-5.16109117"><ele>2698</ele><speed>9.88</speed><time>2016-06-29T11:54:12Z</time><pdop>3.0</pdop><geoidheight>54.00</geoidheight><course>355.5</course><type>1</type></trkpt>
      <trkpt lat="40.55766326" lon="-5.16107577"><ele>2700</ele><speed>11.12</speed><time>2016-06-29T11:54:13Z</time><pdop>3.0</pdop><geoidheight>54.00</geoidheight><course>8.1</course><type>1</type></trkpt>
      <trkpt lat="40.5577681" lon="-5.16104023"><ele>2700</ele><speed>12.19</speed><time>2016-06-29T11:54:14Z</time><pdop>3.0</pdop><geoidheight>54.00</geoidheight><course>13.6</course><type>1</type></trkpt>
      <trkpt lat="40.5578831" lon="-5.16098658"><ele>2700</ele><speed>13.40</speed><time>2016-06-29T11:54:15Z</time><pdop>3.0</pdop><geoidheight>54.00</geoidheight><course>16.8</course><type>1</type></trkpt>
      <trkpt lat="40.55800007" lon="-5.16090774"><ele>2700</ele><speed>14.91</speed><time>2016-06-29T11:54:16Z</time><pdop>3.0</pdop><geoidheight>54.00</geoidheight><course>25.2</course><type>1</type></trkpt>
      <trkpt lat="40.55811362" lon="-5.1607794"><ele>2698</ele><speed>16.89</speed><time>2016-06-29T11:54:17Z</time><pdop>3.0</pdop><geoidheight>54.00</geoidheight><course>40.4</course><type>1</type></trkpt>
      <trkpt lat="40.55822141" lon="-5.16060713"><ele>2696</ele><speed>18.72</speed><time>2016-06-29T11:54:18Z</time><pdop>3.0</pdop><geoidheight>54.00</geoidheight><course>49.8</course><type>1</type></trkpt>
      <trkpt lat="40.55832184" lon="-5.16042454"><ele>2697</ele><speed>18.86</speed><time>2016-06-29T11:54:19Z</time><pdop>3.0</pdop><geoidheight>54.00</geoidheight><course>53.4</course><type>1</type></trkpt>
      <trkpt lat="40.55842475" lon="-5.16025434"><ele>2698</ele><speed>18.37</speed><time>2016-06-29T11:54:20Z</time><pdop>3.0</pdop><geoidheight>54.00</geoidheight><course>52.6</course><type>1</type></trkpt>
      <trkpt lat="40.55851282" lon="-5.16009193"><ele>2699</ele><speed>17.33</speed><time>2016-06-29T11:54:21Z</time><pdop>3.0</pdop><geoidheight>54.00</geoidheight><course>55.5</course><type>1</type></trkpt>
      <trkpt lat="40.558602" lon="-5.15991212"><ele>2700</ele><speed>18.07</speed><time>2016-06-29T11:54:22Z</time><pdop>3.0</pdop><geoidheight>54.00</geoidheight><course>57.6</course><type>1</type></trkpt>
      <trkpt lat="40.55861585" lon="-5.15970521"><ele>2700</ele><speed>17.55</speed><time>2016-06-29T11:54:23Z</time><pdop>3.0</pdop><geoidheight>54.00</geoidheight><course>72.5</course><type>1</type></trkpt>
      <trkpt lat="40.5586313" lon="-5.15950631"><ele>2700</ele><speed>16.86</speed><time>2016-06-29T11:54:24Z</time><pdop>3.0</pdop><geoidheight>54.00</geoidheight><course>81.6</course><type>1</type></trkpt>
      <trkpt lat="40.55862519" lon="-5.15931775"><ele>2700</ele><speed>15.94</speed><time>2016-06-29T11:54:25Z</time><pdop>3.0</pdop><geoidheight>54.00</geoidheight><course>88.3</course><type>1</type></trkpt>
      <trkpt lat="40.55861507" lon="-5.15913596"><ele>2700</ele><speed>15.45</speed><time>2016-06-29T11:54:26Z</time><pdop>3.0</pdop><geoidheight>54.00</geoidheight><course>93.6</course><type>1</type></trkpt>
      <trkpt lat="40.55858941" lon="-5.15897099"><ele>2701</ele><speed>14.79</speed><time>2016-06-29T11:54:27Z</time><pdop>4.0</pdop><geoidheight>54.00</geoidheight><course>100.7</course><type>1</type></trkpt>
      <trkpt lat="40.55855542" lon="-5.15879069"><ele>2700</ele><speed>14.94</speed><time>2016-06-29T11:54:28Z</time><pdop>5.0</pdop><geoidheight>54.00</geoidheight><course>105.4</course><type>1</type></trkpt>
      <trkpt lat="40.55849984" lon="-5.15865022"><ele>2700</ele><speed>14.31</speed><time>2016-06-29T11:54:29Z</time><pdop>5.0</pdop><geoidheight>54.00</geoidheight><course>111.3</course><type>1</type></trkpt>
      <trkpt lat="40.55842917" lon="-5.15851874"><ele>2701</ele><speed>14.05</speed><time>2016-06-29T11:54:30Z</time><pdop>4.0</pdop><geoidheight>54.00</geoidheight><course>119.5</course><type>1</type></trkpt>
      <trkpt lat="40.55837085" lon="-5.15839038"><ele>2701</ele><speed>13.79</speed><time>2016-06-29T11:54:31Z</time><pdop>4.0</pdop><geoidheight>54.00</geoidheight><course>122.4</course><type>1</type></trkpt>
      <trkpt lat="40.55831383" lon="-5.15824916"><ele>2701</ele><speed>13.38</speed><time>2016-06-29T11:54:32Z</time><pdop>4.0</pdop><geoidheight>54.00</geoidheight><course>121.2</course><type>1</type></trkpt>
      <trkpt lat="40.55825132" lon="-5.15813082"><ele>2700</ele><speed>12.40</speed><time>2016-06-29T11:54:33Z</time><pdop>4.0</pdop><geoidheight>54.00</geoidheight><course>120.0</course><type>1</type></trkpt>
      <trkpt lat="40.55819261" lon="-5.15801781"><ele>2702</ele><speed>12.08</speed><time>2016-06-29T11:54:34Z</time><pdop>3.0</pdop><geoidheight>54.00</geoidheight><course>120.4</course><type>1</type></trkpt>
      <trkpt lat="40.5581217" lon="-5.15789724"><ele>2703</ele><speed>11.87</speed><time>2016-06-29T11:54:35Z</time><pdop>3.0</pdop><geoidheight>54.00</geoidheight><course>124.3</course><type>1</type></trkpt>
      <trkpt lat="40.55806092" lon="-5.15781347"><ele>2704</ele><speed>10.46</speed><time>2016-06-29T11:54:36Z</time><pdop>3.0</pdop><geoidheight>54.00</geoidheight><course>130.4</course><type>1</type></trkpt>
      <trkpt lat="40.55800342" lon="-5.15773443"><ele>2705</ele><speed>9.41</speed><time>2016-06-29T11:54:37Z</time><pdop>3.0</pdop><geoidheight>54.00</geoidheight><course>132.5</course><type>1</type></trkpt>
      <trkpt lat="40.55794979" lon="-5.15766566"><ele>2706</ele><speed>8.87</speed><time>2016-06-29T11:54:38Z</time><pdop>3.0</pdop><geoidheight>54.00</geoidheight><course>134.7</course><type>1</type></trkpt>
      <trkpt lat="40.55789839" lon="-5.15760131"><ele>2707</ele><speed>8.50</speed><time>2016-06-29T11:54:39Z</time><pdop>3.0</pdop><geoidheight>54.00</geoidheight><course>134.5</course><type>1</type></trkpt>
      <trkpt lat="40.55785092" lon="-5.15753499"><ele>2707</ele><speed>7.73</speed><time>2016-06-29T11:54:40Z</time><pdop>3.0</pdop><geoidheight>54.00</geoidheight><course>133.7</course><type>1</type></trkpt>
      <trkpt lat="40.55778038" lon="-5.15747354"><ele>2707</ele><speed>4.45</speed><time>2016-06-29T11:54:42Z</time><pdop>3.0</pdop><geoidheight>54.00</geoidheight><course>151.4</course><type>1</type></trkpt>
      <trkpt lat="40.55781013" lon="-5.15755094"><ele>2710</ele><speed>4.69</speed><time>2016-06-29T11:54:46Z</time><pdop>3.0</pdop><geoidheight>54.00</geoidheight><course>325.8</course><type>1</type></trkpt>
      <trkpt lat="40.55787658" lon="-5.15757517"><ele>2711</ele><speed>7.03</speed><time>2016-06-29T11:54:47Z</time><pdop>3.0</pdop><geoidheight>54.00</geoidheight><course>341.7</course><type>1</type></trkpt>
      <trkpt lat="40.55796648" lon="-5.15758012"><ele>2713</ele><speed>9.06</speed><time>2016-06-29T11:54:48Z</time><pdop>3.0</pdop><geoidheight>54.00</geoidheight><course>350.1</course><type>1</type></trkpt>
      <trkpt lat="40.55806526" lon="-5.15758452"><ele>2714</ele><speed>10.58</speed><time>2016-06-29T11:54:49Z</time><pdop>3.0</pdop><geoidheight>54.00</geoidheight><course>357.4</course><type>1</type></trkpt>
      <trkpt lat="40.55816435" lon="-5.15758385"><ele>2715</ele><speed>11.09</speed><time>2016-06-29T11:54:50Z</time><pdop>3.0</pdop><geoidheight>54.00</geoidheight><course>2.7</course><type>1</type></trkpt>
      <trkpt lat="40.55826096" lon="-5.15756874"><ele>2717</ele><speed>11.25</speed><time>2016-06-29T11:54:51Z</time><pdop>3.0</pdop><geoidheight>54.00</geoidheight><course>8.6</course><type>1</type></trkpt>
      <trkpt lat="40.55836371" lon="-5.15752573"><ele>2718</ele><speed>12.14</speed><time>2016-06-29T11:54:52Z</time><pdop>3.0</pdop><geoidheight>54.00</geoidheight><course>13.3</course><type>1</type></trkpt>
      <trkpt lat="40.55848338" lon="-5.15746362"><ele>2719</ele><speed>14.09</speed><time>2016-06-29T11:54:53Z</time><pdop>3.0</pdop><geoidheight>54.00</geoidheight><course>20.0</course><type>1</type></trkpt>
      <trkpt lat="40.55861037" lon="-5.1573942"><ele>2720</ele><speed>15.18</speed><time>2016-06-29T11:54:54Z</time><pdop>3.0</pdop><geoidheight>54.00</geoidheight><course>22.7</course><type>1</type></trkpt>
      <trkpt lat="40.55873117" lon="-5.15727705"><ele>2723</ele><speed>16.63</speed><time>2016-06-29T11:54:55Z</time><pdop>3.0</pdop><geoidheight>54.00</geoidheight><course>31.9</course><type>1</type></trkpt>
      <trkpt lat="40.55884967" lon="-5.15715946"><ele>2724</ele><speed>17.12</speed><time>2016-06-29T11:54:56Z</time><pdop>3.0</pdop><geoidheight>54.00</geoidheight><course>36.8</course><type>1</type></trkpt>
      <trkpt lat="40.55896599" lon="-5.1570201"><ele>2725</ele><speed>17.42</speed><time>2016-06-29T11:54:57Z</time><pdop>3.0</pdop><geoidheight>54.00</geoidheight><course>42.8</course><type>1</type></trkpt>
      <trkpt lat="40.55907015" lon="-5.15686661"><ele>2725</ele><speed>17.89</speed><time>2016-06-29T11:54:58Z</time><pdop>3.0</pdop><geoidheight>54.00</geoidheight><course>47.6</course><type>1</type></trkpt>
      <trkpt lat="40.55917238" lon="-5.15670014"><ele>2727</ele><speed>18.08</speed><time>2016-06-29T11:54:59Z</time><pdop>3.0</pdop><geoidheight>54.00</geoidheight><course>51.5</course><type>1</type></trkpt>
      <trkpt lat="40.55926485" lon="-5.15652891"><ele>2727</ele><speed>18.25</speed><time>2016-06-29T11:55:00Z</time><pdop>3.0</pdop><geoidheight>54.00</geoidheight><course>53.2</course><type>1</type></trkpt>
      <trkpt lat="40.55937143" lon="-5.15634536"><ele>2727</ele><speed>18.74</speed><time>2016-06-29T11:55:01Z</time><pdop>3.0</pdop><geoidheight>54.00</geoidheight><course>53.0</course><type>1</type></trkpt>
      <trkpt lat="40.55946994" lon="-5.15619001"><ele>2726</ele><speed>18.49</speed><time>2016-06-29T11:55:02Z</time><pdop>3.0</pdop><geoidheight>54.00</geoidheight><course>51.8</course><type>1</type></trkpt>
      <trkpt lat="40.55958098" lon="-5.15601525"><ele>2727</ele><speed>18.72</speed><time>2016-06-29T11:55:03Z</time><pdop>3.0</pdop><geoidheight>54.00</geoidheight><course>50.9</course><type>1</type></trkpt>
      <trkpt lat="40.5596865" lon="-5.15585856"><ele>2727</ele><speed>18.18</speed><time>2016-06-29T11:55:04Z</time><pdop>3.0</pdop><geoidheight>54.00</geoidheight><course>51.3</course><type>1</type></trkpt>
      <trkpt lat="40.55979332" lon="-5.15569029"><ele>2727</ele><speed>18.08</speed><time>2016-06-29T11:55:05Z</time><pdop>3.0</pdop><geoidheight>54.00</geoidheight><course>51.6</course><type>1</type></trkpt>
      <trkpt lat="40.55989348" lon="-5.15551849"><ele>2726</ele><speed>18.66</speed><time>2016-06-29T11:55:06Z</time><pdop>3.0</pdop><geoidheight>54.00</geoidheight><course>51.1</course><type>1</type></trkpt>
      <trkpt lat="40.55999623" lon="-5.15534246"><ele>2726</ele><speed>18.89</speed><time>2016-06-29T11:55:07Z</time><pdop>3.0</pdop><geoidheight>54.00</geoidheight><course>50.1</course><type>1</type></trkpt>
      <trkpt lat="40.56010544" lon="-5.15517831"><ele>2726</ele><speed>18.77</speed><time>2016-06-29T11:55:08Z</time><pdop>3.0</pdop><geoidheight>54.00</geoidheight><course>49.8</course><type>1</type></trkpt>
      <trkpt lat="40.56021143" lon="-5.15499705"><ele>2726</ele><speed>18.62</speed><time>2016-06-29T11:55:09Z</time><pdop>3.0</pdop><geoidheight>54.00</geoidheight><course>51.0</course><type>1</type></trkpt>
      <trkpt lat="40.56031477" lon="-5.1548386"><ele>2726</ele><speed>18.05</speed><time>2016-06-29T11:55:10Z</time><pdop>3.0</pdop><geoidheight>54.00</geoidheight><course>51.7</course><type>1</type></trkpt>
      <trkpt lat="40.56041406" lon="-5.15467889"><ele>2725</ele><speed>17.44</speed><time>2016-06-29T11:55:11Z</time><pdop>3.0</pdop><geoidheight>54.00</geoidheight><course>51.4</course><type>1</type></trkpt>
      <trkpt lat="40.56051365" lon="-5.15452164"><ele>2725</ele><speed>17.57</speed><time>2016-06-29T11:55:12Z</time><pdop>3.0</pdop><geoidheight>54.00</geoidheight><course>49.8</course><type>1</type></trkpt>
      <trkpt lat="40.5606227" lon="-5.15436004"><ele>2723</ele><speed>17.89</speed><time>2016-06-29T11:55:13Z</time><pdop>3.0</pdop><geoidheight>54.00</geoidheight><course>47.8</course><type>1</type></trkpt>
      <trkpt lat="40.56072945" lon="-5.15420076"><ele>2722</ele><speed>18.59</speed><time>2016-06-29T11:55:14Z</time><pdop>3.0</pdop><geoidheight>54.00</geoidheight><course>45.5</course><type>1</type></trkpt>
      <trkpt lat="40.56085696" lon="-5.1540513"><ele>2721</ele><speed>19.20</speed><time>2016-06-29T11:55:15Z</time><pdop>3.0</pdop><geoidheight>54.00</geoidheight><course>42.2</course><type>1</type></trkpt>
      <trkpt lat="40.56098954" lon="-5.15389311"><ele>2719</ele><speed>19.98</speed><time>2016-06-29T11:55:16Z</time><pdop>3.0</pdop><geoidheight>54.00</geoidheight><course>41.0</course><type>1</type></trkpt>
      <trkpt lat="40.56113649" lon="-5.15373492"><ele>2718</ele><speed>20.72</speed><time>2016-06-29T11:55:17Z</time><pdop>3.0</pdop><geoidheight>54.00</geoidheight><course>41.2</course><type>1</type></trkpt>
      <trkpt lat="40.56127732" lon="-5.15357572"><ele>2717</ele><speed>21.27</speed><time>2016-06-29T11:55:18Z</time><pdop>3.0</pdop><geoidheight>54.00</geoidheight><course>42.6</course><type>1</type></trkpt>
      <trkpt lat="40.56141021" lon="-5.15339334"><ele>2717</ele><speed>21.06</speed><time>2016-06-29T11:55:19Z</time><pdop>3.0</pdop><geoidheight>54.00</geoidheight><course>44.4</course><type>1</type></trkpt>
      <trkpt lat="40.56153528" lon="-5.15321537"><ele>2716</ele><speed>20.46</speed><time>2016-06-29T11:55:20Z</time><pdop>3.0</pdop><geoidheight>54.00</geoidheight><course>45.6</course><type>1</type></trkpt>
      <trkpt lat="40.56165958" lon="-5.15303684"><ele>2715</ele><speed>20.07</speed><time>2016-06-29T11:55:21Z</time><pdop>3.0</pdop><geoidheight>54.00</geoidheight><course>46.5</course><type>1</type></trkpt>
      <trkpt lat="40.56178262" lon="-5.15286262"><ele>2617</ele><speed>20.15</speed><time>2016-06-29T11:55:22Z</time><pdop>3.0</pdop><geoidheight>54.00</geoidheight><course>46.6</course><type>1</type></trkpt>
      <trkpt lat="40.5619188" lon="-5.15269532"><ele>2653</ele><speed>20.45</speed><time>2016-06-29T11:55:23Z</time><pdop>3.0</pdop><geoidheight>54.00</geoidheight><course>46.0</course><type>1</type></trkpt>
      <trkpt lat="40.56205024" lon="-5.15251781"><ele>2670</ele><speed>20.76</speed><time>2016-06-29T11:55:24Z</time><pdop>3.0</pdop><geoidheight>54.00</geoidheight><course>43.8</course><type>1</type></trkpt>
      <trkpt lat="40.5621939" lon="-5.1523472"><ele>2681</ele><speed>21.18</speed><time>2016-06-29T11:55:25Z</time><pdop>3.0</pdop><geoidheight>54.00</geoidheight><course>41.7</course><type>1</type></trkpt>
      <trkpt lat="40.56234005" lon="-5.15218438"><ele>2690</ele><speed>21.29</speed><time>2016-06-29T11:55:26Z</time><pdop>3.0</pdop><geoidheight>54.00</geoidheight><course>41.6</course><type>1</type></trkpt>
      <trkpt lat="40.56247403" lon="-5.1520083"><ele>2698</ele><speed>21.00</speed><time>2016-06-29T11:55:27Z</time><pdop>3.0</pdop><geoidheight>54.00</geoidheight><course>44.7</course><type>1</type></trkpt>
      <trkpt lat="40.56259436" lon="-5.15183204"><ele>2700</ele><speed>19.88</speed><time>2016-06-29T11:55:28Z</time><pdop>3.0</pdop><geoidheight>54.00</geoidheight><course>45.9</course><type>1</type></trkpt>
      <trkpt lat="40.56271418" lon="-5.15168354"><ele>2702</ele><speed>18.82</speed><time>2016-06-29T11:55:29Z</time><pdop>3.0</pdop><geoidheight>54.00</geoidheight><course>45.7</course><type>1</type></trkpt>
      <trkpt lat="40.56282698" lon="-5.15152201"><ele>2702</ele><speed>19.06</speed><time>2016-06-29T11:55:30Z</time><pdop>3.0</pdop><geoidheight>54.00</geoidheight><course>45.7</course><type>1</type></trkpt>
      <trkpt lat="40.56294569" lon="-5.15135333"><ele>2700</ele><speed>19.40</speed><time>2016-06-29T11:55:31Z</time><pdop>3.0</pdop><geoidheight>54.00</geoidheight><course>47.0</course><type>1</type></trkpt>
      <trkpt lat="40.56306885" lon="-5.15116975"><ele>2699</ele><speed>20.57</speed><time>2016-06-29T11:55:32Z</time><pdop>3.0</pdop><geoidheight>54.00</geoidheight><course>49.2</course><type>1</type></trkpt>
      <trkpt lat="40.56318811" lon="-5.15098467"><ele>2699</ele><speed>20.19</speed><time>2016-06-29T11:55:33Z</time><pdop>3.0</pdop><geoidheight>54.00</geoidheight><course>50.3</course><type>1</type></trkpt>
      <trkpt lat="40.56328918" lon="-5.15081538"><ele>2700</ele><speed>18.70</speed><time>2016-06-29T11:55:34Z</time><pdop>3.0</pdop><geoidheight>54.00</geoidheight><course>52.8</course><type>1</type></trkpt>
      <trkpt lat="40.56337106" lon="-5.15065413"><ele>2700</ele><speed>17.07</speed><time>2016-06-29T11:55:35Z</time><pdop>3.0</pdop><geoidheight>54.00</geoidheight><course>55.8</course><type>1</type></trkpt>
      <trkpt lat="40.56345207" lon="-5.15048662"><ele>2700</ele><speed>16.77</speed><time>2016-06-29T11:55:36Z</time><pdop>3.0</pdop><geoidheight>54.00</geoidheight><course>58.2</course><type>1</type></trkpt>
      <trkpt lat="40.56352839" lon="-5.15033695"><ele>2697</ele><speed>16.08</speed><time>2016-06-29T11:55:37Z</time><pdop>3.0</pdop><geoidheight>54.00</geoidheight><course>57.8</course><type>1</type></trkpt>
      <trkpt lat="40.5636165" lon="-5.15017048"><ele>2695</ele><speed>16.92</speed><time>2016-06-29T11:55:38Z</time><pdop>3.0</pdop><geoidheight>54.00</geoidheight><course>55.1</course><type>1</type></trkpt>
      <trkpt lat="40.56372334" lon="-5.14999707"><ele>2691</ele><speed>18.46</speed><time>2016-06-29T11:55:39Z</time><pdop>3.0</pdop><geoidheight>54.00</geoidheight><course>52.9</course><type>1</type></trkpt>
      <trkpt lat="40.56381587" lon="-5.14981374"><ele>2689</ele><speed>19.13</speed><time>2016-06-29T11:55:40Z</time><pdop>3.0</pdop><geoidheight>54.00</geoidheight><course>53.9</course><type>1</type></trkpt>
      <trkpt lat="40.5639023" lon="-5.14963168"><ele>2688</ele><speed>18.80</speed><time>2016-06-29T11:55:41Z</time><pdop>3.0</pdop><geoidheight>54.00</geoidheight><course>55.6</course><type>1</type></trkpt>
      <trkpt lat="40.56399487" lon="-5.14944878"><ele>2688</ele><speed>18.63</speed><time>2016-06-29T11:55:42Z</time><pdop>3.0</pdop><geoidheight>54.00</geoidheight><course>57.0</course><type>1</type></trkpt>
      <trkpt lat="40.56407919" lon="-5.14928852"><ele>2687</ele><speed>18.03</speed><time>2016-06-29T11:55:43Z</time><pdop>3.0</pdop><geoidheight>54.00</geoidheight><course>57.2</course><type>1</type></trkpt>
      <trkpt lat="40.56417881" lon="-5.14911397"><ele>2686</ele><speed>17.85</speed><time>2016-06-29T11:55:44Z</time><pdop>3.0</pdop><geoidheight>54.00</geoidheight><course>55.0</course><type>1</type></trkpt>
      <trkpt lat="40.56427922" lon="-5.14897236"><ele>2686</ele><speed>17.01</speed><time>2016-06-29T11:55:45Z</time><pdop>3.0</pdop><geoidheight>54.00</geoidheight><course>49.7</course><type>1</type></trkpt>
      <trkpt lat="40.56438349" lon="-5.1488334"><ele>2686</ele><speed>16.44</speed><time>2016-06-29T11:55:46Z</time><pdop>3.0</pdop><geoidheight>54.00</geoidheight><course>44.7</course><type>1</type></trkpt>
      <trkpt lat="40.56448711" lon="-5.14870357"><ele>2686</ele><speed>16.02</speed><time>2016-06-29T11:55:47Z</time><pdop>3.0</pdop><geoidheight>54.00</geoidheight><course>44.9</course><type>1</type></trkpt>
      <trkpt lat="40.56458948" lon="-5.14856357"><ele>2687</ele><speed>15.97</speed><time>2016-06-29T11:55:48Z</time><pdop>3.0</pdop><geoidheight>54.00</geoidheight><course>46.1</course><type>1</type></trkpt>
      <trkpt lat="40.56468779" lon="-5.1484218"><ele>2687</ele><speed>15.98</speed><time>2016-06-29T11:55:49Z</time><pdop>3.0</pdop><geoidheight>54.00</geoidheight><course>46.5</course><type>1</type></trkpt>
      <trkpt lat="40.56477913" lon="-5.14827463"><ele>2687</ele><speed>15.95</speed><time>2016-06-29T11:55:50Z</time><pdop>3.0</pdop><geoidheight>54.00</geoidheight><course>48.1</course><type>1</type></trkpt>
      <trkpt lat="40.5648813" lon="-5.14812902"><ele>2688</ele><speed>16.09</speed><time>2016-06-29T11:55:51Z</time><pdop>3.0</pdop><geoidheight>54.00</geoidheight><course>48.7</course><type>1</type></trkpt>
      <trkpt lat="40.56497082" lon="-5.14798329"><ele>2688</ele><speed>16.54</speed><time>2016-06-29T11:55:52Z</time><pdop>3.0</pdop><geoidheight>54.00</geoidheight><course>49.7</course><type>1</type></trkpt>
      <trkpt lat="40.56505346" lon="-5.1478252"><ele>2687</ele><speed>16.40</speed><time>2016-06-29T11:55:53Z</time><pdop>3.0</pdop><geoidheight>54.00</geoidheight><course>51.1</course><type>1</type></trkpt>
      <trkpt lat="40.56513945" lon="-5.14767515"><ele>2688</ele><speed>15.77</speed><time>2016-06-29T11:55:54Z</time><pdop>3.0</pdop><geoidheight>54.00</geoidheight><course>53.3</course><type>1</type></trkpt>
      <trkpt lat="40.56521232" lon="-5.14753805"><ele>2687</ele><speed>14.78</speed><time>2016-06-29T11:55:55Z</time><pdop>9.0</pdop><geoidheight>54.00</geoidheight><course>56.6</course><type>1</type></trkpt>
      <trkpt lat="40.56536651" lon="-5.14720367"><ele>2685</ele><speed>16.89</speed><time>2016-06-29T11:55:57Z</time><pdop>9.0</pdop><geoidheight>54.00</geoidheight><course>58.6</course><type>1</type></trkpt>
      <trkpt lat="40.56543675" lon="-5.14700059"><ele>2683</ele><speed>18.56</speed><time>2016-06-29T11:55:58Z</time><pdop>9.0</pdop><geoidheight>54.00</geoidheight><course>63.3</course><type>1</type></trkpt>
      <trkpt lat="40.56550309" lon="-5.14679565"><ele>2681</ele><speed>19.12</speed><time>2016-06-29T11:55:59Z</time><pdop>9.0</pdop><geoidheight>54.00</geoidheight><course>66.4</course><type>1</type></trkpt>
      <trkpt lat="40.56557403" lon="-5.14658096"><ele>2681</ele><speed>19.93</speed><time>2016-06-29T11:56:00Z</time><pdop>9.0</pdop><geoidheight>54.00</geoidheight><course>68.3</course><type>1</type></trkpt>
      <trkpt lat="40.56562616" lon="-5.14635894"><ele>2681</ele><speed>19.81</speed><time>2016-06-29T11:56:01Z</time><pdop>9.0</pdop><geoidheight>54.00</geoidheight><course>70.1</course><type>1</type></trkpt>
      <trkpt lat="40.56567785" lon="-5.14613891"><ele>2681</ele><speed>19.37</speed><time>2016-06-29T11:56:02Z</time><pdop>9.0</pdop><geoidheight>54.00</geoidheight><course>72.5</course><type>1</type></trkpt>
      <trkpt lat="40.56572045" lon="-5.14591211"><ele>2682</ele><speed>18.83</speed><time>2016-06-29T11:56:03Z</time><pdop>9.0</pdop><geoidheight>54.00</geoidheight><course>75.4</course><type>1</type></trkpt>
      <trkpt lat="40.56574833" lon="-5.1457044"><ele>2682</ele><speed>18.33</speed><time>2016-06-29T11:56:04Z</time><pdop>3.0</pdop><geoidheight>54.00</geoidheight><course>78.7</course><type>1</type></trkpt>
      <trkpt lat="40.56577462" lon="-5.14549529"><ele>2681</ele><speed>18.02</speed><time>2016-06-29T11:56:05Z</time><pdop>3.0</pdop><geoidheight>54.00</geoidheight><course>78.2</course><type>1</type></trkpt>
      <trkpt lat="40.56580693" lon="-5.14530261"><ele>2680</ele><speed>17.10</speed><time>2016-06-29T11:56:06Z</time><pdop>3.0</pdop><geoidheight>54.00</geoidheight><course>76.0</course><type>1</type></trkpt>
      <trkpt lat="40.56584729" lon="-5.1451272"><ele>2679</ele><speed>15.56</speed><time>2016-06-29T11:56:07Z</time><pdop>3.0</pdop><geoidheight>54.00</geoidheight><course>73.5</course><type>1</type></trkpt>
      <trkpt lat="40.56589387" lon="-5.14496162"><ele>2677</ele><speed>14.60</speed><time>2016-06-29T11:56:08Z</time><pdop>3.0</pdop><geoidheight>54.00</geoidheight><course>70.8</course><type>1</type></trkpt>
      <trkpt lat="40.56594386" lon="-5.14481207"><ele>2675</ele><speed>14.21</speed><time>2016-06-29T11:56:09Z</time><pdop>3.0</pdop><geoidheight>54.00</geoidheight><course>68.3</course><type>1</type></trkpt>
      <trkpt lat="40.56600718" lon="-5.14464765"><ele>2672</ele><speed>15.45</speed><time>2016-06-29T11:56:10Z</time><pdop>3.0</pdop><geoidheight>54.00</geoidheight><course>64.9</course><type>1</type></trkpt>
      <trkpt lat="40.56607125" lon="-5.14448106"><ele>2670</ele><speed>16.44</speed><time>2016-06-29T11:56:11Z</time><pdop>3.0</pdop><geoidheight>54.00</geoidheight><course>64.7</course><type>1</type></trkpt>
      <trkpt lat="40.56617734" lon="-5.14428891"><ele>2664</ele><speed>19.65</speed><time>2016-06-29T11:56:12Z</time><pdop>3.0</pdop><geoidheight>54.00</geoidheight><course>56.2</course><type>1</type></trkpt>
      <trkpt lat="40.56626797" lon="-5.14409519"><ele>2661</ele><speed>19.77</speed><time>2016-06-29T11:56:13Z</time><pdop>3.0</pdop><geoidheight>54.00</geoidheight><course>56.1</course><type>1</type></trkpt>
      <trkpt lat="40.56636574" lon="-5.14388799"><ele>2660</ele><speed>20.05</speed><time>2016-06-29T11:56:14Z</time><pdop>3.0</pdop><geoidheight>54.00</geoidheight><course>57.6</course><type>1</type></trkpt>
      <trkpt lat="40.56646749" lon="-5.14369715"><ele>2658</ele><speed>19.77</speed><time>2016-06-29T11:56:15Z</time><pdop>3.0</pdop><geoidheight>54.00</geoidheight><course>56.9</course><type>1</type></trkpt>
      <trkpt lat="40.56657232" lon="-5.14350572"><ele>2658</ele><speed>19.46</speed><time>2016-06-29T11:56:16Z</time><pdop>3.0</pdop><geoidheight>54.00</geoidheight><course>54.8</course><type>1</type></trkpt>
      <trkpt lat="40.56667539" lon="-5.14334275"><ele>2656</ele><speed>18.27</speed><time>2016-06-29T11:56:17Z</time><pdop>3.0</pdop><geoidheight>54.00</geoidheight><course>51.6</course><type>1</type></trkpt>
      <trkpt lat="40.56678902" lon="-5.14318704"><ele>2654</ele><speed>18.24</speed><time>2016-06-29T11:56:18Z</time><pdop>3.0</pdop><geoidheight>54.00</geoidheight><course>48.0</course><type>1</type></trkpt>
      <trkpt lat="40.56690732" lon="-5.14303655"><ele>2650</ele><speed>18.71</speed><time>2016-06-29T11:56:19Z</time><pdop>3.0</pdop><geoidheight>54.00</geoidheight><course>43.6</course><type>1</type></trkpt>
      <trkpt lat="40.56703976" lon="-5.14287543"><ele>2647</ele><speed>19.87</speed><time>2016-06-29T11:56:20Z</time><pdop>3.0</pdop><geoidheight>54.00</geoidheight><course>42.1</course><type>1</type></trkpt>
      <trkpt lat="40.56720299" lon="-5.14272271"><ele>2646</ele><speed>21.73</speed><time>2016-06-29T11:56:21Z</time><pdop>3.0</pdop><geoidheight>54.00</geoidheight><course>38.6</course><type>1</type></trkpt>
      <trkpt lat="40.56735543" lon="-5.14257371"><ele>2645</ele><speed>21.67</speed><time>2016-06-29T11:56:22Z</time><pdop>3.0</pdop><geoidheight>54.00</geoidheight><course>37.8</course><type>1</type></trkpt>
      <trkpt lat="40.56749126" lon="-5.14242435"><ele>2645</ele><speed>20.48</speed><time>2016-06-29T11:56:23Z</time><pdop>3.0</pdop><geoidheight>54.00</geoidheight><course>40.4</course><type>1</type></trkpt>
      <trkpt lat="40.56761331" lon="-5.14226715"><ele>2646</ele><speed>19.49</speed><time>2016-06-29T11:56:24Z</time><pdop>3.0</pdop><geoidheight>54.00</geoidheight><course>44.5</course><type>1</type></trkpt>
      <trkpt lat="40.56772527" lon="-5.14209955"><ele>2646</ele><speed>18.87</speed><time>2016-06-29T11:56:25Z</time><pdop>3.0</pdop><geoidheight>54.00</geoidheight><course>46.6</course><type>1</type></trkpt>
      <trkpt lat="40.56782737" lon="-5.14194014"><ele>2646</ele><speed>18.08</speed><time>2016-06-29T11:56:26Z</time><pdop>3.0</pdop><geoidheight>54.00</geoidheight><course>49.0</course><type>1</type></trkpt>
      <trkpt lat="40.56793195" lon="-5.14177495"><ele>2646</ele><speed>17.90</speed><time>2016-06-29T11:56:27Z</time><pdop>3.0</pdop><geoidheight>54.00</geoidheight><course>49.5</course><type>1</type></trkpt>
      <trkpt lat="40.5680353" lon="-5.14161308"><ele>2646</ele><speed>17.71</speed><time>2016-06-29T11:56:28Z</time><pdop>3.0</pdop><geoidheight>54.00</geoidheight><course>50.5</course><type>1</type></trkpt>
      <trkpt lat="40.56813728" lon="-5.1414472"><ele>2646</ele><speed>18.01</speed><time>2016-06-29T11:56:29Z</time><pdop>3.0</pdop><geoidheight>54.00</geoidheight><course>51.0</course><type>1</type></trkpt>
      <trkpt lat="40.56823909" lon="-5.14128685"><ele>2646</ele><speed>18.22</speed><time>2016-06-29T11:56:30Z</time><pdop>3.0</pdop><geoidheight>54.00</geoidheight><course>51.6</course><type>1</type></trkpt>
      <trkpt lat="40.56834107" lon="-5.1411276"><ele>2646</ele><speed>17.78</speed><time>2016-06-29T11:56:31Z</time><pdop>3.0</pdop><geoidheight>54.00</geoidheight><course>51.6</course><type>1</type></trkpt>
      <trkpt lat="40.56842544" lon="-5.14095297"><ele>2647</ele><speed>17.43</speed><time>2016-06-29T11:56:32Z</time><pdop>3.0</pdop><geoidheight>54.00</geoidheight><course>53.5</course><type>1</type></trkpt>
      <trkpt lat="40.56851625" lon="-5.14078848"><ele>2648</ele><speed>17.23</speed><time>2016-06-29T11:56:33Z</time><pdop>3.0</pdop><geoidheight>54.00</geoidheight><course>53.9</course><type>1</type></trkpt>
      <trkpt lat="40.56860077" lon="-5.14062716"><ele>2648</ele><speed>16.82</speed><time>2016-06-29T11:56:34Z</time><pdop>3.0</pdop><geoidheight>54.00</geoidheight><course>54.4</course><type>1</type></trkpt>
      <trkpt lat="40.56867951" lon="-5.14046905"><ele>2647</ele><speed>16.52</speed><time>2016-06-29T11:56:35Z</time><pdop>3.0</pdop><geoidheight>54.00</geoidheight><course>55.4</course><type>1</type></trkpt>
      <trkpt lat="40.56876438" lon="-5.14031172"><ele>2647</ele><speed>16.70</speed><time>2016-06-29T11:56:36Z</time><pdop>3.0</pdop><geoidheight>54.00</geoidheight><course>57.0</course><type>1</type></trkpt>
      <trkpt lat="40.56884064" lon="-5.14012037"><ele>2647</ele><speed>17.44</speed><time>2016-06-29T11:56:37Z</time><pdop>3.0</pdop><geoidheight>54.00</geoidheight><course>58.8</course><type>1</type></trkpt>
      <trkpt lat="40.56892229" lon="-5.13993677"><ele>2648</ele><speed>17.84</speed><time>2016-06-29T11:56:38Z</time><pdop>3.0</pdop><geoidheight>54.00</geoidheight><course>59.7</course><type>1</type></trkpt>
      <trkpt lat="40.56899071" lon="-5.13974065"><ele>2648</ele><speed>17.85</speed><time>2016-06-29T11:56:39Z</time><pdop>3.0</pdop><geoidheight>54.00</geoidheight><course>62.6</course><type>1</type></trkpt>
      <trkpt lat="40.56905828" lon="-5.13954843"><ele>2647</ele><speed>18.10</speed><time>2016-06-29T11:56:40Z</time><pdop>3.0</pdop><geoidheight>54.00</geoidheight><course>66.2</course><type>1</type></trkpt>
      <trkpt lat="40.56912516" lon="-5.13935279"><ele>2647</ele><speed>18.58</speed><time>2016-06-29T11:56:41Z</time><pdop>3.0</pdop><geoidheight>54.00</geoidheight><course>67.7</course><type>1</type></trkpt>
      <trkpt lat="40.56918892" lon="-5.13915619"><ele>2645</ele><speed>19.05</speed><time>2016-06-29T11:56:42Z</time><pdop>3.0</pdop><geoidheight>54.00</geoidheight><course>67.9</course><type>1</type></trkpt>
      <trkpt lat="40.56925094" lon="-5.13893149"><ele>2644</ele><speed>19.90</speed><time>2016-06-29T11:56:43Z</time><pdop>3.0</pdop><geoidheight>54.00</geoidheight><course>68.2</course><type>1</type></trkpt>
      <trkpt lat="40.56931875" lon="-5.13870033"><ele>2643</ele><speed>20.70</speed><time>2016-06-29T11:56:44Z</time><pdop>3.0</pdop><geoidheight>54.00</geoidheight><course>68.9</course><type>1</type></trkpt>
      <trkpt lat="40.56938564" lon="-5.1384609"><ele>2643</ele><speed>21.31</speed><time>2016-06-29T11:56:45Z</time><pdop>3.0</pdop><geoidheight>54.00</geoidheight><course>69.5</course><type>1</type></trkpt>
      <trkpt lat="40.56945353" lon="-5.13822897"><ele>2643</ele><speed>21.04</speed><time>2016-06-29T11:56:46Z</time><pdop>3.0</pdop><geoidheight>54.00</geoidheight><course>69.4</course><type>1</type></trkpt>
      <trkpt lat="40.56952222" lon="-5.13800121"><ele>2642</ele><speed>20.67</speed><time>2016-06-29T11:56:47Z</time><pdop>3.0</pdop><geoidheight>54.00</geoidheight><course>68.4</course><type>1</type></trkpt>
      <trkpt lat="40.56959991" lon="-5.13777568"><ele>2640</ele><speed>20.91</speed><time>2016-06-29T11:56:48Z</time><pdop>3.0</pdop><geoidheight>54.00</geoidheight><course>66.6</course><type>1</type></trkpt>
      <trkpt lat="40.56967765" lon="-5.1375597"><ele>2638</ele><speed>20.49</speed><time>2016-06-29T11:56:49Z</time><pdop>3.0</pdop><geoidheight>54.00</geoidheight><course>65.1</course><type>1</type></trkpt>
      <trkpt lat="40.56975529" lon="-5.13735204"><ele>2637</ele><speed>20.21</speed><time>2016-06-29T11:56:50Z</time><pdop>3.0</pdop><geoidheight>54.00</geoidheight><course>64.5</course><type>1</type></trkpt>
      <trkpt lat="40.56983554" lon="-5.13713231"><ele>2634</ele><speed>20.49</speed><time>2016-06-29T11:56:51Z</time><pdop>3.0</pdop><geoidheight>54.00</geoidheight><course>63.8</course><type>1</type></trkpt>
      <trkpt lat="40.56992434" lon="-5.13691397"><ele>2631</ele><speed>21.25</speed><time>2016-06-29T11:56:52Z</time><pdop>3.0</pdop><geoidheight>54.00</geoidheight><course>62.7</course><type>1</type></trkpt>
      <trkpt lat="40.57001619" lon="-5.13668457"><ele>2629</ele><speed>22.11</speed><time>2016-06-29T11:56:53Z</time><pdop>3.0</pdop><geoidheight>54.00</geoidheight><course>62.6</course><type>1</type></trkpt>
      <trkpt lat="40.57010364" lon="-5.13644981"><ele>2628</ele><speed>22.36</speed><time>2016-06-29T11:56:54Z</time><pdop>3.0</pdop><geoidheight>54.00</geoidheight><course>63.8</course><type>1</type></trkpt>
      <trkpt lat="40.57018445" lon="-5.13623107"><ele>2626</ele><speed>21.42</speed><time>2016-06-29T11:56:55Z</time><pdop>3.0</pdop><geoidheight>54.00</geoidheight><course>64.8</course><type>1</type></trkpt>
      <trkpt lat="40.57026028" lon="-5.13601673"><ele>2625</ele><speed>20.11</speed><time>2016-06-29T11:56:56Z</time><pdop>3.0</pdop><geoidheight>54.00</geoidheight><course>64.9</course><type>1</type></trkpt>
      <trkpt lat="40.57033559" lon="-5.13580297"><ele>2625</ele><speed>19.70</speed><time>2016-06-29T11:56:57Z</time><pdop>3.0</pdop><geoidheight>54.00</geoidheight><course>64.8</course><type>1</type></trkpt>
      <trkpt lat="40.57040435" lon="-5.13559481"><ele>2620</ele><speed>19.81</speed><time>2016-06-29T11:56:58Z</time><pdop>3.0</pdop><geoidheight>54.00</geoidheight><course>66.5</course><type>1</type></trkpt>
      <trkpt lat="40.57047793" lon="-5.13537108"><ele>2618</ele><speed>20.47</speed><time>2016-06-29T11:56:59Z</time><pdop>3.0</pdop><geoidheight>54.00</geoidheight><course>66.3</course><type>1</type></trkpt>
      <trkpt lat="40.57055549" lon="-5.13515152"><ele>2617</ele><speed>20.79</speed><time>2016-06-29T11:57:00Z</time><pdop>3.0</pdop><geoidheight>54.00</geoidheight><course>64.8</course><type>1</type></trkpt>
      <trkpt lat="40.57063815" lon="-5.13494226"><ele>2615</ele><speed>20.43</speed><time>2016-06-29T11:57:01Z</time><pdop>3.0</pdop><geoidheight>54.00</geoidheight><course>63.2</course><type>1</type></trkpt>
      <trkpt lat="40.570722" lon="-5.13472666"><ele>2612</ele><speed>20.48</speed><time>2016-06-29T11:57:02Z</time><pdop>3.0</pdop><geoidheight>54.00</geoidheight><course>62.9</course><type>1</type></trkpt>
      <trkpt lat="40.57079772" lon="-5.13450748"><ele>2611</ele><speed>20.72</speed><time>2016-06-29T11:57:03Z</time><pdop>3.0</pdop><geoidheight>54.00</geoidheight><course>63.8</course><type>1</type></trkpt>
      <trkpt lat="40.57088385" lon="-5.13429017"><ele>2611</ele><speed>20.59</speed><time>2016-06-29T11:57:04Z</time><pdop>3.0</pdop><geoidheight>54.00</geoidheight><course>63.7</course><type>1</type></trkpt>
      <trkpt lat="40.57094986" lon="-5.1340847"><ele>2611</ele><speed>19.56</speed><time>2016-06-29T11:57:05Z</time><pdop>3.0</pdop><geoidheight>54.00</geoidheight><course>64.4</course><type>1</type></trkpt>
      <trkpt lat="40.57102294" lon="-5.13390023"><ele>2610</ele><speed>18.47</speed><time>2016-06-29T11:57:06Z</time><pdop>3.0</pdop><geoidheight>54.00</geoidheight><course>64.4</course><type>1</type></trkpt>
      <trkpt lat="40.57109129" lon="-5.13370746"><ele>2610</ele><speed>18.19</speed><time>2016-06-29T11:57:07Z</time><pdop>3.0</pdop><geoidheight>54.00</geoidheight><course>64.5</course><type>1</type></trkpt>
      <trkpt lat="40.57116728" lon="-5.13350222"><ele>2608</ele><speed>18.96</speed><time>2016-06-29T11:57:08Z</time><pdop>3.0</pdop><geoidheight>54.00</geoidheight><course>63.8</course><type>1</type></trkpt>
      <trkpt lat="40.57124562" lon="-5.13328152"><ele>2607</ele><speed>20.24</speed><time>2016-06-29T11:57:09Z</time><pdop>3.0</pdop><geoidheight>54.00</geoidheight><course>64.1</course><type>1</type></trkpt>
      <trkpt lat="40.57132482" lon="-5.13307204"><ele>2607</ele><speed>20.32</speed><time>2016-06-29T11:57:10Z</time><pdop>3.0</pdop><geoidheight>54.00</geoidheight><course>64.2</course><type>1</type></trkpt>
      <trkpt lat="40.57137812" lon="-5.13283074"><ele>2604</ele><speed>21.89</speed><time>2016-06-29T11:57:11Z</time><pdop>3.0</pdop><geoidheight>54.00</geoidheight><course>69.1</course><type>1</type></trkpt>
      <trkpt lat="40.57144963" lon="-5.1325996"><ele>2602</ele><speed>21.85</speed><time>2016-06-29T11:57:12Z</time><pdop>3.0</pdop><geoidheight>54.00</geoidheight><course>69.0</course><type>1</type></trkpt>
      <trkpt lat="40.57152637" lon="-5.13236812"><ele>2600</ele><speed>21.40</speed><time>2016-06-29T11:57:13Z</time><pdop>3.0</pdop><geoidheight>54.00</geoidheight><course>67.5</course><type>1</type></trkpt>
      <trkpt lat="40.57160694" lon="-5.1321411"><ele>2596</ele><speed>21.87</speed><time>2016-06-29T11:57:14Z</time><pdop>3.0</pdop><geoidheight>54.00</geoidheight><course>65.9</course><type>1</type></trkpt>
      <trkpt lat="40.57168746" lon="-5.13190667"><ele>2595</ele><speed>21.81</speed><time>2016-06-29T11:57:15Z</time><pdop>3.0</pdop><geoidheight>54.00</geoidheight><course>65.6</course><type>1</type></trkpt>
      <trkpt lat="40.57178955" lon="-5.13164161"><ele>2593</ele><speed>23.44</speed><time>2016-06-29T11:57:16Z</time><pdop>4.0</pdop><geoidheight>54.00</geoidheight><course>64.8</course><type>1</type></trkpt>
      <trkpt lat="40.57189534" lon="-5.13137935"><ele>2592</ele><speed>24.36</speed><time>2016-06-29T11:57:17Z</time><pdop>5.0</pdop><geoidheight>54.00</geoidheight><course>64.0</course><type>1</type></trkpt>
      <trkpt lat="40.57197933" lon="-5.1311145"><ele>2590</ele><speed>24.53</speed><time>2016-06-29T11:57:18Z</time><pdop>5.0</pdop><geoidheight>54.00</geoidheight><course>65.1</course><type>1</type></trkpt>
      <trkpt lat="40.57205736" lon="-5.13089589"><ele>2587</ele><speed>23.73</speed><time>2016-06-29T11:57:19Z</time><pdop>6.0</pdop><geoidheight>54.00</geoidheight><course>65.6</course><type>1</type></trkpt>
      <trkpt lat="40.57210501" lon="-5.13063908"><ele>2582</ele><speed>23.22</speed><time>2016-06-29T11:57:20Z</time><pdop>4.0</pdop><geoidheight>54.00</geoidheight><course>69.4</course><type>1</type></trkpt>
      <trkpt lat="40.57217837" lon="-5.13039323"><ele>2576</ele><speed>23.02</speed><time>2016-06-29T11:57:21Z</time><pdop>4.0</pdop><geoidheight>54.00</geoidheight><course>68.8</course><type>1</type></trkpt>
      <trkpt lat="40.57226326" lon="-5.1301529"><ele>2571</ele><speed>22.94</speed><time>2016-06-29T11:57:22Z</time><pdop>4.0</pdop><geoidheight>54.00</geoidheight><course>67.9</course><type>1</type></trkpt>
      <trkpt lat="40.57234767" lon="-5.12990267"><ele>2566</ele><speed>23.06</speed><time>2016-06-29T11:57:23Z</time><pdop>4.0</pdop><geoidheight>54.00</geoidheight><course>67.3</course><type>1</type></trkpt>
      <trkpt lat="40.57242339" lon="-5.1296634"><ele>2560</ele><speed>23.16</speed><time>2016-06-29T11:57:24Z</time><pdop>4.0</pdop><geoidheight>54.00</geoidheight><course>67.6</course><type>1</type></trkpt>
      <trkpt lat="40.57250053" lon="-5.12940173"><ele>2556</ele><speed>23.50</speed><time>2016-06-29T11:57:25Z</time><pdop>4.0</pdop><geoidheight>54.00</geoidheight><course>67.4</course><type>1</type></trkpt>
      <trkpt lat="40.57258098" lon="-5.12915705"><ele>2550</ele><speed>23.69</speed><time>2016-06-29T11:57:26Z</time><pdop>4.0</pdop><geoidheight>54.00</geoidheight><course>66.3</course><type>1</type></trkpt>
      <trkpt lat="40.57266873" lon="-5.12890926"><ele>2546</ele><speed>23.57</speed><time>2016-06-29T11:57:27Z</time><pdop>4.0</pdop><geoidheight>54.00</geoidheight><course>65.3</course><type>1</type></trkpt>
      <trkpt lat="40.57275012" lon="-5.1286647"><ele>2544</ele><speed>23.49</speed><time>2016-06-29T11:57:28Z</time><pdop>4.0</pdop><geoidheight>54.00</geoidheight><course>65.3</course><type>1</type></trkpt>
      <trkpt lat="40.57283627" lon="-5.12840229"><ele>2542</ele><speed>23.46</speed><time>2016-06-29T11:57:29Z</time><pdop>4.0</pdop><geoidheight>54.00</geoidheight><course>65.9</course><type>1</type></trkpt>
      <trkpt lat="40.57291874" lon="-5.12816156"><ele>2539</ele><speed>22.86</speed><time>2016-06-29T11:57:30Z</time><pdop>3.0</pdop><geoidheight>54.00</geoidheight><course>65.1</course><type>1</type></trkpt>
      <trkpt lat="40.57300674" lon="-5.12793949"><ele>2535</ele><speed>22.28</speed><time>2016-06-29T11:57:31Z</time><pdop>3.0</pdop><geoidheight>54.00</geoidheight><course>62.7</course><type>1</type></trkpt>
      <trkpt lat="40.57310206" lon="-5.12771398"><ele>2531</ele><speed>21.93</speed><time>2016-06-29T11:57:32Z</time><pdop>3.0</pdop><geoidheight>54.00</geoidheight><course>60.1</course><type>1</type></trkpt>
      <trkpt lat="40.5731981" lon="-5.12748372"><ele>2528</ele><speed>22.18</speed><time>2016-06-29T11:57:33Z</time><pdop>3.0</pdop><geoidheight>54.00</geoidheight><course>59.8</course><type>1</type></trkpt>
      <trkpt lat="40.57329566" lon="-5.12724364"><ele>2526</ele><speed>22.62</speed><time>2016-06-29T11:57:34Z</time><pdop>3.0</pdop><geoidheight>54.00</geoidheight><course>61.4</course><type>1</type></trkpt>
      <trkpt lat="40.57338152" lon="-5.1270116"><ele>2523</ele><speed>22.58</speed><time>2016-06-29T11:57:35Z</time><pdop>3.0</pdop><geoidheight>54.00</geoidheight><course>62.5</course><type>1</type></trkpt>
      <trkpt lat="40.57345813" lon="-5.12676641"><ele>2519</ele><speed>22.86</speed><time>2016-06-29T11:57:36Z</time><pdop>3.0</pdop><geoidheight>54.00</geoidheight><course>63.6</course><type>1</type></trkpt>
      <trkpt lat="40.57353676" lon="-5.12653116"><ele>2517</ele><speed>22.39</speed><time>2016-06-29T11:57:37Z</time><pdop>3.0</pdop><geoidheight>54.00</geoidheight><course>65.9</course><type>1</type></trkpt>
      <trkpt lat="40.57360757" lon="-5.12631092"><ele>2515</ele><speed>21.62</speed><time>2016-06-29T11:57:38Z</time><pdop>3.0</pdop><geoidheight>54.00</geoidheight><course>68.0</course><type>1</type></trkpt>
      <trkpt lat="40.57367576" lon="-5.12606898"><ele>2514</ele><speed>21.46</speed><time>2016-06-29T11:57:39Z</time><pdop>3.0</pdop><geoidheight>54.00</geoidheight><course>68.4</course><type>1</type></trkpt>
      <trkpt lat="40.57374537" lon="-5.12583239"><ele>2512</ele><speed>21.47</speed><time>2016-06-29T11:57:40Z</time><pdop>3.0</pdop><geoidheight>54.00</geoidheight><course>71.0</course><type>1</type></trkpt>
      <trkpt lat="40.57380597" lon="-5.12560154"><ele>2511</ele><speed>21.98</speed><time>2016-06-29T11:57:41Z</time><pdop>3.0</pdop><geoidheight>54.00</geoidheight><course>72.9</course><type>1</type></trkpt>
      <trkpt lat="40.57385158" lon="-5.12535167"><ele>2508</ele><speed>21.96</speed><time>2016-06-29T11:57:42Z</time><pdop>3.0</pdop><geoidheight>54.00</geoidheight><course>73.2</course><type>1</type></trkpt>
      <trkpt lat="40.57390887" lon="-5.12510399"><ele>2507</ele><speed>21.93</speed><time>2016-06-29T11:57:43Z</time><pdop>4.0</pdop><geoidheight>54.00</geoidheight><course>73.1</course><type>1</type></trkpt>
      <trkpt lat="40.57399697" lon="-5.12488302"><ele>2506</ele><speed>21.09</speed><time>2016-06-29T11:57:44Z</time><pdop>3.0</pdop><geoidheight>54.00</geoidheight><course>67.4</course><type>1</type></trkpt>
      <trkpt lat="40.5740699" lon="-5.1246533"><ele>2505</ele><speed>21.07</speed><time>2016-06-29T11:57:45Z</time><pdop>4.0</pdop><geoidheight>54.00</geoidheight><course>67.4</course><type>1</type></trkpt>
      <trkpt lat="40.57414757" lon="-5.12444569"><ele>2502</ele><speed>20.96</speed><time>2016-06-29T11:57:46Z</time><pdop>4.0</pdop><geoidheight>54.00</geoidheight><course>65.8</course><type>1</type></trkpt>
      <trkpt lat="40.57422838" lon="-5.12421571"><ele>2501</ele><speed>21.62</speed><time>2016-06-29T11:57:47Z</time><pdop>4.0</pdop><geoidheight>54.00</geoidheight><course>66.0</course><type>1</type></trkpt>
      <trkpt lat="40.57427774" lon="-5.12397434"><ele>2499</ele><speed>22.33</speed><time>2016-06-29T11:57:48Z</time><pdop>5.0</pdop><geoidheight>54.00</geoidheight><course>69.0</course><type>1</type></trkpt>
      <trkpt lat="40.57435314" lon="-5.12372032"><ele>2497</ele><speed>23.22</speed><time>2016-06-29T11:57:49Z</time><pdop>7.0</pdop><geoidheight>54.00</geoidheight><course>69.6</course><type>1</type></trkpt>
      <trkpt lat="40.57441478" lon="-5.12343292"><ele>2497</ele><speed>23.82</speed><time>2016-06-29T11:57:50Z</time><pdop>6.0</pdop><geoidheight>54.00</geoidheight><course>72.7</course><type>1</type></trkpt>
      <trkpt lat="40.57444562" lon="-5.12316703"><ele>2497</ele><speed>22.91</speed><time>2016-06-29T11:57:51Z</time><pdop>5.0</pdop><geoidheight>54.00</geoidheight><course>73.5</course><type>1</type></trkpt>
      <trkpt lat="40.57450899" lon="-5.12294652"><ele>2498</ele><speed>21.04</speed><time>2016-06-29T11:57:52Z</time><pdop>5.0</pdop><geoidheight>54.00</geoidheight><course>71.2</course><type>1</type></trkpt>
      <trkpt lat="40.57459104" lon="-5.12271336"><ele>2498</ele><speed>19.96</speed><time>2016-06-29T11:57:53Z</time><pdop>6.0</pdop><geoidheight>54.00</geoidheight><course>68.9</course><type>1</type></trkpt>
      <trkpt lat="40.57465557" lon="-5.12249363"><ele>2498</ele><speed>19.94</speed><time>2016-06-29T11:57:54Z</time><pdop>7.0</pdop><geoidheight>54.00</geoidheight><course>68.9</course><type>1</type></trkpt>
      <trkpt lat="40.57468867" lon="-5.12230426"><ele>2498</ele><speed>18.79</speed><time>2016-06-29T11:57:55Z</time><pdop>5.0</pdop><geoidheight>54.00</geoidheight><course>73.9</course><type>1</type></trkpt>
      <trkpt lat="40.57473472" lon="-5.12208506"><ele>2498</ele><speed>18.20</speed><time>2016-06-29T11:57:56Z</time><pdop>6.0</pdop><geoidheight>54.00</geoidheight><course>78.2</course><type>1</type></trkpt>
      <trkpt lat="40.57478558" lon="-5.12186568"><ele>2498</ele><speed>17.65</speed><time>2016-06-29T11:57:57Z</time><pdop>6.0</pdop><geoidheight>54.00</geoidheight><course>79.1</course><type>1</type></trkpt>
      <trkpt lat="40.57482111" lon="-5.12165966"><ele>2499</ele><speed>17.36</speed><time>2016-06-29T11:57:58Z</time><pdop>5.0</pdop><geoidheight>54.00</geoidheight><course>77.6</course><type>1</type></trkpt>
      <trkpt lat="40.57485451" lon="-5.12145975"><ele>2500</ele><speed>17.33</speed><time>2016-06-29T11:57:59Z</time><pdop>7.0</pdop><geoidheight>54.00</geoidheight><course>77.6</course><type>1</type></trkpt>
      <trkpt lat="40.57491051" lon="-5.12126173"><ele>2500</ele><speed>17.20</speed><time>2016-06-29T11:58:00Z</time><pdop>5.0</pdop><geoidheight>54.00</geoidheight><course>71.7</course><type>1</type></trkpt>
      <trkpt lat="40.5749591" lon="-5.12106913"><ele>2500</ele><speed>17.18</speed><time>2016-06-29T11:58:01Z</time><pdop>7.0</pdop><geoidheight>54.00</geoidheight><course>71.7</course><type>1</type></trkpt>
      <trkpt lat="40.57499973" lon="-5.12087177"><ele>2503</ele><speed>17.83</speed><time>2016-06-29T11:58:02Z</time><pdop>5.0</pdop><geoidheight>54.00</geoidheight><course>69.4</course><type>1</type></trkpt>
      <trkpt lat="40.57505216" lon="-5.12067103"><ele>2504</ele><speed>18.02</speed><time>2016-06-29T11:58:03Z</time><pdop>5.0</pdop><geoidheight>54.00</geoidheight><course>72.0</course><type>1</type></trkpt>
      <trkpt lat="40.57510198" lon="-5.12046914"><ele>2505</ele><speed>17.98</speed><time>2016-06-29T11:58:04Z</time><pdop>6.0</pdop><geoidheight>54.00</geoidheight><course>72.1</course><type>1</type></trkpt>
      <trkpt lat="40.57512021" lon="-5.1202637"><ele>2506</ele><speed>18.21</speed><time>2016-06-29T11:58:05Z</time><pdop>4.0</pdop><geoidheight>54.00</geoidheight><course>75.9</course><type>1</type></trkpt>
      <trkpt lat="40.57515138" lon="-5.12005015"><ele>2507</ele><speed>17.17</speed><time>2016-06-29T11:58:06Z</time><pdop>4.0</pdop><geoidheight>54.00</geoidheight><course>82.7</course><type>1</type></trkpt>
      <trkpt lat="40.57517109" lon="-5.11984935"><ele>2508</ele><speed>17.15</speed><time>2016-06-29T11:58:07Z</time><pdop>5.0</pdop><geoidheight>54.00</geoidheight><course>82.7</course><type>1</type></trkpt>
      <trkpt lat="40.57513954" lon="-5.11966105"><ele>2513</ele><speed>15.92</speed><time>2016-06-29T11:58:08Z</time><pdop>6.0</pdop><geoidheight>54.00</geoidheight><course>96.5</course><type>1</type></trkpt>
      <trkpt lat="40.57508927" lon="-5.11952453"><ele>2511</ele><speed>13.93</speed><time>2016-06-29T11:58:09Z</time><pdop>5.0</pdop><geoidheight>54.00</geoidheight><course>112.4</course><type>1</type></trkpt>
      <trkpt lat="40.57502373" lon="-5.11940655"><ele>2509</ele><speed>12.81</speed><time>2016-06-29T11:58:10Z</time><pdop>5.0</pdop><geoidheight>54.00</geoidheight><course>125.1</course><type>1</type></trkpt>
      <trkpt lat="40.57495753" lon="-5.11928284"><ele>2508</ele><speed>12.80</speed><time>2016-06-29T11:58:11Z</time><pdop>6.0</pdop><geoidheight>54.00</geoidheight><course>125.1</course><type>1</type></trkpt>
      <trkpt lat="40.57485887" lon="-5.11915704"><ele>2508</ele><speed>3.65</speed><time>2016-06-29T11:58:14Z</time><pdop>6.0</pdop><geoidheight>54.00</geoidheight><course>118.9</course><type>1</type></trkpt>
      <trkpt lat="40.57503231" lon="-5.11922785"><ele>2506</ele><speed>10.53</speed><time>2016-06-29T11:58:16Z</time><pdop>5.0</pdop><geoidheight>54.00</geoidheight><course>347.8</course><type>1</type></trkpt>
      <trkpt lat="40.57514508" lon="-5.11924605"><ele>2506</ele><speed>13.98</speed><time>2016-06-29T11:58:17Z</time><pdop>5.0</pdop><geoidheight>54.00</geoidheight><course>1.8</course><type>1</type></trkpt>
      <trkpt lat="40.57528491" lon="-5.11921464"><ele>2506</ele><speed>16.00</speed><time>2016-06-29T11:58:18Z</time><pdop>5.0</pdop><geoidheight>54.00</geoidheight><course>13.8</course><type>1</type></trkpt>
      <trkpt lat="40.57543874" lon="-5.1191409"><ele>2507</ele><speed>17.30</speed><time>2016-06-29T11:58:19Z</time><pdop>5.0</pdop><geoidheight>54.00</geoidheight><course>17.1</course><type>1</type></trkpt>
      <trkpt lat="40.57557658" lon="-5.11906335"><ele>2510</ele><speed>17.29</speed><time>2016-06-29T11:58:20Z</time><pdop>7.0</pdop><geoidheight>54.00</geoidheight><course>19.7</course><type>1</type></trkpt>
      <trkpt lat="40.57568869" lon="-5.11892627"><ele>2511</ele><speed>17.43</speed><time>2016-06-29T11:58:21Z</time><pdop>6.0</pdop><geoidheight>54.00</geoidheight><course>32.2</course><type>1</type></trkpt>
      <trkpt lat="40.57581381" lon="-5.1187921"><ele>2511</ele><speed>17.57</speed><time>2016-06-29T11:58:22Z</time><pdop>6.0</pdop><geoidheight>54.00</geoidheight><course>34.0</course><type>1</type></trkpt>
      <trkpt lat="40.57593293" lon="-5.11864914"><ele>2510</ele><speed>17.71</speed><time>2016-06-29T11:58:23Z</time><pdop>7.0</pdop><geoidheight>54.00</geoidheight><course>38.7</course><type>1</type></trkpt>
      <trkpt lat="40.57606511" lon="-5.11850201"><ele>2511</ele><speed>18.39</speed><time>2016-06-29T11:58:24Z</time><pdop>5.0</pdop><geoidheight>54.00</geoidheight><course>43.6</course><type>1</type></trkpt>
      <trkpt lat="40.57619046" lon="-5.11836099"><ele>2515</ele><speed>18.04</speed><time>2016-06-29T11:58:25Z</time><pdop>5.0</pdop><geoidheight>54.00</geoidheight><course>43.1</course><type>1</type></trkpt>
      <trkpt lat="40.5763213" lon="-5.11822299"><ele>2516</ele><speed>17.18</speed><time>2016-06-29T11:58:26Z</time><pdop>5.0</pdop><geoidheight>54.00</geoidheight><course>37.9</course><type>1</type></trkpt>
      <trkpt lat="40.57644289" lon="-5.11809866"><ele>2517</ele><speed>17.13</speed><time>2016-06-29T11:58:27Z</time><pdop>5.0</pdop><geoidheight>54.00</geoidheight><course>37.9</course><type>1</type></trkpt>
      <trkpt lat="40.57656592" lon="-5.11799655"><ele>2518</ele><speed>16.06</speed><time>2016-06-29T11:58:28Z</time><pdop>4.0</pdop><geoidheight>54.00</geoidheight><course>32.8</course><type>1</type></trkpt>
      <trkpt lat="40.57668024" lon="-5.11792268"><ele>2518</ele><speed>14.15</speed><time>2016-06-29T11:58:29Z</time><pdop>4.0</pdop><geoidheight>54.00</geoidheight><course>28.2</course><type>1</type></trkpt>
      <trkpt lat="40.57678551" lon="-5.11789034"><ele>2519</ele><speed>11.58</speed><time>2016-06-29T11:58:30Z</time><pdop>4.0</pdop><geoidheight>54.00</geoidheight><course>15.2</course><type>1</type></trkpt>
      <trkpt lat="40.57688613" lon="-5.11785447"><ele>2519</ele><speed>11.58</speed><time>2016-06-29T11:58:31Z</time><pdop>6.0</pdop><geoidheight>54.00</geoidheight><course>15.2</course><type>1</type></trkpt>
      <trkpt lat="40.57673949" lon="-5.11759541"><ele>2525</ele><speed>15.43</speed><time>2016-06-29T11:58:38Z</time><pdop>5.0</pdop><geoidheight>54.00</geoidheight><course>107.6</course><type>1</type></trkpt>
      <trkpt lat="40.57670888" lon="-5.11741491"><ele>2527</ele><speed>17.66</speed><time>2016-06-29T11:58:39Z</time><pdop>5.0</pdop><geoidheight>54.00</geoidheight><course>98.3</course><type>1</type></trkpt>
      <trkpt lat="40.57667843" lon="-5.11719988"><ele>2527</ele><speed>18.65</speed><time>2016-06-29T11:58:40Z</time><pdop>4.0</pdop><geoidheight>54.00</geoidheight><course>90.9</course><type>1</type></trkpt>
      <trkpt lat="40.57670056" lon="-5.11697577"><ele>2528</ele><speed>20.03</speed><time>2016-06-29T11:58:41Z</time><pdop>4.0</pdop><geoidheight>54.00</geoidheight><course>80.9</course><type>1</type></trkpt>
      <trkpt lat="40.57673043" lon="-5.11674528"><ele>2528</ele><speed>20.40</speed><time>2016-06-29T11:58:42Z</time><pdop>4.0</pdop><geoidheight>54.00</geoidheight><course>76.4</course><type>1</type></trkpt>
      <trkpt lat="40.57677352" lon="-5.11651127"><ele>2529</ele><speed>20.39</speed><time>2016-06-29T11:58:43Z</time><pdop>5.0</pdop><geoidheight>54.00</geoidheight><course>76.4</course><type>1</type></trkpt>
      <trkpt lat="40.57684385" lon="-5.11627589"><ele>2529</ele><speed>19.75</speed><time>2016-06-29T11:58:44Z</time><pdop>6.0</pdop><geoidheight>54.00</geoidheight><course>71.6</course><type>1</type></trkpt>
      <trkpt lat="40.57690015" lon="-5.11605472"><ele>2529</ele><speed>19.75</speed><time>2016-06-29T11:58:45Z</time><pdop>9.0</pdop><geoidheight>54.00</geoidheight><course>71.5</course><type>1</type></trkpt>
      <trkpt lat="40.57706015" lon="-5.11593561"><ele>2531</ele><speed>18.41</speed><time>2016-06-29T11:58:46Z</time><pdop>5.0</pdop><geoidheight>54.00</geoidheight><course>53.8</course><type>1</type></trkpt>
      <trkpt lat="40.57717582" lon="-5.11577098"><ele>2529</ele><speed>17.83</speed><time>2016-06-29T11:58:47Z</time><pdop>5.0</pdop><geoidheight>54.00</geoidheight><course>41.7</course><type>1</type></trkpt>
      <trkpt lat="40.57729551" lon="-5.11563132"><ele>2528</ele><speed>17.80</speed><time>2016-06-29T11:58:48Z</time><pdop>6.0</pdop><geoidheight>54.00</geoidheight><course>41.7</course><type>1</type></trkpt>
      <trkpt lat="40.57743929" lon="-5.11556655"><ele>2527</ele><speed>16.29</speed><time>2016-06-29T11:58:49Z</time><pdop>5.0</pdop><geoidheight>54.00</geoidheight><course>34.6</course><type>1</type></trkpt>
      <trkpt lat="40.57756002" lon="-5.11545723"><ele>2527</ele><speed>16.29</speed><time>2016-06-29T11:58:50Z</time><pdop>6.0</pdop><geoidheight>54.00</geoidheight><course>34.6</course><type>1</type></trkpt>
      <trkpt lat="40.5776553" lon="-5.11532128"><ele>2526</ele><speed>15.88</speed><time>2016-06-29T11:58:51Z</time><pdop>5.0</pdop><geoidheight>54.00</geoidheight><course>43.7</course><type>1</type></trkpt>
      <trkpt lat="40.57776171" lon="-5.11518804"><ele>2524</ele><speed>16.77</speed><time>2016-06-29T11:58:52Z</time><pdop>4.0</pdop><geoidheight>54.00</geoidheight><course>49.7</course><type>1</type></trkpt>
      <trkpt lat="40.57785955" lon="-5.11503723"><ele>2524</ele><speed>16.76</speed><time>2016-06-29T11:58:53Z</time><pdop>6.0</pdop><geoidheight>54.00</geoidheight><course>49.6</course><type>1</type></trkpt>
      <trkpt lat="40.57794967" lon="-5.11486736"><ele>2523</ele><speed>17.26</speed><time>2016-06-29T11:58:54Z</time><pdop>8.0</pdop><geoidheight>54.00</geoidheight><course>53.3</course><type>1</type></trkpt>
      <trkpt lat="40.57799458" lon="-5.11460777"><ele>2521</ele><speed>19.80</speed><time>2016-06-29T11:58:55Z</time><pdop>7.0</pdop><geoidheight>54.00</geoidheight><course>66.7</course><type>1</type></trkpt>
      <trkpt lat="40.57805419" lon="-5.11437826"><ele>2519</ele><speed>20.30</speed><time>2016-06-29T11:58:56Z</time><pdop>7.0</pdop><geoidheight>54.00</geoidheight><course>68.1</course><type>1</type></trkpt>
      <trkpt lat="40.57808528" lon="-5.11413283"><ele>2516</ele><speed>21.84</speed><time>2016-06-29T11:58:57Z</time><pdop>5.0</pdop><geoidheight>54.00</geoidheight><course>71.5</course><type>1</type></trkpt>
      <trkpt lat="40.57815066" lon="-5.11387151"><ele>2514</ele><speed>21.98</speed><time>2016-06-29T11:58:58Z</time><pdop>5.0</pdop><geoidheight>54.00</geoidheight><course>70.6</course><type>1</type></trkpt>
      <trkpt lat="40.57823954" lon="-5.11365526"><ele>2512</ele><speed>21.51</speed><time>2016-06-29T11:58:59Z</time><pdop>5.0</pdop><geoidheight>54.00</geoidheight><course>66.6</course><type>1</type></trkpt>
      <trkpt lat="40.57833436" lon="-5.11342071"><ele>2511</ele><speed>22.50</speed><time>2016-06-29T11:59:00Z</time><pdop>4.0</pdop><geoidheight>54.00</geoidheight><course>64.8</course><type>1</type></trkpt>
      <trkpt lat="40.57842063" lon="-5.11318067"><ele>2511</ele><speed>22.47</speed><time>2016-06-29T11:59:01Z</time><pdop>6.0</pdop><geoidheight>54.00</geoidheight><course>64.8</course><type>1</type></trkpt>
      <trkpt lat="40.57850292" lon="-5.11293499"><ele>2509</ele><speed>23.00</speed><time>2016-06-29T11:59:02Z</time><pdop>5.0</pdop><geoidheight>54.00</geoidheight><course>65.5</course><type>1</type></trkpt>
      <trkpt lat="40.57856063" lon="-5.1126731"><ele>2508</ele><speed>22.51</speed><time>2016-06-29T11:59:03Z</time><pdop>5.0</pdop><geoidheight>54.00</geoidheight><course>70.0</course><type>1</type></trkpt>
      <trkpt lat="40.57862413" lon="-5.11242074"><ele>2507</ele><speed>22.49</speed><time>2016-06-29T11:59:04Z</time><pdop>5.0</pdop><geoidheight>54.00</geoidheight><course>70.3</course><type>1</type></trkpt>
      <trkpt lat="40.57868548" lon="-5.11219527"><ele>2513</ele><speed>22.73</speed><time>2016-06-29T11:59:05Z</time><pdop>4.0</pdop><geoidheight>54.00</geoidheight><course>70.4</course><type>1</type></trkpt>
      <trkpt lat="40.57875405" lon="-5.11194263"><ele>2511</ele><speed>22.72</speed><time>2016-06-29T11:59:06Z</time><pdop>6.0</pdop><geoidheight>54.00</geoidheight><course>70.4</course><type>1</type></trkpt>
      <trkpt lat="40.57883432" lon="-5.11173028"><ele>2508</ele><speed>21.22</speed><time>2016-06-29T11:59:07Z</time><pdop>5.0</pdop><geoidheight>54.00</geoidheight><course>67.6</course><type>1</type></trkpt>
      <trkpt lat="40.57890067" lon="-5.11149692"><ele>2507</ele><speed>20.83</speed><time>2016-06-29T11:59:08Z</time><pdop>6.0</pdop><geoidheight>54.00</geoidheight><course>68.1</course><type>1</type></trkpt>
      <trkpt lat="40.57894872" lon="-5.11127915"><ele>2503</ele><speed>19.83</speed><time>2016-06-29T11:59:09Z</time><pdop>5.0</pdop><geoidheight>54.00</geoidheight><course>70.9</course><type>1</type></trkpt>
      <trkpt lat="40.5790065" lon="-5.11106077"><ele>2501</ele><speed>20.43</speed><time>2016-06-29T11:59:10Z</time><pdop>5.0</pdop><geoidheight>54.00</geoidheight><course>71.1</course><type>1</type></trkpt>
      <trkpt lat="40.57907014" lon="-5.11084358"><ele>2498</ele><speed>20.10</speed><time>2016-06-29T11:59:11Z</time><pdop>5.0</pdop><geoidheight>54.00</geoidheight><course>69.4</course><type>1</type></trkpt>
      <trkpt lat="40.57914074" lon="-5.11062753"><ele>2497</ele><speed>20.04</speed><time>2016-06-29T11:59:12Z</time><pdop>5.0</pdop><geoidheight>54.00</geoidheight><course>66.4</course><type>1</type></trkpt>
      <trkpt lat="40.57921715" lon="-5.11042611"><ele>2495</ele><speed>19.55</speed><time>2016-06-29T11:59:13Z</time><pdop>5.0</pdop><geoidheight>54.00</geoidheight><course>64.3</course><type>1</type></trkpt>
      <trkpt lat="40.57929161" lon="-5.1102107"><ele>2494</ele><speed>19.92</speed><time>2016-06-29T11:59:14Z</time><pdop>5.0</pdop><geoidheight>54.00</geoidheight><course>63.5</course><type>1</type></trkpt>
      <trkpt lat="40.57938318" lon="-5.11000177"><ele>2493</ele><speed>20.51</speed><time>2016-06-29T11:59:15Z</time><pdop>6.0</pdop><geoidheight>54.00</geoidheight><course>60.6</course><type>1</type></trkpt>
      <trkpt lat="40.57947556" lon="-5.10976838"><ele>2492</ele><speed>21.12</speed><time>2016-06-29T11:59:16Z</time><pdop>6.0</pdop><geoidheight>54.00</geoidheight><course>62.1</course><type>1</type></trkpt>
      <trkpt lat="40.57955444" lon="-5.10955665"><ele>2505</ele><speed>21.12</speed><time>2016-06-29T11:59:17Z</time><pdop>6.0</pdop><geoidheight>54.00</geoidheight><course>62.0</course><type>1</type></trkpt>
      <trkpt lat="40.57964845" lon="-5.10932388"><ele>2500</ele><speed>21.63</speed><time>2016-06-29T11:59:18Z</time><pdop>6.0</pdop><geoidheight>54.00</geoidheight><course>59.2</course><type>1</type></trkpt>
      <trkpt lat="40.57973028" lon="-5.10911921"><ele>2496</ele><speed>21.05</speed><time>2016-06-29T11:59:19Z</time><pdop>6.0</pdop><geoidheight>54.00</geoidheight><course>59.0</course><type>1</type></trkpt>
      <trkpt lat="40.57982468" lon="-5.10889997"><ele>2494</ele><speed>20.88</speed><time>2016-06-29T11:59:20Z</time><pdop>6.0</pdop><geoidheight>54.00</geoidheight><course>59.2</course><type>1</type></trkpt>
      <trkpt lat="40.57993044" lon="-5.10868736"><ele>2492</ele><speed>20.95</speed><time>2016-06-29T11:59:21Z</time><pdop>6.0</pdop><geoidheight>54.00</geoidheight><course>56.5</course><type>1</type></trkpt>
      <trkpt lat="40.58003567" lon="-5.10850287"><ele>2488</ele><speed>21.07</speed><time>2016-06-29T11:59:22Z</time><pdop>5.0</pdop><geoidheight>54.00</geoidheight><course>53.1</course><type>1</type></trkpt>
      <trkpt lat="40.58013366" lon="-5.10834855"><ele>2485</ele><speed>20.15</speed><time>2016-06-29T11:59:23Z</time><pdop>5.0</pdop><geoidheight>54.00</geoidheight><course>52.5</course><type>1</type></trkpt>
      <trkpt lat="40.58022611" lon="-5.1081734"><ele>2483</ele><speed>19.45</speed><time>2016-06-29T11:59:24Z</time><pdop>5.0</pdop><geoidheight>54.00</geoidheight><course>55.1</course><type>1</type></trkpt>
      <trkpt lat="40.58030512" lon="-5.10801478"><ele>2479</ele><speed>18.80</speed><time>2016-06-29T11:59:25Z</time><pdop>4.0</pdop><geoidheight>54.00</geoidheight><course>58.0</course><type>1</type></trkpt>
      <trkpt lat="40.58040077" lon="-5.10784405"><ele>2474</ele><speed>18.79</speed><time>2016-06-29T11:59:26Z</time><pdop>4.0</pdop><geoidheight>54.00</geoidheight><course>56.1</course><type>1</type></trkpt>
      <trkpt lat="40.58050947" lon="-5.10767208"><ele>2469</ele><speed>19.42</speed><time>2016-06-29T11:59:27Z</time><pdop>3.0</pdop><geoidheight>54.00</geoidheight><course>52.1</course><type>1</type></trkpt>
      <trkpt lat="40.58062571" lon="-5.1075172"><ele>2468</ele><speed>19.58</speed><time>2016-06-29T11:59:28Z</time><pdop>4.0</pdop><geoidheight>54.00</geoidheight><course>47.9</course><type>1</type></trkpt>
      <trkpt lat="40.58074127" lon="-5.10734801"><ele>2467</ele><speed>19.55</speed><time>2016-06-29T11:59:29Z</time><pdop>4.0</pdop><geoidheight>54.00</geoidheight><course>47.8</course><type>1</type></trkpt>
      <trkpt lat="40.58085112" lon="-5.10718412"><ele>2466</ele><speed>19.46</speed><time>2016-06-29T11:59:30Z</time><pdop>6.0</pdop><geoidheight>54.00</geoidheight><course>47.9</course><type>1</type></trkpt>
      <trkpt lat="40.58097535" lon="-5.10702805"><ele>2465</ele><speed>19.52</speed><time>2016-06-29T11:59:31Z</time><pdop>4.0</pdop><geoidheight>54.00</geoidheight><course>47.4</course><type>1</type></trkpt>
      <trkpt lat="40.58108914" lon="-5.10685149"><ele>2463</ele><speed>19.42</speed><time>2016-06-29T11:59:32Z</time><pdop>5.0</pdop><geoidheight>54.00</geoidheight><course>47.5</course><type>1</type></trkpt>
      <trkpt lat="40.58121573" lon="-5.10670331"><ele>2462</ele><speed>18.58</speed><time>2016-06-29T11:59:33Z</time><pdop>4.0</pdop><geoidheight>54.00</geoidheight><course>44.5</course><type>1</type></trkpt>
      <trkpt lat="40.58133715" lon="-5.10653296"><ele>2460</ele><speed>19.14</speed><time>2016-06-29T11:59:34Z</time><pdop>4.0</pdop><geoidheight>54.00</geoidheight><course>45.2</course><type>1</type></trkpt>
      <trkpt lat="40.58148136" lon="-5.10635904"><ele>2457</ele><speed>20.80</speed><time>2016-06-29T11:59:35Z</time><pdop>4.0</pdop><geoidheight>54.00</geoidheight><course>45.8</course><type>1</type></trkpt>
      <trkpt lat="40.58161591" lon="-5.10618492"><ele>2456</ele><speed>21.16</speed><time>2016-06-29T11:59:36Z</time><pdop>4.0</pdop><geoidheight>54.00</geoidheight><course>45.6</course><type>1</type></trkpt>
      <trkpt lat="40.58175916" lon="-5.10602714"><ele>2455</ele><speed>20.97</speed><time>2016-06-29T11:59:37Z</time><pdop>3.0</pdop><geoidheight>54.00</geoidheight><course>43.4</course><type>1</type></trkpt>
      <trkpt lat="40.58189034" lon="-5.10586112"><ele>2456</ele><speed>20.08</speed><time>2016-06-29T11:59:38Z</time><pdop>4.0</pdop><geoidheight>54.00</geoidheight><course>42.7</course><type>1</type></trkpt>
      <trkpt lat="40.58201251" lon="-5.10573382"><ele>2454</ele><speed>18.24</speed><time>2016-06-29T11:59:39Z</time><pdop>3.0</pdop><geoidheight>54.00</geoidheight><course>40.1</course><type>1</type></trkpt>
      <trkpt lat="40.58212427" lon="-5.10559531"><ele>2452</ele><speed>17.11</speed><time>2016-06-29T11:59:40Z</time><pdop>3.0</pdop><geoidheight>54.00</geoidheight><course>40.3</course><type>1</type></trkpt>
      <trkpt lat="40.5822504" lon="-5.10547628"><ele>2450</ele><speed>17.30</speed><time>2016-06-29T11:59:41Z</time><pdop>4.0</pdop><geoidheight>54.00</geoidheight><course>37.5</course><type>1</type></trkpt>
      <trkpt lat="40.58237686" lon="-5.10533538"><ele>2449</ele><speed>18.24</speed><time>2016-06-29T11:59:42Z</time><pdop>4.0</pdop><geoidheight>54.00</geoidheight><course>38.0</course><type>1</type></trkpt>
      <trkpt lat="40.58251017" lon="-5.10519042"><ele>2448</ele><speed>19.11</speed><time>2016-06-29T11:59:43Z</time><pdop>4.0</pdop><geoidheight>54.00</geoidheight><course>40.0</course><type>1</type></trkpt>
      <trkpt lat="40.58268484" lon="-5.10503047"><ele>2446</ele><speed>21.86</speed><time>2016-06-29T11:59:44Z</time><pdop>4.0</pdop><geoidheight>54.00</geoidheight><course>38.5</course><type>1</type></trkpt>
      <trkpt lat="40.58283286" lon="-5.10487068"><ele>2444</ele><speed>21.48</speed><time>2016-06-29T11:59:45Z</time><pdop>4.0</pdop><geoidheight>54.00</geoidheight><course>40.0</course><type>1</type></trkpt>
      <trkpt lat="40.58295985" lon="-5.1047243"><ele>2443</ele><speed>19.85</speed><time>2016-06-29T11:59:46Z</time><pdop>4.0</pdop><geoidheight>54.00</geoidheight><course>38.3</course><type>1</type></trkpt>
      <trkpt lat="40.5830856" lon="-5.10459024"><ele>2443</ele><speed>17.65</speed><time>2016-06-29T11:59:47Z</time><pdop>4.0</pdop><geoidheight>54.00</geoidheight><course>37.9</course><type>1</type></trkpt>
      <trkpt lat="40.5831913" lon="-5.10446809"><ele>2443</ele><speed>16.41</speed><time>2016-06-29T11:59:48Z</time><pdop>4.0</pdop><geoidheight>54.00</geoidheight><course>40.1</course><type>1</type></trkpt>
      <trkpt lat="40.58329868" lon="-5.10434125"><ele>2441</ele><speed>16.45</speed><time>2016-06-29T11:59:49Z</time><pdop>4.0</pdop><geoidheight>54.00</geoidheight><course>42.0</course><type>1</type></trkpt>
      <trkpt lat="40.58340683" lon="-5.10420182"><ele>2440</ele><speed>17.26</speed><time>2016-06-29T11:59:50Z</time><pdop>4.0</pdop><geoidheight>54.00</geoidheight><course>42.9</course><type>1</type></trkpt>
      <trkpt lat="40.58350697" lon="-5.1040628"><ele>2436</ele><speed>17.14</speed><time>2016-06-29T11:59:51Z</time><pdop>4.0</pdop><geoidheight>54.00</geoidheight><course>45.0</course><type>1</type></trkpt>
      <trkpt lat="40.58361688" lon="-5.10391717"><ele>2433</ele><speed>17.47</speed><time>2016-06-29T11:59:52Z</time><pdop>4.0</pdop><geoidheight>54.00</geoidheight><course>44.6</course><type>1</type></trkpt>
      <trkpt lat="40.58373903" lon="-5.10379013"><ele>2429</ele><speed>18.11</speed><time>2016-06-29T11:59:53Z</time><pdop>3.0</pdop><geoidheight>54.00</geoidheight><course>41.1</course><type>1</type></trkpt>
      <trkpt lat="40.58386556" lon="-5.10365819"><ele>2425</ele><speed>18.48</speed><time>2016-06-29T11:59:54Z</time><pdop>3.0</pdop><geoidheight>54.00</geoidheight><course>37.8</course><type>1</type></trkpt>
      <trkpt lat="40.58400272" lon="-5.10353041"><ele>2425</ele><speed>18.34</speed><time>2016-06-29T11:59:55Z</time><pdop>4.0</pdop><geoidheight>54.00</geoidheight><course>36.9</course><type>1</type></trkpt>
      <trkpt lat="40.58413587" lon="-5.10341071"><ele>2424</ele><speed>17.64</speed><time>2016-06-29T11:59:56Z</time><pdop>4.0</pdop><geoidheight>54.00</geoidheight><course>34.2</course><type>1</type></trkpt>
      <trkpt lat="40.58425615" lon="-5.10331175"><ele>2423</ele><speed>16.27</speed><time>2016-06-29T11:59:57Z</time><pdop>3.0</pdop><geoidheight>54.00</geoidheight><course>32.2</course><type>1</type></trkpt>
      <trkpt lat="40.58437426" lon="-5.10321803"><ele>2422</ele><speed>15.36</speed><time>2016-06-29T11:59:58Z</time><pdop>3.0</pdop><geoidheight>54.00</geoidheight><course>31.3</course><type>1</type></trkpt>
      <trkpt lat="40.58449259" lon="-5.10312295"><ele>2421</ele><speed>15.20</speed><time>2016-06-29T11:59:59Z</time><pdop>3.0</pdop><geoidheight>54.00</geoidheight><course>31.2</course><type>1</type></trkpt>
      <trkpt lat="40.58460139" lon="-5.10303365"><ele>2419</ele><speed>14.80</speed><time>2016-06-29T12:00:00Z</time><pdop>4.0</pdop><geoidheight>54.00</geoidheight><course>31.7</course><type>1</type></trkpt>
      <trkpt lat="40.58470765" lon="-5.10294522"><ele>2420</ele><speed>14.53</speed><time>2016-06-29T12:00:01Z</time><pdop>5.0</pdop><geoidheight>54.00</geoidheight><course>31.8</course><type>1</type></trkpt>
      <trkpt lat="40.58487603" lon="-5.10285023"><ele>2417</ele><speed>16.68</speed><time>2016-06-29T12:00:02Z</time><pdop>5.0</pdop><geoidheight>54.00</geoidheight><course>28.4</course><type>1</type></trkpt>
      <trkpt lat="40.58502894" lon="-5.10276917"><ele>2415</ele><speed>17.15</speed><time>2016-06-29T12:00:03Z</time><pdop>4.0</pdop><geoidheight>54.00</geoidheight><course>26.2</course><type>1</type></trkpt>
      <trkpt lat="40.58516497" lon="-5.10269189"><ele>2414</ele><speed>16.35</speed><time>2016-06-29T12:00:04Z</time><pdop>4.0</pdop><geoidheight>54.00</geoidheight><course>24.2</course><type>1</type></trkpt>
      <trkpt lat="40.5852839" lon="-5.102615"><ele>2412</ele><speed>15.13</speed><time>2016-06-29T12:00:05Z</time><pdop>9.0</pdop><geoidheight>54.00</geoidheight><course>25.0</course><type>1</type></trkpt>
      <trkpt lat="40.58552819" lon="-5.10242955"><ele>2407</ele><speed>15.49</speed><time>2016-06-29T12:00:07Z</time><pdop>9.0</pdop><geoidheight>54.00</geoidheight><course>30.7</course><type>1</type></trkpt>
      <trkpt lat="40.58575846" lon="-5.10223395"><ele>2402</ele><speed>15.59</speed><time>2016-06-29T12:00:09Z</time><pdop>9.0</pdop><geoidheight>54.00</geoidheight><course>31.8</course><type>1</type></trkpt>
      <trkpt lat="40.58603821" lon="-5.10205096"><ele>2401</ele><speed>16.92</speed><time>2016-06-29T12:00:11Z</time><pdop>9.0</pdop><geoidheight>54.00</geoidheight><course>27.3</course><type>1</type></trkpt>
      <trkpt lat="40.58634712" lon="-5.10189996"><ele>2400</ele><speed>17.77</speed><time>2016-06-29T12:00:13Z</time><pdop>10.0</pdop><geoidheight>54.00</geoidheight><course>23.2</course><type>1</type></trkpt>
      <trkpt lat="40.58662955" lon="-5.10169159"><ele>2404</ele><speed>17.52</speed><time>2016-06-29T12:00:15Z</time><pdop>10.0</pdop><geoidheight>54.00</geoidheight><course>28.5</course><type>1</type></trkpt>
      <trkpt lat="40.58685582" lon="-5.10145126"><ele>2400</ele><speed>17.25</speed><time>2016-06-29T12:00:17Z</time><pdop>10.0</pdop><geoidheight>54.00</geoidheight><course>30.9</course><type>1</type></trkpt>
      <trkpt lat="40.58717466" lon="-5.10133252"><ele>2394</ele><speed>17.71</speed><time>2016-06-29T12:00:19Z</time><pdop>10.0</pdop><geoidheight>54.00</geoidheight><course>22.6</course><type>1</type></trkpt>
      <trkpt lat="40.58746717" lon="-5.1011859"><ele>2385</ele><speed>17.77</speed><time>2016-06-29T12:00:21Z</time><pdop>10.0</pdop><geoidheight>54.00</geoidheight><course>20.5</course><type>1</type></trkpt>
      <trkpt lat="40.58776935" lon="-5.10103141"><ele>2378</ele><speed>17.72</speed><time>2016-06-29T12:00:23Z</time><pdop>10.0</pdop><geoidheight>54.00</geoidheight><course>22.3</course><type>1</type></trkpt>
      <trkpt lat="40.58807086" lon="-5.10089196"><ele>2370</ele><speed>18.17</speed><time>2016-06-29T12:00:25Z</time><pdop>10.0</pdop><geoidheight>54.00</geoidheight><course>17.9</course><type>1</type></trkpt>
      <trkpt lat="40.58837195" lon="-5.10076061"><ele>2363</ele><speed>18.15</speed><time>2016-06-29T12:00:27Z</time><pdop>9.0</pdop><geoidheight>54.00</geoidheight><course>18.9</course><type>1</type></trkpt>
      <trkpt lat="40.58852529" lon="-5.10068886"><ele>2360</ele><speed>17.93</speed><time>2016-06-29T12:00:28Z</time><pdop>9.0</pdop><geoidheight>54.00</geoidheight><course>19.8</course><type>1</type></trkpt>
      <trkpt lat="40.58881643" lon="-5.10055773"><ele>2354</ele><speed>16.96</speed><time>2016-06-29T12:00:30Z</time><pdop>10.0</pdop><geoidheight>54.00</geoidheight><course>18.4</course><type>1</type></trkpt>
      <trkpt lat="40.58908307" lon="-5.10041433"><ele>2348</ele><speed>17.33</speed><time>2016-06-29T12:00:32Z</time><pdop>9.0</pdop><geoidheight>54.00</geoidheight><course>21.5</course><type>1</type></trkpt>
      <trkpt lat="40.58935558" lon="-5.10025805"><ele>2339</ele><speed>17.75</speed><time>2016-06-29T12:00:34Z</time><pdop>9.0</pdop><geoidheight>54.00</geoidheight><course>22.3</course><type>1</type></trkpt>
      <trkpt lat="40.58964521" lon="-5.10010927"><ele>2334</ele><speed>17.12</speed><time>2016-06-29T12:00:36Z</time><pdop>10.0</pdop><geoidheight>54.00</geoidheight><course>21.4</course><type>1</type></trkpt>
      <trkpt lat="40.58999041" lon="-5.10000528"><ele>2332</ele><speed>18.38</speed><time>2016-06-29T12:00:38Z</time><pdop>12.0</pdop><geoidheight>54.00</geoidheight><course>15.8</course><type>1</type></trkpt>
      <trkpt lat="40.59024808" lon="-5.09985699"><ele>2329</ele><speed>17.54</speed><time>2016-06-29T12:00:40Z</time><pdop>11.0</pdop><geoidheight>54.00</geoidheight><course>20.7</course><type>1</type></trkpt>
      <trkpt lat="40.59050348" lon="-5.0996937"><ele>2327</ele><speed>16.99</speed><time>2016-06-29T12:00:42Z</time><pdop>10.0</pdop><geoidheight>54.00</geoidheight><course>23.3</course><type>1</type></trkpt>
      <trkpt lat="40.59077425" lon="-5.0995133"><ele>2324</ele><speed>16.63</speed><time>2016-06-29T12:00:44Z</time><pdop>11.0</pdop><geoidheight>54.00</geoidheight><course>24.1</course><type>1</type></trkpt>
      <trkpt lat="40.59104227" lon="-5.09934959"><ele>2320</ele><speed>16.67</speed><time>2016-06-29T12:00:46Z</time><pdop>12.0</pdop><geoidheight>54.00</geoidheight><course>25.4</course><type>1</type></trkpt>
      <trkpt lat="40.59131134" lon="-5.09916933"><ele>2314</ele><speed>17.95</speed><time>2016-06-29T12:00:48Z</time><pdop>11.0</pdop><geoidheight>54.00</geoidheight><course>24.6</course><type>1</type></trkpt>
      <trkpt lat="40.59158593" lon="-5.09901627"><ele>2307</ele><speed>17.51</speed><time>2016-06-29T12:00:50Z</time><pdop>11.0</pdop><geoidheight>54.00</geoidheight><course>22.6</course><type>1</type></trkpt>
      <trkpt lat="40.59187863" lon="-5.09886282"><ele>2302</ele><speed>17.09</speed><time>2016-06-29T12:00:52Z</time><pdop>11.0</pdop><geoidheight>54.00</geoidheight><course>23.6</course><type>1</type></trkpt>
      <trkpt lat="40.59213955" lon="-5.09867401"><ele>2295</ele><speed>17.02</speed><time>2016-06-29T12:00:54Z</time><pdop>11.0</pdop><geoidheight>54.00</geoidheight><course>26.7</course><type>1</type></trkpt>
      <trkpt lat="40.59241042" lon="-5.09852281"><ele>2292</ele><speed>16.59</speed><time>2016-06-29T12:00:56Z</time><pdop>13.0</pdop><geoidheight>54.00</geoidheight><course>22.2</course><type>1</type></trkpt>
      <trkpt lat="40.59273149" lon="-5.09833469"><ele>2288</ele><speed>18.71</speed><time>2016-06-29T12:00:58Z</time><pdop>12.0</pdop><geoidheight>54.00</geoidheight><course>25.8</course><type>1</type></trkpt>
      <trkpt lat="40.59300936" lon="-5.09813033"><ele>2277</ele><speed>18.25</speed><time>2016-06-29T12:01:00Z</time><pdop>10.0</pdop><geoidheight>54.00</geoidheight><course>26.2</course><type>1</type></trkpt>
      <trkpt lat="40.59331552" lon="-5.09796937"><ele>2271</ele><speed>17.91</speed><time>2016-06-29T12:01:02Z</time><pdop>10.0</pdop><geoidheight>54.00</geoidheight><course>22.4</course><type>1</type></trkpt>
      <trkpt lat="40.59360729" lon="-5.09780093"><ele>2265</ele><speed>17.51</speed><time>2016-06-29T12:01:04Z</time><pdop>10.0</pdop><geoidheight>54.00</geoidheight><course>25.5</course><type>1</type></trkpt>
      <trkpt lat="40.59388521" lon="-5.09763571"><ele>2260</ele><speed>17.02</speed><time>2016-06-29T12:01:06Z</time><pdop>10.0</pdop><geoidheight>54.00</geoidheight><course>24.5</course><type>1</type></trkpt>
      <trkpt lat="40.5941867" lon="-5.09750407"><ele>2256</ele><speed>17.47</speed><time>2016-06-29T12:01:08Z</time><pdop>9.0</pdop><geoidheight>54.00</geoidheight><course>21.5</course><type>1</type></trkpt>
      <trkpt lat="40.59446247" lon="-5.09731803"><ele>2251</ele><speed>16.65</speed><time>2016-06-29T12:01:10Z</time><pdop>9.0</pdop><geoidheight>54.00</geoidheight><course>24.8</course><type>1</type></trkpt>
      <trkpt lat="40.59471187" lon="-5.09716959"><ele>2247</ele><speed>15.27</speed><time>2016-06-29T12:01:12Z</time><pdop>9.0</pdop><geoidheight>54.00</geoidheight><course>25.0</course><type>1</type></trkpt>
      <trkpt lat="40.59497595" lon="-5.09703874"><ele>2241</ele><speed>16.04</speed><time>2016-06-29T12:01:14Z</time><pdop>9.0</pdop><geoidheight>54.00</geoidheight><course>20.3</course><type>1</type></trkpt>
      <trkpt lat="40.59527961" lon="-5.09692048"><ele>2235</ele><speed>17.32</speed><time>2016-06-29T12:01:16Z</time><pdop>9.0</pdop><geoidheight>54.00</geoidheight><course>17.2</course><type>1</type></trkpt>
      <trkpt lat="40.59556688" lon="-5.09684399"><ele>2230</ele><speed>15.50</speed><time>2016-06-29T12:01:18Z</time><pdop>9.0</pdop><geoidheight>54.00</geoidheight><course>10.7</course><type>1</type></trkpt>
      <trkpt lat="40.5958588" lon="-5.09678343"><ele>2228</ele><speed>16.22</speed><time>2016-06-29T12:01:20Z</time><pdop>9.0</pdop><geoidheight>54.00</geoidheight><course>8.5</course><type>1</type></trkpt>
      <trkpt lat="40.59613811" lon="-5.09672174"><ele>2224</ele><speed>15.44</speed><time>2016-06-29T12:01:22Z</time><pdop>9.0</pdop><geoidheight>54.00</geoidheight><course>9.4</course><type>1</type></trkpt>
      <trkpt lat="40.59640693" lon="-5.09666643"><ele>2221</ele><speed>15.42</speed><time>2016-06-29T12:01:24Z</time><pdop>9.0</pdop><geoidheight>54.00</geoidheight><course>8.7</course><type>1</type></trkpt>
      <trkpt lat="40.59668291" lon="-5.09661582"><ele>2218</ele><speed>15.88</speed><time>2016-06-29T12:01:26Z</time><pdop>10.0</pdop><geoidheight>54.00</geoidheight><course>8.5</course><type>1</type></trkpt>
      <trkpt lat="40.5970019" lon="-5.09654237"><ele>2212</ele><speed>16.84</speed><time>2016-06-29T12:01:28Z</time><pdop>9.0</pdop><geoidheight>54.00</geoidheight><course>7.6</course><type>1</type></trkpt>
      <trkpt lat="40.5973078" lon="-5.0964861"><ele>2208</ele><speed>16.66</speed><time>2016-06-29T12:01:30Z</time><pdop>9.0</pdop><geoidheight>54.00</geoidheight><course>8.3</course><type>1</type></trkpt>
      <trkpt lat="40.59762477" lon="-5.09641733"><ele>2204</ele><speed>18.04</speed><time>2016-06-29T12:01:32Z</time><pdop>9.0</pdop><geoidheight>54.00</geoidheight><course>10.9</course><type>1</type></trkpt>
      <trkpt lat="40.59792393" lon="-5.09632369"><ele>2200</ele><speed>17.54</speed><time>2016-06-29T12:01:34Z</time><pdop>9.0</pdop><geoidheight>54.00</geoidheight><course>13.1</course><type>1</type></trkpt>
      <trkpt lat="40.59821889" lon="-5.09624421"><ele>2196</ele><speed>16.33</speed><time>2016-06-29T12:01:36Z</time><pdop>9.0</pdop><geoidheight>54.00</geoidheight><course>10.0</course><type>1</type></trkpt>
      <trkpt lat="40.59850664" lon="-5.09617393"><ele>2194</ele><speed>16.25</speed><time>2016-06-29T12:01:38Z</time><pdop>9.0</pdop><geoidheight>54.00</geoidheight><course>11.7</course><type>1</type></trkpt>
      <trkpt lat="40.59878253" lon="-5.09608214"><ele>2192</ele><speed>16.80</speed><time>2016-06-29T12:01:40Z</time><pdop>10.0</pdop><geoidheight>54.00</geoidheight><course>13.2</course><type>1</type></trkpt>
      <trkpt lat="40.59908307" lon="-5.09595668"><ele>2192</ele><speed>17.67</speed><time>2016-06-29T12:01:42Z</time><pdop>10.0</pdop><geoidheight>54.00</geoidheight><course>15.4</course><type>1</type></trkpt>
      <trkpt lat="40.59943119" lon="-5.0958379"><ele>2191</ele><speed>19.14</speed><time>2016-06-29T12:01:44Z</time><pdop>11.0</pdop><geoidheight>54.00</geoidheight><course>16.6</course><type>1</type></trkpt>
      <trkpt lat="40.59974735" lon="-5.09567733"><ele>2189</ele><speed>19.67</speed><time>2016-06-29T12:01:46Z</time><pdop>11.0</pdop><geoidheight>54.00</geoidheight><course>20.7</course><type>1</type></trkpt>
      <trkpt lat="40.60005002" lon="-5.09549196"><ele>2186</ele><speed>19.01</speed><time>2016-06-29T12:01:48Z</time><pdop>10.0</pdop><geoidheight>54.00</geoidheight><course>22.1</course><type>1</type></trkpt>
      <trkpt lat="40.60035005" lon="-5.09531354"><ele>2184</ele><speed>18.96</speed><time>2016-06-29T12:01:50Z</time><pdop>10.0</pdop><geoidheight>54.00</geoidheight><course>24.2</course><type>1</type></trkpt>
      <trkpt lat="40.60064518" lon="-5.0951283"><ele>2183</ele><speed>17.92</speed><time>2016-06-29T12:01:52Z</time><pdop>10.0</pdop><geoidheight>54.00</geoidheight><course>28.5</course><type>1</type></trkpt>
      <trkpt lat="40.60088236" lon="-5.09489022"><ele>2183</ele><speed>16.25</speed><time>2016-06-29T12:01:54Z</time><pdop>10.0</pdop><geoidheight>54.00</geoidheight><course>36.5</course><type>1</type></trkpt>
      <trkpt lat="40.60110841" lon="-5.09469059"><ele>2179</ele><speed>15.10</speed><time>2016-06-29T12:01:56Z</time><pdop>9.0</pdop><geoidheight>54.00</geoidheight><course>33.4</course><type>1</type></trkpt>
      <trkpt lat="40.60132615" lon="-5.09450922"><ele>2174</ele><speed>14.84</speed><time>2016-06-29T12:01:58Z</time><pdop>9.0</pdop><geoidheight>54.00</geoidheight><course>31.1</course><type>1</type></trkpt>
      <trkpt lat="40.60158057" lon="-5.09430271"><ele>2171</ele><speed>17.14</speed><time>2016-06-29T12:02:00Z</time><pdop>10.0</pdop><geoidheight>54.00</geoidheight><course>32.5</course><type>1</type></trkpt>
      <trkpt lat="40.60189458" lon="-5.09404642"><ele>2170</ele><speed>19.25</speed><time>2016-06-29T12:02:02Z</time><pdop>10.0</pdop><geoidheight>54.00</geoidheight><course>35.8</course><type>1</type></trkpt>
      <trkpt lat="40.60203496" lon="-5.09390183"><ele>2169</ele><speed>18.85</speed><time>2016-06-29T12:02:03Z</time><pdop>9.0</pdop><geoidheight>54.00</geoidheight><course>38.9</course><type>1</type></trkpt>
      <trkpt lat="40.60225476" lon="-5.09361736"><ele>2165</ele><speed>17.53</speed><time>2016-06-29T12:02:05Z</time><pdop>9.0</pdop><geoidheight>54.00</geoidheight><course>41.5</course><type>1</type></trkpt>
      <trkpt lat="40.60246716" lon="-5.0933452"><ele>2157</ele><speed>16.80</speed><time>2016-06-29T12:02:07Z</time><pdop>9.0</pdop><geoidheight>54.00</geoidheight><course>43.4</course><type>1</type></trkpt>
      <trkpt lat="40.60268674" lon="-5.09307791"><ele>2147</ele><speed>17.73</speed><time>2016-06-29T12:02:09Z</time><pdop>9.0</pdop><geoidheight>54.00</geoidheight><course>42.7</course><type>1</type></trkpt>
      <trkpt lat="40.60283864" lon="-5.09294708"><ele>2145</ele><speed>18.92</speed><time>2016-06-29T12:02:10Z</time><pdop>10.0</pdop><geoidheight>54.00</geoidheight><course>38.0</course><type>1</type></trkpt>
      <trkpt lat="40.60305093" lon="-5.09279264"><ele>2133</ele><speed>24.07</speed><time>2016-06-29T12:02:11Z</time><pdop>9.0</pdop><geoidheight>54.00</geoidheight><course>31.8</course><type>1</type></trkpt>
      <trkpt lat="40.60322771" lon="-5.09265489"><ele>2128</ele><speed>23.89</speed><time>2016-06-29T12:02:12Z</time><pdop>9.0</pdop><geoidheight>54.00</geoidheight><course>31.4</course><type>1</type></trkpt>
      <trkpt lat="40.60340666" lon="-5.09250561"><ele>2128</ele><speed>22.28</speed><time>2016-06-29T12:02:13Z</time><pdop>9.0</pdop><geoidheight>54.00</geoidheight><course>32.8</course><type>1</type></trkpt>
      <trkpt lat="40.60355586" lon="-5.09236349"><ele>2127</ele><speed>20.50</speed><time>2016-06-29T12:02:14Z</time><pdop>9.0</pdop><geoidheight>54.00</geoidheight><course>34.7</course><type>1</type></trkpt>
      <trkpt lat="40.60369987" lon="-5.09223613"><ele>2125</ele><speed>19.41</speed><time>2016-06-29T12:02:15Z</time><pdop>9.0</pdop><geoidheight>54.00</geoidheight><course>36.4</course><type>1</type></trkpt>
      <trkpt lat="40.6038332" lon="-5.09209644"><ele>2120</ele><speed>19.29</speed><time>2016-06-29T12:02:16Z</time><pdop>9.0</pdop><geoidheight>54.00</geoidheight><course>37.4</course><type>1</type></trkpt>
      <trkpt lat="40.60396506" lon="-5.09195278"><ele>2117</ele><speed>19.30</speed><time>2016-06-29T12:02:17Z</time><pdop>9.0</pdop><geoidheight>54.00</geoidheight><course>37.6</course><type>1</type></trkpt>
      <trkpt lat="40.60410508" lon="-5.09181531"><ele>2112</ele><speed>19.98</speed><time>2016-06-29T12:02:18Z</time><pdop>9.0</pdop><geoidheight>54.00</geoidheight><course>36.0</course><type>1</type></trkpt>
      <trkpt lat="40.60425629" lon="-5.09168551"><ele>2106</ele><speed>20.64</speed><time>2016-06-29T12:02:19Z</time><pdop>9.0</pdop><geoidheight>54.00</geoidheight><course>33.5</course><type>1</type></trkpt>
      <trkpt lat="40.60440826" lon="-5.09156135"><ele>2101</ele><speed>21.05</speed><time>2016-06-29T12:02:20Z</time><pdop>9.0</pdop><geoidheight>54.00</geoidheight><course>32.1</course><type>1</type></trkpt>
      <trkpt lat="40.60456585" lon="-5.09143855"><ele>2099</ele><speed>20.62</speed><time>2016-06-29T12:02:21Z</time><pdop>9.0</pdop><geoidheight>54.00</geoidheight><course>31.0</course><type>1</type></trkpt>
      <trkpt lat="40.60472622" lon="-5.09133164"><ele>2097</ele><speed>19.98</speed><time>2016-06-29T12:02:22Z</time><pdop>9.0</pdop><geoidheight>54.00</geoidheight><course>29.8</course><type>1</type></trkpt>
      <trkpt lat="40.60487801" lon="-5.0912148"><ele>2094</ele><speed>19.65</speed><time>2016-06-29T12:02:23Z</time><pdop>9.0</pdop><geoidheight>54.00</geoidheight><course>30.2</course><type>1</type></trkpt>
      <trkpt lat="40.60502722" lon="-5.09109331"><ele>2091</ele><speed>19.55</speed><time>2016-06-29T12:02:24Z</time><pdop>9.0</pdop><geoidheight>54.00</geoidheight><course>31.9</course><type>1</type></trkpt>
      <trkpt lat="40.6051762" lon="-5.09095726"><ele>2088</ele><speed>19.66</speed><time>2016-06-29T12:02:25Z</time><pdop>9.0</pdop><geoidheight>54.00</geoidheight><course>33.4</course><type>1</type></trkpt>
      <trkpt lat="40.60532483" lon="-5.09083186"><ele>2222</ele><speed>20.03</speed><time>2016-06-29T12:02:26Z</time><pdop>9.0</pdop><geoidheight>54.00</geoidheight><course>32.1</course><type>1</type></trkpt>
      <trkpt lat="40.60548411" lon="-5.09070564"><ele>2172</ele><speed>20.43</speed><time>2016-06-29T12:02:27Z</time><pdop>9.0</pdop><geoidheight>54.00</geoidheight><course>31.5</course><type>1</type></trkpt>
      <trkpt lat="40.60564643" lon="-5.09058823"><ele>2141</ele><speed>20.67</speed><time>2016-06-29T12:02:28Z</time><pdop>9.0</pdop><geoidheight>54.00</geoidheight><course>31.0</course><type>1</type></trkpt>
      <trkpt lat="40.60580393" lon="-5.09045613"><ele>2120</ele><speed>20.65</speed><time>2016-06-29T12:02:29Z</time><pdop>9.0</pdop><geoidheight>54.00</geoidheight><course>32.0</course><type>1</type></trkpt>
      <trkpt lat="40.60596479" lon="-5.09032378"><ele>2114</ele><speed>21.07</speed><time>2016-06-29T12:02:30Z</time><pdop>9.0</pdop><geoidheight>54.00</geoidheight><course>33.0</course><type>1</type></trkpt>
      <trkpt lat="40.60614614" lon="-5.09015056"><ele>2105</ele><speed>23.03</speed><time>2016-06-29T12:02:31Z</time><pdop>9.0</pdop><geoidheight>54.00</geoidheight><course>34.5</course><type>1</type></trkpt>
      <trkpt lat="40.60630569" lon="-5.09000264"><ele>2100</ele><speed>22.36</speed><time>2016-06-29T12:02:32Z</time><pdop>10.0</pdop><geoidheight>54.00</geoidheight><course>35.3</course><type>1</type></trkpt>
      <trkpt lat="40.60646307" lon="-5.08988952"><ele>2094</ele><speed>21.69</speed><time>2016-06-29T12:02:33Z</time><pdop>9.0</pdop><geoidheight>54.00</geoidheight><course>32.4</course><type>1</type></trkpt>
      <trkpt lat="40.60661458" lon="-5.08975381"><ele>2091</ele><speed>21.08</speed><time>2016-06-29T12:02:34Z</time><pdop>9.0</pdop><geoidheight>54.00</geoidheight><course>30.2</course><type>1</type></trkpt>
      <trkpt lat="40.60677072" lon="-5.08962627"><ele>2084</ele><speed>20.77</speed><time>2016-06-29T12:02:35Z</time><pdop>9.0</pdop><geoidheight>54.00</geoidheight><course>31.8</course><type>1</type></trkpt>
      <trkpt lat="40.60691442" lon="-5.08949121"><ele>2080</ele><speed>20.48</speed><time>2016-06-29T12:02:36Z</time><pdop>9.0</pdop><geoidheight>54.00</geoidheight><course>33.7</course><type>1</type></trkpt>
      <trkpt lat="40.60706357" lon="-5.08934847"><ele>2075</ele><speed>20.43</speed><time>2016-06-29T12:02:37Z</time><pdop>9.0</pdop><geoidheight>54.00</geoidheight><course>34.1</course><type>1</type></trkpt>
      <trkpt lat="40.6072064" lon="-5.08920753"><ele>2069</ele><speed>20.34</speed><time>2016-06-29T12:02:38Z</time><pdop>9.0</pdop><geoidheight>54.00</geoidheight><course>33.8</course><type>1</type></trkpt>
      <trkpt lat="40.60735091" lon="-5.08907235"><ele>2066</ele><speed>20.37</speed><time>2016-06-29T12:02:39Z</time><pdop>9.0</pdop><geoidheight>54.00</geoidheight><course>33.7</course><type>1</type></trkpt>
      <trkpt lat="40.6075001" lon="-5.08893791"><ele>2063</ele><speed>20.42</speed><time>2016-06-29T12:02:40Z</time><pdop>9.0</pdop><geoidheight>54.00</geoidheight><course>33.6</course><type>1</type></trkpt>
      <trkpt lat="40.60764976" lon="-5.08880739"><ele>2062</ele><speed>20.41</speed><time>2016-06-29T12:02:41Z</time><pdop>9.0</pdop><geoidheight>54.00</geoidheight><course>33.5</course><type>1</type></trkpt>
      <trkpt lat="40.6077957" lon="-5.08868129"><ele>2055</ele><speed>20.36</speed><time>2016-06-29T12:02:42Z</time><pdop>9.0</pdop><geoidheight>54.00</geoidheight><course>32.4</course><type>1</type></trkpt>
      <trkpt lat="40.60795197" lon="-5.08856408"><ele>2051</ele><speed>20.24</speed><time>2016-06-29T12:02:43Z</time><pdop>9.0</pdop><geoidheight>54.00</geoidheight><course>30.6</course><type>1</type></trkpt>
      <trkpt lat="40.6081096" lon="-5.08844621"><ele>2050</ele><speed>20.06</speed><time>2016-06-29T12:02:44Z</time><pdop>9.0</pdop><geoidheight>54.00</geoidheight><course>29.7</course><type>1</type></trkpt>
      <trkpt lat="40.60826163" lon="-5.08834379"><ele>2048</ele><speed>19.02</speed><time>2016-06-29T12:02:45Z</time><pdop>9.0</pdop><geoidheight>54.00</geoidheight><course>26.7</course><type>1</type></trkpt>
      <trkpt lat="40.60841505" lon="-5.08826339"><ele>2045</ele><speed>17.92</speed><time>2016-06-29T12:02:46Z</time><pdop>9.0</pdop><geoidheight>54.00</geoidheight><course>22.4</course><type>1</type></trkpt>
      <trkpt lat="40.60871359" lon="-5.08815565"><ele>2042</ele><speed>16.92</speed><time>2016-06-29T12:02:48Z</time><pdop>9.0</pdop><geoidheight>54.00</geoidheight><course>15.6</course><type>1</type></trkpt>
      <trkpt lat="40.60902269" lon="-5.08806891"><ele>2037</ele><speed>17.72</speed><time>2016-06-29T12:02:50Z</time><pdop>9.0</pdop><geoidheight>54.00</geoidheight><course>13.6</course><type>1</type></trkpt>
      <trkpt lat="40.60932946" lon="-5.08798936"><ele>2030</ele><speed>17.67</speed><time>2016-06-29T12:02:52Z</time><pdop>9.0</pdop><geoidheight>54.00</geoidheight><course>9.1</course><type>1</type></trkpt>
      <trkpt lat="40.60965898" lon="-5.08795461"><ele>2027</ele><speed>17.87</speed><time>2016-06-29T12:02:54Z</time><pdop>10.0</pdop><geoidheight>54.00</geoidheight><course>6.5</course><type>1</type></trkpt>
      <trkpt lat="40.60994179" lon="-5.08787796"><ele>2021</ele><speed>16.97</speed><time>2016-06-29T12:02:56Z</time><pdop>9.0</pdop><geoidheight>54.00</geoidheight><course>11.9</course><type>1</type></trkpt>
      <trkpt lat="40.61023293" lon="-5.08780944"><ele>2018</ele><speed>16.84</speed><time>2016-06-29T12:02:58Z</time><pdop>10.0</pdop><geoidheight>54.00</geoidheight><course>9.8</course><type>1</type></trkpt>
      <trkpt lat="40.61050465" lon="-5.08778452"><ele>2012</ele><speed>15.61</speed><time>2016-06-29T12:03:00Z</time><pdop>9.0</pdop><geoidheight>54.00</geoidheight><course>4.3</course><type>1</type></trkpt>
      <trkpt lat="40.61078891" lon="-5.08775596"><ele>2011</ele><speed>15.72</speed><time>2016-06-29T12:03:02Z</time><pdop>10.0</pdop><geoidheight>54.00</geoidheight><course>5.8</course><type>1</type></trkpt>
      <trkpt lat="40.61109294" lon="-5.08769828"><ele>2011</ele><speed>16.72</speed><time>2016-06-29T12:03:04Z</time><pdop>10.0</pdop><geoidheight>54.00</geoidheight><course>8.5</course><type>1</type></trkpt>
      <trkpt lat="40.61137462" lon="-5.08762541"><ele>2006</ele><speed>16.35</speed><time>2016-06-29T12:03:06Z</time><pdop>10.0</pdop><geoidheight>54.00</geoidheight><course>10.8</course><type>1</type></trkpt>
      <trkpt lat="40.61164171" lon="-5.0875285"><ele>2002</ele><speed>15.86</speed><time>2016-06-29T12:03:08Z</time><pdop>10.0</pdop><geoidheight>54.00</geoidheight><course>16.1</course><type>1</type></trkpt>
      <trkpt lat="40.61193491" lon="-5.08741684"><ele>1997</ele><speed>16.93</speed><time>2016-06-29T12:03:10Z</time><pdop>10.0</pdop><geoidheight>54.00</geoidheight><course>17.7</course><type>1</type></trkpt>
      <trkpt lat="40.61226575" lon="-5.08730292"><ele>1994</ele><speed>18.25</speed><time>2016-06-29T12:03:12Z</time><pdop>12.0</pdop><geoidheight>54.00</geoidheight><course>16.5</course><type>1</type></trkpt>
      <trkpt lat="40.61251564" lon="-5.08719554"><ele>1990</ele><speed>16.82</speed><time>2016-06-29T12:03:14Z</time><pdop>12.0</pdop><geoidheight>54.00</geoidheight><course>16.3</course><type>1</type></trkpt>
      <trkpt lat="40.61268747" lon="-5.08696756"><ele>1991</ele><speed>12.03</speed><time>2016-06-29T12:03:16Z</time><pdop>10.0</pdop><geoidheight>54.00</geoidheight><course>40.7</course><type>1</type></trkpt>
      <trkpt lat="40.61285266" lon="-5.08681202"><ele>1994</ele><speed>11.18</speed><time>2016-06-29T12:03:18Z</time><pdop>10.0</pdop><geoidheight>54.00</geoidheight><course>36.3</course><type>1</type></trkpt>
      <trkpt lat="40.61303534" lon="-5.08665464"><ele>1994</ele><speed>12.04</speed><time>2016-06-29T12:03:20Z</time><pdop>10.0</pdop><geoidheight>54.00</geoidheight><course>33.4</course><type>1</type></trkpt>
      <trkpt lat="40.61320368" lon="-5.08641402"><ele>1996</ele><speed>14.08</speed><time>2016-06-29T12:03:22Z</time><pdop>10.0</pdop><geoidheight>54.00</geoidheight><course>51.2</course><type>1</type></trkpt>
      <trkpt lat="40.61332991" lon="-5.0860464"><ele>1997</ele><speed>17.13</speed><time>2016-06-29T12:03:24Z</time><pdop>9.0</pdop><geoidheight>54.00</geoidheight><course>65.4</course><type>1</type></trkpt>
      <trkpt lat="40.61345653" lon="-5.08567182"><ele>2001</ele><speed>16.63</speed><time>2016-06-29T12:03:26Z</time><pdop>9.0</pdop><geoidheight>54.00</geoidheight><course>64.3</course><type>1</type></trkpt>
      <trkpt lat="40.61358525" lon="-5.08535995"><ele>2003</ele><speed>14.86</speed><time>2016-06-29T12:03:28Z</time><pdop>9.0</pdop><geoidheight>54.00</geoidheight><course>59.8</course><type>1</type></trkpt>
      <trkpt lat="40.61375322" lon="-5.08511426"><ele>2005</ele><speed>13.62</speed><time>2016-06-29T12:03:30Z</time><pdop>9.0</pdop><geoidheight>54.00</geoidheight><course>43.4</course><type>1</type></trkpt>
      <trkpt lat="40.61396769" lon="-5.08490495"><ele>2006</ele><speed>14.43</speed><time>2016-06-29T12:03:32Z</time><pdop>10.0</pdop><geoidheight>54.00</geoidheight><course>33.9</course><type>1</type></trkpt>
      <trkpt lat="40.61419417" lon="-5.08488837"><ele>2008</ele><speed>12.47</speed><time>2016-06-29T12:03:34Z</time><pdop>10.0</pdop><geoidheight>54.00</geoidheight><course>11.3</course><type>1</type></trkpt>
      <trkpt lat="40.61440702" lon="-5.08493237"><ele>2009</ele><speed>10.72</speed><time>2016-06-29T12:03:36Z</time><pdop>10.0</pdop><geoidheight>54.00</geoidheight><course>1.3</course><type>1</type></trkpt>
      <trkpt lat="40.6146217" lon="-5.08495902"><ele>2097</ele><speed>6.50</speed><time>2016-06-29T12:03:40Z</time><pdop>10.0</pdop><geoidheight>54.00</geoidheight><course>344.1</course><type>1</type></trkpt>
      <trkpt lat="40.61473833" lon="-5.08514156"><ele>2045</ele><speed>5.88</speed><time>2016-06-29T12:03:43Z</time><pdop>9.0</pdop><geoidheight>54.00</geoidheight><course>305.2</course><type>1</type></trkpt>
      <trkpt lat="40.61481038" lon="-5.08539902"><ele>2034</ele><speed>5.18</speed><time>2016-06-29T12:03:48Z</time><pdop>10.0</pdop><geoidheight>54.00</geoidheight><course>287.9</course><type>1</type></trkpt>
      <trkpt lat="40.61494933" lon="-5.08562395"><ele>2034</ele><speed>6.22</speed><time>2016-06-29T12:03:52Z</time><pdop>10.0</pdop><geoidheight>54.00</geoidheight><course>327.1</course><type>1</type></trkpt>
      <trkpt lat="40.61513974" lon="-5.0856823"><ele>2038</ele><speed>7.17</speed><time>2016-06-29T12:03:55Z</time><pdop>9.0</pdop><geoidheight>54.00</geoidheight><course>348.0</course><type>1</type></trkpt>
      <trkpt lat="40.61535031" lon="-5.08573956"><ele>2177</ele><speed>7.98</speed><time>2016-06-29T12:03:58Z</time><pdop>9.0</pdop><geoidheight>54.00</geoidheight><course>356.0</course><type>1</type></trkpt>
      <trkpt lat="40.61556739" lon="-5.08575818"><ele>2109</ele><speed>8.12</speed><time>2016-06-29T12:04:01Z</time><pdop>9.0</pdop><geoidheight>54.00</geoidheight><course>357.9</course><type>1</type></trkpt>
      <trkpt lat="40.61576591" lon="-5.08579289"><ele>2083</ele><speed>6.57</speed><time>2016-06-29T12:04:04Z</time><pdop>9.0</pdop><geoidheight>54.00</geoidheight><course>352.4</course><type>1</type></trkpt>
      <trkpt lat="40.61548476" lon="-5.08577307"><ele>2074</ele><speed>9.15</speed><time>2016-06-29T12:04:11Z</time><pdop>12.0</pdop><geoidheight>54.00</geoidheight><course>151.1</course><type>1</type></trkpt>
      <trkpt lat="40.61536297" lon="-5.08549902"><ele>2072</ele><speed>11.15</speed><time>2016-06-29T12:04:13Z</time><pdop>11.0</pdop><geoidheight>54.00</geoidheight><course>123.9</course><type>1</type></trkpt>
      <trkpt lat="40.61525706" lon="-5.08507077"><ele>2072</ele><speed>16.06</speed><time>2016-06-29T12:04:15Z</time><pdop>10.0</pdop><geoidheight>54.00</geoidheight><course>103.8</course><type>1</type></trkpt>
      <trkpt lat="40.61519333" lon="-5.08464829"><ele>2075</ele><speed>17.64</speed><time>2016-06-29T12:04:17Z</time><pdop>10.0</pdop><geoidheight>54.00</geoidheight><course>96.4</course><type>1</type></trkpt>
      <trkpt lat="40.61521093" lon="-5.08420645"><ele>2078</ele><speed>17.29</speed><time>2016-06-29T12:04:19Z</time><pdop>10.0</pdop><geoidheight>54.00</geoidheight><course>84.8</course><type>1</type></trkpt>
      <trkpt lat="40.61528652" lon="-5.08381956"><ele>2082</ele><speed>16.25</speed><time>2016-06-29T12:04:21Z</time><pdop>12.0</pdop><geoidheight>54.00</geoidheight><course>77.7</course><type>1</type></trkpt>
      <trkpt lat="40.61557031" lon="-5.08351926"><ele>2089</ele><speed>11.66</speed><time>2016-06-29T12:04:24Z</time><pdop>14.0</pdop><geoidheight>54.00</geoidheight><course>44.5</course><type>1</type></trkpt>
      <trkpt lat="40.61585201" lon="-5.083475"><ele>2091</ele><speed>10.56</speed><time>2016-06-29T12:04:26Z</time><pdop>13.0</pdop><geoidheight>54.00</geoidheight><course>24.0</course><type>1</type></trkpt>
      <trkpt lat="40.61614252" lon="-5.08354888"><ele>2267</ele><speed>7.47</speed><time>2016-06-29T12:04:29Z</time><pdop>11.0</pdop><geoidheight>54.00</geoidheight><course>359.5</course><type>1</type></trkpt>
      <trkpt lat="40.6161857" lon="-5.08379579"><ele>2134</ele><speed>3.25</speed><time>2016-06-29T12:04:35Z</time><pdop>10.0</pdop><geoidheight>54.00</geoidheight><course>212.9</course><type>1</type></trkpt>
      <trkpt lat="40.61594587" lon="-5.08358278"><ele>2120</ele><speed>8.70</speed><time>2016-06-29T12:04:39Z</time><pdop>11.0</pdop><geoidheight>54.00</geoidheight><course>136.0</course><type>1</type></trkpt>
      <trkpt lat="40.61581108" lon="-5.08325754"><ele>2117</ele><speed>11.98</speed><time>2016-06-29T12:04:41Z</time><pdop>11.0</pdop><geoidheight>54.00</geoidheight><course>117.4</course><type>1</type></trkpt>
      <trkpt lat="40.61575851" lon="-5.08281565"><ele>2115</ele><speed>15.69</speed><time>2016-06-29T12:04:43Z</time><pdop>10.0</pdop><geoidheight>54.00</geoidheight><course>99.0</course><type>1</type></trkpt>
      <trkpt lat="40.6156975" lon="-5.08240158"><ele>2117</ele><speed>16.52</speed><time>2016-06-29T12:04:45Z</time><pdop>10.0</pdop><geoidheight>54.00</geoidheight><course>102.2</course><type>1</type></trkpt>
      <trkpt lat="40.6156502" lon="-5.08201924"><ele>2120</ele><speed>15.85</speed><time>2016-06-29T12:04:47Z</time><pdop>10.0</pdop><geoidheight>54.00</geoidheight><course>102.7</course><type>1</type></trkpt>
      <trkpt lat="40.61558306" lon="-5.08168775"><ele>2124</ele><speed>13.72</speed><time>2016-06-29T12:04:49Z</time><pdop>10.0</pdop><geoidheight>54.00</geoidheight><course>112.2</course><type>1</type></trkpt>
      <trkpt lat="40.61542023" lon="-5.08152445"><ele>2126</ele><speed>12.32</speed><time>2016-06-29T12:04:51Z</time><pdop>11.0</pdop><geoidheight>54.00</geoidheight><course>137.7</course><type>1</type></trkpt>
      <trkpt lat="40.61537607" lon="-5.08176765"><ele>2134</ele><speed>8.34</speed><time>2016-06-29T12:04:56Z</time><pdop>9.0</pdop><geoidheight>54.00</geoidheight><course>312.9</course><type>1</type></trkpt>
      <trkpt lat="40.61555135" lon="-5.08188972"><ele>2141</ele><speed>7.82</speed><time>2016-06-29T12:04:59Z</time><pdop>10.0</pdop><geoidheight>54.00</geoidheight><course>337.8</course><type>1</type></trkpt>
      <trkpt lat="40.61569114" lon="-5.08167587"><ele>2142</ele><speed>8.78</speed><time>2016-06-29T12:05:01Z</time><pdop>11.0</pdop><geoidheight>54.00</geoidheight><course>35.0</course><type>1</type></trkpt>
      <trkpt lat="40.61575609" lon="-5.08119532"><ele>2146</ele><speed>13.60</speed><time>2016-06-29T12:05:03Z</time><pdop>11.0</pdop><geoidheight>54.00</geoidheight><course>75.8</course><type>1</type></trkpt>
      <trkpt lat="40.61572204" lon="-5.08075555"><ele>2151</ele><speed>13.63</speed><time>2016-06-29T12:05:05Z</time><pdop>11.0</pdop><geoidheight>54.00</geoidheight><course>97.2</course><type>1</type></trkpt>
      <trkpt lat="40.61567016" lon="-5.08045765"><ele>2158</ele><speed>11.39</speed><time>2016-06-29T12:05:07Z</time><pdop>12.0</pdop><geoidheight>54.00</geoidheight><course>113.7</course><type>1</type></trkpt>
      <trkpt lat="40.61586228" lon="-5.08046491"><ele>2184</ele><speed>13.00</speed><time>2016-06-29T12:05:16Z</time><pdop>9.0</pdop><geoidheight>54.00</geoidheight><course>7.0</course><type>1</type></trkpt>
      <trkpt lat="40.61603838" lon="-5.08030037"><ele>2189</ele><speed>12.45</speed><time>2016-06-29T12:05:18Z</time><pdop>10.0</pdop><geoidheight>54.00</geoidheight><course>27.8</course><type>1</type></trkpt>
      <trkpt lat="40.61605397" lon="-5.0799805"><ele>2189</ele><speed>11.77</speed><time>2016-06-29T12:05:20Z</time><pdop>10.0</pdop><geoidheight>54.00</geoidheight><course>66.6</course><type>1</type></trkpt>
      <trkpt lat="40.61605206" lon="-5.07956613"><ele>2199</ele><speed>13.50</speed><time>2016-06-29T12:05:22Z</time><pdop>9.0</pdop><geoidheight>54.00</geoidheight><course>90.5</course><type>1</type></trkpt>
      <trkpt lat="40.61600123" lon="-5.07925232"><ele>2202</ele><speed>12.41</speed><time>2016-06-29T12:05:24Z</time><pdop>9.0</pdop><geoidheight>54.00</geoidheight><course>105.4</course><type>1</type></trkpt>
      <trkpt lat="40.61587542" lon="-5.07900876"><ele>2205</ele><speed>11.83</speed><time>2016-06-29T12:05:26Z</time><pdop>10.0</pdop><geoidheight>54.00</geoidheight><course>128.8</course><type>1</type></trkpt>
      <trkpt lat="40.61565832" lon="-5.0789011"><ele>2213</ele><speed>6.15</speed><time>2016-06-29T12:05:30Z</time><pdop>10.0</pdop><geoidheight>54.00</geoidheight><course>165.1</course><type>1</type></trkpt>
      <trkpt lat="40.61566286" lon="-5.07913373"><ele>2217</ele><speed>6.84</speed><time>2016-06-29T12:05:37Z</time><pdop>3.0</pdop><geoidheight>54.00</geoidheight><course>275.6</course><type>1</type></trkpt>
      <trkpt lat="40.61566673" lon="-5.0792211"><ele>2217</ele><speed>7.10</speed><time>2016-06-29T12:05:38Z</time><pdop>3.0</pdop><geoidheight>54.00</geoidheight><course>273.2</course><type>1</type></trkpt>
      <trkpt lat="40.6156828" lon="-5.07930044"><ele>2218</ele><speed>6.87</speed><time>2016-06-29T12:05:39Z</time><pdop>3.0</pdop><geoidheight>54.00</geoidheight><course>277.6</course><type>1</type></trkpt>
      <trkpt lat="40.61571329" lon="-5.07943833"><ele>2220</ele><speed>6.41</speed><time>2016-06-29T12:05:41Z</time><pdop>3.0</pdop><geoidheight>54.00</geoidheight><course>285.5</course><type>1</type></trkpt>
      <trkpt lat="40.61573065" lon="-5.07950937"><ele>2223</ele><speed>6.29</speed><time>2016-06-29T12:05:42Z</time><pdop>3.0</pdop><geoidheight>54.00</geoidheight><course>285.4</course><type>1</type></trkpt>
      <trkpt lat="40.61574329" lon="-5.07962239"><ele>2225</ele><speed>5.18</speed><time>2016-06-29T12:05:44Z</time><pdop>4.0</pdop><geoidheight>54.00</geoidheight><course>281.3</course><type>1</type></trkpt>
      <trkpt lat="40.61571858" lon="-5.0797671"><ele>2230</ele><speed>6.00</speed><time>2016-06-29T12:05:46Z</time><pdop>5.0</pdop><geoidheight>54.00</geoidheight><course>261.2</course><type>1</type></trkpt>
      <trkpt lat="40.6156327" lon="-5.0798831"><ele>2231</ele><speed>5.72</speed><time>2016-06-29T12:05:48Z</time><pdop>6.0</pdop><geoidheight>54.00</geoidheight><course>231.9</course><type>1</type></trkpt>
      <trkpt lat="40.61547911" lon="-5.07997756"><ele>2236</ele><speed>7.22</speed><time>2016-06-29T12:05:50Z</time><pdop>4.0</pdop><geoidheight>54.00</geoidheight><course>211.0</course><type>1</type></trkpt>
      <trkpt lat="40.6153758" lon="-5.08006331"><ele>2241</ele><speed>6.04</speed><time>2016-06-29T12:05:52Z</time><pdop>4.0</pdop><geoidheight>54.00</geoidheight><course>220.2</course><type>1</type></trkpt>
      <trkpt lat="40.61533186" lon="-5.08016251"><ele>2245</ele><speed>3.94</speed><time>2016-06-29T12:05:54Z</time><pdop>3.0</pdop><geoidheight>54.00</geoidheight><course>245.8</course><type>1</type></trkpt>
      <trkpt lat="40.61534283" lon="-5.08025622"><ele>2252</ele><speed>5.34</speed><time>2016-06-29T12:05:56Z</time><pdop>3.0</pdop><geoidheight>54.00</geoidheight><course>292.3</course><type>1</type></trkpt>
      <trkpt lat="40.61538119" lon="-5.08031738"><ele>2254</ele><speed>7.11</speed><time>2016-06-29T12:05:57Z</time><pdop>3.0</pdop><geoidheight>54.00</geoidheight><course>307.9</course><type>1</type></trkpt>
      <trkpt lat="40.61543903" lon="-5.08037047"><ele>2256</ele><speed>8.07</speed><time>2016-06-29T12:05:58Z</time><pdop>3.0</pdop><geoidheight>54.00</geoidheight><course>322.0</course><type>1</type></trkpt>
      <trkpt lat="40.61550996" lon="-5.08039313"><ele>2261</ele><speed>8.90</speed><time>2016-06-29T12:05:59Z</time><pdop>3.0</pdop><geoidheight>54.00</geoidheight><course>343.2</course><type>1</type></trkpt>
      <trkpt lat="40.6155997" lon="-5.08037441"><ele>2263</ele><speed>10.44</speed><time>2016-06-29T12:06:00Z</time><pdop>3.0</pdop><geoidheight>54.00</geoidheight><course>7.5</course><type>1</type></trkpt>
      <trkpt lat="40.61569316" lon="-5.08035035"><ele>2265</ele><speed>11.24</speed><time>2016-06-29T12:06:01Z</time><pdop>3.0</pdop><geoidheight>54.00</geoidheight><course>11.2</course><type>1</type></trkpt>
      <trkpt lat="40.61577492" lon="-5.08014991"><ele>2267</ele><speed>16.02</speed><time>2016-06-29T12:06:02Z</time><pdop>3.0</pdop><geoidheight>54.00</geoidheight><course>48.9</course><type>1</type></trkpt>
      <trkpt lat="40.61586173" lon="-5.07998148"><ele>2269</ele><speed>17.10</speed><time>2016-06-29T12:06:03Z</time><pdop>3.0</pdop><geoidheight>54.00</geoidheight><course>55.2</course><type>1</type></trkpt>
      <trkpt lat="40.61586257" lon="-5.07978587"><ele>2272</ele><speed>15.98</speed><time>2016-06-29T12:06:04Z</time><pdop>3.0</pdop><geoidheight>54.00</geoidheight><course>77.2</course><type>1</type></trkpt>
      <trkpt lat="40.61586167" lon="-5.07961071"><ele>2275</ele><speed>14.80</speed><time>2016-06-29T12:06:05Z</time><pdop>3.0</pdop><geoidheight>54.00</geoidheight><course>89.6</course><type>1</type></trkpt>
      <trkpt lat="40.6158384" lon="-5.07944331"><ele>2277</ele><speed>14.05</speed><time>2016-06-29T12:06:06Z</time><pdop>3.0</pdop><geoidheight>54.00</geoidheight><course>100.8</course><type>1</type></trkpt>
      <trkpt lat="40.61579086" lon="-5.07929197"><ele>2279</ele><speed>13.34</speed><time>2016-06-29T12:06:07Z</time><pdop>3.0</pdop><geoidheight>54.00</geoidheight><course>110.9</course><type>1</type></trkpt>
      <trkpt lat="40.61573242" lon="-5.0791764"><ele>2281</ele><speed>12.22</speed><time>2016-06-29T12:06:08Z</time><pdop>3.0</pdop><geoidheight>54.00</geoidheight><course>122.7</course><type>1</type></trkpt>
      <trkpt lat="40.61566099" lon="-5.07908142"><ele>2283</ele><speed>11.52</speed><time>2016-06-29T12:06:09Z</time><pdop>3.0</pdop><geoidheight>54.00</geoidheight><course>134.2</course><type>1</type></trkpt>
      <trkpt lat="40.61558396" lon="-5.0790046"><ele>2285</ele><speed>10.81</speed><time>2016-06-29T12:06:10Z</time><pdop>3.0</pdop><geoidheight>54.00</geoidheight><course>142.3</course><type>1</type></trkpt>
      <trkpt lat="40.61551276" lon="-5.07895432"><ele>2288</ele><speed>9.25</speed><time>2016-06-29T12:06:11Z</time><pdop>3.0</pdop><geoidheight>54.00</geoidheight><course>151.0</course><type>1</type></trkpt>
      <trkpt lat="40.61545438" lon="-5.07895175"><ele>2290</ele><speed>6.84</speed><time>2016-06-29T12:06:12Z</time><pdop>3.0</pdop><geoidheight>54.00</geoidheight><course>180.3</course><type>1</type></trkpt>
      <trkpt lat="40.6153936" lon="-5.07895204"><ele>2290</ele><speed>6.77</speed><time>2016-06-29T12:06:13Z</time><pdop>3.0</pdop><geoidheight>54.00</geoidheight><course>180.2</course><type>1</type></trkpt>
      <trkpt lat="40.6153829" lon="-5.07903121"><ele>2292</ele><speed>5.36</speed><time>2016-06-29T12:06:14Z</time><pdop>3.0</pdop><geoidheight>54.00</geoidheight><course>247.1</course><type>1</type></trkpt>
      <trkpt lat="40.61545783" lon="-5.07914259"><ele>2297</ele><speed>8.72</speed><time>2016-06-29T12:06:16Z</time><pdop>3.0</pdop><geoidheight>54.00</geoidheight><course>329.2</course><type>1</type></trkpt>
      <trkpt lat="40.61552263" lon="-5.07919328"><ele>2299</ele><speed>8.52</speed><time>2016-06-29T12:06:17Z</time><pdop>4.0</pdop><geoidheight>54.00</geoidheight><course>329.2</course><type>1</type></trkpt>
      <trkpt lat="40.61564179" lon="-5.07914323"><ele>2299</ele><speed>11.26</speed><time>2016-06-29T12:06:18Z</time><pdop>3.0</pdop><geoidheight>54.00</geoidheight><course>13.8</course><type>1</type></trkpt>
      <trkpt lat="40.61574027" lon="-5.07911151"><ele>2299</ele><speed>11.26</speed><time>2016-06-29T12:06:19Z</time><pdop>4.0</pdop><geoidheight>54.00</geoidheight><course>13.8</course><type>1</type></trkpt>
      <trkpt lat="40.61582865" lon="-5.07897463"><ele>2301</ele><speed>14.39</speed><time>2016-06-29T12:06:20Z</time><pdop>3.0</pdop><geoidheight>54.00</geoidheight><course>45.1</course><type>1</type></trkpt>
      <trkpt lat="40.61591991" lon="-5.07885427"><ele>2301</ele><speed>14.37</speed><time>2016-06-29T12:06:21Z</time><pdop>4.0</pdop><geoidheight>54.00</geoidheight><course>45.1</course><type>1</type></trkpt>
      <trkpt lat="40.61594862" lon="-5.07870093"><ele>2303</ele><speed>13.56</speed><time>2016-06-29T12:06:22Z</time><pdop>5.0</pdop><geoidheight>54.00</geoidheight><course>67.8</course><type>1</type></trkpt>
      <trkpt lat="40.61597963" lon="-5.07852293"><ele>2304</ele><speed>14.45</speed><time>2016-06-29T12:06:23Z</time><pdop>5.0</pdop><geoidheight>54.00</geoidheight><course>73.8</course><type>1</type></trkpt>
      <trkpt lat="40.61598035" lon="-5.07833792"><ele>2306</ele><speed>14.68</speed><time>2016-06-29T12:06:24Z</time><pdop>6.0</pdop><geoidheight>54.00</geoidheight><course>82.1</course><type>1</type></trkpt>
      <trkpt lat="40.61596741" lon="-5.0781788"><ele>2307</ele><speed>13.69</speed><time>2016-06-29T12:06:25Z</time><pdop>6.0</pdop><geoidheight>54.00</geoidheight><course>91.1</course><type>1</type></trkpt>
      <trkpt lat="40.61594867" lon="-5.07800904"><ele>2310</ele><speed>14.25</speed><time>2016-06-29T12:06:26Z</time><pdop>5.0</pdop><geoidheight>54.00</geoidheight><course>103.9</course><type>1</type></trkpt>
      <trkpt lat="40.61591124" lon="-5.07788112"><ele>2313</ele><speed>13.13</speed><time>2016-06-29T12:06:27Z</time><pdop>5.0</pdop><geoidheight>54.00</geoidheight><course>114.4</course><type>1</type></trkpt>
      <trkpt lat="40.61585666" lon="-5.07778036"><ele>2315</ele><speed>11.97</speed><time>2016-06-29T12:06:28Z</time><pdop>5.0</pdop><geoidheight>54.00</geoidheight><course>126.7</course><type>1</type></trkpt>
      <trkpt lat="40.61573109" lon="-5.07764891"><ele>2323</ele><speed>8.90</speed><time>2016-06-29T12:06:30Z</time><pdop>4.0</pdop><geoidheight>54.00</geoidheight><course>150.9</course><type>1</type></trkpt>
      <trkpt lat="40.6156672" lon="-5.07759185"><ele>2325</ele><speed>7.19</speed><time>2016-06-29T12:06:31Z</time><pdop>4.0</pdop><geoidheight>54.00</geoidheight><course>161.0</course><type>1</type></trkpt>
      <trkpt lat="40.61559686" lon="-5.07761742"><ele>2326</ele><speed>3.42</speed><time>2016-06-29T12:06:33Z</time><pdop>4.0</pdop><geoidheight>54.00</geoidheight><course>222.2</course><type>1</type></trkpt>
      <trkpt lat="40.61570986" lon="-5.07779493"><ele>2328</ele><speed>7.99</speed><time>2016-06-29T12:06:37Z</time><pdop>7.0</pdop><geoidheight>54.00</geoidheight><course>321.5</course><type>1</type></trkpt>
      <trkpt lat="40.61592916" lon="-5.07769518"><ele>2328</ele><speed>13.85</speed><time>2016-06-29T12:06:39Z</time><pdop>5.0</pdop><geoidheight>54.00</geoidheight><course>18.0</course><type>1</type></trkpt>
      <trkpt lat="40.61600792" lon="-5.07761947"><ele>2330</ele><speed>13.91</speed><time>2016-06-29T12:06:40Z</time><pdop>5.0</pdop><geoidheight>54.00</geoidheight><course>36.8</course><type>1</type></trkpt>
      <trkpt lat="40.61610752" lon="-5.07752153"><ele>2331</ele><speed>13.84</speed><time>2016-06-29T12:06:41Z</time><pdop>5.0</pdop><geoidheight>54.00</geoidheight><course>36.8</course><type>1</type></trkpt>
      <trkpt lat="40.6161658" lon="-5.07738349"><ele>2333</ele><speed>14.21</speed><time>2016-06-29T12:06:42Z</time><pdop>5.0</pdop><geoidheight>54.00</geoidheight><course>52.1</course><type>1</type></trkpt>
      <trkpt lat="40.61624436" lon="-5.07725088"><ele>2333</ele><speed>14.21</speed><time>2016-06-29T12:06:43Z</time><pdop>7.0</pdop><geoidheight>54.00</geoidheight><course>52.1</course><type>1</type></trkpt>
      <trkpt lat="40.61629567" lon="-5.07690031"><ele>2334</ele><speed>15.52</speed><time>2016-06-29T12:06:45Z</time><pdop>5.0</pdop><geoidheight>54.00</geoidheight><course>77.0</course><type>1</type></trkpt>
      <trkpt lat="40.61632405" lon="-5.07670962"><ele>2336</ele><speed>16.37</speed><time>2016-06-29T12:06:46Z</time><pdop>5.0</pdop><geoidheight>54.00</geoidheight><course>85.8</course><type>1</type></trkpt>
      <trkpt lat="40.61633132" lon="-5.07652914"><ele>2335</ele><speed>15.90</speed><time>2016-06-29T12:06:47Z</time><pdop>5.0</pdop><geoidheight>54.00</geoidheight><course>89.3</course><type>1</type></trkpt>
      <trkpt lat="40.61631306" lon="-5.0763463"><ele>2339</ele><speed>15.64</speed><time>2016-06-29T12:06:48Z</time><pdop>5.0</pdop><geoidheight>54.00</geoidheight><course>98.5</course><type>1</type></trkpt>
      <trkpt lat="40.61628852" lon="-5.07618483"><ele>2342</ele><speed>14.61</speed><time>2016-06-29T12:06:49Z</time><pdop>5.0</pdop><geoidheight>54.00</geoidheight><course>107.6</course><type>1</type></trkpt>
      <trkpt lat="40.61624183" lon="-5.0760644"><ele>2345</ele><speed>12.26</speed><time>2016-06-29T12:06:50Z</time><pdop>4.0</pdop><geoidheight>54.00</geoidheight><course>121.6</course><type>1</type></trkpt>
      <trkpt lat="40.61619147" lon="-5.07595696"><ele>2348</ele><speed>10.37</speed><time>2016-06-29T12:06:51Z</time><pdop>4.0</pdop><geoidheight>54.00</geoidheight><course>133.7</course><type>1</type></trkpt>
      <trkpt lat="40.61612848" lon="-5.07587052"><ele>2350</ele><speed>10.21</speed><time>2016-06-29T12:06:52Z</time><pdop>5.0</pdop><geoidheight>54.00</geoidheight><course>133.7</course><type>1</type></trkpt>
      <trkpt lat="40.61604271" lon="-5.07586135"><ele>2358</ele><speed>5.35</speed><time>2016-06-29T12:06:54Z</time><pdop>4.0</pdop><geoidheight>54.00</geoidheight><course>186.6</course><type>1</type></trkpt>
      <trkpt lat="40.61603355" lon="-5.07594381"><ele>2363</ele><speed>5.67</speed><time>2016-06-29T12:06:56Z</time><pdop>3.0</pdop><geoidheight>54.00</geoidheight><course>279.2</course><type>1</type></trkpt>
      <trkpt lat="40.61612792" lon="-5.07605318"><ele>2368</ele><speed>9.80</speed><time>2016-06-29T12:06:58Z</time><pdop>3.0</pdop><geoidheight>54.00</geoidheight><course>332.3</course><type>1</type></trkpt>
      <trkpt lat="40.61621779" lon="-5.07608668"><ele>2371</ele><speed>11.80</speed><time>2016-06-29T12:06:59Z</time><pdop>3.0</pdop><geoidheight>54.00</geoidheight><course>351.1</course><type>1</type></trkpt>
      <trkpt lat="40.61632988" lon="-5.07606337"><ele>2373</ele><speed>13.97</speed><time>2016-06-29T12:07:00Z</time><pdop>3.0</pdop><geoidheight>54.00</geoidheight><course>14.1</course><type>1</type></trkpt>
      <trkpt lat="40.61644916" lon="-5.07598784"><ele>2375</ele><speed>15.13</speed><time>2016-06-29T12:07:01Z</time><pdop>3.0</pdop><geoidheight>54.00</geoidheight><course>31.4</course><type>1</type></trkpt>
      <trkpt lat="40.61655027" lon="-5.07590474"><ele>2378</ele><speed>14.82</speed><time>2016-06-29T12:07:02Z</time><pdop>4.0</pdop><geoidheight>54.00</geoidheight><course>33.5</course><type>1</type></trkpt>
      <trkpt lat="40.61666143" lon="-5.07580827"><ele>2378</ele><speed>14.80</speed><time>2016-06-29T12:07:03Z</time><pdop>6.0</pdop><geoidheight>54.00</geoidheight><course>33.5</course><type>1</type></trkpt>
      <trkpt lat="40.61671714" lon="-5.07557865"><ele>2380</ele><speed>16.79</speed><time>2016-06-29T12:07:04Z</time><pdop>6.0</pdop><geoidheight>54.00</geoidheight><course>56.0</course><type>1</type></trkpt>
      <trkpt lat="40.61680164" lon="-5.07541417"><ele>2380</ele><speed>16.79</speed><time>2016-06-29T12:07:05Z</time><pdop>9.0</pdop><geoidheight>54.00</geoidheight><course>56.0</course><type>1</type></trkpt>
      <trkpt lat="40.61673161" lon="-5.0752371"><ele>2381</ele><speed>15.63</speed><time>2016-06-29T12:07:06Z</time><pdop>6.0</pdop><geoidheight>54.00</geoidheight><course>79.6</course><type>1</type></trkpt>
      <trkpt lat="40.61675706" lon="-5.07505553"><ele>2381</ele><speed>15.63</speed><time>2016-06-29T12:07:07Z</time><pdop>6.0</pdop><geoidheight>54.00</geoidheight><course>79.6</course><type>1</type></trkpt>
      <trkpt lat="40.61675147" lon="-5.07484903"><ele>2388</ele><speed>15.72</speed><time>2016-06-29T12:07:08Z</time><pdop>4.0</pdop><geoidheight>54.00</geoidheight><course>87.7</course><type>1</type></trkpt>
      <trkpt lat="40.61674797" lon="-5.07465871"><ele>2389</ele><speed>15.50</speed><time>2016-06-29T12:07:09Z</time><pdop>5.0</pdop><geoidheight>54.00</geoidheight><course>89.5</course><type>1</type></trkpt>
      <trkpt lat="40.61672216" lon="-5.07452009"><ele>2393</ele><speed>13.23</speed><time>2016-06-29T12:07:10Z</time><pdop>4.0</pdop><geoidheight>54.00</geoidheight><course>97.2</course><type>1</type></trkpt>
      <trkpt lat="40.61670169" lon="-5.07437777"><ele>2395</ele><speed>11.61</speed><time>2016-06-29T12:07:11Z</time><pdop>4.0</pdop><geoidheight>54.00</geoidheight><course>103.6</course><type>1</type></trkpt>
      <trkpt lat="40.6166623" lon="-5.07427224"><ele>2397</ele><speed>9.19</speed><time>2016-06-29T12:07:12Z</time><pdop>4.0</pdop><geoidheight>54.00</geoidheight><course>118.8</course><type>1</type></trkpt>
      <trkpt lat="40.61661728" lon="-5.07418421"><ele>2398</ele><speed>7.56</speed><time>2016-06-29T12:07:13Z</time><pdop>4.0</pdop><geoidheight>54.00</geoidheight><course>139.3</course><type>1</type></trkpt>
      <trkpt lat="40.61651127" lon="-5.07412384"><ele>2398</ele><speed>6.25</speed><time>2016-06-29T12:07:15Z</time><pdop>4.0</pdop><geoidheight>54.00</geoidheight><course>187.2</course><type>1</type></trkpt>
      <trkpt lat="40.61645351" lon="-5.07422778"><ele>2406</ele><speed>3.94</speed><time>2016-06-29T12:07:18Z</time><pdop>5.0</pdop><geoidheight>54.00</geoidheight><course>248.1</course><type>1</type></trkpt>
      <trkpt lat="40.6165424" lon="-5.07435371"><ele>2410</ele><speed>7.87</speed><time>2016-06-29T12:07:20Z</time><pdop>3.0</pdop><geoidheight>54.00</geoidheight><course>299.3</course><type>1</type></trkpt>
      <trkpt lat="40.61659356" lon="-5.07443842"><ele>2411</ele><speed>9.07</speed><time>2016-06-29T12:07:21Z</time><pdop>3.0</pdop><geoidheight>54.00</geoidheight><course>306.7</course><type>1</type></trkpt>
      <trkpt lat="40.61664867" lon="-5.07452167"><ele>2412</ele><speed>10.14</speed><time>2016-06-29T12:07:22Z</time><pdop>3.0</pdop><geoidheight>54.00</geoidheight><course>315.1</course><type>1</type></trkpt>
      <trkpt lat="40.61671249" lon="-5.07460515"><ele>2413</ele><speed>10.04</speed><time>2016-06-29T12:07:23Z</time><pdop>4.0</pdop><geoidheight>54.00</geoidheight><course>315.1</course><type>1</type></trkpt>
      <trkpt lat="40.61684624" lon="-5.07457566"><ele>2417</ele><speed>12.74</speed><time>2016-06-29T12:07:24Z</time><pdop>4.0</pdop><geoidheight>54.00</geoidheight><course>357.5</course><type>1</type></trkpt>
      <trkpt lat="40.61696073" lon="-5.0745261"><ele>2420</ele><speed>14.49</speed><time>2016-06-29T12:07:25Z</time><pdop>4.0</pdop><geoidheight>54.00</geoidheight><course>22.2</course><type>1</type></trkpt>
      <trkpt lat="40.61706115" lon="-5.0744252"><ele>2422</ele><speed>15.34</speed><time>2016-06-29T12:07:26Z</time><pdop>4.0</pdop><geoidheight>54.00</geoidheight><course>38.9</course><type>1</type></trkpt>
      <trkpt lat="40.61716809" lon="-5.07431161"><ele>2423</ele><speed>15.30</speed><time>2016-06-29T12:07:27Z</time><pdop>6.0</pdop><geoidheight>54.00</geoidheight><course>38.9</course><type>1</type></trkpt>
      <trkpt lat="40.61724603" lon="-5.07414378"><ele>2422</ele><speed>16.82</speed><time>2016-06-29T12:07:28Z</time><pdop>7.0</pdop><geoidheight>54.00</geoidheight><course>54.5</course><type>1</type></trkpt>
      <trkpt lat="40.61732132" lon="-5.07394609"><ele>2423</ele><speed>18.11</speed><time>2016-06-29T12:07:29Z</time><pdop>8.0</pdop><geoidheight>54.00</geoidheight><course>60.3</course><type>1</type></trkpt>
      <trkpt lat="40.61735006" lon="-5.07362716"><ele>2426</ele><speed>14.11</speed><time>2016-06-29T12:07:31Z</time><pdop>8.0</pdop><geoidheight>54.00</geoidheight><course>73.2</course><type>1</type></trkpt>
      <trkpt lat="40.61733869" lon="-5.07338248"><ele>2426</ele><speed>10.26</speed><time>2016-06-29T12:07:33Z</time><pdop>7.0</pdop><geoidheight>54.00</geoidheight><course>80.0</course><type>1</type></trkpt>
      <trkpt lat="40.61719978" lon="-5.07331715"><ele>2428</ele><speed>9.02</speed><time>2016-06-29T12:07:34Z</time><pdop>7.0</pdop><geoidheight>54.00</geoidheight><course>122.4</course><type>1</type></trkpt>
      <trkpt lat="40.61702989" lon="-5.07328941"><ele>2431</ele><speed>7.67</speed><time>2016-06-29T12:07:36Z</time><pdop>7.0</pdop><geoidheight>54.00</geoidheight><course>179.6</course><type>1</type></trkpt>
      <trkpt lat="40.61706276" lon="-5.0734268"><ele>2434</ele><speed>5.59</speed><time>2016-06-29T12:07:37Z</time><pdop>5.0</pdop><geoidheight>54.00</geoidheight><course>250.7</course><type>1</type></trkpt>
      <trkpt lat="40.61709665" lon="-5.07354454"><ele>2438</ele><speed>8.71</speed><time>2016-06-29T12:07:39Z</time><pdop>4.0</pdop><geoidheight>54.00</geoidheight><course>312.6</course><type>1</type></trkpt>
      <trkpt lat="40.6171766" lon="-5.07359427"><ele>2441</ele><speed>11.35</speed><time>2016-06-29T12:07:40Z</time><pdop>4.0</pdop><geoidheight>54.00</geoidheight><course>339.3</course><type>1</type></trkpt>
      <trkpt lat="40.61725231" lon="-5.07362983"><ele>2446</ele><speed>11.23</speed><time>2016-06-29T12:07:41Z</time><pdop>4.0</pdop><geoidheight>54.00</geoidheight><course>346.3</course><type>1</type></trkpt>
      <trkpt lat="40.61739356" lon="-5.07358237"><ele>2450</ele><speed>9.38</speed><time>2016-06-29T12:07:43Z</time><pdop>8.0</pdop><geoidheight>54.00</geoidheight><course>7.6</course><type>1</type></trkpt>
      <trkpt lat="40.6174609" lon="-5.07327392"><ele>2453</ele><speed>11.98</speed><time>2016-06-29T12:07:45Z</time><pdop>12.0</pdop><geoidheight>54.00</geoidheight><course>66.6</course><type>1</type></trkpt>
      <trkpt lat="40.61752359" lon="-5.07291798"><ele>2454</ele><speed>12.43</speed><time>2016-06-29T12:07:47Z</time><pdop>12.0</pdop><geoidheight>54.00</geoidheight><course>87.0</course><type>1</type></trkpt>
      <trkpt lat="40.61742229" lon="-5.07269138"><ele>2458</ele><speed>9.39</speed><time>2016-06-29T12:07:49Z</time><pdop>9.0</pdop><geoidheight>54.00</geoidheight><course>152.7</course><type>1</type></trkpt>
      <trkpt lat="40.6176043" lon="-5.0728094"><ele>2470</ele><speed>14.08</speed><time>2016-06-29T12:07:55Z</time><pdop>7.0</pdop><geoidheight>54.00</geoidheight><course>0.4</course><type>1</type></trkpt>
      <trkpt lat="40.6178065" lon="-5.07265363"><ele>2474</ele><speed>16.23</speed><time>2016-06-29T12:07:57Z</time><pdop>5.0</pdop><geoidheight>54.00</geoidheight><course>34.0</course><type>1</type></trkpt>
      <trkpt lat="40.61787191" lon="-5.07250365"><ele>2475</ele><speed>16.17</speed><time>2016-06-29T12:07:58Z</time><pdop>6.0</pdop><geoidheight>54.00</geoidheight><course>47.8</course><type>1</type></trkpt>
      <trkpt lat="40.617946" lon="-5.07236403"><ele>2477</ele><speed>15.39</speed><time>2016-06-29T12:07:59Z</time><pdop>7.0</pdop><geoidheight>54.00</geoidheight><course>54.4</course><type>1</type></trkpt>
      <trkpt lat="40.61790313" lon="-5.07218463"><ele>2479</ele><speed>14.45</speed><time>2016-06-29T12:08:00Z</time><pdop>5.0</pdop><geoidheight>54.00</geoidheight><course>89.4</course><type>1</type></trkpt>
      <trkpt lat="40.61788714" lon="-5.07202679"><ele>2481</ele><speed>13.83</speed><time>2016-06-29T12:08:01Z</time><pdop>5.0</pdop><geoidheight>54.00</geoidheight><course>102.5</course><type>1</type></trkpt>
      <trkpt lat="40.61786362" lon="-5.07188789"><ele>2484</ele><speed>12.51</speed><time>2016-06-29T12:08:02Z</time><pdop>5.0</pdop><geoidheight>54.00</geoidheight><course>108.9</course><type>1</type></trkpt>
      <trkpt lat="40.61787419" lon="-5.07175573"><ele>2484</ele><speed>10.83</speed><time>2016-06-29T12:08:03Z</time><pdop>6.0</pdop><geoidheight>54.00</geoidheight><course>109.6</course><type>1</type></trkpt>
      <trkpt lat="40.61775315" lon="-5.07176598"><ele>2488</ele><speed>6.29</speed><time>2016-06-29T12:08:05Z</time><pdop>5.0</pdop><geoidheight>54.00</geoidheight><course>195.3</course><type>1</type></trkpt>
      <trkpt lat="40.61772974" lon="-5.07187833"><ele>2492</ele><speed>6.38</speed><time>2016-06-29T12:08:07Z</time><pdop>4.0</pdop><geoidheight>54.00</geoidheight><course>283.9</course><type>1</type></trkpt>
      <trkpt lat="40.61778871" lon="-5.07194151"><ele>2495</ele><speed>8.34</speed><time>2016-06-29T12:08:08Z</time><pdop>4.0</pdop><geoidheight>54.00</geoidheight><course>319.3</course><type>1</type></trkpt>
      <trkpt lat="40.61786463" lon="-5.07198412"><ele>2496</ele><speed>9.99</speed><time>2016-06-29T12:08:09Z</time><pdop>4.0</pdop><geoidheight>54.00</geoidheight><course>340.5</course><type>1</type></trkpt>
      <trkpt lat="40.61795595" lon="-5.07199709"><ele>2499</ele><speed>11.68</speed><time>2016-06-29T12:08:10Z</time><pdop>3.0</pdop><geoidheight>54.00</geoidheight><course>359.2</course><type>1</type></trkpt>
      <trkpt lat="40.61806357" lon="-5.07197175"><ele>2501</ele><speed>12.65</speed><time>2016-06-29T12:08:11Z</time><pdop>3.0</pdop><geoidheight>54.00</geoidheight><course>12.5</course><type>1</type></trkpt>
      <trkpt lat="40.6181787" lon="-5.07193162"><ele>2502</ele><speed>13.63</speed><time>2016-06-29T12:08:12Z</time><pdop>4.0</pdop><geoidheight>54.00</geoidheight><course>18.4</course><type>1</type></trkpt>
      <trkpt lat="40.61829507" lon="-5.07188086"><ele>2503</ele><speed>13.62</speed><time>2016-06-29T12:08:13Z</time><pdop>6.0</pdop><geoidheight>54.00</geoidheight><course>18.4</course><type>1</type></trkpt>
      <trkpt lat="40.61830908" lon="-5.07162992"><ele>2507</ele><speed>15.14</speed><time>2016-06-29T12:08:14Z</time><pdop>4.0</pdop><geoidheight>54.00</geoidheight><course>58.6</course><type>1</type></trkpt>
      <trkpt lat="40.61838001" lon="-5.07147735"><ele>2508</ele><speed>15.13</speed><time>2016-06-29T12:08:15Z</time><pdop>5.0</pdop><geoidheight>54.00</geoidheight><course>58.6</course><type>1</type></trkpt>
      <trkpt lat="40.61839089" lon="-5.07127623"><ele>2511</ele><speed>15.74</speed><time>2016-06-29T12:08:16Z</time><pdop>4.0</pdop><geoidheight>54.00</geoidheight><course>74.6</course><type>1</type></trkpt>
      <trkpt lat="40.61842509" lon="-5.07110177"><ele>2512</ele><speed>14.74</speed><time>2016-06-29T12:08:17Z</time><pdop>4.0</pdop><geoidheight>54.00</geoidheight><course>80.3</course><type>1</type></trkpt>
      <trkpt lat="40.61842964" lon="-5.07094915"><ele>2513</ele><speed>13.42</speed><time>2016-06-29T12:08:18Z</time><pdop>4.0</pdop><geoidheight>54.00</geoidheight><course>85.5</course><type>1</type></trkpt>
      <trkpt lat="40.61843996" lon="-5.07078844"><ele>2513</ele><speed>13.21</speed><time>2016-06-29T12:08:19Z</time><pdop>5.0</pdop><geoidheight>54.00</geoidheight><course>86.6</course><type>1</type></trkpt>
      <trkpt lat="40.61844701" lon="-5.07063276"><ele>2513</ele><speed>13.20</speed><time>2016-06-29T12:08:20Z</time><pdop>8.0</pdop><geoidheight>54.00</geoidheight><course>86.6</course><type>1</type></trkpt>
      <trkpt lat="40.61829051" lon="-5.07047188"><ele>2518</ele><speed>9.95</speed><time>2016-06-29T12:08:22Z</time><pdop>4.0</pdop><geoidheight>54.00</geoidheight><course>140.4</course><type>1</type></trkpt>
      <trkpt lat="40.61821286" lon="-5.07040923"><ele>2517</ele><speed>9.86</speed><time>2016-06-29T12:08:23Z</time><pdop>4.0</pdop><geoidheight>54.00</geoidheight><course>146.6</course><type>1</type></trkpt>
      <trkpt lat="40.61813894" lon="-5.07034533"><ele>2518</ele><speed>9.84</speed><time>2016-06-29T12:08:24Z</time><pdop>5.0</pdop><geoidheight>54.00</geoidheight><course>146.6</course><type>1</type></trkpt>
      <trkpt lat="40.61803589" lon="-5.07042423"><ele>2518</ele><speed>6.32</speed><time>2016-06-29T12:08:26Z</time><pdop>4.0</pdop><geoidheight>54.00</geoidheight><course>216.6</course><type>1</type></trkpt>
      <trkpt lat="40.61794578" lon="-5.07050597"><ele>2518</ele><speed>5.87</speed><time>2016-06-29T12:08:28Z</time><pdop>6.0</pdop><geoidheight>54.00</geoidheight><course>220.4</course><type>1</type></trkpt>
      <trkpt lat="40.61812201" lon="-5.07069316"><ele>2518</ele><speed>8.38</speed><time>2016-06-29T12:08:30Z</time><pdop>6.0</pdop><geoidheight>54.00</geoidheight><course>316.4</course><type>1</type></trkpt>
      <trkpt lat="40.61829287" lon="-5.07063415"><ele>2522</ele><speed>13.88</speed><time>2016-06-29T12:08:31Z</time><pdop>4.0</pdop><geoidheight>54.00</geoidheight><course>6.3</course><type>1</type></trkpt>
      <trkpt lat="40.61841703" lon="-5.07061609"><ele>2522</ele><speed>13.87</speed><time>2016-06-29T12:08:32Z</time><pdop>5.0</pdop><geoidheight>54.00</geoidheight><course>6.3</course><type>1</type></trkpt>
      <trkpt lat="40.61852227" lon="-5.07049016"><ele>2524</ele><speed>14.96</speed><time>2016-06-29T12:08:33Z</time><pdop>4.0</pdop><geoidheight>54.00</geoidheight><course>29.9</course><type>1</type></trkpt>
      <trkpt lat="40.61863478" lon="-5.07038513"><ele>2524</ele><speed>15.17</speed><time>2016-06-29T12:08:34Z</time><pdop>4.0</pdop><geoidheight>54.00</geoidheight><course>38.4</course><type>1</type></trkpt>
      <trkpt lat="40.61871905" lon="-5.07025799"><ele>2522</ele><speed>15.03</speed><time>2016-06-29T12:08:35Z</time><pdop>4.0</pdop><geoidheight>54.00</geoidheight><course>45.1</course><type>1</type></trkpt>
      <trkpt lat="40.61879551" lon="-5.07011534"><ele>2523</ele><speed>15.15</speed><time>2016-06-29T12:08:36Z</time><pdop>5.0</pdop><geoidheight>54.00</geoidheight><course>48.9</course><type>1</type></trkpt>
      <trkpt lat="40.61888625" lon="-5.06998166"><ele>2522</ele><speed>15.63</speed><time>2016-06-29T12:08:37Z</time><pdop>5.0</pdop><geoidheight>54.00</geoidheight><course>47.9</course><type>1</type></trkpt>
      <trkpt lat="40.6189814" lon="-5.06986133"><ele>2522</ele><speed>14.77</speed><time>2016-06-29T12:08:38Z</time><pdop>6.0</pdop><geoidheight>54.00</geoidheight><course>45.3</course><type>1</type></trkpt>
      <trkpt lat="40.61906993" lon="-5.06973995"><ele>2523</ele><speed>14.34</speed><time>2016-06-29T12:08:39Z</time><pdop>7.0</pdop><geoidheight>54.00</geoidheight><course>45.8</course><type>1</type></trkpt>
      <trkpt lat="40.61924214" lon="-5.06946612"><ele>2524</ele><speed>14.05</speed><time>2016-06-29T12:08:41Z</time><pdop>7.0</pdop><geoidheight>54.00</geoidheight><course>50.1</course><type>1</type></trkpt>
      <trkpt lat="40.61934036" lon="-5.06932212"><ele>2525</ele><speed>14.75</speed><time>2016-06-29T12:08:42Z</time><pdop>7.0</pdop><geoidheight>54.00</geoidheight><course>47.5</course><type>1</type></trkpt>
      <trkpt lat="40.61945234" lon="-5.06917865"><ele>2526</ele><speed>15.21</speed><time>2016-06-29T12:08:43Z</time><pdop>6.0</pdop><geoidheight>54.00</geoidheight><course>44.7</course><type>1</type></trkpt>
      <trkpt lat="40.6195531" lon="-5.06904565"><ele>2526</ele><speed>15.29</speed><time>2016-06-29T12:08:44Z</time><pdop>6.0</pdop><geoidheight>54.00</geoidheight><course>45.3</course><type>1</type></trkpt>
      <trkpt lat="40.61965238" lon="-5.06890129"><ele>2528</ele><speed>15.18</speed><time>2016-06-29T12:08:45Z</time><pdop>5.0</pdop><geoidheight>54.00</geoidheight><course>49.1</course><type>1</type></trkpt>
      <trkpt lat="40.61971256" lon="-5.06876732"><ele>2527</ele><speed>14.84</speed><time>2016-06-29T12:08:46Z</time><pdop>4.0</pdop><geoidheight>54.00</geoidheight><course>52.2</course><type>1</type></trkpt>
      <trkpt lat="40.61979606" lon="-5.06863795"><ele>2527</ele><speed>14.94</speed><time>2016-06-29T12:08:47Z</time><pdop>4.0</pdop><geoidheight>54.00</geoidheight><course>51.5</course><type>1</type></trkpt>
      <trkpt lat="40.61988281" lon="-5.06848962"><ele>2528</ele><speed>14.96</speed><time>2016-06-29T12:08:48Z</time><pdop>4.0</pdop><geoidheight>54.00</geoidheight><course>52.1</course><type>1</type></trkpt>
      <trkpt lat="40.61996848" lon="-5.06836074"><ele>2527</ele><speed>15.42</speed><time>2016-06-29T12:08:49Z</time><pdop>4.0</pdop><geoidheight>54.00</geoidheight><course>51.2</course><type>1</type></trkpt>
      <trkpt lat="40.6200553" lon="-5.0682189"><ele>2526</ele><speed>15.40</speed><time>2016-06-29T12:08:50Z</time><pdop>5.0</pdop><geoidheight>54.00</geoidheight><course>51.2</course><type>1</type></trkpt>
      <trkpt lat="40.62015104" lon="-5.06807525"><ele>2526</ele><speed>16.11</speed><time>2016-06-29T12:08:51Z</time><pdop>5.0</pdop><geoidheight>54.00</geoidheight><course>50.0</course><type>1</type></trkpt>
      <trkpt lat="40.62024778" lon="-5.06792171"><ele>2528</ele><speed>16.40</speed><time>2016-06-29T12:08:52Z</time><pdop>5.0</pdop><geoidheight>54.00</geoidheight><course>50.4</course><type>1</type></trkpt>
      <trkpt lat="40.62033039" lon="-5.06777721"><ele>2529</ele><speed>15.49</speed><time>2016-06-29T12:08:53Z</time><pdop>5.0</pdop><geoidheight>54.00</geoidheight><course>52.0</course><type>1</type></trkpt>
      <trkpt lat="40.6204133" lon="-5.06763561"><ele>2529</ele><speed>15.22</speed><time>2016-06-29T12:08:54Z</time><pdop>5.0</pdop><geoidheight>54.00</geoidheight><course>52.4</course><type>1</type></trkpt>
      <trkpt lat="40.62054685" lon="-5.06738014"><ele>2527</ele><speed>15.39</speed><time>2016-06-29T12:08:56Z</time><pdop>5.0</pdop><geoidheight>54.00</geoidheight><course>50.1</course><type>1</type></trkpt>
      <trkpt lat="40.62063528" lon="-5.06723922"><ele>2528</ele><speed>15.14</speed><time>2016-06-29T12:08:57Z</time><pdop>5.0</pdop><geoidheight>54.00</geoidheight><course>50.7</course><type>1</type></trkpt>
      <trkpt lat="40.62072024" lon="-5.06708259"><ele>2529</ele><speed>14.95</speed><time>2016-06-29T12:08:58Z</time><pdop>5.0</pdop><geoidheight>54.00</geoidheight><course>54.9</course><type>1</type></trkpt>
      <trkpt lat="40.62080078" lon="-5.0669207"><ele>2530</ele><speed>15.40</speed><time>2016-06-29T12:08:59Z</time><pdop>5.0</pdop><geoidheight>54.00</geoidheight><course>57.7</course><type>1</type></trkpt>
      <trkpt lat="40.62086799" lon="-5.06674337"><ele>2531</ele><speed>15.47</speed><time>2016-06-29T12:09:00Z</time><pdop>5.0</pdop><geoidheight>54.00</geoidheight><course>63.0</course><type>1</type></trkpt>
      <trkpt lat="40.62090937" lon="-5.06653782"><ele>2531</ele><speed>16.03</speed><time>2016-06-29T12:09:01Z</time><pdop>5.0</pdop><geoidheight>54.00</geoidheight><course>71.2</course><type>1</type></trkpt>
      <trkpt lat="40.62090795" lon="-5.06634707"><ele>2532</ele><speed>15.86</speed><time>2016-06-29T12:09:02Z</time><pdop>5.0</pdop><geoidheight>54.00</geoidheight><course>81.2</course><type>1</type></trkpt>
      <trkpt lat="40.62088243" lon="-5.06616199"><ele>2533</ele><speed>15.76</speed><time>2016-06-29T12:09:03Z</time><pdop>6.0</pdop><geoidheight>54.00</geoidheight><course>90.2</course><type>1</type></trkpt>
      <trkpt lat="40.62088052" lon="-5.06594325"><ele>2533</ele><speed>16.58</speed><time>2016-06-29T12:09:04Z</time><pdop>7.0</pdop><geoidheight>54.00</geoidheight><course>92.8</course><type>1</type></trkpt>
      <trkpt lat="40.62083504" lon="-5.0658217"><ele>2536</ele><speed>14.38</speed><time>2016-06-29T12:09:05Z</time><pdop>4.0</pdop><geoidheight>54.00</geoidheight><course>105.9</course><type>1</type></trkpt>
      <trkpt lat="40.62078404" lon="-5.06568984"><ele>2537</ele><speed>12.29</speed><time>2016-06-29T12:09:06Z</time><pdop>4.0</pdop><geoidheight>54.00</geoidheight><course>114.8</course><type>1</type></trkpt>
      <trkpt lat="40.62071967" lon="-5.06559322"><ele>2537</ele><speed>10.56</speed><time>2016-06-29T12:09:07Z</time><pdop>4.0</pdop><geoidheight>54.00</geoidheight><course>130.4</course><type>1</type></trkpt>
      <trkpt lat="40.62064276" lon="-5.06552928"><ele>2538</ele><speed>9.82</speed><time>2016-06-29T12:09:08Z</time><pdop>3.0</pdop><geoidheight>54.00</geoidheight><course>149.5</course><type>1</type></trkpt>
      <trkpt lat="40.62056657" lon="-5.06552618"><ele>2539</ele><speed>8.70</speed><time>2016-06-29T12:09:09Z</time><pdop>3.0</pdop><geoidheight>54.00</geoidheight><course>170.0</course><type>1</type></trkpt>
      <trkpt lat="40.62050342" lon="-5.06554598"><ele>2540</ele><speed>7.17</speed><time>2016-06-29T12:09:10Z</time><pdop>3.0</pdop><geoidheight>54.00</geoidheight><course>193.6</course><type>1</type></trkpt>
      <trkpt lat="40.62046494" lon="-5.06559632"><ele>2542</ele><speed>5.99</speed><time>2016-06-29T12:09:11Z</time><pdop>3.0</pdop><geoidheight>54.00</geoidheight><course>226.5</course><type>1</type></trkpt>
      <trkpt lat="40.62049263" lon="-5.06573427"><ele>2546</ele><speed>6.66</speed><time>2016-06-29T12:09:13Z</time><pdop>3.0</pdop><geoidheight>54.00</geoidheight><course>292.5</course><type>1</type></trkpt>
      <trkpt lat="40.62054583" lon="-5.06580501"><ele>2547</ele><speed>8.22</speed><time>2016-06-29T12:09:14Z</time><pdop>3.0</pdop><geoidheight>54.00</geoidheight><course>313.2</course><type>1</type></trkpt>
      <trkpt lat="40.62062" lon="-5.06584783"><ele>2549</ele><speed>9.45</speed><time>2016-06-29T12:09:15Z</time><pdop>3.0</pdop><geoidheight>54.00</geoidheight><course>332.0</course><type>1</type></trkpt>
      <trkpt lat="40.62070696" lon="-5.06588601"><ele>2549</ele><speed>9.98</speed><time>2016-06-29T12:09:16Z</time><pdop>3.0</pdop><geoidheight>54.00</geoidheight><course>340.0</course><type>1</type></trkpt>
      <trkpt lat="40.62080923" lon="-5.06586296"><ele>2550</ele><speed>10.25</speed><time>2016-06-29T12:09:17Z</time><pdop>3.0</pdop><geoidheight>54.00</geoidheight><course>359.8</course><type>1</type></trkpt>
      <trkpt lat="40.6209219" lon="-5.06579141"><ele>2550</ele><speed>11.63</speed><time>2016-06-29T12:09:18Z</time><pdop>4.0</pdop><geoidheight>54.00</geoidheight><course>14.5</course><type>1</type></trkpt>
      <trkpt lat="40.62100198" lon="-5.0656036"><ele>2552</ele><speed>15.98</speed><time>2016-06-29T12:09:19Z</time><pdop>3.0</pdop><geoidheight>54.00</geoidheight><course>46.6</course><type>1</type></trkpt>
      <trkpt lat="40.62110086" lon="-5.06546644"><ele>2552</ele><speed>15.98</speed><time>2016-06-29T12:09:20Z</time><pdop>4.0</pdop><geoidheight>54.00</geoidheight><course>46.6</course><type>1</type></trkpt>
      <trkpt lat="40.62115189" lon="-5.06525864"><ele>2551</ele><speed>16.15</speed><time>2016-06-29T12:09:21Z</time><pdop>4.0</pdop><geoidheight>54.00</geoidheight><course>65.4</course><type>1</type></trkpt>
      <trkpt lat="40.62121674" lon="-5.06507784"><ele>2550</ele><speed>16.08</speed><time>2016-06-29T12:09:22Z</time><pdop>3.0</pdop><geoidheight>54.00</geoidheight><course>71.3</course><type>1</type></trkpt>
      <trkpt lat="40.62124964" lon="-5.06488841"><ele>2549</ele><speed>16.12</speed><time>2016-06-29T12:09:23Z</time><pdop>3.0</pdop><geoidheight>54.00</geoidheight><course>83.5</course><type>1</type></trkpt>
      <trkpt lat="40.62126771" lon="-5.06469044"><ele>2548</ele><speed>16.52</speed><time>2016-06-29T12:09:24Z</time><pdop>4.0</pdop><geoidheight>54.00</geoidheight><course>84.9</course><type>1</type></trkpt>
      <trkpt lat="40.62127883" lon="-5.06449895"><ele>2428</ele><speed>16.01</speed><time>2016-06-29T12:09:25Z</time><pdop>4.0</pdop><geoidheight>54.00</geoidheight><course>85.6</course><type>1</type></trkpt>
      <trkpt lat="40.62123886" lon="-5.06436089"><ele>2455</ele><speed>14.02</speed><time>2016-06-29T12:09:26Z</time><pdop>5.0</pdop><geoidheight>54.00</geoidheight><course>94.2</course><type>1</type></trkpt>
      <trkpt lat="40.62109082" lon="-5.0644038"><ele>2476</ele><speed>9.96</speed><time>2016-06-29T12:09:27Z</time><pdop>4.0</pdop><geoidheight>54.00</geoidheight><course>172.2</course><type>1</type></trkpt>
      <trkpt lat="40.62096884" lon="-5.06441998"><ele>2497</ele><speed>6.63</speed><time>2016-06-29T12:09:29Z</time><pdop>5.0</pdop><geoidheight>54.00</geoidheight><course>200.3</course><type>1</type></trkpt>
      <trkpt lat="40.62103581" lon="-5.06456621"><ele>2511</ele><speed>8.59</speed><time>2016-06-29T12:09:31Z</time><pdop>4.0</pdop><geoidheight>54.00</geoidheight><course>334.7</course><type>1</type></trkpt>
      <trkpt lat="40.62118505" lon="-5.06456434"><ele>2525</ele><speed>12.12</speed><time>2016-06-29T12:09:33Z</time><pdop>4.0</pdop><geoidheight>54.00</geoidheight><course>11.2</course><type>1</type></trkpt>
      <trkpt lat="40.62130432" lon="-5.06449737"><ele>2530</ele><speed>14.48</speed><time>2016-06-29T12:09:34Z</time><pdop>4.0</pdop><geoidheight>54.00</geoidheight><course>24.1</course><type>1</type></trkpt>
      <trkpt lat="40.62142328" lon="-5.06442755"><ele>2530</ele><speed>14.47</speed><time>2016-06-29T12:09:35Z</time><pdop>5.0</pdop><geoidheight>54.00</geoidheight><course>24.1</course><type>1</type></trkpt>
      <trkpt lat="40.62150771" lon="-5.06426339"><ele>2543</ele><speed>16.70</speed><time>2016-06-29T12:09:36Z</time><pdop>3.0</pdop><geoidheight>54.00</geoidheight><course>46.2</course><type>1</type></trkpt>
      <trkpt lat="40.6215951" lon="-5.06409801"><ele>2544</ele><speed>17.19</speed><time>2016-06-29T12:09:37Z</time><pdop>4.0</pdop><geoidheight>54.00</geoidheight><course>56.4</course><type>1</type></trkpt>
      <trkpt lat="40.62168062" lon="-5.06392898"><ele>2544</ele><speed>17.18</speed><time>2016-06-29T12:09:38Z</time><pdop>4.0</pdop><geoidheight>54.00</geoidheight><course>56.4</course><type>1</type></trkpt>
      <trkpt lat="40.62166485" lon="-5.06375467"><ele>2544</ele><speed>15.62</speed><time>2016-06-29T12:09:39Z</time><pdop>4.0</pdop><geoidheight>54.00</geoidheight><course>73.8</course><type>1</type></trkpt>
      <trkpt lat="40.62168594" lon="-5.06358551"><ele>2545</ele><speed>15.74</speed><time>2016-06-29T12:09:40Z</time><pdop>5.0</pdop><geoidheight>54.00</geoidheight><course>84.8</course><type>1</type></trkpt>
      <trkpt lat="40.62168371" lon="-5.06339266"><ele>2545</ele><speed>15.51</speed><time>2016-06-29T12:09:41Z</time><pdop>5.0</pdop><geoidheight>54.00</geoidheight><course>93.6</course><type>1</type></trkpt>
      <trkpt lat="40.62164075" lon="-5.06322149"><ele>2545</ele><speed>14.80</speed><time>2016-06-29T12:09:42Z</time><pdop>5.0</pdop><geoidheight>54.00</geoidheight><course>111.6</course><type>1</type></trkpt>
      <trkpt lat="40.62158958" lon="-5.06306405"><ele>2548</ele><speed>13.49</speed><time>2016-06-29T12:09:43Z</time><pdop>5.0</pdop><geoidheight>54.00</geoidheight><course>120.6</course><type>1</type></trkpt>
      <trkpt lat="40.62152721" lon="-5.0629418"><ele>2550</ele><speed>11.78</speed><time>2016-06-29T12:09:44Z</time><pdop>5.0</pdop><geoidheight>54.00</geoidheight><course>128.5</course><type>1</type></trkpt>
      <trkpt lat="40.62140312" lon="-5.06281396"><ele>2554</ele><speed>7.20</speed><time>2016-06-29T12:09:46Z</time><pdop>4.0</pdop><geoidheight>54.00</geoidheight><course>160.6</course><type>1</type></trkpt>
      <trkpt lat="40.62131025" lon="-5.06284936"><ele>2553</ele><speed>5.40</speed><time>2016-06-29T12:09:48Z</time><pdop>4.0</pdop><geoidheight>54.00</geoidheight><course>211.7</course><type>1</type></trkpt>
      <trkpt lat="40.62136022" lon="-5.06299498"><ele>2555</ele><speed>9.03</speed><time>2016-06-29T12:09:51Z</time><pdop>4.0</pdop><geoidheight>54.00</geoidheight><course>333.6</course><type>1</type></trkpt>
      <trkpt lat="40.62143274" lon="-5.06304217"><ele>2555</ele><speed>9.00</speed><time>2016-06-29T12:09:52Z</time><pdop>5.0</pdop><geoidheight>54.00</geoidheight><course>333.6</course><type>1</type></trkpt>
      <trkpt lat="40.62153097" lon="-5.06300782"><ele>2559</ele><speed>10.88</speed><time>2016-06-29T12:09:53Z</time><pdop>4.0</pdop><geoidheight>54.00</geoidheight><course>5.8</course><type>1</type></trkpt>
      <trkpt lat="40.62162753" lon="-5.0629952"><ele>2560</ele><speed>10.80</speed><time>2016-06-29T12:09:54Z</time><pdop>6.0</pdop><geoidheight>54.00</geoidheight><course>5.7</course><type>1</type></trkpt>
      <trkpt lat="40.62169842" lon="-5.06290022"><ele>2565</ele><speed>11.70</speed><time>2016-06-29T12:09:55Z</time><pdop>4.0</pdop><geoidheight>54.00</geoidheight><course>27.4</course><type>1</type></trkpt>
      <trkpt lat="40.62176824" lon="-5.06282859"><ele>2568</ele><speed>12.88</speed><time>2016-06-29T12:09:56Z</time><pdop>5.0</pdop><geoidheight>54.00</geoidheight><course>34.2</course><type>1</type></trkpt>
      <trkpt lat="40.62185135" lon="-5.06271219"><ele>2571</ele><speed>14.27</speed><time>2016-06-29T12:09:57Z</time><pdop>4.0</pdop><geoidheight>54.00</geoidheight><course>42.5</course><type>1</type></trkpt>
      <trkpt lat="40.62194577" lon="-5.06259846"><ele>2571</ele><speed>14.24</speed><time>2016-06-29T12:09:58Z</time><pdop>5.0</pdop><geoidheight>54.00</geoidheight><course>42.5</course><type>1</type></trkpt>
      <trkpt lat="40.62202556" lon="-5.06243362"><ele>2573</ele><speed>16.21</speed><time>2016-06-29T12:09:59Z</time><pdop>4.0</pdop><geoidheight>54.00</geoidheight><course>58.7</course><type>1</type></trkpt>
      <trkpt lat="40.62208119" lon="-5.06225362"><ele>2572</ele><speed>16.35</speed><time>2016-06-29T12:10:00Z</time><pdop>5.0</pdop><geoidheight>54.00</geoidheight><course>71.1</course><type>1</type></trkpt>
      <trkpt lat="40.62212884" lon="-5.06207078"><ele>2572</ele><speed>16.35</speed><time>2016-06-29T12:10:01Z</time><pdop>6.0</pdop><geoidheight>54.00</geoidheight><course>71.1</course><type>1</type></trkpt>
      <trkpt lat="40.62209778" lon="-5.06187742"><ele>2571</ele><speed>15.84</speed><time>2016-06-29T12:10:02Z</time><pdop>6.0</pdop><geoidheight>54.00</geoidheight><course>97.2</course><type>1</type></trkpt>
      <trkpt lat="40.62206144" lon="-5.06170384"><ele>2572</ele><speed>15.22</speed><time>2016-06-29T12:10:03Z</time><pdop>6.0</pdop><geoidheight>54.00</geoidheight><course>109.7</course><type>1</type></trkpt>
      <trkpt lat="40.62201518" lon="-5.06153451"><ele>2572</ele><speed>15.22</speed><time>2016-06-29T12:10:04Z</time><pdop>7.0</pdop><geoidheight>54.00</geoidheight><course>109.7</course><type>1</type></trkpt>
      <trkpt lat="40.62189856" lon="-5.06136177"><ele>2575</ele><speed>9.78</speed><time>2016-06-29T12:10:06Z</time><pdop>6.0</pdop><geoidheight>54.00</geoidheight><course>132.4</course><type>1</type></trkpt>
      <trkpt lat="40.62180103" lon="-5.06123465"><ele>2576</ele><speed>7.80</speed><time>2016-06-29T12:10:08Z</time><pdop>6.0</pdop><geoidheight>54.00</geoidheight><course>147.3</course><type>1</type></trkpt>
      <trkpt lat="40.62169345" lon="-5.06120183"><ele>2576</ele><speed>5.67</speed><time>2016-06-29T12:10:10Z</time><pdop>5.0</pdop><geoidheight>54.00</geoidheight><course>188.6</course><type>1</type></trkpt>
      <trkpt lat="40.62177703" lon="-5.06135605"><ele>2579</ele><speed>7.71</speed><time>2016-06-29T12:10:14Z</time><pdop>4.0</pdop><geoidheight>54.00</geoidheight><course>340.7</course><type>1</type></trkpt>
      <trkpt lat="40.6218531" lon="-5.06136643"><ele>2580</ele><speed>9.58</speed><time>2016-06-29T12:10:15Z</time><pdop>4.0</pdop><geoidheight>54.00</geoidheight><course>353.9</course><type>1</type></trkpt>
      <trkpt lat="40.62193892" lon="-5.0613785"><ele>2580</ele><speed>9.58</speed><time>2016-06-29T12:10:16Z</time><pdop>5.0</pdop><geoidheight>54.00</geoidheight><course>353.9</course><type>1</type></trkpt>
      <trkpt lat="40.6220721" lon="-5.0613339"><ele>2581</ele><speed>13.21</speed><time>2016-06-29T12:10:17Z</time><pdop>3.0</pdop><geoidheight>54.00</geoidheight><course>13.5</course><type>1</type></trkpt>
      <trkpt lat="40.62219665" lon="-5.06127416"><ele>2582</ele><speed>14.89</speed><time>2016-06-29T12:10:18Z</time><pdop>3.0</pdop><geoidheight>54.00</geoidheight><course>27.0</course><type>1</type></trkpt>
      <trkpt lat="40.62231591" lon="-5.06119448"><ele>2582</ele><speed>14.87</speed><time>2016-06-29T12:10:19Z</time><pdop>4.0</pdop><geoidheight>54.00</geoidheight><course>27.0</course><type>1</type></trkpt>
      <trkpt lat="40.62239408" lon="-5.06103107"><ele>2584</ele><speed>15.72</speed><time>2016-06-29T12:10:20Z</time><pdop>3.0</pdop><geoidheight>54.00</geoidheight><course>52.9</course><type>1</type></trkpt>
      <trkpt lat="40.62244237" lon="-5.06086702"><ele>2587</ele><speed>15.09</speed><time>2016-06-29T12:10:21Z</time><pdop>3.0</pdop><geoidheight>54.00</geoidheight><course>70.0</course><type>1</type></trkpt>
      <trkpt lat="40.62247297" lon="-5.06069569"><ele>2589</ele><speed>14.49</speed><time>2016-06-29T12:10:22Z</time><pdop>3.0</pdop><geoidheight>54.00</geoidheight><course>75.9</course><type>1</type></trkpt>
      <trkpt lat="40.62250431" lon="-5.06053088"><ele>2590</ele><speed>14.41</speed><time>2016-06-29T12:10:23Z</time><pdop>4.0</pdop><geoidheight>54.00</geoidheight><course>76.0</course><type>1</type></trkpt>
      <trkpt lat="40.62249262" lon="-5.06037757"><ele>2591</ele><speed>13.42</speed><time>2016-06-29T12:10:24Z</time><pdop>4.0</pdop><geoidheight>54.00</geoidheight><course>93.0</course><type>1</type></trkpt>
      <trkpt lat="40.62245871" lon="-5.06023837"><ele>2590</ele><speed>14.04</speed><time>2016-06-29T12:10:25Z</time><pdop>4.0</pdop><geoidheight>54.00</geoidheight><course>102.2</course><type>1</type></trkpt>
      <trkpt lat="40.62242029" lon="-5.06008634"><ele>2591</ele><speed>13.99</speed><time>2016-06-29T12:10:26Z</time><pdop>4.0</pdop><geoidheight>54.00</geoidheight><course>112.8</course><type>1</type></trkpt>
      <trkpt lat="40.62236631" lon="-5.05995156"><ele>2593</ele><speed>13.27</speed><time>2016-06-29T12:10:27Z</time><pdop>4.0</pdop><geoidheight>54.00</geoidheight><course>122.2</course><type>1</type></trkpt>
      <trkpt lat="40.62230436" lon="-5.05983614"><ele>2594</ele><speed>11.50</speed><time>2016-06-29T12:10:28Z</time><pdop>4.0</pdop><geoidheight>54.00</geoidheight><course>131.8</course><type>1</type></trkpt>
      <trkpt lat="40.62223582" lon="-5.05973544"><ele>2595</ele><speed>11.43</speed><time>2016-06-29T12:10:29Z</time><pdop>5.0</pdop><geoidheight>54.00</geoidheight><course>131.8</course><type>1</type></trkpt>
      <trkpt lat="40.62211869" lon="-5.05972684"><ele>2596</ele><speed>7.11</speed><time>2016-06-29T12:10:31Z</time><pdop>5.0</pdop><geoidheight>54.00</geoidheight><course>161.0</course><type>1</type></trkpt>
      <trkpt lat="40.62203914" lon="-5.05980732"><ele>2597</ele><speed>3.80</speed><time>2016-06-29T12:10:34Z</time><pdop>4.0</pdop><geoidheight>54.00</geoidheight><course>261.9</course><type>1</type></trkpt>
      <trkpt lat="40.62210902" lon="-5.05990197"><ele>2597</ele><speed>8.05</speed><time>2016-06-29T12:10:36Z</time><pdop>3.0</pdop><geoidheight>54.00</geoidheight><course>320.6</course><type>1</type></trkpt>
      <trkpt lat="40.62216871" lon="-5.05994956"><ele>2599</ele><speed>8.37</speed><time>2016-06-29T12:10:37Z</time><pdop>3.0</pdop><geoidheight>54.00</geoidheight><course>324.1</course><type>1</type></trkpt>
      <trkpt lat="40.62225685" lon="-5.05997036"><ele>2600</ele><speed>9.15</speed><time>2016-06-29T12:10:38Z</time><pdop>5.0</pdop><geoidheight>54.00</geoidheight><course>340.5</course><type>1</type></trkpt>
      <trkpt lat="40.62235353" lon="-5.05996554"><ele>2602</ele><speed>10.07</speed><time>2016-06-29T12:10:39Z</time><pdop>4.0</pdop><geoidheight>54.00</geoidheight><course>355.8</course><type>1</type></trkpt>
      <trkpt lat="40.62244169" lon="-5.05997403"><ele>2604</ele><speed>9.92</speed><time>2016-06-29T12:10:40Z</time><pdop>5.0</pdop><geoidheight>54.00</geoidheight><course>355.8</course><type>1</type></trkpt>
      <trkpt lat="40.62253754" lon="-5.05991252"><ele>2604</ele><speed>11.69</speed><time>2016-06-29T12:10:41Z</time><pdop>4.0</pdop><geoidheight>54.00</geoidheight><course>15.4</course><type>1</type></trkpt>
      <trkpt lat="40.62264483" lon="-5.05986169"><ele>2605</ele><speed>12.42</speed><time>2016-06-29T12:10:42Z</time><pdop>4.0</pdop><geoidheight>54.00</geoidheight><course>21.5</course><type>1</type></trkpt>
      <trkpt lat="40.62273534" lon="-5.05979065"><ele>2606</ele><speed>12.57</speed><time>2016-06-29T12:10:43Z</time><pdop>5.0</pdop><geoidheight>54.00</geoidheight><course>30.9</course><type>1</type></trkpt>
      <trkpt lat="40.62283244" lon="-5.05971443"><ele>2607</ele><speed>12.56</speed><time>2016-06-29T12:10:44Z</time><pdop>7.0</pdop><geoidheight>54.00</geoidheight><course>30.9</course><type>1</type></trkpt>
      <trkpt lat="40.62295164" lon="-5.05946069"><ele>2611</ele><speed>13.58</speed><time>2016-06-29T12:10:46Z</time><pdop>5.0</pdop><geoidheight>54.00</geoidheight><course>59.3</course><type>1</type></trkpt>
      <trkpt lat="40.62300397" lon="-5.05929956"><ele>2612</ele><speed>14.77</speed><time>2016-06-29T12:10:47Z</time><pdop>5.0</pdop><geoidheight>54.00</geoidheight><course>63.9</course><type>1</type></trkpt>
      <trkpt lat="40.62302088" lon="-5.05913369"><ele>2612</ele><speed>15.06</speed><time>2016-06-29T12:10:48Z</time><pdop>4.0</pdop><geoidheight>54.00</geoidheight><course>76.5</course><type>1</type></trkpt>
      <trkpt lat="40.62302129" lon="-5.05897237"><ele>2615</ele><speed>14.68</speed><time>2016-06-29T12:10:49Z</time><pdop>4.0</pdop><geoidheight>54.00</geoidheight><course>83.2</course><type>1</type></trkpt>
      <trkpt lat="40.62303696" lon="-5.05880046"><ele>2616</ele><speed>14.66</speed><time>2016-06-29T12:10:50Z</time><pdop>5.0</pdop><geoidheight>54.00</geoidheight><course>83.2</course><type>1</type></trkpt>
      <trkpt lat="40.62300059" lon="-5.058651"><ele>2616</ele><speed>12.64</speed><time>2016-06-29T12:10:51Z</time><pdop>4.0</pdop><geoidheight>54.00</geoidheight><course>104.4</course><type>1</type></trkpt>
      <trkpt lat="40.62297229" lon="-5.05850633"><ele>2616</ele><speed>12.64</speed><time>2016-06-29T12:10:52Z</time><pdop>5.0</pdop><geoidheight>54.00</geoidheight><course>104.4</course><type>1</type></trkpt>
      <trkpt lat="40.6229114" lon="-5.05839294"><ele>2617</ele><speed>11.72</speed><time>2016-06-29T12:10:53Z</time><pdop>4.0</pdop><geoidheight>54.00</geoidheight><course>126.5</course><type>1</type></trkpt>
      <trkpt lat="40.62284864" lon="-5.05828177"><ele>2617</ele><speed>11.71</speed><time>2016-06-29T12:10:54Z</time><pdop>5.0</pdop><geoidheight>54.00</geoidheight><course>126.5</course><type>1</type></trkpt>
      <trkpt lat="40.62273737" lon="-5.05826769"><ele>2617</ele><speed>5.73</speed><time>2016-06-29T12:10:56Z</time><pdop>4.0</pdop><geoidheight>54.00</geoidheight><course>184.7</course><type>1</type></trkpt>
      <trkpt lat="40.62265974" lon="-5.05832662"><ele>2618</ele><speed>4.56</speed><time>2016-06-29T12:10:58Z</time><pdop>4.0</pdop><geoidheight>54.00</geoidheight><course>216.0</course><type>1</type></trkpt>
      <trkpt lat="40.62265771" lon="-5.0584424"><ele>2624</ele><speed>3.66</speed><time>2016-06-29T12:11:01Z</time><pdop>4.0</pdop><geoidheight>54.00</geoidheight><course>285.6</course><type>1</type></trkpt>
      <trkpt lat="40.62272789" lon="-5.05849825"><ele>2623</ele><speed>7.75</speed><time>2016-06-29T12:11:02Z</time><pdop>4.0</pdop><geoidheight>54.00</geoidheight><course>325.0</course><type>1</type></trkpt>
      <trkpt lat="40.62280052" lon="-5.05852593"><ele>2623</ele><speed>8.91</speed><time>2016-06-29T12:11:03Z</time><pdop>4.0</pdop><geoidheight>54.00</geoidheight><course>340.3</course><type>1</type></trkpt>
      <trkpt lat="40.62292911" lon="-5.0585402"><ele>2622</ele><speed>13.24</speed><time>2016-06-29T12:11:04Z</time><pdop>4.0</pdop><geoidheight>54.00</geoidheight><course>0.6</course><type>1</type></trkpt>
      <trkpt lat="40.62305602" lon="-5.05847712"><ele>2622</ele><speed>15.35</speed><time>2016-06-29T12:11:05Z</time><pdop>4.0</pdop><geoidheight>54.00</geoidheight><course>19.0</course><type>1</type></trkpt>
      <trkpt lat="40.62317771" lon="-5.0583787"><ele>2621</ele><speed>15.83</speed><time>2016-06-29T12:11:06Z</time><pdop>4.0</pdop><geoidheight>54.00</geoidheight><course>32.9</course><type>1</type></trkpt>
      <trkpt lat="40.62329728" lon="-5.05827705"><ele>2621</ele><speed>15.82</speed><time>2016-06-29T12:11:07Z</time><pdop>5.0</pdop><geoidheight>54.00</geoidheight><course>32.9</course><type>1</type></trkpt>
      <trkpt lat="40.62336501" lon="-5.05811927"><ele>2623</ele><speed>16.07</speed><time>2016-06-29T12:11:08Z</time><pdop>4.0</pdop><geoidheight>54.00</geoidheight><course>54.7</course><type>1</type></trkpt>
      <trkpt lat="40.62343581" lon="-5.05796153"><ele>2623</ele><speed>15.95</speed><time>2016-06-29T12:11:09Z</time><pdop>4.0</pdop><geoidheight>54.00</geoidheight><course>61.7</course><type>1</type></trkpt>
      <trkpt lat="40.62350152" lon="-5.05778328"><ele>2622</ele><speed>16.39</speed><time>2016-06-29T12:11:10Z</time><pdop>4.0</pdop><geoidheight>54.00</geoidheight><course>64.0</course><type>1</type></trkpt>
      <trkpt lat="40.62354891" lon="-5.05760767"><ele>2623</ele><speed>15.46</speed><time>2016-06-29T12:11:11Z</time><pdop>4.0</pdop><geoidheight>54.00</geoidheight><course>70.8</course><type>1</type></trkpt>
      <trkpt lat="40.62359467" lon="-5.0574353"><ele>2624</ele><speed>15.44</speed><time>2016-06-29T12:11:12Z</time><pdop>4.0</pdop><geoidheight>54.00</geoidheight><course>70.8</course><type>1</type></trkpt>
      <trkpt lat="40.62364197" lon="-5.05725824"><ele>2623</ele><speed>15.80</speed><time>2016-06-29T12:11:13Z</time><pdop>4.0</pdop><geoidheight>54.00</geoidheight><course>70.5</course><type>1</type></trkpt>
      <trkpt lat="40.62368856" lon="-5.05708533"><ele>2624</ele><speed>15.61</speed><time>2016-06-29T12:11:14Z</time><pdop>4.0</pdop><geoidheight>54.00</geoidheight><course>70.9</course><type>1</type></trkpt>
      <trkpt lat="40.62372851" lon="-5.05691719"><ele>2623</ele><speed>15.20</speed><time>2016-06-29T12:11:15Z</time><pdop>5.0</pdop><geoidheight>54.00</geoidheight><course>72.1</course><type>1</type></trkpt>
      <trkpt lat="40.62374545" lon="-5.05675749"><ele>2624</ele><speed>14.64</speed><time>2016-06-29T12:11:16Z</time><pdop>4.0</pdop><geoidheight>54.00</geoidheight><course>73.7</course><type>1</type></trkpt>
      <trkpt lat="40.62377844" lon="-5.0565941"><ele>2626</ele><speed>14.35</speed><time>2016-06-29T12:11:17Z</time><pdop>4.0</pdop><geoidheight>54.00</geoidheight><course>73.6</course><type>1</type></trkpt>
      <trkpt lat="40.62382083" lon="-5.05642327"><ele>2625</ele><speed>14.84</speed><time>2016-06-29T12:11:18Z</time><pdop>4.0</pdop><geoidheight>54.00</geoidheight><course>71.1</course><type>1</type></trkpt>
      <trkpt lat="40.62386659" lon="-5.05624963"><ele>2625</ele><speed>15.41</speed><time>2016-06-29T12:11:19Z</time><pdop>4.0</pdop><geoidheight>54.00</geoidheight><course>70.0</course><type>1</type></trkpt>
      <trkpt lat="40.62393489" lon="-5.05607424"><ele>2624</ele><speed>16.17</speed><time>2016-06-29T12:11:20Z</time><pdop>4.0</pdop><geoidheight>54.00</geoidheight><course>66.7</course><type>1</type></trkpt>
      <trkpt lat="40.62401313" lon="-5.05589199"><ele>2622</ele><speed>16.77</speed><time>2016-06-29T12:11:21Z</time><pdop>4.0</pdop><geoidheight>54.00</geoidheight><course>64.5</course><type>1</type></trkpt>
      <trkpt lat="40.62408071" lon="-5.05571713"><ele>2623</ele><speed>16.81</speed><time>2016-06-29T12:11:22Z</time><pdop>4.0</pdop><geoidheight>54.00</geoidheight><course>62.9</course><type>1</type></trkpt>
      <trkpt lat="40.62413805" lon="-5.05553813"><ele>2624</ele><speed>16.89</speed><time>2016-06-29T12:11:23Z</time><pdop>4.0</pdop><geoidheight>54.00</geoidheight><course>63.9</course><type>1</type></trkpt>
      <trkpt lat="40.62419436" lon="-5.0553739"><ele>2624</ele><speed>16.71</speed><time>2016-06-29T12:11:24Z</time><pdop>4.0</pdop><geoidheight>54.00</geoidheight><course>65.3</course><type>1</type></trkpt>
      <trkpt lat="40.62425476" lon="-5.05519461"><ele>2626</ele><speed>16.32</speed><time>2016-06-29T12:11:25Z</time><pdop>5.0</pdop><geoidheight>54.00</geoidheight><course>67.5</course><type>1</type></trkpt>
      <trkpt lat="40.62431082" lon="-5.05501713"><ele>2626</ele><speed>16.27</speed><time>2016-06-29T12:11:26Z</time><pdop>6.0</pdop><geoidheight>54.00</geoidheight><course>67.5</course><type>1</type></trkpt>
      <trkpt lat="40.62437387" lon="-5.05480622"><ele>2628</ele><speed>17.01</speed><time>2016-06-29T12:11:27Z</time><pdop>5.0</pdop><geoidheight>54.00</geoidheight><course>74.1</course><type>1</type></trkpt>
      <trkpt lat="40.62441571" lon="-5.05461398"><ele>2629</ele><speed>16.94</speed><time>2016-06-29T12:11:28Z</time><pdop>5.0</pdop><geoidheight>54.00</geoidheight><course>74.1</course><type>1</type></trkpt>
      <trkpt lat="40.62437939" lon="-5.0544367"><ele>2631</ele><speed>16.07</speed><time>2016-06-29T12:11:29Z</time><pdop>5.0</pdop><geoidheight>54.00</geoidheight><course>86.0</course><type>1</type></trkpt>
      <trkpt lat="40.6243894" lon="-5.05424849"><ele>2632</ele><speed>15.99</speed><time>2016-06-29T12:11:30Z</time><pdop>6.0</pdop><geoidheight>54.00</geoidheight><course>86.0</course><type>1</type></trkpt>
      <trkpt lat="40.62441523" lon="-5.05407395"><ele>2637</ele><speed>14.20</speed><time>2016-06-29T12:11:31Z</time><pdop>7.0</pdop><geoidheight>54.00</geoidheight><course>91.5</course><type>1</type></trkpt>
      <trkpt lat="40.62431721" lon="-5.05398621"><ele>2638</ele><speed>12.87</speed><time>2016-06-29T12:11:32Z</time><pdop>6.0</pdop><geoidheight>54.00</geoidheight><course>129.1</course><type>1</type></trkpt>
      <trkpt lat="40.62423398" lon="-5.05386376"><ele>2639</ele><speed>11.44</speed><time>2016-06-29T12:11:33Z</time><pdop>6.0</pdop><geoidheight>54.00</geoidheight><course>138.5</course><type>1</type></trkpt>
      <trkpt lat="40.62411361" lon="-5.0538261"><ele>2645</ele><speed>6.35</speed><time>2016-06-29T12:11:35Z</time><pdop>5.0</pdop><geoidheight>54.00</geoidheight><course>190.3</course><type>1</type></trkpt>
      <trkpt lat="40.62413097" lon="-5.05394674"><ele>2651</ele><speed>6.46</speed><time>2016-06-29T12:11:38Z</time><pdop>4.0</pdop><geoidheight>54.00</geoidheight><course>321.9</course><type>1</type></trkpt>
      <trkpt lat="40.62421631" lon="-5.05397191"><ele>2653</ele><speed>8.61</speed><time>2016-06-29T12:11:39Z</time><pdop>4.0</pdop><geoidheight>54.00</geoidheight><course>347.4</course><type>1</type></trkpt>
      <trkpt lat="40.6244008" lon="-5.05395388"><ele>2655</ele><speed>10.33</speed><time>2016-06-29T12:11:41Z</time><pdop>5.0</pdop><geoidheight>54.00</geoidheight><course>3.8</course><type>1</type></trkpt>
      <trkpt lat="40.62453325" lon="-5.05384084"><ele>2654</ele><speed>13.32</speed><time>2016-06-29T12:11:42Z</time><pdop>5.0</pdop><geoidheight>54.00</geoidheight><course>23.8</course><type>1</type></trkpt>
      <trkpt lat="40.62464297" lon="-5.0537772"><ele>2654</ele><speed>13.32</speed><time>2016-06-29T12:11:43Z</time><pdop>8.0</pdop><geoidheight>54.00</geoidheight><course>23.8</course><type>1</type></trkpt>
      <trkpt lat="40.62465011" lon="-5.0535342"><ele>2655</ele><speed>14.96</speed><time>2016-06-29T12:11:44Z</time><pdop>7.0</pdop><geoidheight>54.00</geoidheight><course>55.1</course><type>1</type></trkpt>
      <trkpt lat="40.62470483" lon="-5.0531552"><ele>2655</ele><speed>15.63</speed><time>2016-06-29T12:11:46Z</time><pdop>6.0</pdop><geoidheight>54.00</geoidheight><course>74.8</course><type>1</type></trkpt>
      <trkpt lat="40.62472829" lon="-5.05295531"><ele>2657</ele><speed>15.68</speed><time>2016-06-29T12:11:47Z</time><pdop>4.0</pdop><geoidheight>54.00</geoidheight><course>86.3</course><type>1</type></trkpt>
      <trkpt lat="40.62472945" lon="-5.05274942"><ele>2658</ele><speed>16.88</speed><time>2016-06-29T12:11:48Z</time><pdop>4.0</pdop><geoidheight>54.00</geoidheight><course>92.6</course><type>1</type></trkpt>
      <trkpt lat="40.62471248" lon="-5.05255165"><ele>2658</ele><speed>16.40</speed><time>2016-06-29T12:11:49Z</time><pdop>4.0</pdop><geoidheight>54.00</geoidheight><course>95.5</course><type>1</type></trkpt>
      <trkpt lat="40.62469062" lon="-5.05236465"><ele>2660</ele><speed>16.13</speed><time>2016-06-29T12:11:50Z</time><pdop>4.0</pdop><geoidheight>54.00</geoidheight><course>97.4</course><type>1</type></trkpt>
      <trkpt lat="40.62466452" lon="-5.05218958"><ele>2660</ele><speed>15.36</speed><time>2016-06-29T12:11:51Z</time><pdop>4.0</pdop><geoidheight>54.00</geoidheight><course>101.5</course><type>1</type></trkpt>
      <trkpt lat="40.62464202" lon="-5.05202485"><ele>2662</ele><speed>14.14</speed><time>2016-06-29T12:11:52Z</time><pdop>3.0</pdop><geoidheight>54.00</geoidheight><course>104.4</course><type>1</type></trkpt>
      <trkpt lat="40.62461318" lon="-5.05188845"><ele>2663</ele><speed>12.72</speed><time>2016-06-29T12:11:53Z</time><pdop>3.0</pdop><geoidheight>54.00</geoidheight><course>107.8</course><type>1</type></trkpt>
      <trkpt lat="40.62457624" lon="-5.05175893"><ele>2664</ele><speed>12.02</speed><time>2016-06-29T12:11:54Z</time><pdop>3.0</pdop><geoidheight>54.00</geoidheight><course>112.8</course><type>1</type></trkpt>
      <trkpt lat="40.62452762" lon="-5.05162733"><ele>2665</ele><speed>12.06</speed><time>2016-06-29T12:11:55Z</time><pdop>3.0</pdop><geoidheight>54.00</geoidheight><course>115.7</course><type>1</type></trkpt>
      <trkpt lat="40.62447445" lon="-5.05146772"><ele>2666</ele><speed>13.48</speed><time>2016-06-29T12:11:56Z</time><pdop>3.0</pdop><geoidheight>54.00</geoidheight><course>115.0</course><type>1</type></trkpt>
      <trkpt lat="40.62442686" lon="-5.05130237"><ele>2668</ele><speed>14.31</speed><time>2016-06-29T12:11:57Z</time><pdop>3.0</pdop><geoidheight>54.00</geoidheight><course>111.8</course><type>1</type></trkpt>
      <trkpt lat="40.62436899" lon="-5.05111549"><ele>2673</ele><speed>15.99</speed><time>2016-06-29T12:11:58Z</time><pdop>3.0</pdop><geoidheight>54.00</geoidheight><course>112.4</course><type>1</type></trkpt>
      <trkpt lat="40.62431477" lon="-5.05097041"><ele>2677</ele><speed>13.47</speed><time>2016-06-29T12:11:59Z</time><pdop>3.0</pdop><geoidheight>54.00</geoidheight><course>116.2</course><type>1</type></trkpt>
      <trkpt lat="40.62426911" lon="-5.05089962"><ele>2678</ele><speed>9.28</speed><time>2016-06-29T12:12:00Z</time><pdop>3.0</pdop><geoidheight>54.00</geoidheight><course>125.0</course><type>1</type></trkpt>
      <trkpt lat="40.62433412" lon="-5.05098458"><ele>2678</ele><speed>8.36</speed><time>2016-06-29T12:12:05Z</time><pdop>3.0</pdop><geoidheight>54.00</geoidheight><course>334.9</course><type>1</type></trkpt>
      <trkpt lat="40.62440908" lon="-5.05103304"><ele>2679</ele><speed>8.98</speed><time>2016-06-29T12:12:06Z</time><pdop>3.0</pdop><geoidheight>54.00</geoidheight><course>336.8</course><type>1</type></trkpt>
      <trkpt lat="40.62449808" lon="-5.05104006"><ele>2680</ele><speed>9.78</speed><time>2016-06-29T12:12:07Z</time><pdop>3.0</pdop><geoidheight>54.00</geoidheight><course>349.9</course><type>1</type></trkpt>
      <trkpt lat="40.62460315" lon="-5.05099286"><ele>2679</ele><speed>10.62</speed><time>2016-06-29T12:12:08Z</time><pdop>4.0</pdop><geoidheight>54.00</geoidheight><course>5.9</course><type>1</type></trkpt>
      <trkpt lat="40.62473619" lon="-5.05086434"><ele>2677</ele><speed>13.32</speed><time>2016-06-29T12:12:09Z</time><pdop>5.0</pdop><geoidheight>54.00</geoidheight><course>25.8</course><type>1</type></trkpt>
      <trkpt lat="40.62484346" lon="-5.05072381"><ele>2676</ele><speed>15.17</speed><time>2016-06-29T12:12:10Z</time><pdop>6.0</pdop><geoidheight>54.00</geoidheight><course>37.6</course><type>1</type></trkpt>
      <trkpt lat="40.62496846" lon="-5.05052685"><ele>2680</ele><speed>18.55</speed><time>2016-06-29T12:12:11Z</time><pdop>4.0</pdop><geoidheight>54.00</geoidheight><course>47.5</course><type>1</type></trkpt>
      <trkpt lat="40.62509096" lon="-5.05035533"><ele>2682</ele><speed>18.12</speed><time>2016-06-29T12:12:12Z</time><pdop>4.0</pdop><geoidheight>54.00</geoidheight><course>49.3</course><type>1</type></trkpt>
      <trkpt lat="40.62518894" lon="-5.05018129"><ele>2684</ele><speed>17.73</speed><time>2016-06-29T12:12:13Z</time><pdop>4.0</pdop><geoidheight>54.00</geoidheight><course>53.5</course><type>1</type></trkpt>
      <trkpt lat="40.62525449" lon="-5.04998916"><ele>2686</ele><speed>17.64</speed><time>2016-06-29T12:12:14Z</time><pdop>5.0</pdop><geoidheight>54.00</geoidheight><course>59.4</course><type>1</type></trkpt>
      <trkpt lat="40.62531174" lon="-5.04978592"><ele>2686</ele><speed>17.80</speed><time>2016-06-29T12:12:15Z</time><pdop>4.0</pdop><geoidheight>54.00</geoidheight><course>69.6</course><type>1</type></trkpt>
      <trkpt lat="40.62536791" lon="-5.04957551"><ele>2687</ele><speed>18.25</speed><time>2016-06-29T12:12:16Z</time><pdop>4.0</pdop><geoidheight>54.00</geoidheight><course>72.7</course><type>1</type></trkpt>
      <trkpt lat="40.62538933" lon="-5.04937561"><ele>2688</ele><speed>18.43</speed><time>2016-06-29T12:12:17Z</time><pdop>3.0</pdop><geoidheight>54.00</geoidheight><course>76.5</course><type>1</type></trkpt>
      <trkpt lat="40.62542661" lon="-5.04914998"><ele>2689</ele><speed>18.76</speed><time>2016-06-29T12:12:18Z</time><pdop>3.0</pdop><geoidheight>54.00</geoidheight><course>79.8</course><type>1</type></trkpt>
      <trkpt lat="40.62543808" lon="-5.0489312"><ele>2691</ele><speed>18.68</speed><time>2016-06-29T12:12:19Z</time><pdop>3.0</pdop><geoidheight>54.00</geoidheight><course>83.5</course><type>1</type></trkpt>
      <trkpt lat="40.62544929" lon="-5.04871285"><ele>2692</ele><speed>18.48</speed><time>2016-06-29T12:12:20Z</time><pdop>3.0</pdop><geoidheight>54.00</geoidheight><course>87.2</course><type>1</type></trkpt>
      <trkpt lat="40.62544979" lon="-5.04850351"><ele>2693</ele><speed>17.97</speed><time>2016-06-29T12:12:21Z</time><pdop>3.0</pdop><geoidheight>54.00</geoidheight><course>91.2</course><type>1</type></trkpt>
      <trkpt lat="40.62542815" lon="-5.04830368"><ele>2696</ele><speed>17.19</speed><time>2016-06-29T12:12:22Z</time><pdop>3.0</pdop><geoidheight>54.00</geoidheight><course>96.3</course><type>1</type></trkpt>
      <trkpt lat="40.62540112" lon="-5.04812412"><ele>2699</ele><speed>15.67</speed><time>2016-06-29T12:12:23Z</time><pdop>3.0</pdop><geoidheight>54.00</geoidheight><course>102.6</course><type>1</type></trkpt>
      <trkpt lat="40.62536205" lon="-5.04798905"><ele>2700</ele><speed>12.77</speed><time>2016-06-29T12:12:24Z</time><pdop>3.0</pdop><geoidheight>54.00</geoidheight><course>110.0</course><type>1</type></trkpt>
      <trkpt lat="40.62531963" lon="-5.04790465"><ele>2701</ele><speed>9.23</speed><time>2016-06-29T12:12:25Z</time><pdop>3.0</pdop><geoidheight>54.00</geoidheight><course>121.2</course><type>1</type></trkpt>
      <trkpt lat="40.62526237" lon="-5.04786701"><ele>2701</ele><speed>2.52</speed><time>2016-06-29T12:12:27Z</time><pdop>3.0</pdop><geoidheight>54.00</geoidheight><course>174.7</course><type>1</type></trkpt>
      <trkpt lat="40.62534776" lon="-5.04793149"><ele>2701</ele><speed>7.04</speed><time>2016-06-29T12:12:29Z</time><pdop>3.0</pdop><geoidheight>54.00</geoidheight><course>338.2</course><type>1</type></trkpt>
      <trkpt lat="40.62545689" lon="-5.04793208"><ele>2703</ele><speed>11.45</speed><time>2016-06-29T12:12:30Z</time><pdop>3.0</pdop><geoidheight>54.00</geoidheight><course>357.8</course><type>1</type></trkpt>
      <trkpt lat="40.6255891" lon="-5.04788739"><ele>2705</ele><speed>14.87</speed><time>2016-06-29T12:12:31Z</time><pdop>3.0</pdop><geoidheight>54.00</geoidheight><course>14.1</course><type>1</type></trkpt>
      <trkpt lat="40.62571725" lon="-5.04777838"><ele>2708</ele><speed>16.71</speed><time>2016-06-29T12:12:32Z</time><pdop>3.0</pdop><geoidheight>54.00</geoidheight><course>28.6</course><type>1</type></trkpt>
      <trkpt lat="40.62583767" lon="-5.04763675"><ele>2710</ele><speed>17.64</speed><time>2016-06-29T12:12:33Z</time><pdop>3.0</pdop><geoidheight>54.00</geoidheight><course>40.4</course><type>1</type></trkpt>
      <trkpt lat="40.62594638" lon="-5.04747238"><ele>2711</ele><speed>18.18</speed><time>2016-06-29T12:12:34Z</time><pdop>3.0</pdop><geoidheight>54.00</geoidheight><course>48.6</course><type>1</type></trkpt>
      <trkpt lat="40.62603918" lon="-5.04728878"><ele>2713</ele><speed>18.73</speed><time>2016-06-29T12:12:35Z</time><pdop>3.0</pdop><geoidheight>54.00</geoidheight><course>54.9</course><type>1</type></trkpt>
      <trkpt lat="40.62612703" lon="-5.04709511"><ele>2714</ele><speed>19.01</speed><time>2016-06-29T12:12:36Z</time><pdop>3.0</pdop><geoidheight>54.00</geoidheight><course>58.5</course><type>1</type></trkpt>
      <trkpt lat="40.62620457" lon="-5.0468935"><ele>2714</ele><speed>18.97</speed><time>2016-06-29T12:12:37Z</time><pdop>3.0</pdop><geoidheight>54.00</geoidheight><course>63.5</course><type>1</type></trkpt>
      <trkpt lat="40.62625736" lon="-5.04668344"><ele>2715</ele><speed>18.94</speed><time>2016-06-29T12:12:38Z</time><pdop>3.0</pdop><geoidheight>54.00</geoidheight><course>69.6</course><type>1</type></trkpt>
      <trkpt lat="40.62629775" lon="-5.04647438"><ele>2716</ele><speed>18.89</speed><time>2016-06-29T12:12:39Z</time><pdop>3.0</pdop><geoidheight>54.00</geoidheight><course>74.6</course><type>1</type></trkpt>
      <trkpt lat="40.62632588" lon="-5.04625651"><ele>2717</ele><speed>18.86</speed><time>2016-06-29T12:12:40Z</time><pdop>3.0</pdop><geoidheight>54.00</geoidheight><course>78.9</course><type>1</type></trkpt>
      <trkpt lat="40.62634208" lon="-5.04604948"><ele>2718</ele><speed>17.86</speed><time>2016-06-29T12:12:41Z</time><pdop>3.0</pdop><geoidheight>54.00</geoidheight><course>83.6</course><type>1</type></trkpt>
      <trkpt lat="40.62633949" lon="-5.04586363"><ele>2719</ele><speed>15.74</speed><time>2016-06-29T12:12:42Z</time><pdop>3.0</pdop><geoidheight>54.00</geoidheight><course>90.9</course><type>1</type></trkpt>
      <trkpt lat="40.62631953" lon="-5.04571677"><ele>2720</ele><speed>13.00</speed><time>2016-06-29T12:12:43Z</time><pdop>3.0</pdop><geoidheight>54.00</geoidheight><course>98.6</course><type>1</type></trkpt>
      <trkpt lat="40.62629429" lon="-5.0456075"><ele>2721</ele><speed>9.62</speed><time>2016-06-29T12:12:44Z</time><pdop>3.0</pdop><geoidheight>54.00</geoidheight><course>107.8</course><type>1</type></trkpt>
      <trkpt lat="40.62625586" lon="-5.04555641"><ele>2719</ele><speed>1.98</speed><time>2016-06-29T12:12:46Z</time><pdop>3.0</pdop><geoidheight>54.00</geoidheight><course>126.2</course><type>1</type></trkpt>
      <trkpt lat="40.62629718" lon="-5.04560437"><ele>2718</ele><speed>5.58</speed><time>2016-06-29T12:12:48Z</time><pdop>3.0</pdop><geoidheight>54.00</geoidheight><course>326.8</course><type>1</type></trkpt>
      <trkpt lat="40.62635144" lon="-5.04564418"><ele>2719</ele><speed>6.75</speed><time>2016-06-29T12:12:49Z</time><pdop>3.0</pdop><geoidheight>54.00</geoidheight><course>334.5</course><type>1</type></trkpt>
      <trkpt lat="40.62642536" lon="-5.04565593"><ele>2719</ele><speed>8.24</speed><time>2016-06-29T12:12:50Z</time><pdop>3.0</pdop><geoidheight>54.00</geoidheight><course>346.9</course><type>1</type></trkpt>
      <trkpt lat="40.62653416" lon="-5.04564402"><ele>2720</ele><speed>11.35</speed><time>2016-06-29T12:12:51Z</time><pdop>3.0</pdop><geoidheight>54.00</geoidheight><course>2.9</course><type>1</type></trkpt>
      <trkpt lat="40.62664884" lon="-5.04561843"><ele>2720</ele><speed>13.44</speed><time>2016-06-29T12:12:52Z</time><pdop>3.0</pdop><geoidheight>54.00</geoidheight><course>13.2</course><type>1</type></trkpt>
      <trkpt lat="40.62677422" lon="-5.04555694"><ele>2720</ele><speed>14.84</speed><time>2016-06-29T12:12:53Z</time><pdop>3.0</pdop><geoidheight>54.00</geoidheight><course>20.7</course><type>1</type></trkpt>
      <trkpt lat="40.62691551" lon="-5.04546545"><ele>2719</ele><speed>16.52</speed><time>2016-06-29T12:12:54Z</time><pdop>4.0</pdop><geoidheight>54.00</geoidheight><course>24.8</course><type>1</type></trkpt>
      <trkpt lat="40.62702065" lon="-5.04529817"><ele>2722</ele><speed>18.27</speed><time>2016-06-29T12:12:55Z</time><pdop>3.0</pdop><geoidheight>54.00</geoidheight><course>42.1</course><type>1</type></trkpt>
      <trkpt lat="40.6271252" lon="-5.04513328"><ele>2722</ele><speed>18.00</speed><time>2016-06-29T12:12:56Z</time><pdop>4.0</pdop><geoidheight>54.00</geoidheight><course>50.1</course><type>1</type></trkpt>
      <trkpt lat="40.62721454" lon="-5.04496502"><ele>2723</ele><speed>17.61</speed><time>2016-06-29T12:12:57Z</time><pdop>4.0</pdop><geoidheight>54.00</geoidheight><course>54.6</course><type>1</type></trkpt>
      <trkpt lat="40.62729107" lon="-5.04477622"><ele>2722</ele><speed>17.87</speed><time>2016-06-29T12:12:58Z</time><pdop>4.0</pdop><geoidheight>54.00</geoidheight><course>60.4</course><type>1</type></trkpt>
      <trkpt lat="40.62737037" lon="-5.04459266"><ele>2722</ele><speed>17.86</speed><time>2016-06-29T12:12:59Z</time><pdop>6.0</pdop><geoidheight>54.00</geoidheight><course>60.4</course><type>1</type></trkpt>
      <trkpt lat="40.62738833" lon="-5.04436378"><ele>2723</ele><speed>18.42</speed><time>2016-06-29T12:13:00Z</time><pdop>5.0</pdop><geoidheight>54.00</geoidheight><course>74.9</course><type>1</type></trkpt>
      <trkpt lat="40.6274103" lon="-5.04414066"><ele>2723</ele><speed>19.18</speed><time>2016-06-29T12:13:01Z</time><pdop>5.0</pdop><geoidheight>54.00</geoidheight><course>81.0</course><type>1</type></trkpt>
      <trkpt lat="40.62742411" lon="-5.04391243"><ele>2723</ele><speed>18.83</speed><time>2016-06-29T12:13:02Z</time><pdop>4.0</pdop><geoidheight>54.00</geoidheight><course>84.7</course><type>1</type></trkpt>
      <trkpt lat="40.62743246" lon="-5.04369172"><ele>2723</ele><speed>18.16</speed><time>2016-06-29T12:13:03Z</time><pdop>4.0</pdop><geoidheight>54.00</geoidheight><course>87.5</course><type>1</type></trkpt>
      <trkpt lat="40.62742376" lon="-5.04349022"><ele>2723</ele><speed>17.13</speed><time>2016-06-29T12:13:04Z</time><pdop>4.0</pdop><geoidheight>54.00</geoidheight><course>90.0</course><type>1</type></trkpt>
      <trkpt lat="40.62742281" lon="-5.04329705"><ele>2724</ele><speed>16.20</speed><time>2016-06-29T12:13:05Z</time><pdop>3.0</pdop><geoidheight>54.00</geoidheight><course>91.3</course><type>1</type></trkpt>
      <trkpt lat="40.62741585" lon="-5.04310583"><ele>2725</ele><speed>15.92</speed><time>2016-06-29T12:13:06Z</time><pdop>3.0</pdop><geoidheight>54.00</geoidheight><course>91.6</course><type>1</type></trkpt>
      <trkpt lat="40.6274087" lon="-5.04291598"><ele>2725</ele><speed>15.40</speed><time>2016-06-29T12:13:07Z</time><pdop>3.0</pdop><geoidheight>54.00</geoidheight><course>91.7</course><type>1</type></trkpt>
      <trkpt lat="40.62740577" lon="-5.04274998"><ele>2726</ele><speed>14.30</speed><time>2016-06-29T12:13:08Z</time><pdop>4.0</pdop><geoidheight>54.00</geoidheight><course>92.0</course><type>1</type></trkpt>
      <trkpt lat="40.62741371" lon="-5.04259841"><ele>2726</ele><speed>13.70</speed><time>2016-06-29T12:13:09Z</time><pdop>4.0</pdop><geoidheight>54.00</geoidheight><course>89.6</course><type>1</type></trkpt>
      <trkpt lat="40.62741739" lon="-5.0424278"><ele>2724</ele><speed>14.76</speed><time>2016-06-29T12:13:10Z</time><pdop>4.0</pdop><geoidheight>54.00</geoidheight><course>86.7</course><type>1</type></trkpt>
      <trkpt lat="40.6274375" lon="-5.04224922"><ele>2723</ele><speed>15.74</speed><time>2016-06-29T12:13:11Z</time><pdop>3.0</pdop><geoidheight>54.00</geoidheight><course>83.4</course><type>1</type></trkpt>
      <trkpt lat="40.62744987" lon="-5.04202836"><ele>2720</ele><speed>17.18</speed><time>2016-06-29T12:13:12Z</time><pdop>3.0</pdop><geoidheight>54.00</geoidheight><course>83.4</course><type>1</type></trkpt>
      <trkpt lat="40.62745412" lon="-5.04182563"><ele>2719</ele><speed>17.12</speed><time>2016-06-29T12:13:13Z</time><pdop>3.0</pdop><geoidheight>54.00</geoidheight><course>86.0</course><type>1</type></trkpt>
      <trkpt lat="40.62746667" lon="-5.04162379"><ele>2719</ele><speed>16.68</speed><time>2016-06-29T12:13:14Z</time><pdop>3.0</pdop><geoidheight>54.00</geoidheight><course>85.7</course><type>1</type></trkpt>
      <trkpt lat="40.6274888" lon="-5.04143714"><ele>2719</ele><speed>16.26</speed><time>2016-06-29T12:13:15Z</time><pdop>3.0</pdop><geoidheight>54.00</geoidheight><course>81.5</course><type>1</type></trkpt>
      <trkpt lat="40.62752072" lon="-5.0412448"><ele>2719</ele><speed>16.50</speed><time>2016-06-29T12:13:16Z</time><pdop>3.0</pdop><geoidheight>54.00</geoidheight><course>76.8</course><type>1</type></trkpt>
      <trkpt lat="40.62756785" lon="-5.04106249"><ele>2718</ele><speed>16.93</speed><time>2016-06-29T12:13:17Z</time><pdop>3.0</pdop><geoidheight>54.00</geoidheight><course>73.1</course><type>1</type></trkpt>
      <trkpt lat="40.62761609" lon="-5.04086611"><ele>2717</ele><speed>16.89</speed><time>2016-06-29T12:13:18Z</time><pdop>3.0</pdop><geoidheight>54.00</geoidheight><course>72.6</course><type>1</type></trkpt>
      <trkpt lat="40.62765558" lon="-5.04068243"><ele>2718</ele><speed>16.48</speed><time>2016-06-29T12:13:19Z</time><pdop>3.0</pdop><geoidheight>54.00</geoidheight><course>73.4</course><type>1</type></trkpt>
      <trkpt lat="40.62769528" lon="-5.040505"><ele>2718</ele><speed>16.28</speed><time>2016-06-29T12:13:20Z</time><pdop>3.0</pdop><geoidheight>54.00</geoidheight><course>73.5</course><type>1</type></trkpt>
      <trkpt lat="40.6277463" lon="-5.04030677"><ele>2717</ele><speed>16.97</speed><time>2016-06-29T12:13:21Z</time><pdop>3.0</pdop><geoidheight>54.00</geoidheight><course>73.7</course><type>1</type></trkpt>
      <trkpt lat="40.62778764" lon="-5.04011612"><ele>2717</ele><speed>16.87</speed><time>2016-06-29T12:13:22Z</time><pdop>3.0</pdop><geoidheight>54.00</geoidheight><course>74.5</course><type>1</type></trkpt>
      <trkpt lat="40.6278287" lon="-5.0399246"><ele>2719</ele><speed>16.48</speed><time>2016-06-29T12:13:23Z</time><pdop>3.0</pdop><geoidheight>54.00</geoidheight><course>74.9</course><type>1</type></trkpt>
      <trkpt lat="40.62786689" lon="-5.03973939"><ele>2719</ele><speed>16.17</speed><time>2016-06-29T12:13:24Z</time><pdop>3.0</pdop><geoidheight>54.00</geoidheight><course>74.8</course><type>1</type></trkpt>
      <trkpt lat="40.62790957" lon="-5.03955437"><ele>2719</ele><speed>16.28</speed><time>2016-06-29T12:13:25Z</time><pdop>3.0</pdop><geoidheight>54.00</geoidheight><course>74.2</course><type>1</type></trkpt>
      <trkpt lat="40.62793925" lon="-5.03937939"><ele>2719</ele><speed>15.81</speed><time>2016-06-29T12:13:26Z</time><pdop>3.0</pdop><geoidheight>54.00</geoidheight><course>74.1</course><type>1</type></trkpt>
      <trkpt lat="40.62797987" lon="-5.03921135"><ele>2719</ele><speed>15.33</speed><time>2016-06-29T12:13:27Z</time><pdop>3.0</pdop><geoidheight>54.00</geoidheight><course>73.6</course><type>1</type></trkpt>
      <trkpt lat="40.62801896" lon="-5.03904064"><ele>2719</ele><speed>15.13</speed><time>2016-06-29T12:13:28Z</time><pdop>3.0</pdop><geoidheight>54.00</geoidheight><course>74.2</course><type>1</type></trkpt>
      <trkpt lat="40.62805564" lon="-5.03886149"><ele>2719</ele><speed>15.59</speed><time>2016-06-29T12:13:29Z</time><pdop>3.0</pdop><geoidheight>54.00</geoidheight><course>76.1</course><type>1</type></trkpt>
      <trkpt lat="40.62808569" lon="-5.03866987"><ele>2719</ele><speed>16.34</speed><time>2016-06-29T12:13:30Z</time><pdop>3.0</pdop><geoidheight>54.00</geoidheight><course>76.9</course><type>1</type></trkpt>
      <trkpt lat="40.62812617" lon="-5.03847133"><ele>2718</ele><speed>17.08</speed><time>2016-06-29T12:13:31Z</time><pdop>3.0</pdop><geoidheight>54.00</geoidheight><course>76.2</course><type>1</type></trkpt>
      <trkpt lat="40.62816397" lon="-5.03826889"><ele>2718</ele><speed>17.63</speed><time>2016-06-29T12:13:32Z</time><pdop>3.0</pdop><geoidheight>54.00</geoidheight><course>76.5</course><type>1</type></trkpt>
      <trkpt lat="40.62819831" lon="-5.03806641"><ele>2718</ele><speed>17.60</speed><time>2016-06-29T12:13:33Z</time><pdop>3.0</pdop><geoidheight>54.00</geoidheight><course>77.1</course><type>1</type></trkpt>
      <trkpt lat="40.62823368" lon="-5.03787146"><ele>2718</ele><speed>17.34</speed><time>2016-06-29T12:13:34Z</time><pdop>3.0</pdop><geoidheight>54.00</geoidheight><course>78.5</course><type>1</type></trkpt>
      <trkpt lat="40.62825476" lon="-5.03765527"><ele>2717</ele><speed>18.12</speed><time>2016-06-29T12:13:35Z</time><pdop>3.0</pdop><geoidheight>54.00</geoidheight><course>81.7</course><type>1</type></trkpt>
      <trkpt lat="40.6282819" lon="-5.03743286"><ele>2718</ele><speed>18.37</speed><time>2016-06-29T12:13:36Z</time><pdop>3.0</pdop><geoidheight>54.00</geoidheight><course>82.3</course><type>1</type></trkpt>
      <trkpt lat="40.62829662" lon="-5.0372214"><ele>2718</ele><speed>18.21</speed><time>2016-06-29T12:13:37Z</time><pdop>3.0</pdop><geoidheight>54.00</geoidheight><course>83.0</course><type>1</type></trkpt>
      <trkpt lat="40.62831854" lon="-5.03702256"><ele>2719</ele><speed>17.14</speed><time>2016-06-29T12:13:38Z</time><pdop>3.0</pdop><geoidheight>54.00</geoidheight><course>83.9</course><type>1</type></trkpt>
      <trkpt lat="40.62832916" lon="-5.03683656"><ele>2720</ele><speed>16.25</speed><time>2016-06-29T12:13:39Z</time><pdop>3.0</pdop><geoidheight>54.00</geoidheight><course>85.5</course><type>1</type></trkpt>
      <trkpt lat="40.62834457" lon="-5.03664518"><ele>2720</ele><speed>16.09</speed><time>2016-06-29T12:13:40Z</time><pdop>3.0</pdop><geoidheight>54.00</geoidheight><course>85.5</course><type>1</type></trkpt>
      <trkpt lat="40.62834312" lon="-5.03645813"><ele>2720</ele><speed>16.07</speed><time>2016-06-29T12:13:41Z</time><pdop>3.0</pdop><geoidheight>54.00</geoidheight><course>87.9</course><type>1</type></trkpt>
      <trkpt lat="40.62834329" lon="-5.03626234"><ele>2720</ele><speed>16.29</speed><time>2016-06-29T12:13:42Z</time><pdop>3.0</pdop><geoidheight>54.00</geoidheight><course>87.8</course><type>1</type></trkpt>
      <trkpt lat="40.62834511" lon="-5.03606625"><ele>2720</ele><speed>16.36</speed><time>2016-06-29T12:13:43Z</time><pdop>3.0</pdop><geoidheight>54.00</geoidheight><course>87.0</course><type>1</type></trkpt>
      <trkpt lat="40.62834853" lon="-5.03587795"><ele>2720</ele><speed>16.22</speed><time>2016-06-29T12:13:44Z</time><pdop>3.0</pdop><geoidheight>54.00</geoidheight><course>87.0</course><type>1</type></trkpt>
      <trkpt lat="40.62835248" lon="-5.03569157"><ele>2720</ele><speed>16.02</speed><time>2016-06-29T12:13:45Z</time><pdop>3.0</pdop><geoidheight>54.00</geoidheight><course>87.8</course><type>1</type></trkpt>
      <trkpt lat="40.62835725" lon="-5.03549488"><ele>2720</ele><speed>15.92</speed><time>2016-06-29T12:13:46Z</time><pdop>3.0</pdop><geoidheight>54.00</geoidheight><course>87.9</course><type>1</type></trkpt>
      <trkpt lat="40.62837071" lon="-5.03529992"><ele>2720</ele><speed>16.30</speed><time>2016-06-29T12:13:47Z</time><pdop>3.0</pdop><geoidheight>54.00</geoidheight><course>85.8</course><type>1</type></trkpt>
      <trkpt lat="40.62838407" lon="-5.0350972"><ele>2719</ele><speed>16.92</speed><time>2016-06-29T12:13:48Z</time><pdop>3.0</pdop><geoidheight>54.00</geoidheight><course>85.5</course><type>1</type></trkpt>
      <trkpt lat="40.62839612" lon="-5.03490089"><ele>2717</ele><speed>17.57</speed><time>2016-06-29T12:13:49Z</time><pdop>3.0</pdop><geoidheight>54.00</geoidheight><course>86.3</course><type>1</type></trkpt>
      <trkpt lat="40.62839275" lon="-5.03468776"><ele>2717</ele><speed>18.12</speed><time>2016-06-29T12:13:50Z</time><pdop>3.0</pdop><geoidheight>54.00</geoidheight><course>89.1</course><type>1</type></trkpt>
      <trkpt lat="40.62839203" lon="-5.0344437"><ele>2716</ele><speed>19.37</speed><time>2016-06-29T12:13:51Z</time><pdop>3.0</pdop><geoidheight>54.00</geoidheight><course>90.3</course><type>1</type></trkpt>
      <trkpt lat="40.62837603" lon="-5.03423833"><ele>2715</ele><speed>18.80</speed><time>2016-06-29T12:13:52Z</time><pdop>4.0</pdop><geoidheight>54.00</geoidheight><course>93.3</course><type>1</type></trkpt>
      <trkpt lat="40.62836403" lon="-5.03401727"><ele>2715</ele><speed>18.60</speed><time>2016-06-29T12:13:53Z</time><pdop>4.0</pdop><geoidheight>54.00</geoidheight><course>94.0</course><type>1</type></trkpt>
      <trkpt lat="40.62835024" lon="-5.0338165"><ele>2715</ele><speed>17.91</speed><time>2016-06-29T12:13:54Z</time><pdop>4.0</pdop><geoidheight>54.00</geoidheight><course>94.4</course><type>1</type></trkpt>
      <trkpt lat="40.62833739" lon="-5.03359999"><ele>2715</ele><speed>17.95</speed><time>2016-06-29T12:13:55Z</time><pdop>4.0</pdop><geoidheight>54.00</geoidheight><course>94.1</course><type>1</type></trkpt>
      <trkpt lat="40.62833052" lon="-5.03337804"><ele>2716</ele><speed>18.13</speed><time>2016-06-29T12:13:56Z</time><pdop>3.0</pdop><geoidheight>54.00</geoidheight><course>92.4</course><type>1</type></trkpt>
      <trkpt lat="40.62832832" lon="-5.03317959"><ele>2714</ele><speed>18.25</speed><time>2016-06-29T12:13:57Z</time><pdop>9.0</pdop><geoidheight>54.00</geoidheight><course>90.8</course><type>1</type></trkpt>
      <trkpt lat="40.62832918" lon="-5.03295516"><ele>2714</ele><speed>18.48</speed><time>2016-06-29T12:13:58Z</time><pdop>9.0</pdop><geoidheight>54.00</geoidheight><course>88.8</course><type>1</type></trkpt>
      <trkpt lat="40.62834206" lon="-5.03271982"><ele>2715</ele><speed>19.03</speed><time>2016-06-29T12:13:59Z</time><pdop>9.0</pdop><geoidheight>54.00</geoidheight><course>85.6</course><type>1</type></trkpt>
      <trkpt lat="40.62836942" lon="-5.03248905"><ele>2716</ele><speed>19.35</speed><time>2016-06-29T12:14:00Z</time><pdop>3.0</pdop><geoidheight>54.00</geoidheight><course>82.8</course><type>1</type></trkpt>
      <trkpt lat="40.62840424" lon="-5.03227459"><ele>2716</ele><speed>19.01</speed><time>2016-06-29T12:14:01Z</time><pdop>3.0</pdop><geoidheight>54.00</geoidheight><course>80.2</course><type>1</type></trkpt>
      <trkpt lat="40.62843246" lon="-5.03205541"><ele>2716</ele><speed>19.02</speed><time>2016-06-29T12:14:02Z</time><pdop>3.0</pdop><geoidheight>54.00</geoidheight><course>79.5</course><type>1</type></trkpt>
      <trkpt lat="40.62845391" lon="-5.03183752"><ele>2716</ele><speed>18.61</speed><time>2016-06-29T12:14:03Z</time><pdop>3.0</pdop><geoidheight>54.00</geoidheight><course>82.2</course><type>1</type></trkpt>
      <trkpt lat="40.62846933" lon="-5.0316172"><ele>2718</ele><speed>18.57</speed><time>2016-06-29T12:14:04Z</time><pdop>3.0</pdop><geoidheight>54.00</geoidheight><course>84.1</course><type>1</type></trkpt>
      <trkpt lat="40.62842632" lon="-5.0314232"><ele>2718</ele><speed>17.39</speed><time>2016-06-29T12:14:05Z</time><pdop>3.0</pdop><geoidheight>54.00</geoidheight><course>97.6</course><type>1</type></trkpt>
      <trkpt lat="40.62839479" lon="-5.03124073"><ele>2719</ele><speed>16.19</speed><time>2016-06-29T12:14:06Z</time><pdop>3.0</pdop><geoidheight>54.00</geoidheight><course>104.0</course><type>1</type></trkpt>
      <trkpt lat="40.62835102" lon="-5.03106915"><ele>2719</ele><speed>14.87</speed><time>2016-06-29T12:14:07Z</time><pdop>3.0</pdop><geoidheight>54.00</geoidheight><course>111.5</course><type>1</type></trkpt>
      <trkpt lat="40.62828461" lon="-5.03094141"><ele>2719</ele><speed>13.26</speed><time>2016-06-29T12:14:08Z</time><pdop>3.0</pdop><geoidheight>54.00</geoidheight><course>122.6</course><type>1</type></trkpt>
      <trkpt lat="40.62821347" lon="-5.03084473"><ele>2718</ele><speed>11.56</speed><time>2016-06-29T12:14:09Z</time><pdop>3.0</pdop><geoidheight>54.00</geoidheight><course>136.3</course><type>1</type></trkpt>
      <trkpt lat="40.62814796" lon="-5.03079094"><ele>2719</ele><speed>9.29</speed><time>2016-06-29T12:14:10Z</time><pdop>3.0</pdop><geoidheight>54.00</geoidheight><course>148.7</course><type>1</type></trkpt>
      <trkpt lat="40.62808524" lon="-5.03078703"><ele>2720</ele><speed>2.75</speed><time>2016-06-29T12:14:12Z</time><pdop>3.0</pdop><geoidheight>54.00</geoidheight><course>182.7</course><type>1</type></trkpt>
      <trkpt lat="40.628163" lon="-5.03082003"><ele>2717</ele><speed>4.98</speed><time>2016-06-29T12:14:15Z</time><pdop>3.0</pdop><geoidheight>54.00</geoidheight><course>342.9</course><type>1</type></trkpt>
      <trkpt lat="40.62822269" lon="-5.03083535"><ele>2716</ele><speed>6.53</speed><time>2016-06-29T12:14:16Z</time><pdop>3.0</pdop><geoidheight>54.00</geoidheight><course>347.6</course><type>1</type></trkpt>
      <trkpt lat="40.62831749" lon="-5.0308228"><ele>2717</ele><speed>9.14</speed><time>2016-06-29T12:14:17Z</time><pdop>4.0</pdop><geoidheight>54.00</geoidheight><course>357.4</course><type>1</type></trkpt>
      <trkpt lat="40.62844241" lon="-5.0307989"><ele>2716</ele><speed>11.57</speed><time>2016-06-29T12:14:18Z</time><pdop>4.0</pdop><geoidheight>54.00</geoidheight><course>5.7</course><type>1</type></trkpt>
      <trkpt lat="40.62861369" lon="-5.03066873"><ele>2715</ele><speed>16.17</speed><time>2016-06-29T12:14:19Z</time><pdop>5.0</pdop><geoidheight>54.00</geoidheight><course>19.9</course><type>1</type></trkpt>
      <trkpt lat="40.62876427" lon="-5.03056241"><ele>2714</ele><speed>17.76</speed><time>2016-06-29T12:14:20Z</time><pdop>5.0</pdop><geoidheight>54.00</geoidheight><course>25.2</course><type>1</type></trkpt>
      <trkpt lat="40.62884886" lon="-5.03036045"><ele>2716</ele><speed>18.62</speed><time>2016-06-29T12:14:21Z</time><pdop>4.0</pdop><geoidheight>54.00</geoidheight><course>42.9</course><type>1</type></trkpt>
      <trkpt lat="40.62898108" lon="-5.03020233"><ele>2716</ele><speed>19.41</speed><time>2016-06-29T12:14:22Z</time><pdop>4.0</pdop><geoidheight>54.00</geoidheight><course>44.3</course><type>1</type></trkpt>
      <trkpt lat="40.6291136" lon="-5.03002548"><ele>2714</ele><speed>20.30</speed><time>2016-06-29T12:14:23Z</time><pdop>4.0</pdop><geoidheight>54.00</geoidheight><course>44.6</course><type>1</type></trkpt>
      <trkpt lat="40.62923936" lon="-5.02984216"><ele>2713</ele><speed>20.72</speed><time>2016-06-29T12:14:24Z</time><pdop>4.0</pdop><geoidheight>54.00</geoidheight><course>46.9</course><type>1</type></trkpt>
      <trkpt lat="40.62936376" lon="-5.02964902"><ele>2713</ele><speed>20.97</speed><time>2016-06-29T12:14:25Z</time><pdop>4.0</pdop><geoidheight>54.00</geoidheight><course>50.0</course><type>1</type></trkpt>
      <trkpt lat="40.62946907" lon="-5.02943934"><ele>2713</ele><speed>20.77</speed><time>2016-06-29T12:14:26Z</time><pdop>5.0</pdop><geoidheight>54.00</geoidheight><course>52.9</course><type>1</type></trkpt>
      <trkpt lat="40.62954784" lon="-5.02921626"><ele>2712</ele><speed>20.63</speed><time>2016-06-29T12:14:27Z</time><pdop>5.0</pdop><geoidheight>54.00</geoidheight><course>58.3</course><type>1</type></trkpt>
      <trkpt lat="40.62959409" lon="-5.02900015"><ele>2711</ele><speed>19.88</speed><time>2016-06-29T12:14:28Z</time><pdop>5.0</pdop><geoidheight>54.00</geoidheight><course>63.8</course><type>1</type></trkpt>
      <trkpt lat="40.6296238" lon="-5.02880113"><ele>2711</ele><speed>18.97</speed><time>2016-06-29T12:14:29Z</time><pdop>4.0</pdop><geoidheight>54.00</geoidheight><course>70.6</course><type>1</type></trkpt>
      <trkpt lat="40.62967649" lon="-5.02859803"><ele>2711</ele><speed>18.18</speed><time>2016-06-29T12:14:30Z</time><pdop>4.0</pdop><geoidheight>54.00</geoidheight><course>71.8</course><type>1</type></trkpt>
      <trkpt lat="40.62972881" lon="-5.02839445"><ele>2712</ele><speed>17.80</speed><time>2016-06-29T12:14:31Z</time><pdop>4.0</pdop><geoidheight>54.00</geoidheight><course>72.8</course><type>1</type></trkpt>
      <trkpt lat="40.62976874" lon="-5.0281899"><ele>2710</ele><speed>17.75</speed><time>2016-06-29T12:14:32Z</time><pdop>4.0</pdop><geoidheight>54.00</geoidheight><course>75.5</course><type>1</type></trkpt>
      <trkpt lat="40.62980325" lon="-5.02797563"><ele>2709</ele><speed>18.05</speed><time>2016-06-29T12:14:33Z</time><pdop>3.0</pdop><geoidheight>54.00</geoidheight><course>79.7</course><type>1</type></trkpt>
      <trkpt lat="40.629818" lon="-5.02776135"><ele>2708</ele><speed>17.65</speed><time>2016-06-29T12:14:34Z</time><pdop>3.0</pdop><geoidheight>54.00</geoidheight><course>83.6</course><type>1</type></trkpt>
      <trkpt lat="40.62982438" lon="-5.02756127"><ele>2707</ele><speed>16.86</speed><time>2016-06-29T12:14:35Z</time><pdop>3.0</pdop><geoidheight>54.00</geoidheight><course>88.3</course><type>1</type></trkpt>
      <trkpt lat="40.62982055" lon="-5.02737953"><ele>2706</ele><speed>15.94</speed><time>2016-06-29T12:14:36Z</time><pdop>3.0</pdop><geoidheight>54.00</geoidheight><course>93.3</course><type>1</type></trkpt>
      <trkpt lat="40.62979963" lon="-5.0272037"><ele>2704</ele><speed>15.58</speed><time>2016-06-29T12:14:37Z</time><pdop>3.0</pdop><geoidheight>54.00</geoidheight><course>97.3</course><type>1</type></trkpt>
      <trkpt lat="40.62974099" lon="-5.0270541"><ele>2701</ele><speed>14.65</speed><time>2016-06-29T12:14:38Z</time><pdop>3.0</pdop><geoidheight>54.00</geoidheight><course>110.3</course><type>1</type></trkpt>
      <trkpt lat="40.62967429" lon="-5.02691626"><ele>2699</ele><speed>13.95</speed><time>2016-06-29T12:14:39Z</time><pdop>3.0</pdop><geoidheight>54.00</geoidheight><course>121.3</course><type>1</type></trkpt>
      <trkpt lat="40.62959119" lon="-5.02680637"><ele>2698</ele><speed>12.81</speed><time>2016-06-29T12:14:40Z</time><pdop>3.0</pdop><geoidheight>54.00</geoidheight><course>130.8</course><type>1</type></trkpt>
      <trkpt lat="40.62951335" lon="-5.02674305"><ele>2696</ele><speed>10.73</speed><time>2016-06-29T12:14:41Z</time><pdop>3.0</pdop><geoidheight>54.00</geoidheight><course>141.8</course><type>1</type></trkpt>
      <trkpt lat="40.62945143" lon="-5.02669932"><ele>2695</ele><speed>8.42</speed><time>2016-06-29T12:14:42Z</time><pdop>3.0</pdop><geoidheight>54.00</geoidheight><course>150.0</course><type>1</type></trkpt>
      <trkpt lat="40.62935899" lon="-5.0266892"><ele>2693</ele><speed>5.63</speed><time>2016-06-29T12:14:44Z</time><pdop>3.0</pdop><geoidheight>54.00</geoidheight><course>179.6</course><type>1</type></trkpt>
      <trkpt lat="40.62940748" lon="-5.02678789"><ele>2690</ele><speed>4.61</speed><time>2016-06-29T12:14:47Z</time><pdop>3.0</pdop><geoidheight>54.00</geoidheight><course>330.7</course><type>1</type></trkpt>
      <trkpt lat="40.62946475" lon="-5.02681384"><ele>2690</ele><speed>6.04</speed><time>2016-06-29T12:14:48Z</time><pdop>3.0</pdop><geoidheight>54.00</geoidheight><course>344.6</course><type>1</type></trkpt>
      <trkpt lat="40.62954117" lon="-5.02679377"><ele>2690</ele><speed>7.82</speed><time>2016-06-29T12:14:49Z</time><pdop>3.0</pdop><geoidheight>54.00</geoidheight><course>3.2</course><type>1</type></trkpt>
      <trkpt lat="40.62964527" lon="-5.02675619"><ele>2689</ele><speed>10.04</speed><time>2016-06-29T12:14:50Z</time><pdop>4.0</pdop><geoidheight>54.00</geoidheight><course>11.5</course><type>1</type></trkpt>
      <trkpt lat="40.62974076" lon="-5.02674934"><ele>2689</ele><speed>10.56</speed><time>2016-06-29T12:14:51Z</time><pdop>4.0</pdop><geoidheight>54.00</geoidheight><course>9.8</course><type>1</type></trkpt>
      <trkpt lat="40.6298662" lon="-5.02660281"><ele>2686</ele><speed>13.87</speed><time>2016-06-29T12:14:52Z</time><pdop>5.0</pdop><geoidheight>54.00</geoidheight><course>29.3</course><type>1</type></trkpt>
      <trkpt lat="40.62999385" lon="-5.0264731"><ele>2684</ele><speed>15.92</speed><time>2016-06-29T12:14:53Z</time><pdop>6.0</pdop><geoidheight>54.00</geoidheight><course>34.7</course><type>1</type></trkpt>
      <trkpt lat="40.63007185" lon="-5.02631169"><ele>2683</ele><speed>16.30</speed><time>2016-06-29T12:14:54Z</time><pdop>6.0</pdop><geoidheight>54.00</geoidheight><course>43.4</course><type>1</type></trkpt>
      <trkpt lat="40.63013943" lon="-5.02611788"><ele>2682</ele><speed>16.88</speed><time>2016-06-29T12:14:55Z</time><pdop>5.0</pdop><geoidheight>54.00</geoidheight><course>52.3</course><type>1</type></trkpt>
      <trkpt lat="40.63024242" lon="-5.02596967"><ele>2680</ele><speed>16.79</speed><time>2016-06-29T12:14:56Z</time><pdop>4.0</pdop><geoidheight>54.00</geoidheight><course>52.9</course><type>1</type></trkpt>
      <trkpt lat="40.63034121" lon="-5.02580062"><ele>2679</ele><speed>17.20</speed><time>2016-06-29T12:14:57Z</time><pdop>4.0</pdop><geoidheight>54.00</geoidheight><course>52.0</course><type>1</type></trkpt>
      <trkpt lat="40.6304328" lon="-5.02564811"><ele>2676</ele><speed>16.71</speed><time>2016-06-29T12:14:58Z</time><pdop>3.0</pdop><geoidheight>54.00</geoidheight><course>50.6</course><type>1</type></trkpt>
      <trkpt lat="40.63053415" lon="-5.02548826"><ele>2675</ele><speed>17.37</speed><time>2016-06-29T12:14:59Z</time><pdop>3.0</pdop><geoidheight>54.00</geoidheight><course>50.6</course><type>1</type></trkpt>
      <trkpt lat="40.63063468" lon="-5.025332"><ele>2673</ele><speed>17.85</speed><time>2016-06-29T12:15:00Z</time><pdop>4.0</pdop><geoidheight>54.00</geoidheight><course>50.0</course><type>1</type></trkpt>
      <trkpt lat="40.63074" lon="-5.02518017"><ele>2671</ele><speed>17.82</speed><time>2016-06-29T12:15:01Z</time><pdop>3.0</pdop><geoidheight>54.00</geoidheight><course>47.4</course><type>1</type></trkpt>
      <trkpt lat="40.63083338" lon="-5.02502282"><ele>2669</ele><speed>17.01</speed><time>2016-06-29T12:15:02Z</time><pdop>3.0</pdop><geoidheight>54.00</geoidheight><course>47.8</course><type>1</type></trkpt>
      <trkpt lat="40.63094261" lon="-5.02488217"><ele>2667</ele><speed>16.37</speed><time>2016-06-29T12:15:03Z</time><pdop>3.0</pdop><geoidheight>54.00</geoidheight><course>47.3</course><type>1</type></trkpt>
      <trkpt lat="40.6310502" lon="-5.02475606"><ele>2665</ele><speed>15.97</speed><time>2016-06-29T12:15:04Z</time><pdop>3.0</pdop><geoidheight>54.00</geoidheight><course>45.6</course><type>1</type></trkpt>
      <trkpt lat="40.63116023" lon="-5.02462707"><ele>2664</ele><speed>16.24</speed><time>2016-06-29T12:15:05Z</time><pdop>4.0</pdop><geoidheight>54.00</geoidheight><course>45.4</course><type>1</type></trkpt>
      <trkpt lat="40.63126077" lon="-5.02448142"><ele>2664</ele><speed>16.61</speed><time>2016-06-29T12:15:06Z</time><pdop>5.0</pdop><geoidheight>54.00</geoidheight><course>45.9</course><type>1</type></trkpt>
      <trkpt lat="40.63137445" lon="-5.02434424"><ele>2662</ele><speed>17.08</speed><time>2016-06-29T12:15:07Z</time><pdop>6.0</pdop><geoidheight>54.00</geoidheight><course>44.8</course><type>1</type></trkpt>
      <trkpt lat="40.63151111" lon="-5.02423167"><ele>2660</ele><speed>17.07</speed><time>2016-06-29T12:15:08Z</time><pdop>6.0</pdop><geoidheight>54.00</geoidheight><course>40.3</course><type>1</type></trkpt>
      <trkpt lat="40.63163558" lon="-5.02411243"><ele>2659</ele><speed>17.08</speed><time>2016-06-29T12:15:09Z</time><pdop>5.0</pdop><geoidheight>54.00</geoidheight><course>34.8</course><type>1</type></trkpt>
      <trkpt lat="40.63174231" lon="-5.02401442"><ele>2656</ele><speed>15.90</speed><time>2016-06-29T12:15:10Z</time><pdop>4.0</pdop><geoidheight>54.00</geoidheight><course>35.3</course><type>1</type></trkpt>
      <trkpt lat="40.63185246" lon="-5.02389314"><ele>2654</ele><speed>15.59</speed><time>2016-06-29T12:15:11Z</time><pdop>4.0</pdop><geoidheight>54.00</geoidheight><course>36.7</course><type>1</type></trkpt>
      <trkpt lat="40.63196399" lon="-5.02377887"><ele>2651</ele><speed>16.21</speed><time>2016-06-29T12:15:12Z</time><pdop>4.0</pdop><geoidheight>54.00</geoidheight><course>37.3</course><type>1</type></trkpt>
      <trkpt lat="40.63209129" lon="-5.02365915"><ele>2650</ele><speed>17.06</speed><time>2016-06-29T12:15:13Z</time><pdop>4.0</pdop><geoidheight>54.00</geoidheight><course>36.9</course><type>1</type></trkpt>
      <trkpt lat="40.63220224" lon="-5.02353532"><ele>2648</ele><speed>17.09</speed><time>2016-06-29T12:15:14Z</time><pdop>4.0</pdop><geoidheight>54.00</geoidheight><course>36.0</course><type>1</type></trkpt>
      <trkpt lat="40.63233343" lon="-5.02341198"><ele>2647</ele><speed>17.32</speed><time>2016-06-29T12:15:15Z</time><pdop>4.0</pdop><geoidheight>54.00</geoidheight><course>37.0</course><type>1</type></trkpt>
      <trkpt lat="40.63244717" lon="-5.02327537"><ele>2646</ele><speed>17.16</speed><time>2016-06-29T12:15:16Z</time><pdop>3.0</pdop><geoidheight>54.00</geoidheight><course>39.7</course><type>1</type></trkpt>
      <trkpt lat="40.63255323" lon="-5.0231481"><ele>2644</ele><speed>16.67</speed><time>2016-06-29T12:15:17Z</time><pdop>4.0</pdop><geoidheight>54.00</geoidheight><course>39.5</course><type>1</type></trkpt>
      <trkpt lat="40.63266676" lon="-5.02301794"><ele>2643</ele><speed>16.55</speed><time>2016-06-29T12:15:18Z</time><pdop>3.0</pdop><geoidheight>54.00</geoidheight><course>40.2</course><type>1</type></trkpt>
      <trkpt lat="40.63278021" lon="-5.02287848"><ele>2639</ele><speed>17.00</speed><time>2016-06-29T12:15:19Z</time><pdop>3.0</pdop><geoidheight>54.00</geoidheight><course>40.8</course><type>1</type></trkpt>
      <trkpt lat="40.63290353" lon="-5.02274106"><ele>2636</ele><speed>17.84</speed><time>2016-06-29T12:15:20Z</time><pdop>3.0</pdop><geoidheight>54.00</geoidheight><course>42.1</course><type>1</type></trkpt>
      <trkpt lat="40.63301901" lon="-5.02257773"><ele>2633</ele><speed>18.54</speed><time>2016-06-29T12:15:21Z</time><pdop>3.0</pdop><geoidheight>54.00</geoidheight><course>44.2</course><type>1</type></trkpt>
      <trkpt lat="40.63313594" lon="-5.02241221"><ele>2629</ele><speed>19.10</speed><time>2016-06-29T12:15:22Z</time><pdop>3.0</pdop><geoidheight>54.00</geoidheight><course>46.2</course><type>1</type></trkpt>
      <trkpt lat="40.63324835" lon="-5.02224007"><ele>2628</ele><speed>18.94</speed><time>2016-06-29T12:15:23Z</time><pdop>3.0</pdop><geoidheight>54.00</geoidheight><course>47.5</course><type>1</type></trkpt>
      <trkpt lat="40.6333542" lon="-5.02208891"><ele>2626</ele><speed>18.24</speed><time>2016-06-29T12:15:24Z</time><pdop>3.0</pdop><geoidheight>54.00</geoidheight><course>47.8</course><type>1</type></trkpt>
      <trkpt lat="40.63345376" lon="-5.02193684"><ele>2624</ele><speed>17.89</speed><time>2016-06-29T12:15:25Z</time><pdop>3.0</pdop><geoidheight>54.00</geoidheight><course>48.8</course><type>1</type></trkpt>
      <trkpt lat="40.63355106" lon="-5.02177791"><ele>2622</ele><speed>17.74</speed><time>2016-06-29T12:15:26Z</time><pdop>3.0</pdop><geoidheight>54.00</geoidheight><course>50.0</course><type>1</type></trkpt>
      <trkpt lat="40.63365129" lon="-5.02161335"><ele>2620</ele><speed>18.06</speed><time>2016-06-29T12:15:27Z</time><pdop>3.0</pdop><geoidheight>54.00</geoidheight><course>50.5</course><type>1</type></trkpt>
      <trkpt lat="40.63376717" lon="-5.02144861"><ele>2618</ele><speed>18.65</speed><time>2016-06-29T12:15:28Z</time><pdop>3.0</pdop><geoidheight>54.00</geoidheight><course>48.3</course><type>1</type></trkpt>
      <trkpt lat="40.63388133" lon="-5.02128566"><ele>2616</ele><speed>18.32</speed><time>2016-06-29T12:15:29Z</time><pdop>3.0</pdop><geoidheight>54.00</geoidheight><course>46.3</course><type>1</type></trkpt>
      <trkpt lat="40.63399603" lon="-5.02112386"><ele>2615</ele><speed>18.56</speed><time>2016-06-29T12:15:30Z</time><pdop>3.0</pdop><geoidheight>54.00</geoidheight><course>47.7</course><type>1</type></trkpt>
      <trkpt lat="40.63409569" lon="-5.02094982"><ele>2614</ele><speed>18.30</speed><time>2016-06-29T12:15:31Z</time><pdop>3.0</pdop><geoidheight>54.00</geoidheight><course>51.5</course><type>1</type></trkpt>
      <trkpt lat="40.63417382" lon="-5.02079472"><ele>2612</ele><speed>17.26</speed><time>2016-06-29T12:15:32Z</time><pdop>3.0</pdop><geoidheight>54.00</geoidheight><course>54.9</course><type>1</type></trkpt>
      <trkpt lat="40.63425785" lon="-5.02064483"><ele>2609</ele><speed>16.68</speed><time>2016-06-29T12:15:33Z</time><pdop>3.0</pdop><geoidheight>54.00</geoidheight><course>55.0</course><type>1</type></trkpt>
      <trkpt lat="40.63434534" lon="-5.02048645"><ele>2607</ele><speed>17.03</speed><time>2016-06-29T12:15:34Z</time><pdop>3.0</pdop><geoidheight>54.00</geoidheight><course>55.0</course><type>1</type></trkpt>
      <trkpt lat="40.63445363" lon="-5.02030417"><ele>2607</ele><speed>18.70</speed><time>2016-06-29T12:15:35Z</time><pdop>4.0</pdop><geoidheight>54.00</geoidheight><course>54.0</course><type>1</type></trkpt>
      <trkpt lat="40.63459727" lon="-5.02009883"><ele>2605</ele><speed>21.11</speed><time>2016-06-29T12:15:36Z</time><pdop>4.0</pdop><geoidheight>54.00</geoidheight><course>52.1</course><type>1</type></trkpt>
      <trkpt lat="40.63471927" lon="-5.01990632"><ele>2602</ele><speed>22.14</speed><time>2016-06-29T12:15:37Z</time><pdop>5.0</pdop><geoidheight>54.00</geoidheight><course>51.7</course><type>1</type></trkpt>
      <trkpt lat="40.63487277" lon="-5.01968394"><ele>2606</ele><speed>23.40</speed><time>2016-06-29T12:15:38Z</time><pdop>5.0</pdop><geoidheight>54.00</geoidheight><course>50.8</course><type>1</type></trkpt>
      <trkpt lat="40.63498544" lon="-5.01952733"><ele>2601</ele><speed>22.07</speed><time>2016-06-29T12:15:39Z</time><pdop>5.0</pdop><geoidheight>54.00</geoidheight><course>49.2</course><type>1</type></trkpt>
      <trkpt lat="40.63508744" lon="-5.01934224"><ele>2598</ele><speed>21.01</speed><time>2016-06-29T12:15:40Z</time><pdop>4.0</pdop><geoidheight>54.00</geoidheight><course>52.0</course><type>1</type></trkpt>
      <trkpt lat="40.63518747" lon="-5.01915741"><ele>2595</ele><speed>20.65</speed><time>2016-06-29T12:15:41Z</time><pdop>5.0</pdop><geoidheight>54.00</geoidheight><course>52.3</course><type>1</type></trkpt>
      <trkpt lat="40.63529848" lon="-5.01894422"><ele>2594</ele><speed>21.12</speed><time>2016-06-29T12:15:42Z</time><pdop>5.0</pdop><geoidheight>54.00</geoidheight><course>54.9</course><type>1</type></trkpt>
      <trkpt lat="40.63540707" lon="-5.01873529"><ele>2591</ele><speed>21.04</speed><time>2016-06-29T12:15:43Z</time><pdop>4.0</pdop><geoidheight>54.00</geoidheight><course>55.9</course><type>1</type></trkpt>
      <trkpt lat="40.63550449" lon="-5.01851069"><ele>2588</ele><speed>22.00</speed><time>2016-06-29T12:15:44Z</time><pdop>4.0</pdop><geoidheight>54.00</geoidheight><course>57.5</course><type>1</type></trkpt>
      <trkpt lat="40.63560923" lon="-5.01830764"><ele>2585</ele><speed>22.31</speed><time>2016-06-29T12:15:45Z</time><pdop>4.0</pdop><geoidheight>54.00</geoidheight><course>57.1</course><type>1</type></trkpt>
      <trkpt lat="40.63573164" lon="-5.01809606"><ele>2583</ele><speed>22.67</speed><time>2016-06-29T12:15:46Z</time><pdop>5.0</pdop><geoidheight>54.00</geoidheight><course>55.4</course><type>1</type></trkpt>
      <trkpt lat="40.63584444" lon="-5.01789323"><ele>2581</ele><speed>22.15</speed><time>2016-06-29T12:15:47Z</time><pdop>5.0</pdop><geoidheight>54.00</geoidheight><course>53.6</course><type>1</type></trkpt>
      <trkpt lat="40.6359653" lon="-5.01768986"><ele>2581</ele><speed>21.72</speed><time>2016-06-29T12:15:48Z</time><pdop>5.0</pdop><geoidheight>54.00</geoidheight><course>53.7</course><type>1</type></trkpt>
      <trkpt lat="40.63607351" lon="-5.01749698"><ele>2580</ele><speed>21.19</speed><time>2016-06-29T12:15:49Z</time><pdop>5.0</pdop><geoidheight>54.00</geoidheight><course>54.9</course><type>1</type></trkpt>
      <trkpt lat="40.63617857" lon="-5.01730249"><ele>2578</ele><speed>21.19</speed><time>2016-06-29T12:15:50Z</time><pdop>5.0</pdop><geoidheight>54.00</geoidheight><course>55.5</course><type>1</type></trkpt>
      <trkpt lat="40.63627474" lon="-5.0171182"><ele>2574</ele><speed>20.74</speed><time>2016-06-29T12:15:51Z</time><pdop>4.0</pdop><geoidheight>54.00</geoidheight><course>54.5</course><type>1</type></trkpt>
      <trkpt lat="40.63637609" lon="-5.01697622"><ele>2568</ele><speed>20.64</speed><time>2016-06-29T12:15:52Z</time><pdop>4.0</pdop><geoidheight>54.00</geoidheight><course>52.7</course><type>1</type></trkpt>
      <trkpt lat="40.63648594" lon="-5.01677985"><ele>2565</ele><speed>21.27</speed><time>2016-06-29T12:15:53Z</time><pdop>4.0</pdop><geoidheight>54.00</geoidheight><course>52.6</course><type>1</type></trkpt>
      <trkpt lat="40.63659964" lon="-5.01656778"><ele>2565</ele><speed>21.46</speed><time>2016-06-29T12:15:54Z</time><pdop>4.0</pdop><geoidheight>54.00</geoidheight><course>53.7</course><type>1</type></trkpt>
      <trkpt lat="40.63670305" lon="-5.01636802"><ele>2564</ele><speed>20.95</speed><time>2016-06-29T12:15:55Z</time><pdop>4.0</pdop><geoidheight>54.00</geoidheight><course>54.5</course><type>1</type></trkpt>
      <trkpt lat="40.63681054" lon="-5.01618026"><ele>2564</ele><speed>20.29</speed><time>2016-06-29T12:15:56Z</time><pdop>4.0</pdop><geoidheight>54.00</geoidheight><course>53.2</course><type>1</type></trkpt>
      <trkpt lat="40.63691214" lon="-5.01602831"><ele>2561</ele><speed>18.90</speed><time>2016-06-29T12:15:57Z</time><pdop>3.0</pdop><geoidheight>54.00</geoidheight><course>49.9</course><type>1</type></trkpt>
      <trkpt lat="40.63701647" lon="-5.01588285"><ele>2558</ele><speed>18.04</speed><time>2016-06-29T12:15:58Z</time><pdop>3.0</pdop><geoidheight>54.00</geoidheight><course>47.7</course><type>1</type></trkpt>
      <trkpt lat="40.63712942" lon="-5.01572793"><ele>2556</ele><speed>17.90</speed><time>2016-06-29T12:15:59Z</time><pdop>3.0</pdop><geoidheight>54.00</geoidheight><course>45.8</course><type>1</type></trkpt>
      <trkpt lat="40.63724302" lon="-5.01559188"><ele>2553</ele><speed>18.09</speed><time>2016-06-29T12:16:00Z</time><pdop>3.0</pdop><geoidheight>54.00</geoidheight><course>43.8</course><type>1</type></trkpt>
      <trkpt lat="40.63736513" lon="-5.01544416"><ele>2550</ele><speed>18.61</speed><time>2016-06-29T12:16:01Z</time><pdop>3.0</pdop><geoidheight>54.00</geoidheight><course>42.6</course><type>1</type></trkpt>
      <trkpt lat="40.63749507" lon="-5.01529379"><ele>2549</ele><speed>19.20</speed><time>2016-06-29T12:16:02Z</time><pdop>3.0</pdop><geoidheight>54.00</geoidheight><course>43.0</course><type>1</type></trkpt>
      <trkpt lat="40.63761491" lon="-5.01512726"><ele>2546</ele><speed>19.58</speed><time>2016-06-29T12:16:03Z</time><pdop>3.0</pdop><geoidheight>54.00</geoidheight><course>44.6</course><type>1</type></trkpt>
      <trkpt lat="40.63772898" lon="-5.0149522"><ele>2544</ele><speed>19.62</speed><time>2016-06-29T12:16:04Z</time><pdop>3.0</pdop><geoidheight>54.00</geoidheight><course>46.7</course><type>1</type></trkpt>
      <trkpt lat="40.6378464" lon="-5.0147906"><ele>2542</ele><speed>19.47</speed><time>2016-06-29T12:16:05Z</time><pdop>3.0</pdop><geoidheight>54.00</geoidheight><course>47.5</course><type>1</type></trkpt>
      <trkpt lat="40.63796763" lon="-5.01461996"><ele>2538</ele><speed>19.53</speed><time>2016-06-29T12:16:06Z</time><pdop>3.0</pdop><geoidheight>54.00</geoidheight><course>48.3</course><type>1</type></trkpt>
      <trkpt lat="40.63808284" lon="-5.01443546"><ele>2535</ele><speed>20.15</speed><time>2016-06-29T12:16:07Z</time><pdop>3.0</pdop><geoidheight>54.00</geoidheight><course>49.6</course><type>1</type></trkpt>
      <trkpt lat="40.63819842" lon="-5.01424582"><ele>2531</ele><speed>21.14</speed><time>2016-06-29T12:16:08Z</time><pdop>3.0</pdop><geoidheight>54.00</geoidheight><course>50.9</course><type>1</type></trkpt>
      <trkpt lat="40.6383245" lon="-5.0140507"><ele>2528</ele><speed>21.48</speed><time>2016-06-29T12:16:09Z</time><pdop>3.0</pdop><geoidheight>54.00</geoidheight><course>50.3</course><type>1</type></trkpt>
      <trkpt lat="40.63844424" lon="-5.01385223"><ele>2526</ele><speed>21.36</speed><time>2016-06-29T12:16:10Z</time><pdop>3.0</pdop><geoidheight>54.00</geoidheight><course>50.1</course><type>1</type></trkpt>
      <trkpt lat="40.63857655" lon="-5.01367261"><ele>2524</ele><speed>21.29</speed><time>2016-06-29T12:16:11Z</time><pdop>3.0</pdop><geoidheight>54.00</geoidheight><course>49.6</course><type>1</type></trkpt>
      <trkpt lat="40.63869879" lon="-5.01349471"><ele>2522</ele><speed>21.00</speed><time>2016-06-29T12:16:12Z</time><pdop>3.0</pdop><geoidheight>54.00</geoidheight><course>49.8</course><type>1</type></trkpt>
      <trkpt lat="40.63881801" lon="-5.01329954"><ele>2522</ele><speed>20.85</speed><time>2016-06-29T12:16:13Z</time><pdop>3.0</pdop><geoidheight>54.00</geoidheight><course>50.9</course><type>1</type></trkpt>
      <trkpt lat="40.6389246" lon="-5.01311357"><ele>2520</ele><speed>20.62</speed><time>2016-06-29T12:16:14Z</time><pdop>3.0</pdop><geoidheight>54.00</geoidheight><course>53.9</course><type>1</type></trkpt>
      <trkpt lat="40.63904058" lon="-5.01291572"><ele>2520</ele><speed>20.88</speed><time>2016-06-29T12:16:15Z</time><pdop>4.0</pdop><geoidheight>54.00</geoidheight><course>53.5</course><type>1</type></trkpt>
      <trkpt lat="40.63913663" lon="-5.0127086"><ele>2517</ele><speed>21.09</speed><time>2016-06-29T12:16:16Z</time><pdop>3.0</pdop><geoidheight>54.00</geoidheight><course>56.4</course><type>1</type></trkpt>
      <trkpt lat="40.6392369" lon="-5.01249785"><ele>2515</ele><speed>21.71</speed><time>2016-06-29T12:16:17Z</time><pdop>3.0</pdop><geoidheight>54.00</geoidheight><course>56.2</course><type>1</type></trkpt>
      <trkpt lat="40.63934908" lon="-5.01226381"><ele>2513</ele><speed>22.49</speed><time>2016-06-29T12:16:18Z</time><pdop>3.0</pdop><geoidheight>54.00</geoidheight><course>55.8</course><type>1</type></trkpt>
      <trkpt lat="40.63946825" lon="-5.01204828"><ele>2511</ele><speed>22.61</speed><time>2016-06-29T12:16:19Z</time><pdop>3.0</pdop><geoidheight>54.00</geoidheight><course>54.3</course><type>1</type></trkpt>
      <trkpt lat="40.63957485" lon="-5.01185255"><ele>2510</ele><speed>21.90</speed><time>2016-06-29T12:16:20Z</time><pdop>3.0</pdop><geoidheight>54.00</geoidheight><course>53.2</course><type>1</type></trkpt>
      <trkpt lat="40.63969472" lon="-5.0116616"><ele>2510</ele><speed>21.09</speed><time>2016-06-29T12:16:21Z</time><pdop>3.0</pdop><geoidheight>54.00</geoidheight><course>51.9</course><type>1</type></trkpt>
      <trkpt lat="40.6398043" lon="-5.01147074"><ele>2510</ele><speed>20.52</speed><time>2016-06-29T12:16:22Z</time><pdop>3.0</pdop><geoidheight>54.00</geoidheight><course>52.0</course><type>1</type></trkpt>
      <trkpt lat="40.63991928" lon="-5.0112752"><ele>2509</ele><speed>20.45</speed><time>2016-06-29T12:16:23Z</time><pdop>3.0</pdop><geoidheight>54.00</geoidheight><course>53.4</course><type>1</type></trkpt>
      <trkpt lat="40.64001516" lon="-5.01110066"><ele>2507</ele><speed>20.16</speed><time>2016-06-29T12:16:24Z</time><pdop>3.0</pdop><geoidheight>54.00</geoidheight><course>54.4</course><type>1</type></trkpt>
      <trkpt lat="40.64012871" lon="-5.01090115"><ele>2506</ele><speed>20.45</speed><time>2016-06-29T12:16:25Z</time><pdop>3.0</pdop><geoidheight>54.00</geoidheight><course>54.2</course><type>1</type></trkpt>
      <trkpt lat="40.64024475" lon="-5.01069529"><ele>2505</ele><speed>21.14</speed><time>2016-06-29T12:16:26Z</time><pdop>3.0</pdop><geoidheight>54.00</geoidheight><course>54.1</course><type>1</type></trkpt>
      <trkpt lat="40.64035641" lon="-5.01049596"><ele>2503</ele><speed>21.55</speed><time>2016-06-29T12:16:27Z</time><pdop>3.0</pdop><geoidheight>54.00</geoidheight><course>54.7</course><type>1</type></trkpt>
      <trkpt lat="40.64047509" lon="-5.01029199"><ele>2502</ele><speed>21.52</speed><time>2016-06-29T12:16:28Z</time><pdop>3.0</pdop><geoidheight>54.00</geoidheight><course>54.3</course><type>1</type></trkpt>
      <trkpt lat="40.64059338" lon="-5.01010962"><ele>2499</ele><speed>20.86</speed><time>2016-06-29T12:16:29Z</time><pdop>3.0</pdop><geoidheight>54.00</geoidheight><course>51.1</course><type>1</type></trkpt>
      <trkpt lat="40.64071208" lon="-5.00994491"><ele>2498</ele><speed>20.35</speed><time>2016-06-29T12:16:30Z</time><pdop>3.0</pdop><geoidheight>54.00</geoidheight><course>45.5</course><type>1</type></trkpt>
      <trkpt lat="40.64085113" lon="-5.00978715"><ele>2496</ele><speed>20.24</speed><time>2016-06-29T12:16:31Z</time><pdop>3.0</pdop><geoidheight>54.00</geoidheight><course>42.1</course><type>1</type></trkpt>
      <trkpt lat="40.64098868" lon="-5.00961717"><ele>2494</ele><speed>20.76</speed><time>2016-06-29T12:16:32Z</time><pdop>3.0</pdop><geoidheight>54.00</geoidheight><course>41.8</course><type>1</type></trkpt>
      <trkpt lat="40.64112349" lon="-5.00944806"><ele>2493</ele><speed>21.06</speed><time>2016-06-29T12:16:33Z</time><pdop>3.0</pdop><geoidheight>54.00</geoidheight><course>43.4</course><type>1</type></trkpt>
      <trkpt lat="40.6412533" lon="-5.00926015"><ele>2491</ele><speed>21.75</speed><time>2016-06-29T12:16:34Z</time><pdop>9.0</pdop><geoidheight>54.00</geoidheight><course>46.2</course><type>1</type></trkpt>
      <trkpt lat="40.64139285" lon="-5.00906235"><ele>2490</ele><speed>22.51</speed><time>2016-06-29T12:16:35Z</time><pdop>9.0</pdop><geoidheight>54.00</geoidheight><course>46.5</course><type>1</type></trkpt>
      <trkpt lat="40.6415311" lon="-5.00887014"><ele>2488</ele><speed>22.70</speed><time>2016-06-29T12:16:36Z</time><pdop>9.0</pdop><geoidheight>54.00</geoidheight><course>46.5</course><type>1</type></trkpt>
      <trkpt lat="40.64166119" lon="-5.00866235"><ele>2487</ele><speed>22.97</speed><time>2016-06-29T12:16:37Z</time><pdop>9.0</pdop><geoidheight>54.00</geoidheight><course>48.7</course><type>1</type></trkpt>
      <trkpt lat="40.64178905" lon="-5.00845416"><ele>2484</ele><speed>22.99</speed><time>2016-06-29T12:16:38Z</time><pdop>9.0</pdop><geoidheight>54.00</geoidheight><course>50.0</course><type>1</type></trkpt>
      <trkpt lat="40.64192292" lon="-5.00825371"><ele>2483</ele><speed>22.93</speed><time>2016-06-29T12:16:39Z</time><pdop>9.0</pdop><geoidheight>54.00</geoidheight><course>50.1</course><type>1</type></trkpt>
      <trkpt lat="40.64205172" lon="-5.00803206"><ele>2481</ele><speed>23.50</speed><time>2016-06-29T12:16:40Z</time><pdop>10.0</pdop><geoidheight>54.00</geoidheight><course>51.0</course><type>1</type></trkpt>
      <trkpt lat="40.64219594" lon="-5.00784158"><ele>2479</ele><speed>23.44</speed><time>2016-06-29T12:16:41Z</time><pdop>10.0</pdop><geoidheight>54.00</geoidheight><course>49.2</course><type>1</type></trkpt>
      <trkpt lat="40.64231141" lon="-5.00763437"><ele>2476</ele><speed>23.16</speed><time>2016-06-29T12:16:42Z</time><pdop>10.0</pdop><geoidheight>54.00</geoidheight><course>50.2</course><type>1</type></trkpt>
      <trkpt lat="40.64244369" lon="-5.0074249"><ele>2475</ele><speed>23.48</speed><time>2016-06-29T12:16:43Z</time><pdop>10.0</pdop><geoidheight>54.00</geoidheight><course>50.1</course><type>1</type></trkpt>
      <trkpt lat="40.642714" lon="-5.00704181"><ele>2470</ele><speed>23.97</speed><time>2016-06-29T12:16:45Z</time><pdop>10.0</pdop><geoidheight>54.00</geoidheight><course>50.2</course><type>1</type></trkpt>
      <trkpt lat="40.64284577" lon="-5.00683329"><ele>2469</ele><speed>23.85</speed><time>2016-06-29T12:16:46Z</time><pdop>10.0</pdop><geoidheight>54.00</geoidheight><course>50.3</course><type>1</type></trkpt>
      <trkpt lat="40.64298492" lon="-5.00659607"><ele>2467</ele><speed>24.44</speed><time>2016-06-29T12:16:47Z</time><pdop>10.0</pdop><geoidheight>54.00</geoidheight><course>50.7</course><type>1</type></trkpt>
      <trkpt lat="40.64310139" lon="-5.00641212"><ele>2464</ele><speed>23.61</speed><time>2016-06-29T12:16:48Z</time><pdop>10.0</pdop><geoidheight>54.00</geoidheight><course>51.7</course><type>1</type></trkpt>
      <trkpt lat="40.64321432" lon="-5.00620745"><ele>2463</ele><speed>23.11</speed><time>2016-06-29T12:16:49Z</time><pdop>10.0</pdop><geoidheight>54.00</geoidheight><course>52.5</course><type>1</type></trkpt>
      <trkpt lat="40.64343291" lon="-5.00580343"><ele>2455</ele><speed>23.16</speed><time>2016-06-29T12:16:51Z</time><pdop>10.0</pdop><geoidheight>54.00</geoidheight><course>54.4</course><type>1</type></trkpt>
      <trkpt lat="40.64355713" lon="-5.0055767"><ele>2451</ele><speed>23.95</speed><time>2016-06-29T12:16:52Z</time><pdop>10.0</pdop><geoidheight>54.00</geoidheight><course>55.1</course><type>1</type></trkpt>
      <trkpt lat="40.64368583" lon="-5.0053382"><ele>2448</ele><speed>24.46</speed><time>2016-06-29T12:16:53Z</time><pdop>10.0</pdop><geoidheight>54.00</geoidheight><course>55.4</course><type>1</type></trkpt>
      <trkpt lat="40.64381079" lon="-5.00512497"><ele>2442</ele><speed>23.74</speed><time>2016-06-29T12:16:54Z</time><pdop>10.0</pdop><geoidheight>54.00</geoidheight><course>53.3</course><type>1</type></trkpt>
      <trkpt lat="40.64393115" lon="-5.00491486"><ele>2437</ele><speed>23.52</speed><time>2016-06-29T12:16:55Z</time><pdop>10.0</pdop><geoidheight>54.00</geoidheight><course>52.3</course><type>1</type></trkpt>
      <trkpt lat="40.64405775" lon="-5.0046909"><ele>2432</ele><speed>23.66</speed><time>2016-06-29T12:16:56Z</time><pdop>10.0</pdop><geoidheight>54.00</geoidheight><course>52.2</course><type>1</type></trkpt>
      <trkpt lat="40.64416847" lon="-5.00447851"><ele>2426</ele><speed>23.81</speed><time>2016-06-29T12:16:57Z</time><pdop>10.0</pdop><geoidheight>54.00</geoidheight><course>52.8</course><type>1</type></trkpt>
      <trkpt lat="40.64429645" lon="-5.00427791"><ele>2421</ele><speed>23.71</speed><time>2016-06-29T12:16:58Z</time><pdop>10.0</pdop><geoidheight>54.00</geoidheight><course>52.4</course><type>1</type></trkpt>
      <trkpt lat="40.64442386" lon="-5.00406811"><ele>2417</ele><speed>23.47</speed><time>2016-06-29T12:16:59Z</time><pdop>10.0</pdop><geoidheight>54.00</geoidheight><course>51.6</course><type>1</type></trkpt>
      <trkpt lat="40.64456263" lon="-5.00386081"><ele>2414</ele><speed>23.42</speed><time>2016-06-29T12:17:00Z</time><pdop>11.0</pdop><geoidheight>54.00</geoidheight><course>51.2</course><type>1</type></trkpt>
      <trkpt lat="40.64469132" lon="-5.00363905"><ele>2411</ele><speed>23.43</speed><time>2016-06-29T12:17:01Z</time><pdop>11.0</pdop><geoidheight>54.00</geoidheight><course>51.5</course><type>1</type></trkpt>
      <trkpt lat="40.64481936" lon="-5.00342781"><ele>2409</ele><speed>22.88</speed><time>2016-06-29T12:17:02Z</time><pdop>11.0</pdop><geoidheight>54.00</geoidheight><course>50.8</course><type>1</type></trkpt>
      <trkpt lat="40.64507755" lon="-5.00304613"><ele>2405</ele><speed>22.82</speed><time>2016-06-29T12:17:04Z</time><pdop>12.0</pdop><geoidheight>54.00</geoidheight><course>49.0</course><type>1</type></trkpt>
      <trkpt lat="40.6452257" lon="-5.00282048"><ele>2404</ele><speed>23.99</speed><time>2016-06-29T12:17:05Z</time><pdop>13.0</pdop><geoidheight>54.00</geoidheight><course>50.1</course><type>1</type></trkpt>
      <trkpt lat="40.64547255" lon="-5.0024268"><ele>2399</ele><speed>22.77</speed><time>2016-06-29T12:17:07Z</time><pdop>12.0</pdop><geoidheight>54.00</geoidheight><course>52.3</course><type>1</type></trkpt>
      <trkpt lat="40.64568858" lon="-5.00205351"><ele>2396</ele><speed>20.67</speed><time>2016-06-29T12:17:09Z</time><pdop>11.0</pdop><geoidheight>54.00</geoidheight><course>52.6</course><type>1</type></trkpt>
      <trkpt lat="40.64589126" lon="-5.00167097"><ele>2392</ele><speed>20.69</speed><time>2016-06-29T12:17:11Z</time><pdop>11.0</pdop><geoidheight>54.00</geoidheight><course>55.5</course><type>1</type></trkpt>
      <trkpt lat="40.6460672" lon="-5.00127417"><ele>2387</ele><speed>20.47</speed><time>2016-06-29T12:17:13Z</time><pdop>11.0</pdop><geoidheight>54.00</geoidheight><course>57.4</course><type>1</type></trkpt>
      <trkpt lat="40.64624488" lon="-5.00090724"><ele>2384</ele><speed>19.79</speed><time>2016-06-29T12:17:15Z</time><pdop>11.0</pdop><geoidheight>54.00</geoidheight><course>56.8</course><type>1</type></trkpt>
      <trkpt lat="40.64642973" lon="-5.00052773"><ele>2382</ele><speed>19.55</speed><time>2016-06-29T12:17:17Z</time><pdop>12.0</pdop><geoidheight>54.00</geoidheight><course>56.7</course><type>1</type></trkpt>
      <trkpt lat="40.64665243" lon="-5.00012428"><ele>2380</ele><speed>20.97</speed><time>2016-06-29T12:17:19Z</time><pdop>12.0</pdop><geoidheight>54.00</geoidheight><course>54.1</course><type>1</type></trkpt>
      <trkpt lat="40.64692148" lon="-4.99977866"><ele>2377</ele><speed>21.42</speed><time>2016-06-29T12:17:21Z</time><pdop>13.0</pdop><geoidheight>54.00</geoidheight><course>48.7</course><type>1</type></trkpt>
      <trkpt lat="40.64721287" lon="-4.99946617"><ele>2369</ele><speed>21.12</speed><time>2016-06-29T12:17:23Z</time><pdop>11.0</pdop><geoidheight>54.00</geoidheight><course>41.7</course><type>1</type></trkpt>
      <trkpt lat="40.64737111" lon="-4.99930274"><ele>2367</ele><speed>21.46</speed><time>2016-06-29T12:17:24Z</time><pdop>10.0</pdop><geoidheight>54.00</geoidheight><course>41.1</course><type>1</type></trkpt>
      <trkpt lat="40.64751841" lon="-4.99914124"><ele>2364</ele><speed>21.77</speed><time>2016-06-29T12:17:25Z</time><pdop>10.0</pdop><geoidheight>54.00</geoidheight><course>40.9</course><type>1</type></trkpt>
      <trkpt lat="40.64765409" lon="-4.99895901"><ele>2363</ele><speed>22.03</speed><time>2016-06-29T12:17:26Z</time><pdop>11.0</pdop><geoidheight>54.00</geoidheight><course>42.0</course><type>1</type></trkpt>
      <trkpt lat="40.6478006" lon="-4.99878715"><ele>2359</ele><speed>22.48</speed><time>2016-06-29T12:17:27Z</time><pdop>10.0</pdop><geoidheight>54.00</geoidheight><course>43.1</course><type>1</type></trkpt>
      <trkpt lat="40.6479359" lon="-4.99861362"><ele>2355</ele><speed>22.09</speed><time>2016-06-29T12:17:28Z</time><pdop>5.0</pdop><geoidheight>54.00</geoidheight><course>44.7</course><type>1</type></trkpt>
      <trkpt lat="40.64808215" lon="-4.99844299"><ele>2353</ele><speed>21.80</speed><time>2016-06-29T12:17:29Z</time><pdop>5.0</pdop><geoidheight>54.00</geoidheight><course>45.2</course><type>1</type></trkpt>
      <trkpt lat="40.64820918" lon="-4.99825445"><ele>2352</ele><speed>21.69</speed><time>2016-06-29T12:17:30Z</time><pdop>5.0</pdop><geoidheight>54.00</geoidheight><course>46.6</course><type>1</type></trkpt>
      <trkpt lat="40.64834092" lon="-4.99805916"><ele>2350</ele><speed>22.02</speed><time>2016-06-29T12:17:31Z</time><pdop>5.0</pdop><geoidheight>54.00</geoidheight><course>47.8</course><type>1</type></trkpt>
      <trkpt lat="40.64847743" lon="-4.99785261"><ele>2349</ele><speed>22.59</speed><time>2016-06-29T12:17:32Z</time><pdop>6.0</pdop><geoidheight>54.00</geoidheight><course>49.5</course><type>1</type></trkpt>
      <trkpt lat="40.64859593" lon="-4.99764993"><ele>2349</ele><speed>22.61</speed><time>2016-06-29T12:17:33Z</time><pdop>7.0</pdop><geoidheight>54.00</geoidheight><course>51.3</course><type>1</type></trkpt>
      <trkpt lat="40.64871741" lon="-4.99743153"><ele>2347</ele><speed>23.06</speed><time>2016-06-29T12:17:34Z</time><pdop>7.0</pdop><geoidheight>54.00</geoidheight><course>52.3</course><type>1</type></trkpt>
      <trkpt lat="40.64883216" lon="-4.99720249"><ele>2347</ele><speed>23.32</speed><time>2016-06-29T12:17:35Z</time><pdop>7.0</pdop><geoidheight>54.00</geoidheight><course>53.1</course><type>1</type></trkpt>
      <trkpt lat="40.64897133" lon="-4.99697284"><ele>2490</ele><speed>23.55</speed><time>2016-06-29T12:17:36Z</time><pdop>7.0</pdop><geoidheight>54.00</geoidheight><course>53.0</course><type>1</type></trkpt>
      <trkpt lat="40.6490616" lon="-4.9967683"><ele>2447</ele><speed>22.36</speed><time>2016-06-29T12:17:37Z</time><pdop>6.0</pdop><geoidheight>54.00</geoidheight><course>55.8</course><type>1</type></trkpt>
      <trkpt lat="40.64916554" lon="-4.99656322"><ele>2414</ele><speed>21.98</speed><time>2016-06-29T12:17:38Z</time><pdop>5.0</pdop><geoidheight>54.00</geoidheight><course>56.8</course><type>1</type></trkpt>
      <trkpt lat="40.64926008" lon="-4.99634258"><ele>2392</ele><speed>21.87</speed><time>2016-06-29T12:17:39Z</time><pdop>5.0</pdop><geoidheight>54.00</geoidheight><course>55.7</course><type>1</type></trkpt>
      <trkpt lat="40.64938491" lon="-4.99614764"><ele>2377</ele><speed>21.59</speed><time>2016-06-29T12:17:40Z</time><pdop>5.0</pdop><geoidheight>54.00</geoidheight><course>54.4</course><type>1</type></trkpt>
      <trkpt lat="40.64949625" lon="-4.99595431"><ele>2367</ele><speed>20.79</speed><time>2016-06-29T12:17:41Z</time><pdop>4.0</pdop><geoidheight>54.00</geoidheight><course>54.7</course><type>1</type></trkpt>
      <trkpt lat="40.64960426" lon="-4.99575551"><ele>2360</ele><speed>20.27</speed><time>2016-06-29T12:17:42Z</time><pdop>4.0</pdop><geoidheight>54.00</geoidheight><course>55.7</course><type>1</type></trkpt>
      <trkpt lat="40.64968868" lon="-4.99557046"><ele>2354</ele><speed>19.39</speed><time>2016-06-29T12:17:43Z</time><pdop>4.0</pdop><geoidheight>54.00</geoidheight><course>56.4</course><type>1</type></trkpt>
      <trkpt lat="40.64977464" lon="-4.9953902"><ele>2352</ele><speed>18.32</speed><time>2016-06-29T12:17:44Z</time><pdop>4.0</pdop><geoidheight>54.00</geoidheight><course>58.8</course><type>1</type></trkpt>
      <trkpt lat="40.64984524" lon="-4.99521129"><ele>2349</ele><speed>17.73</speed><time>2016-06-29T12:17:45Z</time><pdop>4.0</pdop><geoidheight>54.00</geoidheight><course>61.5</course><type>1</type></trkpt>
      <trkpt lat="40.64992121" lon="-4.99504178"><ele>2346</ele><speed>17.14</speed><time>2016-06-29T12:17:46Z</time><pdop>4.0</pdop><geoidheight>54.00</geoidheight><course>62.9</course><type>1</type></trkpt>
      <trkpt lat="40.64998998" lon="-4.99487373"><ele>2341</ele><speed>17.02</speed><time>2016-06-29T12:17:47Z</time><pdop>3.0</pdop><geoidheight>54.00</geoidheight><course>62.0</course><type>1</type></trkpt>
      <trkpt lat="40.65006742" lon="-4.99470078"><ele>2337</ele><speed>17.30</speed><time>2016-06-29T12:17:48Z</time><pdop>3.0</pdop><geoidheight>54.00</geoidheight><course>60.5</course><type>1</type></trkpt>
      <trkpt lat="40.65015048" lon="-4.99453506"><ele>2334</ele><speed>17.23</speed><time>2016-06-29T12:17:49Z</time><pdop>3.0</pdop><geoidheight>54.00</geoidheight><course>59.3</course><type>1</type></trkpt>
      <trkpt lat="40.65023285" lon="-4.99436196"><ele>2331</ele><speed>17.34</speed><time>2016-06-29T12:17:50Z</time><pdop>3.0</pdop><geoidheight>54.00</geoidheight><course>57.3</course><type>1</type></trkpt>
      <trkpt lat="40.65031939" lon="-4.99420382"><ele>2328</ele><speed>17.33</speed><time>2016-06-29T12:17:51Z</time><pdop>3.0</pdop><geoidheight>54.00</geoidheight><course>54.9</course><type>1</type></trkpt>
      <trkpt lat="40.65042092" lon="-4.99405257"><ele>2326</ele><speed>16.90</speed><time>2016-06-29T12:17:52Z</time><pdop>3.0</pdop><geoidheight>54.00</geoidheight><course>51.7</course><type>1</type></trkpt>
      <trkpt lat="40.650523" lon="-4.99391219"><ele>2325</ele><speed>16.57</speed><time>2016-06-29T12:17:53Z</time><pdop>3.0</pdop><geoidheight>54.00</geoidheight><course>49.0</course><type>1</type></trkpt>
      <trkpt lat="40.65062733" lon="-4.99376227"><ele>2325</ele><speed>16.79</speed><time>2016-06-29T12:17:54Z</time><pdop>4.0</pdop><geoidheight>54.00</geoidheight><course>48.5</course><type>1</type></trkpt>
      <trkpt lat="40.65073109" lon="-4.99361326"><ele>2325</ele><speed>16.88</speed><time>2016-06-29T12:17:55Z</time><pdop>4.0</pdop><geoidheight>54.00</geoidheight><course>47.3</course><type>1</type></trkpt>
      <trkpt lat="40.65083374" lon="-4.99346697"><ele>2325</ele><speed>16.84</speed><time>2016-06-29T12:17:56Z</time><pdop>5.0</pdop><geoidheight>54.00</geoidheight><course>47.7</course><type>1</type></trkpt>
      <trkpt lat="40.65094606" lon="-4.99334012"><ele>2326</ele><speed>16.82</speed><time>2016-06-29T12:17:57Z</time><pdop>6.0</pdop><geoidheight>54.00</geoidheight><course>46.5</course><type>1</type></trkpt>
      <trkpt lat="40.65104309" lon="-4.99319317"><ele>2326</ele><speed>16.43</speed><time>2016-06-29T12:17:58Z</time><pdop>6.0</pdop><geoidheight>54.00</geoidheight><course>47.1</course><type>1</type></trkpt>
      <trkpt lat="40.65115336" lon="-4.99306823"><ele>2326</ele><speed>15.76</speed><time>2016-06-29T12:17:59Z</time><pdop>6.0</pdop><geoidheight>54.00</geoidheight><course>45.5</course><type>1</type></trkpt>
      <trkpt lat="40.65124363" lon="-4.99294643"><ele>2326</ele><speed>14.90</speed><time>2016-06-29T12:18:00Z</time><pdop>5.0</pdop><geoidheight>54.00</geoidheight><course>45.4</course><type>1</type></trkpt>
      <trkpt lat="40.65133629" lon="-4.99281754"><ele>2326</ele><speed>14.68</speed><time>2016-06-29T12:18:01Z</time><pdop>5.0</pdop><geoidheight>54.00</geoidheight><course>46.0</course><type>1</type></trkpt>
      <trkpt lat="40.65144508" lon="-4.99270475"><ele>2326</ele><speed>14.42</speed><time>2016-06-29T12:18:02Z</time><pdop>5.0</pdop><geoidheight>54.00</geoidheight><course>44.8</course><type>1</type></trkpt>
      <trkpt lat="40.65152625" lon="-4.99258057"><ele>2326</ele><speed>14.17</speed><time>2016-06-29T12:18:03Z</time><pdop>4.0</pdop><geoidheight>54.00</geoidheight><course>48.2</course><type>1</type></trkpt>
      <trkpt lat="40.65158447" lon="-4.99244536"><ele>2323</ele><speed>14.06</speed><time>2016-06-29T12:18:04Z</time><pdop>3.0</pdop><geoidheight>54.00</geoidheight><course>53.3</course><type>1</type></trkpt>
      <trkpt lat="40.65165257" lon="-4.99232095"><ele>2322</ele><speed>13.98</speed><time>2016-06-29T12:18:05Z</time><pdop>3.0</pdop><geoidheight>54.00</geoidheight><course>57.4</course><type>1</type></trkpt>
      <trkpt lat="40.65170994" lon="-4.99218297"><ele>2318</ele><speed>14.32</speed><time>2016-06-29T12:18:06Z</time><pdop>3.0</pdop><geoidheight>54.00</geoidheight><course>57.8</course><type>1</type></trkpt>
      <trkpt lat="40.65179588" lon="-4.99203501"><ele>2313</ele><speed>16.08</speed><time>2016-06-29T12:18:07Z</time><pdop>3.0</pdop><geoidheight>54.00</geoidheight><course>55.5</course><type>1</type></trkpt>
      <trkpt lat="40.65189012" lon="-4.99186339"><ele>2307</ele><speed>18.25</speed><time>2016-06-29T12:18:08Z</time><pdop>3.0</pdop><geoidheight>54.00</geoidheight><course>53.8</course><type>1</type></trkpt>
      <trkpt lat="40.65198878" lon="-4.99169467"><ele>2301</ele><speed>18.98</speed><time>2016-06-29T12:18:09Z</time><pdop>3.0</pdop><geoidheight>54.00</geoidheight><course>51.5</course><type>1</type></trkpt>
      <trkpt lat="40.65210638" lon="-4.99150424"><ele>2299</ele><speed>19.60</speed><time>2016-06-29T12:18:10Z</time><pdop>3.0</pdop><geoidheight>54.00</geoidheight><course>50.3</course><type>1</type></trkpt>
      <trkpt lat="40.65222056" lon="-4.9913187"><ele>2297</ele><speed>20.07</speed><time>2016-06-29T12:18:11Z</time><pdop>4.0</pdop><geoidheight>54.00</geoidheight><course>50.0</course><type>1</type></trkpt>
      <trkpt lat="40.6523393" lon="-4.99113401"><ele>2296</ele><speed>20.09</speed><time>2016-06-29T12:18:12Z</time><pdop>4.0</pdop><geoidheight>54.00</geoidheight><course>49.1</course><type>1</type></trkpt>
      <trkpt lat="40.65245368" lon="-4.99097497"><ele>2294</ele><speed>19.56</speed><time>2016-06-29T12:18:13Z</time><pdop>4.0</pdop><geoidheight>54.00</geoidheight><course>49.0</course><type>1</type></trkpt>
      <trkpt lat="40.6525591" lon="-4.99083378"><ele>2289</ele><speed>18.94</speed><time>2016-06-29T12:18:14Z</time><pdop>3.0</pdop><geoidheight>54.00</geoidheight><course>47.3</course><type>1</type></trkpt>
      <trkpt lat="40.65267196" lon="-4.99064839"><ele>2286</ele><speed>19.67</speed><time>2016-06-29T12:18:15Z</time><pdop>3.0</pdop><geoidheight>54.00</geoidheight><course>47.8</course><type>1</type></trkpt>
      <trkpt lat="40.6527987" lon="-4.99047105"><ele>2284</ele><speed>20.47</speed><time>2016-06-29T12:18:16Z</time><pdop>4.0</pdop><geoidheight>54.00</geoidheight><course>47.7</course><type>1</type></trkpt>
      <trkpt lat="40.65292405" lon="-4.99027836"><ele>2283</ele><speed>21.76</speed><time>2016-06-29T12:18:17Z</time><pdop>4.0</pdop><geoidheight>54.00</geoidheight><course>49.2</course><type>1</type></trkpt>
      <trkpt lat="40.65304853" lon="-4.99006799"><ele>2283</ele><speed>21.85</speed><time>2016-06-29T12:18:18Z</time><pdop>4.0</pdop><geoidheight>54.00</geoidheight><course>51.1</course><type>1</type></trkpt>
      <trkpt lat="40.65316679" lon="-4.98987113"><ele>2284</ele><speed>21.47</speed><time>2016-06-29T12:18:19Z</time><pdop>4.0</pdop><geoidheight>54.00</geoidheight><course>52.1</course><type>1</type></trkpt>
      <trkpt lat="40.65326332" lon="-4.98966922"><ele>2284</ele><speed>20.27</speed><time>2016-06-29T12:18:20Z</time><pdop>5.0</pdop><geoidheight>54.00</geoidheight><course>53.7</course><type>1</type></trkpt>
      <trkpt lat="40.65334092" lon="-4.98950213"><ele>2284</ele><speed>18.01</speed><time>2016-06-29T12:18:21Z</time><pdop>5.0</pdop><geoidheight>54.00</geoidheight><course>54.9</course><type>1</type></trkpt>
      <trkpt lat="40.65343202" lon="-4.98936283"><ele>2282</ele><speed>17.36</speed><time>2016-06-29T12:18:22Z</time><pdop>4.0</pdop><geoidheight>54.00</geoidheight><course>51.5</course><type>1</type></trkpt>
      <trkpt lat="40.65354181" lon="-4.98921741"><ele>2281</ele><speed>16.68</speed><time>2016-06-29T12:18:23Z</time><pdop>3.0</pdop><geoidheight>54.00</geoidheight><course>47.0</course><type>1</type></trkpt>
      <trkpt lat="40.65365208" lon="-4.98906606"><ele>2280</ele><speed>17.36</speed><time>2016-06-29T12:18:24Z</time><pdop>4.0</pdop><geoidheight>54.00</geoidheight><course>47.1</course><type>1</type></trkpt>
      <trkpt lat="40.65378089" lon="-4.98892953"><ele>2275</ele><speed>19.13</speed><time>2016-06-29T12:18:25Z</time><pdop>3.0</pdop><geoidheight>54.00</geoidheight><course>43.6</course><type>1</type></trkpt>
      <trkpt lat="40.65391204" lon="-4.98877078"><ele>2272</ele><speed>20.27</speed><time>2016-06-29T12:18:26Z</time><pdop>3.0</pdop><geoidheight>54.00</geoidheight><course>44.4</course><type>1</type></trkpt>
      <trkpt lat="40.65404134" lon="-4.98859156"><ele>2272</ele><speed>20.73</speed><time>2016-06-29T12:18:27Z</time><pdop>3.0</pdop><geoidheight>54.00</geoidheight><course>45.1</course><type>1</type></trkpt>
      <trkpt lat="40.65416674" lon="-4.98841183"><ele>2273</ele><speed>20.26</speed><time>2016-06-29T12:18:28Z</time><pdop>3.0</pdop><geoidheight>54.00</geoidheight><course>45.9</course><type>1</type></trkpt>
      <trkpt lat="40.65429541" lon="-4.98822682"><ele>2272</ele><speed>20.35</speed><time>2016-06-29T12:18:29Z</time><pdop>4.0</pdop><geoidheight>54.00</geoidheight><course>47.0</course><type>1</type></trkpt>
      <trkpt lat="40.65439962" lon="-4.98806714"><ele>2273</ele><speed>19.03</speed><time>2016-06-29T12:18:30Z</time><pdop>4.0</pdop><geoidheight>54.00</geoidheight><course>49.0</course><type>1</type></trkpt>
      <trkpt lat="40.65448187" lon="-4.98788262"><ele>2273</ele><speed>18.22</speed><time>2016-06-29T12:18:31Z</time><pdop>5.0</pdop><geoidheight>54.00</geoidheight><course>53.2</course><type>1</type></trkpt>
      <trkpt lat="40.65456694" lon="-4.98770201"><ele>2273</ele><speed>17.57</speed><time>2016-06-29T12:18:32Z</time><pdop>6.0</pdop><geoidheight>54.00</geoidheight><course>55.7</course><type>1</type></trkpt>
      <trkpt lat="40.65464303" lon="-4.98756408"><ele>2289</ele><speed>16.17</speed><time>2016-06-29T12:18:33Z</time><pdop>6.0</pdop><geoidheight>54.00</geoidheight><course>56.1</course><type>1</type></trkpt>
      <trkpt lat="40.65468443" lon="-4.98739168"><ele>2284</ele><speed>14.97</speed><time>2016-06-29T12:18:34Z</time><pdop>5.0</pdop><geoidheight>54.00</geoidheight><course>62.0</course><type>1</type></trkpt>
      <trkpt lat="40.65475013" lon="-4.98723272"><ele>2281</ele><speed>15.48</speed><time>2016-06-29T12:18:35Z</time><pdop>4.0</pdop><geoidheight>54.00</geoidheight><course>61.0</course><type>1</type></trkpt>
      <trkpt lat="40.65480639" lon="-4.98710272"><ele>2280</ele><speed>14.14</speed><time>2016-06-29T12:18:36Z</time><pdop>5.0</pdop><geoidheight>54.00</geoidheight><course>61.5</course><type>1</type></trkpt>
      <trkpt lat="40.654878" lon="-4.986982"><ele>2280</ele><speed>12.92</speed><time>2016-06-29T12:18:37Z</time><pdop>6.0</pdop><geoidheight>54.00</geoidheight><course>60.4</course><type>1</type></trkpt>
      <trkpt lat="40.65508032" lon="-4.98691712"><ele>2281</ele><speed>10.89</speed><time>2016-06-29T12:18:39Z</time><pdop>8.0</pdop><geoidheight>54.00</geoidheight><course>33.1</course><type>1</type></trkpt>
      <trkpt lat="40.6551014" lon="-4.98709861"><ele>2279</ele><speed>3.05</speed><time>2016-06-29T12:18:43Z</time><pdop>6.0</pdop><geoidheight>54.00</geoidheight><course>270.8</course><type>1</type></trkpt>
      <trkpt lat="40.65491209" lon="-4.98701999"><ele>2281</ele><speed>4.27</speed><time>2016-06-29T12:18:46Z</time><pdop>7.0</pdop><geoidheight>54.00</geoidheight><course>157.2</course><type>1</type></trkpt>
      <trkpt lat="40.65479345" lon="-4.98685242"><ele>2281</ele><speed>8.34</speed><time>2016-06-29T12:18:47Z</time><pdop>8.0</pdop><geoidheight>54.00</geoidheight><course>135.8</course><type>1</type></trkpt>
      <trkpt lat="40.65470082" lon="-4.98666617"><ele>2279</ele><speed>11.54</speed><time>2016-06-29T12:18:48Z</time><pdop>8.0</pdop><geoidheight>54.00</geoidheight><course>125.6</course><type>1</type></trkpt>
      <trkpt lat="40.65463154" lon="-4.9864096"><ele>2278</ele><speed>15.07</speed><time>2016-06-29T12:18:49Z</time><pdop>8.0</pdop><geoidheight>54.00</geoidheight><course>112.5</course><type>1</type></trkpt>
      <trkpt lat="40.65458424" lon="-4.98618723"><ele>2276</ele><speed>15.52</speed><time>2016-06-29T12:18:50Z</time><pdop>8.0</pdop><geoidheight>54.00</geoidheight><course>108.4</course><type>1</type></trkpt>
      <trkpt lat="40.65457949" lon="-4.98595346"><ele>2276</ele><speed>13.93</speed><time>2016-06-29T12:18:51Z</time><pdop>7.0</pdop><geoidheight>54.00</geoidheight><course>96.7</course><type>1</type></trkpt>
      <trkpt lat="40.65467364" lon="-4.98571517"><ele>2275</ele><speed>15.44</speed><time>2016-06-29T12:18:52Z</time><pdop>7.0</pdop><geoidheight>54.00</geoidheight><course>79.7</course><type>1</type></trkpt>
      <trkpt lat="40.6547497" lon="-4.98549966"><ele>2275</ele><speed>16.42</speed><time>2016-06-29T12:18:53Z</time><pdop>7.0</pdop><geoidheight>54.00</geoidheight><course>73.9</course><type>1</type></trkpt>
      <trkpt lat="40.65483751" lon="-4.98536172"><ele>2278</ele><speed>14.83</speed><time>2016-06-29T12:18:54Z</time><pdop>6.0</pdop><geoidheight>54.00</geoidheight><course>63.5</course><type>1</type></trkpt>
      <trkpt lat="40.65487815" lon="-4.98519517"><ele>2277</ele><speed>14.78</speed><time>2016-06-29T12:18:55Z</time><pdop>6.0</pdop><geoidheight>54.00</geoidheight><course>64.2</course><type>1</type></trkpt>
      <trkpt lat="40.65494399" lon="-4.9850609"><ele>2276</ele><speed>14.27</speed><time>2016-06-29T12:18:56Z</time><pdop>6.0</pdop><geoidheight>54.00</geoidheight><course>61.9</course><type>1</type></trkpt>
      <trkpt lat="40.65500129" lon="-4.98489825"><ele>2276</ele><speed>14.88</speed><time>2016-06-29T12:18:57Z</time><pdop>6.0</pdop><geoidheight>54.00</geoidheight><course>61.8</course><type>1</type></trkpt>
      <trkpt lat="40.65506832" lon="-4.98472536"><ele>2276</ele><speed>16.08</speed><time>2016-06-29T12:18:58Z</time><pdop>6.0</pdop><geoidheight>54.00</geoidheight><course>62.1</course><type>1</type></trkpt>
      <trkpt lat="40.65509409" lon="-4.98452162"><ele>2275</ele><speed>16.51</speed><time>2016-06-29T12:18:59Z</time><pdop>6.0</pdop><geoidheight>54.00</geoidheight><course>67.9</course><type>1</type></trkpt>
      <trkpt lat="40.65516139" lon="-4.98437948"><ele>2275</ele><speed>15.69</speed><time>2016-06-29T12:19:00Z</time><pdop>6.0</pdop><geoidheight>54.00</geoidheight><course>66.7</course><type>1</type></trkpt>
      <trkpt lat="40.65520487" lon="-4.98419506"><ele>2275</ele><speed>15.88</speed><time>2016-06-29T12:19:01Z</time><pdop>8.0</pdop><geoidheight>54.00</geoidheight><course>70.1</course><type>1</type></trkpt>
      <trkpt lat="40.65523826" lon="-4.98399195"><ele>2277</ele><speed>16.08</speed><time>2016-06-29T12:19:02Z</time><pdop>9.0</pdop><geoidheight>54.00</geoidheight><course>73.1</course><type>1</type></trkpt>
      <trkpt lat="40.65532558" lon="-4.98369298"><ele>2279</ele><speed>13.64</speed><time>2016-06-29T12:19:04Z</time><pdop>6.0</pdop><geoidheight>54.00</geoidheight><course>66.8</course><type>1</type></trkpt>
      <trkpt lat="40.6554186" lon="-4.98356705"><ele>2282</ele><speed>12.49</speed><time>2016-06-29T12:19:05Z</time><pdop>6.0</pdop><geoidheight>54.00</geoidheight><course>54.9</course><type>1</type></trkpt>
      <trkpt lat="40.65550795" lon="-4.98343687"><ele>2285</ele><speed>11.50</speed><time>2016-06-29T12:19:06Z</time><pdop>5.0</pdop><geoidheight>54.00</geoidheight><course>52.6</course><type>1</type></trkpt>
      <trkpt lat="40.65565627" lon="-4.98334768"><ele>2285</ele><speed>8.30</speed><time>2016-06-29T12:19:08Z</time><pdop>5.0</pdop><geoidheight>54.00</geoidheight><course>29.8</course><type>1</type></trkpt>
      <trkpt lat="40.65538294" lon="-4.98330046"><ele>2291</ele><speed>12.75</speed><time>2016-06-29T12:19:14Z</time><pdop>10.0</pdop><geoidheight>54.00</geoidheight><course>146.1</course><type>1</type></trkpt>
      <trkpt lat="40.65518519" lon="-4.98308834"><ele>2295</ele><speed>14.41</speed><time>2016-06-29T12:19:16Z</time><pdop>10.0</pdop><geoidheight>54.00</geoidheight><course>132.2</course><type>1</type></trkpt>
      <trkpt lat="40.6551051" lon="-4.98283884"><ele>2297</ele><speed>17.99</speed><time>2016-06-29T12:19:17Z</time><pdop>9.0</pdop><geoidheight>54.00</geoidheight><course>114.9</course><type>1</type></trkpt>
      <trkpt lat="40.65504739" lon="-4.98261804"><ele>2298</ele><speed>18.55</speed><time>2016-06-29T12:19:18Z</time><pdop>9.0</pdop><geoidheight>54.00</geoidheight><course>107.3</course><type>1</type></trkpt>
      <trkpt lat="40.65501617" lon="-4.98240587"><ele>2298</ele><speed>18.11</speed><time>2016-06-29T12:19:19Z</time><pdop>9.0</pdop><geoidheight>54.00</geoidheight><course>102.0</course><type>1</type></trkpt>
      <trkpt lat="40.65496437" lon="-4.98202794"><ele>2352</ele><speed>16.90</speed><time>2016-06-29T12:19:21Z</time><pdop>9.0</pdop><geoidheight>54.00</geoidheight><course>97.2</course><type>1</type></trkpt>
      <trkpt lat="40.65503051" lon="-4.98167242"><ele>2369</ele><speed>15.31</speed><time>2016-06-29T12:19:23Z</time><pdop>11.0</pdop><geoidheight>54.00</geoidheight><course>80.3</course><type>1</type></trkpt>
      <trkpt lat="40.6551139" lon="-4.98132112"><ele>2286</ele><speed>15.92</speed><time>2016-06-29T12:19:25Z</time><pdop>11.0</pdop><geoidheight>54.00</geoidheight><course>71.1</course><type>1</type></trkpt>
      <trkpt lat="40.65527475" lon="-4.98102637"><ele>2292</ele><speed>15.13</speed><time>2016-06-29T12:19:27Z</time><pdop>11.0</pdop><geoidheight>54.00</geoidheight><course>61.7</course><type>1</type></trkpt>
      <trkpt lat="40.65543603" lon="-4.98073011"><ele>2304</ele><speed>14.43</speed><time>2016-06-29T12:19:29Z</time><pdop>9.0</pdop><geoidheight>54.00</geoidheight><course>58.3</course><type>1</type></trkpt>
      <trkpt lat="40.65562625" lon="-4.980442"><ele>2309</ele><speed>15.16</speed><time>2016-06-29T12:19:31Z</time><pdop>9.0</pdop><geoidheight>54.00</geoidheight><course>56.5</course><type>1</type></trkpt>
      <trkpt lat="40.655803" lon="-4.9801689"><ele>2316</ele><speed>14.26</speed><time>2016-06-29T12:19:33Z</time><pdop>9.0</pdop><geoidheight>54.00</geoidheight><course>53.5</course><type>1</type></trkpt>
      <trkpt lat="40.65593729" lon="-4.97994578"><ele>2318</ele><speed>11.42</speed><time>2016-06-29T12:19:35Z</time><pdop>10.0</pdop><geoidheight>54.00</geoidheight><course>52.0</course><type>1</type></trkpt>
      <trkpt lat="40.65611514" lon="-4.97988906"><ele>2318</ele><speed>8.68</speed><time>2016-06-29T12:19:37Z</time><pdop>10.0</pdop><geoidheight>54.00</geoidheight><course>24.4</course><type>1</type></trkpt>
      <trkpt lat="40.65586762" lon="-4.98000126"><ele>2321</ele><speed>8.26</speed><time>2016-06-29T12:19:44Z</time><pdop>13.0</pdop><geoidheight>54.00</geoidheight><course>176.0</course><type>1</type></trkpt>
      <trkpt lat="40.65566019" lon="-4.97974192"><ele>2289</ele><speed>9.60</speed><time>2016-06-29T12:19:46Z</time><pdop>14.0</pdop><geoidheight>54.00</geoidheight><course>136.5</course><type>1</type></trkpt>
      <trkpt lat="40.65557396" lon="-4.97935005"><ele>2298</ele><speed>11.23</speed><time>2016-06-29T12:19:48Z</time><pdop>14.0</pdop><geoidheight>54.00</geoidheight><course>105.0</course><type>1</type></trkpt>
      <trkpt lat="40.65570415" lon="-4.97886361"><ele>2308</ele><speed>14.18</speed><time>2016-06-29T12:19:50Z</time><pdop>13.0</pdop><geoidheight>54.00</geoidheight><course>61.5</course><type>1</type></trkpt>
      <trkpt lat="40.65584488" lon="-4.97849004"><ele>2321</ele><speed>12.21</speed><time>2016-06-29T12:19:52Z</time><pdop>12.0</pdop><geoidheight>54.00</geoidheight><course>52.2</course><type>1</type></trkpt>
      <trkpt lat="40.65599841" lon="-4.97828045"><ele>2331</ele><speed>11.28</speed><time>2016-06-29T12:19:54Z</time><pdop>12.0</pdop><geoidheight>54.00</geoidheight><course>45.6</course><type>1</type></trkpt>
      <trkpt lat="40.6556355" lon="-4.97802091"><ele>2403</ele><speed>10.26</speed><time>2016-06-29T12:20:04Z</time><pdop>13.0</pdop><geoidheight>54.00</geoidheight><course>145.5</course><type>1</type></trkpt>
      <trkpt lat="40.65536994" lon="-4.97761549"><ele>2386</ele><speed>15.61</speed><time>2016-06-29T12:20:06Z</time><pdop>12.0</pdop><geoidheight>54.00</geoidheight><course>129.6</course><type>1</type></trkpt>
      <trkpt lat="40.65530369" lon="-4.97716549"><ele>2379</ele><speed>16.24</speed><time>2016-06-29T12:20:08Z</time><pdop>10.0</pdop><geoidheight>54.00</geoidheight><course>103.5</course><type>1</type></trkpt>
      <trkpt lat="40.65524688" lon="-4.97674321"><ele>2377</ele><speed>16.03</speed><time>2016-06-29T12:20:10Z</time><pdop>10.0</pdop><geoidheight>54.00</geoidheight><course>95.0</course><type>1</type></trkpt>
      <trkpt lat="40.65531378" lon="-4.97633087"><ele>2378</ele><speed>16.14</speed><time>2016-06-29T12:20:12Z</time><pdop>11.0</pdop><geoidheight>53.00</geoidheight><course>81.1</course><type>1</type></trkpt>
      <trkpt lat="40.65546166" lon="-4.97596165"><ele>2381</ele><speed>14.99</speed><time>2016-06-29T12:20:14Z</time><pdop>10.0</pdop><geoidheight>53.00</geoidheight><course>61.5</course><type>1</type></trkpt>
      <trkpt lat="40.65562181" lon="-4.97564239"><ele>2380</ele><speed>14.80</speed><time>2016-06-29T12:20:16Z</time><pdop>10.0</pdop><geoidheight>53.00</geoidheight><course>60.2</course><type>1</type></trkpt>
      <trkpt lat="40.65582281" lon="-4.97553076"><ele>2379</ele><speed>12.14</speed><time>2016-06-29T12:20:18Z</time><pdop>10.0</pdop><geoidheight>53.00</geoidheight><course>34.3</course><type>1</type></trkpt>
      <trkpt lat="40.65602839" lon="-4.97541587"><ele>2381</ele><speed>12.01</speed><time>2016-06-29T12:20:20Z</time><pdop>11.0</pdop><geoidheight>53.00</geoidheight><course>30.1</course><type>1</type></trkpt>
      <trkpt lat="40.65628608" lon="-4.97524944"><ele>2386</ele><speed>9.95</speed><time>2016-06-29T12:20:23Z</time><pdop>11.0</pdop><geoidheight>53.00</geoidheight><course>35.4</course><type>1</type></trkpt>
      <trkpt lat="40.65650172" lon="-4.97513269"><ele>2389</ele><speed>7.59</speed><time>2016-06-29T12:20:26Z</time><pdop>9.0</pdop><geoidheight>53.00</geoidheight><course>20.3</course><type>1</type></trkpt>
      <trkpt lat="40.6562852" lon="-4.97518441"><ele>2321</ele><speed>3.46</speed><time>2016-06-29T12:20:35Z</time><pdop>10.0</pdop><geoidheight>53.00</geoidheight><course>174.8</course><type>1</type></trkpt>
      <trkpt lat="40.65650639" lon="-4.97515829"><ele>2382</ele><speed>6.59</speed><time>2016-06-29T12:20:41Z</time><pdop>11.0</pdop><geoidheight>53.00</geoidheight><course>24.5</course><type>1</type></trkpt>
      <trkpt lat="40.65670397" lon="-4.97476654"><ele>2391</ele><speed>14.76</speed><time>2016-06-29T12:20:43Z</time><pdop>11.0</pdop><geoidheight>53.00</geoidheight><course>53.1</course><type>1</type></trkpt>
      <trkpt lat="40.65677645" lon="-4.97429333"><ele>2395</ele><speed>17.43</speed><time>2016-06-29T12:20:45Z</time><pdop>12.0</pdop><geoidheight>53.00</geoidheight><course>74.7</course><type>1</type></trkpt>
      <trkpt lat="40.65678479" lon="-4.97377779"><ele>2399</ele><speed>18.87</speed><time>2016-06-29T12:20:47Z</time><pdop>11.0</pdop><geoidheight>53.00</geoidheight><course>86.4</course><type>1</type></trkpt>
      <trkpt lat="40.65666857" lon="-4.97344578"><ele>2410</ele><speed>14.10</speed><time>2016-06-29T12:20:49Z</time><pdop>11.0</pdop><geoidheight>53.00</geoidheight><course>100.5</course><type>1</type></trkpt>
      <trkpt lat="40.65642906" lon="-4.97332559"><ele>2392</ele><speed>11.50</speed><time>2016-06-29T12:20:51Z</time><pdop>11.0</pdop><geoidheight>53.00</geoidheight><course>137.2</course><type>1</type></trkpt>
      <trkpt lat="40.65651626" lon="-4.97298404"><ele>2432</ele><speed>9.93</speed><time>2016-06-29T12:21:00Z</time><pdop>13.0</pdop><geoidheight>53.00</geoidheight><course>78.7</course><type>1</type></trkpt>
      <trkpt lat="40.6565869" lon="-4.97239039"><ele>2437</ele><speed>17.44</speed><time>2016-06-29T12:21:02Z</time><pdop>12.0</pdop><geoidheight>53.00</geoidheight><course>89.9</course><type>1</type></trkpt>
      <trkpt lat="40.65662819" lon="-4.97182217"><ele>2251</ele><speed>19.66</speed><time>2016-06-29T12:21:04Z</time><pdop>11.0</pdop><geoidheight>53.00</geoidheight><course>91.5</course><type>1</type></trkpt>
      <trkpt lat="40.65656036" lon="-4.97145443"><ele>2369</ele><speed>15.11</speed><time>2016-06-29T12:21:06Z</time><pdop>10.0</pdop><geoidheight>53.00</geoidheight><course>97.2</course><type>1</type></trkpt>
      <trkpt lat="40.65634875" lon="-4.97131114"><ele>2403</ele><speed>10.79</speed><time>2016-06-29T12:21:08Z</time><pdop>5.0</pdop><geoidheight>53.00</geoidheight><course>139.0</course><type>1</type></trkpt>
      <trkpt lat="40.6562624" lon="-4.97135484"><ele>2431</ele><speed>3.21</speed><time>2016-06-29T12:21:10Z</time><pdop>3.0</pdop><geoidheight>53.00</geoidheight><course>177.8</course><type>1</type></trkpt>
      <trkpt lat="40.65632503" lon="-4.9713343"><ele>2448</ele><speed>5.99</speed><time>2016-06-29T12:21:13Z</time><pdop>3.0</pdop><geoidheight>53.00</geoidheight><course>6.6</course><type>1</type></trkpt>
      <trkpt lat="40.65643274" lon="-4.97130958"><ele>2455</ele><speed>6.36</speed><time>2016-06-29T12:21:15Z</time><pdop>4.0</pdop><geoidheight>53.00</geoidheight><course>14.2</course><type>1</type></trkpt>
      <trkpt lat="40.65652425" lon="-4.97126988"><ele>2460</ele><speed>8.97</speed><time>2016-06-29T12:21:16Z</time><pdop>4.0</pdop><geoidheight>53.00</geoidheight><course>16.3</course><type>1</type></trkpt>
      <trkpt lat="40.65663072" lon="-4.97102115"><ele>2465</ele><speed>15.03</speed><time>2016-06-29T12:21:17Z</time><pdop>3.0</pdop><geoidheight>53.00</geoidheight><course>45.1</course><type>1</type></trkpt>
      <trkpt lat="40.65670804" lon="-4.97085784"><ele>2467</ele><speed>16.69</speed><time>2016-06-29T12:21:18Z</time><pdop>4.0</pdop><geoidheight>53.00</geoidheight><course>53.9</course><type>1</type></trkpt>
      <trkpt lat="40.6567492" lon="-4.97065605"><ele>2469</ele><speed>18.46</speed><time>2016-06-29T12:21:19Z</time><pdop>3.0</pdop><geoidheight>53.00</geoidheight><course>67.8</course><type>1</type></trkpt>
      <trkpt lat="40.65679613" lon="-4.97042603"><ele>2470</ele><speed>19.99</speed><time>2016-06-29T12:21:20Z</time><pdop>4.0</pdop><geoidheight>53.00</geoidheight><course>73.3</course><type>1</type></trkpt>
      <trkpt lat="40.65683075" lon="-4.97017917"><ele>2473</ele><speed>20.42</speed><time>2016-06-29T12:21:21Z</time><pdop>5.0</pdop><geoidheight>53.00</geoidheight><course>79.0</course><type>1</type></trkpt>
      <trkpt lat="40.65685868" lon="-4.96991207"><ele>2475</ele><speed>21.33</speed><time>2016-06-29T12:21:22Z</time><pdop>5.0</pdop><geoidheight>53.00</geoidheight><course>80.9</course><type>1</type></trkpt>
      <trkpt lat="40.65684276" lon="-4.96969209"><ele>2478</ele><speed>19.66</speed><time>2016-06-29T12:21:23Z</time><pdop>5.0</pdop><geoidheight>53.00</geoidheight><course>84.5</course><type>1</type></trkpt>
      <trkpt lat="40.6567859" lon="-4.96949787"><ele>2481</ele><speed>18.01</speed><time>2016-06-29T12:21:24Z</time><pdop>5.0</pdop><geoidheight>53.00</geoidheight><course>93.4</course><type>1</type></trkpt>
      <trkpt lat="40.65672865" lon="-4.96933333"><ele>2482</ele><speed>15.89</speed><time>2016-06-29T12:21:25Z</time><pdop>5.0</pdop><geoidheight>53.00</geoidheight><course>99.6</course><type>1</type></trkpt>
      <trkpt lat="40.65659106" lon="-4.96923771"><ele>2484</ele><speed>14.64</speed><time>2016-06-29T12:21:26Z</time><pdop>5.0</pdop><geoidheight>53.00</geoidheight><course>122.9</course><type>1</type></trkpt>
      <trkpt lat="40.65648351" lon="-4.96916893"><ele>2486</ele><speed>12.90</speed><time>2016-06-29T12:21:27Z</time><pdop>4.0</pdop><geoidheight>53.00</geoidheight><course>139.0</course><type>1</type></trkpt>
      <trkpt lat="40.65639938" lon="-4.96910008"><ele>2488</ele><speed>10.39</speed><time>2016-06-29T12:21:28Z</time><pdop>4.0</pdop><geoidheight>53.00</geoidheight><course>146.2</course><type>1</type></trkpt>
      <trkpt lat="40.65628311" lon="-4.96904592"><ele>2489</ele><speed>5.60</speed><time>2016-06-29T12:21:30Z</time><pdop>3.0</pdop><geoidheight>53.00</geoidheight><course>168.7</course><type>1</type></trkpt>
      <trkpt lat="40.65635776" lon="-4.96902927"><ele>2491</ele><speed>4.80</speed><time>2016-06-29T12:21:34Z</time><pdop>3.0</pdop><geoidheight>53.00</geoidheight><course>7.2</course><type>1</type></trkpt>
      <trkpt lat="40.65649696" lon="-4.96886372"><ele>2492</ele><speed>9.52</speed><time>2016-06-29T12:21:36Z</time><pdop>5.0</pdop><geoidheight>53.00</geoidheight><course>43.6</course><type>1</type></trkpt>
      <trkpt lat="40.65657376" lon="-4.96871386"><ele>2494</ele><speed>12.57</speed><time>2016-06-29T12:21:37Z</time><pdop>5.0</pdop><geoidheight>53.00</geoidheight><course>50.4</course><type>1</type></trkpt>
      <trkpt lat="40.65666266" lon="-4.96855409"><ele>2497</ele><speed>14.59</speed><time>2016-06-29T12:21:38Z</time><pdop>4.0</pdop><geoidheight>53.00</geoidheight><course>52.1</course><type>1</type></trkpt>
      <trkpt lat="40.6567416" lon="-4.96840135"><ele>2497</ele><speed>15.13</speed><time>2016-06-29T12:21:39Z</time><pdop>4.0</pdop><geoidheight>53.00</geoidheight><course>51.3</course><type>1</type></trkpt>
      <trkpt lat="40.65684023" lon="-4.96826661"><ele>2497</ele><speed>15.55</speed><time>2016-06-29T12:21:40Z</time><pdop>4.0</pdop><geoidheight>53.00</geoidheight><course>48.9</course><type>1</type></trkpt>
      <trkpt lat="40.65693441" lon="-4.96812606"><ele>2497</ele><speed>15.79</speed><time>2016-06-29T12:21:41Z</time><pdop>4.0</pdop><geoidheight>53.00</geoidheight><course>46.3</course><type>1</type></trkpt>
      <trkpt lat="40.65702924" lon="-4.96798148"><ele>2499</ele><speed>15.75</speed><time>2016-06-29T12:21:42Z</time><pdop>4.0</pdop><geoidheight>53.00</geoidheight><course>47.8</course><type>1</type></trkpt>
      <trkpt lat="40.65713041" lon="-4.96783615"><ele>2499</ele><speed>16.24</speed><time>2016-06-29T12:21:43Z</time><pdop>4.0</pdop><geoidheight>53.00</geoidheight><course>49.4</course><type>1</type></trkpt>
      <trkpt lat="40.65721195" lon="-4.96766807"><ele>2501</ele><speed>16.67</speed><time>2016-06-29T12:21:44Z</time><pdop>4.0</pdop><geoidheight>53.00</geoidheight><course>53.1</course><type>1</type></trkpt>
      <trkpt lat="40.65729334" lon="-4.9674951"><ele>2503</ele><speed>17.16</speed><time>2016-06-29T12:21:45Z</time><pdop>4.0</pdop><geoidheight>53.00</geoidheight><course>56.2</course><type>1</type></trkpt>
      <trkpt lat="40.65737702" lon="-4.967331"><ele>2504</ele><speed>16.79</speed><time>2016-06-29T12:21:46Z</time><pdop>4.0</pdop><geoidheight>53.00</geoidheight><course>57.3</course><type>1</type></trkpt>
      <trkpt lat="40.65746587" lon="-4.9671705"><ele>2507</ele><speed>16.59</speed><time>2016-06-29T12:21:47Z</time><pdop>3.0</pdop><geoidheight>53.00</geoidheight><course>56.0</course><type>1</type></trkpt>
      <trkpt lat="40.65754531" lon="-4.96699469"><ele>2483</ele><speed>16.81</speed><time>2016-06-29T12:21:48Z</time><pdop>3.0</pdop><geoidheight>53.00</geoidheight><course>57.3</course><type>1</type></trkpt>
      <trkpt lat="40.65762795" lon="-4.96682037"><ele>2493</ele><speed>17.21</speed><time>2016-06-29T12:21:49Z</time><pdop>3.0</pdop><geoidheight>53.00</geoidheight><course>59.3</course><type>1</type></trkpt>
      <trkpt lat="40.65771223" lon="-4.96664683"><ele>2498</ele><speed>17.40</speed><time>2016-06-29T12:21:50Z</time><pdop>4.0</pdop><geoidheight>53.00</geoidheight><course>58.9</course><type>1</type></trkpt>
      <trkpt lat="40.65780413" lon="-4.96645892"><ele>2503</ele><speed>17.42</speed><time>2016-06-29T12:21:51Z</time><pdop>3.0</pdop><geoidheight>53.00</geoidheight><course>56.2</course><type>1</type></trkpt>
      <trkpt lat="40.65790226" lon="-4.96631677"><ele>2506</ele><speed>15.97</speed><time>2016-06-29T12:21:52Z</time><pdop>3.0</pdop><geoidheight>53.00</geoidheight><course>51.5</course><type>1</type></trkpt>
      <trkpt lat="40.65798095" lon="-4.96618027"><ele>2509</ele><speed>14.65</speed><time>2016-06-29T12:21:53Z</time><pdop>3.0</pdop><geoidheight>53.00</geoidheight><course>51.0</course><type>1</type></trkpt>
      <trkpt lat="40.65805496" lon="-4.9660589"><ele>2511</ele><speed>13.33</speed><time>2016-06-29T12:21:54Z</time><pdop>3.0</pdop><geoidheight>53.00</geoidheight><course>51.2</course><type>1</type></trkpt>
      <trkpt lat="40.65813982" lon="-4.96594603"><ele>2513</ele><speed>12.75</speed><time>2016-06-29T12:21:55Z</time><pdop>3.0</pdop><geoidheight>53.00</geoidheight><course>47.5</course><type>1</type></trkpt>
      <trkpt lat="40.65822343" lon="-4.9658425"><ele>2514</ele><speed>12.62</speed><time>2016-06-29T12:21:56Z</time><pdop>3.0</pdop><geoidheight>53.00</geoidheight><course>44.6</course><type>1</type></trkpt>
      <trkpt lat="40.65831232" lon="-4.96572899"><ele>2514</ele><speed>13.23</speed><time>2016-06-29T12:21:57Z</time><pdop>3.0</pdop><geoidheight>53.00</geoidheight><course>46.1</course><type>1</type></trkpt>
      <trkpt lat="40.65839808" lon="-4.96560412"><ele>2516</ele><speed>14.05</speed><time>2016-06-29T12:21:58Z</time><pdop>3.0</pdop><geoidheight>53.00</geoidheight><course>49.4</course><type>1</type></trkpt>
      <trkpt lat="40.65846974" lon="-4.9654616"><ele>2518</ele><speed>14.17</speed><time>2016-06-29T12:21:59Z</time><pdop>3.0</pdop><geoidheight>53.00</geoidheight><course>53.9</course><type>1</type></trkpt>
      <trkpt lat="40.65854329" lon="-4.96532774"><ele>2519</ele><speed>13.86</speed><time>2016-06-29T12:22:00Z</time><pdop>3.0</pdop><geoidheight>53.00</geoidheight><course>53.2</course><type>1</type></trkpt>
      <trkpt lat="40.65862055" lon="-4.96519583"><ele>2521</ele><speed>13.40</speed><time>2016-06-29T12:22:01Z</time><pdop>3.0</pdop><geoidheight>53.00</geoidheight><course>53.7</course><type>1</type></trkpt>
      <trkpt lat="40.65868951" lon="-4.96506504"><ele>2522</ele><speed>13.38</speed><time>2016-06-29T12:22:02Z</time><pdop>3.0</pdop><geoidheight>53.00</geoidheight><course>54.9</course><type>1</type></trkpt>
      <trkpt lat="40.65875724" lon="-4.96492414"><ele>2524</ele><speed>13.81</speed><time>2016-06-29T12:22:03Z</time><pdop>3.0</pdop><geoidheight>53.00</geoidheight><course>56.4</course><type>1</type></trkpt>
      <trkpt lat="40.65883063" lon="-4.96478654"><ele>2525</ele><speed>14.35</speed><time>2016-06-29T12:22:04Z</time><pdop>3.0</pdop><geoidheight>53.00</geoidheight><course>56.5</course><type>1</type></trkpt>
      <trkpt lat="40.65890048" lon="-4.96464485"><ele>2527</ele><speed>14.71</speed><time>2016-06-29T12:22:05Z</time><pdop>3.0</pdop><geoidheight>53.00</geoidheight><course>55.0</course><type>1</type></trkpt>
      <trkpt lat="40.65898105" lon="-4.96451146"><ele>2530</ele><speed>14.63</speed><time>2016-06-29T12:22:06Z</time><pdop>3.0</pdop><geoidheight>53.00</geoidheight><course>53.7</course><type>1</type></trkpt>
      <trkpt lat="40.65905685" lon="-4.9643841"><ele>2533</ele><speed>14.05</speed><time>2016-06-29T12:22:07Z</time><pdop>3.0</pdop><geoidheight>53.00</geoidheight><course>53.0</course><type>1</type></trkpt>
      <trkpt lat="40.65913431" lon="-4.96426506"><ele>2536</ele><speed>12.69</speed><time>2016-06-29T12:22:08Z</time><pdop>3.0</pdop><geoidheight>53.00</geoidheight><course>51.9</course><type>1</type></trkpt>
      <trkpt lat="40.65920226" lon="-4.96417415"><ele>2537</ele><speed>10.98</speed><time>2016-06-29T12:22:09Z</time><pdop>3.0</pdop><geoidheight>53.00</geoidheight><course>47.7</course><type>1</type></trkpt>
      <trkpt lat="40.65926937" lon="-4.96409109"><ele>2537</ele><speed>10.38</speed><time>2016-06-29T12:22:10Z</time><pdop>3.0</pdop><geoidheight>53.00</geoidheight><course>42.9</course><type>1</type></trkpt>
      <trkpt lat="40.65933792" lon="-4.96404328"><ele>2537</ele><speed>9.09</speed><time>2016-06-29T12:22:11Z</time><pdop>3.0</pdop><geoidheight>53.00</geoidheight><course>31.6</course><type>1</type></trkpt>
      <trkpt lat="40.65940818" lon="-4.96400889"><ele>2537</ele><speed>8.07</speed><time>2016-06-29T12:22:12Z</time><pdop>3.0</pdop><geoidheight>53.00</geoidheight><course>22.6</course><type>1</type></trkpt>
      <trkpt lat="40.65948858" lon="-4.96399444"><ele>2538</ele><speed>4.13</speed><time>2016-06-29T12:22:14Z</time><pdop>4.0</pdop><geoidheight>53.00</geoidheight><course>13.2</course><type>1</type></trkpt>
      <trkpt lat="40.65938676" lon="-4.96402473"><ele>2540</ele><speed>6.45</speed><time>2016-06-29T12:22:17Z</time><pdop>3.0</pdop><geoidheight>53.00</geoidheight><course>176.2</course><type>1</type></trkpt>
      <trkpt lat="40.65929362" lon="-4.96399988"><ele>2541</ele><speed>9.07</speed><time>2016-06-29T12:22:18Z</time><pdop>3.0</pdop><geoidheight>53.00</geoidheight><course>166.0</course><type>1</type></trkpt>
      <trkpt lat="40.65917363" lon="-4.96391419"><ele>2541</ele><speed>11.78</speed><time>2016-06-29T12:22:19Z</time><pdop>4.0</pdop><geoidheight>53.00</geoidheight><course>151.9</course><type>1</type></trkpt>
      <trkpt lat="40.65906305" lon="-4.96380941"><ele>2542</ele><speed>12.34</speed><time>2016-06-29T12:22:20Z</time><pdop>4.0</pdop><geoidheight>53.00</geoidheight><course>146.9</course><type>1</type></trkpt>
      <trkpt lat="40.65899378" lon="-4.9636843"><ele>2542</ele><speed>11.39</speed><time>2016-06-29T12:22:21Z</time><pdop>5.0</pdop><geoidheight>53.00</geoidheight><course>133.0</course><type>1</type></trkpt>
      <trkpt lat="40.65888209" lon="-4.96345988"><ele>2541</ele><speed>14.79</speed><time>2016-06-29T12:22:22Z</time><pdop>5.0</pdop><geoidheight>53.00</geoidheight><course>123.9</course><type>1</type></trkpt>
      <trkpt lat="40.6588183" lon="-4.96322018"><ele>2542</ele><speed>17.10</speed><time>2016-06-29T12:22:23Z</time><pdop>4.0</pdop><geoidheight>53.00</geoidheight><course>116.1</course><type>1</type></trkpt>
      <trkpt lat="40.65878344" lon="-4.96300978"><ele>2542</ele><speed>17.03</speed><time>2016-06-29T12:22:24Z</time><pdop>5.0</pdop><geoidheight>53.00</geoidheight><course>110.8</course><type>1</type></trkpt>
      <trkpt lat="40.65880692" lon="-4.96279054"><ele>2543</ele><speed>16.15</speed><time>2016-06-29T12:22:25Z</time><pdop>5.0</pdop><geoidheight>53.00</geoidheight><course>96.5</course><type>1</type></trkpt>
      <trkpt lat="40.65884535" lon="-4.96255116"><ele>2544</ele><speed>16.36</speed><time>2016-06-29T12:22:26Z</time><pdop>5.0</pdop><geoidheight>53.00</geoidheight><course>86.8</course><type>1</type></trkpt>
      <trkpt lat="40.65895606" lon="-4.96231943"><ele>2550</ele><speed>17.11</speed><time>2016-06-29T12:22:27Z</time><pdop>4.0</pdop><geoidheight>53.00</geoidheight><course>71.0</course><type>1</type></trkpt>
      <trkpt lat="40.65903319" lon="-4.96211909"><ele>2553</ele><speed>16.36</speed><time>2016-06-29T12:22:28Z</time><pdop>3.0</pdop><geoidheight>53.00</geoidheight><course>66.3</course><type>1</type></trkpt>
      <trkpt lat="40.65912177" lon="-4.96196733"><ele>2556</ele><speed>15.21</speed><time>2016-06-29T12:22:29Z</time><pdop>3.0</pdop><geoidheight>53.00</geoidheight><course>58.3</course><type>1</type></trkpt>
      <trkpt lat="40.65920653" lon="-4.96183593"><ele>2558</ele><speed>13.61</speed><time>2016-06-29T12:22:30Z</time><pdop>3.0</pdop><geoidheight>53.00</geoidheight><course>52.2</course><type>1</type></trkpt>
      <trkpt lat="40.6592797" lon="-4.96172208"><ele>2561</ele><speed>12.57</speed><time>2016-06-29T12:22:31Z</time><pdop>3.0</pdop><geoidheight>53.00</geoidheight><course>48.4</course><type>1</type></trkpt>
      <trkpt lat="40.65936249" lon="-4.96161733"><ele>2562</ele><speed>12.53</speed><time>2016-06-29T12:22:32Z</time><pdop>3.0</pdop><geoidheight>53.00</geoidheight><course>44.9</course><type>1</type></trkpt>
      <trkpt lat="40.65945118" lon="-4.96154255"><ele>2553</ele><speed>11.66</speed><time>2016-06-29T12:22:33Z</time><pdop>3.0</pdop><geoidheight>53.00</geoidheight><course>35.5</course><type>1</type></trkpt>
      <trkpt lat="40.6595515" lon="-4.96148833"><ele>2558</ele><speed>10.83</speed><time>2016-06-29T12:22:34Z</time><pdop>3.0</pdop><geoidheight>53.00</geoidheight><course>24.4</course><type>1</type></trkpt>
      <trkpt lat="40.65963997" lon="-4.96145306"><ele>2560</ele><speed>10.07</speed><time>2016-06-29T12:22:35Z</time><pdop>3.0</pdop><geoidheight>53.00</geoidheight><course>20.2</course><type>1</type></trkpt>
      <trkpt lat="40.65971362" lon="-4.96141989"><ele>2562</ele><speed>8.53</speed><time>2016-06-29T12:22:36Z</time><pdop>3.0</pdop><geoidheight>53.00</geoidheight><course>22.0</course><type>1</type></trkpt>
      <trkpt lat="40.65977047" lon="-4.96139298"><ele>2564</ele><speed>6.83</speed><time>2016-06-29T12:22:37Z</time><pdop>3.0</pdop><geoidheight>53.00</geoidheight><course>24.2</course><type>1</type></trkpt>
      <trkpt lat="40.6598306" lon="-4.96135702"><ele>2565</ele><speed>6.59</speed><time>2016-06-29T12:22:38Z</time><pdop>4.0</pdop><geoidheight>53.00</geoidheight><course>23.5</course><type>1</type></trkpt>
      <trkpt lat="40.65991304" lon="-4.9613803"><ele>2568</ele><speed>4.14</speed><time>2016-06-29T12:22:41Z</time><pdop>3.0</pdop><geoidheight>53.00</geoidheight><course>350.6</course><type>1</type></trkpt>
      <trkpt lat="40.65996709" lon="-4.96138657"><ele>2569</ele><speed>5.69</speed><time>2016-06-29T12:22:42Z</time><pdop>3.0</pdop><geoidheight>53.00</geoidheight><course>354.8</course><type>1</type></trkpt>
      <trkpt lat="40.66002532" lon="-4.96138896"><ele>2569</ele><speed>6.59</speed><time>2016-06-29T12:22:43Z</time><pdop>3.0</pdop><geoidheight>53.00</geoidheight><course>0.9</course><type>1</type></trkpt>
      <trkpt lat="40.66009999" lon="-4.96137524"><ele>2571</ele><speed>8.08</speed><time>2016-06-29T12:22:44Z</time><pdop>3.0</pdop><geoidheight>53.00</geoidheight><course>12.6</course><type>1</type></trkpt>
      <trkpt lat="40.66017905" lon="-4.96134585"><ele>2573</ele><speed>8.37</speed><time>2016-06-29T12:22:45Z</time><pdop>3.0</pdop><geoidheight>53.00</geoidheight><course>19.3</course><type>1</type></trkpt>
      <trkpt lat="40.66024832" lon="-4.96131641"><ele>2573</ele><speed>8.81</speed><time>2016-06-29T12:22:46Z</time><pdop>3.0</pdop><geoidheight>53.00</geoidheight><course>23.2</course><type>1</type></trkpt>
      <trkpt lat="40.66032233" lon="-4.9612679"><ele>2573</ele><speed>9.04</speed><time>2016-06-29T12:22:47Z</time><pdop>3.0</pdop><geoidheight>53.00</geoidheight><course>22.9</course><type>1</type></trkpt>
      <trkpt lat="40.66041805" lon="-4.96122408"><ele>2575</ele><speed>10.61</speed><time>2016-06-29T12:22:48Z</time><pdop>3.0</pdop><geoidheight>53.00</geoidheight><course>19.4</course><type>1</type></trkpt>
      <trkpt lat="40.66051559" lon="-4.96117249"><ele>2575</ele><speed>11.87</speed><time>2016-06-29T12:22:49Z</time><pdop>3.0</pdop><geoidheight>53.00</geoidheight><course>23.8</course><type>1</type></trkpt>
      <trkpt lat="40.66061588" lon="-4.96108482"><ele>2575</ele><speed>13.04</speed><time>2016-06-29T12:22:50Z</time><pdop>4.0</pdop><geoidheight>53.00</geoidheight><course>31.3</course><type>1</type></trkpt>
      <trkpt lat="40.6607484" lon="-4.96098171"><ele>2576</ele><speed>15.33</speed><time>2016-06-29T12:22:51Z</time><pdop>3.0</pdop><geoidheight>53.00</geoidheight><course>33.0</course><type>1</type></trkpt>
      <trkpt lat="40.66086308" lon="-4.96089256"><ele>2575</ele><speed>14.71</speed><time>2016-06-29T12:22:52Z</time><pdop>3.0</pdop><geoidheight>53.00</geoidheight><course>31.8</course><type>1</type></trkpt>
      <trkpt lat="40.66097266" lon="-4.96079793"><ele>2576</ele><speed>14.63</speed><time>2016-06-29T12:22:53Z</time><pdop>4.0</pdop><geoidheight>53.00</geoidheight><course>31.1</course><type>1</type></trkpt>
      <trkpt lat="40.66108581" lon="-4.96069672"><ele>2576</ele><speed>15.13</speed><time>2016-06-29T12:22:54Z</time><pdop>3.0</pdop><geoidheight>53.00</geoidheight><course>32.6</course><type>1</type></trkpt>
      <trkpt lat="40.6612036" lon="-4.9605899"><ele>2576</ele><speed>15.52</speed><time>2016-06-29T12:22:55Z</time><pdop>4.0</pdop><geoidheight>53.00</geoidheight><course>34.4</course><type>1</type></trkpt>
      <trkpt lat="40.66132523" lon="-4.96047447"><ele>2576</ele><speed>16.05</speed><time>2016-06-29T12:22:56Z</time><pdop>5.0</pdop><geoidheight>53.00</geoidheight><course>36.6</course><type>1</type></trkpt>
      <trkpt lat="40.66141338" lon="-4.96034253"><ele>2577</ele><speed>15.65</speed><time>2016-06-29T12:22:57Z</time><pdop>6.0</pdop><geoidheight>53.00</geoidheight><course>41.3</course><type>1</type></trkpt>
      <trkpt lat="40.66150227" lon="-4.96020137"><ele>2578</ele><speed>15.70</speed><time>2016-06-29T12:22:58Z</time><pdop>7.0</pdop><geoidheight>53.00</geoidheight><course>45.1</course><type>1</type></trkpt>
      <trkpt lat="40.66160423" lon="-4.96003626"><ele>2580</ele><speed>16.77</speed><time>2016-06-29T12:22:59Z</time><pdop>5.0</pdop><geoidheight>53.00</geoidheight><course>47.7</course><type>1</type></trkpt>
      <trkpt lat="40.661709" lon="-4.95986488"><ele>2581</ele><speed>17.62</speed><time>2016-06-29T12:23:00Z</time><pdop>4.0</pdop><geoidheight>53.00</geoidheight><course>51.6</course><type>1</type></trkpt>
      <trkpt lat="40.66180942" lon="-4.95968475"><ele>2583</ele><speed>18.17</speed><time>2016-06-29T12:23:01Z</time><pdop>4.0</pdop><geoidheight>53.00</geoidheight><course>53.8</course><type>1</type></trkpt>
      <trkpt lat="40.66189924" lon="-4.95952072"><ele>2585</ele><speed>17.77</speed><time>2016-06-29T12:23:02Z</time><pdop>4.0</pdop><geoidheight>53.00</geoidheight><course>54.9</course><type>1</type></trkpt>
      <trkpt lat="40.66198561" lon="-4.95935946"><ele>2586</ele><speed>17.01</speed><time>2016-06-29T12:23:03Z</time><pdop>4.0</pdop><geoidheight>53.00</geoidheight><course>55.8</course><type>1</type></trkpt>
      <trkpt lat="40.66205096" lon="-4.95921214"><ele>2501</ele><speed>15.97</speed><time>2016-06-29T12:23:04Z</time><pdop>4.0</pdop><geoidheight>53.00</geoidheight><course>58.8</course><type>1</type></trkpt>
      <trkpt lat="40.66212308" lon="-4.95905901"><ele>2514</ele><speed>15.83</speed><time>2016-06-29T12:23:05Z</time><pdop>4.0</pdop><geoidheight>53.00</geoidheight><course>58.4</course><type>1</type></trkpt>
      <trkpt lat="40.66220895" lon="-4.95891029"><ele>2535</ele><speed>15.83</speed><time>2016-06-29T12:23:06Z</time><pdop>4.0</pdop><geoidheight>53.00</geoidheight><course>54.0</course><type>1</type></trkpt>
      <trkpt lat="40.66232264" lon="-4.95876524"><ele>2548</ele><speed>16.50</speed><time>2016-06-29T12:23:07Z</time><pdop>3.0</pdop><geoidheight>53.00</geoidheight><course>45.8</course><type>1</type></trkpt>
      <trkpt lat="40.6624469" lon="-4.95862533"><ele>2556</ele><speed>17.02</speed><time>2016-06-29T12:23:08Z</time><pdop>3.0</pdop><geoidheight>53.00</geoidheight><course>42.7</course><type>1</type></trkpt>
      <trkpt lat="40.66255348" lon="-4.95848775"><ele>2565</ele><speed>16.88</speed><time>2016-06-29T12:23:09Z</time><pdop>3.0</pdop><geoidheight>53.00</geoidheight><course>43.3</course><type>1</type></trkpt>
      <trkpt lat="40.66265353" lon="-4.95835098"><ele>2570</ele><speed>15.99</speed><time>2016-06-29T12:23:10Z</time><pdop>3.0</pdop><geoidheight>53.00</geoidheight><course>44.8</course><type>1</type></trkpt>
      <trkpt lat="40.66275146" lon="-4.95823339"><ele>2573</ele><speed>15.58</speed><time>2016-06-29T12:23:11Z</time><pdop>3.0</pdop><geoidheight>53.00</geoidheight><course>42.4</course><type>1</type></trkpt>
      <trkpt lat="40.66285912" lon="-4.95811088"><ele>2576</ele><speed>15.84</speed><time>2016-06-29T12:23:12Z</time><pdop>3.0</pdop><geoidheight>53.00</geoidheight><course>42.4</course><type>1</type></trkpt>
      <trkpt lat="40.66296333" lon="-4.95797468"><ele>2578</ele><speed>16.10</speed><time>2016-06-29T12:23:13Z</time><pdop>4.0</pdop><geoidheight>53.00</geoidheight><course>44.7</course><type>1</type></trkpt>
      <trkpt lat="40.66306532" lon="-4.95782676"><ele>2581</ele><speed>16.29</speed><time>2016-06-29T12:23:14Z</time><pdop>4.0</pdop><geoidheight>53.00</geoidheight><course>46.0</course><type>1</type></trkpt>
      <trkpt lat="40.66316694" lon="-4.95768417"><ele>2583</ele><speed>16.34</speed><time>2016-06-29T12:23:15Z</time><pdop>4.0</pdop><geoidheight>53.00</geoidheight><course>47.1</course><type>1</type></trkpt>
      <trkpt lat="40.663264" lon="-4.95753295"><ele>2583</ele><speed>16.69</speed><time>2016-06-29T12:23:16Z</time><pdop>4.0</pdop><geoidheight>53.00</geoidheight><course>49.2</course><type>1</type></trkpt>
      <trkpt lat="40.66335791" lon="-4.95737296"><ele>2584</ele><speed>16.96</speed><time>2016-06-29T12:23:17Z</time><pdop>3.0</pdop><geoidheight>53.00</geoidheight><course>51.1</course><type>1</type></trkpt>
      <trkpt lat="40.66345661" lon="-4.957214"><ele>2584</ele><speed>17.14</speed><time>2016-06-29T12:23:18Z</time><pdop>3.0</pdop><geoidheight>53.00</geoidheight><course>50.1</course><type>1</type></trkpt>
      <trkpt lat="40.66355791" lon="-4.95707101"><ele>2583</ele><speed>16.81</speed><time>2016-06-29T12:23:19Z</time><pdop>3.0</pdop><geoidheight>53.00</geoidheight><course>45.9</course><type>1</type></trkpt>
      <trkpt lat="40.66365913" lon="-4.95694226"><ele>2583</ele><speed>16.25</speed><time>2016-06-29T12:23:20Z</time><pdop>3.0</pdop><geoidheight>53.00</geoidheight><course>44.5</course><type>1</type></trkpt>
      <trkpt lat="40.66377648" lon="-4.95684943"><ele>2583</ele><speed>14.98</speed><time>2016-06-29T12:23:21Z</time><pdop>3.0</pdop><geoidheight>53.00</geoidheight><course>35.3</course><type>1</type></trkpt>
      <trkpt lat="40.66388454" lon="-4.95676402"><ele>2583</ele><speed>13.44</speed><time>2016-06-29T12:23:22Z</time><pdop>3.0</pdop><geoidheight>53.00</geoidheight><course>32.1</course><type>1</type></trkpt>
      <trkpt lat="40.66398588" lon="-4.95669735"><ele>2582</ele><speed>12.63</speed><time>2016-06-29T12:23:23Z</time><pdop>3.0</pdop><geoidheight>53.00</geoidheight><course>29.1</course><type>1</type></trkpt>
      <trkpt lat="40.66409521" lon="-4.95662919"><ele>2581</ele><speed>12.30</speed><time>2016-06-29T12:23:24Z</time><pdop>3.0</pdop><geoidheight>53.00</geoidheight><course>26.6</course><type>1</type></trkpt>
      <trkpt lat="40.66419911" lon="-4.95657374"><ele>2581</ele><speed>12.22</speed><time>2016-06-29T12:23:25Z</time><pdop>3.0</pdop><geoidheight>53.00</geoidheight><course>23.0</course><type>1</type></trkpt>
      <trkpt lat="40.66430532" lon="-4.95651503"><ele>2580</ele><speed>12.90</speed><time>2016-06-29T12:23:26Z</time><pdop>3.0</pdop><geoidheight>53.00</geoidheight><course>22.2</course><type>1</type></trkpt>
      <trkpt lat="40.6644211" lon="-4.9564275"><ele>2579</ele><speed>13.78</speed><time>2016-06-29T12:23:27Z</time><pdop>3.0</pdop><geoidheight>53.00</geoidheight><course>25.9</course><type>1</type></trkpt>
      <trkpt lat="40.66453086" lon="-4.95634204"><ele>2580</ele><speed>14.26</speed><time>2016-06-29T12:23:28Z</time><pdop>3.0</pdop><geoidheight>53.00</geoidheight><course>28.7</course><type>1</type></trkpt>
      <trkpt lat="40.66464449" lon="-4.95625189"><ele>2579</ele><speed>14.75</speed><time>2016-06-29T12:23:29Z</time><pdop>4.0</pdop><geoidheight>53.00</geoidheight><course>30.3</course><type>1</type></trkpt>
      <trkpt lat="40.6647732" lon="-4.95614778"><ele>2578</ele><speed>15.46</speed><time>2016-06-29T12:23:30Z</time><pdop>5.0</pdop><geoidheight>53.00</geoidheight><course>33.2</course><type>1</type></trkpt>
      <trkpt lat="40.66491534" lon="-4.95607635"><ele>2573</ele><speed>16.30</speed><time>2016-06-29T12:23:31Z</time><pdop>4.0</pdop><geoidheight>53.00</geoidheight><course>27.6</course><type>1</type></trkpt>
      <trkpt lat="40.66505859" lon="-4.95599035"><ele>2576</ele><speed>16.53</speed><time>2016-06-29T12:23:32Z</time><pdop>4.0</pdop><geoidheight>53.00</geoidheight><course>23.7</course><type>1</type></trkpt>
      <trkpt lat="40.66519676" lon="-4.95591738"><ele>2576</ele><speed>16.67</speed><time>2016-06-29T12:23:33Z</time><pdop>4.0</pdop><geoidheight>53.00</geoidheight><course>23.0</course><type>1</type></trkpt>
      <trkpt lat="40.66533935" lon="-4.95583214"><ele>2575</ele><speed>17.42</speed><time>2016-06-29T12:23:34Z</time><pdop>4.0</pdop><geoidheight>53.00</geoidheight><course>24.1</course><type>1</type></trkpt>
      <trkpt lat="40.66549118" lon="-4.95574335"><ele>2574</ele><speed>18.13</speed><time>2016-06-29T12:23:35Z</time><pdop>4.0</pdop><geoidheight>53.00</geoidheight><course>24.6</course><type>1</type></trkpt>
      <trkpt lat="40.66561422" lon="-4.95564669"><ele>2573</ele><speed>17.94</speed><time>2016-06-29T12:23:36Z</time><pdop>5.0</pdop><geoidheight>53.00</geoidheight><course>26.3</course><type>1</type></trkpt>
      <trkpt lat="40.66570338" lon="-4.95553502"><ele>2569</ele><speed>16.44</speed><time>2016-06-29T12:23:37Z</time><pdop>4.0</pdop><geoidheight>53.00</geoidheight><course>31.0</course><type>1</type></trkpt>
      <trkpt lat="40.66580694" lon="-4.95542238"><ele>2566</ele><speed>16.92</speed><time>2016-06-29T12:23:38Z</time><pdop>4.0</pdop><geoidheight>53.00</geoidheight><course>31.8</course><type>1</type></trkpt>
      <trkpt lat="40.66593363" lon="-4.95530869"><ele>2565</ele><speed>17.82</speed><time>2016-06-29T12:23:39Z</time><pdop>5.0</pdop><geoidheight>53.00</geoidheight><course>31.0</course><type>1</type></trkpt>
      <trkpt lat="40.66610339" lon="-4.95526261"><ele>2560</ele><speed>19.47</speed><time>2016-06-29T12:23:40Z</time><pdop>5.0</pdop><geoidheight>53.00</geoidheight><course>21.6</course><type>1</type></trkpt>
      <trkpt lat="40.66625476" lon="-4.95518265"><ele>2558</ele><speed>19.12</speed><time>2016-06-29T12:23:41Z</time><pdop>5.0</pdop><geoidheight>53.00</geoidheight><course>21.8</course><type>1</type></trkpt>
      <trkpt lat="40.66639984" lon="-4.95509177"><ele>2556</ele><speed>18.76</speed><time>2016-06-29T12:23:42Z</time><pdop>6.0</pdop><geoidheight>53.00</geoidheight><course>23.9</course><type>1</type></trkpt>
      <trkpt lat="40.66655249" lon="-4.95498499"><ele>2554</ele><speed>18.95</speed><time>2016-06-29T12:23:43Z</time><pdop>8.0</pdop><geoidheight>53.00</geoidheight><course>25.9</course><type>1</type></trkpt>
      <trkpt lat="40.66668261" lon="-4.9548754"><ele>2552</ele><speed>18.54</speed><time>2016-06-29T12:23:44Z</time><pdop>8.0</pdop><geoidheight>53.00</geoidheight><course>27.8</course><type>1</type></trkpt>
      <trkpt lat="40.66683966" lon="-4.95478317"><ele>2550</ele><speed>17.82</speed><time>2016-06-29T12:23:45Z</time><pdop>8.0</pdop><geoidheight>53.00</geoidheight><course>27.1</course><type>1</type></trkpt>
      <trkpt lat="40.66697008" lon="-4.95470235"><ele>2548</ele><speed>16.75</speed><time>2016-06-29T12:23:46Z</time><pdop>7.0</pdop><geoidheight>53.00</geoidheight><course>26.5</course><type>1</type></trkpt>
      <trkpt lat="40.66711593" lon="-4.95460655"><ele>2546</ele><speed>17.04</speed><time>2016-06-29T12:23:47Z</time><pdop>7.0</pdop><geoidheight>53.00</geoidheight><course>26.8</course><type>1</type></trkpt>
      <trkpt lat="40.66726793" lon="-4.9545474"><ele>2544</ele><speed>17.13</speed><time>2016-06-29T12:23:48Z</time><pdop>8.0</pdop><geoidheight>53.00</geoidheight><course>23.0</course><type>1</type></trkpt>
      <trkpt lat="40.66740691" lon="-4.95444736"><ele>2543</ele><speed>17.24</speed><time>2016-06-29T12:23:49Z</time><pdop>8.0</pdop><geoidheight>53.00</geoidheight><course>23.2</course><type>1</type></trkpt>
      <trkpt lat="40.66754547" lon="-4.95437907"><ele>2540</ele><speed>16.54</speed><time>2016-06-29T12:23:50Z</time><pdop>6.0</pdop><geoidheight>53.00</geoidheight><course>19.7</course><type>1</type></trkpt>
      <trkpt lat="40.66769801" lon="-4.95432279"><ele>2538</ele><speed>17.47</speed><time>2016-06-29T12:23:51Z</time><pdop>7.0</pdop><geoidheight>53.00</geoidheight><course>20.4</course><type>1</type></trkpt>
      <trkpt lat="40.66782726" lon="-4.9542584"><ele>2536</ele><speed>16.97</speed><time>2016-06-29T12:23:52Z</time><pdop>6.0</pdop><geoidheight>53.00</geoidheight><course>21.8</course><type>1</type></trkpt>
      <trkpt lat="40.66798408" lon="-4.954192"><ele>2535</ele><speed>17.95</speed><time>2016-06-29T12:23:53Z</time><pdop>7.0</pdop><geoidheight>53.00</geoidheight><course>21.8</course><type>1</type></trkpt>
      <trkpt lat="40.66814139" lon="-4.95410593"><ele>2532</ele><speed>18.51</speed><time>2016-06-29T12:23:54Z</time><pdop>8.0</pdop><geoidheight>53.00</geoidheight><course>22.1</course><type>1</type></trkpt>
      <trkpt lat="40.66828863" lon="-4.95402823"><ele>2530</ele><speed>18.44</speed><time>2016-06-29T12:23:55Z</time><pdop>9.0</pdop><geoidheight>53.00</geoidheight><course>22.6</course><type>1</type></trkpt>
      <trkpt lat="40.66841872" lon="-4.95395414"><ele>2524</ele><speed>18.19</speed><time>2016-06-29T12:23:56Z</time><pdop>6.0</pdop><geoidheight>53.00</geoidheight><course>20.2</course><type>1</type></trkpt>
      <trkpt lat="40.6685687" lon="-4.95387553"><ele>2522</ele><speed>18.10</speed><time>2016-06-29T12:23:57Z</time><pdop>6.0</pdop><geoidheight>53.00</geoidheight><course>20.2</course><type>1</type></trkpt>
      <trkpt lat="40.6687044" lon="-4.95380306"><ele>2520</ele><speed>17.68</speed><time>2016-06-29T12:23:58Z</time><pdop>7.0</pdop><geoidheight>53.00</geoidheight><course>20.7</course><type>1</type></trkpt>
      <trkpt lat="40.66888424" lon="-4.95372585"><ele>2519</ele><speed>18.72</speed><time>2016-06-29T12:23:59Z</time><pdop>7.0</pdop><geoidheight>53.00</geoidheight><course>19.5</course><type>1</type></trkpt>
      <trkpt lat="40.66900091" lon="-4.95364942"><ele>2523</ele><speed>17.63</speed><time>2016-06-29T12:24:00Z</time><pdop>7.0</pdop><geoidheight>53.00</geoidheight><course>21.4</course><type>1</type></trkpt>
      <trkpt lat="40.66917824" lon="-4.95356273"><ele>2520</ele><speed>18.96</speed><time>2016-06-29T12:24:01Z</time><pdop>7.0</pdop><geoidheight>53.00</geoidheight><course>22.2</course><type>1</type></trkpt>
      <trkpt lat="40.66934786" lon="-4.95346779"><ele>2522</ele><speed>19.68</speed><time>2016-06-29T12:24:02Z</time><pdop>8.0</pdop><geoidheight>53.00</geoidheight><course>22.5</course><type>1</type></trkpt>
      <trkpt lat="40.66965042" lon="-4.95333643"><ele>2515</ele><speed>19.22</speed><time>2016-06-29T12:24:04Z</time><pdop>6.0</pdop><geoidheight>53.00</geoidheight><course>19.3</course><type>1</type></trkpt>
      <trkpt lat="40.66978704" lon="-4.95324506"><ele>2512</ele><speed>18.80</speed><time>2016-06-29T12:24:05Z</time><pdop>6.0</pdop><geoidheight>53.00</geoidheight><course>20.7</course><type>1</type></trkpt>
      <trkpt lat="40.66996288" lon="-4.953179"><ele>2511</ele><speed>18.67</speed><time>2016-06-29T12:24:06Z</time><pdop>7.0</pdop><geoidheight>53.00</geoidheight><course>18.6</course><type>1</type></trkpt>
      <trkpt lat="40.67011634" lon="-4.95311077"><ele>2505</ele><speed>18.19</speed><time>2016-06-29T12:24:07Z</time><pdop>5.0</pdop><geoidheight>53.00</geoidheight><course>18.3</course><type>1</type></trkpt>
      <trkpt lat="40.67027351" lon="-4.95304515"><ele>2502</ele><speed>18.48</speed><time>2016-06-29T12:24:08Z</time><pdop>5.0</pdop><geoidheight>53.00</geoidheight><course>18.9</course><type>1</type></trkpt>
      <trkpt lat="40.67042991" lon="-4.95297247"><ele>2498</ele><speed>18.55</speed><time>2016-06-29T12:24:09Z</time><pdop>5.0</pdop><geoidheight>53.00</geoidheight><course>19.0</course><type>1</type></trkpt>
      <trkpt lat="40.6705849" lon="-4.95289729"><ele>2496</ele><speed>18.53</speed><time>2016-06-29T12:24:10Z</time><pdop>6.0</pdop><geoidheight>53.00</geoidheight><course>18.9</course><type>1</type></trkpt>
      <trkpt lat="40.67075385" lon="-4.95282941"><ele>2495</ele><speed>19.41</speed><time>2016-06-29T12:24:11Z</time><pdop>5.0</pdop><geoidheight>53.00</geoidheight><course>18.8</course><type>1</type></trkpt>
      <trkpt lat="40.67090682" lon="-4.95275881"><ele>2493</ele><speed>19.23</speed><time>2016-06-29T12:24:12Z</time><pdop>6.0</pdop><geoidheight>53.00</geoidheight><course>19.4</course><type>1</type></trkpt>
      <trkpt lat="40.6710651" lon="-4.9526669"><ele>2492</ele><speed>19.30</speed><time>2016-06-29T12:24:13Z</time><pdop>7.0</pdop><geoidheight>53.00</geoidheight><course>20.6</course><type>1</type></trkpt>
      <trkpt lat="40.67119695" lon="-4.95257488"><ele>2488</ele><speed>18.99</speed><time>2016-06-29T12:24:14Z</time><pdop>6.0</pdop><geoidheight>53.00</geoidheight><course>20.8</course><type>1</type></trkpt>
      <trkpt lat="40.67134063" lon="-4.952497"><ele>2486</ele><speed>18.51</speed><time>2016-06-29T12:24:15Z</time><pdop>5.0</pdop><geoidheight>53.00</geoidheight><course>21.2</course><type>1</type></trkpt>
      <trkpt lat="40.67149932" lon="-4.95242641"><ele>2485</ele><speed>18.59</speed><time>2016-06-29T12:24:16Z</time><pdop>6.0</pdop><geoidheight>53.00</geoidheight><course>21.3</course><type>1</type></trkpt>
      <trkpt lat="40.67164244" lon="-4.95233416"><ele>2482</ele><speed>19.16</speed><time>2016-06-29T12:24:17Z</time><pdop>5.0</pdop><geoidheight>53.00</geoidheight><course>25.2</course><type>1</type></trkpt>
      <trkpt lat="40.67179613" lon="-4.95221348"><ele>2479</ele><speed>19.54</speed><time>2016-06-29T12:24:18Z</time><pdop>4.0</pdop><geoidheight>53.00</geoidheight><course>28.2</course><type>1</type></trkpt>
      <trkpt lat="40.6719512" lon="-4.9521132"><ele>2477</ele><speed>19.29</speed><time>2016-06-29T12:24:19Z</time><pdop>4.0</pdop><geoidheight>53.00</geoidheight><course>26.9</course><type>1</type></trkpt>
      <trkpt lat="40.67210864" lon="-4.95201991"><ele>2475</ele><speed>18.90</speed><time>2016-06-29T12:24:20Z</time><pdop>4.0</pdop><geoidheight>53.00</geoidheight><course>24.3</course><type>1</type></trkpt>
      <trkpt lat="40.67226711" lon="-4.95192813"><ele>2472</ele><speed>18.99</speed><time>2016-06-29T12:24:21Z</time><pdop>4.0</pdop><geoidheight>53.00</geoidheight><course>22.2</course><type>1</type></trkpt>
      <trkpt lat="40.67242589" lon="-4.95183954"><ele>2471</ele><speed>19.27</speed><time>2016-06-29T12:24:22Z</time><pdop>4.0</pdop><geoidheight>53.00</geoidheight><course>24.1</course><type>1</type></trkpt>
      <trkpt lat="40.67257184" lon="-4.95173626"><ele>2471</ele><speed>19.01</speed><time>2016-06-29T12:24:23Z</time><pdop>4.0</pdop><geoidheight>53.00</geoidheight><course>28.2</course><type>1</type></trkpt>
      <trkpt lat="40.67272827" lon="-4.95163089"><ele>2470</ele><speed>19.05</speed><time>2016-06-29T12:24:24Z</time><pdop>5.0</pdop><geoidheight>53.00</geoidheight><course>28.2</course><type>1</type></trkpt>
      <trkpt lat="40.67286248" lon="-4.95152553"><ele>2469</ele><speed>18.18</speed><time>2016-06-29T12:24:25Z</time><pdop>6.0</pdop><geoidheight>53.00</geoidheight><course>29.8</course><type>1</type></trkpt>
      <trkpt lat="40.67300491" lon="-4.95142445"><ele>2469</ele><speed>18.14</speed><time>2016-06-29T12:24:26Z</time><pdop>7.0</pdop><geoidheight>53.00</geoidheight><course>30.3</course><type>1</type></trkpt>
      <trkpt lat="40.67314346" lon="-4.95127221"><ele>2469</ele><speed>18.77</speed><time>2016-06-29T12:24:27Z</time><pdop>9.0</pdop><geoidheight>53.00</geoidheight><course>33.9</course><type>1</type></trkpt>
      <trkpt lat="40.67329787" lon="-4.95115594"><ele>2468</ele><speed>18.97</speed><time>2016-06-29T12:24:28Z</time><pdop>8.0</pdop><geoidheight>53.00</geoidheight><course>33.8</course><type>1</type></trkpt>
      <trkpt lat="40.67342282" lon="-4.95105001"><ele>2467</ele><speed>18.50</speed><time>2016-06-29T12:24:29Z</time><pdop>7.0</pdop><geoidheight>53.00</geoidheight><course>37.8</course><type>1</type></trkpt>
      <trkpt lat="40.67354187" lon="-4.95091466"><ele>2466</ele><speed>18.39</speed><time>2016-06-29T12:24:30Z</time><pdop>7.0</pdop><geoidheight>53.00</geoidheight><course>38.6</course><type>1</type></trkpt>
      <trkpt lat="40.67367612" lon="-4.95077676"><ele>2466</ele><speed>18.37</speed><time>2016-06-29T12:24:31Z</time><pdop>7.0</pdop><geoidheight>53.00</geoidheight><course>37.6</course><type>1</type></trkpt>
      <trkpt lat="40.67379644" lon="-4.95067104"><ele>2466</ele><speed>17.26</speed><time>2016-06-29T12:24:32Z</time><pdop>7.0</pdop><geoidheight>53.00</geoidheight><course>35.9</course><type>1</type></trkpt>
      <trkpt lat="40.67387739" lon="-4.95051484"><ele>2466</ele><speed>16.50</speed><time>2016-06-29T12:24:33Z</time><pdop>8.0</pdop><geoidheight>53.00</geoidheight><course>40.2</course><type>1</type></trkpt>
      <trkpt lat="40.67400859" lon="-4.9504271"><ele>2465</ele><speed>16.22</speed><time>2016-06-29T12:24:34Z</time><pdop>5.0</pdop><geoidheight>53.00</geoidheight><course>36.2</course><type>1</type></trkpt>
      <trkpt lat="40.67412038" lon="-4.95033127"><ele>2464</ele><speed>16.17</speed><time>2016-06-29T12:24:35Z</time><pdop>5.0</pdop><geoidheight>53.00</geoidheight><course>36.5</course><type>1</type></trkpt>
      <trkpt lat="40.67424031" lon="-4.95020494"><ele>2463</ele><speed>16.83</speed><time>2016-06-29T12:24:36Z</time><pdop>6.0</pdop><geoidheight>53.00</geoidheight><course>37.8</course><type>1</type></trkpt>
      <trkpt lat="40.67437115" lon="-4.95006035"><ele>2462</ele><speed>18.20</speed><time>2016-06-29T12:24:37Z</time><pdop>6.0</pdop><geoidheight>53.00</geoidheight><course>38.7</course><type>1</type></trkpt>
      <trkpt lat="40.67448122" lon="-4.94993015"><ele>2461</ele><speed>17.94</speed><time>2016-06-29T12:24:38Z</time><pdop>8.0</pdop><geoidheight>53.00</geoidheight><course>39.6</course><type>1</type></trkpt>
      <trkpt lat="40.67461018" lon="-4.94980768"><ele>2462</ele><speed>17.68</speed><time>2016-06-29T12:24:39Z</time><pdop>8.0</pdop><geoidheight>53.00</geoidheight><course>37.8</course><type>1</type></trkpt>
      <trkpt lat="40.67475912" lon="-4.9497377"><ele>2463</ele><speed>17.12</speed><time>2016-06-29T12:24:40Z</time><pdop>6.0</pdop><geoidheight>53.00</geoidheight><course>32.5</course><type>1</type></trkpt>
      <trkpt lat="40.67488392" lon="-4.94964237"><ele>2463</ele><speed>16.29</speed><time>2016-06-29T12:24:41Z</time><pdop>4.0</pdop><geoidheight>53.00</geoidheight><course>31.2</course><type>1</type></trkpt>
      <trkpt lat="40.67500004" lon="-4.94950305"><ele>2465</ele><speed>16.22</speed><time>2016-06-29T12:24:42Z</time><pdop>4.0</pdop><geoidheight>53.00</geoidheight><course>30.8</course><type>1</type></trkpt>
      <trkpt lat="40.67511201" lon="-4.9494038"><ele>2465</ele><speed>16.42</speed><time>2016-06-29T12:24:43Z</time><pdop>4.0</pdop><geoidheight>53.00</geoidheight><course>29.8</course><type>1</type></trkpt>
      <trkpt lat="40.67525039" lon="-4.94930748"><ele>2465</ele><speed>16.75</speed><time>2016-06-29T12:24:44Z</time><pdop>4.0</pdop><geoidheight>53.00</geoidheight><course>28.5</course><type>1</type></trkpt>
      <trkpt lat="40.67539498" lon="-4.94921289"><ele>2465</ele><speed>16.99</speed><time>2016-06-29T12:24:45Z</time><pdop>3.0</pdop><geoidheight>53.00</geoidheight><course>29.0</course><type>1</type></trkpt>
      <trkpt lat="40.67551799" lon="-4.9491079"><ele>2466</ele><speed>16.75</speed><time>2016-06-29T12:24:46Z</time><pdop>3.0</pdop><geoidheight>53.00</geoidheight><course>31.6</course><type>1</type></trkpt>
      <trkpt lat="40.67564111" lon="-4.94899983"><ele>2469</ele><speed>16.18</speed><time>2016-06-29T12:24:47Z</time><pdop>3.0</pdop><geoidheight>53.00</geoidheight><course>33.6</course><type>1</type></trkpt>
      <trkpt lat="40.67576751" lon="-4.94889268"><ele>2469</ele><speed>16.08</speed><time>2016-06-29T12:24:48Z</time><pdop>3.0</pdop><geoidheight>53.00</geoidheight><course>33.1</course><type>1</type></trkpt>
      <trkpt lat="40.67588818" lon="-4.94878733"><ele>2467</ele><speed>16.53</speed><time>2016-06-29T12:24:49Z</time><pdop>3.0</pdop><geoidheight>53.00</geoidheight><course>33.0</course><type>1</type></trkpt>
      <trkpt lat="40.6760173" lon="-4.94867077"><ele>2466</ele><speed>17.37</speed><time>2016-06-29T12:24:50Z</time><pdop>3.0</pdop><geoidheight>53.00</geoidheight><course>34.1</course><type>1</type></trkpt>
      <trkpt lat="40.67614414" lon="-4.94855835"><ele>2464</ele><speed>17.49</speed><time>2016-06-29T12:24:51Z</time><pdop>3.0</pdop><geoidheight>53.00</geoidheight><course>33.2</course><type>1</type></trkpt>
      <trkpt lat="40.67628314" lon="-4.94846494"><ele>2462</ele><speed>17.48</speed><time>2016-06-29T12:24:52Z</time><pdop>3.0</pdop><geoidheight>53.00</geoidheight><course>30.8</course><type>1</type></trkpt>
      <trkpt lat="40.67642492" lon="-4.94835896"><ele>2460</ele><speed>17.82</speed><time>2016-06-29T12:24:53Z</time><pdop>4.0</pdop><geoidheight>53.00</geoidheight><course>29.7</course><type>1</type></trkpt>
      <trkpt lat="40.67656825" lon="-4.94824418"><ele>2459</ele><speed>18.47</speed><time>2016-06-29T12:24:54Z</time><pdop>4.0</pdop><geoidheight>53.00</geoidheight><course>30.4</course><type>1</type></trkpt>
      <trkpt lat="40.67673358" lon="-4.94812766"><ele>2459</ele><speed>19.71</speed><time>2016-06-29T12:24:55Z</time><pdop>5.0</pdop><geoidheight>53.00</geoidheight><course>29.8</course><type>1</type></trkpt>
      <trkpt lat="40.67687719" lon="-4.94799047"><ele>2458</ele><speed>19.58</speed><time>2016-06-29T12:24:56Z</time><pdop>4.0</pdop><geoidheight>53.00</geoidheight><course>32.4</course><type>1</type></trkpt>
      <trkpt lat="40.67701096" lon="-4.94785999"><ele>2458</ele><speed>18.52</speed><time>2016-06-29T12:24:57Z</time><pdop>4.0</pdop><geoidheight>53.00</geoidheight><course>36.2</course><type>1</type></trkpt>
      <trkpt lat="40.67713396" lon="-4.94770951"><ele>2458</ele><speed>17.91</speed><time>2016-06-29T12:24:58Z</time><pdop>9.0</pdop><geoidheight>53.00</geoidheight><course>39.4</course><type>1</type></trkpt>
      <trkpt lat="40.67738349" lon="-4.94743257"><ele>2457</ele><speed>18.53</speed><time>2016-06-29T12:25:00Z</time><pdop>9.0</pdop><geoidheight>53.00</geoidheight><course>41.8</course><type>1</type></trkpt>
      <trkpt lat="40.67750971" lon="-4.94729135"><ele>2456</ele><speed>18.85</speed><time>2016-06-29T12:25:01Z</time><pdop>9.0</pdop><geoidheight>53.00</geoidheight><course>43.8</course><type>1</type></trkpt>
      <trkpt lat="40.6776254" lon="-4.947129"><ele>2454</ele><speed>19.30</speed><time>2016-06-29T12:25:02Z</time><pdop>9.0</pdop><geoidheight>53.00</geoidheight><course>45.7</course><type>1</type></trkpt>
      <trkpt lat="40.67774251" lon="-4.9469531"><ele>2453</ele><speed>19.44</speed><time>2016-06-29T12:25:03Z</time><pdop>9.0</pdop><geoidheight>53.00</geoidheight><course>47.5</course><type>1</type></trkpt>
      <trkpt lat="40.67783283" lon="-4.94677084"><ele>2450</ele><speed>19.03</speed><time>2016-06-29T12:25:04Z</time><pdop>9.0</pdop><geoidheight>53.00</geoidheight><course>50.5</course><type>1</type></trkpt>
      <trkpt lat="40.67792888" lon="-4.94659555"><ele>2449</ele><speed>19.00</speed><time>2016-06-29T12:25:05Z</time><pdop>9.0</pdop><geoidheight>53.00</geoidheight><course>50.8</course><type>1</type></trkpt>
      <trkpt lat="40.6780377" lon="-4.94641847"><ele>2447</ele><speed>19.39</speed><time>2016-06-29T12:25:06Z</time><pdop>9.0</pdop><geoidheight>53.00</geoidheight><course>49.4</course><type>1</type></trkpt>
      <trkpt lat="40.67815284" lon="-4.94624897"><ele>2445</ele><speed>19.78</speed><time>2016-06-29T12:25:07Z</time><pdop>9.0</pdop><geoidheight>53.00</geoidheight><course>47.8</course><type>1</type></trkpt>
      <trkpt lat="40.67827502" lon="-4.94608771"><ele>2445</ele><speed>19.42</speed><time>2016-06-29T12:25:08Z</time><pdop>9.0</pdop><geoidheight>53.00</geoidheight><course>46.7</course><type>1</type></trkpt>
      <trkpt lat="40.67839931" lon="-4.94593775"><ele>2444</ele><speed>18.59</speed><time>2016-06-29T12:25:09Z</time><pdop>9.0</pdop><geoidheight>53.00</geoidheight><course>44.4</course><type>1</type></trkpt>
      <trkpt lat="40.67852178" lon="-4.945798"><ele>2444</ele><speed>17.64</speed><time>2016-06-29T12:25:10Z</time><pdop>9.0</pdop><geoidheight>53.00</geoidheight><course>41.2</course><type>1</type></trkpt>
      <trkpt lat="40.67875103" lon="-4.94552617"><ele>2441</ele><speed>17.77</speed><time>2016-06-29T12:25:12Z</time><pdop>9.0</pdop><geoidheight>53.00</geoidheight><course>40.6</course><type>1</type></trkpt>
      <trkpt lat="40.67887797" lon="-4.94538891"><ele>2439</ele><speed>17.82</speed><time>2016-06-29T12:25:13Z</time><pdop>9.0</pdop><geoidheight>53.00</geoidheight><course>40.0</course><type>1</type></trkpt>
      <trkpt lat="40.6790092" lon="-4.94525668"><ele>2437</ele><speed>17.80</speed><time>2016-06-29T12:25:14Z</time><pdop>9.0</pdop><geoidheight>53.00</geoidheight><course>37.9</course><type>1</type></trkpt>
      <trkpt lat="40.67914528" lon="-4.94513568"><ele>2435</ele><speed>18.02</speed><time>2016-06-29T12:25:15Z</time><pdop>9.0</pdop><geoidheight>53.00</geoidheight><course>37.2</course><type>1</type></trkpt>
      <trkpt lat="40.67927285" lon="-4.94499835"><ele>2432</ele><speed>18.50</speed><time>2016-06-29T12:25:16Z</time><pdop>9.0</pdop><geoidheight>53.00</geoidheight><course>39.2</course><type>1</type></trkpt>
      <trkpt lat="40.67939902" lon="-4.94485073"><ele>2430</ele><speed>19.04</speed><time>2016-06-29T12:25:17Z</time><pdop>9.0</pdop><geoidheight>53.00</geoidheight><course>40.4</course><type>1</type></trkpt>
      <trkpt lat="40.67952993" lon="-4.94470802"><ele>2427</ele><speed>19.39</speed><time>2016-06-29T12:25:18Z</time><pdop>9.0</pdop><geoidheight>53.00</geoidheight><course>39.3</course><type>1</type></trkpt>
      <trkpt lat="40.67966742" lon="-4.94456743"><ele>2422</ele><speed>19.75</speed><time>2016-06-29T12:25:19Z</time><pdop>9.0</pdop><geoidheight>53.00</geoidheight><course>37.0</course><type>1</type></trkpt>
      <trkpt lat="40.67981086" lon="-4.94443545"><ele>2417</ele><speed>20.28</speed><time>2016-06-29T12:25:20Z</time><pdop>9.0</pdop><geoidheight>53.00</geoidheight><course>34.8</course><type>1</type></trkpt>
      <trkpt lat="40.67996316" lon="-4.94429628"><ele>2414</ele><speed>20.88</speed><time>2016-06-29T12:25:21Z</time><pdop>9.0</pdop><geoidheight>53.00</geoidheight><course>34.5</course><type>1</type></trkpt>
      <trkpt lat="40.68011413" lon="-4.94414892"><ele>2410</ele><speed>21.16</speed><time>2016-06-29T12:25:22Z</time><pdop>9.0</pdop><geoidheight>53.00</geoidheight><course>36.4</course><type>1</type></trkpt>
      <trkpt lat="40.68026305" lon="-4.94400399"><ele>2408</ele><speed>20.83</speed><time>2016-06-29T12:25:23Z</time><pdop>9.0</pdop><geoidheight>53.00</geoidheight><course>37.4</course><type>1</type></trkpt>
      <trkpt lat="40.68040655" lon="-4.94385755"><ele>2406</ele><speed>20.49</speed><time>2016-06-29T12:25:24Z</time><pdop>9.0</pdop><geoidheight>53.00</geoidheight><course>37.8</course><type>1</type></trkpt>
      <trkpt lat="40.6805423" lon="-4.94371867"><ele>2402</ele><speed>19.87</speed><time>2016-06-29T12:25:25Z</time><pdop>9.0</pdop><geoidheight>53.00</geoidheight><course>37.2</course><type>1</type></trkpt>
      <trkpt lat="40.68068109" lon="-4.94358098"><ele>2399</ele><speed>19.53</speed><time>2016-06-29T12:25:26Z</time><pdop>9.0</pdop><geoidheight>53.00</geoidheight><course>36.9</course><type>1</type></trkpt>
      <trkpt lat="40.68081795" lon="-4.94344325"><ele>2395</ele><speed>19.70</speed><time>2016-06-29T12:25:27Z</time><pdop>9.0</pdop><geoidheight>53.00</geoidheight><course>37.8</course><type>1</type></trkpt>
      <trkpt lat="40.68096083" lon="-4.94329627"><ele>2391</ele><speed>20.25</speed><time>2016-06-29T12:25:28Z</time><pdop>3.0</pdop><geoidheight>53.00</geoidheight><course>39.7</course><type>1</type></trkpt>
      <trkpt lat="40.68110325" lon="-4.94313572"><ele>2386</ele><speed>20.83</speed><time>2016-06-29T12:25:29Z</time><pdop>3.0</pdop><geoidheight>53.00</geoidheight><course>40.4</course><type>1</type></trkpt>
      <trkpt lat="40.68125276" lon="-4.9429792"><ele>2382</ele><speed>21.33</speed><time>2016-06-29T12:25:30Z</time><pdop>3.0</pdop><geoidheight>53.00</geoidheight><course>39.3</course><type>1</type></trkpt>
      <trkpt lat="40.68140474" lon="-4.94282767"><ele>2379</ele><speed>21.41</speed><time>2016-06-29T12:25:31Z</time><pdop>3.0</pdop><geoidheight>53.00</geoidheight><course>37.3</course><type>1</type></trkpt>
      <trkpt lat="40.68155827" lon="-4.94268154"><ele>2375</ele><speed>21.40</speed><time>2016-06-29T12:25:32Z</time><pdop>3.0</pdop><geoidheight>53.00</geoidheight><course>36.9</course><type>1</type></trkpt>
      <trkpt lat="40.681704" lon="-4.94253244"><ele>2371</ele><speed>21.01</speed><time>2016-06-29T12:25:33Z</time><pdop>3.0</pdop><geoidheight>53.00</geoidheight><course>38.0</course><type>1</type></trkpt>
      <trkpt lat="40.68184557" lon="-4.94238502"><ele>2368</ele><speed>20.72</speed><time>2016-06-29T12:25:34Z</time><pdop>3.0</pdop><geoidheight>53.00</geoidheight><course>39.2</course><type>1</type></trkpt>
      <trkpt lat="40.68198374" lon="-4.94223302"><ele>2364</ele><speed>20.74</speed><time>2016-06-29T12:25:35Z</time><pdop>3.0</pdop><geoidheight>53.00</geoidheight><course>39.2</course><type>1</type></trkpt>
      <trkpt lat="40.68212188" lon="-4.94208204"><ele>2360</ele><speed>20.32</speed><time>2016-06-29T12:25:36Z</time><pdop>3.0</pdop><geoidheight>53.00</geoidheight><course>38.9</course><type>1</type></trkpt>
      <trkpt lat="40.68226225" lon="-4.94193566"><ele>2355</ele><speed>20.05</speed><time>2016-06-29T12:25:37Z</time><pdop>3.0</pdop><geoidheight>53.00</geoidheight><course>39.3</course><type>1</type></trkpt>
      <trkpt lat="40.68239792" lon="-4.94178339"><ele>2350</ele><speed>20.30</speed><time>2016-06-29T12:25:38Z</time><pdop>3.0</pdop><geoidheight>53.00</geoidheight><course>39.6</course><type>1</type></trkpt>
      <trkpt lat="40.68253203" lon="-4.94163302"><ele>2343</ele><speed>20.98</speed><time>2016-06-29T12:25:39Z</time><pdop>4.0</pdop><geoidheight>53.00</geoidheight><course>39.5</course><type>1</type></trkpt>
      <trkpt lat="40.68268793" lon="-4.9414713"><ele>2338</ele><speed>22.37</speed><time>2016-06-29T12:25:40Z</time><pdop>3.0</pdop><geoidheight>53.00</geoidheight><course>37.9</course><type>1</type></trkpt>
      <trkpt lat="40.6828497" lon="-4.94130767"><ele>2335</ele><speed>22.97</speed><time>2016-06-29T12:25:41Z</time><pdop>3.0</pdop><geoidheight>53.00</geoidheight><course>39.1</course><type>1</type></trkpt>
      <trkpt lat="40.68300771" lon="-4.94113554"><ele>2332</ele><speed>22.83</speed><time>2016-06-29T12:25:42Z</time><pdop>4.0</pdop><geoidheight>53.00</geoidheight><course>39.4</course><type>1</type></trkpt>
      <trkpt lat="40.68316276" lon="-4.94096917"><ele>2332</ele><speed>22.60</speed><time>2016-06-29T12:25:43Z</time><pdop>5.0</pdop><geoidheight>53.00</geoidheight><course>39.3</course><type>1</type></trkpt>
      <trkpt lat="40.6833105" lon="-4.94079777"><ele>2333</ele><speed>22.29</speed><time>2016-06-29T12:25:44Z</time><pdop>7.0</pdop><geoidheight>53.00</geoidheight><course>40.0</course><type>1</type></trkpt>
      <trkpt lat="40.68342961" lon="-4.94058266"><ele>2331</ele><speed>22.15</speed><time>2016-06-29T12:25:45Z</time><pdop>6.0</pdop><geoidheight>53.00</geoidheight><course>46.8</course><type>1</type></trkpt>
      <trkpt lat="40.68358083" lon="-4.94038874"><ele>2331</ele><speed>22.32</speed><time>2016-06-29T12:25:46Z</time><pdop>7.0</pdop><geoidheight>53.00</geoidheight><course>46.4</course><type>1</type></trkpt>
      <trkpt lat="40.68372492" lon="-4.94021574"><ele>2331</ele><speed>22.12</speed><time>2016-06-29T12:25:47Z</time><pdop>8.0</pdop><geoidheight>53.00</geoidheight><course>45.3</course><type>1</type></trkpt>
      <trkpt lat="40.68388432" lon="-4.94005748"><ele>2329</ele><speed>22.13</speed><time>2016-06-29T12:25:48Z</time><pdop>9.0</pdop><geoidheight>53.00</geoidheight><course>43.7</course><type>1</type></trkpt>
      <trkpt lat="40.68400568" lon="-4.93989156"><ele>2327</ele><speed>21.87</speed><time>2016-06-29T12:25:49Z</time><pdop>9.0</pdop><geoidheight>53.00</geoidheight><course>43.8</course><type>1</type></trkpt>
      <trkpt lat="40.68414598" lon="-4.93971122"><ele>2324</ele><speed>21.96</speed><time>2016-06-29T12:25:50Z</time><pdop>7.0</pdop><geoidheight>53.00</geoidheight><course>43.2</course><type>1</type></trkpt>
      <trkpt lat="40.68428428" lon="-4.93952922"><ele>2323</ele><speed>21.69</speed><time>2016-06-29T12:25:51Z</time><pdop>7.0</pdop><geoidheight>53.00</geoidheight><course>43.5</course><type>1</type></trkpt>
      <trkpt lat="40.68442631" lon="-4.93935307"><ele>2323</ele><speed>21.26</speed><time>2016-06-29T12:25:52Z</time><pdop>8.0</pdop><geoidheight>53.00</geoidheight><course>43.7</course><type>1</type></trkpt>
      <trkpt lat="40.6845656" lon="-4.93923767"><ele>2322</ele><speed>20.22</speed><time>2016-06-29T12:25:53Z</time><pdop>10.0</pdop><geoidheight>53.00</geoidheight><course>39.6</course><type>1</type></trkpt>
      <trkpt lat="40.68484816" lon="-4.93893141"><ele>2321</ele><speed>20.41</speed><time>2016-06-29T12:25:55Z</time><pdop>13.0</pdop><geoidheight>53.00</geoidheight><course>38.7</course><type>1</type></trkpt>
      <trkpt lat="40.68514286" lon="-4.93865979"><ele>2317</ele><speed>20.48</speed><time>2016-06-29T12:25:57Z</time><pdop>15.0</pdop><geoidheight>53.00</geoidheight><course>37.2</course><type>1</type></trkpt>
      <trkpt lat="40.68552637" lon="-4.93842156"><ele>2316</ele><speed>21.59</speed><time>2016-06-29T12:25:59Z</time><pdop>16.0</pdop><geoidheight>53.00</geoidheight><course>33.4</course><type>1</type></trkpt>
      <trkpt lat="40.68585989" lon="-4.93814888"><ele>2315</ele><speed>21.15</speed><time>2016-06-29T12:26:01Z</time><pdop>20.0</pdop><geoidheight>53.00</geoidheight><course>33.1</course><type>1</type></trkpt>
      <trkpt lat="40.68623208" lon="-4.93794039"><ele>2313</ele><speed>21.15</speed><time>2016-06-29T12:26:03Z</time><pdop>20.0</pdop><geoidheight>53.00</geoidheight><course>28.1</course><type>1</type></trkpt>
      <trkpt lat="40.68655029" lon="-4.93755439"><ele>2303</ele><speed>20.78</speed><time>2016-06-29T12:26:06Z</time><pdop>11.0</pdop><geoidheight>53.00</geoidheight><course>29.3</course><type>1</type></trkpt>
      <trkpt lat="40.68681165" lon="-4.93730115"><ele>2297</ele><speed>19.62</speed><time>2016-06-29T12:26:08Z</time><pdop>8.0</pdop><geoidheight>53.00</geoidheight><course>32.7</course><type>1</type></trkpt>
      <trkpt lat="40.68709819" lon="-4.9370707"><ele>2293</ele><speed>19.68</speed><time>2016-06-29T12:26:10Z</time><pdop>9.0</pdop><geoidheight>53.00</geoidheight><course>30.5</course><type>1</type></trkpt>
      <trkpt lat="40.68736868" lon="-4.9368293"><ele>2290</ele><speed>19.16</speed><time>2016-06-29T12:26:12Z</time><pdop>10.0</pdop><geoidheight>53.00</geoidheight><course>31.1</course><type>1</type></trkpt>
      <trkpt lat="40.68750192" lon="-4.93670392"><ele>2314</ele><speed>19.48</speed><time>2016-06-29T12:26:13Z</time><pdop>7.0</pdop><geoidheight>53.00</geoidheight><course>30.4</course><type>1</type></trkpt>
      <trkpt lat="40.68763117" lon="-4.93657416"><ele>2305</ele><speed>19.77</speed><time>2016-06-29T12:26:14Z</time><pdop>7.0</pdop><geoidheight>53.00</geoidheight><course>31.0</course><type>1</type></trkpt>
      <trkpt lat="40.68778131" lon="-4.93645646"><ele>2299</ele><speed>19.59</speed><time>2016-06-29T12:26:15Z</time><pdop>7.0</pdop><geoidheight>53.00</geoidheight><course>31.0</course><type>1</type></trkpt>
      <trkpt lat="40.68791774" lon="-4.93634364"><ele>2295</ele><speed>18.87</speed><time>2016-06-29T12:26:16Z</time><pdop>9.0</pdop><geoidheight>53.00</geoidheight><course>31.4</course><type>1</type></trkpt>
      <trkpt lat="40.68824264" lon="-4.93615135"><ele>2287</ele><speed>19.27</speed><time>2016-06-29T12:26:18Z</time><pdop>11.0</pdop><geoidheight>53.00</geoidheight><course>27.4</course><type>1</type></trkpt>
      <trkpt lat="40.68853088" lon="-4.93592054"><ele>2280</ele><speed>19.25</speed><time>2016-06-29T12:26:20Z</time><pdop>10.0</pdop><geoidheight>53.00</geoidheight><course>29.6</course><type>1</type></trkpt>
      <trkpt lat="40.68880359" lon="-4.93566927"><ele>2275</ele><speed>20.11</speed><time>2016-06-29T12:26:22Z</time><pdop>10.0</pdop><geoidheight>53.00</geoidheight><course>31.5</course><type>1</type></trkpt>
      <trkpt lat="40.68914757" lon="-4.93543989"><ele>2272</ele><speed>20.95</speed><time>2016-06-29T12:26:24Z</time><pdop>10.0</pdop><geoidheight>53.00</geoidheight><course>28.1</course><type>1</type></trkpt>
      <trkpt lat="40.68947234" lon="-4.93526119"><ele>2267</ele><speed>20.01</speed><time>2016-06-29T12:26:26Z</time><pdop>7.0</pdop><geoidheight>53.00</geoidheight><course>26.7</course><type>1</type></trkpt>
      <trkpt lat="40.68962331" lon="-4.93514363"><ele>2263</ele><speed>20.10</speed><time>2016-06-29T12:26:27Z</time><pdop>6.0</pdop><geoidheight>53.00</geoidheight><course>28.1</course><type>1</type></trkpt>
      <trkpt lat="40.68977073" lon="-4.93501915"><ele>2262</ele><speed>19.85</speed><time>2016-06-29T12:26:28Z</time><pdop>7.0</pdop><geoidheight>53.00</geoidheight><course>29.1</course><type>1</type></trkpt>
      <trkpt lat="40.68994718" lon="-4.93492774"><ele>2261</ele><speed>20.05</speed><time>2016-06-29T12:26:29Z</time><pdop>8.0</pdop><geoidheight>53.00</geoidheight><course>27.3</course><type>1</type></trkpt>
      <trkpt lat="40.69024599" lon="-4.93470431"><ele>2258</ele><speed>19.69</speed><time>2016-06-29T12:26:31Z</time><pdop>11.0</pdop><geoidheight>53.00</geoidheight><course>27.6</course><type>1</type></trkpt>
      <trkpt lat="40.690574" lon="-4.93451651"><ele>2255</ele><speed>20.79</speed><time>2016-06-29T12:26:33Z</time><pdop>10.0</pdop><geoidheight>53.00</geoidheight><course>25.5</course><type>1</type></trkpt>
      <trkpt lat="40.69074892" lon="-4.93441"><ele>2252</ele><speed>20.67</speed><time>2016-06-29T12:26:34Z</time><pdop>10.0</pdop><geoidheight>53.00</geoidheight><course>25.5</course><type>1</type></trkpt>
      <trkpt lat="40.69106296" lon="-4.93420792"><ele>2515</ele><speed>19.30</speed><time>2016-06-29T12:26:36Z</time><pdop>11.0</pdop><geoidheight>53.00</geoidheight><course>27.0</course><type>1</type></trkpt>
      <trkpt lat="40.69133319" lon="-4.93396122"><ele>2352</ele><speed>18.83</speed><time>2016-06-29T12:26:38Z</time><pdop>9.0</pdop><geoidheight>53.00</geoidheight><course>36.0</course><type>1</type></trkpt>
      <trkpt lat="40.69143414" lon="-4.93366036"><ele>2297</ele><speed>16.77</speed><time>2016-06-29T12:26:40Z</time><pdop>6.0</pdop><geoidheight>53.00</geoidheight><course>61.4</course><type>1</type></trkpt>
      <trkpt lat="40.69151458" lon="-4.93346339"><ele>2283</ele><speed>18.51</speed><time>2016-06-29T12:26:41Z</time><pdop>6.0</pdop><geoidheight>53.00</geoidheight><course>66.8</course><type>1</type></trkpt>
      <trkpt lat="40.69155687" lon="-4.93324823"><ele>2277</ele><speed>19.51</speed><time>2016-06-29T12:26:42Z</time><pdop>5.0</pdop><geoidheight>53.00</geoidheight><course>73.9</course><type>1</type></trkpt>
      <trkpt lat="40.69158242" lon="-4.93301531"><ele>2269</ele><speed>18.52</speed><time>2016-06-29T12:26:43Z</time><pdop>5.0</pdop><geoidheight>53.00</geoidheight><course>81.4</course><type>1</type></trkpt>
      <trkpt lat="40.69158172" lon="-4.93281288"><ele>2262</ele><speed>16.96</speed><time>2016-06-29T12:26:44Z</time><pdop>4.0</pdop><geoidheight>53.00</geoidheight><course>87.0</course><type>1</type></trkpt>
      <trkpt lat="40.69157877" lon="-4.93262856"><ele>2259</ele><speed>16.07</speed><time>2016-06-29T12:26:45Z</time><pdop>4.0</pdop><geoidheight>53.00</geoidheight><course>90.3</course><type>1</type></trkpt>
      <trkpt lat="40.69158003" lon="-4.93243888"><ele>2259</ele><speed>15.77</speed><time>2016-06-29T12:26:46Z</time><pdop>4.0</pdop><geoidheight>53.00</geoidheight><course>90.7</course><type>1</type></trkpt>
      <trkpt lat="40.69157086" lon="-4.93227086"><ele>2257</ele><speed>14.49</speed><time>2016-06-29T12:26:47Z</time><pdop>3.0</pdop><geoidheight>53.00</geoidheight><course>95.0</course><type>1</type></trkpt>
      <trkpt lat="40.69154109" lon="-4.93211639"><ele>2252</ele><speed>13.23</speed><time>2016-06-29T12:26:48Z</time><pdop>3.0</pdop><geoidheight>53.00</geoidheight><course>103.1</course><type>1</type></trkpt>
      <trkpt lat="40.69151155" lon="-4.93199312"><ele>2250</ele><speed>11.55</speed><time>2016-06-29T12:26:49Z</time><pdop>3.0</pdop><geoidheight>53.00</geoidheight><course>113.2</course><type>1</type></trkpt>
      <trkpt lat="40.69147455" lon="-4.93188641"><ele>2249</ele><speed>10.13</speed><time>2016-06-29T12:26:50Z</time><pdop>4.0</pdop><geoidheight>53.00</geoidheight><course>118.7</course><type>1</type></trkpt>
      <trkpt lat="40.69138459" lon="-4.93181439"><ele>2248</ele><speed>5.57</speed><time>2016-06-29T12:26:52Z</time><pdop>4.0</pdop><geoidheight>53.00</geoidheight><course>151.6</course><type>1</type></trkpt>
      <trkpt lat="40.69133021" lon="-4.9317118"><ele>2251</ele><speed>4.35</speed><time>2016-06-29T12:26:55Z</time><pdop>4.0</pdop><geoidheight>53.00</geoidheight><course>122.1</course><type>1</type></trkpt>
      <trkpt lat="40.69139957" lon="-4.93171343"><ele>2246</ele><speed>6.24</speed><time>2016-06-29T12:27:00Z</time><pdop>3.0</pdop><geoidheight>53.00</geoidheight><course>335.3</course><type>1</type></trkpt>
      <trkpt lat="40.6915387" lon="-4.93174253"><ele>2245</ele><speed>7.96</speed><time>2016-06-29T12:27:02Z</time><pdop>4.0</pdop><geoidheight>53.00</geoidheight><course>350.9</course><type>1</type></trkpt>
      <trkpt lat="40.6916161" lon="-4.93171758"><ele>2244</ele><speed>8.00</speed><time>2016-06-29T12:27:03Z</time><pdop>4.0</pdop><geoidheight>53.00</geoidheight><course>4.2</course><type>1</type></trkpt>
      <trkpt lat="40.69175765" lon="-4.93164796"><ele>2245</ele><speed>10.55</speed><time>2016-06-29T12:27:04Z</time><pdop>6.0</pdop><geoidheight>53.00</geoidheight><course>15.1</course><type>1</type></trkpt>
      <trkpt lat="40.69193945" lon="-4.93150705"><ele>2247</ele><speed>15.65</speed><time>2016-06-29T12:27:05Z</time><pdop>6.0</pdop><geoidheight>53.00</geoidheight><course>25.1</course><type>1</type></trkpt>
      <trkpt lat="40.69203059" lon="-4.93132958"><ele>2247</ele><speed>16.27</speed><time>2016-06-29T12:27:06Z</time><pdop>7.0</pdop><geoidheight>53.00</geoidheight><course>37.4</course><type>1</type></trkpt>
      <trkpt lat="40.6920552" lon="-4.93110189"><ele>2248</ele><speed>16.60</speed><time>2016-06-29T12:27:07Z</time><pdop>7.0</pdop><geoidheight>53.00</geoidheight><course>61.5</course><type>1</type></trkpt>
      <trkpt lat="40.69211794" lon="-4.9308736"><ele>2247</ele><speed>18.08</speed><time>2016-06-29T12:27:08Z</time><pdop>6.0</pdop><geoidheight>53.00</geoidheight><course>70.6</course><type>1</type></trkpt>
      <trkpt lat="40.69216167" lon="-4.93063007"><ele>2247</ele><speed>18.86</speed><time>2016-06-29T12:27:09Z</time><pdop>6.0</pdop><geoidheight>53.00</geoidheight><course>78.3</course><type>1</type></trkpt>
      <trkpt lat="40.69222965" lon="-4.9303875"><ele>2247</ele><speed>19.03</speed><time>2016-06-29T12:27:10Z</time><pdop>5.0</pdop><geoidheight>53.00</geoidheight><course>81.1</course><type>1</type></trkpt>
      <trkpt lat="40.69223829" lon="-4.93013686"><ele>2247</ele><speed>19.73</speed><time>2016-06-29T12:27:11Z</time><pdop>6.0</pdop><geoidheight>53.00</geoidheight><course>86.1</course><type>1</type></trkpt>
      <trkpt lat="40.69225327" lon="-4.92992286"><ele>2249</ele><speed>18.50</speed><time>2016-06-29T12:27:12Z</time><pdop>7.0</pdop><geoidheight>53.00</geoidheight><course>86.0</course><type>1</type></trkpt>
      <trkpt lat="40.69220127" lon="-4.929766"><ele>2249</ele><speed>16.62</speed><time>2016-06-29T12:27:13Z</time><pdop>7.0</pdop><geoidheight>53.00</geoidheight><course>96.2</course><type>1</type></trkpt>
      <trkpt lat="40.69212031" lon="-4.92957689"><ele>2252</ele><speed>10.47</speed><time>2016-06-29T12:27:15Z</time><pdop>4.0</pdop><geoidheight>53.00</geoidheight><course>109.8</course><type>1</type></trkpt>
      <trkpt lat="40.69208206" lon="-4.92946945"><ele>2254</ele><speed>10.42</speed><time>2016-06-29T12:27:16Z</time><pdop>4.0</pdop><geoidheight>53.00</geoidheight><course>113.8</course><type>1</type></trkpt>
      <trkpt lat="40.69203616" lon="-4.9293513"><ele>2255</ele><speed>10.77</speed><time>2016-06-29T12:27:17Z</time><pdop>4.0</pdop><geoidheight>53.00</geoidheight><course>118.0</course><type>1</type></trkpt>
      <trkpt lat="40.69198733" lon="-4.92923497"><ele>2256</ele><speed>10.11</speed><time>2016-06-29T12:27:18Z</time><pdop>4.0</pdop><geoidheight>53.00</geoidheight><course>122.9</course><type>1</type></trkpt>
      <trkpt lat="40.69194035" lon="-4.92911644"><ele>2254</ele><speed>6.11</speed><time>2016-06-29T12:27:20Z</time><pdop>4.0</pdop><geoidheight>53.00</geoidheight><course>127.0</course><type>1</type></trkpt>
      <trkpt lat="40.69206427" lon="-4.92917495"><ele>2251</ele><speed>7.29</speed><time>2016-06-29T12:27:23Z</time><pdop>4.0</pdop><geoidheight>53.00</geoidheight><course>341.3</course><type>1</type></trkpt>
      <trkpt lat="40.69218625" lon="-4.92918151"><ele>2248</ele><speed>11.05</speed><time>2016-06-29T12:27:24Z</time><pdop>4.0</pdop><geoidheight>53.00</geoidheight><course>355.1</course><type>1</type></trkpt>
      <trkpt lat="40.69228955" lon="-4.92918911"><ele>2248</ele><speed>11.72</speed><time>2016-06-29T12:27:25Z</time><pdop>5.0</pdop><geoidheight>53.00</geoidheight><course>357.1</course><type>1</type></trkpt>
      <trkpt lat="40.69240228" lon="-4.92912509"><ele>2248</ele><speed>11.93</speed><time>2016-06-29T12:27:26Z</time><pdop>6.0</pdop><geoidheight>53.00</geoidheight><course>9.6</course><type>1</type></trkpt>
      <trkpt lat="40.69252535" lon="-4.92902193"><ele>2247</ele><speed>13.30</speed><time>2016-06-29T12:27:27Z</time><pdop>7.0</pdop><geoidheight>53.00</geoidheight><course>21.5</course><type>1</type></trkpt>
      <trkpt lat="40.69266607" lon="-4.92868713"><ele>2248</ele><speed>15.29</speed><time>2016-06-29T12:27:29Z</time><pdop>8.0</pdop><geoidheight>53.00</geoidheight><course>46.2</course><type>1</type></trkpt>
      <trkpt lat="40.69271765" lon="-4.92850817"><ele>2248</ele><speed>15.53</speed><time>2016-06-29T12:27:30Z</time><pdop>8.0</pdop><geoidheight>53.00</geoidheight><course>57.8</course><type>1</type></trkpt>
      <trkpt lat="40.69279214" lon="-4.92827523"><ele>2248</ele><speed>17.55</speed><time>2016-06-29T12:27:31Z</time><pdop>9.0</pdop><geoidheight>53.00</geoidheight><course>64.6</course><type>1</type></trkpt>
      <trkpt lat="40.69284918" lon="-4.92803272"><ele>2251</ele><speed>18.56</speed><time>2016-06-29T12:27:32Z</time><pdop>7.0</pdop><geoidheight>53.00</geoidheight><course>70.3</course><type>1</type></trkpt>
      <trkpt lat="40.69289629" lon="-4.92778507"><ele>2251</ele><speed>19.76</speed><time>2016-06-29T12:27:33Z</time><pdop>7.0</pdop><geoidheight>53.00</geoidheight><course>74.1</course><type>1</type></trkpt>
      <trkpt lat="40.69291674" lon="-4.92753592"><ele>2252</ele><speed>19.52</speed><time>2016-06-29T12:27:34Z</time><pdop>5.0</pdop><geoidheight>53.00</geoidheight><course>79.9</course><type>1</type></trkpt>
      <trkpt lat="40.69295587" lon="-4.9273"><ele>2252</ele><speed>18.87</speed><time>2016-06-29T12:27:35Z</time><pdop>5.0</pdop><geoidheight>53.00</geoidheight><course>82.6</course><type>1</type></trkpt>
      <trkpt lat="40.69298682" lon="-4.92707544"><ele>2253</ele><speed>17.99</speed><time>2016-06-29T12:27:36Z</time><pdop>4.0</pdop><geoidheight>53.00</geoidheight><course>85.8</course><type>1</type></trkpt>
      <trkpt lat="40.69298994" lon="-4.92686017"><ele>2253</ele><speed>17.06</speed><time>2016-06-29T12:27:37Z</time><pdop>4.0</pdop><geoidheight>53.00</geoidheight><course>88.1</course><type>1</type></trkpt>
      <trkpt lat="40.69300032" lon="-4.92666378"><ele>2253</ele><speed>16.38</speed><time>2016-06-29T12:27:38Z</time><pdop>4.0</pdop><geoidheight>53.00</geoidheight><course>88.3</course><type>1</type></trkpt>
      <trkpt lat="40.69300853" lon="-4.92646216"><ele>2254</ele><speed>16.49</speed><time>2016-06-29T12:27:39Z</time><pdop>4.0</pdop><geoidheight>53.00</geoidheight><course>86.9</course><type>1</type></trkpt>
      <trkpt lat="40.69303102" lon="-4.92627662"><ele>2254</ele><speed>16.02</speed><time>2016-06-29T12:27:40Z</time><pdop>4.0</pdop><geoidheight>53.00</geoidheight><course>84.9</course><type>1</type></trkpt>
      <trkpt lat="40.69305084" lon="-4.92608699"><ele>2254</ele><speed>16.24</speed><time>2016-06-29T12:27:41Z</time><pdop>4.0</pdop><geoidheight>53.00</geoidheight><course>83.3</course><type>1</type></trkpt>
      <trkpt lat="40.69307571" lon="-4.9258803"><ele>2255</ele><speed>16.85</speed><time>2016-06-29T12:27:42Z</time><pdop>4.0</pdop><geoidheight>53.00</geoidheight><course>82.7</course><type>1</type></trkpt>
      <trkpt lat="40.69308438" lon="-4.92565592"><ele>2256</ele><speed>17.55</speed><time>2016-06-29T12:27:43Z</time><pdop>4.0</pdop><geoidheight>53.00</geoidheight><course>81.6</course><type>1</type></trkpt>
      <trkpt lat="40.69310942" lon="-4.92543714"><ele>2257</ele><speed>17.97</speed><time>2016-06-29T12:27:44Z</time><pdop>4.0</pdop><geoidheight>53.00</geoidheight><course>81.1</course><type>1</type></trkpt>
      <trkpt lat="40.69313706" lon="-4.92522989"><ele>2258</ele><speed>17.94</speed><time>2016-06-29T12:27:45Z</time><pdop>4.0</pdop><geoidheight>53.00</geoidheight><course>81.7</course><type>1</type></trkpt>
      <trkpt lat="40.6931498" lon="-4.92502976"><ele>2256</ele><speed>17.26</speed><time>2016-06-29T12:27:46Z</time><pdop>4.0</pdop><geoidheight>53.00</geoidheight><course>82.2</course><type>1</type></trkpt>
      <trkpt lat="40.69317809" lon="-4.92483199"><ele>2257</ele><speed>17.09</speed><time>2016-06-29T12:27:47Z</time><pdop>4.0</pdop><geoidheight>53.00</geoidheight><course>80.9</course><type>1</type></trkpt>
      <trkpt lat="40.69321445" lon="-4.92461172"><ele>2258</ele><speed>18.14</speed><time>2016-06-29T12:27:48Z</time><pdop>3.0</pdop><geoidheight>53.00</geoidheight><course>79.7</course><type>1</type></trkpt>
      <trkpt lat="40.69324364" lon="-4.92439851"><ele>2259</ele><speed>17.94</speed><time>2016-06-29T12:27:49Z</time><pdop>3.0</pdop><geoidheight>53.00</geoidheight><course>83.6</course><type>1</type></trkpt>
      <trkpt lat="40.69323739" lon="-4.92419773"><ele>2258</ele><speed>16.74</speed><time>2016-06-29T12:27:50Z</time><pdop>3.0</pdop><geoidheight>53.00</geoidheight><course>92.9</course><type>1</type></trkpt>
      <trkpt lat="40.69319962" lon="-4.92403808"><ele>2258</ele><speed>14.44</speed><time>2016-06-29T12:27:51Z</time><pdop>3.0</pdop><geoidheight>53.00</geoidheight><course>105.4</course><type>1</type></trkpt>
      <trkpt lat="40.69316822" lon="-4.92388947"><ele>2258</ele><speed>13.35</speed><time>2016-06-29T12:27:52Z</time><pdop>4.0</pdop><geoidheight>53.00</geoidheight><course>106.8</course><type>1</type></trkpt>
      <trkpt lat="40.69312995" lon="-4.92374803"><ele>2258</ele><speed>12.63</speed><time>2016-06-29T12:27:53Z</time><pdop>5.0</pdop><geoidheight>53.00</geoidheight><course>109.6</course><type>1</type></trkpt>
      <trkpt lat="40.69329642" lon="-4.92379587"><ele>2259</ele><speed>8.83</speed><time>2016-06-29T12:27:59Z</time><pdop>7.0</pdop><geoidheight>53.00</geoidheight><course>352.0</course><type>1</type></trkpt>
      <trkpt lat="40.69342257" lon="-4.92375998"><ele>2260</ele><speed>10.31</speed><time>2016-06-29T12:28:00Z</time><pdop>6.0</pdop><geoidheight>53.00</geoidheight><course>5.2</course><type>1</type></trkpt>
      <trkpt lat="40.69358999" lon="-4.9235996"><ele>2263</ele><speed>16.80</speed><time>2016-06-29T12:28:01Z</time><pdop>4.0</pdop><geoidheight>53.00</geoidheight><course>30.7</course><type>1</type></trkpt>
      <trkpt lat="40.69370368" lon="-4.92347709"><ele>2266</ele><speed>17.12</speed><time>2016-06-29T12:28:02Z</time><pdop>4.0</pdop><geoidheight>53.00</geoidheight><course>39.1</course><type>1</type></trkpt>
      <trkpt lat="40.69382361" lon="-4.92333196"><ele>2266</ele><speed>17.09</speed><time>2016-06-29T12:28:03Z</time><pdop>4.0</pdop><geoidheight>53.00</geoidheight><course>46.5</course><type>1</type></trkpt>
      <trkpt lat="40.69391686" lon="-4.92317649"><ele>2267</ele><speed>17.30</speed><time>2016-06-29T12:28:04Z</time><pdop>4.0</pdop><geoidheight>53.00</geoidheight><course>52.7</course><type>1</type></trkpt>
      <trkpt lat="40.69398983" lon="-4.92298811"><ele>2266</ele><speed>17.70</speed><time>2016-06-29T12:28:05Z</time><pdop>3.0</pdop><geoidheight>53.00</geoidheight><course>60.1</course><type>1</type></trkpt>
      <trkpt lat="40.69405895" lon="-4.92280008"><ele>2266</ele><speed>17.82</speed><time>2016-06-29T12:28:06Z</time><pdop>4.0</pdop><geoidheight>53.00</geoidheight><course>63.6</course><type>1</type></trkpt>
      <trkpt lat="40.69410975" lon="-4.92259963"><ele>2266</ele><speed>18.00</speed><time>2016-06-29T12:28:07Z</time><pdop>5.0</pdop><geoidheight>53.00</geoidheight><course>70.2</course><type>1</type></trkpt>
      <trkpt lat="40.6940875" lon="-4.92237151"><ele>2266</ele><speed>18.54</speed><time>2016-06-29T12:28:08Z</time><pdop>4.0</pdop><geoidheight>53.00</geoidheight><course>85.7</course><type>1</type></trkpt>
      <trkpt lat="40.69406968" lon="-4.92216913"><ele>2265</ele><speed>17.58</speed><time>2016-06-29T12:28:09Z</time><pdop>3.0</pdop><geoidheight>53.00</geoidheight><course>92.7</course><type>1</type></trkpt>
      <trkpt lat="40.69404719" lon="-4.92198626"><ele>2265</ele><speed>15.87</speed><time>2016-06-29T12:28:10Z</time><pdop>3.0</pdop><geoidheight>53.00</geoidheight><course>98.0</course><type>1</type></trkpt>
      <trkpt lat="40.69403278" lon="-4.92182198"><ele>2265</ele><speed>13.94</speed><time>2016-06-29T12:28:11Z</time><pdop>3.0</pdop><geoidheight>53.00</geoidheight><course>103.0</course><type>1</type></trkpt>
      <trkpt lat="40.69399867" lon="-4.92166359"><ele>2264</ele><speed>13.53</speed><time>2016-06-29T12:28:12Z</time><pdop>3.0</pdop><geoidheight>53.00</geoidheight><course>107.1</course><type>1</type></trkpt>
      <trkpt lat="40.69395913" lon="-4.92151101"><ele>2264</ele><speed>13.44</speed><time>2016-06-29T12:28:13Z</time><pdop>3.0</pdop><geoidheight>53.00</geoidheight><course>111.8</course><type>1</type></trkpt>
      <trkpt lat="40.69390416" lon="-4.92137817"><ele>2264</ele><speed>12.63</speed><time>2016-06-29T12:28:14Z</time><pdop>3.0</pdop><geoidheight>53.00</geoidheight><course>118.6</course><type>1</type></trkpt>
      <trkpt lat="40.69384791" lon="-4.92128941"><ele>2263</ele><speed>10.88</speed><time>2016-06-29T12:28:15Z</time><pdop>3.0</pdop><geoidheight>53.00</geoidheight><course>125.7</course><type>1</type></trkpt>
      <trkpt lat="40.69380046" lon="-4.92121068"><ele>2264</ele><speed>8.37</speed><time>2016-06-29T12:28:16Z</time><pdop>3.0</pdop><geoidheight>53.00</geoidheight><course>132.2</course><type>1</type></trkpt>
      <trkpt lat="40.69375139" lon="-4.92116472"><ele>2262</ele><speed>2.35</speed><time>2016-06-29T12:28:18Z</time><pdop>3.0</pdop><geoidheight>53.00</geoidheight><course>151.6</course><type>1</type></trkpt>
      <trkpt lat="40.69386716" lon="-4.92121115"><ele>2260</ele><speed>7.39</speed><time>2016-06-29T12:28:21Z</time><pdop>3.0</pdop><geoidheight>53.00</geoidheight><course>345.3</course><type>1</type></trkpt>
      <trkpt lat="40.69397185" lon="-4.92120791"><ele>2260</ele><speed>11.01</speed><time>2016-06-29T12:28:22Z</time><pdop>3.0</pdop><geoidheight>53.00</geoidheight><course>359.9</course><type>1</type></trkpt>
      <trkpt lat="40.69409909" lon="-4.92116134"><ele>2259</ele><speed>14.14</speed><time>2016-06-29T12:28:23Z</time><pdop>3.0</pdop><geoidheight>53.00</geoidheight><course>14.6</course><type>1</type></trkpt>
      <trkpt lat="40.69423826" lon="-4.92106011"><ele>2259</ele><speed>16.46</speed><time>2016-06-29T12:28:24Z</time><pdop>3.0</pdop><geoidheight>53.00</geoidheight><course>27.4</course><type>1</type></trkpt>
      <trkpt lat="40.69436518" lon="-4.92094501"><ele>2260</ele><speed>17.52</speed><time>2016-06-29T12:28:25Z</time><pdop>3.0</pdop><geoidheight>53.00</geoidheight><course>34.5</course><type>1</type></trkpt>
      <trkpt lat="40.69447783" lon="-4.92079543"><ele>2261</ele><speed>17.83</speed><time>2016-06-29T12:28:26Z</time><pdop>3.0</pdop><geoidheight>53.00</geoidheight><course>41.0</course><type>1</type></trkpt>
      <trkpt lat="40.69459646" lon="-4.92064112"><ele>2261</ele><speed>18.44</speed><time>2016-06-29T12:28:27Z</time><pdop>4.0</pdop><geoidheight>53.00</geoidheight><course>43.8</course><type>1</type></trkpt>
      <trkpt lat="40.69470798" lon="-4.920481"><ele>2261</ele><speed>18.83</speed><time>2016-06-29T12:28:28Z</time><pdop>4.0</pdop><geoidheight>53.00</geoidheight><course>46.6</course><type>1</type></trkpt>
      <trkpt lat="40.69481311" lon="-4.92030364"><ele>2261</ele><speed>19.06</speed><time>2016-06-29T12:28:29Z</time><pdop>5.0</pdop><geoidheight>53.00</geoidheight><course>50.4</course><type>1</type></trkpt>
      <trkpt lat="40.69487884" lon="-4.92011196"><ele>2261</ele><speed>18.30</speed><time>2016-06-29T12:28:30Z</time><pdop>4.0</pdop><geoidheight>53.00</geoidheight><course>57.0</course><type>1</type></trkpt>
      <trkpt lat="40.6949688" lon="-4.91995006"><ele>2261</ele><speed>17.89</speed><time>2016-06-29T12:28:31Z</time><pdop>4.0</pdop><geoidheight>53.00</geoidheight><course>57.9</course><type>1</type></trkpt>
      <trkpt lat="40.69504745" lon="-4.91975795"><ele>2259</ele><speed>18.24</speed><time>2016-06-29T12:28:32Z</time><pdop>4.0</pdop><geoidheight>53.00</geoidheight><course>57.6</course><type>1</type></trkpt>
      <trkpt lat="40.69513988" lon="-4.91957778"><ele>2257</ele><speed>18.81</speed><time>2016-06-29T12:28:33Z</time><pdop>4.0</pdop><geoidheight>53.00</geoidheight><course>57.0</course><type>1</type></trkpt>
      <trkpt lat="40.69524741" lon="-4.91938298"><ele>2256</ele><speed>19.55</speed><time>2016-06-29T12:28:34Z</time><pdop>4.0</pdop><geoidheight>53.00</geoidheight><course>55.1</course><type>1</type></trkpt>
      <trkpt lat="40.69535333" lon="-4.91919968"><ele>2255</ele><speed>19.25</speed><time>2016-06-29T12:28:35Z</time><pdop>3.0</pdop><geoidheight>53.00</geoidheight><course>52.3</course><type>1</type></trkpt>
      <trkpt lat="40.69545228" lon="-4.9190488"><ele>2253</ele><speed>17.98</speed><time>2016-06-29T12:28:36Z</time><pdop>3.0</pdop><geoidheight>53.00</geoidheight><course>48.6</course><type>1</type></trkpt>
      <trkpt lat="40.69557274" lon="-4.918895"><ele>2252</ele><speed>17.86</speed><time>2016-06-29T12:28:37Z</time><pdop>4.0</pdop><geoidheight>53.00</geoidheight><course>46.8</course><type>1</type></trkpt>
      <trkpt lat="40.69567712" lon="-4.91873906"><ele>2248</ele><speed>18.23</speed><time>2016-06-29T12:28:38Z</time><pdop>4.0</pdop><geoidheight>53.00</geoidheight><course>45.4</course><type>1</type></trkpt>
      <trkpt lat="40.69578713" lon="-4.91857555"><ele>2245</ele><speed>18.66</speed><time>2016-06-29T12:28:39Z</time><pdop>5.0</pdop><geoidheight>53.00</geoidheight><course>46.2</course><type>1</type></trkpt>
      <trkpt lat="40.69590577" lon="-4.91843805"><ele>2246</ele><speed>18.27</speed><time>2016-06-29T12:28:40Z</time><pdop>7.0</pdop><geoidheight>53.00</geoidheight><course>44.0</course><type>1</type></trkpt>
      <trkpt lat="40.69602789" lon="-4.91826561"><ele>2245</ele><speed>19.24</speed><time>2016-06-29T12:28:41Z</time><pdop>6.0</pdop><geoidheight>53.00</geoidheight><course>44.9</course><type>1</type></trkpt>
      <trkpt lat="40.69614286" lon="-4.91810512"><ele>2246</ele><speed>18.65</speed><time>2016-06-29T12:28:42Z</time><pdop>7.0</pdop><geoidheight>53.00</geoidheight><course>45.1</course><type>1</type></trkpt>
      <trkpt lat="40.69624815" lon="-4.91794699"><ele>2247</ele><speed>18.16</speed><time>2016-06-29T12:28:43Z</time><pdop>8.0</pdop><geoidheight>53.00</geoidheight><course>46.3</course><type>1</type></trkpt>
      <trkpt lat="40.69636511" lon="-4.91777638"><ele>2247</ele><speed>18.54</speed><time>2016-06-29T12:28:44Z</time><pdop>7.0</pdop><geoidheight>53.00</geoidheight><course>45.8</course><type>1</type></trkpt>
      <trkpt lat="40.69647287" lon="-4.91761654"><ele>2245</ele><speed>18.51</speed><time>2016-06-29T12:28:45Z</time><pdop>7.0</pdop><geoidheight>53.00</geoidheight><course>46.1</course><type>1</type></trkpt>
      <trkpt lat="40.69660574" lon="-4.91745661"><ele>2244</ele><speed>19.30</speed><time>2016-06-29T12:28:46Z</time><pdop>7.0</pdop><geoidheight>53.00</geoidheight><course>44.8</course><type>1</type></trkpt>
      <trkpt lat="40.69673418" lon="-4.91732226"><ele>2242</ele><speed>19.26</speed><time>2016-06-29T12:28:47Z</time><pdop>7.0</pdop><geoidheight>53.00</geoidheight><course>42.7</course><type>1</type></trkpt>
      <trkpt lat="40.69683335" lon="-4.91716606"><ele>2240</ele><speed>18.92</speed><time>2016-06-29T12:28:48Z</time><pdop>6.0</pdop><geoidheight>53.00</geoidheight><course>43.4</course><type>1</type></trkpt>
      <trkpt lat="40.69693432" lon="-4.91701836"><ele>2239</ele><speed>18.35</speed><time>2016-06-29T12:28:49Z</time><pdop>6.0</pdop><geoidheight>53.00</geoidheight><course>45.6</course><type>1</type></trkpt>
      <trkpt lat="40.69703455" lon="-4.91686549"><ele>2237</ele><speed>17.95</speed><time>2016-06-29T12:28:50Z</time><pdop>6.0</pdop><geoidheight>53.00</geoidheight><course>49.4</course><type>1</type></trkpt>
      <trkpt lat="40.69713617" lon="-4.91668944"><ele>2236</ele><speed>17.94</speed><time>2016-06-29T12:28:51Z</time><pdop>5.0</pdop><geoidheight>53.00</geoidheight><course>51.1</course><type>1</type></trkpt>
      <trkpt lat="40.69723768" lon="-4.91652342"><ele>2234</ele><speed>17.85</speed><time>2016-06-29T12:28:52Z</time><pdop>5.0</pdop><geoidheight>53.00</geoidheight><course>49.4</course><type>1</type></trkpt>
      <trkpt lat="40.69735124" lon="-4.91637674"><ele>2232</ele><speed>18.46</speed><time>2016-06-29T12:28:53Z</time><pdop>6.0</pdop><geoidheight>53.00</geoidheight><course>47.1</course><type>1</type></trkpt>
      <trkpt lat="40.69745906" lon="-4.91621206"><ele>2231</ele><speed>18.25</speed><time>2016-06-29T12:28:54Z</time><pdop>5.0</pdop><geoidheight>53.00</geoidheight><course>48.9</course><type>1</type></trkpt>
      <trkpt lat="40.69756248" lon="-4.91606179"><ele>2229</ele><speed>18.32</speed><time>2016-06-29T12:28:55Z</time><pdop>5.0</pdop><geoidheight>53.00</geoidheight><course>48.6</course><type>1</type></trkpt>
      <trkpt lat="40.69767942" lon="-4.91590998"><ele>2228</ele><speed>18.38</speed><time>2016-06-29T12:28:56Z</time><pdop>5.0</pdop><geoidheight>53.00</geoidheight><course>47.2</course><type>1</type></trkpt>
      <trkpt lat="40.6978072" lon="-4.91573663"><ele>2228</ele><speed>19.32</speed><time>2016-06-29T12:28:57Z</time><pdop>6.0</pdop><geoidheight>53.00</geoidheight><course>47.1</course><type>1</type></trkpt>
      <trkpt lat="40.69792492" lon="-4.91555682"><ele>2227</ele><speed>19.87</speed><time>2016-06-29T12:28:58Z</time><pdop>7.0</pdop><geoidheight>53.00</geoidheight><course>47.5</course><type>1</type></trkpt>
      <trkpt lat="40.69807459" lon="-4.91541695"><ele>2225</ele><speed>20.10</speed><time>2016-06-29T12:28:59Z</time><pdop>6.0</pdop><geoidheight>53.00</geoidheight><course>44.3</course><type>1</type></trkpt>
      <trkpt lat="40.69818022" lon="-4.9152358"><ele>2223</ele><speed>19.52</speed><time>2016-06-29T12:29:00Z</time><pdop>6.0</pdop><geoidheight>53.00</geoidheight><course>47.7</course><type>1</type></trkpt>
      <trkpt lat="40.69830601" lon="-4.91505811"><ele>2223</ele><speed>19.38</speed><time>2016-06-29T12:29:01Z</time><pdop>7.0</pdop><geoidheight>53.00</geoidheight><course>48.2</course><type>1</type></trkpt>
      <trkpt lat="40.69839124" lon="-4.91490249"><ele>2222</ele><speed>17.78</speed><time>2016-06-29T12:29:02Z</time><pdop>8.0</pdop><geoidheight>53.00</geoidheight><course>49.8</course><type>1</type></trkpt>
      <trkpt lat="40.69852495" lon="-4.91458836"><ele>2236</ele><speed>16.39</speed><time>2016-06-29T12:29:04Z</time><pdop>8.0</pdop><geoidheight>53.00</geoidheight><course>55.6</course><type>1</type></trkpt>
      <trkpt lat="40.69862817" lon="-4.91442928"><ele>2231</ele><speed>16.91</speed><time>2016-06-29T12:29:05Z</time><pdop>8.0</pdop><geoidheight>53.00</geoidheight><course>53.7</course><type>1</type></trkpt>
      <trkpt lat="40.69872305" lon="-4.91428082"><ele>2228</ele><speed>17.14</speed><time>2016-06-29T12:29:06Z</time><pdop>8.0</pdop><geoidheight>53.00</geoidheight><course>52.5</course><type>1</type></trkpt>
      <trkpt lat="40.69878054" lon="-4.91409309"><ele>2225</ele><speed>17.29</speed><time>2016-06-29T12:29:07Z</time><pdop>8.0</pdop><geoidheight>53.00</geoidheight><course>57.6</course><type>1</type></trkpt>
      <trkpt lat="40.6988962" lon="-4.91372969"><ele>2219</ele><speed>18.46</speed><time>2016-06-29T12:29:09Z</time><pdop>7.0</pdop><geoidheight>53.00</geoidheight><course>60.7</course><type>1</type></trkpt>
      <trkpt lat="40.69895898" lon="-4.91353958"><ele>2216</ele><speed>18.68</speed><time>2016-06-29T12:29:10Z</time><pdop>7.0</pdop><geoidheight>53.00</geoidheight><course>60.5</course><type>1</type></trkpt>
      <trkpt lat="40.69907523" lon="-4.91333854"><ele>2216</ele><speed>19.88</speed><time>2016-06-29T12:29:11Z</time><pdop>7.0</pdop><geoidheight>53.00</geoidheight><course>57.9</course><type>1</type></trkpt>
      <trkpt lat="40.69916266" lon="-4.91314108"><ele>2215</ele><speed>19.48</speed><time>2016-06-29T12:29:12Z</time><pdop>7.0</pdop><geoidheight>53.00</geoidheight><course>58.6</course><type>1</type></trkpt>
      <trkpt lat="40.69928173" lon="-4.91291529"><ele>2214</ele><speed>20.22</speed><time>2016-06-29T12:29:13Z</time><pdop>6.0</pdop><geoidheight>53.00</geoidheight><course>58.8</course><type>1</type></trkpt>
      <trkpt lat="40.69937998" lon="-4.91268693"><ele>2212</ele><speed>20.94</speed><time>2016-06-29T12:29:14Z</time><pdop>6.0</pdop><geoidheight>53.00</geoidheight><course>59.1</course><type>1</type></trkpt>
      <trkpt lat="40.6994843" lon="-4.91246217"><ele>2211</ele><speed>21.33</speed><time>2016-06-29T12:29:15Z</time><pdop>7.0</pdop><geoidheight>53.00</geoidheight><course>59.3</course><type>1</type></trkpt>
      <trkpt lat="40.6995709" lon="-4.91225011"><ele>2208</ele><speed>21.08</speed><time>2016-06-29T12:29:16Z</time><pdop>8.0</pdop><geoidheight>53.00</geoidheight><course>60.5</course><type>1</type></trkpt>
      <trkpt lat="40.69977849" lon="-4.91185869"><ele>2207</ele><speed>21.88</speed><time>2016-06-29T12:29:18Z</time><pdop>9.0</pdop><geoidheight>53.00</geoidheight><course>57.8</course><type>1</type></trkpt>
      <trkpt lat="40.7000064" lon="-4.91164962"><ele>2200</ele><speed>17.66</speed><time>2016-06-29T12:29:20Z</time><pdop>5.0</pdop><geoidheight>53.00</geoidheight><course>46.5</course><type>1</type></trkpt>
      <trkpt lat="40.70010638" lon="-4.91149348"><ele>2200</ele><speed>17.38</speed><time>2016-06-29T12:29:21Z</time><pdop>5.0</pdop><geoidheight>53.00</geoidheight><course>45.7</course><type>1</type></trkpt>
      <trkpt lat="40.70020859" lon="-4.91134692"><ele>2199</ele><speed>17.31</speed><time>2016-06-29T12:29:22Z</time><pdop>7.0</pdop><geoidheight>53.00</geoidheight><course>45.3</course><type>1</type></trkpt>
      <trkpt lat="40.70032314" lon="-4.91121717"><ele>2198</ele><speed>17.23</speed><time>2016-06-29T12:29:23Z</time><pdop>9.0</pdop><geoidheight>53.00</geoidheight><course>42.7</course><type>1</type></trkpt>
      <trkpt lat="40.70061053" lon="-4.91101244"><ele>2193</ele><speed>18.97</speed><time>2016-06-29T12:29:25Z</time><pdop>7.0</pdop><geoidheight>53.00</geoidheight><course>31.7</course><type>1</type></trkpt>
      <trkpt lat="40.70077331" lon="-4.91087137"><ele>2189</ele><speed>19.09</speed><time>2016-06-29T12:29:26Z</time><pdop>7.0</pdop><geoidheight>53.00</geoidheight><course>31.8</course><type>1</type></trkpt>
      <trkpt lat="40.70091062" lon="-4.91076237"><ele>2186</ele><speed>19.03</speed><time>2016-06-29T12:29:27Z</time><pdop>6.0</pdop><geoidheight>53.00</geoidheight><course>29.4</course><type>1</type></trkpt>
      <trkpt lat="40.70104909" lon="-4.91065281"><ele>2185</ele><speed>18.66</speed><time>2016-06-29T12:29:28Z</time><pdop>11.0</pdop><geoidheight>53.00</geoidheight><course>29.7</course><type>1</type></trkpt>
      <trkpt lat="40.70131462" lon="-4.91043437"><ele>2181</ele><speed>17.64</speed><time>2016-06-29T12:29:30Z</time><pdop>11.0</pdop><geoidheight>53.00</geoidheight><course>31.3</course><type>1</type></trkpt>
      <trkpt lat="40.70164711" lon="-4.91021436"><ele>2177</ele><speed>20.02</speed><time>2016-06-29T12:29:32Z</time><pdop>12.0</pdop><geoidheight>53.00</geoidheight><course>29.5</course><type>1</type></trkpt>
      <trkpt lat="40.70195318" lon="-4.90993277"><ele>2175</ele><speed>21.12</speed><time>2016-06-29T12:29:34Z</time><pdop>12.0</pdop><geoidheight>53.00</geoidheight><course>33.9</course><type>1</type></trkpt>
      <trkpt lat="40.70220433" lon="-4.90960886"><ele>2170</ele><speed>20.77</speed><time>2016-06-29T12:29:36Z</time><pdop>11.0</pdop><geoidheight>53.00</geoidheight><course>36.8</course><type>1</type></trkpt>
      <trkpt lat="40.70247561" lon="-4.90930497"><ele>2166</ele><speed>21.09</speed><time>2016-06-29T12:29:38Z</time><pdop>12.0</pdop><geoidheight>53.00</geoidheight><course>37.5</course><type>1</type></trkpt>
      <trkpt lat="40.70274336" lon="-4.90894647"><ele>2161</ele><speed>22.22</speed><time>2016-06-29T12:29:40Z</time><pdop>12.0</pdop><geoidheight>53.00</geoidheight><course>42.8</course><type>1</type></trkpt>
      <trkpt lat="40.70290013" lon="-4.90873312"><ele>2158</ele><speed>23.19</speed><time>2016-06-29T12:29:41Z</time><pdop>12.0</pdop><geoidheight>53.00</geoidheight><course>43.9</course><type>1</type></trkpt>
      <trkpt lat="40.7031636" lon="-4.90835798"><ele>2154</ele><speed>22.50</speed><time>2016-06-29T12:29:43Z</time><pdop>12.0</pdop><geoidheight>53.00</geoidheight><course>46.4</course><type>1</type></trkpt>
      <trkpt lat="40.70336353" lon="-4.90799346"><ele>2147</ele><speed>20.44</speed><time>2016-06-29T12:29:45Z</time><pdop>9.0</pdop><geoidheight>53.00</geoidheight><course>50.7</course><type>1</type></trkpt>
      <trkpt lat="40.70346579" lon="-4.90780692"><ele>2142</ele><speed>20.29</speed><time>2016-06-29T12:29:46Z</time><pdop>8.0</pdop><geoidheight>53.00</geoidheight><course>49.6</course><type>1</type></trkpt>
      <trkpt lat="40.70357769" lon="-4.90762292"><ele>2137</ele><speed>20.25</speed><time>2016-06-29T12:29:47Z</time><pdop>8.0</pdop><geoidheight>53.00</geoidheight><course>50.5</course><type>1</type></trkpt>
      <trkpt lat="40.70369915" lon="-4.90741926"><ele>2132</ele><speed>21.46</speed><time>2016-06-29T12:29:48Z</time><pdop>7.0</pdop><geoidheight>53.00</geoidheight><course>51.5</course><type>1</type></trkpt>
      <trkpt lat="40.70383346" lon="-4.90721764"><ele>2129</ele><speed>22.13</speed><time>2016-06-29T12:29:49Z</time><pdop>7.0</pdop><geoidheight>53.00</geoidheight><course>52.2</course><type>1</type></trkpt>
      <trkpt lat="40.70395113" lon="-4.90701408"><ele>2128</ele><speed>22.36</speed><time>2016-06-29T12:29:50Z</time><pdop>7.0</pdop><geoidheight>53.00</geoidheight><course>52.6</course><type>1</type></trkpt>
      <trkpt lat="40.70405927" lon="-4.90680165"><ele>2127</ele><speed>22.26</speed><time>2016-06-29T12:29:51Z</time><pdop>7.0</pdop><geoidheight>53.00</geoidheight><course>55.0</course><type>1</type></trkpt>
      <trkpt lat="40.70414568" lon="-4.90656776"><ele>2126</ele><speed>21.92</speed><time>2016-06-29T12:29:52Z</time><pdop>8.0</pdop><geoidheight>53.00</geoidheight><course>58.2</course><type>1</type></trkpt>
      <trkpt lat="40.70424772" lon="-4.9063316"><ele>2124</ele><speed>22.27</speed><time>2016-06-29T12:29:53Z</time><pdop>9.0</pdop><geoidheight>53.00</geoidheight><course>57.9</course><type>1</type></trkpt>
      <trkpt lat="40.70434532" lon="-4.90612916"><ele>2124</ele><speed>21.28</speed><time>2016-06-29T12:29:54Z</time><pdop>11.0</pdop><geoidheight>53.00</geoidheight><course>57.1</course><type>1</type></trkpt>
      <trkpt lat="40.70444642" lon="-4.9057529"><ele>2121</ele><speed>18.35</speed><time>2016-06-29T12:29:56Z</time><pdop>11.0</pdop><geoidheight>53.00</geoidheight><course>61.9</course><type>1</type></trkpt>
      <trkpt lat="40.70434239" lon="-4.9053755"><ele>2120</ele><speed>17.52</speed><time>2016-06-29T12:29:58Z</time><pdop>7.0</pdop><geoidheight>53.00</geoidheight><course>92.9</course><type>1</type></trkpt>
      <trkpt lat="40.70433107" lon="-4.90516115"><ele>2119</ele><speed>17.61</speed><time>2016-06-29T12:29:59Z</time><pdop>7.0</pdop><geoidheight>53.00</geoidheight><course>94.4</course><type>1</type></trkpt>
      <trkpt lat="40.70431527" lon="-4.90493354"><ele>2118</ele><speed>17.77</speed><time>2016-06-29T12:30:00Z</time><pdop>10.0</pdop><geoidheight>53.00</geoidheight><course>96.5</course><type>1</type></trkpt>
      <trkpt lat="40.70418011" lon="-4.9046168"><ele>2118</ele><speed>14.94</speed><time>2016-06-29T12:30:02Z</time><pdop>10.0</pdop><geoidheight>53.00</geoidheight><course>116.8</course><type>1</type></trkpt>
      <trkpt lat="40.70395205" lon="-4.90452826"><ele>2117</ele><speed>7.98</speed><time>2016-06-29T12:30:05Z</time><pdop>7.0</pdop><geoidheight>53.00</geoidheight><course>164.1</course><type>1</type></trkpt>
      <trkpt lat="40.70383168" lon="-4.9045257"><ele>2116</ele><speed>5.51</speed><time>2016-06-29T12:30:07Z</time><pdop>6.0</pdop><geoidheight>53.00</geoidheight><course>189.4</course><type>1</type></trkpt>
      <trkpt lat="40.7040016" lon="-4.9046531"><ele>2117</ele><speed>6.46</speed><time>2016-06-29T12:30:12Z</time><pdop>9.0</pdop><geoidheight>53.00</geoidheight><course>344.1</course><type>1</type></trkpt>
      <trkpt lat="40.7042854" lon="-4.90444365"><ele>2114</ele><speed>12.30</speed><time>2016-06-29T12:30:14Z</time><pdop>11.0</pdop><geoidheight>53.00</geoidheight><course>25.6</course><type>1</type></trkpt>
      <trkpt lat="40.70450732" lon="-4.90408845"><ele>2115</ele><speed>15.97</speed><time>2016-06-29T12:30:16Z</time><pdop>11.0</pdop><geoidheight>53.00</geoidheight><course>43.2</course><type>1</type></trkpt>
      <trkpt lat="40.70476591" lon="-4.90378842"><ele>2117</ele><speed>16.54</speed><time>2016-06-29T12:30:18Z</time><pdop>12.0</pdop><geoidheight>53.00</geoidheight><course>42.8</course><type>1</type></trkpt>
      <trkpt lat="40.70504166" lon="-4.90348505"><ele>2116</ele><speed>18.24</speed><time>2016-06-29T12:30:20Z</time><pdop>13.0</pdop><geoidheight>53.00</geoidheight><course>42.4</course><type>1</type></trkpt>
      <trkpt lat="40.70524363" lon="-4.90313207"><ele>2116</ele><speed>17.83</speed><time>2016-06-29T12:30:22Z</time><pdop>9.0</pdop><geoidheight>53.00</geoidheight><course>48.7</course><type>1</type></trkpt>
      <trkpt lat="40.70543539" lon="-4.90286863"><ele>2119</ele><speed>14.42</speed><time>2016-06-29T12:30:24Z</time><pdop>8.0</pdop><geoidheight>53.00</geoidheight><course>46.9</course><type>1</type></trkpt>
      <trkpt lat="40.70565894" lon="-4.9026992"><ele>2119</ele><speed>13.81</speed><time>2016-06-29T12:30:26Z</time><pdop>6.0</pdop><geoidheight>53.00</geoidheight><course>36.8</course><type>1</type></trkpt>
      <trkpt lat="40.70574841" lon="-4.90258222"><ele>2121</ele><speed>14.12</speed><time>2016-06-29T12:30:27Z</time><pdop>7.0</pdop><geoidheight>53.00</geoidheight><course>40.1</course><type>1</type></trkpt>
      <trkpt lat="40.70587513" lon="-4.9024434"><ele>2117</ele><speed>17.04</speed><time>2016-06-29T12:30:28Z</time><pdop>6.0</pdop><geoidheight>53.00</geoidheight><course>41.9</course><type>1</type></trkpt>
      <trkpt lat="40.70599519" lon="-4.90230761"><ele>2115</ele><speed>18.18</speed><time>2016-06-29T12:30:29Z</time><pdop>6.0</pdop><geoidheight>53.00</geoidheight><course>43.2</course><type>1</type></trkpt>
      <trkpt lat="40.7061065" lon="-4.90214813"><ele>2113</ele><speed>18.42</speed><time>2016-06-29T12:30:30Z</time><pdop>8.0</pdop><geoidheight>53.00</geoidheight><course>44.1</course><type>1</type></trkpt>
      <trkpt lat="40.70622267" lon="-4.90199276"><ele>2114</ele><speed>18.59</speed><time>2016-06-29T12:30:31Z</time><pdop>9.0</pdop><geoidheight>53.00</geoidheight><course>45.4</course><type>1</type></trkpt>
      <trkpt lat="40.70630912" lon="-4.90181432"><ele>2113</ele><speed>18.57</speed><time>2016-06-29T12:30:32Z</time><pdop>7.0</pdop><geoidheight>53.00</geoidheight><course>50.8</course><type>1</type></trkpt>
      <trkpt lat="40.70640038" lon="-4.90162272"><ele>2112</ele><speed>18.69</speed><time>2016-06-29T12:30:33Z</time><pdop>6.0</pdop><geoidheight>53.00</geoidheight><course>55.1</course><type>1</type></trkpt>
      <trkpt lat="40.70647576" lon="-4.90145129"><ele>2108</ele><speed>18.99</speed><time>2016-06-29T12:30:34Z</time><pdop>6.0</pdop><geoidheight>53.00</geoidheight><course>56.7</course><type>1</type></trkpt>
      <trkpt lat="40.70655567" lon="-4.90127252"><ele>2107</ele><speed>18.85</speed><time>2016-06-29T12:30:35Z</time><pdop>7.0</pdop><geoidheight>53.00</geoidheight><course>56.5</course><type>1</type></trkpt>
      <trkpt lat="40.70665229" lon="-4.90110606"><ele>2105</ele><speed>18.93</speed><time>2016-06-29T12:30:36Z</time><pdop>9.0</pdop><geoidheight>53.00</geoidheight><course>54.3</course><type>1</type></trkpt>
      <trkpt lat="40.70676733" lon="-4.90094117"><ele>2104</ele><speed>19.38</speed><time>2016-06-29T12:30:37Z</time><pdop>9.0</pdop><geoidheight>53.00</geoidheight><course>52.2</course><type>1</type></trkpt>
      <trkpt lat="40.70683863" lon="-4.90070019"><ele>2098</ele><speed>21.34</speed><time>2016-06-29T12:30:38Z</time><pdop>7.0</pdop><geoidheight>53.00</geoidheight><course>58.4</course><type>1</type></trkpt>
      <trkpt lat="40.70694148" lon="-4.90048173"><ele>2096</ele><speed>21.56</speed><time>2016-06-29T12:30:39Z</time><pdop>7.0</pdop><geoidheight>53.00</geoidheight><course>59.5</course><type>1</type></trkpt>
      <trkpt lat="40.70701792" lon="-4.90024988"><ele>2094</ele><speed>21.45</speed><time>2016-06-29T12:30:40Z</time><pdop>7.0</pdop><geoidheight>53.00</geoidheight><course>60.9</course><type>1</type></trkpt>
      <trkpt lat="40.7071026" lon="-4.90005526"><ele>2093</ele><speed>20.69</speed><time>2016-06-29T12:30:41Z</time><pdop>7.0</pdop><geoidheight>53.00</geoidheight><course>62.1</course><type>1</type></trkpt>
      <trkpt lat="40.70718935" lon="-4.89983847"><ele>2093</ele><speed>20.37</speed><time>2016-06-29T12:30:42Z</time><pdop>9.0</pdop><geoidheight>53.00</geoidheight><course>63.0</course><type>1</type></trkpt>
      <trkpt lat="40.70727983" lon="-4.89963301"><ele>2092</ele><speed>19.87</speed><time>2016-06-29T12:30:43Z</time><pdop>10.0</pdop><geoidheight>53.00</geoidheight><course>61.8</course><type>1</type></trkpt>
      <trkpt lat="40.7074044" lon="-4.89919904"><ele>2089</ele><speed>19.18</speed><time>2016-06-29T12:30:45Z</time><pdop>9.0</pdop><geoidheight>53.00</geoidheight><course>67.1</course><type>1</type></trkpt>
      <trkpt lat="40.70747544" lon="-4.89898319"><ele>2088</ele><speed>19.26</speed><time>2016-06-29T12:30:46Z</time><pdop>9.0</pdop><geoidheight>53.00</geoidheight><course>68.0</course><type>1</type></trkpt>
      <trkpt lat="40.70753802" lon="-4.8987682"><ele>2088</ele><speed>19.49</speed><time>2016-06-29T12:30:47Z</time><pdop>10.0</pdop><geoidheight>53.00</geoidheight><course>69.2</course><type>1</type></trkpt>
      <trkpt lat="40.70762847" lon="-4.89851963"><ele>2086</ele><speed>20.92</speed><time>2016-06-29T12:30:48Z</time><pdop>11.0</pdop><geoidheight>53.00</geoidheight><course>70.1</course><type>1</type></trkpt>
      <trkpt lat="40.70764669" lon="-4.89807135"><ele>2091</ele><speed>20.57</speed><time>2016-06-29T12:30:50Z</time><pdop>13.0</pdop><geoidheight>53.00</geoidheight><course>74.0</course><type>1</type></trkpt>
      <trkpt lat="40.70775342" lon="-4.89761765"><ele>2091</ele><speed>20.46</speed><time>2016-06-29T12:30:52Z</time><pdop>15.0</pdop><geoidheight>53.00</geoidheight><course>73.7</course><type>1</type></trkpt>
      <trkpt lat="40.70778921" lon="-4.89717257"><ele>2089</ele><speed>19.13</speed><time>2016-06-29T12:30:54Z</time><pdop>18.0</pdop><geoidheight>53.00</geoidheight><course>76.2</course><type>1</type></trkpt>
      <trkpt lat="40.70813236" lon="-4.89682302"><ele>2080</ele><speed>19.32</speed><time>2016-06-29T12:30:56Z</time><pdop>13.0</pdop><geoidheight>53.00</geoidheight><course>61.4</course><type>1</type></trkpt>
      <trkpt lat="40.70832502" lon="-4.89645419"><ele>2073</ele><speed>19.30</speed><time>2016-06-29T12:30:58Z</time><pdop>12.0</pdop><geoidheight>53.00</geoidheight><course>57.7</course><type>1</type></trkpt>
      <trkpt lat="40.70849897" lon="-4.89606178"><ele>2069</ele><speed>20.18</speed><time>2016-06-29T12:31:00Z</time><pdop>15.0</pdop><geoidheight>53.00</geoidheight><course>56.3</course><type>1</type></trkpt>
      <trkpt lat="40.7087413" lon="-4.89561969"><ele>2062</ele><speed>20.85</speed><time>2016-06-29T12:31:02Z</time><pdop>11.0</pdop><geoidheight>53.00</geoidheight><course>58.8</course><type>1</type></trkpt>
      <trkpt lat="40.70891585" lon="-4.89521103"><ele>2058</ele><speed>19.89</speed><time>2016-06-29T12:31:04Z</time><pdop>11.0</pdop><geoidheight>53.00</geoidheight><course>61.2</course><type>1</type></trkpt>
      <trkpt lat="40.70906259" lon="-4.89479625"><ele>2056</ele><speed>20.02</speed><time>2016-06-29T12:31:06Z</time><pdop>11.0</pdop><geoidheight>53.00</geoidheight><course>63.6</course><type>1</type></trkpt>
      <trkpt lat="40.70913515" lon="-4.89452559"><ele>2053</ele><speed>21.49</speed><time>2016-06-29T12:31:07Z</time><pdop>11.0</pdop><geoidheight>53.00</geoidheight><course>64.9</course><type>1</type></trkpt>
      <trkpt lat="40.70927528" lon="-4.89409933"><ele>2051</ele><speed>20.91</speed><time>2016-06-29T12:31:09Z</time><pdop>14.0</pdop><geoidheight>53.00</geoidheight><course>66.1</course><type>1</type></trkpt>
      <trkpt lat="40.70943496" lon="-4.89368884"><ele>2048</ele><speed>19.51</speed><time>2016-06-29T12:31:11Z</time><pdop>15.0</pdop><geoidheight>53.00</geoidheight><course>63.8</course><type>1</type></trkpt>
      <trkpt lat="40.70952409" lon="-4.89335206"><ele>2252</ele><speed>17.64</speed><time>2016-06-29T12:31:13Z</time><pdop>15.0</pdop><geoidheight>53.00</geoidheight><course>67.9</course><type>1</type></trkpt>
      <trkpt lat="40.70974104" lon="-4.89297426"><ele>2198</ele><speed>17.58</speed><time>2016-06-29T12:31:15Z</time><pdop>14.0</pdop><geoidheight>53.00</geoidheight><course>58.1</course><type>1</type></trkpt>
      <trkpt lat="40.70995812" lon="-4.8926713"><ele>2144</ele><speed>17.24</speed><time>2016-06-29T12:31:17Z</time><pdop>12.0</pdop><geoidheight>53.00</geoidheight><course>52.7</course><type>1</type></trkpt>
      <trkpt lat="40.7101697" lon="-4.89237086"><ele>2114</ele><speed>17.12</speed><time>2016-06-29T12:31:19Z</time><pdop>15.0</pdop><geoidheight>53.00</geoidheight><course>52.5</course><type>1</type></trkpt>
      <trkpt lat="40.71040446" lon="-4.89201584"><ele>2088</ele><speed>18.08</speed><time>2016-06-29T12:31:21Z</time><pdop>11.0</pdop><geoidheight>53.00</geoidheight><course>50.8</course><type>1</type></trkpt>
      <trkpt lat="40.71062809" lon="-4.89167916"><ele>2070</ele><speed>18.19</speed><time>2016-06-29T12:31:23Z</time><pdop>12.0</pdop><geoidheight>53.00</geoidheight><course>53.2</course><type>1</type></trkpt>
      <trkpt lat="40.71086424" lon="-4.89131236"><ele>2055</ele><speed>18.79</speed><time>2016-06-29T12:31:25Z</time><pdop>11.0</pdop><geoidheight>53.00</geoidheight><course>52.7</course><type>1</type></trkpt>
      <trkpt lat="40.71111572" lon="-4.89097873"><ele>2039</ele><speed>18.34</speed><time>2016-06-29T12:31:27Z</time><pdop>11.0</pdop><geoidheight>53.00</geoidheight><course>49.3</course><type>1</type></trkpt>
      <trkpt lat="40.71129738" lon="-4.89064847"><ele>2033</ele><speed>17.47</speed><time>2016-06-29T12:31:29Z</time><pdop>10.0</pdop><geoidheight>53.00</geoidheight><course>51.3</course><type>1</type></trkpt>
      <trkpt lat="40.71149076" lon="-4.89029476"><ele>2026</ele><speed>18.51</speed><time>2016-06-29T12:31:31Z</time><pdop>9.0</pdop><geoidheight>53.00</geoidheight><course>55.5</course><type>1</type></trkpt>
      <trkpt lat="40.71170901" lon="-4.88994645"><ele>2020</ele><speed>18.25</speed><time>2016-06-29T12:31:33Z</time><pdop>12.0</pdop><geoidheight>53.00</geoidheight><course>53.7</course><type>1</type></trkpt>
      <trkpt lat="40.71186132" lon="-4.88976046"><ele>2016</ele><speed>19.33</speed><time>2016-06-29T12:31:34Z</time><pdop>10.0</pdop><geoidheight>53.00</geoidheight><course>48.7</course><type>1</type></trkpt>
      <trkpt lat="40.71200464" lon="-4.88961261"><ele>2011</ele><speed>18.81</speed><time>2016-06-29T12:31:35Z</time><pdop>10.0</pdop><geoidheight>53.00</geoidheight><course>45.7</course><type>1</type></trkpt>
      <trkpt lat="40.71225321" lon="-4.88932207"><ele>2007</ele><speed>18.25</speed><time>2016-06-29T12:31:37Z</time><pdop>10.0</pdop><geoidheight>53.00</geoidheight><course>46.8</course><type>1</type></trkpt>
      <trkpt lat="40.712492" lon="-4.88895596"><ele>2004</ele><speed>19.33</speed><time>2016-06-29T12:31:39Z</time><pdop>14.0</pdop><geoidheight>53.00</geoidheight><course>51.0</course><type>1</type></trkpt>
      <trkpt lat="40.71281696" lon="-4.88862186"><ele>1998</ele><speed>20.42</speed><time>2016-06-29T12:31:41Z</time><pdop>14.0</pdop><geoidheight>53.00</geoidheight><course>47.1</course><type>1</type></trkpt>
      <trkpt lat="40.71315262" lon="-4.88824757"><ele>1991</ele><speed>21.32</speed><time>2016-06-29T12:31:43Z</time><pdop>13.0</pdop><geoidheight>53.00</geoidheight><course>44.6</course><type>1</type></trkpt>
      <trkpt lat="40.71336895" lon="-4.88791869"><ele>1995</ele><speed>19.21</speed><time>2016-06-29T12:31:45Z</time><pdop>9.0</pdop><geoidheight>53.00</geoidheight><course>50.5</course><type>1</type></trkpt>
      <trkpt lat="40.71355347" lon="-4.88757178"><ele>1990</ele><speed>18.52</speed><time>2016-06-29T12:31:47Z</time><pdop>12.0</pdop><geoidheight>53.00</geoidheight><course>52.7</course><type>1</type></trkpt>
      <trkpt lat="40.71376323" lon="-4.88725623"><ele>1984</ele><speed>17.56</speed><time>2016-06-29T12:31:49Z</time><pdop>14.0</pdop><geoidheight>53.00</geoidheight><course>49.9</course><type>1</type></trkpt>
      <trkpt lat="40.71402503" lon="-4.88689806"><ele>1979</ele><speed>18.84</speed><time>2016-06-29T12:31:51Z</time><pdop>11.0</pdop><geoidheight>53.00</geoidheight><course>49.9</course><type>1</type></trkpt>
      <trkpt lat="40.71415842" lon="-4.88672146"><ele>1977</ele><speed>18.94</speed><time>2016-06-29T12:31:52Z</time><pdop>9.0</pdop><geoidheight>53.00</geoidheight><course>51.1</course><type>1</type></trkpt>
      <trkpt lat="40.71425683" lon="-4.88655545"><ele>1973</ele><speed>18.45</speed><time>2016-06-29T12:31:53Z</time><pdop>8.0</pdop><geoidheight>53.00</geoidheight><course>51.5</course><type>1</type></trkpt>
      <trkpt lat="40.71437359" lon="-4.88636565"><ele>1971</ele><speed>18.31</speed><time>2016-06-29T12:31:54Z</time><pdop>9.0</pdop><geoidheight>53.00</geoidheight><course>51.4</course><type>1</type></trkpt>
      <trkpt lat="40.71449842" lon="-4.88620425"><ele>1967</ele><speed>18.38</speed><time>2016-06-29T12:31:55Z</time><pdop>10.0</pdop><geoidheight>53.00</geoidheight><course>50.9</course><type>1</type></trkpt>
      <trkpt lat="40.71461197" lon="-4.88602715"><ele>1963</ele><speed>18.96</speed><time>2016-06-29T12:31:56Z</time><pdop>9.0</pdop><geoidheight>53.00</geoidheight><course>54.1</course><type>1</type></trkpt>
      <trkpt lat="40.71474418" lon="-4.88583688"><ele>1959</ele><speed>20.44</speed><time>2016-06-29T12:31:57Z</time><pdop>8.0</pdop><geoidheight>53.00</geoidheight><course>53.5</course><type>1</type></trkpt>
      <trkpt lat="40.71484808" lon="-4.88562094"><ele>1955</ele><speed>20.97</speed><time>2016-06-29T12:31:58Z</time><pdop>9.0</pdop><geoidheight>53.00</geoidheight><course>55.7</course><type>1</type></trkpt>
      <trkpt lat="40.7149475" lon="-4.88541053"><ele>1952</ele><speed>21.28</speed><time>2016-06-29T12:31:59Z</time><pdop>9.0</pdop><geoidheight>53.00</geoidheight><course>58.1</course><type>1</type></trkpt>
      <trkpt lat="40.71504802" lon="-4.88518769"><ele>1950</ele><speed>21.93</speed><time>2016-06-29T12:32:00Z</time><pdop>9.0</pdop><geoidheight>53.00</geoidheight><course>58.7</course><type>1</type></trkpt>
      <trkpt lat="40.71515471" lon="-4.88497743"><ele>1949</ele><speed>21.60</speed><time>2016-06-29T12:32:01Z</time><pdop>10.0</pdop><geoidheight>53.00</geoidheight><course>58.7</course><type>1</type></trkpt>
      <trkpt lat="40.71525777" lon="-4.88476255"><ele>1949</ele><speed>21.23</speed><time>2016-06-29T12:32:02Z</time><pdop>10.0</pdop><geoidheight>53.00</geoidheight><course>58.6</course><type>1</type></trkpt>
      <trkpt lat="40.71543078" lon="-4.88438463"><ele>1947</ele><speed>19.46</speed><time>2016-06-29T12:32:04Z</time><pdop>10.0</pdop><geoidheight>53.00</geoidheight><course>59.5</course><type>1</type></trkpt>
      <trkpt lat="40.71556869" lon="-4.88423767"><ele>1940</ele><speed>19.31</speed><time>2016-06-29T12:32:05Z</time><pdop>9.0</pdop><geoidheight>53.00</geoidheight><course>52.8</course><type>1</type></trkpt>
      <trkpt lat="40.71569379" lon="-4.8840745"><ele>1936</ele><speed>18.34</speed><time>2016-06-29T12:32:06Z</time><pdop>8.0</pdop><geoidheight>53.00</geoidheight><course>51.3</course><type>1</type></trkpt>
      <trkpt lat="40.71582578" lon="-4.88391078"><ele>1932</ele><speed>19.33</speed><time>2016-06-29T12:32:07Z</time><pdop>8.0</pdop><geoidheight>53.00</geoidheight><course>47.8</course><type>1</type></trkpt>
      <trkpt lat="40.71594909" lon="-4.88372204"><ele>1925</ele><speed>20.34</speed><time>2016-06-29T12:32:08Z</time><pdop>7.0</pdop><geoidheight>53.00</geoidheight><course>50.4</course><type>1</type></trkpt>
      <trkpt lat="40.71607728" lon="-4.88354234"><ele>1922</ele><speed>21.02</speed><time>2016-06-29T12:32:09Z</time><pdop>7.0</pdop><geoidheight>53.00</geoidheight><course>50.2</course><type>1</type></trkpt>
      <trkpt lat="40.71619993" lon="-4.88335062"><ele>1920</ele><speed>21.47</speed><time>2016-06-29T12:32:10Z</time><pdop>8.0</pdop><geoidheight>53.00</geoidheight><course>52.0</course><type>1</type></trkpt>
      <trkpt lat="40.71629146" lon="-4.88313152"><ele>1915</ele><speed>21.21</speed><time>2016-06-29T12:32:11Z</time><pdop>7.0</pdop><geoidheight>53.00</geoidheight><course>57.1</course><type>1</type></trkpt>
      <trkpt lat="40.71639184" lon="-4.88292478"><ele>1912</ele><speed>20.91</speed><time>2016-06-29T12:32:12Z</time><pdop>7.0</pdop><geoidheight>53.00</geoidheight><course>59.1</course><type>1</type></trkpt>
      <trkpt lat="40.71649481" lon="-4.88272039"><ele>1907</ele><speed>20.68</speed><time>2016-06-29T12:32:13Z</time><pdop>7.0</pdop><geoidheight>53.00</geoidheight><course>60.2</course><type>1</type></trkpt>
      <trkpt lat="40.7165848" lon="-4.88250877"><ele>1905</ele><speed>20.19</speed><time>2016-06-29T12:32:14Z</time><pdop>8.0</pdop><geoidheight>53.00</geoidheight><course>60.9</course><type>1</type></trkpt>
      <trkpt lat="40.7166581" lon="-4.88230108"><ele>1903</ele><speed>19.84</speed><time>2016-06-29T12:32:15Z</time><pdop>9.0</pdop><geoidheight>53.00</geoidheight><course>64.5</course><type>1</type></trkpt>
      <trkpt lat="40.71672996" lon="-4.88206751"><ele>1900</ele><speed>20.67</speed><time>2016-06-29T12:32:16Z</time><pdop>11.0</pdop><geoidheight>53.00</geoidheight><course>66.4</course><type>1</type></trkpt>
      <trkpt lat="40.71682964" lon="-4.88156741"><ele>1896</ele><speed>21.23</speed><time>2016-06-29T12:32:18Z</time><pdop>15.0</pdop><geoidheight>53.00</geoidheight><course>72.2</course><type>1</type></trkpt>
      <trkpt lat="40.71695555" lon="-4.88108022"><ele>1894</ele><speed>21.58</speed><time>2016-06-29T12:32:20Z</time><pdop>17.0</pdop><geoidheight>53.00</geoidheight><course>71.8</course><type>1</type></trkpt>
      <trkpt lat="40.71703898" lon="-4.88067407"><ele>1889</ele><speed>19.67</speed><time>2016-06-29T12:32:22Z</time><pdop>16.0</pdop><geoidheight>53.00</geoidheight><course>74.9</course><type>1</type></trkpt>
      <trkpt lat="40.71716186" lon="-4.88017879"><ele>1885</ele><speed>20.63</speed><time>2016-06-29T12:32:24Z</time><pdop>17.0</pdop><geoidheight>53.00</geoidheight><course>75.7</course><type>1</type></trkpt>
      <trkpt lat="40.71722664" lon="-4.87973527"><ele>1883</ele><speed>20.51</speed><time>2016-06-29T12:32:26Z</time><pdop>19.0</pdop><geoidheight>53.00</geoidheight><course>79.6</course><type>1</type></trkpt>
      <trkpt lat="40.71737279" lon="-4.87907527"><ele>1877</ele><speed>20.11</speed><time>2016-06-29T12:32:29Z</time><pdop>23.0</pdop><geoidheight>53.00</geoidheight><course>78.9</course><type>1</type></trkpt>
      <trkpt lat="40.71753837" lon="-4.87834622"><ele>1906</ele><speed>20.90</speed><time>2016-06-29T12:32:32Z</time><pdop>28.0</pdop><geoidheight>53.00</geoidheight><course>80.4</course><type>1</type></trkpt>
      <trkpt lat="40.71769469" lon="-4.87757871"><ele>1895</ele><speed>22.08</speed><time>2016-06-29T12:32:35Z</time><pdop>31.0</pdop><geoidheight>53.00</geoidheight><course>81.9</course><type>1</type></trkpt>
      <trkpt lat="40.71787248" lon="-4.8768087"><ele>1878</ele><speed>22.16</speed><time>2016-06-29T12:32:38Z</time><pdop>23.0</pdop><geoidheight>53.00</geoidheight><course>82.8</course><type>1</type></trkpt>
      <trkpt lat="40.71794703" lon="-4.87625383"><ele>1866</ele><speed>21.91</speed><time>2016-06-29T12:32:40Z</time><pdop>20.0</pdop><geoidheight>53.00</geoidheight><course>85.2</course><type>1</type></trkpt>
      <trkpt lat="40.71798757" lon="-4.87576295"><ele>1855</ele><speed>21.62</speed><time>2016-06-29T12:32:42Z</time><pdop>17.0</pdop><geoidheight>53.00</geoidheight><course>84.9</course><type>1</type></trkpt>
      <trkpt lat="40.71805047" lon="-4.87524526"><ele>1848</ele><speed>21.64</speed><time>2016-06-29T12:32:44Z</time><pdop>20.0</pdop><geoidheight>53.00</geoidheight><course>85.5</course><type>1</type></trkpt>
      <trkpt lat="40.71809995" lon="-4.87474457"><ele>1843</ele><speed>21.03</speed><time>2016-06-29T12:32:46Z</time><pdop>20.0</pdop><geoidheight>53.00</geoidheight><course>87.3</course><type>1</type></trkpt>
      <trkpt lat="40.71817855" lon="-4.87402302"><ele>1834</ele><speed>20.75</speed><time>2016-06-29T12:32:49Z</time><pdop>22.0</pdop><geoidheight>53.00</geoidheight><course>86.6</course><type>1</type></trkpt>
      <trkpt lat="40.71824687" lon="-4.87351871"><ele>1825</ele><speed>20.07</speed><time>2016-06-29T12:32:51Z</time><pdop>20.0</pdop><geoidheight>53.00</geoidheight><course>84.3</course><type>1</type></trkpt>
      <trkpt lat="40.71825628" lon="-4.87287296"><ele>1819</ele><speed>18.46</speed><time>2016-06-29T12:32:54Z</time><pdop>18.0</pdop><geoidheight>53.00</geoidheight><course>86.8</course><type>1</type></trkpt>
      <trkpt lat="40.71835605" lon="-4.87215764"><ele>1812</ele><speed>20.06</speed><time>2016-06-29T12:32:57Z</time><pdop>26.0</pdop><geoidheight>53.00</geoidheight><course>86.5</course><type>1</type></trkpt>
      <trkpt lat="40.71850102" lon="-4.87142624"><ele>1805</ele><speed>19.84</speed><time>2016-06-29T12:33:00Z</time><pdop>28.0</pdop><geoidheight>53.00</geoidheight><course>86.3</course><type>1</type></trkpt>
      <trkpt lat="40.71861489" lon="-4.87072614"><ele>1800</ele><speed>19.93</speed><time>2016-06-29T12:33:03Z</time><pdop>31.0</pdop><geoidheight>53.00</geoidheight><course>85.7</course><type>1</type></trkpt>
      <trkpt lat="40.7188762" lon="-4.86969058"><ele>1789</ele><speed>21.06</speed><time>2016-06-29T12:33:07Z</time><pdop>28.0</pdop><geoidheight>53.00</geoidheight><course>78.7</course><type>1</type></trkpt>
      <trkpt lat="40.71905402" lon="-4.86908617"><ele>1779</ele><speed>17.96</speed><time>2016-06-29T12:33:10Z</time><pdop>23.0</pdop><geoidheight>53.00</geoidheight><course>73.5</course><type>1</type></trkpt>
      <trkpt lat="40.71935602" lon="-4.86843046"><ele>1768</ele><speed>20.54</speed><time>2016-06-29T12:33:13Z</time><pdop>23.0</pdop><geoidheight>53.00</geoidheight><course>67.0</course><type>1</type></trkpt>
      <trkpt lat="40.71955426" lon="-4.86796772"><ele>1759</ele><speed>19.77</speed><time>2016-06-29T12:33:15Z</time><pdop>21.0</pdop><geoidheight>53.00</geoidheight><course>66.5</course><type>1</type></trkpt>
      <trkpt lat="40.71977408" lon="-4.86733625"><ele>1754</ele><speed>19.19</speed><time>2016-06-29T12:33:18Z</time><pdop>21.0</pdop><geoidheight>53.00</geoidheight><course>70.4</course><type>1</type></trkpt>
      <trkpt lat="40.71999079" lon="-4.86675963"><ele>1749</ele><speed>18.51</speed><time>2016-06-29T12:33:21Z</time><pdop>23.0</pdop><geoidheight>53.00</geoidheight><course>65.4</course><type>1</type></trkpt>
      <trkpt lat="40.72030724" lon="-4.86615612"><ele>1737</ele><speed>18.27</speed><time>2016-06-29T12:33:24Z</time><pdop>20.0</pdop><geoidheight>53.00</geoidheight><course>65.5</course><type>1</type></trkpt>
      <trkpt lat="40.72057103" lon="-4.8655534"><ele>1794</ele><speed>18.92</speed><time>2016-06-29T12:33:27Z</time><pdop>24.0</pdop><geoidheight>53.00</geoidheight><course>65.1</course><type>1</type></trkpt>
      <trkpt lat="40.72086781" lon="-4.86492102"><ele>1771</ele><speed>19.05</speed><time>2016-06-29T12:33:30Z</time><pdop>33.0</pdop><geoidheight>53.00</geoidheight><course>61.6</course><type>1</type></trkpt>
      <trkpt lat="40.72136645" lon="-4.86438476"><ele>1752</ele><speed>18.26</speed><time>2016-06-29T12:33:33Z</time><pdop>31.0</pdop><geoidheight>53.00</geoidheight><course>49.5</course><type>1</type></trkpt>
      <trkpt lat="40.72183613" lon="-4.8638425"><ele>1730</ele><speed>19.66</speed><time>2016-06-29T12:33:36Z</time><pdop>29.0</pdop><geoidheight>53.00</geoidheight><course>47.9</course><type>1</type></trkpt>
      <trkpt lat="40.7222268" lon="-4.86354073"><ele>1716</ele><speed>20.16</speed><time>2016-06-29T12:33:38Z</time><pdop>19.0</pdop><geoidheight>53.00</geoidheight><course>39.0</course><type>1</type></trkpt>
      <trkpt lat="40.72259599" lon="-4.86328273"><ele>1702</ele><speed>17.10</speed><time>2016-06-29T12:33:41Z</time><pdop>12.0</pdop><geoidheight>53.00</geoidheight><course>28.8</course><type>1</type></trkpt>
      <trkpt lat="40.72284441" lon="-4.86305446"><ele>1693</ele><speed>17.18</speed><time>2016-06-29T12:33:43Z</time><pdop>12.0</pdop><geoidheight>53.00</geoidheight><course>34.5</course><type>1</type></trkpt>
      <trkpt lat="40.7231414" lon="-4.86279248"><ele>1689</ele><speed>18.26</speed><time>2016-06-29T12:33:45Z</time><pdop>16.0</pdop><geoidheight>53.00</geoidheight><course>34.3</course><type>1</type></trkpt>
      <trkpt lat="40.72344358" lon="-4.8625224"><ele>1682</ele><speed>19.19</speed><time>2016-06-29T12:33:47Z</time><pdop>10.0</pdop><geoidheight>53.00</geoidheight><course>34.6</course><type>1</type></trkpt>
      <trkpt lat="40.72374393" lon="-4.86224007"><ele>1677</ele><speed>19.90</speed><time>2016-06-29T12:33:49Z</time><pdop>12.0</pdop><geoidheight>53.00</geoidheight><course>36.6</course><type>1</type></trkpt>
      <trkpt lat="40.72403829" lon="-4.86197465"><ele>1676</ele><speed>19.35</speed><time>2016-06-29T12:33:51Z</time><pdop>13.0</pdop><geoidheight>53.00</geoidheight><course>34.4</course><type>1</type></trkpt>
      <trkpt lat="40.72435712" lon="-4.86168747"><ele>1672</ele><speed>20.03</speed><time>2016-06-29T12:33:53Z</time><pdop>18.0</pdop><geoidheight>53.00</geoidheight><course>36.3</course><type>1</type></trkpt>
      <trkpt lat="40.72466142" lon="-4.86139025"><ele>1665</ele><speed>20.43</speed><time>2016-06-29T12:33:55Z</time><pdop>14.0</pdop><geoidheight>53.00</geoidheight><course>35.8</course><type>1</type></trkpt>
      <trkpt lat="40.72494447" lon="-4.86110158"><ele>1660</ele><speed>20.20</speed><time>2016-06-29T12:33:57Z</time><pdop>14.0</pdop><geoidheight>53.00</geoidheight><course>37.1</course><type>1</type></trkpt>
      <trkpt lat="40.72519746" lon="-4.86079841"><ele>1653</ele><speed>20.14</speed><time>2016-06-29T12:33:59Z</time><pdop>13.0</pdop><geoidheight>53.00</geoidheight><course>40.4</course><type>1</type></trkpt>
      <trkpt lat="40.72545592" lon="-4.86055944"><ele>1646</ele><speed>18.58</speed><time>2016-06-29T12:34:01Z</time><pdop>13.0</pdop><geoidheight>53.00</geoidheight><course>37.4</course><type>1</type></trkpt>
      <trkpt lat="40.72578368" lon="-4.86040424"><ele>1641</ele><speed>18.43</speed><time>2016-06-29T12:34:03Z</time><pdop>17.0</pdop><geoidheight>53.00</geoidheight><course>25.0</course><type>1</type></trkpt>
      <trkpt lat="40.72606364" lon="-4.86032563"><ele>1631</ele><speed>16.85</speed><time>2016-06-29T12:34:05Z</time><pdop>13.0</pdop><geoidheight>53.00</geoidheight><course>15.2</course><type>1</type></trkpt>
      <trkpt lat="40.72629985" lon="-4.86017744"><ele>1619</ele><speed>17.36</speed><time>2016-06-29T12:34:07Z</time><pdop>10.0</pdop><geoidheight>53.00</geoidheight><course>20.1</course><type>1</type></trkpt>
      <trkpt lat="40.72658913" lon="-4.86004939"><ele>1605</ele><speed>17.20</speed><time>2016-06-29T12:34:09Z</time><pdop>11.0</pdop><geoidheight>53.00</geoidheight><course>18.3</course><type>1</type></trkpt>
      <trkpt lat="40.72688279" lon="-4.8598856"><ele>1591</ele><speed>17.71</speed><time>2016-06-29T12:34:11Z</time><pdop>11.0</pdop><geoidheight>53.00</geoidheight><course>19.5</course><type>1</type></trkpt>
      <trkpt lat="40.72717696" lon="-4.85970448"><ele>1581</ele><speed>18.46</speed><time>2016-06-29T12:34:13Z</time><pdop>11.0</pdop><geoidheight>53.00</geoidheight><course>23.7</course><type>1</type></trkpt>
      <trkpt lat="40.72747776" lon="-4.85950871"><ele>1575</ele><speed>18.47</speed><time>2016-06-29T12:34:15Z</time><pdop>11.0</pdop><geoidheight>53.00</geoidheight><course>24.6</course><type>1</type></trkpt>
      <trkpt lat="40.72775914" lon="-4.85924104"><ele>1569</ele><speed>17.99</speed><time>2016-06-29T12:34:17Z</time><pdop>12.0</pdop><geoidheight>53.00</geoidheight><course>29.4</course><type>1</type></trkpt>
      <trkpt lat="40.72796111" lon="-4.85900854"><ele>1568</ele><speed>12.59</speed><time>2016-06-29T12:34:20Z</time><pdop>12.0</pdop><geoidheight>53.00</geoidheight><course>37.0</course><type>1</type></trkpt>
      <trkpt lat="40.72827057" lon="-4.85883541"><ele>1566</ele><speed>17.07</speed><time>2016-06-29T12:34:22Z</time><pdop>13.0</pdop><geoidheight>53.00</geoidheight><course>26.1</course><type>1</type></trkpt>
      <trkpt lat="40.72855703" lon="-4.85854362"><ele>1563</ele><speed>19.18</speed><time>2016-06-29T12:34:24Z</time><pdop>12.0</pdop><geoidheight>53.00</geoidheight><course>37.4</course><type>1</type></trkpt>
      <trkpt lat="40.72867167" lon="-4.85825584"><ele>1564</ele><speed>13.83</speed><time>2016-06-29T12:34:26Z</time><pdop>11.0</pdop><geoidheight>53.00</geoidheight><course>58.7</course><type>1</type></trkpt>
      <trkpt lat="40.72884435" lon="-4.85796696"><ele>1564</ele><speed>14.92</speed><time>2016-06-29T12:34:28Z</time><pdop>11.0</pdop><geoidheight>53.00</geoidheight><course>56.1</course><type>1</type></trkpt>
      <trkpt lat="40.72897711" lon="-4.85761141"><ele>1564</ele><speed>17.54</speed><time>2016-06-29T12:34:30Z</time><pdop>8.0</pdop><geoidheight>53.00</geoidheight><course>65.6</course><type>1</type></trkpt>
      <trkpt lat="40.72895494" lon="-4.85738037"><ele>1562</ele><speed>18.43</speed><time>2016-06-29T12:34:31Z</time><pdop>6.0</pdop><geoidheight>53.00</geoidheight><course>79.7</course><type>1</type></trkpt>
      <trkpt lat="40.72901201" lon="-4.85715928"><ele>1561</ele><speed>18.53</speed><time>2016-06-29T12:34:32Z</time><pdop>7.0</pdop><geoidheight>53.00</geoidheight><course>78.4</course><type>1</type></trkpt>
      <trkpt lat="40.72899627" lon="-4.85683846"><ele>1560</ele><speed>15.27</speed><time>2016-06-29T12:34:34Z</time><pdop>8.0</pdop><geoidheight>53.00</geoidheight><course>88.2</course><type>1</type></trkpt>
      <trkpt lat="40.72889102" lon="-4.85658599"><ele>1560</ele><speed>8.87</speed><time>2016-06-29T12:34:37Z</time><pdop>11.0</pdop><geoidheight>53.00</geoidheight><course>112.6</course><type>1</type></trkpt>
      <trkpt lat="40.72869566" lon="-4.85637444"><ele>1561</ele><speed>9.86</speed><time>2016-06-29T12:34:39Z</time><pdop>7.0</pdop><geoidheight>53.00</geoidheight><course>132.3</course><type>1</type></trkpt>
      <trkpt lat="40.72852666" lon="-4.85626963"><ele>1562</ele><speed>9.48</speed><time>2016-06-29T12:34:41Z</time><pdop>6.0</pdop><geoidheight>53.00</geoidheight><course>154.4</course><type>1</type></trkpt>
      <trkpt lat="40.72836783" lon="-4.85621332"><ele>1565</ele><speed>7.60</speed><time>2016-06-29T12:34:43Z</time><pdop>5.0</pdop><geoidheight>53.00</geoidheight><course>168.2</course><type>1</type></trkpt>
      <trkpt lat="40.72825586" lon="-4.85619448"><ele>1569</ele><speed>6.20</speed><time>2016-06-29T12:34:45Z</time><pdop>5.0</pdop><geoidheight>53.00</geoidheight><course>170.4</course><type>1</type></trkpt>
      <trkpt lat="40.72811572" lon="-4.85610905"><ele>1571</ele><speed>7.80</speed><time>2016-06-29T12:34:47Z</time><pdop>6.0</pdop><geoidheight>53.00</geoidheight><course>153.9</course><type>1</type></trkpt>
      <trkpt lat="40.72798351" lon="-4.85598724"><ele>1576</ele><speed>9.18</speed><time>2016-06-29T12:34:49Z</time><pdop>5.0</pdop><geoidheight>53.00</geoidheight><course>147.5</course><type>1</type></trkpt>
      <trkpt lat="40.72785087" lon="-4.85589151"><ele>1578</ele><speed>8.40</speed><time>2016-06-29T12:34:51Z</time><pdop>5.0</pdop><geoidheight>53.00</geoidheight><course>149.2</course><type>1</type></trkpt>
      <trkpt lat="40.72776016" lon="-4.85581728"><ele>1580</ele><speed>6.57</speed><time>2016-06-29T12:34:53Z</time><pdop>5.0</pdop><geoidheight>53.00</geoidheight><course>147.3</course><type>1</type></trkpt>
      <trkpt lat="40.72766159" lon="-4.85578662"><ele>1579</ele><speed>2.35</speed><time>2016-06-29T12:34:56Z</time><pdop>5.0</pdop><geoidheight>53.00</geoidheight><course>202.3</course><type>1</type></trkpt>
      <trkpt lat="40.72773334" lon="-4.85585016"><ele>1578</ele><speed>5.26</speed><time>2016-06-29T12:34:58Z</time><pdop>4.0</pdop><geoidheight>53.00</geoidheight><course>332.9</course><type>1</type></trkpt>
      <trkpt lat="40.72781949" lon="-4.85586807"><ele>1575</ele><speed>8.82</speed><time>2016-06-29T12:34:59Z</time><pdop>4.0</pdop><geoidheight>53.00</geoidheight><course>353.8</course><type>1</type></trkpt>
      <trkpt lat="40.72793078" lon="-4.85585014"><ele>1574</ele><speed>11.79</speed><time>2016-06-29T12:35:00Z</time><pdop>3.0</pdop><geoidheight>53.00</geoidheight><course>7.7</course><type>1</type></trkpt>
      <trkpt lat="40.72804822" lon="-4.85580647"><ele>1575</ele><speed>13.58</speed><time>2016-06-29T12:35:01Z</time><pdop>3.0</pdop><geoidheight>53.00</geoidheight><course>16.8</course><type>1</type></trkpt>
      <trkpt lat="40.72816096" lon="-4.85573901"><ele>1574</ele><speed>13.82</speed><time>2016-06-29T12:35:02Z</time><pdop>5.0</pdop><geoidheight>53.00</geoidheight><course>23.3</course><type>1</type></trkpt>
      <trkpt lat="40.72826003" lon="-4.85557995"><ele>1576</ele><speed>16.15</speed><time>2016-06-29T12:35:03Z</time><pdop>5.0</pdop><geoidheight>53.00</geoidheight><course>40.5</course><type>1</type></trkpt>
      <trkpt lat="40.72835667" lon="-4.85543708"><ele>1577</ele><speed>16.41</speed><time>2016-06-29T12:35:04Z</time><pdop>5.0</pdop><geoidheight>53.00</geoidheight><course>48.4</course><type>1</type></trkpt>
      <trkpt lat="40.72843752" lon="-4.85528473"><ele>1577</ele><speed>15.54</speed><time>2016-06-29T12:35:05Z</time><pdop>5.0</pdop><geoidheight>53.00</geoidheight><course>54.3</course><type>1</type></trkpt>
      <trkpt lat="40.72850479" lon="-4.85511858"><ele>1577</ele><speed>15.60</speed><time>2016-06-29T12:35:06Z</time><pdop>5.0</pdop><geoidheight>53.00</geoidheight><course>59.6</course><type>1</type></trkpt>
      <trkpt lat="40.72857247" lon="-4.85495428"><ele>1577</ele><speed>16.05</speed><time>2016-06-29T12:35:07Z</time><pdop>6.0</pdop><geoidheight>53.00</geoidheight><course>62.0</course><type>1</type></trkpt>
      <trkpt lat="40.72863683" lon="-4.85477675"><ele>1576</ele><speed>16.62</speed><time>2016-06-29T12:35:08Z</time><pdop>8.0</pdop><geoidheight>53.00</geoidheight><course>65.1</course><type>1</type></trkpt>
      <trkpt lat="40.72868809" lon="-4.85452902"><ele>1575</ele><speed>18.92</speed><time>2016-06-29T12:35:09Z</time><pdop>7.0</pdop><geoidheight>53.00</geoidheight><course>72.6</course><type>1</type></trkpt>
      <trkpt lat="40.72874788" lon="-4.85428798"><ele>1575</ele><speed>19.79</speed><time>2016-06-29T12:35:10Z</time><pdop>7.0</pdop><geoidheight>53.00</geoidheight><course>74.5</course><type>1</type></trkpt>
      <trkpt lat="40.72879333" lon="-4.85406021"><ele>1577</ele><speed>19.23</speed><time>2016-06-29T12:35:11Z</time><pdop>7.0</pdop><geoidheight>53.00</geoidheight><course>74.1</course><type>1</type></trkpt>
      <trkpt lat="40.7288208" lon="-4.85384553"><ele>1580</ele><speed>18.06</speed><time>2016-06-29T12:35:12Z</time><pdop>7.0</pdop><geoidheight>53.00</geoidheight><course>76.3</course><type>1</type></trkpt>
      <trkpt lat="40.72885908" lon="-4.8536752"><ele>1581</ele><speed>16.18</speed><time>2016-06-29T12:35:13Z</time><pdop>7.0</pdop><geoidheight>53.00</geoidheight><course>74.4</course><type>1</type></trkpt>
      <trkpt lat="40.72887729" lon="-4.85351213"><ele>1581</ele><speed>15.95</speed><time>2016-06-29T12:35:14Z</time><pdop>6.0</pdop><geoidheight>53.00</geoidheight><course>78.5</course><type>1</type></trkpt>
      <trkpt lat="40.72891003" lon="-4.85332708"><ele>1581</ele><speed>16.03</speed><time>2016-06-29T12:35:15Z</time><pdop>5.0</pdop><geoidheight>53.00</geoidheight><course>78.9</course><type>1</type></trkpt>
      <trkpt lat="40.7289391" lon="-4.85312918"><ele>1582</ele><speed>16.38</speed><time>2016-06-29T12:35:16Z</time><pdop>6.0</pdop><geoidheight>53.00</geoidheight><course>80.1</course><type>1</type></trkpt>
      <trkpt lat="40.72892461" lon="-4.85293333"><ele>1580</ele><speed>15.90</speed><time>2016-06-29T12:35:17Z</time><pdop>7.0</pdop><geoidheight>53.00</geoidheight><course>87.9</course><type>1</type></trkpt>
      <trkpt lat="40.7288763" lon="-4.85276528"><ele>1582</ele><speed>14.98</speed><time>2016-06-29T12:35:18Z</time><pdop>7.0</pdop><geoidheight>53.00</geoidheight><course>98.4</course><type>1</type></trkpt>
      <trkpt lat="40.72882049" lon="-4.85260354"><ele>1584</ele><speed>13.96</speed><time>2016-06-29T12:35:19Z</time><pdop>7.0</pdop><geoidheight>53.00</geoidheight><course>109.5</course><type>1</type></trkpt>
      <trkpt lat="40.72875022" lon="-4.85245086"><ele>1583</ele><speed>14.58</speed><time>2016-06-29T12:35:20Z</time><pdop>8.0</pdop><geoidheight>53.00</geoidheight><course>116.3</course><type>1</type></trkpt>
      <trkpt lat="40.72862182" lon="-4.85237396"><ele>1585</ele><speed>4.32</speed><time>2016-06-29T12:35:23Z</time><pdop>6.0</pdop><geoidheight>53.00</geoidheight><course>144.4</course><type>1</type></trkpt>
      <trkpt lat="40.7287214" lon="-4.85245767"><ele>1585</ele><speed>6.29</speed><time>2016-06-29T12:35:29Z</time><pdop>5.0</pdop><geoidheight>53.00</geoidheight><course>349.0</course><type>1</type></trkpt>
      <trkpt lat="40.72881206" lon="-4.85239951"><ele>1585</ele><speed>7.92</speed><time>2016-06-29T12:35:30Z</time><pdop>6.0</pdop><geoidheight>53.00</geoidheight><course>16.9</course><type>1</type></trkpt>
      <trkpt lat="40.7289971" lon="-4.85223942"><ele>1586</ele><speed>12.69</speed><time>2016-06-29T12:35:32Z</time><pdop>8.0</pdop><geoidheight>53.00</geoidheight><course>37.5</course><type>1</type></trkpt>
      <trkpt lat="40.72909844" lon="-4.85208011"><ele>1585</ele><speed>14.74</speed><time>2016-06-29T12:35:33Z</time><pdop>8.0</pdop><geoidheight>53.00</geoidheight><course>43.5</course><type>1</type></trkpt>
      <trkpt lat="40.72924181" lon="-4.85172917"><ele>1586</ele><speed>16.32</speed><time>2016-06-29T12:35:35Z</time><pdop>10.0</pdop><geoidheight>53.00</geoidheight><course>58.3</course><type>1</type></trkpt>
      <trkpt lat="40.72933106" lon="-4.85150121"><ele>1585</ele><speed>18.35</speed><time>2016-06-29T12:35:36Z</time><pdop>11.0</pdop><geoidheight>53.00</geoidheight><course>61.9</course><type>1</type></trkpt>
      <trkpt lat="40.72934036" lon="-4.85124919"><ele>1586</ele><speed>19.03</speed><time>2016-06-29T12:35:37Z</time><pdop>9.0</pdop><geoidheight>53.00</geoidheight><course>72.3</course><type>1</type></trkpt>
      <trkpt lat="40.72936243" lon="-4.85099108"><ele>1586</ele><speed>19.72</speed><time>2016-06-29T12:35:38Z</time><pdop>8.0</pdop><geoidheight>53.00</geoidheight><course>76.6</course><type>1</type></trkpt>
      <trkpt lat="40.72935449" lon="-4.85075705"><ele>1587</ele><speed>19.29</speed><time>2016-06-29T12:35:39Z</time><pdop>9.0</pdop><geoidheight>53.00</geoidheight><course>80.3</course><type>1</type></trkpt>
      <trkpt lat="40.72925582" lon="-4.85046382"><ele>1589</ele><speed>13.97</speed><time>2016-06-29T12:35:41Z</time><pdop>9.0</pdop><geoidheight>53.00</geoidheight><course>93.8</course><type>1</type></trkpt>
      <trkpt lat="40.72904513" lon="-4.85039772"><ele>1588</ele><speed>6.02</speed><time>2016-06-29T12:35:44Z</time><pdop>8.0</pdop><geoidheight>53.00</geoidheight><course>152.8</course><type>1</type></trkpt>
      <trkpt lat="40.72895344" lon="-4.85052272"><ele>1589</ele><speed>1.60</speed><time>2016-06-29T12:35:49Z</time><pdop>6.0</pdop><geoidheight>53.00</geoidheight><course>233.0</course><type>1</type></trkpt>
      <trkpt lat="40.72886796" lon="-4.85062998"><ele>1588</ele><speed>2.79</speed><time>2016-06-29T12:35:55Z</time><pdop>5.0</pdop><geoidheight>53.00</geoidheight><course>215.8</course><type>1</type></trkpt>
      <trkpt lat="40.72880669" lon="-4.85072306"><ele>1589</ele><speed>1.32</speed><time>2016-06-29T12:36:01Z</time><pdop>4.0</pdop><geoidheight>53.00</geoidheight><course>237.2</course><type>1</type></trkpt>
      <trkpt lat="40.72883251" lon="-4.85086136"><ele>1588</ele><speed>2.60</speed><time>2016-06-29T12:36:15Z</time><pdop>8.0</pdop><geoidheight>53.00</geoidheight><course>260.6</course><type>1</type></trkpt>
      <trkpt lat="40.72893301" lon="-4.85098854"><ele>1590</ele><speed>1.01</speed><time>2016-06-29T12:36:23Z</time><pdop>7.0</pdop><geoidheight>53.00</geoidheight><course>340.6</course><type>1</type></trkpt>
      <trkpt lat="40.72873504" lon="-4.85100071"><ele>1597</ele><speed>4.69</speed><time>2016-06-29T12:36:32Z</time><pdop>14.0</pdop><geoidheight>53.00</geoidheight><course>158.6</course><type>1</type></trkpt>
      <trkpt lat="40.72852358" lon="-4.85089831"><ele>1603</ele><speed>6.03</speed><time>2016-06-29T12:36:35Z</time><pdop>9.0</pdop><geoidheight>53.00</geoidheight><course>161.5</course><type>1</type></trkpt>
      <trkpt lat="40.72837546" lon="-4.85086455"><ele>1612</ele><speed>2.75</speed><time>2016-06-29T12:36:39Z</time><pdop>6.0</pdop><geoidheight>53.00</geoidheight><course>176.1</course><type>1</type></trkpt>
      <trkpt lat="40.72846749" lon="-4.85091835"><ele>1617</ele><speed>8.10</speed><time>2016-06-29T12:36:43Z</time><pdop>5.0</pdop><geoidheight>53.00</geoidheight><course>349.5</course><type>1</type></trkpt>
      <trkpt lat="40.72862603" lon="-4.85089307"><ele>1619</ele><speed>9.45</speed><time>2016-06-29T12:36:45Z</time><pdop>8.0</pdop><geoidheight>53.00</geoidheight><course>6.5</course><type>1</type></trkpt>
      <trkpt lat="40.72874184" lon="-4.85063868"><ele>1619</ele><speed>10.55</speed><time>2016-06-29T12:36:47Z</time><pdop>12.0</pdop><geoidheight>53.00</geoidheight><course>50.2</course><type>1</type></trkpt>
      <trkpt lat="40.72872939" lon="-4.85031043"><ele>1623</ele><speed>18.08</speed><time>2016-06-29T12:36:48Z</time><pdop>8.0</pdop><geoidheight>53.00</geoidheight><course>83.5</course><type>1</type></trkpt>
      <trkpt lat="40.72875254" lon="-4.85008123"><ele>1624</ele><speed>17.77</speed><time>2016-06-29T12:36:49Z</time><pdop>7.0</pdop><geoidheight>53.00</geoidheight><course>88.8</course><type>1</type></trkpt>
      <trkpt lat="40.72875423" lon="-4.84988301"><ele>1624</ele><speed>17.19</speed><time>2016-06-29T12:36:50Z</time><pdop>8.0</pdop><geoidheight>53.00</geoidheight><course>90.2</course><type>1</type></trkpt>
      <trkpt lat="40.72863846" lon="-4.84961563"><ele>1625</ele><speed>13.01</speed><time>2016-06-29T12:36:52Z</time><pdop>11.0</pdop><geoidheight>53.00</geoidheight><course>111.9</course><type>1</type></trkpt>
      <trkpt lat="40.72845434" lon="-4.84939722"><ele>1630</ele><speed>12.12</speed><time>2016-06-29T12:36:54Z</time><pdop>9.0</pdop><geoidheight>53.00</geoidheight><course>135.5</course><type>1</type></trkpt>
      <trkpt lat="40.72832946" lon="-4.84923617"><ele>1636</ele><speed>10.19</speed><time>2016-06-29T12:36:56Z</time><pdop>8.0</pdop><geoidheight>53.00</geoidheight><course>143.3</course><type>1</type></trkpt>
      <trkpt lat="40.72820245" lon="-4.84913541"><ele>1640</ele><speed>7.25</speed><time>2016-06-29T12:36:58Z</time><pdop>7.0</pdop><geoidheight>53.00</geoidheight><course>158.8</course><type>1</type></trkpt>
      <trkpt lat="40.72832855" lon="-4.84920793"><ele>1655</ele><speed>10.15</speed><time>2016-06-29T12:37:05Z</time><pdop>4.0</pdop><geoidheight>53.00</geoidheight><course>14.4</course><type>1</type></trkpt>
      <trkpt lat="40.72841809" lon="-4.84915029"><ele>1657</ele><speed>11.35</speed><time>2016-06-29T12:37:06Z</time><pdop>5.0</pdop><geoidheight>53.00</geoidheight><course>24.5</course><type>1</type></trkpt>
      <trkpt lat="40.72851761" lon="-4.84904985"><ele>1658</ele><speed>13.03</speed><time>2016-06-29T12:37:07Z</time><pdop>6.0</pdop><geoidheight>53.00</geoidheight><course>34.7</course><type>1</type></trkpt>
      <trkpt lat="40.72860474" lon="-4.84893441"><ele>1658</ele><speed>14.03</speed><time>2016-06-29T12:37:08Z</time><pdop>7.0</pdop><geoidheight>53.00</geoidheight><course>40.5</course><type>1</type></trkpt>
      <trkpt lat="40.72870868" lon="-4.84878393"><ele>1660</ele><speed>15.56</speed><time>2016-06-29T12:37:09Z</time><pdop>10.0</pdop><geoidheight>53.00</geoidheight><course>44.2</course><type>1</type></trkpt>
      <trkpt lat="40.72872637" lon="-4.84844068"><ele>1662</ele><speed>13.73</speed><time>2016-06-29T12:37:11Z</time><pdop>11.0</pdop><geoidheight>53.00</geoidheight><course>68.3</course><type>1</type></trkpt>
      <trkpt lat="40.72858942" lon="-4.84797137"><ele>1663</ele><speed>11.20</speed><time>2016-06-29T12:37:14Z</time><pdop>15.0</pdop><geoidheight>53.00</geoidheight><course>108.2</course><type>1</type></trkpt>
      <trkpt lat="40.7284076" lon="-4.84772912"><ele>1671</ele><speed>10.22</speed><time>2016-06-29T12:37:16Z</time><pdop>11.0</pdop><geoidheight>53.00</geoidheight><course>137.9</course><type>1</type></trkpt>
      <trkpt lat="40.72822989" lon="-4.84752321"><ele>1681</ele><speed>5.79</speed><time>2016-06-29T12:37:19Z</time><pdop>9.0</pdop><geoidheight>53.00</geoidheight><course>144.6</course><type>1</type></trkpt>
      <trkpt lat="40.72806538" lon="-4.8474908"><ele>1686</ele><speed>4.00</speed><time>2016-06-29T12:37:23Z</time><pdop>9.0</pdop><geoidheight>53.00</geoidheight><course>211.7</course><type>1</type></trkpt>
      <trkpt lat="40.72798273" lon="-4.84765787"><ele>1694</ele><speed>6.19</speed><time>2016-06-29T12:37:26Z</time><pdop>6.0</pdop><geoidheight>53.00</geoidheight><course>243.1</course><type>1</type></trkpt>
      <trkpt lat="40.72800385" lon="-4.84780862"><ele>1697</ele><speed>5.63</speed><time>2016-06-29T12:37:29Z</time><pdop>5.0</pdop><geoidheight>53.00</geoidheight><course>314.7</course><type>1</type></trkpt>
      <trkpt lat="40.72811014" lon="-4.84788407"><ele>1701</ele><speed>6.70</speed><time>2016-06-29T12:37:31Z</time><pdop>7.0</pdop><geoidheight>53.00</geoidheight><course>332.8</course><type>1</type></trkpt>
      <trkpt lat="40.72827298" lon="-4.84775676"><ele>1702</ele><speed>7.72</speed><time>2016-06-29T12:37:33Z</time><pdop>10.0</pdop><geoidheight>53.00</geoidheight><course>20.4</course><type>1</type></trkpt>
      <trkpt lat="40.72846817" lon="-4.84740585"><ele>1701</ele><speed>12.89</speed><time>2016-06-29T12:37:35Z</time><pdop>10.0</pdop><geoidheight>53.00</geoidheight><course>49.9</course><type>1</type></trkpt>
      <trkpt lat="40.72857376" lon="-4.84695781"><ele>1702</ele><speed>17.24</speed><time>2016-06-29T12:37:37Z</time><pdop>11.0</pdop><geoidheight>53.00</geoidheight><course>67.6</course><type>1</type></trkpt>
      <trkpt lat="40.72861693" lon="-4.84667979"><ele>1701</ele><speed>19.40</speed><time>2016-06-29T12:37:38Z</time><pdop>10.0</pdop><geoidheight>53.00</geoidheight><course>73.0</course><type>1</type></trkpt>
      <trkpt lat="40.72862198" lon="-4.84643995"><ele>1700</ele><speed>19.66</speed><time>2016-06-29T12:37:39Z</time><pdop>9.0</pdop><geoidheight>53.00</geoidheight><course>77.6</course><type>1</type></trkpt>
      <trkpt lat="40.72861986" lon="-4.84620757"><ele>1700</ele><speed>19.45</speed><time>2016-06-29T12:37:40Z</time><pdop>10.0</pdop><geoidheight>53.00</geoidheight><course>81.0</course><type>1</type></trkpt>
      <trkpt lat="40.72847354" lon="-4.84604195"><ele>1701</ele><speed>17.00</speed><time>2016-06-29T12:37:41Z</time><pdop>8.0</pdop><geoidheight>53.00</geoidheight><course>102.2</course><type>1</type></trkpt>
      <trkpt lat="40.72834144" lon="-4.84579346"><ele>1701</ele><speed>13.10</speed><time>2016-06-29T12:37:43Z</time><pdop>7.0</pdop><geoidheight>53.00</geoidheight><course>120.0</course><type>1</type></trkpt>
      <trkpt lat="40.72817811" lon="-4.84560005"><ele>1702</ele><speed>12.04</speed><time>2016-06-29T12:37:45Z</time><pdop>8.0</pdop><geoidheight>53.00</geoidheight><course>134.6</course><type>1</type></trkpt>
      <trkpt lat="40.72824703" lon="-4.84579581"><ele>1709</ele><speed>6.60</speed><time>2016-06-29T12:37:50Z</time><pdop>9.0</pdop><geoidheight>53.00</geoidheight><course>320.8</course><type>1</type></trkpt>
      <trkpt lat="40.72849267" lon="-4.8456065"><ele>1710</ele><speed>8.35</speed><time>2016-06-29T12:37:53Z</time><pdop>16.0</pdop><geoidheight>53.00</geoidheight><course>20.7</course><type>1</type></trkpt>
      <trkpt lat="40.72849351" lon="-4.84522127"><ele>1714</ele><speed>16.62</speed><time>2016-06-29T12:37:54Z</time><pdop>9.0</pdop><geoidheight>53.00</geoidheight><course>74.0</course><type>1</type></trkpt>
      <trkpt lat="40.72855603" lon="-4.84482817"><ele>1715</ele><speed>15.52</speed><time>2016-06-29T12:37:56Z</time><pdop>6.0</pdop><geoidheight>53.00</geoidheight><course>91.6</course><type>1</type></trkpt>
      <trkpt lat="40.72854374" lon="-4.84464738"><ele>1716</ele><speed>15.74</speed><time>2016-06-29T12:37:57Z</time><pdop>6.0</pdop><geoidheight>53.00</geoidheight><course>98.3</course><type>1</type></trkpt>
      <trkpt lat="40.72852282" lon="-4.84446727"><ele>1717</ele><speed>15.67</speed><time>2016-06-29T12:37:58Z</time><pdop>6.0</pdop><geoidheight>53.00</geoidheight><course>98.4</course><type>1</type></trkpt>
      <trkpt lat="40.72850251" lon="-4.84428284"><ele>1718</ele><speed>15.47</speed><time>2016-06-29T12:37:59Z</time><pdop>6.0</pdop><geoidheight>53.00</geoidheight><course>98.9</course><type>1</type></trkpt>
      <trkpt lat="40.72843098" lon="-4.84400636"><ele>1721</ele><speed>12.63</speed><time>2016-06-29T12:38:01Z</time><pdop>7.0</pdop><geoidheight>53.00</geoidheight><course>112.6</course><type>1</type></trkpt>
      <trkpt lat="40.72832486" lon="-4.84396708"><ele>1731</ele><speed>5.83</speed><time>2016-06-29T12:38:04Z</time><pdop>5.0</pdop><geoidheight>53.00</geoidheight><course>167.8</course><type>1</type></trkpt>
      <trkpt lat="40.72837602" lon="-4.84408304"><ele>1737</ele><speed>6.20</speed><time>2016-06-29T12:38:08Z</time><pdop>5.0</pdop><geoidheight>53.00</geoidheight><course>333.5</course><type>1</type></trkpt>
      <trkpt lat="40.72849063" lon="-4.84404493"><ele>1741</ele><speed>6.36</speed><time>2016-06-29T12:38:10Z</time><pdop>7.0</pdop><geoidheight>53.00</geoidheight><course>7.8</course><type>1</type></trkpt>
      <trkpt lat="40.72857706" lon="-4.84373458"><ele>1744</ele><speed>11.15</speed><time>2016-06-29T12:38:12Z</time><pdop>11.0</pdop><geoidheight>53.00</geoidheight><course>60.1</course><type>1</type></trkpt>
      <trkpt lat="40.72867049" lon="-4.84331614"><ele>1744</ele><speed>18.26</speed><time>2016-06-29T12:38:14Z</time><pdop>9.0</pdop><geoidheight>53.00</geoidheight><course>78.1</course><type>1</type></trkpt>
      <trkpt lat="40.72873443" lon="-4.84308429"><ele>1744</ele><speed>19.24</speed><time>2016-06-29T12:38:15Z</time><pdop>7.0</pdop><geoidheight>53.00</geoidheight><course>81.6</course><type>1</type></trkpt>
      <trkpt lat="40.72876232" lon="-4.84283523"><ele>1744</ele><speed>20.33</speed><time>2016-06-29T12:38:16Z</time><pdop>7.0</pdop><geoidheight>53.00</geoidheight><course>85.5</course><type>1</type></trkpt>
      <trkpt lat="40.72876832" lon="-4.84259635"><ele>1744</ele><speed>20.12</speed><time>2016-06-29T12:38:17Z</time><pdop>7.0</pdop><geoidheight>53.00</geoidheight><course>87.6</course><type>1</type></trkpt>
      <trkpt lat="40.72868406" lon="-4.84244728"><ele>1747</ele><speed>16.33</speed><time>2016-06-29T12:38:18Z</time><pdop>5.0</pdop><geoidheight>53.00</geoidheight><course>107.7</course><type>1</type></trkpt>
      <trkpt lat="40.72865743" lon="-4.84228533"><ele>1748</ele><speed>14.80</speed><time>2016-06-29T12:38:19Z</time><pdop>5.0</pdop><geoidheight>53.00</geoidheight><course>110.9</course><type>1</type></trkpt>
      <trkpt lat="40.72855286" lon="-4.84210534"><ele>1753</ele><speed>10.44</speed><time>2016-06-29T12:38:21Z</time><pdop>7.0</pdop><geoidheight>53.00</geoidheight><course>130.6</course><type>1</type></trkpt>
      <trkpt lat="40.72876564" lon="-4.8421268"><ele>1756</ele><speed>11.77</speed><time>2016-06-29T12:38:27Z</time><pdop>5.0</pdop><geoidheight>53.00</geoidheight><course>5.9</course><type>1</type></trkpt>
      <trkpt lat="40.72886829" lon="-4.84211548"><ele>1760</ele><speed>12.09</speed><time>2016-06-29T12:38:28Z</time><pdop>6.0</pdop><geoidheight>53.00</geoidheight><course>9.3</course><type>1</type></trkpt>
      <trkpt lat="40.72907564" lon="-4.84197213"><ele>1767</ele><speed>13.21</speed><time>2016-06-29T12:38:30Z</time><pdop>9.0</pdop><geoidheight>53.00</geoidheight><course>22.5</course><type>1</type></trkpt>
      <trkpt lat="40.72917994" lon="-4.8417598"><ele>1767</ele><speed>15.81</speed><time>2016-06-29T12:38:31Z</time><pdop>10.0</pdop><geoidheight>53.00</geoidheight><course>40.9</course><type>1</type></trkpt>
      <trkpt lat="40.72932132" lon="-4.84139057"><ele>1768</ele><speed>16.97</speed><time>2016-06-29T12:38:33Z</time><pdop>10.0</pdop><geoidheight>53.00</geoidheight><course>55.5</course><type>1</type></trkpt>
      <trkpt lat="40.7293265" lon="-4.84111066"><ele>1770</ele><speed>19.26</speed><time>2016-06-29T12:38:34Z</time><pdop>7.0</pdop><geoidheight>53.00</geoidheight><course>70.0</course><type>1</type></trkpt>
      <trkpt lat="40.72939635" lon="-4.84089075"><ele>1770</ele><speed>19.40</speed><time>2016-06-29T12:38:35Z</time><pdop>8.0</pdop><geoidheight>53.00</geoidheight><course>69.7</course><type>1</type></trkpt>
      <trkpt lat="40.72940928" lon="-4.84066868"><ele>1772</ele><speed>18.81</speed><time>2016-06-29T12:38:36Z</time><pdop>7.0</pdop><geoidheight>53.00</geoidheight><course>76.7</course><type>1</type></trkpt>
      <trkpt lat="40.72941019" lon="-4.84043937"><ele>1772</ele><speed>18.62</speed><time>2016-06-29T12:38:37Z</time><pdop>7.0</pdop><geoidheight>53.00</geoidheight><course>82.6</course><type>1</type></trkpt>
      <trkpt lat="40.72939926" lon="-4.84024053"><ele>1772</ele><speed>17.48</speed><time>2016-06-29T12:38:38Z</time><pdop>6.0</pdop><geoidheight>53.00</geoidheight><course>88.6</course><type>1</type></trkpt>
      <trkpt lat="40.72936552" lon="-4.84002493"><ele>1772</ele><speed>17.03</speed><time>2016-06-29T12:38:39Z</time><pdop>7.0</pdop><geoidheight>53.00</geoidheight><course>94.5</course><type>1</type></trkpt>
      <trkpt lat="40.72930082" lon="-4.83984328"><ele>1773</ele><speed>11.53</speed><time>2016-06-29T12:38:41Z</time><pdop>7.0</pdop><geoidheight>53.00</geoidheight><course>107.5</course><type>1</type></trkpt>
      <trkpt lat="40.7291304" lon="-4.83977842"><ele>1776</ele><speed>9.22</speed><time>2016-06-29T12:38:43Z</time><pdop>7.0</pdop><geoidheight>53.00</geoidheight><course>148.0</course><type>1</type></trkpt>
      <trkpt lat="40.72900979" lon="-4.83964243"><ele>1779</ele><speed>7.55</speed><time>2016-06-29T12:38:45Z</time><pdop>6.0</pdop><geoidheight>53.00</geoidheight><course>139.8</course><type>1</type></trkpt>
      <trkpt lat="40.7291433" lon="-4.83974966"><ele>1781</ele><speed>7.88</speed><time>2016-06-29T12:38:52Z</time><pdop>7.0</pdop><geoidheight>53.00</geoidheight><course>336.1</course><type>1</type></trkpt>
      <trkpt lat="40.72937927" lon="-4.83956923"><ele>1784</ele><speed>13.41</speed><time>2016-06-29T12:38:54Z</time><pdop>6.0</pdop><geoidheight>53.00</geoidheight><course>27.8</course><type>1</type></trkpt>
      <trkpt lat="40.72949421" lon="-4.83946469"><ele>1785</ele><speed>14.85</speed><time>2016-06-29T12:38:55Z</time><pdop>7.0</pdop><geoidheight>53.00</geoidheight><course>34.3</course><type>1</type></trkpt>
      <trkpt lat="40.72960321" lon="-4.83932119"><ele>1786</ele><speed>16.17</speed><time>2016-06-29T12:38:56Z</time><pdop>9.0</pdop><geoidheight>53.00</geoidheight><course>40.9</course><type>1</type></trkpt>
      <trkpt lat="40.72973278" lon="-4.83896299"><ele>1787</ele><speed>16.72</speed><time>2016-06-29T12:38:58Z</time><pdop>12.0</pdop><geoidheight>53.00</geoidheight><course>57.2</course><type>1</type></trkpt>
      <trkpt lat="40.72976288" lon="-4.83853752"><ele>1788</ele><speed>18.42</speed><time>2016-06-29T12:39:00Z</time><pdop>7.0</pdop><geoidheight>53.00</geoidheight><course>73.1</course><type>1</type></trkpt>
      <trkpt lat="40.72982316" lon="-4.83832748"><ele>1789</ele><speed>18.66</speed><time>2016-06-29T12:39:01Z</time><pdop>8.0</pdop><geoidheight>53.00</geoidheight><course>72.2</course><type>1</type></trkpt>
      <trkpt lat="40.72995185" lon="-4.83800995"><ele>1790</ele><speed>15.91</speed><time>2016-06-29T12:39:03Z</time><pdop>9.0</pdop><geoidheight>53.00</geoidheight><course>65.8</course><type>1</type></trkpt>
      <trkpt lat="40.73017278" lon="-4.83780875"><ele>1790</ele><speed>14.64</speed><time>2016-06-29T12:39:05Z</time><pdop>8.0</pdop><geoidheight>53.00</geoidheight><course>47.7</course><type>1</type></trkpt>
      <trkpt lat="40.73029668" lon="-4.83767605"><ele>1790</ele><speed>15.42</speed><time>2016-06-29T12:39:06Z</time><pdop>8.0</pdop><geoidheight>53.00</geoidheight><course>40.1</course><type>1</type></trkpt>
      <trkpt lat="40.73042856" lon="-4.83757527"><ele>1793</ele><speed>16.14</speed><time>2016-06-29T12:39:07Z</time><pdop>7.0</pdop><geoidheight>53.00</geoidheight><course>33.4</course><type>1</type></trkpt>
      <trkpt lat="40.73056192" lon="-4.83745499"><ele>1793</ele><speed>16.48</speed><time>2016-06-29T12:39:08Z</time><pdop>9.0</pdop><geoidheight>53.00</geoidheight><course>32.0</course><type>1</type></trkpt>
      <trkpt lat="40.73077955" lon="-4.83732649"><ele>1800</ele><speed>13.96</speed><time>2016-06-29T12:39:10Z</time><pdop>7.0</pdop><geoidheight>53.00</geoidheight><course>25.1</course><type>1</type></trkpt>
      <trkpt lat="40.7309648" lon="-4.83726278"><ele>1801</ele><speed>10.25</speed><time>2016-06-29T12:39:12Z</time><pdop>7.0</pdop><geoidheight>53.00</geoidheight><course>6.5</course><type>1</type></trkpt>
      <trkpt lat="40.73114649" lon="-4.83731113"><ele>1801</ele><speed>10.36</speed><time>2016-06-29T12:39:14Z</time><pdop>7.0</pdop><geoidheight>53.00</geoidheight><course>345.3</course><type>1</type></trkpt>
      <trkpt lat="40.73133166" lon="-4.83735073"><ele>1805</ele><speed>11.24</speed><time>2016-06-29T12:39:16Z</time><pdop>6.0</pdop><geoidheight>53.00</geoidheight><course>355.8</course><type>1</type></trkpt>
      <trkpt lat="40.73144454" lon="-4.8373307"><ele>1806</ele><speed>11.96</speed><time>2016-06-29T12:39:17Z</time><pdop>6.0</pdop><geoidheight>53.00</geoidheight><course>4.8</course><type>1</type></trkpt>
      <trkpt lat="40.73168567" lon="-4.83729802"><ele>1807</ele><speed>12.95</speed><time>2016-06-29T12:39:19Z</time><pdop>9.0</pdop><geoidheight>53.00</geoidheight><course>6.9</course><type>1</type></trkpt>
      <trkpt lat="40.73187272" lon="-4.83719373"><ele>1808</ele><speed>11.02</speed><time>2016-06-29T12:39:21Z</time><pdop>12.0</pdop><geoidheight>53.00</geoidheight><course>20.8</course><type>1</type></trkpt>
      <trkpt lat="40.73210133" lon="-4.83717147"><ele>1806</ele><speed>7.52</speed><time>2016-06-29T12:39:24Z</time><pdop>9.0</pdop><geoidheight>53.00</geoidheight><course>348.9</course><type>1</type></trkpt>
      <trkpt lat="40.73185769" lon="-4.83703627"><ele>1807</ele><speed>7.95</speed><time>2016-06-29T12:39:32Z</time><pdop>12.0</pdop><geoidheight>53.00</geoidheight><course>137.8</course><type>1</type></trkpt>
      <trkpt lat="40.73173205" lon="-4.83664852"><ele>1807</ele><speed>14.57</speed><time>2016-06-29T12:39:34Z</time><pdop>10.0</pdop><geoidheight>53.00</geoidheight><course>111.6</course><type>1</type></trkpt>
      <trkpt lat="40.73160553" lon="-4.83624718"><ele>1806</ele><speed>16.53</speed><time>2016-06-29T12:39:36Z</time><pdop>9.0</pdop><geoidheight>53.00</geoidheight><course>110.3</course><type>1</type></trkpt>
      <trkpt lat="40.73150959" lon="-4.83588903"><ele>1805</ele><speed>15.85</speed><time>2016-06-29T12:39:38Z</time><pdop>8.0</pdop><geoidheight>53.00</geoidheight><course>107.9</course><type>1</type></trkpt>
      <trkpt lat="40.73142021" lon="-4.83555207"><ele>1804</ele><speed>14.26</speed><time>2016-06-29T12:39:40Z</time><pdop>7.0</pdop><geoidheight>53.00</geoidheight><course>108.1</course><type>1</type></trkpt>
      <trkpt lat="40.73137239" lon="-4.83538039"><ele>1804</ele><speed>13.85</speed><time>2016-06-29T12:39:41Z</time><pdop>8.0</pdop><geoidheight>53.00</geoidheight><course>109.9</course><type>1</type></trkpt>
      <trkpt lat="40.73126702" lon="-4.83514265"><ele>1804</ele><speed>11.42</speed><time>2016-06-29T12:39:43Z</time><pdop>8.0</pdop><geoidheight>53.00</geoidheight><course>118.9</course><type>1</type></trkpt>
      <trkpt lat="40.7311418" lon="-4.83496829"><ele>1803</ele><speed>9.63</speed><time>2016-06-29T12:39:45Z</time><pdop>8.0</pdop><geoidheight>53.00</geoidheight><course>135.1</course><type>1</type></trkpt>
      <trkpt lat="40.73096935" lon="-4.83499398"><ele>1798</ele><speed>6.39</speed><time>2016-06-29T12:39:48Z</time><pdop>7.0</pdop><geoidheight>53.00</geoidheight><course>192.9</course><type>1</type></trkpt>
      <trkpt lat="40.7308853" lon="-4.83510182"><ele>1796</ele><speed>4.61</speed><time>2016-06-29T12:39:51Z</time><pdop>6.0</pdop><geoidheight>53.00</geoidheight><course>230.2</course><type>1</type></trkpt>
      <trkpt lat="40.73083573" lon="-4.83521994"><ele>1793</ele><speed>6.27</speed><time>2016-06-29T12:39:53Z</time><pdop>5.0</pdop><geoidheight>53.00</geoidheight><course>243.0</course><type>1</type></trkpt>
      <trkpt lat="40.73079163" lon="-4.83533976"><ele>1794</ele><speed>5.74</speed><time>2016-06-29T12:39:55Z</time><pdop>6.0</pdop><geoidheight>53.00</geoidheight><course>244.1</course><type>1</type></trkpt>
      <trkpt lat="40.73072794" lon="-4.83547314"><ele>1796</ele><speed>3.71</speed><time>2016-06-29T12:39:58Z</time><pdop>6.0</pdop><geoidheight>53.00</geoidheight><course>231.3</course><type>1</type></trkpt>
      <trkpt lat="40.73061008" lon="-4.83553728"><ele>1795</ele><speed>3.42</speed><time>2016-06-29T12:40:02Z</time><pdop>7.0</pdop><geoidheight>53.00</geoidheight><course>196.7</course><type>1</type></trkpt>
      <trkpt lat="40.73046587" lon="-4.83561206"><ele>1788</ele><speed>4.43</speed><time>2016-06-29T12:40:06Z</time><pdop>5.0</pdop><geoidheight>53.00</geoidheight><course>202.9</course><type>1</type></trkpt>
      <trkpt lat="40.73036712" lon="-4.83571845"><ele>1784</ele><speed>4.90</speed><time>2016-06-29T12:40:09Z</time><pdop>5.0</pdop><geoidheight>53.00</geoidheight><course>225.6</course><type>1</type></trkpt>
      <trkpt lat="40.73062862" lon="-4.8354518"><ele>1777</ele><speed>9.93</speed><time>2016-06-29T12:40:18Z</time><pdop>15.0</pdop><geoidheight>53.00</geoidheight><course>42.0</course><type>1</type></trkpt>
      <trkpt lat="40.73081247" lon="-4.83509768"><ele>1773</ele><speed>13.24</speed><time>2016-06-29T12:40:20Z</time><pdop>14.0</pdop><geoidheight>53.00</geoidheight><course>54.2</course><type>1</type></trkpt>
      <trkpt lat="40.73099305" lon="-4.83458719"><ele>1772</ele><speed>15.45</speed><time>2016-06-29T12:40:23Z</time><pdop>23.0</pdop><geoidheight>53.00</geoidheight><course>63.3</course><type>1</type></trkpt>
      <trkpt lat="40.73123202" lon="-4.83390674"><ele>1771</ele><speed>19.17</speed><time>2016-06-29T12:40:26Z</time><pdop>20.0</pdop><geoidheight>53.00</geoidheight><course>65.9</course><type>1</type></trkpt>
      <trkpt lat="40.73140753" lon="-4.83332048"><ele>1765</ele><speed>17.78</speed><time>2016-06-29T12:40:29Z</time><pdop>17.0</pdop><geoidheight>53.00</geoidheight><course>72.4</course><type>1</type></trkpt>
      <trkpt lat="40.73141024" lon="-4.8328526"><ele>1761</ele><speed>18.52</speed><time>2016-06-29T12:40:31Z</time><pdop>13.0</pdop><geoidheight>53.00</geoidheight><course>84.3</course><type>1</type></trkpt>
      <trkpt lat="40.73145002" lon="-4.83237345"><ele>1758</ele><speed>19.59</speed><time>2016-06-29T12:40:33Z</time><pdop>15.0</pdop><geoidheight>53.00</geoidheight><course>84.5</course><type>1</type></trkpt>
      <trkpt lat="40.7315579" lon="-4.83189935"><ele>1755</ele><speed>19.63</speed><time>2016-06-29T12:40:35Z</time><pdop>16.0</pdop><geoidheight>53.00</geoidheight><course>79.8</course><type>1</type></trkpt>
      <trkpt lat="40.73161074" lon="-4.83139306"><ele>1752</ele><speed>20.51</speed><time>2016-06-29T12:40:37Z</time><pdop>16.0</pdop><geoidheight>53.00</geoidheight><course>79.8</course><type>1</type></trkpt>
      <trkpt lat="40.73168631" lon="-4.8310225"><ele>1745</ele><speed>18.34</speed><time>2016-06-29T12:40:39Z</time><pdop>16.0</pdop><geoidheight>53.00</geoidheight><course>79.4</course><type>1</type></trkpt>
      <trkpt lat="40.73178484" lon="-4.83054217"><ele>1744</ele><speed>18.86</speed><time>2016-06-29T12:40:41Z</time><pdop>20.0</pdop><geoidheight>53.00</geoidheight><course>74.8</course><type>1</type></trkpt>
      <trkpt lat="40.73201382" lon="-4.83014188"><ele>1739</ele><speed>18.62</speed><time>2016-06-29T12:40:43Z</time><pdop>15.0</pdop><geoidheight>53.00</geoidheight><course>58.8</course><type>1</type></trkpt>
      <trkpt lat="40.73220887" lon="-4.82975543"><ele>1736</ele><speed>19.26</speed><time>2016-06-29T12:40:45Z</time><pdop>18.0</pdop><geoidheight>53.00</geoidheight><course>58.1</course><type>1</type></trkpt>
      <trkpt lat="40.73240667" lon="-4.82922935"><ele>1725</ele><speed>17.74</speed><time>2016-06-29T12:40:48Z</time><pdop>20.0</pdop><geoidheight>53.00</geoidheight><course>60.1</course><type>1</type></trkpt>
      <trkpt lat="40.73266999" lon="-4.82864818"><ele>1719</ele><speed>18.92</speed><time>2016-06-29T12:40:51Z</time><pdop>25.0</pdop><geoidheight>53.00</geoidheight><course>60.5</course><type>1</type></trkpt>
      <trkpt lat="40.73287536" lon="-4.82806187"><ele>1720</ele><speed>18.10</speed><time>2016-06-29T12:40:54Z</time><pdop>28.0</pdop><geoidheight>53.00</geoidheight><course>64.8</course><type>1</type></trkpt>
      <trkpt lat="40.73305235" lon="-4.82724835"><ele>1708</ele><speed>20.47</speed><time>2016-06-29T12:40:58Z</time><pdop>24.0</pdop><geoidheight>53.00</geoidheight><course>67.1</course><type>1</type></trkpt>
      <trkpt lat="40.73325212" lon="-4.82651035"><ele>1705</ele><speed>20.62</speed><time>2016-06-29T12:41:01Z</time><pdop>31.0</pdop><geoidheight>53.00</geoidheight><course>69.6</course><type>1</type></trkpt>
      <trkpt lat="40.73349846" lon="-4.82557164"><ele>1698</ele><speed>21.67</speed><time>2016-06-29T12:41:05Z</time><pdop>28.0</pdop><geoidheight>53.00</geoidheight><course>74.4</course><type>1</type></trkpt>
      <trkpt lat="40.73372569" lon="-4.82485472"><ele>1693</ele><speed>20.36</speed><time>2016-06-29T12:41:08Z</time><pdop>23.0</pdop><geoidheight>53.00</geoidheight><course>72.4</course><type>1</type></trkpt>
      <trkpt lat="40.7340577" lon="-4.82417969"><ele>1689</ele><speed>20.76</speed><time>2016-06-29T12:41:11Z</time><pdop>23.0</pdop><geoidheight>53.00</geoidheight><course>65.4</course><type>1</type></trkpt>
      <trkpt lat="40.73425937" lon="-4.82359723"><ele>1682</ele><speed>18.83</speed><time>2016-06-29T12:41:14Z</time><pdop>19.0</pdop><geoidheight>53.00</geoidheight><course>64.5</course><type>1</type></trkpt>
      <trkpt lat="40.73426077" lon="-4.82312388"><ele>1677</ele><speed>20.31</speed><time>2016-06-29T12:41:16Z</time><pdop>12.0</pdop><geoidheight>53.00</geoidheight><course>78.9</course><type>1</type></trkpt>
      <trkpt lat="40.73437098" lon="-4.82261613"><ele>1673</ele><speed>20.78</speed><time>2016-06-29T12:41:18Z</time><pdop>13.0</pdop><geoidheight>53.00</geoidheight><course>77.8</course><type>1</type></trkpt>
      <trkpt lat="40.73447289" lon="-4.82208778"><ele>1670</ele><speed>21.09</speed><time>2016-06-29T12:41:20Z</time><pdop>12.0</pdop><geoidheight>53.00</geoidheight><course>76.0</course><type>1</type></trkpt>
      <trkpt lat="40.7345498" lon="-4.82159215"><ele>1669</ele><speed>20.00</speed><time>2016-06-29T12:41:22Z</time><pdop>12.0</pdop><geoidheight>53.00</geoidheight><course>76.1</course><type>1</type></trkpt>
      <trkpt lat="40.73464168" lon="-4.8211925"><ele>1664</ele><speed>17.72</speed><time>2016-06-29T12:41:24Z</time><pdop>10.0</pdop><geoidheight>53.00</geoidheight><course>76.0</course><type>1</type></trkpt>
      <trkpt lat="40.73470175" lon="-4.82078796"><ele>1661</ele><speed>17.63</speed><time>2016-06-29T12:41:26Z</time><pdop>12.0</pdop><geoidheight>53.00</geoidheight><course>79.3</course><type>1</type></trkpt>
      <trkpt lat="40.7347449" lon="-4.82030569"><ele>1656</ele><speed>19.57</speed><time>2016-06-29T12:41:28Z</time><pdop>9.0</pdop><geoidheight>53.00</geoidheight><course>84.1</course><type>1</type></trkpt>
      <trkpt lat="40.73474455" lon="-4.820078"><ele>1653</ele><speed>19.57</speed><time>2016-06-29T12:41:29Z</time><pdop>9.0</pdop><geoidheight>53.00</geoidheight><course>84.3</course><type>1</type></trkpt>
      <trkpt lat="40.73477641" lon="-4.81983855"><ele>1650</ele><speed>19.67</speed><time>2016-06-29T12:41:30Z</time><pdop>11.0</pdop><geoidheight>53.00</geoidheight><course>83.5</course><type>1</type></trkpt>
      <trkpt lat="40.73476546" lon="-4.81942052"><ele>1649</ele><speed>18.63</speed><time>2016-06-29T12:41:32Z</time><pdop>17.0</pdop><geoidheight>53.00</geoidheight><course>86.3</course><type>1</type></trkpt>
      <trkpt lat="40.73488917" lon="-4.81897357"><ele>1644</ele><speed>18.79</speed><time>2016-06-29T12:41:34Z</time><pdop>15.0</pdop><geoidheight>53.00</geoidheight><course>77.0</course><type>1</type></trkpt>
      <trkpt lat="40.73496812" lon="-4.81858474"><ele>1638</ele><speed>17.66</speed><time>2016-06-29T12:41:36Z</time><pdop>17.0</pdop><geoidheight>53.00</geoidheight><course>75.6</course><type>1</type></trkpt>
      <trkpt lat="40.73509201" lon="-4.81821711"><ele>1631</ele><speed>16.26</speed><time>2016-06-29T12:41:38Z</time><pdop>16.0</pdop><geoidheight>53.00</geoidheight><course>66.6</course><type>1</type></trkpt>
      <trkpt lat="40.73522649" lon="-4.81784845"><ele>1629</ele><speed>16.89</speed><time>2016-06-29T12:41:40Z</time><pdop>14.0</pdop><geoidheight>53.00</geoidheight><course>65.0</course><type>1</type></trkpt>
      <trkpt lat="40.73536823" lon="-4.8174552"><ele>1629</ele><speed>17.81</speed><time>2016-06-29T12:41:42Z</time><pdop>15.0</pdop><geoidheight>53.00</geoidheight><course>65.8</course><type>1</type></trkpt>
      <trkpt lat="40.73554575" lon="-4.81695617"><ele>1625</ele><speed>20.89</speed><time>2016-06-29T12:41:44Z</time><pdop>15.0</pdop><geoidheight>53.00</geoidheight><course>65.0</course><type>1</type></trkpt>
      <trkpt lat="40.73564362" lon="-4.81648212"><ele>1622</ele><speed>18.85</speed><time>2016-06-29T12:41:46Z</time><pdop>8.0</pdop><geoidheight>53.00</geoidheight><course>77.9</course><type>1</type></trkpt>
      <trkpt lat="40.73565971" lon="-4.81626879"><ele>1621</ele><speed>18.32</speed><time>2016-06-29T12:41:47Z</time><pdop>7.0</pdop><geoidheight>53.00</geoidheight><course>80.4</course><type>1</type></trkpt>
      <trkpt lat="40.7356823" lon="-4.81606257"><ele>1619</ele><speed>18.25</speed><time>2016-06-29T12:41:48Z</time><pdop>6.0</pdop><geoidheight>53.00</geoidheight><course>81.9</course><type>1</type></trkpt>
      <trkpt lat="40.73570079" lon="-4.81585559"><ele>1621</ele><speed>17.70</speed><time>2016-06-29T12:41:49Z</time><pdop>6.0</pdop><geoidheight>53.00</geoidheight><course>86.8</course><type>1</type></trkpt>
      <trkpt lat="40.73569403" lon="-4.81564871"><ele>1620</ele><speed>17.20</speed><time>2016-06-29T12:41:50Z</time><pdop>5.0</pdop><geoidheight>53.00</geoidheight><course>90.4</course><type>1</type></trkpt>
      <trkpt lat="40.73565776" lon="-4.81545075"><ele>1622</ele><speed>17.18</speed><time>2016-06-29T12:41:51Z</time><pdop>6.0</pdop><geoidheight>53.00</geoidheight><course>95.3</course><type>1</type></trkpt>
      <trkpt lat="40.73563285" lon="-4.81525703"><ele>1622</ele><speed>17.00</speed><time>2016-06-29T12:41:52Z</time><pdop>6.0</pdop><geoidheight>53.00</geoidheight><course>99.7</course><type>1</type></trkpt>
      <trkpt lat="40.73558585" lon="-4.81507405"><ele>1622</ele><speed>16.55</speed><time>2016-06-29T12:41:53Z</time><pdop>8.0</pdop><geoidheight>53.00</geoidheight><course>106.9</course><type>1</type></trkpt>
      <trkpt lat="40.73544148" lon="-4.81478791"><ele>1623</ele><speed>14.63</speed><time>2016-06-29T12:41:55Z</time><pdop>8.0</pdop><geoidheight>53.00</geoidheight><course>121.9</course><type>1</type></trkpt>
      <trkpt lat="40.73524897" lon="-4.81474583"><ele>1619</ele><speed>10.29</speed><time>2016-06-29T12:41:57Z</time><pdop>7.0</pdop><geoidheight>53.00</geoidheight><course>150.1</course><type>1</type></trkpt>
      <trkpt lat="40.73511136" lon="-4.81463134"><ele>1619</ele><speed>7.83</speed><time>2016-06-29T12:41:59Z</time><pdop>9.0</pdop><geoidheight>53.00</geoidheight><course>154.9</course><type>1</type></trkpt>
      <trkpt lat="40.73529869" lon="-4.81443312"><ele>1617</ele><speed>7.81</speed><time>2016-06-29T12:42:05Z</time><pdop>14.0</pdop><geoidheight>53.00</geoidheight><course>55.8</course><type>1</type></trkpt>
      <trkpt lat="40.73546087" lon="-4.81399029"><ele>1617</ele><speed>16.50</speed><time>2016-06-29T12:42:07Z</time><pdop>17.0</pdop><geoidheight>53.00</geoidheight><course>66.1</course><type>1</type></trkpt>
      <trkpt lat="40.7354379" lon="-4.81356207"><ele>1614</ele><speed>18.57</speed><time>2016-06-29T12:42:09Z</time><pdop>11.0</pdop><geoidheight>53.00</geoidheight><course>81.1</course><type>1</type></trkpt>
      <trkpt lat="40.7355375" lon="-4.81314519"><ele>1612</ele><speed>17.70</speed><time>2016-06-29T12:42:11Z</time><pdop>12.0</pdop><geoidheight>53.00</geoidheight><course>80.1</course><type>1</type></trkpt>
      <trkpt lat="40.73552312" lon="-4.81266904"><ele>1610</ele><speed>18.45</speed><time>2016-06-29T12:42:13Z</time><pdop>15.0</pdop><geoidheight>53.00</geoidheight><course>91.8</course><type>1</type></trkpt>
      <trkpt lat="40.73550516" lon="-4.81224936"><ele>1610</ele><speed>17.90</speed><time>2016-06-29T12:42:15Z</time><pdop>13.0</pdop><geoidheight>53.00</geoidheight><course>92.9</course><type>1</type></trkpt>
      <trkpt lat="40.73552818" lon="-4.81187433"><ele>1611</ele><speed>15.95</speed><time>2016-06-29T12:42:17Z</time><pdop>16.0</pdop><geoidheight>53.00</geoidheight><course>90.8</course><type>1</type></trkpt>
      <trkpt lat="40.7356601" lon="-4.81152546"><ele>1609</ele><speed>14.78</speed><time>2016-06-29T12:42:19Z</time><pdop>16.0</pdop><geoidheight>53.00</geoidheight><course>79.5</course><type>1</type></trkpt>
      <trkpt lat="40.73593883" lon="-4.81155387"><ele>1609</ele><speed>9.77</speed><time>2016-06-29T12:42:21Z</time><pdop>14.0</pdop><geoidheight>53.00</geoidheight><course>28.0</course><type>1</type></trkpt>
      <trkpt lat="40.73622462" lon="-4.81141353"><ele>1610</ele><speed>5.80</speed><time>2016-06-29T12:42:25Z</time><pdop>18.0</pdop><geoidheight>53.00</geoidheight><course>28.1</course><type>1</type></trkpt>
      <trkpt lat="40.73588675" lon="-4.81132058"><ele>1614</ele><speed>8.85</speed><time>2016-06-29T12:42:32Z</time><pdop>18.0</pdop><geoidheight>53.00</geoidheight><course>131.0</course><type>1</type></trkpt>
      <trkpt lat="40.7356362" lon="-4.8107224"><ele>1613</ele><speed>15.50</speed><time>2016-06-29T12:42:35Z</time><pdop>19.0</pdop><geoidheight>53.00</geoidheight><course>118.2</course><type>1</type></trkpt>
      <trkpt lat="40.73549784" lon="-4.81002667"><ele>1614</ele><speed>17.83</speed><time>2016-06-29T12:42:38Z</time><pdop>22.0</pdop><geoidheight>53.00</geoidheight><course>108.1</course><type>1</type></trkpt>
      <trkpt lat="40.73569508" lon="-4.80952853"><ele>1617</ele><speed>12.64</speed><time>2016-06-29T12:42:41Z</time><pdop>22.0</pdop><geoidheight>53.00</geoidheight><course>79.9</course><type>1</type></trkpt>
      <trkpt lat="40.73606691" lon="-4.80931078"><ele>1618</ele><speed>10.79</speed><time>2016-06-29T12:42:44Z</time><pdop>12.0</pdop><geoidheight>53.00</geoidheight><course>39.5</course><type>1</type></trkpt>
      <trkpt lat="40.73624968" lon="-4.80910751"><ele>1619</ele><speed>8.33</speed><time>2016-06-29T12:42:47Z</time><pdop>12.0</pdop><geoidheight>53.00</geoidheight><course>45.5</course><type>1</type></trkpt>
      <trkpt lat="40.73603407" lon="-4.80880805"><ele>1622</ele><speed>9.61</speed><time>2016-06-29T12:42:55Z</time><pdop>16.0</pdop><geoidheight>53.00</geoidheight><course>126.1</course><type>1</type></trkpt>
      <trkpt lat="40.73584227" lon="-4.80841177"><ele>1620</ele><speed>14.45</speed><time>2016-06-29T12:42:57Z</time><pdop>18.0</pdop><geoidheight>53.00</geoidheight><course>119.6</course><type>1</type></trkpt>
      <trkpt lat="40.73569891" lon="-4.80802915"><ele>1621</ele><speed>15.63</speed><time>2016-06-29T12:42:59Z</time><pdop>18.0</pdop><geoidheight>53.00</geoidheight><course>115.3</course><type>1</type></trkpt>
      <trkpt lat="40.73566487" lon="-4.80761164"><ele>1627</ele><speed>14.92</speed><time>2016-06-29T12:43:01Z</time><pdop>16.0</pdop><geoidheight>53.00</geoidheight><course>102.9</course><type>1</type></trkpt>
      <trkpt lat="40.73574759" lon="-4.80710871"><ele>1628</ele><speed>11.98</speed><time>2016-06-29T12:43:04Z</time><pdop>21.0</pdop><geoidheight>53.00</geoidheight><course>88.1</course><type>1</type></trkpt>
      <trkpt lat="40.73616524" lon="-4.80656219"><ele>1628</ele><speed>15.36</speed><time>2016-06-29T12:43:08Z</time><pdop>25.0</pdop><geoidheight>53.00</geoidheight><course>58.5</course><type>1</type></trkpt>
      <trkpt lat="40.73640058" lon="-4.80601696"><ele>1628</ele><speed>16.13</speed><time>2016-06-29T12:43:11Z</time><pdop>18.0</pdop><geoidheight>53.00</geoidheight><course>67.3</course><type>1</type></trkpt>
      <trkpt lat="40.73659247" lon="-4.80569578"><ele>1631</ele><speed>15.28</speed><time>2016-06-29T12:43:13Z</time><pdop>15.0</pdop><geoidheight>53.00</geoidheight><course>60.1</course><type>1</type></trkpt>
      <trkpt lat="40.73686756" lon="-4.8055729"><ele>1632</ele><speed>8.55</speed><time>2016-06-29T12:43:16Z</time><pdop>12.0</pdop><geoidheight>53.00</geoidheight><course>26.3</course><type>1</type></trkpt>
      <trkpt lat="40.73658285" lon="-4.8053867"><ele>1638</ele><speed>11.57</speed><time>2016-06-29T12:43:23Z</time><pdop>12.0</pdop><geoidheight>53.00</geoidheight><course>145.1</course><type>1</type></trkpt>
      <trkpt lat="40.73640316" lon="-4.80517387"><ele>1638</ele><speed>12.90</speed><time>2016-06-29T12:43:25Z</time><pdop>14.0</pdop><geoidheight>53.00</geoidheight><course>136.5</course><type>1</type></trkpt>
      <trkpt lat="40.73629724" lon="-4.80479938"><ele>1968</ele><speed>6.25</speed><time>2016-06-29T12:43:33Z</time><pdop>14.0</pdop><geoidheight>53.00</geoidheight><course>19.4</course><type>1</type></trkpt>
      <trkpt lat="40.73654445" lon="-4.80455477"><ele>1850</ele><speed>10.61</speed><time>2016-06-29T12:43:36Z</time><pdop>15.0</pdop><geoidheight>53.00</geoidheight><course>44.5</course><type>1</type></trkpt>
      <trkpt lat="40.73667518" lon="-4.80401916"><ele>1777</ele><speed>19.20</speed><time>2016-06-29T12:43:38Z</time><pdop>14.0</pdop><geoidheight>53.00</geoidheight><course>70.2</course><type>1</type></trkpt>
      <trkpt lat="40.7366509" lon="-4.80353983"><ele>1730</ele><speed>19.62</speed><time>2016-06-29T12:43:40Z</time><pdop>13.0</pdop><geoidheight>53.00</geoidheight><course>84.2</course><type>1</type></trkpt>
      <trkpt lat="40.73654156" lon="-4.80309934"><ele>1706</ele><speed>19.59</speed><time>2016-06-29T12:43:42Z</time><pdop>8.0</pdop><geoidheight>53.00</geoidheight><course>104.7</course><type>1</type></trkpt>
      <trkpt lat="40.73648273" lon="-4.80289394"><ele>1694</ele><speed>19.09</speed><time>2016-06-29T12:43:43Z</time><pdop>7.0</pdop><geoidheight>53.00</geoidheight><course>108.3</course><type>1</type></trkpt>
      <trkpt lat="40.73642513" lon="-4.80271132"><ele>1692</ele><speed>18.13</speed><time>2016-06-29T12:43:44Z</time><pdop>8.0</pdop><geoidheight>53.00</geoidheight><course>112.6</course><type>1</type></trkpt>
      <trkpt lat="40.7362769" lon="-4.80255514"><ele>1677</ele><speed>10.97</speed><time>2016-06-29T12:43:46Z</time><pdop>5.0</pdop><geoidheight>53.00</geoidheight><course>138.1</course><type>1</type></trkpt>
      <trkpt lat="40.73612293" lon="-4.80243366"><ele>1674</ele><speed>9.33</speed><time>2016-06-29T12:43:48Z</time><pdop>6.0</pdop><geoidheight>53.00</geoidheight><course>149.8</course><type>1</type></trkpt>
      <trkpt lat="40.73601439" lon="-4.80233088"><ele>1675</ele><speed>7.03</speed><time>2016-06-29T12:43:50Z</time><pdop>7.0</pdop><geoidheight>53.00</geoidheight><course>150.1</course><type>1</type></trkpt>
      <trkpt lat="40.73616792" lon="-4.80211195"><ele>1668</ele><speed>9.10</speed><time>2016-06-29T12:43:57Z</time><pdop>10.0</pdop><geoidheight>53.00</geoidheight><course>40.4</course><type>1</type></trkpt>
      <trkpt lat="40.73631144" lon="-4.80185041"><ele>1666</ele><speed>12.35</speed><time>2016-06-29T12:43:59Z</time><pdop>11.0</pdop><geoidheight>53.00</geoidheight><course>51.6</course><type>1</type></trkpt>
      <trkpt lat="40.73647137" lon="-4.80149956"><ele>1664</ele><speed>15.49</speed><time>2016-06-29T12:44:01Z</time><pdop>13.0</pdop><geoidheight>53.00</geoidheight><course>57.3</course><type>1</type></trkpt>
      <trkpt lat="40.73646218" lon="-4.80107147"><ele>1664</ele><speed>16.68</speed><time>2016-06-29T12:44:03Z</time><pdop>13.0</pdop><geoidheight>53.00</geoidheight><course>76.5</course><type>1</type></trkpt>
      <trkpt lat="40.73632507" lon="-4.80079786"><ele>1666</ele><speed>18.59</speed><time>2016-06-29T12:44:04Z</time><pdop>11.0</pdop><geoidheight>53.00</geoidheight><course>102.1</course><type>1</type></trkpt>
      <trkpt lat="40.73627422" lon="-4.80054841"><ele>1663</ele><speed>18.95</speed><time>2016-06-29T12:44:05Z</time><pdop>10.0</pdop><geoidheight>53.00</geoidheight><course>103.6</course><type>1</type></trkpt>
      <trkpt lat="40.73617837" lon="-4.80035051"><ele>1662</ele><speed>18.67</speed><time>2016-06-29T12:44:06Z</time><pdop>9.0</pdop><geoidheight>53.00</geoidheight><course>109.8</course><type>1</type></trkpt>
      <trkpt lat="40.73612578" lon="-4.80014442"><ele>1665</ele><speed>18.04</speed><time>2016-06-29T12:44:07Z</time><pdop>9.0</pdop><geoidheight>53.00</geoidheight><course>109.9</course><type>1</type></trkpt>
      <trkpt lat="40.73605613" lon="-4.7999316"><ele>1665</ele><speed>17.64</speed><time>2016-06-29T12:44:08Z</time><pdop>9.0</pdop><geoidheight>53.00</geoidheight><course>109.2</course><type>1</type></trkpt>
      <trkpt lat="40.7359613" lon="-4.79957964"><ele>1666</ele><speed>16.09</speed><time>2016-06-29T12:44:10Z</time><pdop>8.0</pdop><geoidheight>53.00</geoidheight><course>110.0</course><type>1</type></trkpt>
      <trkpt lat="40.73590851" lon="-4.79938294"><ele>1663</ele><speed>16.26</speed><time>2016-06-29T12:44:11Z</time><pdop>7.0</pdop><geoidheight>53.00</geoidheight><course>113.0</course><type>1</type></trkpt>
      <trkpt lat="40.73581063" lon="-4.79927633"><ele>1665</ele><speed>15.17</speed><time>2016-06-29T12:44:12Z</time><pdop>7.0</pdop><geoidheight>53.00</geoidheight><course>129.9</course><type>1</type></trkpt>
      <trkpt lat="40.73573326" lon="-4.79912731"><ele>1664</ele><speed>14.69</speed><time>2016-06-29T12:44:13Z</time><pdop>8.0</pdop><geoidheight>53.00</geoidheight><course>129.2</course><type>1</type></trkpt>
      <trkpt lat="40.73553192" lon="-4.79895631"><ele>1665</ele><speed>8.66</speed><time>2016-06-29T12:44:16Z</time><pdop>13.0</pdop><geoidheight>53.00</geoidheight><course>147.6</course><type>1</type></trkpt>
      <trkpt lat="40.7357809" lon="-4.79836763"><ele>1662</ele><speed>11.01</speed><time>2016-06-29T12:44:25Z</time><pdop>20.0</pdop><geoidheight>53.00</geoidheight><course>63.0</course><type>1</type></trkpt>
      <trkpt lat="40.73589363" lon="-4.79762782"><ele>1660</ele><speed>17.72</speed><time>2016-06-29T12:44:28Z</time><pdop>18.0</pdop><geoidheight>53.00</geoidheight><course>77.4</course><type>1</type></trkpt>
      <trkpt lat="40.73594324" lon="-4.79701574"><ele>1661</ele><speed>20.57</speed><time>2016-06-29T12:44:30Z</time><pdop>19.0</pdop><geoidheight>53.00</geoidheight><course>79.7</course><type>1</type></trkpt>
      <trkpt lat="40.73589654" lon="-4.79656036"><ele>1662</ele><speed>18.71</speed><time>2016-06-29T12:44:32Z</time><pdop>16.0</pdop><geoidheight>53.00</geoidheight><course>86.5</course><type>1</type></trkpt>
      <trkpt lat="40.73580538" lon="-4.79613359"><ele>1662</ele><speed>18.93</speed><time>2016-06-29T12:44:34Z</time><pdop>11.0</pdop><geoidheight>53.00</geoidheight><course>97.8</course><type>1</type></trkpt>
      <trkpt lat="40.73578673" lon="-4.79589729"><ele>1660</ele><speed>19.64</speed><time>2016-06-29T12:44:35Z</time><pdop>9.0</pdop><geoidheight>53.00</geoidheight><course>97.7</course><type>1</type></trkpt>
      <trkpt lat="40.73580325" lon="-4.79564296"><ele>1657</ele><speed>20.10</speed><time>2016-06-29T12:44:36Z</time><pdop>7.0</pdop><geoidheight>53.00</geoidheight><course>93.5</course><type>1</type></trkpt>
      <trkpt lat="40.73578515" lon="-4.79542155"><ele>1659</ele><speed>20.16</speed><time>2016-06-29T12:44:37Z</time><pdop>7.0</pdop><geoidheight>53.00</geoidheight><course>93.0</course><type>1</type></trkpt>
      <trkpt lat="40.73577357" lon="-4.79519155"><ele>1656</ele><speed>19.57</speed><time>2016-06-29T12:44:38Z</time><pdop>6.0</pdop><geoidheight>53.00</geoidheight><course>94.0</course><type>1</type></trkpt>
      <trkpt lat="40.73576068" lon="-4.79495872"><ele>1656</ele><speed>19.76</speed><time>2016-06-29T12:44:39Z</time><pdop>7.0</pdop><geoidheight>53.00</geoidheight><course>94.4</course><type>1</type></trkpt>
      <trkpt lat="40.73575567" lon="-4.79472717"><ele>1655</ele><speed>19.67</speed><time>2016-06-29T12:44:40Z</time><pdop>10.0</pdop><geoidheight>53.00</geoidheight><course>93.7</course><type>1</type></trkpt>
      <trkpt lat="40.73574116" lon="-4.79445811"><ele>1656</ele><speed>21.07</speed><time>2016-06-29T12:44:41Z</time><pdop>11.0</pdop><geoidheight>53.00</geoidheight><course>92.1</course><type>1</type></trkpt>
      <trkpt lat="40.73575055" lon="-4.79418241"><ele>1655</ele><speed>21.66</speed><time>2016-06-29T12:44:42Z</time><pdop>12.0</pdop><geoidheight>53.00</geoidheight><course>91.1</course><type>1</type></trkpt>
      <trkpt lat="40.73576472" lon="-4.79367989"><ele>1654</ele><speed>20.60</speed><time>2016-06-29T12:44:44Z</time><pdop>14.0</pdop><geoidheight>53.00</geoidheight><course>90.0</course><type>1</type></trkpt>
      <trkpt lat="40.73576672" lon="-4.79319265"><ele>1652</ele><speed>20.68</speed><time>2016-06-29T12:44:46Z</time><pdop>15.0</pdop><geoidheight>53.00</geoidheight><course>90.3</course><type>1</type></trkpt>
      <trkpt lat="40.73581359" lon="-4.79267048"><ele>1646</ele><speed>16.41</speed><time>2016-06-29T12:44:49Z</time><pdop>13.0</pdop><geoidheight>53.00</geoidheight><course>85.2</course><type>1</type></trkpt>
      <trkpt lat="40.73594133" lon="-4.79239207"><ele>1648</ele><speed>13.45</speed><time>2016-06-29T12:44:51Z</time><pdop>10.0</pdop><geoidheight>53.00</geoidheight><course>71.6</course><type>1</type></trkpt>
      <trkpt lat="40.73563042" lon="-4.79208098"><ele>1641</ele><speed>10.51</speed><time>2016-06-29T12:45:01Z</time><pdop>23.0</pdop><geoidheight>53.00</geoidheight><course>133.9</course><type>1</type></trkpt>
      <trkpt lat="40.73540928" lon="-4.79156682"><ele>1640</ele><speed>15.50</speed><time>2016-06-29T12:45:03Z</time><pdop>22.0</pdop><geoidheight>53.00</geoidheight><course>121.7</course><type>1</type></trkpt>
      <trkpt lat="40.73520849" lon="-4.79078936"><ele>1641</ele><speed>17.95</speed><time>2016-06-29T12:45:06Z</time><pdop>26.0</pdop><geoidheight>53.00</geoidheight><course>111.1</course><type>1</type></trkpt>
      <trkpt lat="40.7352165" lon="-4.7900896"><ele>1644</ele><speed>16.78</speed><time>2016-06-29T12:45:09Z</time><pdop>28.0</pdop><geoidheight>53.00</geoidheight><course>98.6</course><type>1</type></trkpt>
      <trkpt lat="40.7353729" lon="-4.78934477"><ele>1641</ele><speed>18.90</speed><time>2016-06-29T12:45:12Z</time><pdop>22.0</pdop><geoidheight>53.00</geoidheight><course>85.1</course><type>1</type></trkpt>
      <trkpt lat="40.73552223" lon="-4.78884476"><ele>1636</ele><speed>16.40</speed><time>2016-06-29T12:45:15Z</time><pdop>17.0</pdop><geoidheight>53.00</geoidheight><course>83.3</course><type>1</type></trkpt>
      <trkpt lat="40.73559666" lon="-4.78841869"><ele>1635</ele><speed>17.45</speed><time>2016-06-29T12:45:17Z</time><pdop>19.0</pdop><geoidheight>53.00</geoidheight><course>80.6</course><type>1</type></trkpt>
      <trkpt lat="40.73573105" lon="-4.78798829"><ele>1632</ele><speed>17.79</speed><time>2016-06-29T12:45:19Z</time><pdop>20.0</pdop><geoidheight>53.00</geoidheight><course>75.4</course><type>1</type></trkpt>
      <trkpt lat="40.73579411" lon="-4.78755959"><ele>1631</ele><speed>18.00</speed><time>2016-06-29T12:45:21Z</time><pdop>15.0</pdop><geoidheight>53.00</geoidheight><course>78.3</course><type>1</type></trkpt>
      <trkpt lat="40.73595518" lon="-4.78718158"><ele>1621</ele><speed>15.65</speed><time>2016-06-29T12:45:24Z</time><pdop>13.0</pdop><geoidheight>53.00</geoidheight><course>63.4</course><type>1</type></trkpt>
      <trkpt lat="40.73606756" lon="-4.78687236"><ele>1615</ele><speed>15.13</speed><time>2016-06-29T12:45:26Z</time><pdop>13.0</pdop><geoidheight>53.00</geoidheight><course>61.2</course><type>1</type></trkpt>
      <trkpt lat="40.73619911" lon="-4.78661709"><ele>1611</ele><speed>13.17</speed><time>2016-06-29T12:45:28Z</time><pdop>12.0</pdop><geoidheight>53.00</geoidheight><course>60.3</course><type>1</type></trkpt>
      <trkpt lat="40.73636233" lon="-4.78633921"><ele>1607</ele><speed>14.49</speed><time>2016-06-29T12:45:30Z</time><pdop>11.0</pdop><geoidheight>53.00</geoidheight><course>55.2</course><type>1</type></trkpt>
      <trkpt lat="40.73653864" lon="-4.78605226"><ele>1606</ele><speed>14.93</speed><time>2016-06-29T12:45:32Z</time><pdop>11.0</pdop><geoidheight>53.00</geoidheight><course>53.6</course><type>1</type></trkpt>
      <trkpt lat="40.73665952" lon="-4.78575108"><ele>1605</ele><speed>13.79</speed><time>2016-06-29T12:45:34Z</time><pdop>11.0</pdop><geoidheight>53.00</geoidheight><course>61.1</course><type>1</type></trkpt>
      <trkpt lat="40.73677357" lon="-4.78544303"><ele>1601</ele><speed>14.05</speed><time>2016-06-29T12:45:36Z</time><pdop>11.0</pdop><geoidheight>53.00</geoidheight><course>61.2</course><type>1</type></trkpt>
      <trkpt lat="40.73690477" lon="-4.78515132"><ele>1600</ele><speed>14.36</speed><time>2016-06-29T12:45:38Z</time><pdop>13.0</pdop><geoidheight>53.00</geoidheight><course>60.8</course><type>1</type></trkpt>
      <trkpt lat="40.73700999" lon="-4.78478505"><ele>1599</ele><speed>15.78</speed><time>2016-06-29T12:45:40Z</time><pdop>14.0</pdop><geoidheight>53.00</geoidheight><course>66.4</course><type>1</type></trkpt>
      <trkpt lat="40.73712315" lon="-4.78441798"><ele>1598</ele><speed>15.92</speed><time>2016-06-29T12:45:42Z</time><pdop>14.0</pdop><geoidheight>53.00</geoidheight><course>67.1</course><type>1</type></trkpt>
      <trkpt lat="40.7373013" lon="-4.78395444"><ele>1593</ele><speed>16.67</speed><time>2016-06-29T12:45:45Z</time><pdop>13.0</pdop><geoidheight>53.00</geoidheight><course>64.1</course><type>1</type></trkpt>
      <trkpt lat="40.73745361" lon="-4.78359017"><ele>1594</ele><speed>17.17</speed><time>2016-06-29T12:45:47Z</time><pdop>13.0</pdop><geoidheight>53.00</geoidheight><course>62.3</course><type>1</type></trkpt>
      <trkpt lat="40.73758979" lon="-4.78329714"><ele>1590</ele><speed>14.78</speed><time>2016-06-29T12:45:49Z</time><pdop>12.0</pdop><geoidheight>53.00</geoidheight><course>55.2</course><type>1</type></trkpt>
      <trkpt lat="40.7377514" lon="-4.7829864"><ele>1587</ele><speed>16.12</speed><time>2016-06-29T12:45:51Z</time><pdop>13.0</pdop><geoidheight>53.00</geoidheight><course>52.6</course><type>1</type></trkpt>
      <trkpt lat="40.73794897" lon="-4.78264171"><ele>1584</ele><speed>18.14</speed><time>2016-06-29T12:45:53Z</time><pdop>14.0</pdop><geoidheight>53.00</geoidheight><course>52.0</course><type>1</type></trkpt>
      <trkpt lat="40.73810833" lon="-4.78223546"><ele>1582</ele><speed>18.84</speed><time>2016-06-29T12:45:55Z</time><pdop>16.0</pdop><geoidheight>53.00</geoidheight><course>56.4</course><type>1</type></trkpt>
      <trkpt lat="40.7382987" lon="-4.78190362"><ele>1579</ele><speed>18.26</speed><time>2016-06-29T12:45:57Z</time><pdop>16.0</pdop><geoidheight>53.00</geoidheight><course>54.8</course><type>1</type></trkpt>
      <trkpt lat="40.73843123" lon="-4.781545"><ele>1577</ele><speed>17.54</speed><time>2016-06-29T12:45:59Z</time><pdop>14.0</pdop><geoidheight>53.00</geoidheight><course>59.2</course><type>1</type></trkpt>
      <trkpt lat="40.73863967" lon="-4.78115673"><ele>1572</ele><speed>18.26</speed><time>2016-06-29T12:46:01Z</time><pdop>13.0</pdop><geoidheight>53.00</geoidheight><course>59.1</course><type>1</type></trkpt>
      <trkpt lat="40.73880363" lon="-4.78075842"><ele>1567</ele><speed>18.79</speed><time>2016-06-29T12:46:03Z</time><pdop>15.0</pdop><geoidheight>53.00</geoidheight><course>62.9</course><type>1</type></trkpt>
      <trkpt lat="40.73893422" lon="-4.78034227"><ele>1562</ele><speed>19.03</speed><time>2016-06-29T12:46:05Z</time><pdop>15.0</pdop><geoidheight>53.00</geoidheight><course>67.2</course><type>1</type></trkpt>
      <trkpt lat="40.73901014" lon="-4.77993478"><ele>1555</ele><speed>17.83</speed><time>2016-06-29T12:46:07Z</time><pdop>13.0</pdop><geoidheight>53.00</geoidheight><course>72.5</course><type>1</type></trkpt>
      <trkpt lat="40.73909362" lon="-4.77950334"><ele>1553</ele><speed>17.90</speed><time>2016-06-29T12:46:09Z</time><pdop>14.0</pdop><geoidheight>53.00</geoidheight><course>74.3</course><type>1</type></trkpt>
      <trkpt lat="40.7396446" lon="-4.7780713"><ele>1793</ele><speed>18.60</speed><time>2016-06-29T12:46:16Z</time><pdop>12.0</pdop><geoidheight>53.00</geoidheight><course>63.6</course><type>1</type></trkpt>
      <trkpt lat="40.73979184" lon="-4.77775634"><ele>1737</ele><speed>16.83</speed><time>2016-06-29T12:46:18Z</time><pdop>17.0</pdop><geoidheight>53.00</geoidheight><course>61.0</course><type>1</type></trkpt>
      <trkpt lat="40.74013642" lon="-4.77712527"><ele>1719</ele><speed>19.19</speed><time>2016-06-29T12:46:21Z</time><pdop>23.0</pdop><geoidheight>53.00</geoidheight><course>58.4</course><type>1</type></trkpt>
      <trkpt lat="40.74038101" lon="-4.77658559"><ele>1651</ele><speed>18.30</speed><time>2016-06-29T12:46:24Z</time><pdop>15.0</pdop><geoidheight>53.00</geoidheight><course>57.2</course><type>1</type></trkpt>
      <trkpt lat="40.74055891" lon="-4.77615721"><ele>1666</ele><speed>19.15</speed><time>2016-06-29T12:46:26Z</time><pdop>21.0</pdop><geoidheight>53.00</geoidheight><course>59.3</course><type>1</type></trkpt>
      <trkpt lat="40.74083398" lon="-4.77578256"><ele>1655</ele><speed>18.19</speed><time>2016-06-29T12:46:29Z</time><pdop>18.0</pdop><geoidheight>53.00</geoidheight><course>53.7</course><type>1</type></trkpt>
      <trkpt lat="40.74097514" lon="-4.77538935"><ele>1649</ele><speed>18.05</speed><time>2016-06-29T12:46:31Z</time><pdop>17.0</pdop><geoidheight>53.00</geoidheight><course>58.7</course><type>1</type></trkpt>
      <trkpt lat="40.74122826" lon="-4.77478273"><ele>1627</ele><speed>18.74</speed><time>2016-06-29T12:46:34Z</time><pdop>28.0</pdop><geoidheight>53.00</geoidheight><course>60.6</course><type>1</type></trkpt>
      <trkpt lat="40.74155421" lon="-4.77414229"><ele>1606</ele><speed>19.26</speed><time>2016-06-29T12:46:37Z</time><pdop>22.0</pdop><geoidheight>53.00</geoidheight><course>57.5</course><type>1</type></trkpt>
      <trkpt lat="40.74172718" lon="-4.77355618"><ele>1572</ele><speed>18.69</speed><time>2016-06-29T12:46:40Z</time><pdop>15.0</pdop><geoidheight>53.00</geoidheight><course>63.2</course><type>1</type></trkpt>
      <trkpt lat="40.7419653" lon="-4.77310888"><ele>1568</ele><speed>16.29</speed><time>2016-06-29T12:46:43Z</time><pdop>23.0</pdop><geoidheight>53.00</geoidheight><course>58.9</course><type>1</type></trkpt>
      <trkpt lat="40.74201525" lon="-4.77250542"><ele>1534</ele><speed>16.14</speed><time>2016-06-29T12:46:46Z</time><pdop>26.0</pdop><geoidheight>53.00</geoidheight><course>71.7</course><type>1</type></trkpt>
      <trkpt lat="40.74209467" lon="-4.77170273"><ele>1520</ele><speed>19.90</speed><time>2016-06-29T12:46:49Z</time><pdop>30.0</pdop><geoidheight>53.00</geoidheight><course>80.6</course><type>1</type></trkpt>
      <trkpt lat="40.74235374" lon="-4.77110218"><ele>1512</ele><speed>18.76</speed><time>2016-06-29T12:46:52Z</time><pdop>26.0</pdop><geoidheight>53.00</geoidheight><course>66.5</course><type>1</type></trkpt>
      <trkpt lat="40.74262342" lon="-4.77048566"><ele>1496</ele><speed>18.64</speed><time>2016-06-29T12:46:55Z</time><pdop>23.0</pdop><geoidheight>53.00</geoidheight><course>61.6</course><type>1</type></trkpt>
      <trkpt lat="40.7429288" lon="-4.76990942"><ele>1487</ele><speed>18.13</speed><time>2016-06-29T12:46:58Z</time><pdop>22.0</pdop><geoidheight>53.00</geoidheight><course>57.9</course><type>1</type></trkpt>
      <trkpt lat="40.74317365" lon="-4.76940254"><ele>1475</ele><speed>17.11</speed><time>2016-06-29T12:47:01Z</time><pdop>25.0</pdop><geoidheight>53.00</geoidheight><course>58.8</course><type>1</type></trkpt>
      <trkpt lat="40.74346807" lon="-4.76868535"><ele>1466</ele><speed>17.31</speed><time>2016-06-29T12:47:05Z</time><pdop>30.0</pdop><geoidheight>53.00</geoidheight><course>64.6</course><type>1</type></trkpt>
      <trkpt lat="40.7438529" lon="-4.76791195"><ele>1462</ele><speed>18.97</speed><time>2016-06-29T12:47:09Z</time><pdop>31.0</pdop><geoidheight>53.00</geoidheight><course>63.4</course><type>1</type></trkpt>
      <trkpt lat="40.74424388" lon="-4.76722885"><ele>1454</ele><speed>20.60</speed><time>2016-06-29T12:47:12Z</time><pdop>35.0</pdop><geoidheight>53.00</geoidheight><course>58.3</course><type>1</type></trkpt>
      <trkpt lat="40.74463952" lon="-4.76665151"><ele>1437</ele><speed>19.55</speed><time>2016-06-29T12:47:15Z</time><pdop>26.0</pdop><geoidheight>53.00</geoidheight><course>54.3</course><type>1</type></trkpt>
      <trkpt lat="40.74485815" lon="-4.76610452"><ele>1424</ele><speed>19.38</speed><time>2016-06-29T12:47:18Z</time><pdop>19.0</pdop><geoidheight>53.00</geoidheight><course>63.2</course><type>1</type></trkpt>
      <trkpt lat="40.74504232" lon="-4.76569083"><ele>1417</ele><speed>19.31</speed><time>2016-06-29T12:47:20Z</time><pdop>17.0</pdop><geoidheight>53.00</geoidheight><course>57.7</course><type>1</type></trkpt>
      <trkpt lat="40.74522124" lon="-4.76530357"><ele>1415</ele><speed>18.91</speed><time>2016-06-29T12:47:22Z</time><pdop>20.0</pdop><geoidheight>53.00</geoidheight><course>59.6</course><type>1</type></trkpt>
      <trkpt lat="40.74554317" lon="-4.7648147"><ele>1403</ele><speed>18.35</speed><time>2016-06-29T12:47:25Z</time><pdop>17.0</pdop><geoidheight>53.00</geoidheight><course>53.0</course><type>1</type></trkpt>
      <trkpt lat="40.74575493" lon="-4.76440139"><ele>1397</ele><speed>20.34</speed><time>2016-06-29T12:47:27Z</time><pdop>16.0</pdop><geoidheight>53.00</geoidheight><course>54.6</course><type>1</type></trkpt>
      <trkpt lat="40.74592046" lon="-4.76401985"><ele>1393</ele><speed>18.59</speed><time>2016-06-29T12:47:29Z</time><pdop>17.0</pdop><geoidheight>53.00</geoidheight><course>55.6</course><type>1</type></trkpt>
      <trkpt lat="40.74609414" lon="-4.76365549"><ele>1391</ele><speed>17.87</speed><time>2016-06-29T12:47:31Z</time><pdop>19.0</pdop><geoidheight>53.00</geoidheight><course>57.5</course><type>1</type></trkpt>
      <trkpt lat="40.74630272" lon="-4.76320542"><ele>1386</ele><speed>19.53</speed><time>2016-06-29T12:47:33Z</time><pdop>18.0</pdop><geoidheight>53.00</geoidheight><course>61.2</course><type>1</type></trkpt>
      <trkpt lat="40.74644973" lon="-4.76276709"><ele>1384</ele><speed>19.40</speed><time>2016-06-29T12:47:35Z</time><pdop>19.0</pdop><geoidheight>53.00</geoidheight><course>63.1</course><type>1</type></trkpt>
      <trkpt lat="40.74658126" lon="-4.76212024"><ele>1380</ele><speed>19.17</speed><time>2016-06-29T12:47:38Z</time><pdop>19.0</pdop><geoidheight>53.00</geoidheight><course>69.6</course><type>1</type></trkpt>
      <trkpt lat="40.74672763" lon="-4.76163527"><ele>1378</ele><speed>20.05</speed><time>2016-06-29T12:47:40Z</time><pdop>24.0</pdop><geoidheight>53.00</geoidheight><course>68.5</course><type>1</type></trkpt>
      <trkpt lat="40.74706501" lon="-4.76100285"><ele>1372</ele><speed>20.11</speed><time>2016-06-29T12:47:43Z</time><pdop>24.0</pdop><geoidheight>53.00</geoidheight><course>60.3</course><type>1</type></trkpt>
      <trkpt lat="40.74730951" lon="-4.76046313"><ele>1366</ele><speed>18.57</speed><time>2016-06-29T12:47:46Z</time><pdop>23.0</pdop><geoidheight>53.00</geoidheight><course>63.5</course><type>1</type></trkpt>
      <trkpt lat="40.74760546" lon="-4.75983906"><ele>1357</ele><speed>19.63</speed><time>2016-06-29T12:47:49Z</time><pdop>29.0</pdop><geoidheight>53.00</geoidheight><course>64.5</course><type>1</type></trkpt>
      <trkpt lat="40.7476557" lon="-4.75891455"><ele>1349</ele><speed>19.66</speed><time>2016-06-29T12:47:53Z</time><pdop>43.0</pdop><geoidheight>53.00</geoidheight><course>85.4</course><type>1</type></trkpt>
      <trkpt lat="40.74767966" lon="-4.75782301"><ele>1340</ele><speed>21.68</speed><time>2016-06-29T12:47:57Z</time><pdop>33.0</pdop><geoidheight>53.00</geoidheight><course>85.3</course><type>1</type></trkpt>
      <trkpt lat="40.74780655" lon="-4.75702043"><ele>1331</ele><speed>21.80</speed><time>2016-06-29T12:48:00Z</time><pdop>27.0</pdop><geoidheight>53.00</geoidheight><course>84.7</course><type>1</type></trkpt>
      <trkpt lat="40.74804894" lon="-4.75636636"><ele>1310</ele><speed>17.60</speed><time>2016-06-29T12:48:04Z</time><pdop>27.0</pdop><geoidheight>53.00</geoidheight><course>73.1</course><type>1</type></trkpt>
      <trkpt lat="40.74819531" lon="-4.75569264"><ele>1302</ele><speed>18.44</speed><time>2016-06-29T12:48:07Z</time><pdop>28.0</pdop><geoidheight>53.00</geoidheight><course>76.3</course><type>1</type></trkpt>
      <trkpt lat="40.74839118" lon="-4.75507202"><ele>1296</ele><speed>18.40</speed><time>2016-06-29T12:48:10Z</time><pdop>27.0</pdop><geoidheight>53.00</geoidheight><course>70.0</course><type>1</type></trkpt>
      <trkpt lat="40.74863635" lon="-4.75445722"><ele>1290</ele><speed>17.65</speed><time>2016-06-29T12:48:13Z</time><pdop>25.0</pdop><geoidheight>53.00</geoidheight><course>68.0</course><type>1</type></trkpt>
      <trkpt lat="40.74887121" lon="-4.75386231"><ele>1285</ele><speed>17.21</speed><time>2016-06-29T12:48:16Z</time><pdop>27.0</pdop><geoidheight>53.00</geoidheight><course>66.6</course><type>1</type></trkpt>
      <trkpt lat="40.74913994" lon="-4.75310047"><ele>1275</ele><speed>16.30</speed><time>2016-06-29T12:48:20Z</time><pdop>30.0</pdop><geoidheight>53.00</geoidheight><course>70.7</course><type>1</type></trkpt>
      <trkpt lat="40.74933928" lon="-4.75231441"><ele>1264</ele><speed>19.88</speed><time>2016-06-29T12:48:24Z</time><pdop>31.0</pdop><geoidheight>53.00</geoidheight><course>77.0</course><type>1</type></trkpt>
      <trkpt lat="40.74944786" lon="-4.75154983"><ele>1256</ele><speed>19.68</speed><time>2016-06-29T12:48:27Z</time><pdop>22.0</pdop><geoidheight>53.00</geoidheight><course>89.3</course><type>1</type></trkpt>
      <trkpt lat="40.74941958" lon="-4.75083681"><ele>1243</ele><speed>20.47</speed><time>2016-06-29T12:48:30Z</time><pdop>19.0</pdop><geoidheight>53.00</geoidheight><course>99.3</course><type>1</type></trkpt>
      <trkpt lat="40.74934453" lon="-4.7503918"><ele>1234</ele><speed>20.21</speed><time>2016-06-29T12:48:32Z</time><pdop>19.0</pdop><geoidheight>53.00</geoidheight><course>99.6</course><type>1</type></trkpt>
      <trkpt lat="40.74942776" lon="-4.7497552"><ele>1228</ele><speed>13.42</speed><time>2016-06-29T12:48:36Z</time><pdop>31.0</pdop><geoidheight>53.00</geoidheight><course>85.4</course><type>1</type></trkpt>
      <trkpt lat="40.74991648" lon="-4.74924155"><ele>1225</ele><speed>10.90</speed><time>2016-06-29T12:48:41Z</time><pdop>34.0</pdop><geoidheight>53.00</geoidheight><course>38.0</course><type>1</type></trkpt>
      <trkpt lat="40.75048077" lon="-4.74890324"><ele>1211</ele><speed>8.03</speed><time>2016-06-29T12:48:46Z</time><pdop>23.0</pdop><geoidheight>53.00</geoidheight><course>24.1</course><type>1</type></trkpt>
      <trkpt lat="40.7508232" lon="-4.74880597"><ele>1204</ele><speed>12.33</speed><time>2016-06-29T12:48:49Z</time><pdop>14.0</pdop><geoidheight>53.00</geoidheight><course>21.5</course><type>1</type></trkpt>
      <trkpt lat="40.75108104" lon="-4.74855638"><ele>1201</ele><speed>11.73</speed><time>2016-06-29T12:48:52Z</time><pdop>12.0</pdop><geoidheight>53.00</geoidheight><course>50.2</course><type>1</type></trkpt>
      <trkpt lat="40.75123289" lon="-4.74828785"><ele>1200</ele><speed>12.44</speed><time>2016-06-29T12:48:54Z</time><pdop>11.0</pdop><geoidheight>53.00</geoidheight><course>55.7</course><type>1</type></trkpt>
      <trkpt lat="40.75142442" lon="-4.74790557"><ele>1196</ele><speed>11.48</speed><time>2016-06-29T12:48:57Z</time><pdop>18.0</pdop><geoidheight>53.00</geoidheight><course>53.0</course><type>1</type></trkpt>
      <trkpt lat="40.75181226" lon="-4.74760277"><ele>1192</ele><speed>7.93</speed><time>2016-06-29T12:49:03Z</time><pdop>19.0</pdop><geoidheight>53.00</geoidheight><course>19.3</course><type>1</type></trkpt>
      <trkpt lat="40.75207599" lon="-4.74748114"><ele>1194</ele><speed>5.32</speed><time>2016-06-29T12:49:10Z</time><pdop>12.0</pdop><geoidheight>53.00</geoidheight><course>15.2</course><type>1</type></trkpt>
      <trkpt lat="40.75184697" lon="-4.74740238"><ele>1172</ele><speed>6.73</speed><time>2016-06-29T12:49:20Z</time><pdop>13.0</pdop><geoidheight>53.00</geoidheight><course>161.8</course><type>1</type></trkpt>
      <trkpt lat="40.75159179" lon="-4.74722761"><ele>1172</ele><speed>8.27</speed><time>2016-06-29T12:49:23Z</time><pdop>10.0</pdop><geoidheight>53.00</geoidheight><course>151.3</course><type>1</type></trkpt>
      <trkpt lat="40.75141733" lon="-4.74720143"><ele>1160</ele><speed>5.46</speed><time>2016-06-29T12:49:26Z</time><pdop>6.0</pdop><geoidheight>53.00</geoidheight><course>176.0</course><type>1</type></trkpt>
      <trkpt lat="40.75134293" lon="-4.74734807"><ele>1149</ele><speed>5.64</speed><time>2016-06-29T12:49:30Z</time><pdop>5.0</pdop><geoidheight>53.00</geoidheight><course>242.8</course><type>1</type></trkpt>
      <trkpt lat="40.75140179" lon="-4.74742184"><ele>1131</ele><speed>2.58</speed><time>2016-06-29T12:49:38Z</time><pdop>4.0</pdop><geoidheight>53.00</geoidheight><course>251.2</course><type>1</type></trkpt>
      <trkpt lat="40.75134515" lon="-4.7475014"><ele>1128</ele><speed>3.76</speed><time>2016-06-29T12:49:41Z</time><pdop>4.0</pdop><geoidheight>53.00</geoidheight><course>230.9</course><type>1</type></trkpt>
      <trkpt lat="40.75127337" lon="-4.7475368"><ele>1121</ele><speed>2.71</speed><time>2016-06-29T12:49:45Z</time><pdop>3.0</pdop><geoidheight>53.00</geoidheight><course>220.9</course><type>1</type></trkpt>
      <trkpt lat="40.75128423" lon="-4.74762015"><ele>1118</ele><speed>2.54</speed><time>2016-06-29T12:49:48Z</time><pdop>3.0</pdop><geoidheight>53.00</geoidheight><course>268.7</course><type>1</type></trkpt>
      <trkpt lat="40.75132313" lon="-4.74771527"><ele>1116</ele><speed>3.07</speed><time>2016-06-29T12:49:52Z</time><pdop>4.0</pdop><geoidheight>53.00</geoidheight><course>317.6</course><type>1</type></trkpt>
      <trkpt lat="40.75140569" lon="-4.74772305"><ele>1114</ele><speed>2.15</speed><time>2016-06-29T12:49:55Z</time><pdop>5.0</pdop><geoidheight>53.00</geoidheight><course>349.9</course><type>1</type></trkpt>
      <trkpt lat="40.75132516" lon="-4.74770263"><ele>1108</ele><speed>1.18</speed><time>2016-06-29T12:50:05Z</time><pdop>4.0</pdop><geoidheight>53.00</geoidheight><course>111.0</course><type>1</type></trkpt>
      <trkpt lat="40.75133662" lon="-4.74765012"><ele>1101</ele><speed>0.00</speed><time>2016-06-29T12:51:05Z</time><pdop>9.0</pdop><geoidheight>53.00</geoidheight><course>0.0</course><type>1</type></trkpt>
      <trkpt lat="40.75120728" lon="-4.74786815"><ele>1138</ele><speed>2.20</speed><time>2016-06-29T12:51:48Z</time><pdop>13.0</pdop><geoidheight>53.00</geoidheight><course>267.3</course><type>1</type></trkpt>
      <trkpt lat="40.75101255" lon="-4.74798043"><ele>1102</ele><speed>0.80</speed><time>2016-06-29T12:52:22Z</time><pdop>10.0</pdop><geoidheight>53.00</geoidheight><course>180.6</course><type>1</type></trkpt>
      <trkpt lat="40.7508917" lon="-4.74798762"><ele>1097</ele><speed>0.49</speed><time>2016-06-29T12:52:35Z</time><pdop>3.0</pdop><geoidheight>53.00</geoidheight><course>173.7</course><type>1</type></trkpt>
      <trkpt lat="40.75089834" lon="-4.7479922"><ele>1096</ele><speed>0.00</speed><time>2016-06-29T12:53:35Z</time><pdop>9.0</pdop><geoidheight>53.00</geoidheight><course>0.0</course><type>1</type></trkpt>
      <trkpt lat="40.75089778" lon="-4.74799189"><ele>1096</ele><speed>0.00</speed><time>2016-06-29T12:54:35Z</time><pdop>9.0</pdop><geoidheight>53.00</geoidheight><course>0.0</course><type>1</type></trkpt>
      <trkpt lat="40.75089729" lon="-4.7479918"><ele>1096</ele><speed>0.00</speed><time>2016-06-29T12:55:35Z</time><pdop>4.0</pdop><geoidheight>53.00</geoidheight><course>0.0</course><type>1</type></trkpt>
      <trkpt lat="40.75089705" lon="-4.74799137"><ele>1096</ele><speed>0.00</speed><time>2016-06-29T12:56:35Z</time><pdop>3.0</pdop><geoidheight>53.00</geoidheight><course>0.0</course><type>1</type></trkpt>
      <trkpt lat="40.75089117" lon="-4.74798977"><ele>1094</ele><speed>0.00</speed><time>2016-06-29T12:57:35Z</time><pdop>6.0</pdop><geoidheight>53.00</geoidheight><course>0.0</course><type>1</type></trkpt>
      <trkpt lat="40.75090747" lon="-4.74797635"><ele>1094</ele><speed>0.00</speed><time>2016-06-29T12:58:35Z</time><pdop>5.0</pdop><geoidheight>53.00</geoidheight><course>0.0</course><type>1</type></trkpt>
    </trkseg>
  </trk>
</gpx>